<?xml version="1.0" encoding="UTF-8" standalone="no" ?>
<gpx xmlns="http://www.topografix.com/GPX/1/1" xmlns:xsi="http://www.w3.org/2001/XMLSchema-instance" xsi:schemaLocation="http://www.topografix.com/GPX/1/1 http://www.topografix.com/GPX/1/1/gpx.xsd" version="1.1" creator="VisuGPX - https://www.visugpx.com">
  <metadata>
    <name>MB. Sortie du 15/09/2019</name>
    <desc><![CDATA[Sortie VTT du dimanche 15 septembre 2019]]></desc>
  </metadata>
  <trk>
    <name><![CDATA[MB. Sortie du 15/09/2019_1]]></name>
    <trkseg>
      <trkpt lat="47.26432" lon="-2.31558">
        <ele>11.1</ele>
        <time>2019-09-15T06:54:22Z</time>
      </trkpt>
      <trkpt lat="47.26432" lon="-2.31558">
        <ele>26</ele>
        <time>2019-09-15T06:54:44Z</time>
      </trkpt>
      <trkpt lat="47.26427" lon="-2.31556">
        <ele>57</ele>
        <time>2019-09-15T06:55:23Z</time>
      </trkpt>
      <trkpt lat="47.2642" lon="-2.31552">
        <ele>60</ele>
        <time>2019-09-15T06:55:28Z</time>
      </trkpt>
      <trkpt lat="47.26415" lon="-2.31551">
        <ele>60</ele>
        <time>2019-09-15T06:55:33Z</time>
      </trkpt>
      <trkpt lat="47.26415" lon="-2.31551">
        <ele>60</ele>
        <time>2019-09-15T06:55:41Z</time>
      </trkpt>
      <trkpt lat="47.26415" lon="-2.31551">
        <ele>10.1</ele>
        <time>2019-09-15T06:55:41Z</time>
      </trkpt>
      <trkpt lat="47.26415" lon="-2.31551">
        <ele>10.1</ele>
        <time>2019-09-15T06:56:14Z</time>
      </trkpt>
      <trkpt lat="47.26404" lon="-2.31588">
        <ele>68</ele>
        <time>2019-09-15T06:56:14Z</time>
      </trkpt>
      <trkpt lat="47.26406" lon="-2.31633">
        <ele>59</ele>
        <time>2019-09-15T06:56:21Z</time>
      </trkpt>
      <trkpt lat="47.26408" lon="-2.31644">
        <ele>56</ele>
        <time>2019-09-15T06:56:24Z</time>
      </trkpt>
      <trkpt lat="47.26409" lon="-2.31651">
        <ele>57</ele>
        <time>2019-09-15T06:56:26Z</time>
      </trkpt>
      <trkpt lat="47.26409" lon="-2.31655">
        <ele>56</ele>
        <time>2019-09-15T06:56:27Z</time>
      </trkpt>
      <trkpt lat="47.26407" lon="-2.31661">
        <ele>55</ele>
        <time>2019-09-15T06:56:30Z</time>
      </trkpt>
      <trkpt lat="47.26403" lon="-2.31666">
        <ele>55</ele>
        <time>2019-09-15T06:56:32Z</time>
      </trkpt>
      <trkpt lat="47.26401" lon="-2.31668">
        <ele>55</ele>
        <time>2019-09-15T06:56:33Z</time>
      </trkpt>
      <trkpt lat="47.26394" lon="-2.31672">
        <ele>56</ele>
        <time>2019-09-15T06:56:35Z</time>
      </trkpt>
      <trkpt lat="47.26387" lon="-2.31674">
        <ele>58</ele>
        <time>2019-09-15T06:56:37Z</time>
      </trkpt>
      <trkpt lat="47.26381" lon="-2.31677">
        <ele>61</ele>
        <time>2019-09-15T06:56:39Z</time>
      </trkpt>
      <trkpt lat="47.26374" lon="-2.31683">
        <ele>62</ele>
        <time>2019-09-15T06:56:41Z</time>
      </trkpt>
      <trkpt lat="47.2637" lon="-2.31686">
        <ele>63</ele>
        <time>2019-09-15T06:56:42Z</time>
      </trkpt>
      <trkpt lat="47.26366" lon="-2.31688">
        <ele>64</ele>
        <time>2019-09-15T06:56:43Z</time>
      </trkpt>
      <trkpt lat="47.26358" lon="-2.31691">
        <ele>65</ele>
        <time>2019-09-15T06:56:45Z</time>
      </trkpt>
      <trkpt lat="47.26354" lon="-2.31694">
        <ele>66</ele>
        <time>2019-09-15T06:56:46Z</time>
      </trkpt>
      <trkpt lat="47.26349" lon="-2.31696">
        <ele>66</ele>
        <time>2019-09-15T06:56:47Z</time>
      </trkpt>
      <trkpt lat="47.26342" lon="-2.317">
        <ele>65</ele>
        <time>2019-09-15T06:56:48Z</time>
      </trkpt>
      <trkpt lat="47.26335" lon="-2.31703">
        <ele>66</ele>
        <time>2019-09-15T06:56:49Z</time>
      </trkpt>
      <trkpt lat="47.26328" lon="-2.31708">
        <ele>66</ele>
        <time>2019-09-15T06:56:50Z</time>
      </trkpt>
      <trkpt lat="47.26322" lon="-2.31711">
        <ele>66</ele>
        <time>2019-09-15T06:56:51Z</time>
      </trkpt>
      <trkpt lat="47.26311" lon="-2.31717">
        <ele>66</ele>
        <time>2019-09-15T06:56:53Z</time>
      </trkpt>
      <trkpt lat="47.26301" lon="-2.31723">
        <ele>64</ele>
        <time>2019-09-15T06:56:54Z</time>
      </trkpt>
      <trkpt lat="47.26298" lon="-2.31736">
        <ele>64</ele>
        <time>2019-09-15T06:56:58Z</time>
      </trkpt>
      <trkpt lat="47.26299" lon="-2.31753">
        <ele>64</ele>
        <time>2019-09-15T06:57:01Z</time>
      </trkpt>
      <trkpt lat="47.26299" lon="-2.31759">
        <ele>64</ele>
        <time>2019-09-15T06:57:02Z</time>
      </trkpt>
      <trkpt lat="47.263" lon="-2.31765">
        <ele>64</ele>
        <time>2019-09-15T06:57:03Z</time>
      </trkpt>
      <trkpt lat="47.263" lon="-2.31771">
        <ele>64</ele>
        <time>2019-09-15T06:57:04Z</time>
      </trkpt>
      <trkpt lat="47.263" lon="-2.31783">
        <ele>63</ele>
        <time>2019-09-15T06:57:06Z</time>
      </trkpt>
      <trkpt lat="47.26299" lon="-2.3181">
        <ele>63</ele>
        <time>2019-09-15T06:57:11Z</time>
      </trkpt>
      <trkpt lat="47.26298" lon="-2.31822">
        <ele>63</ele>
        <time>2019-09-15T06:57:13Z</time>
      </trkpt>
      <trkpt lat="47.26297" lon="-2.31828">
        <ele>63</ele>
        <time>2019-09-15T06:57:14Z</time>
      </trkpt>
      <trkpt lat="47.26296" lon="-2.31833">
        <ele>64</ele>
        <time>2019-09-15T06:57:15Z</time>
      </trkpt>
      <trkpt lat="47.26296" lon="-2.31847">
        <ele>64</ele>
        <time>2019-09-15T06:57:17Z</time>
      </trkpt>
      <trkpt lat="47.26296" lon="-2.31856">
        <ele>65</ele>
        <time>2019-09-15T06:57:20Z</time>
      </trkpt>
      <trkpt lat="47.26296" lon="-2.3187">
        <ele>65</ele>
        <time>2019-09-15T06:57:22Z</time>
      </trkpt>
      <trkpt lat="47.26293" lon="-2.31877">
        <ele>66</ele>
        <time>2019-09-15T06:57:25Z</time>
      </trkpt>
      <trkpt lat="47.26287" lon="-2.31882">
        <ele>66</ele>
        <time>2019-09-15T06:57:27Z</time>
      </trkpt>
      <trkpt lat="47.26285" lon="-2.31884">
        <ele>66</ele>
        <time>2019-09-15T06:57:28Z</time>
      </trkpt>
      <trkpt lat="47.26281" lon="-2.31886">
        <ele>66</ele>
        <time>2019-09-15T06:57:29Z</time>
      </trkpt>
      <trkpt lat="47.26275" lon="-2.31892">
        <ele>67</ele>
        <time>2019-09-15T06:57:31Z</time>
      </trkpt>
      <trkpt lat="47.26268" lon="-2.31904">
        <ele>68</ele>
        <time>2019-09-15T06:57:34Z</time>
      </trkpt>
      <trkpt lat="47.26266" lon="-2.31909">
        <ele>68</ele>
        <time>2019-09-15T06:57:35Z</time>
      </trkpt>
      <trkpt lat="47.26258" lon="-2.3192">
        <ele>68</ele>
        <time>2019-09-15T06:57:38Z</time>
      </trkpt>
      <trkpt lat="47.26249" lon="-2.31932">
        <ele>69</ele>
        <time>2019-09-15T06:57:41Z</time>
      </trkpt>
      <trkpt lat="47.26246" lon="-2.31937">
        <ele>69</ele>
        <time>2019-09-15T06:57:42Z</time>
      </trkpt>
      <trkpt lat="47.26243" lon="-2.31941">
        <ele>69</ele>
        <time>2019-09-15T06:57:43Z</time>
      </trkpt>
      <trkpt lat="47.26238" lon="-2.31949">
        <ele>69</ele>
        <time>2019-09-15T06:57:45Z</time>
      </trkpt>
      <trkpt lat="47.26235" lon="-2.31954">
        <ele>69</ele>
        <time>2019-09-15T06:57:46Z</time>
      </trkpt>
      <trkpt lat="47.26232" lon="-2.31958">
        <ele>68</ele>
        <time>2019-09-15T06:57:47Z</time>
      </trkpt>
      <trkpt lat="47.26225" lon="-2.31964">
        <ele>68</ele>
        <time>2019-09-15T06:57:50Z</time>
      </trkpt>
      <trkpt lat="47.26223" lon="-2.31966">
        <ele>68</ele>
        <time>2019-09-15T06:57:51Z</time>
      </trkpt>
      <trkpt lat="47.26214" lon="-2.31975">
        <ele>69</ele>
        <time>2019-09-15T06:57:55Z</time>
      </trkpt>
      <trkpt lat="47.26209" lon="-2.31978">
        <ele>70</ele>
        <time>2019-09-15T06:57:57Z</time>
      </trkpt>
      <trkpt lat="47.26204" lon="-2.31983">
        <ele>70</ele>
        <time>2019-09-15T06:57:59Z</time>
      </trkpt>
      <trkpt lat="47.262" lon="-2.31989">
        <ele>70</ele>
        <time>2019-09-15T06:58:01Z</time>
      </trkpt>
      <trkpt lat="47.26197" lon="-2.31996">
        <ele>71</ele>
        <time>2019-09-15T06:58:03Z</time>
      </trkpt>
      <trkpt lat="47.26195" lon="-2.32">
        <ele>71</ele>
        <time>2019-09-15T06:58:05Z</time>
      </trkpt>
      <trkpt lat="47.26193" lon="-2.32007">
        <ele>71</ele>
        <time>2019-09-15T06:58:08Z</time>
      </trkpt>
      <trkpt lat="47.26187" lon="-2.3201">
        <ele>72</ele>
        <time>2019-09-15T06:58:11Z</time>
      </trkpt>
      <trkpt lat="47.26182" lon="-2.32012">
        <ele>72</ele>
        <time>2019-09-15T06:58:13Z</time>
      </trkpt>
      <trkpt lat="47.26173" lon="-2.32018">
        <ele>72</ele>
        <time>2019-09-15T06:58:15Z</time>
      </trkpt>
      <trkpt lat="47.26159" lon="-2.32031">
        <ele>68</ele>
        <time>2019-09-15T06:58:18Z</time>
      </trkpt>
      <trkpt lat="47.26151" lon="-2.32046">
        <ele>68</ele>
        <time>2019-09-15T06:58:21Z</time>
      </trkpt>
      <trkpt lat="47.26142" lon="-2.32068">
        <ele>67</ele>
        <time>2019-09-15T06:58:25Z</time>
      </trkpt>
      <trkpt lat="47.26138" lon="-2.32078">
        <ele>66</ele>
        <time>2019-09-15T06:58:26Z</time>
      </trkpt>
      <trkpt lat="47.26135" lon="-2.3209">
        <ele>65</ele>
        <time>2019-09-15T06:58:29Z</time>
      </trkpt>
      <trkpt lat="47.26134" lon="-2.32095">
        <ele>65</ele>
        <time>2019-09-15T06:58:30Z</time>
      </trkpt>
      <trkpt lat="47.26132" lon="-2.32101">
        <ele>65</ele>
        <time>2019-09-15T06:58:31Z</time>
      </trkpt>
      <trkpt lat="47.2613" lon="-2.32114">
        <ele>66</ele>
        <time>2019-09-15T06:58:33Z</time>
      </trkpt>
      <trkpt lat="47.26128" lon="-2.32121">
        <ele>65</ele>
        <time>2019-09-15T06:58:34Z</time>
      </trkpt>
      <trkpt lat="47.26124" lon="-2.32133">
        <ele>65</ele>
        <time>2019-09-15T06:58:36Z</time>
      </trkpt>
      <trkpt lat="47.26123" lon="-2.32139">
        <ele>65</ele>
        <time>2019-09-15T06:58:37Z</time>
      </trkpt>
      <trkpt lat="47.26118" lon="-2.3215">
        <ele>65</ele>
        <time>2019-09-15T06:58:39Z</time>
      </trkpt>
      <trkpt lat="47.26116" lon="-2.32155">
        <ele>65</ele>
        <time>2019-09-15T06:58:40Z</time>
      </trkpt>
      <trkpt lat="47.26113" lon="-2.3216">
        <ele>65</ele>
        <time>2019-09-15T06:58:41Z</time>
      </trkpt>
      <trkpt lat="47.2611" lon="-2.32166">
        <ele>64</ele>
        <time>2019-09-15T06:58:42Z</time>
      </trkpt>
      <trkpt lat="47.26107" lon="-2.32172">
        <ele>64</ele>
        <time>2019-09-15T06:58:43Z</time>
      </trkpt>
      <trkpt lat="47.26103" lon="-2.32184">
        <ele>64</ele>
        <time>2019-09-15T06:58:45Z</time>
      </trkpt>
      <trkpt lat="47.261" lon="-2.32189">
        <ele>64</ele>
        <time>2019-09-15T06:58:46Z</time>
      </trkpt>
      <trkpt lat="47.26094" lon="-2.32206">
        <ele>64</ele>
        <time>2019-09-15T06:58:49Z</time>
      </trkpt>
      <trkpt lat="47.26091" lon="-2.32211">
        <ele>64</ele>
        <time>2019-09-15T06:58:50Z</time>
      </trkpt>
      <trkpt lat="47.26088" lon="-2.32216">
        <ele>64</ele>
        <time>2019-09-15T06:58:51Z</time>
      </trkpt>
      <trkpt lat="47.26084" lon="-2.32221">
        <ele>64</ele>
        <time>2019-09-15T06:58:52Z</time>
      </trkpt>
      <trkpt lat="47.2608" lon="-2.32226">
        <ele>64</ele>
        <time>2019-09-15T06:58:53Z</time>
      </trkpt>
      <trkpt lat="47.26077" lon="-2.3223">
        <ele>64</ele>
        <time>2019-09-15T06:58:54Z</time>
      </trkpt>
      <trkpt lat="47.2607" lon="-2.3224">
        <ele>64</ele>
        <time>2019-09-15T06:58:56Z</time>
      </trkpt>
      <trkpt lat="47.26063" lon="-2.32248">
        <ele>64</ele>
        <time>2019-09-15T06:58:58Z</time>
      </trkpt>
      <trkpt lat="47.2606" lon="-2.32253">
        <ele>64</ele>
        <time>2019-09-15T06:58:59Z</time>
      </trkpt>
      <trkpt lat="47.26056" lon="-2.32257">
        <ele>64</ele>
        <time>2019-09-15T06:59:00Z</time>
      </trkpt>
      <trkpt lat="47.26052" lon="-2.3226">
        <ele>64</ele>
        <time>2019-09-15T06:59:01Z</time>
      </trkpt>
      <trkpt lat="47.26048" lon="-2.32263">
        <ele>65</ele>
        <time>2019-09-15T06:59:02Z</time>
      </trkpt>
      <trkpt lat="47.26043" lon="-2.32267">
        <ele>65</ele>
        <time>2019-09-15T06:59:03Z</time>
      </trkpt>
      <trkpt lat="47.26039" lon="-2.3227">
        <ele>65</ele>
        <time>2019-09-15T06:59:04Z</time>
      </trkpt>
      <trkpt lat="47.26032" lon="-2.32279">
        <ele>64</ele>
        <time>2019-09-15T06:59:06Z</time>
      </trkpt>
      <trkpt lat="47.26024" lon="-2.32288">
        <ele>64</ele>
        <time>2019-09-15T06:59:08Z</time>
      </trkpt>
      <trkpt lat="47.2602" lon="-2.32292">
        <ele>64</ele>
        <time>2019-09-15T06:59:09Z</time>
      </trkpt>
      <trkpt lat="47.26016" lon="-2.32296">
        <ele>64</ele>
        <time>2019-09-15T06:59:10Z</time>
      </trkpt>
      <trkpt lat="47.26012" lon="-2.32301">
        <ele>63</ele>
        <time>2019-09-15T06:59:11Z</time>
      </trkpt>
      <trkpt lat="47.26002" lon="-2.32314">
        <ele>63</ele>
        <time>2019-09-15T06:59:14Z</time>
      </trkpt>
      <trkpt lat="47.25998" lon="-2.32318">
        <ele>63</ele>
        <time>2019-09-15T06:59:15Z</time>
      </trkpt>
      <trkpt lat="47.25995" lon="-2.32322">
        <ele>63</ele>
        <time>2019-09-15T06:59:16Z</time>
      </trkpt>
      <trkpt lat="47.25991" lon="-2.32327">
        <ele>62</ele>
        <time>2019-09-15T06:59:17Z</time>
      </trkpt>
      <trkpt lat="47.25988" lon="-2.32333">
        <ele>62</ele>
        <time>2019-09-15T06:59:18Z</time>
      </trkpt>
      <trkpt lat="47.25984" lon="-2.32339">
        <ele>62</ele>
        <time>2019-09-15T06:59:19Z</time>
      </trkpt>
      <trkpt lat="47.25981" lon="-2.32344">
        <ele>61</ele>
        <time>2019-09-15T06:59:20Z</time>
      </trkpt>
      <trkpt lat="47.25978" lon="-2.3235">
        <ele>61</ele>
        <time>2019-09-15T06:59:21Z</time>
      </trkpt>
      <trkpt lat="47.25974" lon="-2.32355">
        <ele>60</ele>
        <time>2019-09-15T06:59:22Z</time>
      </trkpt>
      <trkpt lat="47.25971" lon="-2.3236">
        <ele>59</ele>
        <time>2019-09-15T06:59:23Z</time>
      </trkpt>
      <trkpt lat="47.25967" lon="-2.32365">
        <ele>59</ele>
        <time>2019-09-15T06:59:24Z</time>
      </trkpt>
      <trkpt lat="47.25963" lon="-2.32369">
        <ele>59</ele>
        <time>2019-09-15T06:59:25Z</time>
      </trkpt>
      <trkpt lat="47.2596" lon="-2.32374">
        <ele>58</ele>
        <time>2019-09-15T06:59:26Z</time>
      </trkpt>
      <trkpt lat="47.25953" lon="-2.32383">
        <ele>58</ele>
        <time>2019-09-15T06:59:28Z</time>
      </trkpt>
      <trkpt lat="47.2595" lon="-2.32388">
        <ele>58</ele>
        <time>2019-09-15T06:59:29Z</time>
      </trkpt>
      <trkpt lat="47.25946" lon="-2.32393">
        <ele>58</ele>
        <time>2019-09-15T06:59:30Z</time>
      </trkpt>
      <trkpt lat="47.25943" lon="-2.32397">
        <ele>58</ele>
        <time>2019-09-15T06:59:31Z</time>
      </trkpt>
      <trkpt lat="47.25939" lon="-2.32402">
        <ele>57</ele>
        <time>2019-09-15T06:59:32Z</time>
      </trkpt>
      <trkpt lat="47.25936" lon="-2.32407">
        <ele>57</ele>
        <time>2019-09-15T06:59:33Z</time>
      </trkpt>
      <trkpt lat="47.25932" lon="-2.32412">
        <ele>57</ele>
        <time>2019-09-15T06:59:34Z</time>
      </trkpt>
      <trkpt lat="47.25929" lon="-2.32416">
        <ele>57</ele>
        <time>2019-09-15T06:59:35Z</time>
      </trkpt>
      <trkpt lat="47.25925" lon="-2.32421">
        <ele>57</ele>
        <time>2019-09-15T06:59:36Z</time>
      </trkpt>
      <trkpt lat="47.25922" lon="-2.32425">
        <ele>57</ele>
        <time>2019-09-15T06:59:37Z</time>
      </trkpt>
      <trkpt lat="47.25915" lon="-2.32434">
        <ele>57</ele>
        <time>2019-09-15T06:59:39Z</time>
      </trkpt>
      <trkpt lat="47.25912" lon="-2.32439">
        <ele>57</ele>
        <time>2019-09-15T06:59:40Z</time>
      </trkpt>
      <trkpt lat="47.25909" lon="-2.32443">
        <ele>57</ele>
        <time>2019-09-15T06:59:41Z</time>
      </trkpt>
      <trkpt lat="47.25904" lon="-2.32453">
        <ele>57</ele>
        <time>2019-09-15T06:59:43Z</time>
      </trkpt>
      <trkpt lat="47.25898" lon="-2.32465">
        <ele>56</ele>
        <time>2019-09-15T06:59:46Z</time>
      </trkpt>
      <trkpt lat="47.25892" lon="-2.32471">
        <ele>56</ele>
        <time>2019-09-15T06:59:48Z</time>
      </trkpt>
      <trkpt lat="47.25884" lon="-2.32474">
        <ele>55</ele>
        <time>2019-09-15T06:59:50Z</time>
      </trkpt>
      <trkpt lat="47.2587" lon="-2.32477">
        <ele>55</ele>
        <time>2019-09-15T06:59:54Z</time>
      </trkpt>
      <trkpt lat="47.25866" lon="-2.32478">
        <ele>56</ele>
        <time>2019-09-15T06:59:55Z</time>
      </trkpt>
      <trkpt lat="47.25857" lon="-2.32477">
        <ele>56</ele>
        <time>2019-09-15T06:59:57Z</time>
      </trkpt>
      <trkpt lat="47.25853" lon="-2.32477">
        <ele>56</ele>
        <time>2019-09-15T06:59:58Z</time>
      </trkpt>
      <trkpt lat="47.25844" lon="-2.32475">
        <ele>56</ele>
        <time>2019-09-15T07:00:00Z</time>
      </trkpt>
      <trkpt lat="47.25839" lon="-2.32473">
        <ele>56</ele>
        <time>2019-09-15T07:00:01Z</time>
      </trkpt>
      <trkpt lat="47.25834" lon="-2.32471">
        <ele>56</ele>
        <time>2019-09-15T07:00:02Z</time>
      </trkpt>
      <trkpt lat="47.2583" lon="-2.32469">
        <ele>57</ele>
        <time>2019-09-15T07:00:03Z</time>
      </trkpt>
      <trkpt lat="47.25826" lon="-2.32467">
        <ele>57</ele>
        <time>2019-09-15T07:00:04Z</time>
      </trkpt>
      <trkpt lat="47.25822" lon="-2.32464">
        <ele>56</ele>
        <time>2019-09-15T07:00:05Z</time>
      </trkpt>
      <trkpt lat="47.25818" lon="-2.32462">
        <ele>56</ele>
        <time>2019-09-15T07:00:06Z</time>
      </trkpt>
      <trkpt lat="47.2581" lon="-2.32459">
        <ele>56</ele>
        <time>2019-09-15T07:00:08Z</time>
      </trkpt>
      <trkpt lat="47.25806" lon="-2.32458">
        <ele>56</ele>
        <time>2019-09-15T07:00:09Z</time>
      </trkpt>
      <trkpt lat="47.25799" lon="-2.32459">
        <ele>55</ele>
        <time>2019-09-15T07:00:11Z</time>
      </trkpt>
      <trkpt lat="47.25793" lon="-2.32461">
        <ele>56</ele>
        <time>2019-09-15T07:00:13Z</time>
      </trkpt>
      <trkpt lat="47.25784" lon="-2.32456">
        <ele>55</ele>
        <time>2019-09-15T07:00:16Z</time>
      </trkpt>
      <trkpt lat="47.25775" lon="-2.32442">
        <ele>54</ele>
        <time>2019-09-15T07:00:19Z</time>
      </trkpt>
      <trkpt lat="47.25772" lon="-2.32437">
        <ele>54</ele>
        <time>2019-09-15T07:00:20Z</time>
      </trkpt>
      <trkpt lat="47.25769" lon="-2.32433">
        <ele>54</ele>
        <time>2019-09-15T07:00:21Z</time>
      </trkpt>
      <trkpt lat="47.25761" lon="-2.32429">
        <ele>54</ele>
        <time>2019-09-15T07:00:23Z</time>
      </trkpt>
      <trkpt lat="47.25756" lon="-2.3243">
        <ele>54</ele>
        <time>2019-09-15T07:00:24Z</time>
      </trkpt>
      <trkpt lat="47.25741" lon="-2.32429">
        <ele>54</ele>
        <time>2019-09-15T07:00:27Z</time>
      </trkpt>
      <trkpt lat="47.25735" lon="-2.32428">
        <ele>53</ele>
        <time>2019-09-15T07:00:28Z</time>
      </trkpt>
      <trkpt lat="47.2573" lon="-2.32428">
        <ele>54</ele>
        <time>2019-09-15T07:00:29Z</time>
      </trkpt>
      <trkpt lat="47.25721" lon="-2.32427">
        <ele>54</ele>
        <time>2019-09-15T07:00:31Z</time>
      </trkpt>
      <trkpt lat="47.25717" lon="-2.32427">
        <ele>54</ele>
        <time>2019-09-15T07:00:32Z</time>
      </trkpt>
      <trkpt lat="47.25707" lon="-2.32426">
        <ele>54</ele>
        <time>2019-09-15T07:00:34Z</time>
      </trkpt>
      <trkpt lat="47.25697" lon="-2.32426">
        <ele>55</ele>
        <time>2019-09-15T07:00:36Z</time>
      </trkpt>
      <trkpt lat="47.25692" lon="-2.32425">
        <ele>56</ele>
        <time>2019-09-15T07:00:37Z</time>
      </trkpt>
      <trkpt lat="47.25683" lon="-2.32423">
        <ele>56</ele>
        <time>2019-09-15T07:00:39Z</time>
      </trkpt>
      <trkpt lat="47.25679" lon="-2.32422">
        <ele>57</ele>
        <time>2019-09-15T07:00:40Z</time>
      </trkpt>
      <trkpt lat="47.25675" lon="-2.32421">
        <ele>57</ele>
        <time>2019-09-15T07:00:41Z</time>
      </trkpt>
      <trkpt lat="47.25667" lon="-2.32425">
        <ele>57</ele>
        <time>2019-09-15T07:00:43Z</time>
      </trkpt>
      <trkpt lat="47.25662" lon="-2.32435">
        <ele>56</ele>
        <time>2019-09-15T07:00:45Z</time>
      </trkpt>
      <trkpt lat="47.25664" lon="-2.32453">
        <ele>56</ele>
        <time>2019-09-15T07:00:48Z</time>
      </trkpt>
      <trkpt lat="47.25668" lon="-2.32464">
        <ele>56</ele>
        <time>2019-09-15T07:00:50Z</time>
      </trkpt>
      <trkpt lat="47.25669" lon="-2.3247">
        <ele>56</ele>
        <time>2019-09-15T07:00:51Z</time>
      </trkpt>
      <trkpt lat="47.25673" lon="-2.32481">
        <ele>56</ele>
        <time>2019-09-15T07:00:53Z</time>
      </trkpt>
      <trkpt lat="47.25675" lon="-2.32487">
        <ele>56</ele>
        <time>2019-09-15T07:00:54Z</time>
      </trkpt>
      <trkpt lat="47.25676" lon="-2.32492">
        <ele>56</ele>
        <time>2019-09-15T07:00:55Z</time>
      </trkpt>
      <trkpt lat="47.25678" lon="-2.32497">
        <ele>56</ele>
        <time>2019-09-15T07:00:56Z</time>
      </trkpt>
      <trkpt lat="47.25683" lon="-2.32511">
        <ele>56</ele>
        <time>2019-09-15T07:00:59Z</time>
      </trkpt>
      <trkpt lat="47.25686" lon="-2.32521">
        <ele>56</ele>
        <time>2019-09-15T07:01:01Z</time>
      </trkpt>
      <trkpt lat="47.25689" lon="-2.32531">
        <ele>56</ele>
        <time>2019-09-15T07:01:03Z</time>
      </trkpt>
      <trkpt lat="47.25692" lon="-2.32542">
        <ele>56</ele>
        <time>2019-09-15T07:01:05Z</time>
      </trkpt>
      <trkpt lat="47.25696" lon="-2.32552">
        <ele>56</ele>
        <time>2019-09-15T07:01:07Z</time>
      </trkpt>
      <trkpt lat="47.25698" lon="-2.32557">
        <ele>56</ele>
        <time>2019-09-15T07:01:08Z</time>
      </trkpt>
      <trkpt lat="47.25699" lon="-2.32562">
        <ele>56</ele>
        <time>2019-09-15T07:01:09Z</time>
      </trkpt>
      <trkpt lat="47.25701" lon="-2.32568">
        <ele>56</ele>
        <time>2019-09-15T07:01:10Z</time>
      </trkpt>
      <trkpt lat="47.25702" lon="-2.32573">
        <ele>56</ele>
        <time>2019-09-15T07:01:11Z</time>
      </trkpt>
      <trkpt lat="47.25706" lon="-2.32584">
        <ele>56</ele>
        <time>2019-09-15T07:01:13Z</time>
      </trkpt>
      <trkpt lat="47.25708" lon="-2.32589">
        <ele>56</ele>
        <time>2019-09-15T07:01:14Z</time>
      </trkpt>
      <trkpt lat="47.2571" lon="-2.326">
        <ele>56</ele>
        <time>2019-09-15T07:01:16Z</time>
      </trkpt>
      <trkpt lat="47.25711" lon="-2.32605">
        <ele>56</ele>
        <time>2019-09-15T07:01:17Z</time>
      </trkpt>
      <trkpt lat="47.2571" lon="-2.32616">
        <ele>56</ele>
        <time>2019-09-15T07:01:19Z</time>
      </trkpt>
      <trkpt lat="47.25707" lon="-2.32625">
        <ele>55</ele>
        <time>2019-09-15T07:01:21Z</time>
      </trkpt>
      <trkpt lat="47.25699" lon="-2.32629">
        <ele>56</ele>
        <time>2019-09-15T07:01:23Z</time>
      </trkpt>
      <trkpt lat="47.25692" lon="-2.32633">
        <ele>57</ele>
        <time>2019-09-15T07:01:25Z</time>
      </trkpt>
      <trkpt lat="47.25681" lon="-2.32637">
        <ele>58</ele>
        <time>2019-09-15T07:01:28Z</time>
      </trkpt>
      <trkpt lat="47.25677" lon="-2.32639">
        <ele>58</ele>
        <time>2019-09-15T07:01:29Z</time>
      </trkpt>
      <trkpt lat="47.2567" lon="-2.32642">
        <ele>59</ele>
        <time>2019-09-15T07:01:31Z</time>
      </trkpt>
      <trkpt lat="47.25666" lon="-2.32644">
        <ele>60</ele>
        <time>2019-09-15T07:01:32Z</time>
      </trkpt>
      <trkpt lat="47.25662" lon="-2.32646">
        <ele>60</ele>
        <time>2019-09-15T07:01:33Z</time>
      </trkpt>
      <trkpt lat="47.25654" lon="-2.32649">
        <ele>60</ele>
        <time>2019-09-15T07:01:35Z</time>
      </trkpt>
      <trkpt lat="47.2565" lon="-2.32651">
        <ele>60</ele>
        <time>2019-09-15T07:01:36Z</time>
      </trkpt>
      <trkpt lat="47.25639" lon="-2.32657">
        <ele>62</ele>
        <time>2019-09-15T07:01:39Z</time>
      </trkpt>
      <trkpt lat="47.25635" lon="-2.32659">
        <ele>62</ele>
        <time>2019-09-15T07:01:40Z</time>
      </trkpt>
      <trkpt lat="47.25631" lon="-2.3266">
        <ele>62</ele>
        <time>2019-09-15T07:01:41Z</time>
      </trkpt>
      <trkpt lat="47.25627" lon="-2.32662">
        <ele>62</ele>
        <time>2019-09-15T07:01:42Z</time>
      </trkpt>
      <trkpt lat="47.25615" lon="-2.32667">
        <ele>62</ele>
        <time>2019-09-15T07:01:45Z</time>
      </trkpt>
      <trkpt lat="47.25611" lon="-2.32668">
        <ele>62</ele>
        <time>2019-09-15T07:01:46Z</time>
      </trkpt>
      <trkpt lat="47.25607" lon="-2.3267">
        <ele>62</ele>
        <time>2019-09-15T07:01:47Z</time>
      </trkpt>
      <trkpt lat="47.25603" lon="-2.32672">
        <ele>63</ele>
        <time>2019-09-15T07:01:48Z</time>
      </trkpt>
      <trkpt lat="47.25599" lon="-2.32673">
        <ele>63</ele>
        <time>2019-09-15T07:01:49Z</time>
      </trkpt>
      <trkpt lat="47.25595" lon="-2.32675">
        <ele>63</ele>
        <time>2019-09-15T07:01:50Z</time>
      </trkpt>
      <trkpt lat="47.2559" lon="-2.32677">
        <ele>62</ele>
        <time>2019-09-15T07:01:51Z</time>
      </trkpt>
      <trkpt lat="47.25586" lon="-2.32678">
        <ele>62</ele>
        <time>2019-09-15T07:01:52Z</time>
      </trkpt>
      <trkpt lat="47.25581" lon="-2.3268">
        <ele>62</ele>
        <time>2019-09-15T07:01:53Z</time>
      </trkpt>
      <trkpt lat="47.25577" lon="-2.32681">
        <ele>62</ele>
        <time>2019-09-15T07:01:54Z</time>
      </trkpt>
      <trkpt lat="47.25572" lon="-2.32682">
        <ele>62</ele>
        <time>2019-09-15T07:01:55Z</time>
      </trkpt>
      <trkpt lat="47.25568" lon="-2.32684">
        <ele>62</ele>
        <time>2019-09-15T07:01:56Z</time>
      </trkpt>
      <trkpt lat="47.25564" lon="-2.32686">
        <ele>62</ele>
        <time>2019-09-15T07:01:57Z</time>
      </trkpt>
      <trkpt lat="47.25559" lon="-2.32688">
        <ele>62</ele>
        <time>2019-09-15T07:01:58Z</time>
      </trkpt>
      <trkpt lat="47.25556" lon="-2.3269">
        <ele>62</ele>
        <time>2019-09-15T07:01:59Z</time>
      </trkpt>
      <trkpt lat="47.25551" lon="-2.32691">
        <ele>62</ele>
        <time>2019-09-15T07:02:00Z</time>
      </trkpt>
      <trkpt lat="47.25543" lon="-2.32695">
        <ele>62</ele>
        <time>2019-09-15T07:02:02Z</time>
      </trkpt>
      <trkpt lat="47.25531" lon="-2.327">
        <ele>62</ele>
        <time>2019-09-15T07:02:04Z</time>
      </trkpt>
      <trkpt lat="47.25526" lon="-2.32701">
        <ele>62</ele>
        <time>2019-09-15T07:02:05Z</time>
      </trkpt>
      <trkpt lat="47.25522" lon="-2.32702">
        <ele>62</ele>
        <time>2019-09-15T07:02:06Z</time>
      </trkpt>
      <trkpt lat="47.25517" lon="-2.32702">
        <ele>62</ele>
        <time>2019-09-15T07:02:07Z</time>
      </trkpt>
      <trkpt lat="47.25512" lon="-2.32703">
        <ele>62</ele>
        <time>2019-09-15T07:02:08Z</time>
      </trkpt>
      <trkpt lat="47.25507" lon="-2.32704">
        <ele>62</ele>
        <time>2019-09-15T07:02:09Z</time>
      </trkpt>
      <trkpt lat="47.25502" lon="-2.32704">
        <ele>62</ele>
        <time>2019-09-15T07:02:10Z</time>
      </trkpt>
      <trkpt lat="47.25497" lon="-2.32706">
        <ele>62</ele>
        <time>2019-09-15T07:02:12Z</time>
      </trkpt>
      <trkpt lat="47.25493" lon="-2.32707">
        <ele>63</ele>
        <time>2019-09-15T07:02:13Z</time>
      </trkpt>
      <trkpt lat="47.25489" lon="-2.32708">
        <ele>63</ele>
        <time>2019-09-15T07:02:14Z</time>
      </trkpt>
      <trkpt lat="47.2548" lon="-2.32713">
        <ele>63</ele>
        <time>2019-09-15T07:02:16Z</time>
      </trkpt>
      <trkpt lat="47.25477" lon="-2.32717">
        <ele>63</ele>
        <time>2019-09-15T07:02:17Z</time>
      </trkpt>
      <trkpt lat="47.25473" lon="-2.32722">
        <ele>63</ele>
        <time>2019-09-15T07:02:18Z</time>
      </trkpt>
      <trkpt lat="47.25469" lon="-2.32726">
        <ele>62</ele>
        <time>2019-09-15T07:02:19Z</time>
      </trkpt>
      <trkpt lat="47.25466" lon="-2.3273">
        <ele>62</ele>
        <time>2019-09-15T07:02:20Z</time>
      </trkpt>
      <trkpt lat="47.25462" lon="-2.32734">
        <ele>62</ele>
        <time>2019-09-15T07:02:21Z</time>
      </trkpt>
      <trkpt lat="47.25458" lon="-2.32738">
        <ele>62</ele>
        <time>2019-09-15T07:02:22Z</time>
      </trkpt>
      <trkpt lat="47.25455" lon="-2.32743">
        <ele>62</ele>
        <time>2019-09-15T07:02:23Z</time>
      </trkpt>
      <trkpt lat="47.25452" lon="-2.32748">
        <ele>62</ele>
        <time>2019-09-15T07:02:24Z</time>
      </trkpt>
      <trkpt lat="47.25449" lon="-2.32753">
        <ele>62</ele>
        <time>2019-09-15T07:02:25Z</time>
      </trkpt>
      <trkpt lat="47.25446" lon="-2.32759">
        <ele>62</ele>
        <time>2019-09-15T07:02:26Z</time>
      </trkpt>
      <trkpt lat="47.25443" lon="-2.32764">
        <ele>62</ele>
        <time>2019-09-15T07:02:27Z</time>
      </trkpt>
      <trkpt lat="47.2544" lon="-2.32769">
        <ele>62</ele>
        <time>2019-09-15T07:02:28Z</time>
      </trkpt>
      <trkpt lat="47.25435" lon="-2.3278">
        <ele>61</ele>
        <time>2019-09-15T07:02:30Z</time>
      </trkpt>
      <trkpt lat="47.25432" lon="-2.32786">
        <ele>61</ele>
        <time>2019-09-15T07:02:31Z</time>
      </trkpt>
      <trkpt lat="47.25429" lon="-2.32791">
        <ele>61</ele>
        <time>2019-09-15T07:02:32Z</time>
      </trkpt>
      <trkpt lat="47.25425" lon="-2.32796">
        <ele>61</ele>
        <time>2019-09-15T07:02:33Z</time>
      </trkpt>
      <trkpt lat="47.25422" lon="-2.32801">
        <ele>62</ele>
        <time>2019-09-15T07:02:34Z</time>
      </trkpt>
      <trkpt lat="47.25418" lon="-2.32807">
        <ele>61</ele>
        <time>2019-09-15T07:02:35Z</time>
      </trkpt>
      <trkpt lat="47.25414" lon="-2.32813">
        <ele>61</ele>
        <time>2019-09-15T07:02:36Z</time>
      </trkpt>
      <trkpt lat="47.25406" lon="-2.32824">
        <ele>61</ele>
        <time>2019-09-15T07:02:38Z</time>
      </trkpt>
      <trkpt lat="47.25401" lon="-2.32829">
        <ele>62</ele>
        <time>2019-09-15T07:02:39Z</time>
      </trkpt>
      <trkpt lat="47.25392" lon="-2.3284">
        <ele>61</ele>
        <time>2019-09-15T07:02:41Z</time>
      </trkpt>
      <trkpt lat="47.25387" lon="-2.32846">
        <ele>61</ele>
        <time>2019-09-15T07:02:42Z</time>
      </trkpt>
      <trkpt lat="47.25378" lon="-2.32857">
        <ele>61</ele>
        <time>2019-09-15T07:02:44Z</time>
      </trkpt>
      <trkpt lat="47.25373" lon="-2.32863">
        <ele>61</ele>
        <time>2019-09-15T07:02:45Z</time>
      </trkpt>
      <trkpt lat="47.25368" lon="-2.32869">
        <ele>61</ele>
        <time>2019-09-15T07:02:46Z</time>
      </trkpt>
      <trkpt lat="47.25363" lon="-2.32874">
        <ele>61</ele>
        <time>2019-09-15T07:02:47Z</time>
      </trkpt>
      <trkpt lat="47.25359" lon="-2.32878">
        <ele>61</ele>
        <time>2019-09-15T07:02:48Z</time>
      </trkpt>
      <trkpt lat="47.25354" lon="-2.32882">
        <ele>61</ele>
        <time>2019-09-15T07:02:49Z</time>
      </trkpt>
      <trkpt lat="47.2535" lon="-2.32887">
        <ele>62</ele>
        <time>2019-09-15T07:02:50Z</time>
      </trkpt>
      <trkpt lat="47.25341" lon="-2.32897">
        <ele>60</ele>
        <time>2019-09-15T07:02:52Z</time>
      </trkpt>
      <trkpt lat="47.25332" lon="-2.32905">
        <ele>60</ele>
        <time>2019-09-15T07:02:54Z</time>
      </trkpt>
      <trkpt lat="47.25324" lon="-2.32914">
        <ele>60</ele>
        <time>2019-09-15T07:02:56Z</time>
      </trkpt>
      <trkpt lat="47.25319" lon="-2.32917">
        <ele>60</ele>
        <time>2019-09-15T07:02:57Z</time>
      </trkpt>
      <trkpt lat="47.25312" lon="-2.32927">
        <ele>60</ele>
        <time>2019-09-15T07:02:59Z</time>
      </trkpt>
      <trkpt lat="47.25311" lon="-2.32935">
        <ele>60</ele>
        <time>2019-09-15T07:03:00Z</time>
      </trkpt>
      <trkpt lat="47.25311" lon="-2.32942">
        <ele>59</ele>
        <time>2019-09-15T07:03:01Z</time>
      </trkpt>
      <trkpt lat="47.25313" lon="-2.32949">
        <ele>59</ele>
        <time>2019-09-15T07:03:02Z</time>
      </trkpt>
      <trkpt lat="47.25317" lon="-2.32961">
        <ele>59</ele>
        <time>2019-09-15T07:03:04Z</time>
      </trkpt>
      <trkpt lat="47.2532" lon="-2.32968">
        <ele>59</ele>
        <time>2019-09-15T07:03:05Z</time>
      </trkpt>
      <trkpt lat="47.25322" lon="-2.32974">
        <ele>58</ele>
        <time>2019-09-15T07:03:06Z</time>
      </trkpt>
      <trkpt lat="47.25324" lon="-2.3298">
        <ele>58</ele>
        <time>2019-09-15T07:03:07Z</time>
      </trkpt>
      <trkpt lat="47.25328" lon="-2.32992">
        <ele>59</ele>
        <time>2019-09-15T07:03:09Z</time>
      </trkpt>
      <trkpt lat="47.25331" lon="-2.32999">
        <ele>59</ele>
        <time>2019-09-15T07:03:10Z</time>
      </trkpt>
      <trkpt lat="47.25333" lon="-2.33005">
        <ele>59</ele>
        <time>2019-09-15T07:03:11Z</time>
      </trkpt>
      <trkpt lat="47.25336" lon="-2.33012">
        <ele>58</ele>
        <time>2019-09-15T07:03:12Z</time>
      </trkpt>
      <trkpt lat="47.25338" lon="-2.33018">
        <ele>58</ele>
        <time>2019-09-15T07:03:13Z</time>
      </trkpt>
      <trkpt lat="47.2534" lon="-2.33024">
        <ele>58</ele>
        <time>2019-09-15T07:03:14Z</time>
      </trkpt>
      <trkpt lat="47.25345" lon="-2.33036">
        <ele>58</ele>
        <time>2019-09-15T07:03:16Z</time>
      </trkpt>
      <trkpt lat="47.25348" lon="-2.33042">
        <ele>58</ele>
        <time>2019-09-15T07:03:17Z</time>
      </trkpt>
      <trkpt lat="47.2535" lon="-2.33048">
        <ele>58</ele>
        <time>2019-09-15T07:03:18Z</time>
      </trkpt>
      <trkpt lat="47.25356" lon="-2.33064">
        <ele>58</ele>
        <time>2019-09-15T07:03:21Z</time>
      </trkpt>
      <trkpt lat="47.25357" lon="-2.3307">
        <ele>58</ele>
        <time>2019-09-15T07:03:22Z</time>
      </trkpt>
      <trkpt lat="47.2536" lon="-2.33075">
        <ele>58</ele>
        <time>2019-09-15T07:03:23Z</time>
      </trkpt>
      <trkpt lat="47.25364" lon="-2.33092">
        <ele>59</ele>
        <time>2019-09-15T07:03:26Z</time>
      </trkpt>
      <trkpt lat="47.25368" lon="-2.33101">
        <ele>59</ele>
        <time>2019-09-15T07:03:28Z</time>
      </trkpt>
      <trkpt lat="47.2537" lon="-2.33104">
        <ele>59</ele>
        <time>2019-09-15T07:03:29Z</time>
      </trkpt>
      <trkpt lat="47.25371" lon="-2.33108">
        <ele>59</ele>
        <time>2019-09-15T07:03:31Z</time>
      </trkpt>
      <trkpt lat="47.25371" lon="-2.33108">
        <ele>8</ele>
        <time>2019-09-15T07:03:37Z</time>
      </trkpt>
      <trkpt lat="47.25371" lon="-2.33108">
        <ele>8</ele>
        <time>2019-09-15T07:08:55Z</time>
      </trkpt>
      <trkpt lat="47.25383" lon="-2.33135">
        <ele>60</ele>
        <time>2019-09-15T07:08:55Z</time>
      </trkpt>
      <trkpt lat="47.25397" lon="-2.33133">
        <ele>64</ele>
        <time>2019-09-15T07:09:01Z</time>
      </trkpt>
      <trkpt lat="47.25405" lon="-2.33128">
        <ele>57</ele>
        <time>2019-09-15T07:09:03Z</time>
      </trkpt>
      <trkpt lat="47.25409" lon="-2.33126">
        <ele>58</ele>
        <time>2019-09-15T07:09:04Z</time>
      </trkpt>
      <trkpt lat="47.25412" lon="-2.33124">
        <ele>60</ele>
        <time>2019-09-15T07:09:05Z</time>
      </trkpt>
      <trkpt lat="47.25423" lon="-2.33121">
        <ele>61</ele>
        <time>2019-09-15T07:09:08Z</time>
      </trkpt>
      <trkpt lat="47.25427" lon="-2.3312">
        <ele>61</ele>
        <time>2019-09-15T07:09:09Z</time>
      </trkpt>
      <trkpt lat="47.25434" lon="-2.33117">
        <ele>61</ele>
        <time>2019-09-15T07:09:11Z</time>
      </trkpt>
      <trkpt lat="47.25438" lon="-2.33115">
        <ele>61</ele>
        <time>2019-09-15T07:09:12Z</time>
      </trkpt>
      <trkpt lat="47.25443" lon="-2.33113">
        <ele>62</ele>
        <time>2019-09-15T07:09:13Z</time>
      </trkpt>
      <trkpt lat="47.25452" lon="-2.33109">
        <ele>62</ele>
        <time>2019-09-15T07:09:15Z</time>
      </trkpt>
      <trkpt lat="47.25461" lon="-2.33104">
        <ele>60</ele>
        <time>2019-09-15T07:09:17Z</time>
      </trkpt>
      <trkpt lat="47.25465" lon="-2.33102">
        <ele>60</ele>
        <time>2019-09-15T07:09:18Z</time>
      </trkpt>
      <trkpt lat="47.25469" lon="-2.33099">
        <ele>60</ele>
        <time>2019-09-15T07:09:19Z</time>
      </trkpt>
      <trkpt lat="47.25473" lon="-2.33097">
        <ele>60</ele>
        <time>2019-09-15T07:09:20Z</time>
      </trkpt>
      <trkpt lat="47.25481" lon="-2.33091">
        <ele>61</ele>
        <time>2019-09-15T07:09:22Z</time>
      </trkpt>
      <trkpt lat="47.25484" lon="-2.33087">
        <ele>61</ele>
        <time>2019-09-15T07:09:23Z</time>
      </trkpt>
      <trkpt lat="47.2549" lon="-2.33081">
        <ele>61</ele>
        <time>2019-09-15T07:09:25Z</time>
      </trkpt>
      <trkpt lat="47.25497" lon="-2.33075">
        <ele>61</ele>
        <time>2019-09-15T07:09:27Z</time>
      </trkpt>
      <trkpt lat="47.25501" lon="-2.33071">
        <ele>60</ele>
        <time>2019-09-15T07:09:28Z</time>
      </trkpt>
      <trkpt lat="47.25512" lon="-2.33059">
        <ele>60</ele>
        <time>2019-09-15T07:09:31Z</time>
      </trkpt>
      <trkpt lat="47.25522" lon="-2.33051">
        <ele>59</ele>
        <time>2019-09-15T07:09:34Z</time>
      </trkpt>
      <trkpt lat="47.25528" lon="-2.33047">
        <ele>59</ele>
        <time>2019-09-15T07:09:36Z</time>
      </trkpt>
      <trkpt lat="47.25532" lon="-2.33044">
        <ele>59</ele>
        <time>2019-09-15T07:09:37Z</time>
      </trkpt>
      <trkpt lat="47.25544" lon="-2.33039">
        <ele>59</ele>
        <time>2019-09-15T07:09:40Z</time>
      </trkpt>
      <trkpt lat="47.25549" lon="-2.33038">
        <ele>59</ele>
        <time>2019-09-15T07:09:41Z</time>
      </trkpt>
      <trkpt lat="47.25552" lon="-2.33037">
        <ele>59</ele>
        <time>2019-09-15T07:09:42Z</time>
      </trkpt>
      <trkpt lat="47.25556" lon="-2.33036">
        <ele>59</ele>
        <time>2019-09-15T07:09:43Z</time>
      </trkpt>
      <trkpt lat="47.25566" lon="-2.33034">
        <ele>60</ele>
        <time>2019-09-15T07:09:46Z</time>
      </trkpt>
      <trkpt lat="47.25569" lon="-2.33034">
        <ele>60</ele>
        <time>2019-09-15T07:09:47Z</time>
      </trkpt>
      <trkpt lat="47.25572" lon="-2.33033">
        <ele>60</ele>
        <time>2019-09-15T07:09:48Z</time>
      </trkpt>
      <trkpt lat="47.25575" lon="-2.33033">
        <ele>60</ele>
        <time>2019-09-15T07:09:49Z</time>
      </trkpt>
      <trkpt lat="47.25578" lon="-2.33033">
        <ele>60</ele>
        <time>2019-09-15T07:09:50Z</time>
      </trkpt>
      <trkpt lat="47.25582" lon="-2.33032">
        <ele>60</ele>
        <time>2019-09-15T07:09:51Z</time>
      </trkpt>
      <trkpt lat="47.25589" lon="-2.33032">
        <ele>60</ele>
        <time>2019-09-15T07:09:53Z</time>
      </trkpt>
      <trkpt lat="47.25592" lon="-2.33032">
        <ele>60</ele>
        <time>2019-09-15T07:09:54Z</time>
      </trkpt>
      <trkpt lat="47.25595" lon="-2.33031">
        <ele>60</ele>
        <time>2019-09-15T07:09:55Z</time>
      </trkpt>
      <trkpt lat="47.25598" lon="-2.3303">
        <ele>60</ele>
        <time>2019-09-15T07:09:56Z</time>
      </trkpt>
      <trkpt lat="47.25608" lon="-2.33029">
        <ele>61</ele>
        <time>2019-09-15T07:09:59Z</time>
      </trkpt>
      <trkpt lat="47.25615" lon="-2.33017">
        <ele>61</ele>
        <time>2019-09-15T07:10:02Z</time>
      </trkpt>
      <trkpt lat="47.25615" lon="-2.33008">
        <ele>61</ele>
        <time>2019-09-15T07:10:04Z</time>
      </trkpt>
      <trkpt lat="47.25614" lon="-2.32997">
        <ele>61</ele>
        <time>2019-09-15T07:10:06Z</time>
      </trkpt>
      <trkpt lat="47.25613" lon="-2.32992">
        <ele>62</ele>
        <time>2019-09-15T07:10:07Z</time>
      </trkpt>
      <trkpt lat="47.25612" lon="-2.32987">
        <ele>62</ele>
        <time>2019-09-15T07:10:08Z</time>
      </trkpt>
      <trkpt lat="47.25611" lon="-2.32982">
        <ele>62</ele>
        <time>2019-09-15T07:10:09Z</time>
      </trkpt>
      <trkpt lat="47.2561" lon="-2.32977">
        <ele>62</ele>
        <time>2019-09-15T07:10:10Z</time>
      </trkpt>
      <trkpt lat="47.25609" lon="-2.32972">
        <ele>62</ele>
        <time>2019-09-15T07:10:11Z</time>
      </trkpt>
      <trkpt lat="47.25606" lon="-2.32956">
        <ele>62</ele>
        <time>2019-09-15T07:10:14Z</time>
      </trkpt>
      <trkpt lat="47.25605" lon="-2.32945">
        <ele>63</ele>
        <time>2019-09-15T07:10:16Z</time>
      </trkpt>
      <trkpt lat="47.25604" lon="-2.32938">
        <ele>62</ele>
        <time>2019-09-15T07:10:17Z</time>
      </trkpt>
      <trkpt lat="47.25603" lon="-2.32933">
        <ele>62</ele>
        <time>2019-09-15T07:10:18Z</time>
      </trkpt>
      <trkpt lat="47.25602" lon="-2.32927">
        <ele>62</ele>
        <time>2019-09-15T07:10:19Z</time>
      </trkpt>
      <trkpt lat="47.256" lon="-2.32915">
        <ele>62</ele>
        <time>2019-09-15T07:10:21Z</time>
      </trkpt>
      <trkpt lat="47.25599" lon="-2.32909">
        <ele>62</ele>
        <time>2019-09-15T07:10:22Z</time>
      </trkpt>
      <trkpt lat="47.25598" lon="-2.32898">
        <ele>62</ele>
        <time>2019-09-15T07:10:24Z</time>
      </trkpt>
      <trkpt lat="47.25597" lon="-2.32891">
        <ele>63</ele>
        <time>2019-09-15T07:10:25Z</time>
      </trkpt>
      <trkpt lat="47.25595" lon="-2.32873">
        <ele>63</ele>
        <time>2019-09-15T07:10:28Z</time>
      </trkpt>
      <trkpt lat="47.25594" lon="-2.32861">
        <ele>63</ele>
        <time>2019-09-15T07:10:30Z</time>
      </trkpt>
      <trkpt lat="47.25591" lon="-2.32845">
        <ele>62</ele>
        <time>2019-09-15T07:10:33Z</time>
      </trkpt>
      <trkpt lat="47.2559" lon="-2.32839">
        <ele>62</ele>
        <time>2019-09-15T07:10:34Z</time>
      </trkpt>
      <trkpt lat="47.2559" lon="-2.32821">
        <ele>63</ele>
        <time>2019-09-15T07:10:37Z</time>
      </trkpt>
      <trkpt lat="47.25592" lon="-2.32809">
        <ele>63</ele>
        <time>2019-09-15T07:10:39Z</time>
      </trkpt>
      <trkpt lat="47.25595" lon="-2.32798">
        <ele>63</ele>
        <time>2019-09-15T07:10:41Z</time>
      </trkpt>
      <trkpt lat="47.25596" lon="-2.32785">
        <ele>63</ele>
        <time>2019-09-15T07:10:43Z</time>
      </trkpt>
      <trkpt lat="47.25597" lon="-2.32779">
        <ele>64</ele>
        <time>2019-09-15T07:10:44Z</time>
      </trkpt>
      <trkpt lat="47.25597" lon="-2.32773">
        <ele>64</ele>
        <time>2019-09-15T07:10:45Z</time>
      </trkpt>
      <trkpt lat="47.25599" lon="-2.32761">
        <ele>64</ele>
        <time>2019-09-15T07:10:47Z</time>
      </trkpt>
      <trkpt lat="47.256" lon="-2.32749">
        <ele>64</ele>
        <time>2019-09-15T07:10:49Z</time>
      </trkpt>
      <trkpt lat="47.256" lon="-2.32742">
        <ele>64</ele>
        <time>2019-09-15T07:10:50Z</time>
      </trkpt>
      <trkpt lat="47.25601" lon="-2.32736">
        <ele>64</ele>
        <time>2019-09-15T07:10:51Z</time>
      </trkpt>
      <trkpt lat="47.25602" lon="-2.32718">
        <ele>64</ele>
        <time>2019-09-15T07:10:54Z</time>
      </trkpt>
      <trkpt lat="47.25603" lon="-2.32712">
        <ele>64</ele>
        <time>2019-09-15T07:10:55Z</time>
      </trkpt>
      <trkpt lat="47.25602" lon="-2.327">
        <ele>64</ele>
        <time>2019-09-15T07:10:57Z</time>
      </trkpt>
      <trkpt lat="47.25602" lon="-2.32695">
        <ele>64</ele>
        <time>2019-09-15T07:10:58Z</time>
      </trkpt>
      <trkpt lat="47.25603" lon="-2.32684">
        <ele>64</ele>
        <time>2019-09-15T07:11:00Z</time>
      </trkpt>
      <trkpt lat="47.25605" lon="-2.32675">
        <ele>64</ele>
        <time>2019-09-15T07:11:02Z</time>
      </trkpt>
      <trkpt lat="47.2561" lon="-2.32668">
        <ele>64</ele>
        <time>2019-09-15T07:11:04Z</time>
      </trkpt>
      <trkpt lat="47.25618" lon="-2.32662">
        <ele>63</ele>
        <time>2019-09-15T07:11:06Z</time>
      </trkpt>
      <trkpt lat="47.2563" lon="-2.32656">
        <ele>63</ele>
        <time>2019-09-15T07:11:09Z</time>
      </trkpt>
      <trkpt lat="47.25635" lon="-2.32654">
        <ele>63</ele>
        <time>2019-09-15T07:11:10Z</time>
      </trkpt>
      <trkpt lat="47.25639" lon="-2.32651">
        <ele>63</ele>
        <time>2019-09-15T07:11:11Z</time>
      </trkpt>
      <trkpt lat="47.25644" lon="-2.32649">
        <ele>63</ele>
        <time>2019-09-15T07:11:12Z</time>
      </trkpt>
      <trkpt lat="47.25649" lon="-2.32648">
        <ele>63</ele>
        <time>2019-09-15T07:11:13Z</time>
      </trkpt>
      <trkpt lat="47.25653" lon="-2.32646">
        <ele>63</ele>
        <time>2019-09-15T07:11:14Z</time>
      </trkpt>
      <trkpt lat="47.25663" lon="-2.32641">
        <ele>63</ele>
        <time>2019-09-15T07:11:16Z</time>
      </trkpt>
      <trkpt lat="47.25677" lon="-2.32636">
        <ele>64</ele>
        <time>2019-09-15T07:11:19Z</time>
      </trkpt>
      <trkpt lat="47.25682" lon="-2.32634">
        <ele>64</ele>
        <time>2019-09-15T07:11:20Z</time>
      </trkpt>
      <trkpt lat="47.25687" lon="-2.32631">
        <ele>64</ele>
        <time>2019-09-15T07:11:21Z</time>
      </trkpt>
      <trkpt lat="47.25691" lon="-2.32629">
        <ele>63</ele>
        <time>2019-09-15T07:11:22Z</time>
      </trkpt>
      <trkpt lat="47.25696" lon="-2.32626">
        <ele>63</ele>
        <time>2019-09-15T07:11:23Z</time>
      </trkpt>
      <trkpt lat="47.25704" lon="-2.3262">
        <ele>63</ele>
        <time>2019-09-15T07:11:25Z</time>
      </trkpt>
      <trkpt lat="47.25707" lon="-2.3261">
        <ele>62</ele>
        <time>2019-09-15T07:11:27Z</time>
      </trkpt>
      <trkpt lat="47.25704" lon="-2.32596">
        <ele>61</ele>
        <time>2019-09-15T07:11:29Z</time>
      </trkpt>
      <trkpt lat="47.25703" lon="-2.32588">
        <ele>61</ele>
        <time>2019-09-15T07:11:30Z</time>
      </trkpt>
      <trkpt lat="47.25701" lon="-2.3258">
        <ele>60</ele>
        <time>2019-09-15T07:11:31Z</time>
      </trkpt>
      <trkpt lat="47.25699" lon="-2.32572">
        <ele>60</ele>
        <time>2019-09-15T07:11:32Z</time>
      </trkpt>
      <trkpt lat="47.25697" lon="-2.32564">
        <ele>60</ele>
        <time>2019-09-15T07:11:33Z</time>
      </trkpt>
      <trkpt lat="47.25695" lon="-2.32556">
        <ele>59</ele>
        <time>2019-09-15T07:11:34Z</time>
      </trkpt>
      <trkpt lat="47.25692" lon="-2.32547">
        <ele>59</ele>
        <time>2019-09-15T07:11:35Z</time>
      </trkpt>
      <trkpt lat="47.2569" lon="-2.32539">
        <ele>59</ele>
        <time>2019-09-15T07:11:36Z</time>
      </trkpt>
      <trkpt lat="47.25687" lon="-2.3253">
        <ele>59</ele>
        <time>2019-09-15T07:11:37Z</time>
      </trkpt>
      <trkpt lat="47.25685" lon="-2.32521">
        <ele>59</ele>
        <time>2019-09-15T07:11:38Z</time>
      </trkpt>
      <trkpt lat="47.25682" lon="-2.32513">
        <ele>59</ele>
        <time>2019-09-15T07:11:39Z</time>
      </trkpt>
      <trkpt lat="47.25679" lon="-2.32504">
        <ele>59</ele>
        <time>2019-09-15T07:11:40Z</time>
      </trkpt>
      <trkpt lat="47.25672" lon="-2.32487">
        <ele>59</ele>
        <time>2019-09-15T07:11:42Z</time>
      </trkpt>
      <trkpt lat="47.2567" lon="-2.32478">
        <ele>59</ele>
        <time>2019-09-15T07:11:43Z</time>
      </trkpt>
      <trkpt lat="47.25667" lon="-2.3247">
        <ele>59</ele>
        <time>2019-09-15T07:11:44Z</time>
      </trkpt>
      <trkpt lat="47.25665" lon="-2.32462">
        <ele>59</ele>
        <time>2019-09-15T07:11:45Z</time>
      </trkpt>
      <trkpt lat="47.25663" lon="-2.32454">
        <ele>59</ele>
        <time>2019-09-15T07:11:46Z</time>
      </trkpt>
      <trkpt lat="47.25662" lon="-2.32447">
        <ele>58</ele>
        <time>2019-09-15T07:11:47Z</time>
      </trkpt>
      <trkpt lat="47.25661" lon="-2.32439">
        <ele>58</ele>
        <time>2019-09-15T07:11:49Z</time>
      </trkpt>
      <trkpt lat="47.25659" lon="-2.3243">
        <ele>58</ele>
        <time>2019-09-15T07:11:52Z</time>
      </trkpt>
      <trkpt lat="47.25662" lon="-2.32423">
        <ele>58</ele>
        <time>2019-09-15T07:11:55Z</time>
      </trkpt>
      <trkpt lat="47.25672" lon="-2.32423">
        <ele>57</ele>
        <time>2019-09-15T07:11:58Z</time>
      </trkpt>
      <trkpt lat="47.25681" lon="-2.32423">
        <ele>57</ele>
        <time>2019-09-15T07:12:00Z</time>
      </trkpt>
      <trkpt lat="47.25686" lon="-2.32423">
        <ele>56</ele>
        <time>2019-09-15T07:12:01Z</time>
      </trkpt>
      <trkpt lat="47.25693" lon="-2.32422">
        <ele>56</ele>
        <time>2019-09-15T07:12:02Z</time>
      </trkpt>
      <trkpt lat="47.25699" lon="-2.32422">
        <ele>56</ele>
        <time>2019-09-15T07:12:03Z</time>
      </trkpt>
      <trkpt lat="47.25705" lon="-2.32422">
        <ele>56</ele>
        <time>2019-09-15T07:12:04Z</time>
      </trkpt>
      <trkpt lat="47.2571" lon="-2.32422">
        <ele>56</ele>
        <time>2019-09-15T07:12:05Z</time>
      </trkpt>
      <trkpt lat="47.25716" lon="-2.32423">
        <ele>56</ele>
        <time>2019-09-15T07:12:06Z</time>
      </trkpt>
      <trkpt lat="47.25727" lon="-2.32423">
        <ele>56</ele>
        <time>2019-09-15T07:12:08Z</time>
      </trkpt>
      <trkpt lat="47.25732" lon="-2.32423">
        <ele>56</ele>
        <time>2019-09-15T07:12:09Z</time>
      </trkpt>
      <trkpt lat="47.25737" lon="-2.32424">
        <ele>56</ele>
        <time>2019-09-15T07:12:10Z</time>
      </trkpt>
      <trkpt lat="47.25742" lon="-2.32424">
        <ele>56</ele>
        <time>2019-09-15T07:12:11Z</time>
      </trkpt>
      <trkpt lat="47.25747" lon="-2.32424">
        <ele>56</ele>
        <time>2019-09-15T07:12:12Z</time>
      </trkpt>
      <trkpt lat="47.25756" lon="-2.32424">
        <ele>56</ele>
        <time>2019-09-15T07:12:14Z</time>
      </trkpt>
      <trkpt lat="47.25766" lon="-2.3242">
        <ele>56</ele>
        <time>2019-09-15T07:12:16Z</time>
      </trkpt>
      <trkpt lat="47.2577" lon="-2.32418">
        <ele>56</ele>
        <time>2019-09-15T07:12:17Z</time>
      </trkpt>
      <trkpt lat="47.25775" lon="-2.32417">
        <ele>56</ele>
        <time>2019-09-15T07:12:18Z</time>
      </trkpt>
      <trkpt lat="47.25779" lon="-2.32419">
        <ele>56</ele>
        <time>2019-09-15T07:12:19Z</time>
      </trkpt>
      <trkpt lat="47.25784" lon="-2.32422">
        <ele>56</ele>
        <time>2019-09-15T07:12:20Z</time>
      </trkpt>
      <trkpt lat="47.2579" lon="-2.32434">
        <ele>56</ele>
        <time>2019-09-15T07:12:21Z</time>
      </trkpt>
      <trkpt lat="47.25794" lon="-2.32439">
        <ele>55</ele>
        <time>2019-09-15T07:12:22Z</time>
      </trkpt>
      <trkpt lat="47.25798" lon="-2.32444">
        <ele>55</ele>
        <time>2019-09-15T07:12:23Z</time>
      </trkpt>
      <trkpt lat="47.25802" lon="-2.32449">
        <ele>55</ele>
        <time>2019-09-15T07:12:24Z</time>
      </trkpt>
      <trkpt lat="47.25805" lon="-2.32454">
        <ele>55</ele>
        <time>2019-09-15T07:12:26Z</time>
      </trkpt>
      <trkpt lat="47.25808" lon="-2.32467">
        <ele>55</ele>
        <time>2019-09-15T07:12:28Z</time>
      </trkpt>
      <trkpt lat="47.25821" lon="-2.32487">
        <ele>54</ele>
        <time>2019-09-15T07:12:32Z</time>
      </trkpt>
      <trkpt lat="47.25825" lon="-2.32494">
        <ele>55</ele>
        <time>2019-09-15T07:12:33Z</time>
      </trkpt>
      <trkpt lat="47.25833" lon="-2.32505">
        <ele>54</ele>
        <time>2019-09-15T07:12:35Z</time>
      </trkpt>
      <trkpt lat="47.25838" lon="-2.3251">
        <ele>54</ele>
        <time>2019-09-15T07:12:36Z</time>
      </trkpt>
      <trkpt lat="47.25843" lon="-2.32516">
        <ele>54</ele>
        <time>2019-09-15T07:12:37Z</time>
      </trkpt>
      <trkpt lat="47.25846" lon="-2.32523">
        <ele>55</ele>
        <time>2019-09-15T07:12:38Z</time>
      </trkpt>
      <trkpt lat="47.2585" lon="-2.3253">
        <ele>55</ele>
        <time>2019-09-15T07:12:39Z</time>
      </trkpt>
      <trkpt lat="47.25854" lon="-2.32536">
        <ele>55</ele>
        <time>2019-09-15T07:12:40Z</time>
      </trkpt>
      <trkpt lat="47.25866" lon="-2.32552">
        <ele>55</ele>
        <time>2019-09-15T07:12:43Z</time>
      </trkpt>
      <trkpt lat="47.2587" lon="-2.32557">
        <ele>55</ele>
        <time>2019-09-15T07:12:44Z</time>
      </trkpt>
      <trkpt lat="47.25874" lon="-2.32562">
        <ele>55</ele>
        <time>2019-09-15T07:12:45Z</time>
      </trkpt>
      <trkpt lat="47.25877" lon="-2.32567">
        <ele>54</ele>
        <time>2019-09-15T07:12:46Z</time>
      </trkpt>
      <trkpt lat="47.25885" lon="-2.32578">
        <ele>54</ele>
        <time>2019-09-15T07:12:48Z</time>
      </trkpt>
      <trkpt lat="47.25889" lon="-2.32581">
        <ele>55</ele>
        <time>2019-09-15T07:12:49Z</time>
      </trkpt>
      <trkpt lat="47.25897" lon="-2.32586">
        <ele>54</ele>
        <time>2019-09-15T07:12:51Z</time>
      </trkpt>
      <trkpt lat="47.25905" lon="-2.32595">
        <ele>54</ele>
        <time>2019-09-15T07:12:53Z</time>
      </trkpt>
      <trkpt lat="47.25909" lon="-2.32601">
        <ele>54</ele>
        <time>2019-09-15T07:12:54Z</time>
      </trkpt>
      <trkpt lat="47.25914" lon="-2.32606">
        <ele>54</ele>
        <time>2019-09-15T07:12:55Z</time>
      </trkpt>
      <trkpt lat="47.25918" lon="-2.32611">
        <ele>53</ele>
        <time>2019-09-15T07:12:56Z</time>
      </trkpt>
      <trkpt lat="47.25922" lon="-2.32616">
        <ele>54</ele>
        <time>2019-09-15T07:12:57Z</time>
      </trkpt>
      <trkpt lat="47.25933" lon="-2.32633">
        <ele>53</ele>
        <time>2019-09-15T07:13:00Z</time>
      </trkpt>
      <trkpt lat="47.25937" lon="-2.32638">
        <ele>52</ele>
        <time>2019-09-15T07:13:01Z</time>
      </trkpt>
      <trkpt lat="47.25941" lon="-2.32643">
        <ele>52</ele>
        <time>2019-09-15T07:13:02Z</time>
      </trkpt>
      <trkpt lat="47.25946" lon="-2.32648">
        <ele>52</ele>
        <time>2019-09-15T07:13:03Z</time>
      </trkpt>
      <trkpt lat="47.25951" lon="-2.32653">
        <ele>53</ele>
        <time>2019-09-15T07:13:04Z</time>
      </trkpt>
      <trkpt lat="47.25968" lon="-2.32656">
        <ele>52</ele>
        <time>2019-09-15T07:13:06Z</time>
      </trkpt>
      <trkpt lat="47.25974" lon="-2.32657">
        <ele>51</ele>
        <time>2019-09-15T07:13:07Z</time>
      </trkpt>
      <trkpt lat="47.25979" lon="-2.32657">
        <ele>52</ele>
        <time>2019-09-15T07:13:08Z</time>
      </trkpt>
      <trkpt lat="47.25985" lon="-2.32658">
        <ele>52</ele>
        <time>2019-09-15T07:13:10Z</time>
      </trkpt>
      <trkpt lat="47.25996" lon="-2.32658">
        <ele>52</ele>
        <time>2019-09-15T07:13:12Z</time>
      </trkpt>
      <trkpt lat="47.26002" lon="-2.32658">
        <ele>52</ele>
        <time>2019-09-15T07:13:13Z</time>
      </trkpt>
      <trkpt lat="47.26008" lon="-2.32657">
        <ele>52</ele>
        <time>2019-09-15T07:13:14Z</time>
      </trkpt>
      <trkpt lat="47.26014" lon="-2.32656">
        <ele>52</ele>
        <time>2019-09-15T07:13:15Z</time>
      </trkpt>
      <trkpt lat="47.26019" lon="-2.32655">
        <ele>52</ele>
        <time>2019-09-15T07:13:16Z</time>
      </trkpt>
      <trkpt lat="47.26031" lon="-2.32653">
        <ele>53</ele>
        <time>2019-09-15T07:13:18Z</time>
      </trkpt>
      <trkpt lat="47.26037" lon="-2.32652">
        <ele>53</ele>
        <time>2019-09-15T07:13:19Z</time>
      </trkpt>
      <trkpt lat="47.26043" lon="-2.32651">
        <ele>53</ele>
        <time>2019-09-15T07:13:20Z</time>
      </trkpt>
      <trkpt lat="47.26048" lon="-2.32649">
        <ele>54</ele>
        <time>2019-09-15T07:13:21Z</time>
      </trkpt>
      <trkpt lat="47.26054" lon="-2.32648">
        <ele>54</ele>
        <time>2019-09-15T07:13:22Z</time>
      </trkpt>
      <trkpt lat="47.26059" lon="-2.32647">
        <ele>54</ele>
        <time>2019-09-15T07:13:23Z</time>
      </trkpt>
      <trkpt lat="47.26065" lon="-2.32646">
        <ele>54</ele>
        <time>2019-09-15T07:13:24Z</time>
      </trkpt>
      <trkpt lat="47.26071" lon="-2.32645">
        <ele>55</ele>
        <time>2019-09-15T07:13:25Z</time>
      </trkpt>
      <trkpt lat="47.26077" lon="-2.32644">
        <ele>55</ele>
        <time>2019-09-15T07:13:26Z</time>
      </trkpt>
      <trkpt lat="47.26082" lon="-2.32643">
        <ele>55</ele>
        <time>2019-09-15T07:13:27Z</time>
      </trkpt>
      <trkpt lat="47.26088" lon="-2.32642">
        <ele>55</ele>
        <time>2019-09-15T07:13:28Z</time>
      </trkpt>
      <trkpt lat="47.26094" lon="-2.32641">
        <ele>56</ele>
        <time>2019-09-15T07:13:29Z</time>
      </trkpt>
      <trkpt lat="47.26099" lon="-2.3264">
        <ele>56</ele>
        <time>2019-09-15T07:13:30Z</time>
      </trkpt>
      <trkpt lat="47.26105" lon="-2.32639">
        <ele>56</ele>
        <time>2019-09-15T07:13:31Z</time>
      </trkpt>
      <trkpt lat="47.2611" lon="-2.32639">
        <ele>56</ele>
        <time>2019-09-15T07:13:32Z</time>
      </trkpt>
      <trkpt lat="47.26115" lon="-2.32638">
        <ele>56</ele>
        <time>2019-09-15T07:13:33Z</time>
      </trkpt>
      <trkpt lat="47.26121" lon="-2.32638">
        <ele>56</ele>
        <time>2019-09-15T07:13:34Z</time>
      </trkpt>
      <trkpt lat="47.26126" lon="-2.32639">
        <ele>57</ele>
        <time>2019-09-15T07:13:35Z</time>
      </trkpt>
      <trkpt lat="47.26131" lon="-2.3264">
        <ele>57</ele>
        <time>2019-09-15T07:13:36Z</time>
      </trkpt>
      <trkpt lat="47.26136" lon="-2.3264">
        <ele>56</ele>
        <time>2019-09-15T07:13:37Z</time>
      </trkpt>
      <trkpt lat="47.26141" lon="-2.32642">
        <ele>57</ele>
        <time>2019-09-15T07:13:38Z</time>
      </trkpt>
      <trkpt lat="47.26146" lon="-2.32644">
        <ele>56</ele>
        <time>2019-09-15T07:13:39Z</time>
      </trkpt>
      <trkpt lat="47.26151" lon="-2.32646">
        <ele>57</ele>
        <time>2019-09-15T07:13:40Z</time>
      </trkpt>
      <trkpt lat="47.26156" lon="-2.32648">
        <ele>57</ele>
        <time>2019-09-15T07:13:41Z</time>
      </trkpt>
      <trkpt lat="47.26176" lon="-2.3266">
        <ele>56</ele>
        <time>2019-09-15T07:13:45Z</time>
      </trkpt>
      <trkpt lat="47.2618" lon="-2.32663">
        <ele>56</ele>
        <time>2019-09-15T07:13:46Z</time>
      </trkpt>
      <trkpt lat="47.26185" lon="-2.32667">
        <ele>56</ele>
        <time>2019-09-15T07:13:47Z</time>
      </trkpt>
      <trkpt lat="47.26195" lon="-2.32675">
        <ele>56</ele>
        <time>2019-09-15T07:13:48Z</time>
      </trkpt>
      <trkpt lat="47.26199" lon="-2.3268">
        <ele>56</ele>
        <time>2019-09-15T07:13:49Z</time>
      </trkpt>
      <trkpt lat="47.26203" lon="-2.32684">
        <ele>55</ele>
        <time>2019-09-15T07:13:50Z</time>
      </trkpt>
      <trkpt lat="47.26208" lon="-2.3269">
        <ele>55</ele>
        <time>2019-09-15T07:13:51Z</time>
      </trkpt>
      <trkpt lat="47.26212" lon="-2.32695">
        <ele>55</ele>
        <time>2019-09-15T07:13:52Z</time>
      </trkpt>
      <trkpt lat="47.26217" lon="-2.327">
        <ele>55</ele>
        <time>2019-09-15T07:13:54Z</time>
      </trkpt>
      <trkpt lat="47.26222" lon="-2.32706">
        <ele>55</ele>
        <time>2019-09-15T07:13:55Z</time>
      </trkpt>
      <trkpt lat="47.26226" lon="-2.32712">
        <ele>54</ele>
        <time>2019-09-15T07:13:56Z</time>
      </trkpt>
      <trkpt lat="47.2623" lon="-2.32718">
        <ele>54</ele>
        <time>2019-09-15T07:13:57Z</time>
      </trkpt>
      <trkpt lat="47.26235" lon="-2.32725">
        <ele>54</ele>
        <time>2019-09-15T07:13:58Z</time>
      </trkpt>
      <trkpt lat="47.26239" lon="-2.32731">
        <ele>53</ele>
        <time>2019-09-15T07:13:59Z</time>
      </trkpt>
      <trkpt lat="47.26244" lon="-2.32737">
        <ele>53</ele>
        <time>2019-09-15T07:14:00Z</time>
      </trkpt>
      <trkpt lat="47.26248" lon="-2.32744">
        <ele>53</ele>
        <time>2019-09-15T07:14:01Z</time>
      </trkpt>
      <trkpt lat="47.26258" lon="-2.32759">
        <ele>52</ele>
        <time>2019-09-15T07:14:03Z</time>
      </trkpt>
      <trkpt lat="47.26263" lon="-2.32767">
        <ele>52</ele>
        <time>2019-09-15T07:14:04Z</time>
      </trkpt>
      <trkpt lat="47.26267" lon="-2.32775">
        <ele>52</ele>
        <time>2019-09-15T07:14:05Z</time>
      </trkpt>
      <trkpt lat="47.26271" lon="-2.32783">
        <ele>52</ele>
        <time>2019-09-15T07:14:06Z</time>
      </trkpt>
      <trkpt lat="47.26275" lon="-2.32792">
        <ele>51</ele>
        <time>2019-09-15T07:14:07Z</time>
      </trkpt>
      <trkpt lat="47.26278" lon="-2.32802">
        <ele>51</ele>
        <time>2019-09-15T07:14:08Z</time>
      </trkpt>
      <trkpt lat="47.26281" lon="-2.32811">
        <ele>51</ele>
        <time>2019-09-15T07:14:09Z</time>
      </trkpt>
      <trkpt lat="47.26284" lon="-2.3282">
        <ele>51</ele>
        <time>2019-09-15T07:14:10Z</time>
      </trkpt>
      <trkpt lat="47.26285" lon="-2.32829">
        <ele>51</ele>
        <time>2019-09-15T07:14:11Z</time>
      </trkpt>
      <trkpt lat="47.26287" lon="-2.32839">
        <ele>51</ele>
        <time>2019-09-15T07:14:12Z</time>
      </trkpt>
      <trkpt lat="47.26297" lon="-2.32859">
        <ele>50</ele>
        <time>2019-09-15T07:14:15Z</time>
      </trkpt>
      <trkpt lat="47.26309" lon="-2.32865">
        <ele>51</ele>
        <time>2019-09-15T07:14:17Z</time>
      </trkpt>
      <trkpt lat="47.26314" lon="-2.32869">
        <ele>51</ele>
        <time>2019-09-15T07:14:18Z</time>
      </trkpt>
      <trkpt lat="47.26319" lon="-2.32876">
        <ele>50</ele>
        <time>2019-09-15T07:14:19Z</time>
      </trkpt>
      <trkpt lat="47.26322" lon="-2.32884">
        <ele>50</ele>
        <time>2019-09-15T07:14:20Z</time>
      </trkpt>
      <trkpt lat="47.26325" lon="-2.32893">
        <ele>50</ele>
        <time>2019-09-15T07:14:21Z</time>
      </trkpt>
      <trkpt lat="47.26327" lon="-2.32901">
        <ele>50</ele>
        <time>2019-09-15T07:14:22Z</time>
      </trkpt>
      <trkpt lat="47.2633" lon="-2.3291">
        <ele>49</ele>
        <time>2019-09-15T07:14:23Z</time>
      </trkpt>
      <trkpt lat="47.26333" lon="-2.32918">
        <ele>50</ele>
        <time>2019-09-15T07:14:24Z</time>
      </trkpt>
      <trkpt lat="47.26336" lon="-2.32927">
        <ele>49</ele>
        <time>2019-09-15T07:14:25Z</time>
      </trkpt>
      <trkpt lat="47.26338" lon="-2.32936">
        <ele>49</ele>
        <time>2019-09-15T07:14:26Z</time>
      </trkpt>
      <trkpt lat="47.26341" lon="-2.32945">
        <ele>49</ele>
        <time>2019-09-15T07:14:27Z</time>
      </trkpt>
      <trkpt lat="47.26344" lon="-2.32954">
        <ele>49</ele>
        <time>2019-09-15T07:14:28Z</time>
      </trkpt>
      <trkpt lat="47.26347" lon="-2.32962">
        <ele>49</ele>
        <time>2019-09-15T07:14:29Z</time>
      </trkpt>
      <trkpt lat="47.26355" lon="-2.32976">
        <ele>50</ele>
        <time>2019-09-15T07:14:31Z</time>
      </trkpt>
      <trkpt lat="47.2636" lon="-2.32981">
        <ele>50</ele>
        <time>2019-09-15T07:14:32Z</time>
      </trkpt>
      <trkpt lat="47.26364" lon="-2.32987">
        <ele>50</ele>
        <time>2019-09-15T07:14:33Z</time>
      </trkpt>
      <trkpt lat="47.26367" lon="-2.32995">
        <ele>50</ele>
        <time>2019-09-15T07:14:34Z</time>
      </trkpt>
      <trkpt lat="47.26368" lon="-2.33005">
        <ele>50</ele>
        <time>2019-09-15T07:14:35Z</time>
      </trkpt>
      <trkpt lat="47.26368" lon="-2.33023">
        <ele>49</ele>
        <time>2019-09-15T07:14:37Z</time>
      </trkpt>
      <trkpt lat="47.26368" lon="-2.33032">
        <ele>49</ele>
        <time>2019-09-15T07:14:38Z</time>
      </trkpt>
      <trkpt lat="47.26369" lon="-2.33041">
        <ele>49</ele>
        <time>2019-09-15T07:14:39Z</time>
      </trkpt>
      <trkpt lat="47.26369" lon="-2.3305">
        <ele>49</ele>
        <time>2019-09-15T07:14:40Z</time>
      </trkpt>
      <trkpt lat="47.2637" lon="-2.33059">
        <ele>49</ele>
        <time>2019-09-15T07:14:41Z</time>
      </trkpt>
      <trkpt lat="47.2637" lon="-2.33067">
        <ele>48</ele>
        <time>2019-09-15T07:14:42Z</time>
      </trkpt>
      <trkpt lat="47.2637" lon="-2.33077">
        <ele>49</ele>
        <time>2019-09-15T07:14:43Z</time>
      </trkpt>
      <trkpt lat="47.26371" lon="-2.33086">
        <ele>49</ele>
        <time>2019-09-15T07:14:44Z</time>
      </trkpt>
      <trkpt lat="47.26371" lon="-2.33095">
        <ele>49</ele>
        <time>2019-09-15T07:14:45Z</time>
      </trkpt>
      <trkpt lat="47.26371" lon="-2.33104">
        <ele>49</ele>
        <time>2019-09-15T07:14:46Z</time>
      </trkpt>
      <trkpt lat="47.26372" lon="-2.33113">
        <ele>49</ele>
        <time>2019-09-15T07:14:47Z</time>
      </trkpt>
      <trkpt lat="47.26372" lon="-2.33121">
        <ele>49</ele>
        <time>2019-09-15T07:14:48Z</time>
      </trkpt>
      <trkpt lat="47.26373" lon="-2.3313">
        <ele>50</ele>
        <time>2019-09-15T07:14:49Z</time>
      </trkpt>
      <trkpt lat="47.26373" lon="-2.33139">
        <ele>50</ele>
        <time>2019-09-15T07:14:50Z</time>
      </trkpt>
      <trkpt lat="47.26374" lon="-2.33147">
        <ele>50</ele>
        <time>2019-09-15T07:14:51Z</time>
      </trkpt>
      <trkpt lat="47.26374" lon="-2.33156">
        <ele>50</ele>
        <time>2019-09-15T07:14:52Z</time>
      </trkpt>
      <trkpt lat="47.26375" lon="-2.33165">
        <ele>50</ele>
        <time>2019-09-15T07:14:53Z</time>
      </trkpt>
      <trkpt lat="47.26376" lon="-2.33182">
        <ele>50</ele>
        <time>2019-09-15T07:14:55Z</time>
      </trkpt>
      <trkpt lat="47.26377" lon="-2.33191">
        <ele>50</ele>
        <time>2019-09-15T07:14:56Z</time>
      </trkpt>
      <trkpt lat="47.26377" lon="-2.33199">
        <ele>50</ele>
        <time>2019-09-15T07:14:57Z</time>
      </trkpt>
      <trkpt lat="47.26377" lon="-2.33208">
        <ele>50</ele>
        <time>2019-09-15T07:14:58Z</time>
      </trkpt>
      <trkpt lat="47.26378" lon="-2.33217">
        <ele>50</ele>
        <time>2019-09-15T07:14:59Z</time>
      </trkpt>
      <trkpt lat="47.2638" lon="-2.33233">
        <ele>50</ele>
        <time>2019-09-15T07:15:01Z</time>
      </trkpt>
      <trkpt lat="47.26382" lon="-2.33242">
        <ele>50</ele>
        <time>2019-09-15T07:15:02Z</time>
      </trkpt>
      <trkpt lat="47.26383" lon="-2.33249">
        <ele>50</ele>
        <time>2019-09-15T07:15:03Z</time>
      </trkpt>
      <trkpt lat="47.26388" lon="-2.3326">
        <ele>50</ele>
        <time>2019-09-15T07:15:05Z</time>
      </trkpt>
      <trkpt lat="47.264" lon="-2.33266">
        <ele>50</ele>
        <time>2019-09-15T07:15:07Z</time>
      </trkpt>
      <trkpt lat="47.26409" lon="-2.33267">
        <ele>50</ele>
        <time>2019-09-15T07:15:09Z</time>
      </trkpt>
      <trkpt lat="47.26413" lon="-2.33267">
        <ele>50</ele>
        <time>2019-09-15T07:15:11Z</time>
      </trkpt>
      <trkpt lat="47.26427" lon="-2.33268">
        <ele>50</ele>
        <time>2019-09-15T07:15:14Z</time>
      </trkpt>
      <trkpt lat="47.26432" lon="-2.33269">
        <ele>51</ele>
        <time>2019-09-15T07:15:15Z</time>
      </trkpt>
      <trkpt lat="47.26437" lon="-2.33269">
        <ele>51</ele>
        <time>2019-09-15T07:15:16Z</time>
      </trkpt>
      <trkpt lat="47.26442" lon="-2.3327">
        <ele>50</ele>
        <time>2019-09-15T07:15:17Z</time>
      </trkpt>
      <trkpt lat="47.26447" lon="-2.3327">
        <ele>51</ele>
        <time>2019-09-15T07:15:18Z</time>
      </trkpt>
      <trkpt lat="47.26452" lon="-2.33271">
        <ele>51</ele>
        <time>2019-09-15T07:15:19Z</time>
      </trkpt>
      <trkpt lat="47.26457" lon="-2.33272">
        <ele>51</ele>
        <time>2019-09-15T07:15:20Z</time>
      </trkpt>
      <trkpt lat="47.26461" lon="-2.33273">
        <ele>51</ele>
        <time>2019-09-15T07:15:21Z</time>
      </trkpt>
      <trkpt lat="47.26466" lon="-2.33274">
        <ele>50</ele>
        <time>2019-09-15T07:15:22Z</time>
      </trkpt>
      <trkpt lat="47.2647" lon="-2.33275">
        <ele>50</ele>
        <time>2019-09-15T07:15:23Z</time>
      </trkpt>
      <trkpt lat="47.26475" lon="-2.33275">
        <ele>50</ele>
        <time>2019-09-15T07:15:24Z</time>
      </trkpt>
      <trkpt lat="47.26483" lon="-2.33269">
        <ele>51</ele>
        <time>2019-09-15T07:15:26Z</time>
      </trkpt>
      <trkpt lat="47.2649" lon="-2.33258">
        <ele>51</ele>
        <time>2019-09-15T07:15:28Z</time>
      </trkpt>
      <trkpt lat="47.26493" lon="-2.33253">
        <ele>51</ele>
        <time>2019-09-15T07:15:29Z</time>
      </trkpt>
      <trkpt lat="47.265" lon="-2.33244">
        <ele>51</ele>
        <time>2019-09-15T07:15:31Z</time>
      </trkpt>
      <trkpt lat="47.26507" lon="-2.33235">
        <ele>51</ele>
        <time>2019-09-15T07:15:33Z</time>
      </trkpt>
      <trkpt lat="47.26512" lon="-2.33231">
        <ele>51</ele>
        <time>2019-09-15T07:15:34Z</time>
      </trkpt>
      <trkpt lat="47.26517" lon="-2.33228">
        <ele>51</ele>
        <time>2019-09-15T07:15:35Z</time>
      </trkpt>
      <trkpt lat="47.26522" lon="-2.33224">
        <ele>51</ele>
        <time>2019-09-15T07:15:36Z</time>
      </trkpt>
      <trkpt lat="47.26527" lon="-2.33221">
        <ele>51</ele>
        <time>2019-09-15T07:15:37Z</time>
      </trkpt>
      <trkpt lat="47.26532" lon="-2.33218">
        <ele>51</ele>
        <time>2019-09-15T07:15:38Z</time>
      </trkpt>
      <trkpt lat="47.26537" lon="-2.33215">
        <ele>51</ele>
        <time>2019-09-15T07:15:39Z</time>
      </trkpt>
      <trkpt lat="47.26542" lon="-2.33212">
        <ele>51</ele>
        <time>2019-09-15T07:15:40Z</time>
      </trkpt>
      <trkpt lat="47.26546" lon="-2.33209">
        <ele>51</ele>
        <time>2019-09-15T07:15:41Z</time>
      </trkpt>
      <trkpt lat="47.26551" lon="-2.33206">
        <ele>51</ele>
        <time>2019-09-15T07:15:42Z</time>
      </trkpt>
      <trkpt lat="47.26561" lon="-2.33201">
        <ele>52</ele>
        <time>2019-09-15T07:15:44Z</time>
      </trkpt>
      <trkpt lat="47.26566" lon="-2.33198">
        <ele>52</ele>
        <time>2019-09-15T07:15:45Z</time>
      </trkpt>
      <trkpt lat="47.26571" lon="-2.33195">
        <ele>52</ele>
        <time>2019-09-15T07:15:46Z</time>
      </trkpt>
      <trkpt lat="47.26575" lon="-2.33191">
        <ele>52</ele>
        <time>2019-09-15T07:15:47Z</time>
      </trkpt>
      <trkpt lat="47.2658" lon="-2.33186">
        <ele>52</ele>
        <time>2019-09-15T07:15:48Z</time>
      </trkpt>
      <trkpt lat="47.26583" lon="-2.3318">
        <ele>52</ele>
        <time>2019-09-15T07:15:49Z</time>
      </trkpt>
      <trkpt lat="47.26585" lon="-2.33174">
        <ele>52</ele>
        <time>2019-09-15T07:15:50Z</time>
      </trkpt>
      <trkpt lat="47.26587" lon="-2.33167">
        <ele>52</ele>
        <time>2019-09-15T07:15:51Z</time>
      </trkpt>
      <trkpt lat="47.2659" lon="-2.3316">
        <ele>52</ele>
        <time>2019-09-15T07:15:52Z</time>
      </trkpt>
      <trkpt lat="47.26593" lon="-2.33155">
        <ele>52</ele>
        <time>2019-09-15T07:15:53Z</time>
      </trkpt>
      <trkpt lat="47.26596" lon="-2.3315">
        <ele>52</ele>
        <time>2019-09-15T07:15:54Z</time>
      </trkpt>
      <trkpt lat="47.26605" lon="-2.33145">
        <ele>53</ele>
        <time>2019-09-15T07:15:56Z</time>
      </trkpt>
      <trkpt lat="47.2661" lon="-2.33145">
        <ele>53</ele>
        <time>2019-09-15T07:15:57Z</time>
      </trkpt>
      <trkpt lat="47.26625" lon="-2.3315">
        <ele>53</ele>
        <time>2019-09-15T07:16:00Z</time>
      </trkpt>
      <trkpt lat="47.26635" lon="-2.33147">
        <ele>52</ele>
        <time>2019-09-15T07:16:02Z</time>
      </trkpt>
      <trkpt lat="47.26646" lon="-2.33141">
        <ele>52</ele>
        <time>2019-09-15T07:16:04Z</time>
      </trkpt>
      <trkpt lat="47.26654" lon="-2.33134">
        <ele>52</ele>
        <time>2019-09-15T07:16:06Z</time>
      </trkpt>
      <trkpt lat="47.26659" lon="-2.3313">
        <ele>52</ele>
        <time>2019-09-15T07:16:07Z</time>
      </trkpt>
      <trkpt lat="47.26669" lon="-2.33123">
        <ele>52</ele>
        <time>2019-09-15T07:16:09Z</time>
      </trkpt>
      <trkpt lat="47.26673" lon="-2.3312">
        <ele>51</ele>
        <time>2019-09-15T07:16:10Z</time>
      </trkpt>
      <trkpt lat="47.26678" lon="-2.33115">
        <ele>52</ele>
        <time>2019-09-15T07:16:11Z</time>
      </trkpt>
      <trkpt lat="47.26682" lon="-2.33111">
        <ele>52</ele>
        <time>2019-09-15T07:16:12Z</time>
      </trkpt>
      <trkpt lat="47.26687" lon="-2.33106">
        <ele>52</ele>
        <time>2019-09-15T07:16:13Z</time>
      </trkpt>
      <trkpt lat="47.26691" lon="-2.33101">
        <ele>52</ele>
        <time>2019-09-15T07:16:14Z</time>
      </trkpt>
      <trkpt lat="47.26695" lon="-2.33097">
        <ele>52</ele>
        <time>2019-09-15T07:16:15Z</time>
      </trkpt>
      <trkpt lat="47.267" lon="-2.33092">
        <ele>52</ele>
        <time>2019-09-15T07:16:16Z</time>
      </trkpt>
      <trkpt lat="47.2671" lon="-2.33084">
        <ele>53</ele>
        <time>2019-09-15T07:16:18Z</time>
      </trkpt>
      <trkpt lat="47.26714" lon="-2.33079">
        <ele>53</ele>
        <time>2019-09-15T07:16:19Z</time>
      </trkpt>
      <trkpt lat="47.26722" lon="-2.33068">
        <ele>53</ele>
        <time>2019-09-15T07:16:21Z</time>
      </trkpt>
      <trkpt lat="47.26725" lon="-2.33063">
        <ele>53</ele>
        <time>2019-09-15T07:16:22Z</time>
      </trkpt>
      <trkpt lat="47.26728" lon="-2.33056">
        <ele>53</ele>
        <time>2019-09-15T07:16:23Z</time>
      </trkpt>
      <trkpt lat="47.2673" lon="-2.33049">
        <ele>54</ele>
        <time>2019-09-15T07:16:24Z</time>
      </trkpt>
      <trkpt lat="47.26731" lon="-2.33043">
        <ele>54</ele>
        <time>2019-09-15T07:16:25Z</time>
      </trkpt>
      <trkpt lat="47.26732" lon="-2.33029">
        <ele>54</ele>
        <time>2019-09-15T07:16:27Z</time>
      </trkpt>
      <trkpt lat="47.26732" lon="-2.33022">
        <ele>54</ele>
        <time>2019-09-15T07:16:28Z</time>
      </trkpt>
      <trkpt lat="47.26732" lon="-2.33007">
        <ele>54</ele>
        <time>2019-09-15T07:16:30Z</time>
      </trkpt>
      <trkpt lat="47.26733" lon="-2.33">
        <ele>54</ele>
        <time>2019-09-15T07:16:31Z</time>
      </trkpt>
      <trkpt lat="47.26735" lon="-2.32993">
        <ele>54</ele>
        <time>2019-09-15T07:16:32Z</time>
      </trkpt>
      <trkpt lat="47.26741" lon="-2.3298">
        <ele>54</ele>
        <time>2019-09-15T07:16:34Z</time>
      </trkpt>
      <trkpt lat="47.26745" lon="-2.32975">
        <ele>54</ele>
        <time>2019-09-15T07:16:35Z</time>
      </trkpt>
      <trkpt lat="47.26749" lon="-2.3297">
        <ele>54</ele>
        <time>2019-09-15T07:16:36Z</time>
      </trkpt>
      <trkpt lat="47.26753" lon="-2.32966">
        <ele>54</ele>
        <time>2019-09-15T07:16:37Z</time>
      </trkpt>
      <trkpt lat="47.26758" lon="-2.32961">
        <ele>54</ele>
        <time>2019-09-15T07:16:38Z</time>
      </trkpt>
      <trkpt lat="47.26768" lon="-2.3295">
        <ele>54</ele>
        <time>2019-09-15T07:16:40Z</time>
      </trkpt>
      <trkpt lat="47.26777" lon="-2.32939">
        <ele>54</ele>
        <time>2019-09-15T07:16:42Z</time>
      </trkpt>
      <trkpt lat="47.26786" lon="-2.32929">
        <ele>54</ele>
        <time>2019-09-15T07:16:44Z</time>
      </trkpt>
      <trkpt lat="47.26792" lon="-2.32926">
        <ele>55</ele>
        <time>2019-09-15T07:16:45Z</time>
      </trkpt>
      <trkpt lat="47.26807" lon="-2.32917">
        <ele>55</ele>
        <time>2019-09-15T07:16:48Z</time>
      </trkpt>
      <trkpt lat="47.26816" lon="-2.32908">
        <ele>56</ele>
        <time>2019-09-15T07:16:50Z</time>
      </trkpt>
      <trkpt lat="47.26821" lon="-2.32903">
        <ele>56</ele>
        <time>2019-09-15T07:16:51Z</time>
      </trkpt>
      <trkpt lat="47.26826" lon="-2.32898">
        <ele>56</ele>
        <time>2019-09-15T07:16:52Z</time>
      </trkpt>
      <trkpt lat="47.26831" lon="-2.32894">
        <ele>57</ele>
        <time>2019-09-15T07:16:53Z</time>
      </trkpt>
      <trkpt lat="47.26835" lon="-2.3289">
        <ele>57</ele>
        <time>2019-09-15T07:16:54Z</time>
      </trkpt>
      <trkpt lat="47.26841" lon="-2.32887">
        <ele>57</ele>
        <time>2019-09-15T07:16:55Z</time>
      </trkpt>
      <trkpt lat="47.26852" lon="-2.32882">
        <ele>58</ele>
        <time>2019-09-15T07:16:57Z</time>
      </trkpt>
      <trkpt lat="47.26856" lon="-2.32879">
        <ele>57</ele>
        <time>2019-09-15T07:16:58Z</time>
      </trkpt>
      <trkpt lat="47.2686" lon="-2.32875">
        <ele>58</ele>
        <time>2019-09-15T07:16:59Z</time>
      </trkpt>
      <trkpt lat="47.26863" lon="-2.32865">
        <ele>57</ele>
        <time>2019-09-15T07:17:01Z</time>
      </trkpt>
      <trkpt lat="47.26861" lon="-2.32854">
        <ele>57</ele>
        <time>2019-09-15T07:17:03Z</time>
      </trkpt>
      <trkpt lat="47.26857" lon="-2.32844">
        <ele>58</ele>
        <time>2019-09-15T07:17:05Z</time>
      </trkpt>
      <trkpt lat="47.26854" lon="-2.32835">
        <ele>58</ele>
        <time>2019-09-15T07:17:07Z</time>
      </trkpt>
      <trkpt lat="47.26851" lon="-2.32827">
        <ele>59</ele>
        <time>2019-09-15T07:17:09Z</time>
      </trkpt>
      <trkpt lat="47.26849" lon="-2.32822">
        <ele>59</ele>
        <time>2019-09-15T07:17:10Z</time>
      </trkpt>
      <trkpt lat="47.26848" lon="-2.32817">
        <ele>59</ele>
        <time>2019-09-15T07:17:11Z</time>
      </trkpt>
      <trkpt lat="47.26846" lon="-2.32813">
        <ele>59</ele>
        <time>2019-09-15T07:17:12Z</time>
      </trkpt>
      <trkpt lat="47.26845" lon="-2.32809">
        <ele>60</ele>
        <time>2019-09-15T07:17:13Z</time>
      </trkpt>
      <trkpt lat="47.26842" lon="-2.32799">
        <ele>60</ele>
        <time>2019-09-15T07:17:15Z</time>
      </trkpt>
      <trkpt lat="47.26841" lon="-2.32794">
        <ele>60</ele>
        <time>2019-09-15T07:17:16Z</time>
      </trkpt>
      <trkpt lat="47.2684" lon="-2.32789">
        <ele>60</ele>
        <time>2019-09-15T07:17:17Z</time>
      </trkpt>
      <trkpt lat="47.26837" lon="-2.32778">
        <ele>61</ele>
        <time>2019-09-15T07:17:19Z</time>
      </trkpt>
      <trkpt lat="47.26835" lon="-2.32773">
        <ele>61</ele>
        <time>2019-09-15T07:17:20Z</time>
      </trkpt>
      <trkpt lat="47.26833" lon="-2.32763">
        <ele>62</ele>
        <time>2019-09-15T07:17:22Z</time>
      </trkpt>
      <trkpt lat="47.26828" lon="-2.32749">
        <ele>62</ele>
        <time>2019-09-15T07:17:25Z</time>
      </trkpt>
      <trkpt lat="47.26824" lon="-2.32741">
        <ele>63</ele>
        <time>2019-09-15T07:17:27Z</time>
      </trkpt>
      <trkpt lat="47.26822" lon="-2.32736">
        <ele>63</ele>
        <time>2019-09-15T07:17:28Z</time>
      </trkpt>
      <trkpt lat="47.2682" lon="-2.32731">
        <ele>63</ele>
        <time>2019-09-15T07:17:29Z</time>
      </trkpt>
      <trkpt lat="47.26815" lon="-2.32723">
        <ele>64</ele>
        <time>2019-09-15T07:17:31Z</time>
      </trkpt>
      <trkpt lat="47.26805" lon="-2.32698">
        <ele>65</ele>
        <time>2019-09-15T07:17:36Z</time>
      </trkpt>
      <trkpt lat="47.26801" lon="-2.32687">
        <ele>65</ele>
        <time>2019-09-15T07:17:37Z</time>
      </trkpt>
      <trkpt lat="47.26803" lon="-2.32675">
        <ele>65</ele>
        <time>2019-09-15T07:17:39Z</time>
      </trkpt>
      <trkpt lat="47.26807" lon="-2.32664">
        <ele>66</ele>
        <time>2019-09-15T07:17:41Z</time>
      </trkpt>
      <trkpt lat="47.26809" lon="-2.32651">
        <ele>66</ele>
        <time>2019-09-15T07:17:43Z</time>
      </trkpt>
      <trkpt lat="47.26809" lon="-2.32644">
        <ele>66</ele>
        <time>2019-09-15T07:17:44Z</time>
      </trkpt>
      <trkpt lat="47.26808" lon="-2.32636">
        <ele>66</ele>
        <time>2019-09-15T07:17:45Z</time>
      </trkpt>
      <trkpt lat="47.26807" lon="-2.32628">
        <ele>67</ele>
        <time>2019-09-15T07:17:46Z</time>
      </trkpt>
      <trkpt lat="47.26804" lon="-2.32612">
        <ele>66</ele>
        <time>2019-09-15T07:17:48Z</time>
      </trkpt>
      <trkpt lat="47.26802" lon="-2.32605">
        <ele>66</ele>
        <time>2019-09-15T07:17:49Z</time>
      </trkpt>
      <trkpt lat="47.26802" lon="-2.32596">
        <ele>66</ele>
        <time>2019-09-15T07:17:50Z</time>
      </trkpt>
      <trkpt lat="47.268" lon="-2.32581">
        <ele>66</ele>
        <time>2019-09-15T07:17:52Z</time>
      </trkpt>
      <trkpt lat="47.26799" lon="-2.32573">
        <ele>66</ele>
        <time>2019-09-15T07:17:53Z</time>
      </trkpt>
      <trkpt lat="47.26799" lon="-2.32565">
        <ele>66</ele>
        <time>2019-09-15T07:17:54Z</time>
      </trkpt>
      <trkpt lat="47.26799" lon="-2.32558">
        <ele>67</ele>
        <time>2019-09-15T07:17:55Z</time>
      </trkpt>
      <trkpt lat="47.26799" lon="-2.3255">
        <ele>67</ele>
        <time>2019-09-15T07:17:57Z</time>
      </trkpt>
      <trkpt lat="47.26798" lon="-2.32542">
        <ele>67</ele>
        <time>2019-09-15T07:17:58Z</time>
      </trkpt>
      <trkpt lat="47.26798" lon="-2.32535">
        <ele>67</ele>
        <time>2019-09-15T07:17:59Z</time>
      </trkpt>
      <trkpt lat="47.26797" lon="-2.32527">
        <ele>67</ele>
        <time>2019-09-15T07:18:00Z</time>
      </trkpt>
      <trkpt lat="47.26796" lon="-2.3252">
        <ele>67</ele>
        <time>2019-09-15T07:18:01Z</time>
      </trkpt>
      <trkpt lat="47.26796" lon="-2.32512">
        <ele>67</ele>
        <time>2019-09-15T07:18:02Z</time>
      </trkpt>
      <trkpt lat="47.26795" lon="-2.32504">
        <ele>67</ele>
        <time>2019-09-15T07:18:03Z</time>
      </trkpt>
      <trkpt lat="47.26795" lon="-2.32497">
        <ele>67</ele>
        <time>2019-09-15T07:18:04Z</time>
      </trkpt>
      <trkpt lat="47.26794" lon="-2.32489">
        <ele>67</ele>
        <time>2019-09-15T07:18:05Z</time>
      </trkpt>
      <trkpt lat="47.26793" lon="-2.32482">
        <ele>67</ele>
        <time>2019-09-15T07:18:06Z</time>
      </trkpt>
      <trkpt lat="47.26793" lon="-2.32475">
        <ele>68</ele>
        <time>2019-09-15T07:18:07Z</time>
      </trkpt>
      <trkpt lat="47.26792" lon="-2.32468">
        <ele>68</ele>
        <time>2019-09-15T07:18:08Z</time>
      </trkpt>
      <trkpt lat="47.26791" lon="-2.32461">
        <ele>68</ele>
        <time>2019-09-15T07:18:09Z</time>
      </trkpt>
      <trkpt lat="47.2679" lon="-2.32453">
        <ele>68</ele>
        <time>2019-09-15T07:18:10Z</time>
      </trkpt>
      <trkpt lat="47.26789" lon="-2.32446">
        <ele>68</ele>
        <time>2019-09-15T07:18:11Z</time>
      </trkpt>
      <trkpt lat="47.26787" lon="-2.32432">
        <ele>69</ele>
        <time>2019-09-15T07:18:13Z</time>
      </trkpt>
      <trkpt lat="47.26786" lon="-2.32425">
        <ele>69</ele>
        <time>2019-09-15T07:18:14Z</time>
      </trkpt>
      <trkpt lat="47.26784" lon="-2.32411">
        <ele>69</ele>
        <time>2019-09-15T07:18:16Z</time>
      </trkpt>
      <trkpt lat="47.26782" lon="-2.32405">
        <ele>69</ele>
        <time>2019-09-15T07:18:17Z</time>
      </trkpt>
      <trkpt lat="47.2678" lon="-2.32392">
        <ele>69</ele>
        <time>2019-09-15T07:18:19Z</time>
      </trkpt>
      <trkpt lat="47.26778" lon="-2.3238">
        <ele>69</ele>
        <time>2019-09-15T07:18:21Z</time>
      </trkpt>
      <trkpt lat="47.26768" lon="-2.32372">
        <ele>69</ele>
        <time>2019-09-15T07:18:24Z</time>
      </trkpt>
      <trkpt lat="47.26763" lon="-2.32372">
        <ele>70</ele>
        <time>2019-09-15T07:18:25Z</time>
      </trkpt>
      <trkpt lat="47.26758" lon="-2.32372">
        <ele>70</ele>
        <time>2019-09-15T07:18:26Z</time>
      </trkpt>
      <trkpt lat="47.26749" lon="-2.32374">
        <ele>69</ele>
        <time>2019-09-15T07:18:28Z</time>
      </trkpt>
      <trkpt lat="47.26744" lon="-2.32376">
        <ele>69</ele>
        <time>2019-09-15T07:18:29Z</time>
      </trkpt>
      <trkpt lat="47.26735" lon="-2.3238">
        <ele>69</ele>
        <time>2019-09-15T07:18:31Z</time>
      </trkpt>
      <trkpt lat="47.2673" lon="-2.32381">
        <ele>69</ele>
        <time>2019-09-15T07:18:32Z</time>
      </trkpt>
      <trkpt lat="47.26719" lon="-2.32371">
        <ele>69</ele>
        <time>2019-09-15T07:18:35Z</time>
      </trkpt>
      <trkpt lat="47.26716" lon="-2.32364">
        <ele>69</ele>
        <time>2019-09-15T07:18:36Z</time>
      </trkpt>
      <trkpt lat="47.2671" lon="-2.32346">
        <ele>70</ele>
        <time>2019-09-15T07:18:39Z</time>
      </trkpt>
      <trkpt lat="47.26707" lon="-2.3234">
        <ele>70</ele>
        <time>2019-09-15T07:18:40Z</time>
      </trkpt>
      <trkpt lat="47.26705" lon="-2.32333">
        <ele>70</ele>
        <time>2019-09-15T07:18:41Z</time>
      </trkpt>
      <trkpt lat="47.26703" lon="-2.32326">
        <ele>70</ele>
        <time>2019-09-15T07:18:42Z</time>
      </trkpt>
      <trkpt lat="47.26701" lon="-2.3232">
        <ele>70</ele>
        <time>2019-09-15T07:18:43Z</time>
      </trkpt>
      <trkpt lat="47.26699" lon="-2.32313">
        <ele>70</ele>
        <time>2019-09-15T07:18:44Z</time>
      </trkpt>
      <trkpt lat="47.26698" lon="-2.32307">
        <ele>70</ele>
        <time>2019-09-15T07:18:45Z</time>
      </trkpt>
      <trkpt lat="47.26696" lon="-2.323">
        <ele>70</ele>
        <time>2019-09-15T07:18:46Z</time>
      </trkpt>
      <trkpt lat="47.26695" lon="-2.32294">
        <ele>70</ele>
        <time>2019-09-15T07:18:47Z</time>
      </trkpt>
      <trkpt lat="47.26693" lon="-2.32287">
        <ele>70</ele>
        <time>2019-09-15T07:18:48Z</time>
      </trkpt>
      <trkpt lat="47.26692" lon="-2.32281">
        <ele>70</ele>
        <time>2019-09-15T07:18:49Z</time>
      </trkpt>
      <trkpt lat="47.26691" lon="-2.32275">
        <ele>70</ele>
        <time>2019-09-15T07:18:50Z</time>
      </trkpt>
      <trkpt lat="47.2669" lon="-2.32269">
        <ele>70</ele>
        <time>2019-09-15T07:18:51Z</time>
      </trkpt>
      <trkpt lat="47.26689" lon="-2.32263">
        <ele>71</ele>
        <time>2019-09-15T07:18:52Z</time>
      </trkpt>
      <trkpt lat="47.26689" lon="-2.32251">
        <ele>70</ele>
        <time>2019-09-15T07:18:54Z</time>
      </trkpt>
      <trkpt lat="47.26691" lon="-2.32238">
        <ele>70</ele>
        <time>2019-09-15T07:18:56Z</time>
      </trkpt>
      <trkpt lat="47.26694" lon="-2.32208">
        <ele>71</ele>
        <time>2019-09-15T07:19:00Z</time>
      </trkpt>
      <trkpt lat="47.26693" lon="-2.322">
        <ele>71</ele>
        <time>2019-09-15T07:19:01Z</time>
      </trkpt>
      <trkpt lat="47.26693" lon="-2.32192">
        <ele>71</ele>
        <time>2019-09-15T07:19:02Z</time>
      </trkpt>
      <trkpt lat="47.26691" lon="-2.32185">
        <ele>71</ele>
        <time>2019-09-15T07:19:03Z</time>
      </trkpt>
      <trkpt lat="47.2669" lon="-2.32178">
        <ele>71</ele>
        <time>2019-09-15T07:19:04Z</time>
      </trkpt>
      <trkpt lat="47.26688" lon="-2.32171">
        <ele>71</ele>
        <time>2019-09-15T07:19:05Z</time>
      </trkpt>
      <trkpt lat="47.26687" lon="-2.32165">
        <ele>71</ele>
        <time>2019-09-15T07:19:06Z</time>
      </trkpt>
      <trkpt lat="47.26686" lon="-2.32159">
        <ele>71</ele>
        <time>2019-09-15T07:19:07Z</time>
      </trkpt>
      <trkpt lat="47.26684" lon="-2.3214">
        <ele>71</ele>
        <time>2019-09-15T07:19:10Z</time>
      </trkpt>
      <trkpt lat="47.26684" lon="-2.32134">
        <ele>70</ele>
        <time>2019-09-15T07:19:11Z</time>
      </trkpt>
      <trkpt lat="47.26683" lon="-2.32129">
        <ele>70</ele>
        <time>2019-09-15T07:19:12Z</time>
      </trkpt>
      <trkpt lat="47.26683" lon="-2.32123">
        <ele>71</ele>
        <time>2019-09-15T07:19:13Z</time>
      </trkpt>
      <trkpt lat="47.26684" lon="-2.32106">
        <ele>71</ele>
        <time>2019-09-15T07:19:16Z</time>
      </trkpt>
      <trkpt lat="47.26684" lon="-2.321">
        <ele>71</ele>
        <time>2019-09-15T07:19:17Z</time>
      </trkpt>
      <trkpt lat="47.26684" lon="-2.32094">
        <ele>71</ele>
        <time>2019-09-15T07:19:18Z</time>
      </trkpt>
      <trkpt lat="47.26685" lon="-2.32075">
        <ele>71</ele>
        <time>2019-09-15T07:19:21Z</time>
      </trkpt>
      <trkpt lat="47.26685" lon="-2.32062">
        <ele>72</ele>
        <time>2019-09-15T07:19:23Z</time>
      </trkpt>
      <trkpt lat="47.26686" lon="-2.3205">
        <ele>72</ele>
        <time>2019-09-15T07:19:25Z</time>
      </trkpt>
      <trkpt lat="47.26686" lon="-2.32044">
        <ele>72</ele>
        <time>2019-09-15T07:19:26Z</time>
      </trkpt>
      <trkpt lat="47.26687" lon="-2.3204">
        <ele>72</ele>
        <time>2019-09-15T07:19:27Z</time>
      </trkpt>
      <trkpt lat="47.2669" lon="-2.32032">
        <ele>73</ele>
        <time>2019-09-15T07:19:29Z</time>
      </trkpt>
      <trkpt lat="47.26692" lon="-2.32027">
        <ele>73</ele>
        <time>2019-09-15T07:19:30Z</time>
      </trkpt>
      <trkpt lat="47.26707" lon="-2.32004">
        <ele>72</ele>
        <time>2019-09-15T07:19:34Z</time>
      </trkpt>
      <trkpt lat="47.26725" lon="-2.31993">
        <ele>72</ele>
        <time>2019-09-15T07:19:39Z</time>
      </trkpt>
      <trkpt lat="47.26731" lon="-2.31989">
        <ele>72</ele>
        <time>2019-09-15T07:19:40Z</time>
      </trkpt>
      <trkpt lat="47.26736" lon="-2.31986">
        <ele>72</ele>
        <time>2019-09-15T07:19:41Z</time>
      </trkpt>
      <trkpt lat="47.26745" lon="-2.31978">
        <ele>72</ele>
        <time>2019-09-15T07:19:42Z</time>
      </trkpt>
      <trkpt lat="47.26754" lon="-2.31964">
        <ele>71</ele>
        <time>2019-09-15T07:19:46Z</time>
      </trkpt>
      <trkpt lat="47.26757" lon="-2.31958">
        <ele>72</ele>
        <time>2019-09-15T07:19:47Z</time>
      </trkpt>
      <trkpt lat="47.26759" lon="-2.31952">
        <ele>72</ele>
        <time>2019-09-15T07:19:48Z</time>
      </trkpt>
      <trkpt lat="47.2676" lon="-2.31946">
        <ele>72</ele>
        <time>2019-09-15T07:19:49Z</time>
      </trkpt>
      <trkpt lat="47.2676" lon="-2.31939">
        <ele>71</ele>
        <time>2019-09-15T07:19:50Z</time>
      </trkpt>
      <trkpt lat="47.26759" lon="-2.31932">
        <ele>71</ele>
        <time>2019-09-15T07:19:51Z</time>
      </trkpt>
      <trkpt lat="47.26757" lon="-2.31925">
        <ele>70</ele>
        <time>2019-09-15T07:19:52Z</time>
      </trkpt>
      <trkpt lat="47.26754" lon="-2.31919">
        <ele>70</ele>
        <time>2019-09-15T07:19:53Z</time>
      </trkpt>
      <trkpt lat="47.26752" lon="-2.31913">
        <ele>71</ele>
        <time>2019-09-15T07:19:54Z</time>
      </trkpt>
      <trkpt lat="47.2675" lon="-2.31907">
        <ele>71</ele>
        <time>2019-09-15T07:19:55Z</time>
      </trkpt>
      <trkpt lat="47.26748" lon="-2.31902">
        <ele>71</ele>
        <time>2019-09-15T07:19:56Z</time>
      </trkpt>
      <trkpt lat="47.26745" lon="-2.31896">
        <ele>71</ele>
        <time>2019-09-15T07:19:57Z</time>
      </trkpt>
      <trkpt lat="47.26743" lon="-2.3189">
        <ele>71</ele>
        <time>2019-09-15T07:19:58Z</time>
      </trkpt>
      <trkpt lat="47.26739" lon="-2.3188">
        <ele>71</ele>
        <time>2019-09-15T07:20:00Z</time>
      </trkpt>
      <trkpt lat="47.26736" lon="-2.31872">
        <ele>72</ele>
        <time>2019-09-15T07:20:02Z</time>
      </trkpt>
      <trkpt lat="47.26739" lon="-2.31863">
        <ele>73</ele>
        <time>2019-09-15T07:20:05Z</time>
      </trkpt>
      <trkpt lat="47.26744" lon="-2.31856">
        <ele>73</ele>
        <time>2019-09-15T07:20:07Z</time>
      </trkpt>
      <trkpt lat="47.26748" lon="-2.31851">
        <ele>73</ele>
        <time>2019-09-15T07:20:08Z</time>
      </trkpt>
      <trkpt lat="47.26752" lon="-2.31846">
        <ele>73</ele>
        <time>2019-09-15T07:20:09Z</time>
      </trkpt>
      <trkpt lat="47.26757" lon="-2.31842">
        <ele>72</ele>
        <time>2019-09-15T07:20:10Z</time>
      </trkpt>
      <trkpt lat="47.26762" lon="-2.31838">
        <ele>72</ele>
        <time>2019-09-15T07:20:11Z</time>
      </trkpt>
      <trkpt lat="47.26767" lon="-2.31834">
        <ele>72</ele>
        <time>2019-09-15T07:20:12Z</time>
      </trkpt>
      <trkpt lat="47.26773" lon="-2.3183">
        <ele>72</ele>
        <time>2019-09-15T07:20:13Z</time>
      </trkpt>
      <trkpt lat="47.26778" lon="-2.31826">
        <ele>72</ele>
        <time>2019-09-15T07:20:14Z</time>
      </trkpt>
      <trkpt lat="47.26783" lon="-2.31823">
        <ele>72</ele>
        <time>2019-09-15T07:20:15Z</time>
      </trkpt>
      <trkpt lat="47.26789" lon="-2.31819">
        <ele>72</ele>
        <time>2019-09-15T07:20:16Z</time>
      </trkpt>
      <trkpt lat="47.26795" lon="-2.31817">
        <ele>71</ele>
        <time>2019-09-15T07:20:17Z</time>
      </trkpt>
      <trkpt lat="47.26801" lon="-2.31814">
        <ele>71</ele>
        <time>2019-09-15T07:20:18Z</time>
      </trkpt>
      <trkpt lat="47.26805" lon="-2.31811">
        <ele>71</ele>
        <time>2019-09-15T07:20:19Z</time>
      </trkpt>
      <trkpt lat="47.2681" lon="-2.31807">
        <ele>71</ele>
        <time>2019-09-15T07:20:20Z</time>
      </trkpt>
      <trkpt lat="47.26816" lon="-2.31806">
        <ele>71</ele>
        <time>2019-09-15T07:20:22Z</time>
      </trkpt>
      <trkpt lat="47.26818" lon="-2.31815">
        <ele>71</ele>
        <time>2019-09-15T07:20:25Z</time>
      </trkpt>
      <trkpt lat="47.2682" lon="-2.31826">
        <ele>71</ele>
        <time>2019-09-15T07:20:27Z</time>
      </trkpt>
      <trkpt lat="47.26824" lon="-2.31844">
        <ele>71</ele>
        <time>2019-09-15T07:20:30Z</time>
      </trkpt>
      <trkpt lat="47.26829" lon="-2.31858">
        <ele>71</ele>
        <time>2019-09-15T07:20:32Z</time>
      </trkpt>
      <trkpt lat="47.26832" lon="-2.31866">
        <ele>71</ele>
        <time>2019-09-15T07:20:33Z</time>
      </trkpt>
      <trkpt lat="47.26835" lon="-2.31873">
        <ele>71</ele>
        <time>2019-09-15T07:20:34Z</time>
      </trkpt>
      <trkpt lat="47.26842" lon="-2.31886">
        <ele>70</ele>
        <time>2019-09-15T07:20:36Z</time>
      </trkpt>
      <trkpt lat="47.26847" lon="-2.31891">
        <ele>71</ele>
        <time>2019-09-15T07:20:37Z</time>
      </trkpt>
      <trkpt lat="47.26858" lon="-2.31897">
        <ele>71</ele>
        <time>2019-09-15T07:20:39Z</time>
      </trkpt>
      <trkpt lat="47.26864" lon="-2.31899">
        <ele>71</ele>
        <time>2019-09-15T07:20:40Z</time>
      </trkpt>
      <trkpt lat="47.26881" lon="-2.31911">
        <ele>71</ele>
        <time>2019-09-15T07:20:43Z</time>
      </trkpt>
      <trkpt lat="47.26891" lon="-2.31925">
        <ele>70</ele>
        <time>2019-09-15T07:20:45Z</time>
      </trkpt>
      <trkpt lat="47.26895" lon="-2.31933">
        <ele>70</ele>
        <time>2019-09-15T07:20:46Z</time>
      </trkpt>
      <trkpt lat="47.26901" lon="-2.3194">
        <ele>70</ele>
        <time>2019-09-15T07:20:47Z</time>
      </trkpt>
      <trkpt lat="47.26907" lon="-2.31946">
        <ele>70</ele>
        <time>2019-09-15T07:20:48Z</time>
      </trkpt>
      <trkpt lat="47.26917" lon="-2.31956">
        <ele>69</ele>
        <time>2019-09-15T07:20:50Z</time>
      </trkpt>
      <trkpt lat="47.26921" lon="-2.31963">
        <ele>70</ele>
        <time>2019-09-15T07:20:51Z</time>
      </trkpt>
      <trkpt lat="47.2693" lon="-2.31978">
        <ele>69</ele>
        <time>2019-09-15T07:20:53Z</time>
      </trkpt>
      <trkpt lat="47.26939" lon="-2.3199">
        <ele>69</ele>
        <time>2019-09-15T07:20:55Z</time>
      </trkpt>
      <trkpt lat="47.26944" lon="-2.31994">
        <ele>69</ele>
        <time>2019-09-15T07:20:56Z</time>
      </trkpt>
      <trkpt lat="47.26952" lon="-2.32001">
        <ele>68</ele>
        <time>2019-09-15T07:20:58Z</time>
      </trkpt>
      <trkpt lat="47.26957" lon="-2.32004">
        <ele>68</ele>
        <time>2019-09-15T07:20:59Z</time>
      </trkpt>
      <trkpt lat="47.26963" lon="-2.32005">
        <ele>68</ele>
        <time>2019-09-15T07:21:00Z</time>
      </trkpt>
      <trkpt lat="47.26974" lon="-2.32004">
        <ele>68</ele>
        <time>2019-09-15T07:21:02Z</time>
      </trkpt>
      <trkpt lat="47.2698" lon="-2.32003">
        <ele>68</ele>
        <time>2019-09-15T07:21:03Z</time>
      </trkpt>
      <trkpt lat="47.26987" lon="-2.32001">
        <ele>68</ele>
        <time>2019-09-15T07:21:04Z</time>
      </trkpt>
      <trkpt lat="47.27016" lon="-2.31976">
        <ele>69</ele>
        <time>2019-09-15T07:21:08Z</time>
      </trkpt>
      <trkpt lat="47.27023" lon="-2.31972">
        <ele>69</ele>
        <time>2019-09-15T07:21:09Z</time>
      </trkpt>
      <trkpt lat="47.27028" lon="-2.3197">
        <ele>68</ele>
        <time>2019-09-15T07:21:10Z</time>
      </trkpt>
      <trkpt lat="47.27033" lon="-2.31967">
        <ele>68</ele>
        <time>2019-09-15T07:21:11Z</time>
      </trkpt>
      <trkpt lat="47.27046" lon="-2.31962">
        <ele>67</ele>
        <time>2019-09-15T07:21:13Z</time>
      </trkpt>
      <trkpt lat="47.27053" lon="-2.31961">
        <ele>67</ele>
        <time>2019-09-15T07:21:14Z</time>
      </trkpt>
      <trkpt lat="47.27067" lon="-2.31959">
        <ele>67</ele>
        <time>2019-09-15T07:21:16Z</time>
      </trkpt>
      <trkpt lat="47.27073" lon="-2.31961">
        <ele>66</ele>
        <time>2019-09-15T07:21:17Z</time>
      </trkpt>
      <trkpt lat="47.2708" lon="-2.31961">
        <ele>67</ele>
        <time>2019-09-15T07:21:18Z</time>
      </trkpt>
      <trkpt lat="47.27095" lon="-2.31961">
        <ele>66</ele>
        <time>2019-09-15T07:21:20Z</time>
      </trkpt>
      <trkpt lat="47.27115" lon="-2.31968">
        <ele>66</ele>
        <time>2019-09-15T07:21:23Z</time>
      </trkpt>
      <trkpt lat="47.27121" lon="-2.31972">
        <ele>66</ele>
        <time>2019-09-15T07:21:24Z</time>
      </trkpt>
      <trkpt lat="47.27127" lon="-2.31976">
        <ele>66</ele>
        <time>2019-09-15T07:21:25Z</time>
      </trkpt>
      <trkpt lat="47.27133" lon="-2.3198">
        <ele>65</ele>
        <time>2019-09-15T07:21:26Z</time>
      </trkpt>
      <trkpt lat="47.27139" lon="-2.31984">
        <ele>65</ele>
        <time>2019-09-15T07:21:27Z</time>
      </trkpt>
      <trkpt lat="47.27144" lon="-2.31989">
        <ele>65</ele>
        <time>2019-09-15T07:21:28Z</time>
      </trkpt>
      <trkpt lat="47.27156" lon="-2.31997">
        <ele>65</ele>
        <time>2019-09-15T07:21:31Z</time>
      </trkpt>
      <trkpt lat="47.27163" lon="-2.31997">
        <ele>66</ele>
        <time>2019-09-15T07:21:33Z</time>
      </trkpt>
      <trkpt lat="47.27167" lon="-2.31994">
        <ele>66</ele>
        <time>2019-09-15T07:21:34Z</time>
      </trkpt>
      <trkpt lat="47.27171" lon="-2.31987">
        <ele>66</ele>
        <time>2019-09-15T07:21:35Z</time>
      </trkpt>
      <trkpt lat="47.27174" lon="-2.3198">
        <ele>66</ele>
        <time>2019-09-15T07:21:36Z</time>
      </trkpt>
      <trkpt lat="47.27179" lon="-2.31975">
        <ele>67</ele>
        <time>2019-09-15T07:21:37Z</time>
      </trkpt>
      <trkpt lat="47.27183" lon="-2.31972">
        <ele>67</ele>
        <time>2019-09-15T07:21:38Z</time>
      </trkpt>
      <trkpt lat="47.27196" lon="-2.31957">
        <ele>65</ele>
        <time>2019-09-15T07:21:41Z</time>
      </trkpt>
      <trkpt lat="47.27205" lon="-2.31941">
        <ele>66</ele>
        <time>2019-09-15T07:21:44Z</time>
      </trkpt>
      <trkpt lat="47.27209" lon="-2.31936">
        <ele>65</ele>
        <time>2019-09-15T07:21:45Z</time>
      </trkpt>
      <trkpt lat="47.27212" lon="-2.31932">
        <ele>65</ele>
        <time>2019-09-15T07:21:46Z</time>
      </trkpt>
      <trkpt lat="47.27217" lon="-2.31928">
        <ele>65</ele>
        <time>2019-09-15T07:21:47Z</time>
      </trkpt>
      <trkpt lat="47.27222" lon="-2.31925">
        <ele>64</ele>
        <time>2019-09-15T07:21:48Z</time>
      </trkpt>
      <trkpt lat="47.27229" lon="-2.31924">
        <ele>64</ele>
        <time>2019-09-15T07:21:49Z</time>
      </trkpt>
      <trkpt lat="47.27235" lon="-2.31924">
        <ele>63</ele>
        <time>2019-09-15T07:21:50Z</time>
      </trkpt>
      <trkpt lat="47.2725" lon="-2.3193">
        <ele>62</ele>
        <time>2019-09-15T07:21:53Z</time>
      </trkpt>
      <trkpt lat="47.27255" lon="-2.31932">
        <ele>63</ele>
        <time>2019-09-15T07:21:54Z</time>
      </trkpt>
      <trkpt lat="47.2726" lon="-2.31934">
        <ele>63</ele>
        <time>2019-09-15T07:21:55Z</time>
      </trkpt>
      <trkpt lat="47.27276" lon="-2.3194">
        <ele>63</ele>
        <time>2019-09-15T07:21:58Z</time>
      </trkpt>
      <trkpt lat="47.27287" lon="-2.31945">
        <ele>63</ele>
        <time>2019-09-15T07:22:00Z</time>
      </trkpt>
      <trkpt lat="47.27299" lon="-2.31948">
        <ele>63</ele>
        <time>2019-09-15T07:22:02Z</time>
      </trkpt>
      <trkpt lat="47.27304" lon="-2.31952">
        <ele>63</ele>
        <time>2019-09-15T07:22:03Z</time>
      </trkpt>
      <trkpt lat="47.27309" lon="-2.31956">
        <ele>63</ele>
        <time>2019-09-15T07:22:04Z</time>
      </trkpt>
      <trkpt lat="47.27314" lon="-2.3196">
        <ele>63</ele>
        <time>2019-09-15T07:22:05Z</time>
      </trkpt>
      <trkpt lat="47.2732" lon="-2.31964">
        <ele>63</ele>
        <time>2019-09-15T07:22:06Z</time>
      </trkpt>
      <trkpt lat="47.27325" lon="-2.3197">
        <ele>62</ele>
        <time>2019-09-15T07:22:07Z</time>
      </trkpt>
      <trkpt lat="47.2733" lon="-2.31975">
        <ele>62</ele>
        <time>2019-09-15T07:22:08Z</time>
      </trkpt>
      <trkpt lat="47.27334" lon="-2.31982">
        <ele>61</ele>
        <time>2019-09-15T07:22:09Z</time>
      </trkpt>
      <trkpt lat="47.27344" lon="-2.31993">
        <ele>60</ele>
        <time>2019-09-15T07:22:11Z</time>
      </trkpt>
      <trkpt lat="47.27348" lon="-2.31997">
        <ele>60</ele>
        <time>2019-09-15T07:22:12Z</time>
      </trkpt>
      <trkpt lat="47.27352" lon="-2.32001">
        <ele>60</ele>
        <time>2019-09-15T07:22:13Z</time>
      </trkpt>
      <trkpt lat="47.27366" lon="-2.32014">
        <ele>59</ele>
        <time>2019-09-15T07:22:16Z</time>
      </trkpt>
      <trkpt lat="47.27371" lon="-2.32019">
        <ele>58</ele>
        <time>2019-09-15T07:22:17Z</time>
      </trkpt>
      <trkpt lat="47.27375" lon="-2.32024">
        <ele>58</ele>
        <time>2019-09-15T07:22:18Z</time>
      </trkpt>
      <trkpt lat="47.27379" lon="-2.32029">
        <ele>58</ele>
        <time>2019-09-15T07:22:19Z</time>
      </trkpt>
      <trkpt lat="47.27389" lon="-2.32038">
        <ele>58</ele>
        <time>2019-09-15T07:22:21Z</time>
      </trkpt>
      <trkpt lat="47.27393" lon="-2.32043">
        <ele>58</ele>
        <time>2019-09-15T07:22:22Z</time>
      </trkpt>
      <trkpt lat="47.27398" lon="-2.32048">
        <ele>58</ele>
        <time>2019-09-15T07:22:23Z</time>
      </trkpt>
      <trkpt lat="47.27412" lon="-2.32065">
        <ele>58</ele>
        <time>2019-09-15T07:22:26Z</time>
      </trkpt>
      <trkpt lat="47.27417" lon="-2.3207">
        <ele>58</ele>
        <time>2019-09-15T07:22:27Z</time>
      </trkpt>
      <trkpt lat="47.27422" lon="-2.32074">
        <ele>58</ele>
        <time>2019-09-15T07:22:28Z</time>
      </trkpt>
      <trkpt lat="47.27426" lon="-2.3208">
        <ele>58</ele>
        <time>2019-09-15T07:22:29Z</time>
      </trkpt>
      <trkpt lat="47.27431" lon="-2.32086">
        <ele>58</ele>
        <time>2019-09-15T07:22:30Z</time>
      </trkpt>
      <trkpt lat="47.27436" lon="-2.32091">
        <ele>58</ele>
        <time>2019-09-15T07:22:31Z</time>
      </trkpt>
      <trkpt lat="47.2744" lon="-2.32096">
        <ele>58</ele>
        <time>2019-09-15T07:22:32Z</time>
      </trkpt>
      <trkpt lat="47.27444" lon="-2.32102">
        <ele>57</ele>
        <time>2019-09-15T07:22:33Z</time>
      </trkpt>
      <trkpt lat="47.27453" lon="-2.32114">
        <ele>57</ele>
        <time>2019-09-15T07:22:35Z</time>
      </trkpt>
      <trkpt lat="47.27457" lon="-2.32119">
        <ele>57</ele>
        <time>2019-09-15T07:22:36Z</time>
      </trkpt>
      <trkpt lat="47.27461" lon="-2.32125">
        <ele>57</ele>
        <time>2019-09-15T07:22:37Z</time>
      </trkpt>
      <trkpt lat="47.2747" lon="-2.32137">
        <ele>57</ele>
        <time>2019-09-15T07:22:39Z</time>
      </trkpt>
      <trkpt lat="47.27474" lon="-2.32143">
        <ele>57</ele>
        <time>2019-09-15T07:22:40Z</time>
      </trkpt>
      <trkpt lat="47.27483" lon="-2.32153">
        <ele>57</ele>
        <time>2019-09-15T07:22:42Z</time>
      </trkpt>
      <trkpt lat="47.27487" lon="-2.32159">
        <ele>57</ele>
        <time>2019-09-15T07:22:43Z</time>
      </trkpt>
      <trkpt lat="47.27492" lon="-2.32164">
        <ele>57</ele>
        <time>2019-09-15T07:22:44Z</time>
      </trkpt>
      <trkpt lat="47.27501" lon="-2.32175">
        <ele>57</ele>
        <time>2019-09-15T07:22:46Z</time>
      </trkpt>
      <trkpt lat="47.27505" lon="-2.32181">
        <ele>57</ele>
        <time>2019-09-15T07:22:47Z</time>
      </trkpt>
      <trkpt lat="47.27509" lon="-2.32187">
        <ele>57</ele>
        <time>2019-09-15T07:22:48Z</time>
      </trkpt>
      <trkpt lat="47.27518" lon="-2.32198">
        <ele>58</ele>
        <time>2019-09-15T07:22:50Z</time>
      </trkpt>
      <trkpt lat="47.27522" lon="-2.32203">
        <ele>57</ele>
        <time>2019-09-15T07:22:51Z</time>
      </trkpt>
      <trkpt lat="47.27535" lon="-2.32216">
        <ele>58</ele>
        <time>2019-09-15T07:22:54Z</time>
      </trkpt>
      <trkpt lat="47.2754" lon="-2.32221">
        <ele>58</ele>
        <time>2019-09-15T07:22:55Z</time>
      </trkpt>
      <trkpt lat="47.27544" lon="-2.32225">
        <ele>59</ele>
        <time>2019-09-15T07:22:56Z</time>
      </trkpt>
      <trkpt lat="47.27548" lon="-2.32229">
        <ele>59</ele>
        <time>2019-09-15T07:22:57Z</time>
      </trkpt>
      <trkpt lat="47.27553" lon="-2.32234">
        <ele>59</ele>
        <time>2019-09-15T07:22:58Z</time>
      </trkpt>
      <trkpt lat="47.27557" lon="-2.32238">
        <ele>59</ele>
        <time>2019-09-15T07:22:59Z</time>
      </trkpt>
      <trkpt lat="47.27562" lon="-2.32241">
        <ele>60</ele>
        <time>2019-09-15T07:23:00Z</time>
      </trkpt>
      <trkpt lat="47.27566" lon="-2.32245">
        <ele>60</ele>
        <time>2019-09-15T07:23:01Z</time>
      </trkpt>
      <trkpt lat="47.27571" lon="-2.32249">
        <ele>60</ele>
        <time>2019-09-15T07:23:02Z</time>
      </trkpt>
      <trkpt lat="47.27575" lon="-2.32252">
        <ele>61</ele>
        <time>2019-09-15T07:23:03Z</time>
      </trkpt>
      <trkpt lat="47.27579" lon="-2.32256">
        <ele>61</ele>
        <time>2019-09-15T07:23:04Z</time>
      </trkpt>
      <trkpt lat="47.27583" lon="-2.3226">
        <ele>61</ele>
        <time>2019-09-15T07:23:05Z</time>
      </trkpt>
      <trkpt lat="47.27592" lon="-2.32269">
        <ele>61</ele>
        <time>2019-09-15T07:23:07Z</time>
      </trkpt>
      <trkpt lat="47.27596" lon="-2.32272">
        <ele>61</ele>
        <time>2019-09-15T07:23:08Z</time>
      </trkpt>
      <trkpt lat="47.276" lon="-2.32275">
        <ele>61</ele>
        <time>2019-09-15T07:23:09Z</time>
      </trkpt>
      <trkpt lat="47.27603" lon="-2.32278">
        <ele>62</ele>
        <time>2019-09-15T07:23:10Z</time>
      </trkpt>
      <trkpt lat="47.27607" lon="-2.32282">
        <ele>62</ele>
        <time>2019-09-15T07:23:11Z</time>
      </trkpt>
      <trkpt lat="47.27611" lon="-2.32286">
        <ele>62</ele>
        <time>2019-09-15T07:23:12Z</time>
      </trkpt>
      <trkpt lat="47.27614" lon="-2.32291">
        <ele>62</ele>
        <time>2019-09-15T07:23:13Z</time>
      </trkpt>
      <trkpt lat="47.27621" lon="-2.32299">
        <ele>63</ele>
        <time>2019-09-15T07:23:15Z</time>
      </trkpt>
      <trkpt lat="47.27629" lon="-2.32304">
        <ele>63</ele>
        <time>2019-09-15T07:23:17Z</time>
      </trkpt>
      <trkpt lat="47.27631" lon="-2.32306">
        <ele>63</ele>
        <time>2019-09-15T07:23:18Z</time>
      </trkpt>
      <trkpt lat="47.27634" lon="-2.32308">
        <ele>63</ele>
        <time>2019-09-15T07:23:19Z</time>
      </trkpt>
      <trkpt lat="47.27645" lon="-2.32315">
        <ele>65</ele>
        <time>2019-09-15T07:23:23Z</time>
      </trkpt>
      <trkpt lat="47.27652" lon="-2.32318">
        <ele>65</ele>
        <time>2019-09-15T07:23:25Z</time>
      </trkpt>
      <trkpt lat="47.27662" lon="-2.32321">
        <ele>66</ele>
        <time>2019-09-15T07:23:28Z</time>
      </trkpt>
      <trkpt lat="47.27675" lon="-2.32327">
        <ele>67</ele>
        <time>2019-09-15T07:23:30Z</time>
      </trkpt>
      <trkpt lat="47.2768" lon="-2.32328">
        <ele>67</ele>
        <time>2019-09-15T07:23:31Z</time>
      </trkpt>
      <trkpt lat="47.2769" lon="-2.32331">
        <ele>67</ele>
        <time>2019-09-15T07:23:34Z</time>
      </trkpt>
      <trkpt lat="47.27694" lon="-2.32332">
        <ele>67</ele>
        <time>2019-09-15T07:23:35Z</time>
      </trkpt>
      <trkpt lat="47.27701" lon="-2.32336">
        <ele>68</ele>
        <time>2019-09-15T07:23:37Z</time>
      </trkpt>
      <trkpt lat="47.27704" lon="-2.32338">
        <ele>68</ele>
        <time>2019-09-15T07:23:38Z</time>
      </trkpt>
      <trkpt lat="47.27713" lon="-2.32343">
        <ele>67</ele>
        <time>2019-09-15T07:23:40Z</time>
      </trkpt>
      <trkpt lat="47.27717" lon="-2.32347">
        <ele>68</ele>
        <time>2019-09-15T07:23:42Z</time>
      </trkpt>
      <trkpt lat="47.27725" lon="-2.32353">
        <ele>69</ele>
        <time>2019-09-15T07:23:44Z</time>
      </trkpt>
      <trkpt lat="47.2773" lon="-2.32357">
        <ele>69</ele>
        <time>2019-09-15T07:23:45Z</time>
      </trkpt>
      <trkpt lat="47.27739" lon="-2.32363">
        <ele>71</ele>
        <time>2019-09-15T07:23:46Z</time>
      </trkpt>
      <trkpt lat="47.27745" lon="-2.32366">
        <ele>71</ele>
        <time>2019-09-15T07:23:47Z</time>
      </trkpt>
      <trkpt lat="47.27749" lon="-2.32367">
        <ele>71</ele>
        <time>2019-09-15T07:23:48Z</time>
      </trkpt>
      <trkpt lat="47.27757" lon="-2.32373">
        <ele>71</ele>
        <time>2019-09-15T07:23:50Z</time>
      </trkpt>
      <trkpt lat="47.27764" lon="-2.32379">
        <ele>71</ele>
        <time>2019-09-15T07:23:52Z</time>
      </trkpt>
      <trkpt lat="47.27767" lon="-2.32382">
        <ele>71</ele>
        <time>2019-09-15T07:23:54Z</time>
      </trkpt>
      <trkpt lat="47.27774" lon="-2.32384">
        <ele>72</ele>
        <time>2019-09-15T07:23:55Z</time>
      </trkpt>
      <trkpt lat="47.27778" lon="-2.32386">
        <ele>72</ele>
        <time>2019-09-15T07:23:56Z</time>
      </trkpt>
      <trkpt lat="47.27782" lon="-2.32387">
        <ele>72</ele>
        <time>2019-09-15T07:23:58Z</time>
      </trkpt>
      <trkpt lat="47.27788" lon="-2.32388">
        <ele>72</ele>
        <time>2019-09-15T07:23:59Z</time>
      </trkpt>
      <trkpt lat="47.27805" lon="-2.32389">
        <ele>73</ele>
        <time>2019-09-15T07:24:02Z</time>
      </trkpt>
      <trkpt lat="47.2781" lon="-2.32388">
        <ele>73</ele>
        <time>2019-09-15T07:24:03Z</time>
      </trkpt>
      <trkpt lat="47.27827" lon="-2.32383">
        <ele>73</ele>
        <time>2019-09-15T07:24:06Z</time>
      </trkpt>
      <trkpt lat="47.27832" lon="-2.32381">
        <ele>73</ele>
        <time>2019-09-15T07:24:07Z</time>
      </trkpt>
      <trkpt lat="47.27837" lon="-2.32381">
        <ele>74</ele>
        <time>2019-09-15T07:24:08Z</time>
      </trkpt>
      <trkpt lat="47.27843" lon="-2.32381">
        <ele>74</ele>
        <time>2019-09-15T07:24:09Z</time>
      </trkpt>
      <trkpt lat="47.27848" lon="-2.32381">
        <ele>74</ele>
        <time>2019-09-15T07:24:10Z</time>
      </trkpt>
      <trkpt lat="47.27852" lon="-2.32381">
        <ele>74</ele>
        <time>2019-09-15T07:24:11Z</time>
      </trkpt>
      <trkpt lat="47.27861" lon="-2.32387">
        <ele>75</ele>
        <time>2019-09-15T07:24:13Z</time>
      </trkpt>
      <trkpt lat="47.27865" lon="-2.3239">
        <ele>75</ele>
        <time>2019-09-15T07:24:14Z</time>
      </trkpt>
      <trkpt lat="47.27871" lon="-2.32391">
        <ele>75</ele>
        <time>2019-09-15T07:24:15Z</time>
      </trkpt>
      <trkpt lat="47.2788" lon="-2.32391">
        <ele>76</ele>
        <time>2019-09-15T07:24:17Z</time>
      </trkpt>
      <trkpt lat="47.27883" lon="-2.32391">
        <ele>76</ele>
        <time>2019-09-15T07:24:18Z</time>
      </trkpt>
      <trkpt lat="47.27886" lon="-2.32391">
        <ele>76</ele>
        <time>2019-09-15T07:24:19Z</time>
      </trkpt>
      <trkpt lat="47.27892" lon="-2.32391">
        <ele>76</ele>
        <time>2019-09-15T07:24:21Z</time>
      </trkpt>
      <trkpt lat="47.27896" lon="-2.32395">
        <ele>76</ele>
        <time>2019-09-15T07:24:24Z</time>
      </trkpt>
      <trkpt lat="47.27891" lon="-2.32404">
        <ele>75</ele>
        <time>2019-09-15T07:24:28Z</time>
      </trkpt>
      <trkpt lat="47.27886" lon="-2.32415">
        <ele>74</ele>
        <time>2019-09-15T07:24:31Z</time>
      </trkpt>
      <trkpt lat="47.27884" lon="-2.32421">
        <ele>75</ele>
        <time>2019-09-15T07:24:33Z</time>
      </trkpt>
      <trkpt lat="47.27881" lon="-2.32427">
        <ele>75</ele>
        <time>2019-09-15T07:24:36Z</time>
      </trkpt>
      <trkpt lat="47.27877" lon="-2.32437">
        <ele>76</ele>
        <time>2019-09-15T07:24:40Z</time>
      </trkpt>
      <trkpt lat="47.27873" lon="-2.32443">
        <ele>76</ele>
        <time>2019-09-15T07:24:43Z</time>
      </trkpt>
      <trkpt lat="47.27869" lon="-2.32446">
        <ele>76</ele>
        <time>2019-09-15T07:24:45Z</time>
      </trkpt>
      <trkpt lat="47.27864" lon="-2.32449">
        <ele>75</ele>
        <time>2019-09-15T07:24:47Z</time>
      </trkpt>
      <trkpt lat="47.2786" lon="-2.32451">
        <ele>75</ele>
        <time>2019-09-15T07:24:49Z</time>
      </trkpt>
      <trkpt lat="47.2786" lon="-2.32451">
        <ele>20.1</ele>
        <time>2019-09-15T07:24:54Z</time>
      </trkpt>
      <trkpt lat="47.2786" lon="-2.32451">
        <ele>20.1</ele>
        <time>2019-09-15T07:29:25Z</time>
      </trkpt>
      <trkpt lat="47.27845" lon="-2.32479">
        <ele>74</ele>
        <time>2019-09-15T07:29:25Z</time>
      </trkpt>
      <trkpt lat="47.27833" lon="-2.32513">
        <ele>84</ele>
        <time>2019-09-15T07:29:31Z</time>
      </trkpt>
      <trkpt lat="47.27827" lon="-2.32514">
        <ele>84</ele>
        <time>2019-09-15T07:29:33Z</time>
      </trkpt>
      <trkpt lat="47.27818" lon="-2.32522">
        <ele>81</ele>
        <time>2019-09-15T07:29:35Z</time>
      </trkpt>
      <trkpt lat="47.27815" lon="-2.32525">
        <ele>81</ele>
        <time>2019-09-15T07:29:36Z</time>
      </trkpt>
      <trkpt lat="47.27809" lon="-2.32534">
        <ele>84</ele>
        <time>2019-09-15T07:29:38Z</time>
      </trkpt>
      <trkpt lat="47.27806" lon="-2.3254">
        <ele>82</ele>
        <time>2019-09-15T07:29:39Z</time>
      </trkpt>
      <trkpt lat="47.27802" lon="-2.32546">
        <ele>77</ele>
        <time>2019-09-15T07:29:40Z</time>
      </trkpt>
      <trkpt lat="47.278" lon="-2.32552">
        <ele>76</ele>
        <time>2019-09-15T07:29:41Z</time>
      </trkpt>
      <trkpt lat="47.27796" lon="-2.32557">
        <ele>76</ele>
        <time>2019-09-15T07:29:42Z</time>
      </trkpt>
      <trkpt lat="47.27792" lon="-2.3256">
        <ele>77</ele>
        <time>2019-09-15T07:29:43Z</time>
      </trkpt>
      <trkpt lat="47.27789" lon="-2.32566">
        <ele>76</ele>
        <time>2019-09-15T07:29:44Z</time>
      </trkpt>
      <trkpt lat="47.27782" lon="-2.32576">
        <ele>78</ele>
        <time>2019-09-15T07:29:46Z</time>
      </trkpt>
      <trkpt lat="47.27779" lon="-2.32581">
        <ele>79</ele>
        <time>2019-09-15T07:29:47Z</time>
      </trkpt>
      <trkpt lat="47.27775" lon="-2.32588">
        <ele>79</ele>
        <time>2019-09-15T07:29:48Z</time>
      </trkpt>
      <trkpt lat="47.27766" lon="-2.32598">
        <ele>79</ele>
        <time>2019-09-15T07:29:50Z</time>
      </trkpt>
      <trkpt lat="47.27754" lon="-2.32616">
        <ele>76</ele>
        <time>2019-09-15T07:29:53Z</time>
      </trkpt>
      <trkpt lat="47.27747" lon="-2.32631">
        <ele>75</ele>
        <time>2019-09-15T07:29:55Z</time>
      </trkpt>
      <trkpt lat="47.2774" lon="-2.3265">
        <ele>75</ele>
        <time>2019-09-15T07:29:56Z</time>
      </trkpt>
      <trkpt lat="47.27736" lon="-2.32658">
        <ele>75</ele>
        <time>2019-09-15T07:29:57Z</time>
      </trkpt>
      <trkpt lat="47.27732" lon="-2.32666">
        <ele>75</ele>
        <time>2019-09-15T07:29:58Z</time>
      </trkpt>
      <trkpt lat="47.27729" lon="-2.32672">
        <ele>74</ele>
        <time>2019-09-15T07:29:59Z</time>
      </trkpt>
      <trkpt lat="47.27725" lon="-2.32679">
        <ele>74</ele>
        <time>2019-09-15T07:30:00Z</time>
      </trkpt>
      <trkpt lat="47.27718" lon="-2.32689">
        <ele>73</ele>
        <time>2019-09-15T07:30:03Z</time>
      </trkpt>
      <trkpt lat="47.27715" lon="-2.32694">
        <ele>73</ele>
        <time>2019-09-15T07:30:04Z</time>
      </trkpt>
      <trkpt lat="47.27712" lon="-2.32701">
        <ele>73</ele>
        <time>2019-09-15T07:30:06Z</time>
      </trkpt>
      <trkpt lat="47.27708" lon="-2.32705">
        <ele>70</ele>
        <time>2019-09-15T07:30:11Z</time>
      </trkpt>
      <trkpt lat="47.27703" lon="-2.32711">
        <ele>69</ele>
        <time>2019-09-15T07:30:13Z</time>
      </trkpt>
      <trkpt lat="47.27699" lon="-2.32718">
        <ele>69</ele>
        <time>2019-09-15T07:30:15Z</time>
      </trkpt>
      <trkpt lat="47.2769" lon="-2.32724">
        <ele>69</ele>
        <time>2019-09-15T07:30:18Z</time>
      </trkpt>
      <trkpt lat="47.27683" lon="-2.32724">
        <ele>69</ele>
        <time>2019-09-15T07:30:22Z</time>
      </trkpt>
      <trkpt lat="47.27673" lon="-2.32718">
        <ele>69</ele>
        <time>2019-09-15T07:30:24Z</time>
      </trkpt>
      <trkpt lat="47.2766" lon="-2.32708">
        <ele>68</ele>
        <time>2019-09-15T07:30:27Z</time>
      </trkpt>
      <trkpt lat="47.27656" lon="-2.32706">
        <ele>68</ele>
        <time>2019-09-15T07:30:28Z</time>
      </trkpt>
      <trkpt lat="47.27649" lon="-2.32702">
        <ele>68</ele>
        <time>2019-09-15T07:30:30Z</time>
      </trkpt>
      <trkpt lat="47.27642" lon="-2.32696">
        <ele>68</ele>
        <time>2019-09-15T07:30:32Z</time>
      </trkpt>
      <trkpt lat="47.27637" lon="-2.32693">
        <ele>69</ele>
        <time>2019-09-15T07:30:33Z</time>
      </trkpt>
      <trkpt lat="47.27628" lon="-2.32691">
        <ele>69</ele>
        <time>2019-09-15T07:30:35Z</time>
      </trkpt>
      <trkpt lat="47.27621" lon="-2.32692">
        <ele>69</ele>
        <time>2019-09-15T07:30:36Z</time>
      </trkpt>
      <trkpt lat="47.27615" lon="-2.32695">
        <ele>69</ele>
        <time>2019-09-15T07:30:37Z</time>
      </trkpt>
      <trkpt lat="47.27608" lon="-2.32698">
        <ele>70</ele>
        <time>2019-09-15T07:30:38Z</time>
      </trkpt>
      <trkpt lat="47.27603" lon="-2.32702">
        <ele>70</ele>
        <time>2019-09-15T07:30:39Z</time>
      </trkpt>
      <trkpt lat="47.27598" lon="-2.32706">
        <ele>71</ele>
        <time>2019-09-15T07:30:40Z</time>
      </trkpt>
      <trkpt lat="47.27592" lon="-2.32717">
        <ele>73</ele>
        <time>2019-09-15T07:30:43Z</time>
      </trkpt>
      <trkpt lat="47.2759" lon="-2.32719">
        <ele>72</ele>
        <time>2019-09-15T07:30:44Z</time>
      </trkpt>
      <trkpt lat="47.27587" lon="-2.32727">
        <ele>73</ele>
        <time>2019-09-15T07:30:47Z</time>
      </trkpt>
      <trkpt lat="47.27586" lon="-2.32738">
        <ele>73</ele>
        <time>2019-09-15T07:30:50Z</time>
      </trkpt>
      <trkpt lat="47.27583" lon="-2.32748">
        <ele>74</ele>
        <time>2019-09-15T07:30:52Z</time>
      </trkpt>
      <trkpt lat="47.27582" lon="-2.32752">
        <ele>74</ele>
        <time>2019-09-15T07:30:53Z</time>
      </trkpt>
      <trkpt lat="47.27579" lon="-2.32763">
        <ele>75</ele>
        <time>2019-09-15T07:30:55Z</time>
      </trkpt>
      <trkpt lat="47.27572" lon="-2.32777">
        <ele>76</ele>
        <time>2019-09-15T07:30:58Z</time>
      </trkpt>
      <trkpt lat="47.2757" lon="-2.32783">
        <ele>76</ele>
        <time>2019-09-15T07:30:59Z</time>
      </trkpt>
      <trkpt lat="47.27569" lon="-2.3279">
        <ele>77</ele>
        <time>2019-09-15T07:31:00Z</time>
      </trkpt>
      <trkpt lat="47.27564" lon="-2.32799">
        <ele>77</ele>
        <time>2019-09-15T07:31:02Z</time>
      </trkpt>
      <trkpt lat="47.27563" lon="-2.32803">
        <ele>77</ele>
        <time>2019-09-15T07:31:03Z</time>
      </trkpt>
      <trkpt lat="47.27557" lon="-2.32815">
        <ele>77</ele>
        <time>2019-09-15T07:31:06Z</time>
      </trkpt>
      <trkpt lat="47.27555" lon="-2.32818">
        <ele>76</ele>
        <time>2019-09-15T07:31:07Z</time>
      </trkpt>
      <trkpt lat="47.2755" lon="-2.32825">
        <ele>77</ele>
        <time>2019-09-15T07:31:09Z</time>
      </trkpt>
      <trkpt lat="47.27547" lon="-2.32828">
        <ele>77</ele>
        <time>2019-09-15T07:31:10Z</time>
      </trkpt>
      <trkpt lat="47.27544" lon="-2.32832">
        <ele>77</ele>
        <time>2019-09-15T07:31:11Z</time>
      </trkpt>
      <trkpt lat="47.27538" lon="-2.32841">
        <ele>76</ele>
        <time>2019-09-15T07:31:13Z</time>
      </trkpt>
      <trkpt lat="47.27535" lon="-2.32846">
        <ele>76</ele>
        <time>2019-09-15T07:31:14Z</time>
      </trkpt>
      <trkpt lat="47.2753" lon="-2.32856">
        <ele>72</ele>
        <time>2019-09-15T07:31:15Z</time>
      </trkpt>
      <trkpt lat="47.27524" lon="-2.32864">
        <ele>72</ele>
        <time>2019-09-15T07:31:18Z</time>
      </trkpt>
      <trkpt lat="47.27521" lon="-2.32869">
        <ele>72</ele>
        <time>2019-09-15T07:31:19Z</time>
      </trkpt>
      <trkpt lat="47.27516" lon="-2.3288">
        <ele>72</ele>
        <time>2019-09-15T07:31:21Z</time>
      </trkpt>
      <trkpt lat="47.27513" lon="-2.32887">
        <ele>72</ele>
        <time>2019-09-15T07:31:22Z</time>
      </trkpt>
      <trkpt lat="47.27511" lon="-2.32893">
        <ele>72</ele>
        <time>2019-09-15T07:31:23Z</time>
      </trkpt>
      <trkpt lat="47.27509" lon="-2.329">
        <ele>71</ele>
        <time>2019-09-15T07:31:24Z</time>
      </trkpt>
      <trkpt lat="47.27507" lon="-2.32906">
        <ele>71</ele>
        <time>2019-09-15T07:31:25Z</time>
      </trkpt>
      <trkpt lat="47.27504" lon="-2.32921">
        <ele>71</ele>
        <time>2019-09-15T07:31:27Z</time>
      </trkpt>
      <trkpt lat="47.27502" lon="-2.32928">
        <ele>71</ele>
        <time>2019-09-15T07:31:28Z</time>
      </trkpt>
      <trkpt lat="47.275" lon="-2.32935">
        <ele>70</ele>
        <time>2019-09-15T07:31:29Z</time>
      </trkpt>
      <trkpt lat="47.27498" lon="-2.32941">
        <ele>70</ele>
        <time>2019-09-15T07:31:30Z</time>
      </trkpt>
      <trkpt lat="47.27497" lon="-2.32948">
        <ele>70</ele>
        <time>2019-09-15T07:31:31Z</time>
      </trkpt>
      <trkpt lat="47.27494" lon="-2.32954">
        <ele>70</ele>
        <time>2019-09-15T07:31:32Z</time>
      </trkpt>
      <trkpt lat="47.27492" lon="-2.3296">
        <ele>70</ele>
        <time>2019-09-15T07:31:33Z</time>
      </trkpt>
      <trkpt lat="47.27489" lon="-2.32967">
        <ele>70</ele>
        <time>2019-09-15T07:31:34Z</time>
      </trkpt>
      <trkpt lat="47.27487" lon="-2.32973">
        <ele>70</ele>
        <time>2019-09-15T07:31:35Z</time>
      </trkpt>
      <trkpt lat="47.27485" lon="-2.32979">
        <ele>70</ele>
        <time>2019-09-15T07:31:36Z</time>
      </trkpt>
      <trkpt lat="47.27483" lon="-2.32986">
        <ele>70</ele>
        <time>2019-09-15T07:31:37Z</time>
      </trkpt>
      <trkpt lat="47.27479" lon="-2.32999">
        <ele>70</ele>
        <time>2019-09-15T07:31:39Z</time>
      </trkpt>
      <trkpt lat="47.27477" lon="-2.33005">
        <ele>70</ele>
        <time>2019-09-15T07:31:40Z</time>
      </trkpt>
      <trkpt lat="47.27475" lon="-2.33011">
        <ele>70</ele>
        <time>2019-09-15T07:31:41Z</time>
      </trkpt>
      <trkpt lat="47.27473" lon="-2.33018">
        <ele>70</ele>
        <time>2019-09-15T07:31:42Z</time>
      </trkpt>
      <trkpt lat="47.27469" lon="-2.33031">
        <ele>70</ele>
        <time>2019-09-15T07:31:44Z</time>
      </trkpt>
      <trkpt lat="47.27468" lon="-2.33037">
        <ele>70</ele>
        <time>2019-09-15T07:31:45Z</time>
      </trkpt>
      <trkpt lat="47.27466" lon="-2.3305">
        <ele>70</ele>
        <time>2019-09-15T07:31:47Z</time>
      </trkpt>
      <trkpt lat="47.27466" lon="-2.33056">
        <ele>70</ele>
        <time>2019-09-15T07:31:48Z</time>
      </trkpt>
      <trkpt lat="47.27466" lon="-2.33063">
        <ele>70</ele>
        <time>2019-09-15T07:31:49Z</time>
      </trkpt>
      <trkpt lat="47.2746" lon="-2.33081">
        <ele>70</ele>
        <time>2019-09-15T07:31:52Z</time>
      </trkpt>
      <trkpt lat="47.27456" lon="-2.33086">
        <ele>70</ele>
        <time>2019-09-15T07:31:53Z</time>
      </trkpt>
      <trkpt lat="47.27453" lon="-2.33091">
        <ele>70</ele>
        <time>2019-09-15T07:31:54Z</time>
      </trkpt>
      <trkpt lat="47.2745" lon="-2.33096">
        <ele>70</ele>
        <time>2019-09-15T07:31:55Z</time>
      </trkpt>
      <trkpt lat="47.27448" lon="-2.33102">
        <ele>71</ele>
        <time>2019-09-15T07:31:56Z</time>
      </trkpt>
      <trkpt lat="47.27447" lon="-2.33109">
        <ele>70</ele>
        <time>2019-09-15T07:31:57Z</time>
      </trkpt>
      <trkpt lat="47.27446" lon="-2.33116">
        <ele>71</ele>
        <time>2019-09-15T07:31:58Z</time>
      </trkpt>
      <trkpt lat="47.27444" lon="-2.33132">
        <ele>71</ele>
        <time>2019-09-15T07:32:00Z</time>
      </trkpt>
      <trkpt lat="47.27442" lon="-2.33139">
        <ele>71</ele>
        <time>2019-09-15T07:32:01Z</time>
      </trkpt>
      <trkpt lat="47.27441" lon="-2.33146">
        <ele>71</ele>
        <time>2019-09-15T07:32:02Z</time>
      </trkpt>
      <trkpt lat="47.2744" lon="-2.33154">
        <ele>71</ele>
        <time>2019-09-15T07:32:03Z</time>
      </trkpt>
      <trkpt lat="47.27439" lon="-2.33161">
        <ele>71</ele>
        <time>2019-09-15T07:32:04Z</time>
      </trkpt>
      <trkpt lat="47.27437" lon="-2.33169">
        <ele>72</ele>
        <time>2019-09-15T07:32:05Z</time>
      </trkpt>
      <trkpt lat="47.27435" lon="-2.33177">
        <ele>72</ele>
        <time>2019-09-15T07:32:06Z</time>
      </trkpt>
      <trkpt lat="47.27433" lon="-2.33184">
        <ele>72</ele>
        <time>2019-09-15T07:32:07Z</time>
      </trkpt>
      <trkpt lat="47.27432" lon="-2.33192">
        <ele>72</ele>
        <time>2019-09-15T07:32:08Z</time>
      </trkpt>
      <trkpt lat="47.2743" lon="-2.332">
        <ele>72</ele>
        <time>2019-09-15T07:32:09Z</time>
      </trkpt>
      <trkpt lat="47.27429" lon="-2.33208">
        <ele>72</ele>
        <time>2019-09-15T07:32:10Z</time>
      </trkpt>
      <trkpt lat="47.27427" lon="-2.33216">
        <ele>72</ele>
        <time>2019-09-15T07:32:11Z</time>
      </trkpt>
      <trkpt lat="47.27423" lon="-2.33231">
        <ele>72</ele>
        <time>2019-09-15T07:32:13Z</time>
      </trkpt>
      <trkpt lat="47.2742" lon="-2.33239">
        <ele>72</ele>
        <time>2019-09-15T07:32:14Z</time>
      </trkpt>
      <trkpt lat="47.27417" lon="-2.33247">
        <ele>73</ele>
        <time>2019-09-15T07:32:15Z</time>
      </trkpt>
      <trkpt lat="47.27414" lon="-2.33255">
        <ele>73</ele>
        <time>2019-09-15T07:32:16Z</time>
      </trkpt>
      <trkpt lat="47.27412" lon="-2.33263">
        <ele>73</ele>
        <time>2019-09-15T07:32:17Z</time>
      </trkpt>
      <trkpt lat="47.27405" lon="-2.3329">
        <ele>73</ele>
        <time>2019-09-15T07:32:20Z</time>
      </trkpt>
      <trkpt lat="47.27403" lon="-2.33308">
        <ele>74</ele>
        <time>2019-09-15T07:32:22Z</time>
      </trkpt>
      <trkpt lat="47.27404" lon="-2.33337">
        <ele>74</ele>
        <time>2019-09-15T07:32:25Z</time>
      </trkpt>
      <trkpt lat="47.27406" lon="-2.33347">
        <ele>74</ele>
        <time>2019-09-15T07:32:26Z</time>
      </trkpt>
      <trkpt lat="47.27409" lon="-2.33356">
        <ele>74</ele>
        <time>2019-09-15T07:32:27Z</time>
      </trkpt>
      <trkpt lat="47.27411" lon="-2.33366">
        <ele>73</ele>
        <time>2019-09-15T07:32:28Z</time>
      </trkpt>
      <trkpt lat="47.27414" lon="-2.33375">
        <ele>73</ele>
        <time>2019-09-15T07:32:29Z</time>
      </trkpt>
      <trkpt lat="47.27416" lon="-2.33383">
        <ele>73</ele>
        <time>2019-09-15T07:32:30Z</time>
      </trkpt>
      <trkpt lat="47.27418" lon="-2.33392">
        <ele>73</ele>
        <time>2019-09-15T07:32:31Z</time>
      </trkpt>
      <trkpt lat="47.27421" lon="-2.334">
        <ele>73</ele>
        <time>2019-09-15T07:32:32Z</time>
      </trkpt>
      <trkpt lat="47.27424" lon="-2.33409">
        <ele>73</ele>
        <time>2019-09-15T07:32:33Z</time>
      </trkpt>
      <trkpt lat="47.27427" lon="-2.33416">
        <ele>73</ele>
        <time>2019-09-15T07:32:34Z</time>
      </trkpt>
      <trkpt lat="47.2743" lon="-2.33424">
        <ele>74</ele>
        <time>2019-09-15T07:32:35Z</time>
      </trkpt>
      <trkpt lat="47.27434" lon="-2.33431">
        <ele>73</ele>
        <time>2019-09-15T07:32:36Z</time>
      </trkpt>
      <trkpt lat="47.27437" lon="-2.33437">
        <ele>73</ele>
        <time>2019-09-15T07:32:37Z</time>
      </trkpt>
      <trkpt lat="47.27442" lon="-2.33442">
        <ele>73</ele>
        <time>2019-09-15T07:32:38Z</time>
      </trkpt>
      <trkpt lat="47.27447" lon="-2.33445">
        <ele>73</ele>
        <time>2019-09-15T07:32:39Z</time>
      </trkpt>
      <trkpt lat="47.27452" lon="-2.33448">
        <ele>73</ele>
        <time>2019-09-15T07:32:40Z</time>
      </trkpt>
      <trkpt lat="47.27462" lon="-2.33453">
        <ele>73</ele>
        <time>2019-09-15T07:32:42Z</time>
      </trkpt>
      <trkpt lat="47.27467" lon="-2.33458">
        <ele>72</ele>
        <time>2019-09-15T07:32:43Z</time>
      </trkpt>
      <trkpt lat="47.27471" lon="-2.33463">
        <ele>72</ele>
        <time>2019-09-15T07:32:44Z</time>
      </trkpt>
      <trkpt lat="47.27475" lon="-2.3347">
        <ele>73</ele>
        <time>2019-09-15T07:32:45Z</time>
      </trkpt>
      <trkpt lat="47.2748" lon="-2.33476">
        <ele>73</ele>
        <time>2019-09-15T07:32:46Z</time>
      </trkpt>
      <trkpt lat="47.27485" lon="-2.3348">
        <ele>73</ele>
        <time>2019-09-15T07:32:47Z</time>
      </trkpt>
      <trkpt lat="47.27491" lon="-2.33482">
        <ele>73</ele>
        <time>2019-09-15T07:32:48Z</time>
      </trkpt>
      <trkpt lat="47.27497" lon="-2.33484">
        <ele>73</ele>
        <time>2019-09-15T07:32:49Z</time>
      </trkpt>
      <trkpt lat="47.27502" lon="-2.33487">
        <ele>73</ele>
        <time>2019-09-15T07:32:50Z</time>
      </trkpt>
      <trkpt lat="47.27508" lon="-2.3349">
        <ele>73</ele>
        <time>2019-09-15T07:32:51Z</time>
      </trkpt>
      <trkpt lat="47.27514" lon="-2.33493">
        <ele>74</ele>
        <time>2019-09-15T07:32:52Z</time>
      </trkpt>
      <trkpt lat="47.27526" lon="-2.33497">
        <ele>74</ele>
        <time>2019-09-15T07:32:54Z</time>
      </trkpt>
      <trkpt lat="47.27531" lon="-2.33499">
        <ele>74</ele>
        <time>2019-09-15T07:32:55Z</time>
      </trkpt>
      <trkpt lat="47.27537" lon="-2.33502">
        <ele>73</ele>
        <time>2019-09-15T07:32:56Z</time>
      </trkpt>
      <trkpt lat="47.27543" lon="-2.33504">
        <ele>74</ele>
        <time>2019-09-15T07:32:57Z</time>
      </trkpt>
      <trkpt lat="47.27549" lon="-2.33507">
        <ele>74</ele>
        <time>2019-09-15T07:32:58Z</time>
      </trkpt>
      <trkpt lat="47.27554" lon="-2.33508">
        <ele>74</ele>
        <time>2019-09-15T07:32:59Z</time>
      </trkpt>
      <trkpt lat="47.2756" lon="-2.3351">
        <ele>74</ele>
        <time>2019-09-15T07:33:00Z</time>
      </trkpt>
      <trkpt lat="47.27566" lon="-2.33513">
        <ele>74</ele>
        <time>2019-09-15T07:33:01Z</time>
      </trkpt>
      <trkpt lat="47.27572" lon="-2.33515">
        <ele>74</ele>
        <time>2019-09-15T07:33:02Z</time>
      </trkpt>
      <trkpt lat="47.27583" lon="-2.33522">
        <ele>74</ele>
        <time>2019-09-15T07:33:04Z</time>
      </trkpt>
      <trkpt lat="47.27589" lon="-2.33524">
        <ele>75</ele>
        <time>2019-09-15T07:33:05Z</time>
      </trkpt>
      <trkpt lat="47.27595" lon="-2.33527">
        <ele>76</ele>
        <time>2019-09-15T07:33:06Z</time>
      </trkpt>
      <trkpt lat="47.27601" lon="-2.33532">
        <ele>76</ele>
        <time>2019-09-15T07:33:07Z</time>
      </trkpt>
      <trkpt lat="47.27607" lon="-2.33537">
        <ele>76</ele>
        <time>2019-09-15T07:33:08Z</time>
      </trkpt>
      <trkpt lat="47.27612" lon="-2.33543">
        <ele>76</ele>
        <time>2019-09-15T07:33:09Z</time>
      </trkpt>
      <trkpt lat="47.27628" lon="-2.33562">
        <ele>76</ele>
        <time>2019-09-15T07:33:12Z</time>
      </trkpt>
      <trkpt lat="47.27633" lon="-2.33569">
        <ele>76</ele>
        <time>2019-09-15T07:33:13Z</time>
      </trkpt>
      <trkpt lat="47.27638" lon="-2.33577">
        <ele>76</ele>
        <time>2019-09-15T07:33:14Z</time>
      </trkpt>
      <trkpt lat="47.27643" lon="-2.33585">
        <ele>75</ele>
        <time>2019-09-15T07:33:15Z</time>
      </trkpt>
      <trkpt lat="47.27651" lon="-2.33601">
        <ele>75</ele>
        <time>2019-09-15T07:33:17Z</time>
      </trkpt>
      <trkpt lat="47.27655" lon="-2.3361">
        <ele>74</ele>
        <time>2019-09-15T07:33:18Z</time>
      </trkpt>
      <trkpt lat="47.27659" lon="-2.33619">
        <ele>74</ele>
        <time>2019-09-15T07:33:19Z</time>
      </trkpt>
      <trkpt lat="47.27662" lon="-2.33628">
        <ele>74</ele>
        <time>2019-09-15T07:33:20Z</time>
      </trkpt>
      <trkpt lat="47.27666" lon="-2.33637">
        <ele>74</ele>
        <time>2019-09-15T07:33:21Z</time>
      </trkpt>
      <trkpt lat="47.27669" lon="-2.33646">
        <ele>74</ele>
        <time>2019-09-15T07:33:22Z</time>
      </trkpt>
      <trkpt lat="47.27673" lon="-2.33655">
        <ele>73</ele>
        <time>2019-09-15T07:33:23Z</time>
      </trkpt>
      <trkpt lat="47.27677" lon="-2.33664">
        <ele>74</ele>
        <time>2019-09-15T07:33:24Z</time>
      </trkpt>
      <trkpt lat="47.2768" lon="-2.33672">
        <ele>74</ele>
        <time>2019-09-15T07:33:25Z</time>
      </trkpt>
      <trkpt lat="47.27684" lon="-2.33681">
        <ele>73</ele>
        <time>2019-09-15T07:33:26Z</time>
      </trkpt>
      <trkpt lat="47.27688" lon="-2.3369">
        <ele>73</ele>
        <time>2019-09-15T07:33:27Z</time>
      </trkpt>
      <trkpt lat="47.27691" lon="-2.33699">
        <ele>73</ele>
        <time>2019-09-15T07:33:28Z</time>
      </trkpt>
      <trkpt lat="47.27703" lon="-2.33723">
        <ele>73</ele>
        <time>2019-09-15T07:33:31Z</time>
      </trkpt>
      <trkpt lat="47.27708" lon="-2.33729">
        <ele>73</ele>
        <time>2019-09-15T07:33:32Z</time>
      </trkpt>
      <trkpt lat="47.27713" lon="-2.33734">
        <ele>73</ele>
        <time>2019-09-15T07:33:33Z</time>
      </trkpt>
      <trkpt lat="47.27717" lon="-2.33741">
        <ele>73</ele>
        <time>2019-09-15T07:33:34Z</time>
      </trkpt>
      <trkpt lat="47.27719" lon="-2.3375">
        <ele>73</ele>
        <time>2019-09-15T07:33:35Z</time>
      </trkpt>
      <trkpt lat="47.27719" lon="-2.33759">
        <ele>73</ele>
        <time>2019-09-15T07:33:36Z</time>
      </trkpt>
      <trkpt lat="47.27719" lon="-2.33769">
        <ele>72</ele>
        <time>2019-09-15T07:33:37Z</time>
      </trkpt>
      <trkpt lat="47.27727" lon="-2.33806">
        <ele>72</ele>
        <time>2019-09-15T07:33:41Z</time>
      </trkpt>
      <trkpt lat="47.27731" lon="-2.33815">
        <ele>72</ele>
        <time>2019-09-15T07:33:42Z</time>
      </trkpt>
      <trkpt lat="47.27734" lon="-2.33824">
        <ele>72</ele>
        <time>2019-09-15T07:33:43Z</time>
      </trkpt>
      <trkpt lat="47.27738" lon="-2.33832">
        <ele>71</ele>
        <time>2019-09-15T07:33:44Z</time>
      </trkpt>
      <trkpt lat="47.27741" lon="-2.33842">
        <ele>71</ele>
        <time>2019-09-15T07:33:45Z</time>
      </trkpt>
      <trkpt lat="47.27751" lon="-2.33869">
        <ele>72</ele>
        <time>2019-09-15T07:33:48Z</time>
      </trkpt>
      <trkpt lat="47.27757" lon="-2.33887">
        <ele>72</ele>
        <time>2019-09-15T07:33:50Z</time>
      </trkpt>
      <trkpt lat="47.2776" lon="-2.33896">
        <ele>72</ele>
        <time>2019-09-15T07:33:51Z</time>
      </trkpt>
      <trkpt lat="47.27763" lon="-2.33905">
        <ele>72</ele>
        <time>2019-09-15T07:33:52Z</time>
      </trkpt>
      <trkpt lat="47.27765" lon="-2.33914">
        <ele>73</ele>
        <time>2019-09-15T07:33:53Z</time>
      </trkpt>
      <trkpt lat="47.27776" lon="-2.33951">
        <ele>73</ele>
        <time>2019-09-15T07:33:57Z</time>
      </trkpt>
      <trkpt lat="47.27778" lon="-2.33959">
        <ele>73</ele>
        <time>2019-09-15T07:33:58Z</time>
      </trkpt>
      <trkpt lat="47.2778" lon="-2.33968">
        <ele>73</ele>
        <time>2019-09-15T07:33:59Z</time>
      </trkpt>
      <trkpt lat="47.27783" lon="-2.33977">
        <ele>73</ele>
        <time>2019-09-15T07:34:00Z</time>
      </trkpt>
      <trkpt lat="47.27785" lon="-2.33986">
        <ele>73</ele>
        <time>2019-09-15T07:34:01Z</time>
      </trkpt>
      <trkpt lat="47.27786" lon="-2.33994">
        <ele>73</ele>
        <time>2019-09-15T07:34:02Z</time>
      </trkpt>
      <trkpt lat="47.27789" lon="-2.34003">
        <ele>73</ele>
        <time>2019-09-15T07:34:03Z</time>
      </trkpt>
      <trkpt lat="47.27791" lon="-2.3401">
        <ele>73</ele>
        <time>2019-09-15T07:34:04Z</time>
      </trkpt>
      <trkpt lat="47.27789" lon="-2.34025">
        <ele>73</ele>
        <time>2019-09-15T07:34:06Z</time>
      </trkpt>
      <trkpt lat="47.27785" lon="-2.34032">
        <ele>72</ele>
        <time>2019-09-15T07:34:07Z</time>
      </trkpt>
      <trkpt lat="47.27781" lon="-2.34039">
        <ele>72</ele>
        <time>2019-09-15T07:34:08Z</time>
      </trkpt>
      <trkpt lat="47.27778" lon="-2.34046">
        <ele>72</ele>
        <time>2019-09-15T07:34:09Z</time>
      </trkpt>
      <trkpt lat="47.27776" lon="-2.34054">
        <ele>72</ele>
        <time>2019-09-15T07:34:10Z</time>
      </trkpt>
      <trkpt lat="47.27776" lon="-2.34062">
        <ele>72</ele>
        <time>2019-09-15T07:34:11Z</time>
      </trkpt>
      <trkpt lat="47.27779" lon="-2.34078">
        <ele>72</ele>
        <time>2019-09-15T07:34:13Z</time>
      </trkpt>
      <trkpt lat="47.27783" lon="-2.34085">
        <ele>73</ele>
        <time>2019-09-15T07:34:14Z</time>
      </trkpt>
      <trkpt lat="47.27787" lon="-2.34091">
        <ele>72</ele>
        <time>2019-09-15T07:34:15Z</time>
      </trkpt>
      <trkpt lat="47.27791" lon="-2.34097">
        <ele>72</ele>
        <time>2019-09-15T07:34:16Z</time>
      </trkpt>
      <trkpt lat="47.27796" lon="-2.34102">
        <ele>73</ele>
        <time>2019-09-15T07:34:17Z</time>
      </trkpt>
      <trkpt lat="47.27801" lon="-2.34109">
        <ele>73</ele>
        <time>2019-09-15T07:34:18Z</time>
      </trkpt>
      <trkpt lat="47.27805" lon="-2.34115">
        <ele>73</ele>
        <time>2019-09-15T07:34:19Z</time>
      </trkpt>
      <trkpt lat="47.2781" lon="-2.34121">
        <ele>73</ele>
        <time>2019-09-15T07:34:20Z</time>
      </trkpt>
      <trkpt lat="47.27815" lon="-2.34127">
        <ele>73</ele>
        <time>2019-09-15T07:34:21Z</time>
      </trkpt>
      <trkpt lat="47.2782" lon="-2.34132">
        <ele>73</ele>
        <time>2019-09-15T07:34:22Z</time>
      </trkpt>
      <trkpt lat="47.27825" lon="-2.34137">
        <ele>73</ele>
        <time>2019-09-15T07:34:23Z</time>
      </trkpt>
      <trkpt lat="47.27838" lon="-2.34155">
        <ele>72</ele>
        <time>2019-09-15T07:34:26Z</time>
      </trkpt>
      <trkpt lat="47.27843" lon="-2.34162">
        <ele>72</ele>
        <time>2019-09-15T07:34:27Z</time>
      </trkpt>
      <trkpt lat="47.27846" lon="-2.3417">
        <ele>73</ele>
        <time>2019-09-15T07:34:28Z</time>
      </trkpt>
      <trkpt lat="47.27849" lon="-2.34178">
        <ele>73</ele>
        <time>2019-09-15T07:34:29Z</time>
      </trkpt>
      <trkpt lat="47.27853" lon="-2.34186">
        <ele>73</ele>
        <time>2019-09-15T07:34:30Z</time>
      </trkpt>
      <trkpt lat="47.27856" lon="-2.34194">
        <ele>73</ele>
        <time>2019-09-15T07:34:31Z</time>
      </trkpt>
      <trkpt lat="47.2786" lon="-2.34201">
        <ele>73</ele>
        <time>2019-09-15T07:34:32Z</time>
      </trkpt>
      <trkpt lat="47.27863" lon="-2.34209">
        <ele>73</ele>
        <time>2019-09-15T07:34:33Z</time>
      </trkpt>
      <trkpt lat="47.27866" lon="-2.34216">
        <ele>73</ele>
        <time>2019-09-15T07:34:34Z</time>
      </trkpt>
      <trkpt lat="47.2787" lon="-2.34223">
        <ele>73</ele>
        <time>2019-09-15T07:34:35Z</time>
      </trkpt>
      <trkpt lat="47.2788" lon="-2.34243">
        <ele>73</ele>
        <time>2019-09-15T07:34:38Z</time>
      </trkpt>
      <trkpt lat="47.27884" lon="-2.34249">
        <ele>73</ele>
        <time>2019-09-15T07:34:39Z</time>
      </trkpt>
      <trkpt lat="47.27887" lon="-2.34256">
        <ele>73</ele>
        <time>2019-09-15T07:34:40Z</time>
      </trkpt>
      <trkpt lat="47.27891" lon="-2.34262">
        <ele>73</ele>
        <time>2019-09-15T07:34:41Z</time>
      </trkpt>
      <trkpt lat="47.27895" lon="-2.34268">
        <ele>73</ele>
        <time>2019-09-15T07:34:42Z</time>
      </trkpt>
      <trkpt lat="47.27899" lon="-2.34275">
        <ele>74</ele>
        <time>2019-09-15T07:34:43Z</time>
      </trkpt>
      <trkpt lat="47.27903" lon="-2.34282">
        <ele>74</ele>
        <time>2019-09-15T07:34:44Z</time>
      </trkpt>
      <trkpt lat="47.27907" lon="-2.34288">
        <ele>73</ele>
        <time>2019-09-15T07:34:45Z</time>
      </trkpt>
      <trkpt lat="47.27911" lon="-2.34296">
        <ele>73</ele>
        <time>2019-09-15T07:34:46Z</time>
      </trkpt>
      <trkpt lat="47.27914" lon="-2.34303">
        <ele>73</ele>
        <time>2019-09-15T07:34:47Z</time>
      </trkpt>
      <trkpt lat="47.27918" lon="-2.3431">
        <ele>73</ele>
        <time>2019-09-15T07:34:48Z</time>
      </trkpt>
      <trkpt lat="47.27921" lon="-2.34317">
        <ele>73</ele>
        <time>2019-09-15T07:34:49Z</time>
      </trkpt>
      <trkpt lat="47.27928" lon="-2.34332">
        <ele>72</ele>
        <time>2019-09-15T07:34:51Z</time>
      </trkpt>
      <trkpt lat="47.27931" lon="-2.3434">
        <ele>72</ele>
        <time>2019-09-15T07:34:52Z</time>
      </trkpt>
      <trkpt lat="47.27935" lon="-2.34347">
        <ele>72</ele>
        <time>2019-09-15T07:34:53Z</time>
      </trkpt>
      <trkpt lat="47.27938" lon="-2.34353">
        <ele>72</ele>
        <time>2019-09-15T07:34:54Z</time>
      </trkpt>
      <trkpt lat="47.27942" lon="-2.3436">
        <ele>72</ele>
        <time>2019-09-15T07:34:55Z</time>
      </trkpt>
      <trkpt lat="47.27947" lon="-2.34367">
        <ele>72</ele>
        <time>2019-09-15T07:34:56Z</time>
      </trkpt>
      <trkpt lat="47.27951" lon="-2.34373">
        <ele>72</ele>
        <time>2019-09-15T07:34:57Z</time>
      </trkpt>
      <trkpt lat="47.27955" lon="-2.34379">
        <ele>72</ele>
        <time>2019-09-15T07:34:58Z</time>
      </trkpt>
      <trkpt lat="47.2796" lon="-2.34386">
        <ele>72</ele>
        <time>2019-09-15T07:34:59Z</time>
      </trkpt>
      <trkpt lat="47.27965" lon="-2.34392">
        <ele>72</ele>
        <time>2019-09-15T07:35:00Z</time>
      </trkpt>
      <trkpt lat="47.27969" lon="-2.34398">
        <ele>73</ele>
        <time>2019-09-15T07:35:01Z</time>
      </trkpt>
      <trkpt lat="47.27973" lon="-2.34404">
        <ele>73</ele>
        <time>2019-09-15T07:35:02Z</time>
      </trkpt>
      <trkpt lat="47.27977" lon="-2.3441">
        <ele>73</ele>
        <time>2019-09-15T07:35:03Z</time>
      </trkpt>
      <trkpt lat="47.27985" lon="-2.3442">
        <ele>73</ele>
        <time>2019-09-15T07:35:05Z</time>
      </trkpt>
      <trkpt lat="47.27989" lon="-2.34426">
        <ele>74</ele>
        <time>2019-09-15T07:35:06Z</time>
      </trkpt>
      <trkpt lat="47.27994" lon="-2.34432">
        <ele>74</ele>
        <time>2019-09-15T07:35:07Z</time>
      </trkpt>
      <trkpt lat="47.27998" lon="-2.34439">
        <ele>73</ele>
        <time>2019-09-15T07:35:08Z</time>
      </trkpt>
      <trkpt lat="47.28002" lon="-2.34457">
        <ele>72</ele>
        <time>2019-09-15T07:35:10Z</time>
      </trkpt>
      <trkpt lat="47.28002" lon="-2.34468">
        <ele>72</ele>
        <time>2019-09-15T07:35:11Z</time>
      </trkpt>
      <trkpt lat="47.27999" lon="-2.34478">
        <ele>73</ele>
        <time>2019-09-15T07:35:12Z</time>
      </trkpt>
      <trkpt lat="47.27993" lon="-2.34498">
        <ele>72</ele>
        <time>2019-09-15T07:35:14Z</time>
      </trkpt>
      <trkpt lat="47.27989" lon="-2.34507">
        <ele>72</ele>
        <time>2019-09-15T07:35:15Z</time>
      </trkpt>
      <trkpt lat="47.27985" lon="-2.34517">
        <ele>72</ele>
        <time>2019-09-15T07:35:16Z</time>
      </trkpt>
      <trkpt lat="47.27981" lon="-2.34526">
        <ele>72</ele>
        <time>2019-09-15T07:35:17Z</time>
      </trkpt>
      <trkpt lat="47.27975" lon="-2.34556">
        <ele>72</ele>
        <time>2019-09-15T07:35:20Z</time>
      </trkpt>
      <trkpt lat="47.27975" lon="-2.34565">
        <ele>72</ele>
        <time>2019-09-15T07:35:21Z</time>
      </trkpt>
      <trkpt lat="47.27978" lon="-2.34576">
        <ele>72</ele>
        <time>2019-09-15T07:35:22Z</time>
      </trkpt>
      <trkpt lat="47.27981" lon="-2.34585">
        <ele>72</ele>
        <time>2019-09-15T07:35:23Z</time>
      </trkpt>
      <trkpt lat="47.27984" lon="-2.34594">
        <ele>72</ele>
        <time>2019-09-15T07:35:24Z</time>
      </trkpt>
      <trkpt lat="47.27987" lon="-2.34603">
        <ele>72</ele>
        <time>2019-09-15T07:35:25Z</time>
      </trkpt>
      <trkpt lat="47.2799" lon="-2.34612">
        <ele>71</ele>
        <time>2019-09-15T07:35:26Z</time>
      </trkpt>
      <trkpt lat="47.27993" lon="-2.34622">
        <ele>71</ele>
        <time>2019-09-15T07:35:27Z</time>
      </trkpt>
      <trkpt lat="47.27995" lon="-2.34633">
        <ele>71</ele>
        <time>2019-09-15T07:35:28Z</time>
      </trkpt>
      <trkpt lat="47.27998" lon="-2.34653">
        <ele>71</ele>
        <time>2019-09-15T07:35:30Z</time>
      </trkpt>
      <trkpt lat="47.28" lon="-2.34663">
        <ele>71</ele>
        <time>2019-09-15T07:35:31Z</time>
      </trkpt>
      <trkpt lat="47.28001" lon="-2.34674">
        <ele>71</ele>
        <time>2019-09-15T07:35:32Z</time>
      </trkpt>
      <trkpt lat="47.28002" lon="-2.34684">
        <ele>71</ele>
        <time>2019-09-15T07:35:33Z</time>
      </trkpt>
      <trkpt lat="47.28003" lon="-2.34694">
        <ele>71</ele>
        <time>2019-09-15T07:35:34Z</time>
      </trkpt>
      <trkpt lat="47.28004" lon="-2.34705">
        <ele>71</ele>
        <time>2019-09-15T07:35:35Z</time>
      </trkpt>
      <trkpt lat="47.28004" lon="-2.34716">
        <ele>70</ele>
        <time>2019-09-15T07:35:36Z</time>
      </trkpt>
      <trkpt lat="47.28004" lon="-2.34726">
        <ele>70</ele>
        <time>2019-09-15T07:35:37Z</time>
      </trkpt>
      <trkpt lat="47.28004" lon="-2.34738">
        <ele>70</ele>
        <time>2019-09-15T07:35:38Z</time>
      </trkpt>
      <trkpt lat="47.28005" lon="-2.34749">
        <ele>71</ele>
        <time>2019-09-15T07:35:39Z</time>
      </trkpt>
      <trkpt lat="47.28006" lon="-2.34759">
        <ele>70</ele>
        <time>2019-09-15T07:35:40Z</time>
      </trkpt>
      <trkpt lat="47.28009" lon="-2.34769">
        <ele>71</ele>
        <time>2019-09-15T07:35:41Z</time>
      </trkpt>
      <trkpt lat="47.28012" lon="-2.34779">
        <ele>71</ele>
        <time>2019-09-15T07:35:42Z</time>
      </trkpt>
      <trkpt lat="47.28017" lon="-2.34788">
        <ele>71</ele>
        <time>2019-09-15T07:35:43Z</time>
      </trkpt>
      <trkpt lat="47.2802" lon="-2.34797">
        <ele>71</ele>
        <time>2019-09-15T07:35:44Z</time>
      </trkpt>
      <trkpt lat="47.28024" lon="-2.34807">
        <ele>71</ele>
        <time>2019-09-15T07:35:45Z</time>
      </trkpt>
      <trkpt lat="47.28028" lon="-2.34817">
        <ele>71</ele>
        <time>2019-09-15T07:35:46Z</time>
      </trkpt>
      <trkpt lat="47.28031" lon="-2.34826">
        <ele>71</ele>
        <time>2019-09-15T07:35:47Z</time>
      </trkpt>
      <trkpt lat="47.28035" lon="-2.34835">
        <ele>71</ele>
        <time>2019-09-15T07:35:48Z</time>
      </trkpt>
      <trkpt lat="47.28038" lon="-2.34845">
        <ele>70</ele>
        <time>2019-09-15T07:35:49Z</time>
      </trkpt>
      <trkpt lat="47.28042" lon="-2.34854">
        <ele>69</ele>
        <time>2019-09-15T07:35:50Z</time>
      </trkpt>
      <trkpt lat="47.28045" lon="-2.34864">
        <ele>69</ele>
        <time>2019-09-15T07:35:51Z</time>
      </trkpt>
      <trkpt lat="47.28047" lon="-2.34875">
        <ele>69</ele>
        <time>2019-09-15T07:35:52Z</time>
      </trkpt>
      <trkpt lat="47.2805" lon="-2.34885">
        <ele>69</ele>
        <time>2019-09-15T07:35:53Z</time>
      </trkpt>
      <trkpt lat="47.28053" lon="-2.34896">
        <ele>68</ele>
        <time>2019-09-15T07:35:54Z</time>
      </trkpt>
      <trkpt lat="47.28055" lon="-2.34907">
        <ele>68</ele>
        <time>2019-09-15T07:35:55Z</time>
      </trkpt>
      <trkpt lat="47.28059" lon="-2.34929">
        <ele>68</ele>
        <time>2019-09-15T07:35:57Z</time>
      </trkpt>
      <trkpt lat="47.28061" lon="-2.34939">
        <ele>68</ele>
        <time>2019-09-15T07:35:58Z</time>
      </trkpt>
      <trkpt lat="47.28062" lon="-2.3495">
        <ele>68</ele>
        <time>2019-09-15T07:35:59Z</time>
      </trkpt>
      <trkpt lat="47.28065" lon="-2.34961">
        <ele>68</ele>
        <time>2019-09-15T07:36:00Z</time>
      </trkpt>
      <trkpt lat="47.28068" lon="-2.34972">
        <ele>69</ele>
        <time>2019-09-15T07:36:01Z</time>
      </trkpt>
      <trkpt lat="47.28073" lon="-2.34982">
        <ele>69</ele>
        <time>2019-09-15T07:36:02Z</time>
      </trkpt>
      <trkpt lat="47.28078" lon="-2.34992">
        <ele>69</ele>
        <time>2019-09-15T07:36:03Z</time>
      </trkpt>
      <trkpt lat="47.28093" lon="-2.35018">
        <ele>68</ele>
        <time>2019-09-15T07:36:06Z</time>
      </trkpt>
      <trkpt lat="47.28097" lon="-2.35027">
        <ele>68</ele>
        <time>2019-09-15T07:36:07Z</time>
      </trkpt>
      <trkpt lat="47.28102" lon="-2.35036">
        <ele>68</ele>
        <time>2019-09-15T07:36:08Z</time>
      </trkpt>
      <trkpt lat="47.28107" lon="-2.35045">
        <ele>68</ele>
        <time>2019-09-15T07:36:09Z</time>
      </trkpt>
      <trkpt lat="47.28111" lon="-2.35053">
        <ele>68</ele>
        <time>2019-09-15T07:36:10Z</time>
      </trkpt>
      <trkpt lat="47.28115" lon="-2.35062">
        <ele>68</ele>
        <time>2019-09-15T07:36:11Z</time>
      </trkpt>
      <trkpt lat="47.2812" lon="-2.3507">
        <ele>68</ele>
        <time>2019-09-15T07:36:12Z</time>
      </trkpt>
      <trkpt lat="47.28125" lon="-2.35078">
        <ele>68</ele>
        <time>2019-09-15T07:36:13Z</time>
      </trkpt>
      <trkpt lat="47.28129" lon="-2.35086">
        <ele>68</ele>
        <time>2019-09-15T07:36:14Z</time>
      </trkpt>
      <trkpt lat="47.2814" lon="-2.35099">
        <ele>69</ele>
        <time>2019-09-15T07:36:16Z</time>
      </trkpt>
      <trkpt lat="47.28145" lon="-2.35104">
        <ele>69</ele>
        <time>2019-09-15T07:36:17Z</time>
      </trkpt>
      <trkpt lat="47.2815" lon="-2.3511">
        <ele>69</ele>
        <time>2019-09-15T07:36:18Z</time>
      </trkpt>
      <trkpt lat="47.28156" lon="-2.35116">
        <ele>69</ele>
        <time>2019-09-15T07:36:19Z</time>
      </trkpt>
      <trkpt lat="47.28165" lon="-2.35126">
        <ele>69</ele>
        <time>2019-09-15T07:36:21Z</time>
      </trkpt>
      <trkpt lat="47.28171" lon="-2.35133">
        <ele>68</ele>
        <time>2019-09-15T07:36:22Z</time>
      </trkpt>
      <trkpt lat="47.28175" lon="-2.3514">
        <ele>68</ele>
        <time>2019-09-15T07:36:23Z</time>
      </trkpt>
      <trkpt lat="47.28183" lon="-2.35154">
        <ele>68</ele>
        <time>2019-09-15T07:36:25Z</time>
      </trkpt>
      <trkpt lat="47.28187" lon="-2.35162">
        <ele>68</ele>
        <time>2019-09-15T07:36:26Z</time>
      </trkpt>
      <trkpt lat="47.2819" lon="-2.35169">
        <ele>69</ele>
        <time>2019-09-15T07:36:27Z</time>
      </trkpt>
      <trkpt lat="47.28193" lon="-2.35175">
        <ele>68</ele>
        <time>2019-09-15T07:36:28Z</time>
      </trkpt>
      <trkpt lat="47.28197" lon="-2.35181">
        <ele>68</ele>
        <time>2019-09-15T07:36:29Z</time>
      </trkpt>
      <trkpt lat="47.28201" lon="-2.35187">
        <ele>69</ele>
        <time>2019-09-15T07:36:30Z</time>
      </trkpt>
      <trkpt lat="47.28212" lon="-2.35206">
        <ele>69</ele>
        <time>2019-09-15T07:36:33Z</time>
      </trkpt>
      <trkpt lat="47.28215" lon="-2.35212">
        <ele>69</ele>
        <time>2019-09-15T07:36:34Z</time>
      </trkpt>
      <trkpt lat="47.28217" lon="-2.35217">
        <ele>69</ele>
        <time>2019-09-15T07:36:35Z</time>
      </trkpt>
      <trkpt lat="47.28221" lon="-2.35222">
        <ele>69</ele>
        <time>2019-09-15T07:36:36Z</time>
      </trkpt>
      <trkpt lat="47.28229" lon="-2.3524">
        <ele>70</ele>
        <time>2019-09-15T07:36:39Z</time>
      </trkpt>
      <trkpt lat="47.28233" lon="-2.35245">
        <ele>70</ele>
        <time>2019-09-15T07:36:40Z</time>
      </trkpt>
      <trkpt lat="47.28236" lon="-2.35248">
        <ele>70</ele>
        <time>2019-09-15T07:36:41Z</time>
      </trkpt>
      <trkpt lat="47.28245" lon="-2.35248">
        <ele>71</ele>
        <time>2019-09-15T07:36:43Z</time>
      </trkpt>
      <trkpt lat="47.2825" lon="-2.35244">
        <ele>72</ele>
        <time>2019-09-15T07:36:44Z</time>
      </trkpt>
      <trkpt lat="47.28255" lon="-2.3524">
        <ele>72</ele>
        <time>2019-09-15T07:36:45Z</time>
      </trkpt>
      <trkpt lat="47.2826" lon="-2.35236">
        <ele>73</ele>
        <time>2019-09-15T07:36:46Z</time>
      </trkpt>
      <trkpt lat="47.28264" lon="-2.35232">
        <ele>73</ele>
        <time>2019-09-15T07:36:47Z</time>
      </trkpt>
      <trkpt lat="47.28268" lon="-2.35229">
        <ele>73</ele>
        <time>2019-09-15T07:36:48Z</time>
      </trkpt>
      <trkpt lat="47.28274" lon="-2.35228">
        <ele>73</ele>
        <time>2019-09-15T07:36:49Z</time>
      </trkpt>
      <trkpt lat="47.28278" lon="-2.3523">
        <ele>73</ele>
        <time>2019-09-15T07:36:50Z</time>
      </trkpt>
      <trkpt lat="47.28282" lon="-2.35235">
        <ele>73</ele>
        <time>2019-09-15T07:36:51Z</time>
      </trkpt>
      <trkpt lat="47.28285" lon="-2.35241">
        <ele>73</ele>
        <time>2019-09-15T07:36:52Z</time>
      </trkpt>
      <trkpt lat="47.28287" lon="-2.35248">
        <ele>73</ele>
        <time>2019-09-15T07:36:53Z</time>
      </trkpt>
      <trkpt lat="47.28289" lon="-2.35255">
        <ele>73</ele>
        <time>2019-09-15T07:36:54Z</time>
      </trkpt>
      <trkpt lat="47.28292" lon="-2.35262">
        <ele>73</ele>
        <time>2019-09-15T07:36:55Z</time>
      </trkpt>
      <trkpt lat="47.28294" lon="-2.35269">
        <ele>73</ele>
        <time>2019-09-15T07:36:56Z</time>
      </trkpt>
      <trkpt lat="47.28296" lon="-2.35276">
        <ele>73</ele>
        <time>2019-09-15T07:36:57Z</time>
      </trkpt>
      <trkpt lat="47.28299" lon="-2.35283">
        <ele>73</ele>
        <time>2019-09-15T07:36:58Z</time>
      </trkpt>
      <trkpt lat="47.28301" lon="-2.3529">
        <ele>73</ele>
        <time>2019-09-15T07:36:59Z</time>
      </trkpt>
      <trkpt lat="47.28303" lon="-2.35297">
        <ele>73</ele>
        <time>2019-09-15T07:37:00Z</time>
      </trkpt>
      <trkpt lat="47.28307" lon="-2.35303">
        <ele>73</ele>
        <time>2019-09-15T07:37:01Z</time>
      </trkpt>
      <trkpt lat="47.28312" lon="-2.35307">
        <ele>73</ele>
        <time>2019-09-15T07:37:02Z</time>
      </trkpt>
      <trkpt lat="47.28323" lon="-2.35309">
        <ele>74</ele>
        <time>2019-09-15T07:37:04Z</time>
      </trkpt>
      <trkpt lat="47.28327" lon="-2.35307">
        <ele>74</ele>
        <time>2019-09-15T07:37:05Z</time>
      </trkpt>
      <trkpt lat="47.28331" lon="-2.35305">
        <ele>73</ele>
        <time>2019-09-15T07:37:06Z</time>
      </trkpt>
      <trkpt lat="47.28336" lon="-2.35303">
        <ele>73</ele>
        <time>2019-09-15T07:37:07Z</time>
      </trkpt>
      <trkpt lat="47.28343" lon="-2.35306">
        <ele>73</ele>
        <time>2019-09-15T07:37:09Z</time>
      </trkpt>
      <trkpt lat="47.28347" lon="-2.35313">
        <ele>74</ele>
        <time>2019-09-15T07:37:11Z</time>
      </trkpt>
      <trkpt lat="47.2835" lon="-2.35321">
        <ele>74</ele>
        <time>2019-09-15T07:37:13Z</time>
      </trkpt>
      <trkpt lat="47.28353" lon="-2.3533">
        <ele>74</ele>
        <time>2019-09-15T07:37:15Z</time>
      </trkpt>
      <trkpt lat="47.28356" lon="-2.35338">
        <ele>74</ele>
        <time>2019-09-15T07:37:17Z</time>
      </trkpt>
      <trkpt lat="47.28358" lon="-2.35347">
        <ele>74</ele>
        <time>2019-09-15T07:37:19Z</time>
      </trkpt>
      <trkpt lat="47.2836" lon="-2.35356">
        <ele>74</ele>
        <time>2019-09-15T07:37:22Z</time>
      </trkpt>
      <trkpt lat="47.28362" lon="-2.35362">
        <ele>75</ele>
        <time>2019-09-15T07:37:25Z</time>
      </trkpt>
      <trkpt lat="47.28366" lon="-2.35369">
        <ele>75</ele>
        <time>2019-09-15T07:37:28Z</time>
      </trkpt>
      <trkpt lat="47.28367" lon="-2.35379">
        <ele>76</ele>
        <time>2019-09-15T07:37:32Z</time>
      </trkpt>
      <trkpt lat="47.2837" lon="-2.35387">
        <ele>77</ele>
        <time>2019-09-15T07:37:35Z</time>
      </trkpt>
      <trkpt lat="47.28371" lon="-2.3539">
        <ele>77</ele>
        <time>2019-09-15T07:37:36Z</time>
      </trkpt>
      <trkpt lat="47.28373" lon="-2.35393">
        <ele>78</ele>
        <time>2019-09-15T07:37:37Z</time>
      </trkpt>
      <trkpt lat="47.28376" lon="-2.35399">
        <ele>78</ele>
        <time>2019-09-15T07:37:39Z</time>
      </trkpt>
      <trkpt lat="47.28382" lon="-2.35408">
        <ele>79</ele>
        <time>2019-09-15T07:37:42Z</time>
      </trkpt>
      <trkpt lat="47.28385" lon="-2.35411">
        <ele>80</ele>
        <time>2019-09-15T07:37:43Z</time>
      </trkpt>
      <trkpt lat="47.28388" lon="-2.35414">
        <ele>80</ele>
        <time>2019-09-15T07:37:44Z</time>
      </trkpt>
      <trkpt lat="47.28394" lon="-2.35421">
        <ele>80</ele>
        <time>2019-09-15T07:37:46Z</time>
      </trkpt>
      <trkpt lat="47.28399" lon="-2.35427">
        <ele>80</ele>
        <time>2019-09-15T07:37:48Z</time>
      </trkpt>
      <trkpt lat="47.28402" lon="-2.35429">
        <ele>81</ele>
        <time>2019-09-15T07:37:49Z</time>
      </trkpt>
      <trkpt lat="47.28408" lon="-2.35432">
        <ele>81</ele>
        <time>2019-09-15T07:37:51Z</time>
      </trkpt>
      <trkpt lat="47.28412" lon="-2.35432">
        <ele>81</ele>
        <time>2019-09-15T07:37:53Z</time>
      </trkpt>
      <trkpt lat="47.28417" lon="-2.35429">
        <ele>82</ele>
        <time>2019-09-15T07:37:57Z</time>
      </trkpt>
      <trkpt lat="47.28423" lon="-2.35425">
        <ele>83</ele>
        <time>2019-09-15T07:38:00Z</time>
      </trkpt>
      <trkpt lat="47.28433" lon="-2.35425">
        <ele>84</ele>
        <time>2019-09-15T07:38:02Z</time>
      </trkpt>
      <trkpt lat="47.28437" lon="-2.35426">
        <ele>84</ele>
        <time>2019-09-15T07:38:04Z</time>
      </trkpt>
      <trkpt lat="47.28441" lon="-2.3542">
        <ele>85</ele>
        <time>2019-09-15T07:38:07Z</time>
      </trkpt>
      <trkpt lat="47.28443" lon="-2.35411">
        <ele>85</ele>
        <time>2019-09-15T07:38:09Z</time>
      </trkpt>
      <trkpt lat="47.28446" lon="-2.35398">
        <ele>86</ele>
        <time>2019-09-15T07:38:12Z</time>
      </trkpt>
      <trkpt lat="47.28449" lon="-2.35389">
        <ele>86</ele>
        <time>2019-09-15T07:38:14Z</time>
      </trkpt>
      <trkpt lat="47.28451" lon="-2.35377">
        <ele>87</ele>
        <time>2019-09-15T07:38:17Z</time>
      </trkpt>
      <trkpt lat="47.28453" lon="-2.3537">
        <ele>87</ele>
        <time>2019-09-15T07:38:19Z</time>
      </trkpt>
      <trkpt lat="47.28459" lon="-2.35365">
        <ele>87</ele>
        <time>2019-09-15T07:38:22Z</time>
      </trkpt>
      <trkpt lat="47.28466" lon="-2.35372">
        <ele>87</ele>
        <time>2019-09-15T07:38:25Z</time>
      </trkpt>
      <trkpt lat="47.28473" lon="-2.35381">
        <ele>86</ele>
        <time>2019-09-15T07:38:27Z</time>
      </trkpt>
      <trkpt lat="47.28477" lon="-2.3539">
        <ele>86</ele>
        <time>2019-09-15T07:38:29Z</time>
      </trkpt>
      <trkpt lat="47.28478" lon="-2.354">
        <ele>85</ele>
        <time>2019-09-15T07:38:31Z</time>
      </trkpt>
      <trkpt lat="47.28481" lon="-2.35408">
        <ele>86</ele>
        <time>2019-09-15T07:38:33Z</time>
      </trkpt>
      <trkpt lat="47.28484" lon="-2.35416">
        <ele>86</ele>
        <time>2019-09-15T07:38:35Z</time>
      </trkpt>
      <trkpt lat="47.28488" lon="-2.35425">
        <ele>86</ele>
        <time>2019-09-15T07:38:37Z</time>
      </trkpt>
      <trkpt lat="47.28491" lon="-2.35433">
        <ele>87</ele>
        <time>2019-09-15T07:38:39Z</time>
      </trkpt>
      <trkpt lat="47.28492" lon="-2.35436">
        <ele>87</ele>
        <time>2019-09-15T07:38:40Z</time>
      </trkpt>
      <trkpt lat="47.28496" lon="-2.35443">
        <ele>87</ele>
        <time>2019-09-15T07:38:42Z</time>
      </trkpt>
      <trkpt lat="47.28503" lon="-2.35451">
        <ele>87</ele>
        <time>2019-09-15T07:38:44Z</time>
      </trkpt>
      <trkpt lat="47.28506" lon="-2.35459">
        <ele>88</ele>
        <time>2019-09-15T07:38:46Z</time>
      </trkpt>
      <trkpt lat="47.2851" lon="-2.35463">
        <ele>89</ele>
        <time>2019-09-15T07:38:51Z</time>
      </trkpt>
      <trkpt lat="47.28515" lon="-2.35466">
        <ele>89</ele>
        <time>2019-09-15T07:39:00Z</time>
      </trkpt>
      <trkpt lat="47.28516" lon="-2.35474">
        <ele>90</ele>
        <time>2019-09-15T07:39:07Z</time>
      </trkpt>
      <trkpt lat="47.28517" lon="-2.35485">
        <ele>91</ele>
        <time>2019-09-15T07:39:10Z</time>
      </trkpt>
      <trkpt lat="47.28516" lon="-2.35492">
        <ele>92</ele>
        <time>2019-09-15T07:39:12Z</time>
      </trkpt>
      <trkpt lat="47.28516" lon="-2.35502">
        <ele>92</ele>
        <time>2019-09-15T07:39:15Z</time>
      </trkpt>
      <trkpt lat="47.28515" lon="-2.35508">
        <ele>92</ele>
        <time>2019-09-15T07:39:17Z</time>
      </trkpt>
      <trkpt lat="47.28515" lon="-2.35513">
        <ele>92</ele>
        <time>2019-09-15T07:39:19Z</time>
      </trkpt>
      <trkpt lat="47.28516" lon="-2.35521">
        <ele>93</ele>
        <time>2019-09-15T07:39:21Z</time>
      </trkpt>
      <trkpt lat="47.2852" lon="-2.35528">
        <ele>93</ele>
        <time>2019-09-15T07:39:23Z</time>
      </trkpt>
      <trkpt lat="47.28521" lon="-2.35537">
        <ele>94</ele>
        <time>2019-09-15T07:39:25Z</time>
      </trkpt>
      <trkpt lat="47.28522" lon="-2.35541">
        <ele>94</ele>
        <time>2019-09-15T07:39:26Z</time>
      </trkpt>
      <trkpt lat="47.28524" lon="-2.35549">
        <ele>94</ele>
        <time>2019-09-15T07:39:28Z</time>
      </trkpt>
      <trkpt lat="47.28525" lon="-2.35556">
        <ele>94</ele>
        <time>2019-09-15T07:39:30Z</time>
      </trkpt>
      <trkpt lat="47.28525" lon="-2.35564">
        <ele>95</ele>
        <time>2019-09-15T07:39:32Z</time>
      </trkpt>
      <trkpt lat="47.28522" lon="-2.35572">
        <ele>96</ele>
        <time>2019-09-15T07:39:34Z</time>
      </trkpt>
      <trkpt lat="47.28521" lon="-2.35582">
        <ele>97</ele>
        <time>2019-09-15T07:39:37Z</time>
      </trkpt>
      <trkpt lat="47.28521" lon="-2.35587">
        <ele>97</ele>
        <time>2019-09-15T07:39:39Z</time>
      </trkpt>
      <trkpt lat="47.2852" lon="-2.35592">
        <ele>98</ele>
        <time>2019-09-15T07:39:41Z</time>
      </trkpt>
      <trkpt lat="47.28516" lon="-2.35598">
        <ele>100</ele>
        <time>2019-09-15T07:39:47Z</time>
      </trkpt>
      <trkpt lat="47.28511" lon="-2.35596">
        <ele>100</ele>
        <time>2019-09-15T07:39:50Z</time>
      </trkpt>
      <trkpt lat="47.28508" lon="-2.3559">
        <ele>100</ele>
        <time>2019-09-15T07:39:54Z</time>
      </trkpt>
      <trkpt lat="47.28506" lon="-2.35581">
        <ele>100</ele>
        <time>2019-09-15T07:39:57Z</time>
      </trkpt>
      <trkpt lat="47.28502" lon="-2.35574">
        <ele>100</ele>
        <time>2019-09-15T07:40:00Z</time>
      </trkpt>
      <trkpt lat="47.285" lon="-2.35568">
        <ele>100</ele>
        <time>2019-09-15T07:40:02Z</time>
      </trkpt>
      <trkpt lat="47.28497" lon="-2.35564">
        <ele>100</ele>
        <time>2019-09-15T07:40:04Z</time>
      </trkpt>
      <trkpt lat="47.28495" lon="-2.35561">
        <ele>100</ele>
        <time>2019-09-15T07:40:05Z</time>
      </trkpt>
      <trkpt lat="47.28493" lon="-2.35555">
        <ele>101</ele>
        <time>2019-09-15T07:40:07Z</time>
      </trkpt>
      <trkpt lat="47.28491" lon="-2.35547">
        <ele>102</ele>
        <time>2019-09-15T07:40:10Z</time>
      </trkpt>
      <trkpt lat="47.28489" lon="-2.35541">
        <ele>103</ele>
        <time>2019-09-15T07:40:12Z</time>
      </trkpt>
      <trkpt lat="47.28485" lon="-2.35531">
        <ele>105</ele>
        <time>2019-09-15T07:40:16Z</time>
      </trkpt>
      <trkpt lat="47.28479" lon="-2.35514">
        <ele>105</ele>
        <time>2019-09-15T07:40:20Z</time>
      </trkpt>
      <trkpt lat="47.28474" lon="-2.35504">
        <ele>104</ele>
        <time>2019-09-15T07:40:22Z</time>
      </trkpt>
      <trkpt lat="47.28467" lon="-2.35495">
        <ele>105</ele>
        <time>2019-09-15T07:40:24Z</time>
      </trkpt>
      <trkpt lat="47.28465" lon="-2.35488">
        <ele>105</ele>
        <time>2019-09-15T07:40:25Z</time>
      </trkpt>
      <trkpt lat="47.28463" lon="-2.35481">
        <ele>106</ele>
        <time>2019-09-15T07:40:26Z</time>
      </trkpt>
      <trkpt lat="47.28456" lon="-2.35464">
        <ele>106</ele>
        <time>2019-09-15T07:40:29Z</time>
      </trkpt>
      <trkpt lat="47.28453" lon="-2.3546">
        <ele>106</ele>
        <time>2019-09-15T07:40:30Z</time>
      </trkpt>
      <trkpt lat="47.28449" lon="-2.35454">
        <ele>105</ele>
        <time>2019-09-15T07:40:31Z</time>
      </trkpt>
      <trkpt lat="47.28437" lon="-2.35446">
        <ele>104</ele>
        <time>2019-09-15T07:40:34Z</time>
      </trkpt>
      <trkpt lat="47.28429" lon="-2.35444">
        <ele>104</ele>
        <time>2019-09-15T07:40:36Z</time>
      </trkpt>
      <trkpt lat="47.2842" lon="-2.35442">
        <ele>104</ele>
        <time>2019-09-15T07:40:39Z</time>
      </trkpt>
      <trkpt lat="47.28415" lon="-2.35444">
        <ele>104</ele>
        <time>2019-09-15T07:40:41Z</time>
      </trkpt>
      <trkpt lat="47.28412" lon="-2.35451">
        <ele>103</ele>
        <time>2019-09-15T07:40:43Z</time>
      </trkpt>
      <trkpt lat="47.28408" lon="-2.35462">
        <ele>102</ele>
        <time>2019-09-15T07:40:44Z</time>
      </trkpt>
      <trkpt lat="47.28406" lon="-2.35468">
        <ele>101</ele>
        <time>2019-09-15T07:40:45Z</time>
      </trkpt>
      <trkpt lat="47.28405" lon="-2.35475">
        <ele>101</ele>
        <time>2019-09-15T07:40:46Z</time>
      </trkpt>
      <trkpt lat="47.28404" lon="-2.35482">
        <ele>100</ele>
        <time>2019-09-15T07:40:47Z</time>
      </trkpt>
      <trkpt lat="47.28401" lon="-2.35497">
        <ele>100</ele>
        <time>2019-09-15T07:40:50Z</time>
      </trkpt>
      <trkpt lat="47.284" lon="-2.35513">
        <ele>101</ele>
        <time>2019-09-15T07:40:51Z</time>
      </trkpt>
      <trkpt lat="47.284" lon="-2.35522">
        <ele>101</ele>
        <time>2019-09-15T07:40:52Z</time>
      </trkpt>
      <trkpt lat="47.28402" lon="-2.3553">
        <ele>102</ele>
        <time>2019-09-15T07:40:54Z</time>
      </trkpt>
      <trkpt lat="47.28405" lon="-2.35537">
        <ele>102</ele>
        <time>2019-09-15T07:40:55Z</time>
      </trkpt>
      <trkpt lat="47.28408" lon="-2.35544">
        <ele>102</ele>
        <time>2019-09-15T07:40:56Z</time>
      </trkpt>
      <trkpt lat="47.28412" lon="-2.35557">
        <ele>103</ele>
        <time>2019-09-15T07:40:58Z</time>
      </trkpt>
      <trkpt lat="47.28414" lon="-2.35563">
        <ele>102</ele>
        <time>2019-09-15T07:40:59Z</time>
      </trkpt>
      <trkpt lat="47.28417" lon="-2.3557">
        <ele>102</ele>
        <time>2019-09-15T07:41:00Z</time>
      </trkpt>
      <trkpt lat="47.28419" lon="-2.35575">
        <ele>102</ele>
        <time>2019-09-15T07:41:01Z</time>
      </trkpt>
      <trkpt lat="47.28421" lon="-2.35581">
        <ele>102</ele>
        <time>2019-09-15T07:41:02Z</time>
      </trkpt>
      <trkpt lat="47.28423" lon="-2.35586">
        <ele>102</ele>
        <time>2019-09-15T07:41:03Z</time>
      </trkpt>
      <trkpt lat="47.28428" lon="-2.35596">
        <ele>101</ele>
        <time>2019-09-15T07:41:05Z</time>
      </trkpt>
      <trkpt lat="47.28432" lon="-2.35604">
        <ele>101</ele>
        <time>2019-09-15T07:41:07Z</time>
      </trkpt>
      <trkpt lat="47.28432" lon="-2.35612">
        <ele>101</ele>
        <time>2019-09-15T07:41:09Z</time>
      </trkpt>
      <trkpt lat="47.28431" lon="-2.35621">
        <ele>101</ele>
        <time>2019-09-15T07:41:11Z</time>
      </trkpt>
      <trkpt lat="47.28427" lon="-2.35635">
        <ele>102</ele>
        <time>2019-09-15T07:41:14Z</time>
      </trkpt>
      <trkpt lat="47.28418" lon="-2.35651">
        <ele>101</ele>
        <time>2019-09-15T07:41:17Z</time>
      </trkpt>
      <trkpt lat="47.28415" lon="-2.35658">
        <ele>101</ele>
        <time>2019-09-15T07:41:18Z</time>
      </trkpt>
      <trkpt lat="47.28412" lon="-2.35664">
        <ele>101</ele>
        <time>2019-09-15T07:41:19Z</time>
      </trkpt>
      <trkpt lat="47.28408" lon="-2.35671">
        <ele>100</ele>
        <time>2019-09-15T07:41:20Z</time>
      </trkpt>
      <trkpt lat="47.28405" lon="-2.35693">
        <ele>102</ele>
        <time>2019-09-15T07:41:24Z</time>
      </trkpt>
      <trkpt lat="47.28406" lon="-2.35706">
        <ele>102</ele>
        <time>2019-09-15T07:41:26Z</time>
      </trkpt>
      <trkpt lat="47.28406" lon="-2.35712">
        <ele>102</ele>
        <time>2019-09-15T07:41:27Z</time>
      </trkpt>
      <trkpt lat="47.28406" lon="-2.35721">
        <ele>103</ele>
        <time>2019-09-15T07:41:30Z</time>
      </trkpt>
      <trkpt lat="47.28407" lon="-2.35728">
        <ele>103</ele>
        <time>2019-09-15T07:41:33Z</time>
      </trkpt>
      <trkpt lat="47.28407" lon="-2.35733">
        <ele>103</ele>
        <time>2019-09-15T07:41:34Z</time>
      </trkpt>
      <trkpt lat="47.28408" lon="-2.3574">
        <ele>103</ele>
        <time>2019-09-15T07:41:36Z</time>
      </trkpt>
      <trkpt lat="47.2841" lon="-2.35752">
        <ele>103</ele>
        <time>2019-09-15T07:41:39Z</time>
      </trkpt>
      <trkpt lat="47.28409" lon="-2.35762">
        <ele>103</ele>
        <time>2019-09-15T07:41:42Z</time>
      </trkpt>
      <trkpt lat="47.28404" lon="-2.35766">
        <ele>103</ele>
        <time>2019-09-15T07:41:45Z</time>
      </trkpt>
      <trkpt lat="47.28396" lon="-2.35768">
        <ele>103</ele>
        <time>2019-09-15T07:41:47Z</time>
      </trkpt>
      <trkpt lat="47.28383" lon="-2.35765">
        <ele>102</ele>
        <time>2019-09-15T07:41:50Z</time>
      </trkpt>
      <trkpt lat="47.28377" lon="-2.35764">
        <ele>101</ele>
        <time>2019-09-15T07:41:51Z</time>
      </trkpt>
      <trkpt lat="47.28372" lon="-2.35762">
        <ele>101</ele>
        <time>2019-09-15T07:41:52Z</time>
      </trkpt>
      <trkpt lat="47.28367" lon="-2.3576">
        <ele>101</ele>
        <time>2019-09-15T07:41:53Z</time>
      </trkpt>
      <trkpt lat="47.28359" lon="-2.35756">
        <ele>101</ele>
        <time>2019-09-15T07:41:55Z</time>
      </trkpt>
      <trkpt lat="47.28348" lon="-2.35751">
        <ele>100</ele>
        <time>2019-09-15T07:41:57Z</time>
      </trkpt>
      <trkpt lat="47.28343" lon="-2.35749">
        <ele>100</ele>
        <time>2019-09-15T07:41:58Z</time>
      </trkpt>
      <trkpt lat="47.28338" lon="-2.35747">
        <ele>99</ele>
        <time>2019-09-15T07:41:59Z</time>
      </trkpt>
      <trkpt lat="47.28334" lon="-2.35744">
        <ele>99</ele>
        <time>2019-09-15T07:42:00Z</time>
      </trkpt>
      <trkpt lat="47.28328" lon="-2.3574">
        <ele>99</ele>
        <time>2019-09-15T07:42:02Z</time>
      </trkpt>
      <trkpt lat="47.28318" lon="-2.35746">
        <ele>98</ele>
        <time>2019-09-15T07:42:05Z</time>
      </trkpt>
      <trkpt lat="47.28311" lon="-2.35749">
        <ele>98</ele>
        <time>2019-09-15T07:42:08Z</time>
      </trkpt>
      <trkpt lat="47.28304" lon="-2.35744">
        <ele>98</ele>
        <time>2019-09-15T07:42:11Z</time>
      </trkpt>
      <trkpt lat="47.28298" lon="-2.35735">
        <ele>97</ele>
        <time>2019-09-15T07:42:14Z</time>
      </trkpt>
      <trkpt lat="47.28295" lon="-2.35732">
        <ele>97</ele>
        <time>2019-09-15T07:42:15Z</time>
      </trkpt>
      <trkpt lat="47.28289" lon="-2.35722">
        <ele>96</ele>
        <time>2019-09-15T07:42:17Z</time>
      </trkpt>
      <trkpt lat="47.28285" lon="-2.35716">
        <ele>96</ele>
        <time>2019-09-15T07:42:18Z</time>
      </trkpt>
      <trkpt lat="47.28281" lon="-2.35711">
        <ele>97</ele>
        <time>2019-09-15T07:42:19Z</time>
      </trkpt>
      <trkpt lat="47.28278" lon="-2.35707">
        <ele>97</ele>
        <time>2019-09-15T07:42:20Z</time>
      </trkpt>
      <trkpt lat="47.2827" lon="-2.35702">
        <ele>96</ele>
        <time>2019-09-15T07:42:22Z</time>
      </trkpt>
      <trkpt lat="47.28262" lon="-2.35696">
        <ele>96</ele>
        <time>2019-09-15T07:42:24Z</time>
      </trkpt>
      <trkpt lat="47.28252" lon="-2.3569">
        <ele>95</ele>
        <time>2019-09-15T07:42:26Z</time>
      </trkpt>
      <trkpt lat="47.28246" lon="-2.35687">
        <ele>95</ele>
        <time>2019-09-15T07:42:27Z</time>
      </trkpt>
      <trkpt lat="47.28235" lon="-2.35683">
        <ele>95</ele>
        <time>2019-09-15T07:42:29Z</time>
      </trkpt>
      <trkpt lat="47.28223" lon="-2.35677">
        <ele>95</ele>
        <time>2019-09-15T07:42:32Z</time>
      </trkpt>
      <trkpt lat="47.28218" lon="-2.35677">
        <ele>95</ele>
        <time>2019-09-15T07:42:33Z</time>
      </trkpt>
      <trkpt lat="47.28213" lon="-2.35679">
        <ele>95</ele>
        <time>2019-09-15T07:42:35Z</time>
      </trkpt>
      <trkpt lat="47.28208" lon="-2.35681">
        <ele>95</ele>
        <time>2019-09-15T07:42:37Z</time>
      </trkpt>
      <trkpt lat="47.28206" lon="-2.35683">
        <ele>95</ele>
        <time>2019-09-15T07:42:38Z</time>
      </trkpt>
      <trkpt lat="47.28201" lon="-2.35688">
        <ele>95</ele>
        <time>2019-09-15T07:42:43Z</time>
      </trkpt>
      <trkpt lat="47.28199" lon="-2.35696">
        <ele>95</ele>
        <time>2019-09-15T07:42:46Z</time>
      </trkpt>
      <trkpt lat="47.28195" lon="-2.35701">
        <ele>95</ele>
        <time>2019-09-15T07:42:51Z</time>
      </trkpt>
      <trkpt lat="47.28189" lon="-2.35698">
        <ele>95</ele>
        <time>2019-09-15T07:42:56Z</time>
      </trkpt>
      <trkpt lat="47.28184" lon="-2.35694">
        <ele>95</ele>
        <time>2019-09-15T07:43:00Z</time>
      </trkpt>
      <trkpt lat="47.28179" lon="-2.35689">
        <ele>94</ele>
        <time>2019-09-15T07:43:03Z</time>
      </trkpt>
      <trkpt lat="47.28174" lon="-2.35685">
        <ele>94</ele>
        <time>2019-09-15T07:43:07Z</time>
      </trkpt>
      <trkpt lat="47.28171" lon="-2.35681">
        <ele>94</ele>
        <time>2019-09-15T07:43:12Z</time>
      </trkpt>
      <trkpt lat="47.28168" lon="-2.35679">
        <ele>94</ele>
        <time>2019-09-15T07:43:13Z</time>
      </trkpt>
      <trkpt lat="47.28165" lon="-2.35675">
        <ele>94</ele>
        <time>2019-09-15T07:43:15Z</time>
      </trkpt>
      <trkpt lat="47.28159" lon="-2.35673">
        <ele>93</ele>
        <time>2019-09-15T07:43:17Z</time>
      </trkpt>
      <trkpt lat="47.28152" lon="-2.35674">
        <ele>93</ele>
        <time>2019-09-15T07:43:19Z</time>
      </trkpt>
      <trkpt lat="47.28146" lon="-2.35675">
        <ele>93</ele>
        <time>2019-09-15T07:43:21Z</time>
      </trkpt>
      <trkpt lat="47.28143" lon="-2.35676">
        <ele>93</ele>
        <time>2019-09-15T07:43:22Z</time>
      </trkpt>
      <trkpt lat="47.28136" lon="-2.35676">
        <ele>93</ele>
        <time>2019-09-15T07:43:25Z</time>
      </trkpt>
      <trkpt lat="47.2813" lon="-2.35677">
        <ele>93</ele>
        <time>2019-09-15T07:43:27Z</time>
      </trkpt>
      <trkpt lat="47.28126" lon="-2.35677">
        <ele>92</ele>
        <time>2019-09-15T07:43:29Z</time>
      </trkpt>
      <trkpt lat="47.28108" lon="-2.35684">
        <ele>93</ele>
        <time>2019-09-15T07:43:34Z</time>
      </trkpt>
      <trkpt lat="47.28104" lon="-2.35688">
        <ele>93</ele>
        <time>2019-09-15T07:43:36Z</time>
      </trkpt>
      <trkpt lat="47.281" lon="-2.35691">
        <ele>92</ele>
        <time>2019-09-15T07:43:38Z</time>
      </trkpt>
      <trkpt lat="47.28097" lon="-2.35698">
        <ele>92</ele>
        <time>2019-09-15T07:43:40Z</time>
      </trkpt>
      <trkpt lat="47.28096" lon="-2.35701">
        <ele>92</ele>
        <time>2019-09-15T07:43:41Z</time>
      </trkpt>
      <trkpt lat="47.28094" lon="-2.35704">
        <ele>92</ele>
        <time>2019-09-15T07:43:42Z</time>
      </trkpt>
      <trkpt lat="47.28092" lon="-2.35712">
        <ele>92</ele>
        <time>2019-09-15T07:43:44Z</time>
      </trkpt>
      <trkpt lat="47.28087" lon="-2.35727">
        <ele>93</ele>
        <time>2019-09-15T07:43:47Z</time>
      </trkpt>
      <trkpt lat="47.28085" lon="-2.35732">
        <ele>93</ele>
        <time>2019-09-15T07:43:48Z</time>
      </trkpt>
      <trkpt lat="47.28081" lon="-2.35741">
        <ele>93</ele>
        <time>2019-09-15T07:43:50Z</time>
      </trkpt>
      <trkpt lat="47.2808" lon="-2.35747">
        <ele>94</ele>
        <time>2019-09-15T07:43:52Z</time>
      </trkpt>
      <trkpt lat="47.28078" lon="-2.35754">
        <ele>94</ele>
        <time>2019-09-15T07:43:54Z</time>
      </trkpt>
      <trkpt lat="47.28077" lon="-2.3576">
        <ele>94</ele>
        <time>2019-09-15T07:43:56Z</time>
      </trkpt>
      <trkpt lat="47.28075" lon="-2.35765">
        <ele>94</ele>
        <time>2019-09-15T07:43:58Z</time>
      </trkpt>
      <trkpt lat="47.28069" lon="-2.35774">
        <ele>93</ele>
        <time>2019-09-15T07:44:01Z</time>
      </trkpt>
      <trkpt lat="47.2807" lon="-2.35791">
        <ele>93</ele>
        <time>2019-09-15T07:44:04Z</time>
      </trkpt>
      <trkpt lat="47.28075" lon="-2.35809">
        <ele>93</ele>
        <time>2019-09-15T07:44:07Z</time>
      </trkpt>
      <trkpt lat="47.28077" lon="-2.35814">
        <ele>94</ele>
        <time>2019-09-15T07:44:08Z</time>
      </trkpt>
      <trkpt lat="47.28079" lon="-2.35822">
        <ele>93</ele>
        <time>2019-09-15T07:44:10Z</time>
      </trkpt>
      <trkpt lat="47.28081" lon="-2.35828">
        <ele>93</ele>
        <time>2019-09-15T07:44:12Z</time>
      </trkpt>
      <trkpt lat="47.28086" lon="-2.35833">
        <ele>93</ele>
        <time>2019-09-15T07:44:14Z</time>
      </trkpt>
      <trkpt lat="47.28087" lon="-2.35835">
        <ele>93</ele>
        <time>2019-09-15T07:44:15Z</time>
      </trkpt>
      <trkpt lat="47.28092" lon="-2.35838">
        <ele>91</ele>
        <time>2019-09-15T07:44:18Z</time>
      </trkpt>
      <trkpt lat="47.28098" lon="-2.35841">
        <ele>91</ele>
        <time>2019-09-15T07:44:22Z</time>
      </trkpt>
      <trkpt lat="47.28103" lon="-2.35843">
        <ele>91</ele>
        <time>2019-09-15T07:44:24Z</time>
      </trkpt>
      <trkpt lat="47.28108" lon="-2.35845">
        <ele>91</ele>
        <time>2019-09-15T07:44:26Z</time>
      </trkpt>
      <trkpt lat="47.2811" lon="-2.35846">
        <ele>91</ele>
        <time>2019-09-15T07:44:27Z</time>
      </trkpt>
      <trkpt lat="47.28114" lon="-2.35857">
        <ele>90</ele>
        <time>2019-09-15T07:44:29Z</time>
      </trkpt>
      <trkpt lat="47.28116" lon="-2.35865">
        <ele>91</ele>
        <time>2019-09-15T07:44:31Z</time>
      </trkpt>
      <trkpt lat="47.28121" lon="-2.35869">
        <ele>91</ele>
        <time>2019-09-15T07:44:33Z</time>
      </trkpt>
      <trkpt lat="47.28128" lon="-2.35873">
        <ele>92</ele>
        <time>2019-09-15T07:44:34Z</time>
      </trkpt>
      <trkpt lat="47.28134" lon="-2.35879">
        <ele>92</ele>
        <time>2019-09-15T07:44:37Z</time>
      </trkpt>
      <trkpt lat="47.28144" lon="-2.35883">
        <ele>91</ele>
        <time>2019-09-15T07:44:40Z</time>
      </trkpt>
      <trkpt lat="47.28153" lon="-2.35887">
        <ele>92</ele>
        <time>2019-09-15T07:44:43Z</time>
      </trkpt>
      <trkpt lat="47.28157" lon="-2.35888">
        <ele>92</ele>
        <time>2019-09-15T07:44:44Z</time>
      </trkpt>
      <trkpt lat="47.2816" lon="-2.3589">
        <ele>92</ele>
        <time>2019-09-15T07:44:45Z</time>
      </trkpt>
      <trkpt lat="47.28167" lon="-2.35893">
        <ele>92</ele>
        <time>2019-09-15T07:44:47Z</time>
      </trkpt>
      <trkpt lat="47.28173" lon="-2.35895">
        <ele>92</ele>
        <time>2019-09-15T07:44:49Z</time>
      </trkpt>
      <trkpt lat="47.2818" lon="-2.35897">
        <ele>92</ele>
        <time>2019-09-15T07:44:51Z</time>
      </trkpt>
      <trkpt lat="47.28183" lon="-2.35902">
        <ele>92</ele>
        <time>2019-09-15T07:44:53Z</time>
      </trkpt>
      <trkpt lat="47.28185" lon="-2.35911">
        <ele>92</ele>
        <time>2019-09-15T07:44:55Z</time>
      </trkpt>
      <trkpt lat="47.28184" lon="-2.3592">
        <ele>91</ele>
        <time>2019-09-15T07:44:56Z</time>
      </trkpt>
      <trkpt lat="47.28184" lon="-2.35927">
        <ele>91</ele>
        <time>2019-09-15T07:44:59Z</time>
      </trkpt>
      <trkpt lat="47.28179" lon="-2.35935">
        <ele>92</ele>
        <time>2019-09-15T07:45:02Z</time>
      </trkpt>
      <trkpt lat="47.28177" lon="-2.35942">
        <ele>92</ele>
        <time>2019-09-15T07:45:04Z</time>
      </trkpt>
      <trkpt lat="47.2818" lon="-2.35961">
        <ele>92</ele>
        <time>2019-09-15T07:45:07Z</time>
      </trkpt>
      <trkpt lat="47.28185" lon="-2.35979">
        <ele>92</ele>
        <time>2019-09-15T07:45:10Z</time>
      </trkpt>
      <trkpt lat="47.28195" lon="-2.36001">
        <ele>94</ele>
        <time>2019-09-15T07:45:14Z</time>
      </trkpt>
      <trkpt lat="47.28201" lon="-2.36008">
        <ele>94</ele>
        <time>2019-09-15T07:45:16Z</time>
      </trkpt>
      <trkpt lat="47.28205" lon="-2.36011">
        <ele>94</ele>
        <time>2019-09-15T07:45:17Z</time>
      </trkpt>
      <trkpt lat="47.28216" lon="-2.36024">
        <ele>93</ele>
        <time>2019-09-15T07:45:20Z</time>
      </trkpt>
      <trkpt lat="47.28225" lon="-2.36026">
        <ele>92</ele>
        <time>2019-09-15T07:45:22Z</time>
      </trkpt>
      <trkpt lat="47.28229" lon="-2.36027">
        <ele>92</ele>
        <time>2019-09-15T07:45:23Z</time>
      </trkpt>
      <trkpt lat="47.28238" lon="-2.36026">
        <ele>92</ele>
        <time>2019-09-15T07:45:26Z</time>
      </trkpt>
      <trkpt lat="47.2824" lon="-2.36026">
        <ele>92</ele>
        <time>2019-09-15T07:45:27Z</time>
      </trkpt>
      <trkpt lat="47.28243" lon="-2.36026">
        <ele>92</ele>
        <time>2019-09-15T07:45:28Z</time>
      </trkpt>
      <trkpt lat="47.28246" lon="-2.36033">
        <ele>91</ele>
        <time>2019-09-15T07:45:32Z</time>
      </trkpt>
      <trkpt lat="47.28244" lon="-2.36042">
        <ele>91</ele>
        <time>2019-09-15T07:45:34Z</time>
      </trkpt>
      <trkpt lat="47.28243" lon="-2.36047">
        <ele>91</ele>
        <time>2019-09-15T07:45:35Z</time>
      </trkpt>
      <trkpt lat="47.28242" lon="-2.36053">
        <ele>91</ele>
        <time>2019-09-15T07:45:36Z</time>
      </trkpt>
      <trkpt lat="47.28242" lon="-2.36059">
        <ele>90</ele>
        <time>2019-09-15T07:45:37Z</time>
      </trkpt>
      <trkpt lat="47.2824" lon="-2.36071">
        <ele>90</ele>
        <time>2019-09-15T07:45:39Z</time>
      </trkpt>
      <trkpt lat="47.28237" lon="-2.36082">
        <ele>89</ele>
        <time>2019-09-15T07:45:41Z</time>
      </trkpt>
      <trkpt lat="47.28236" lon="-2.36089">
        <ele>88</ele>
        <time>2019-09-15T07:45:42Z</time>
      </trkpt>
      <trkpt lat="47.28242" lon="-2.3611">
        <ele>88</ele>
        <time>2019-09-15T07:45:45Z</time>
      </trkpt>
      <trkpt lat="47.28249" lon="-2.36122">
        <ele>88</ele>
        <time>2019-09-15T07:45:47Z</time>
      </trkpt>
      <trkpt lat="47.28253" lon="-2.36129">
        <ele>87</ele>
        <time>2019-09-15T07:45:48Z</time>
      </trkpt>
      <trkpt lat="47.28256" lon="-2.36139">
        <ele>87</ele>
        <time>2019-09-15T07:45:49Z</time>
      </trkpt>
      <trkpt lat="47.28259" lon="-2.36147">
        <ele>87</ele>
        <time>2019-09-15T07:45:50Z</time>
      </trkpt>
      <trkpt lat="47.28263" lon="-2.36154">
        <ele>86</ele>
        <time>2019-09-15T07:45:51Z</time>
      </trkpt>
      <trkpt lat="47.28266" lon="-2.36169">
        <ele>86</ele>
        <time>2019-09-15T07:45:53Z</time>
      </trkpt>
      <trkpt lat="47.28267" lon="-2.36176">
        <ele>86</ele>
        <time>2019-09-15T07:45:54Z</time>
      </trkpt>
      <trkpt lat="47.28268" lon="-2.36183">
        <ele>85</ele>
        <time>2019-09-15T07:45:55Z</time>
      </trkpt>
      <trkpt lat="47.2827" lon="-2.3619">
        <ele>85</ele>
        <time>2019-09-15T07:45:56Z</time>
      </trkpt>
      <trkpt lat="47.28271" lon="-2.36197">
        <ele>85</ele>
        <time>2019-09-15T07:45:57Z</time>
      </trkpt>
      <trkpt lat="47.28272" lon="-2.36203">
        <ele>86</ele>
        <time>2019-09-15T07:45:58Z</time>
      </trkpt>
      <trkpt lat="47.28274" lon="-2.3621">
        <ele>85</ele>
        <time>2019-09-15T07:45:59Z</time>
      </trkpt>
      <trkpt lat="47.28278" lon="-2.36219">
        <ele>86</ele>
        <time>2019-09-15T07:46:01Z</time>
      </trkpt>
      <trkpt lat="47.28283" lon="-2.36224">
        <ele>86</ele>
        <time>2019-09-15T07:46:04Z</time>
      </trkpt>
      <trkpt lat="47.28288" lon="-2.36224">
        <ele>86</ele>
        <time>2019-09-15T07:46:06Z</time>
      </trkpt>
      <trkpt lat="47.28291" lon="-2.36224">
        <ele>86</ele>
        <time>2019-09-15T07:46:07Z</time>
      </trkpt>
      <trkpt lat="47.28294" lon="-2.36223">
        <ele>86</ele>
        <time>2019-09-15T07:46:08Z</time>
      </trkpt>
      <trkpt lat="47.28299" lon="-2.3622">
        <ele>86</ele>
        <time>2019-09-15T07:46:10Z</time>
      </trkpt>
      <trkpt lat="47.28307" lon="-2.36219">
        <ele>86</ele>
        <time>2019-09-15T07:46:13Z</time>
      </trkpt>
      <trkpt lat="47.28313" lon="-2.36215">
        <ele>85</ele>
        <time>2019-09-15T07:46:15Z</time>
      </trkpt>
      <trkpt lat="47.28316" lon="-2.36213">
        <ele>85</ele>
        <time>2019-09-15T07:46:16Z</time>
      </trkpt>
      <trkpt lat="47.28323" lon="-2.36204">
        <ele>85</ele>
        <time>2019-09-15T07:46:19Z</time>
      </trkpt>
      <trkpt lat="47.28326" lon="-2.36201">
        <ele>85</ele>
        <time>2019-09-15T07:46:20Z</time>
      </trkpt>
      <trkpt lat="47.28331" lon="-2.36196">
        <ele>85</ele>
        <time>2019-09-15T07:46:22Z</time>
      </trkpt>
      <trkpt lat="47.28334" lon="-2.36194">
        <ele>85</ele>
        <time>2019-09-15T07:46:24Z</time>
      </trkpt>
      <trkpt lat="47.28337" lon="-2.36191">
        <ele>85</ele>
        <time>2019-09-15T07:46:26Z</time>
      </trkpt>
      <trkpt lat="47.28341" lon="-2.36187">
        <ele>86</ele>
        <time>2019-09-15T07:46:29Z</time>
      </trkpt>
      <trkpt lat="47.28346" lon="-2.36186">
        <ele>86</ele>
        <time>2019-09-15T07:46:32Z</time>
      </trkpt>
      <trkpt lat="47.28349" lon="-2.3618">
        <ele>87</ele>
        <time>2019-09-15T07:46:36Z</time>
      </trkpt>
      <trkpt lat="47.28354" lon="-2.36176">
        <ele>88</ele>
        <time>2019-09-15T07:46:39Z</time>
      </trkpt>
      <trkpt lat="47.28357" lon="-2.36173">
        <ele>88</ele>
        <time>2019-09-15T07:46:41Z</time>
      </trkpt>
      <trkpt lat="47.28362" lon="-2.36168">
        <ele>88</ele>
        <time>2019-09-15T07:46:45Z</time>
      </trkpt>
      <trkpt lat="47.28364" lon="-2.36166">
        <ele>89</ele>
        <time>2019-09-15T07:46:47Z</time>
      </trkpt>
      <trkpt lat="47.28367" lon="-2.36163">
        <ele>89</ele>
        <time>2019-09-15T07:46:49Z</time>
      </trkpt>
      <trkpt lat="47.2837" lon="-2.36158">
        <ele>89</ele>
        <time>2019-09-15T07:46:51Z</time>
      </trkpt>
      <trkpt lat="47.28374" lon="-2.36153">
        <ele>90</ele>
        <time>2019-09-15T07:46:53Z</time>
      </trkpt>
      <trkpt lat="47.28376" lon="-2.36147">
        <ele>91</ele>
        <time>2019-09-15T07:46:55Z</time>
      </trkpt>
      <trkpt lat="47.2838" lon="-2.3614">
        <ele>92</ele>
        <time>2019-09-15T07:46:57Z</time>
      </trkpt>
      <trkpt lat="47.28381" lon="-2.36137">
        <ele>92</ele>
        <time>2019-09-15T07:46:58Z</time>
      </trkpt>
      <trkpt lat="47.28382" lon="-2.36133">
        <ele>93</ele>
        <time>2019-09-15T07:46:59Z</time>
      </trkpt>
      <trkpt lat="47.28383" lon="-2.3613">
        <ele>92</ele>
        <time>2019-09-15T07:47:00Z</time>
      </trkpt>
      <trkpt lat="47.28385" lon="-2.36119">
        <ele>94</ele>
        <time>2019-09-15T07:47:04Z</time>
      </trkpt>
      <trkpt lat="47.28386" lon="-2.36111">
        <ele>95</ele>
        <time>2019-09-15T07:47:07Z</time>
      </trkpt>
      <trkpt lat="47.28388" lon="-2.36103">
        <ele>96</ele>
        <time>2019-09-15T07:47:10Z</time>
      </trkpt>
      <trkpt lat="47.28389" lon="-2.36093">
        <ele>97</ele>
        <time>2019-09-15T07:47:14Z</time>
      </trkpt>
      <trkpt lat="47.2839" lon="-2.36089">
        <ele>98</ele>
        <time>2019-09-15T07:47:16Z</time>
      </trkpt>
      <trkpt lat="47.28388" lon="-2.36081">
        <ele>99</ele>
        <time>2019-09-15T07:47:19Z</time>
      </trkpt>
      <trkpt lat="47.28388" lon="-2.36074">
        <ele>99</ele>
        <time>2019-09-15T07:47:22Z</time>
      </trkpt>
      <trkpt lat="47.28392" lon="-2.36069">
        <ele>101</ele>
        <time>2019-09-15T07:47:26Z</time>
      </trkpt>
      <trkpt lat="47.28394" lon="-2.36066">
        <ele>102</ele>
        <time>2019-09-15T07:47:28Z</time>
      </trkpt>
      <trkpt lat="47.28395" lon="-2.36063">
        <ele>103</ele>
        <time>2019-09-15T07:47:31Z</time>
      </trkpt>
      <trkpt lat="47.28395" lon="-2.36063">
        <ele>103</ele>
        <time>2019-09-15T07:49:36Z</time>
      </trkpt>
      <trkpt lat="47.28397" lon="-2.36029">
        <ele>102</ele>
        <time>2019-09-15T07:49:37Z</time>
      </trkpt>
      <trkpt lat="47.28404" lon="-2.36028">
        <ele>102</ele>
        <time>2019-09-15T07:49:40Z</time>
      </trkpt>
      <trkpt lat="47.28412" lon="-2.36022">
        <ele>102</ele>
        <time>2019-09-15T07:49:43Z</time>
      </trkpt>
      <trkpt lat="47.28417" lon="-2.36017">
        <ele>102</ele>
        <time>2019-09-15T07:49:45Z</time>
      </trkpt>
      <trkpt lat="47.28421" lon="-2.36013">
        <ele>103</ele>
        <time>2019-09-15T07:49:47Z</time>
      </trkpt>
      <trkpt lat="47.28423" lon="-2.3601">
        <ele>103</ele>
        <time>2019-09-15T07:49:48Z</time>
      </trkpt>
      <trkpt lat="47.28424" lon="-2.36008">
        <ele>103</ele>
        <time>2019-09-15T07:49:49Z</time>
      </trkpt>
      <trkpt lat="47.2843" lon="-2.36004">
        <ele>104</ele>
        <time>2019-09-15T07:49:51Z</time>
      </trkpt>
      <trkpt lat="47.28432" lon="-2.36002">
        <ele>104</ele>
        <time>2019-09-15T07:49:52Z</time>
      </trkpt>
      <trkpt lat="47.28437" lon="-2.36001">
        <ele>105</ele>
        <time>2019-09-15T07:49:54Z</time>
      </trkpt>
      <trkpt lat="47.28441" lon="-2.36">
        <ele>104</ele>
        <time>2019-09-15T07:49:55Z</time>
      </trkpt>
      <trkpt lat="47.28447" lon="-2.36003">
        <ele>105</ele>
        <time>2019-09-15T07:49:58Z</time>
      </trkpt>
      <trkpt lat="47.28454" lon="-2.36013">
        <ele>105</ele>
        <time>2019-09-15T07:50:01Z</time>
      </trkpt>
      <trkpt lat="47.28457" lon="-2.36017">
        <ele>105</ele>
        <time>2019-09-15T07:50:02Z</time>
      </trkpt>
      <trkpt lat="47.28463" lon="-2.36021">
        <ele>105</ele>
        <time>2019-09-15T07:50:04Z</time>
      </trkpt>
      <trkpt lat="47.28469" lon="-2.36027">
        <ele>106</ele>
        <time>2019-09-15T07:50:06Z</time>
      </trkpt>
      <trkpt lat="47.28476" lon="-2.3603">
        <ele>106</ele>
        <time>2019-09-15T07:50:08Z</time>
      </trkpt>
      <trkpt lat="47.28482" lon="-2.36033">
        <ele>106</ele>
        <time>2019-09-15T07:50:10Z</time>
      </trkpt>
      <trkpt lat="47.28488" lon="-2.36036">
        <ele>106</ele>
        <time>2019-09-15T07:50:12Z</time>
      </trkpt>
      <trkpt lat="47.28493" lon="-2.36042">
        <ele>107</ele>
        <time>2019-09-15T07:50:14Z</time>
      </trkpt>
      <trkpt lat="47.28504" lon="-2.36052">
        <ele>108</ele>
        <time>2019-09-15T07:50:17Z</time>
      </trkpt>
      <trkpt lat="47.28507" lon="-2.36056">
        <ele>108</ele>
        <time>2019-09-15T07:50:18Z</time>
      </trkpt>
      <trkpt lat="47.2851" lon="-2.3606">
        <ele>108</ele>
        <time>2019-09-15T07:50:19Z</time>
      </trkpt>
      <trkpt lat="47.28513" lon="-2.36064">
        <ele>108</ele>
        <time>2019-09-15T07:50:20Z</time>
      </trkpt>
      <trkpt lat="47.28519" lon="-2.36072">
        <ele>107</ele>
        <time>2019-09-15T07:50:22Z</time>
      </trkpt>
      <trkpt lat="47.28523" lon="-2.36081">
        <ele>107</ele>
        <time>2019-09-15T07:50:24Z</time>
      </trkpt>
      <trkpt lat="47.28526" lon="-2.36096">
        <ele>107</ele>
        <time>2019-09-15T07:50:26Z</time>
      </trkpt>
      <trkpt lat="47.28528" lon="-2.36104">
        <ele>107</ele>
        <time>2019-09-15T07:50:27Z</time>
      </trkpt>
      <trkpt lat="47.28534" lon="-2.36128">
        <ele>107</ele>
        <time>2019-09-15T07:50:30Z</time>
      </trkpt>
      <trkpt lat="47.28539" lon="-2.36142">
        <ele>106</ele>
        <time>2019-09-15T07:50:32Z</time>
      </trkpt>
      <trkpt lat="47.28543" lon="-2.36148">
        <ele>105</ele>
        <time>2019-09-15T07:50:33Z</time>
      </trkpt>
      <trkpt lat="47.28547" lon="-2.36152">
        <ele>105</ele>
        <time>2019-09-15T07:50:35Z</time>
      </trkpt>
      <trkpt lat="47.28553" lon="-2.36154">
        <ele>104</ele>
        <time>2019-09-15T07:50:39Z</time>
      </trkpt>
      <trkpt lat="47.28557" lon="-2.3615">
        <ele>104</ele>
        <time>2019-09-15T07:50:42Z</time>
      </trkpt>
      <trkpt lat="47.28563" lon="-2.36148">
        <ele>103</ele>
        <time>2019-09-15T07:50:45Z</time>
      </trkpt>
      <trkpt lat="47.2857" lon="-2.3615">
        <ele>103</ele>
        <time>2019-09-15T07:50:47Z</time>
      </trkpt>
      <trkpt lat="47.28573" lon="-2.36152">
        <ele>104</ele>
        <time>2019-09-15T07:50:48Z</time>
      </trkpt>
      <trkpt lat="47.28576" lon="-2.36154">
        <ele>104</ele>
        <time>2019-09-15T07:50:49Z</time>
      </trkpt>
      <trkpt lat="47.2858" lon="-2.36156">
        <ele>104</ele>
        <time>2019-09-15T07:50:50Z</time>
      </trkpt>
      <trkpt lat="47.28589" lon="-2.36158">
        <ele>105</ele>
        <time>2019-09-15T07:50:51Z</time>
      </trkpt>
      <trkpt lat="47.28593" lon="-2.3616">
        <ele>105</ele>
        <time>2019-09-15T07:50:53Z</time>
      </trkpt>
      <trkpt lat="47.28596" lon="-2.36161">
        <ele>105</ele>
        <time>2019-09-15T07:50:54Z</time>
      </trkpt>
      <trkpt lat="47.28601" lon="-2.36158">
        <ele>105</ele>
        <time>2019-09-15T07:50:56Z</time>
      </trkpt>
      <trkpt lat="47.28606" lon="-2.36155">
        <ele>105</ele>
        <time>2019-09-15T07:50:58Z</time>
      </trkpt>
      <trkpt lat="47.28609" lon="-2.36154">
        <ele>105</ele>
        <time>2019-09-15T07:50:59Z</time>
      </trkpt>
      <trkpt lat="47.28613" lon="-2.36151">
        <ele>106</ele>
        <time>2019-09-15T07:51:01Z</time>
      </trkpt>
      <trkpt lat="47.28616" lon="-2.36148">
        <ele>106</ele>
        <time>2019-09-15T07:51:02Z</time>
      </trkpt>
      <trkpt lat="47.28619" lon="-2.36146">
        <ele>107</ele>
        <time>2019-09-15T07:51:04Z</time>
      </trkpt>
      <trkpt lat="47.28621" lon="-2.36145">
        <ele>107</ele>
        <time>2019-09-15T07:51:05Z</time>
      </trkpt>
      <trkpt lat="47.28627" lon="-2.3614">
        <ele>107</ele>
        <time>2019-09-15T07:51:08Z</time>
      </trkpt>
      <trkpt lat="47.28631" lon="-2.36135">
        <ele>107</ele>
        <time>2019-09-15T07:51:10Z</time>
      </trkpt>
      <trkpt lat="47.28636" lon="-2.36123">
        <ele>106</ele>
        <time>2019-09-15T07:51:13Z</time>
      </trkpt>
      <trkpt lat="47.28638" lon="-2.3612">
        <ele>106</ele>
        <time>2019-09-15T07:51:14Z</time>
      </trkpt>
      <trkpt lat="47.28641" lon="-2.36111">
        <ele>106</ele>
        <time>2019-09-15T07:51:16Z</time>
      </trkpt>
      <trkpt lat="47.28642" lon="-2.36103">
        <ele>105</ele>
        <time>2019-09-15T07:51:18Z</time>
      </trkpt>
      <trkpt lat="47.28646" lon="-2.36096">
        <ele>103</ele>
        <time>2019-09-15T07:51:21Z</time>
      </trkpt>
      <trkpt lat="47.28653" lon="-2.36099">
        <ele>102</ele>
        <time>2019-09-15T07:51:24Z</time>
      </trkpt>
      <trkpt lat="47.2866" lon="-2.36108">
        <ele>102</ele>
        <time>2019-09-15T07:51:27Z</time>
      </trkpt>
      <trkpt lat="47.28664" lon="-2.36116">
        <ele>102</ele>
        <time>2019-09-15T07:51:29Z</time>
      </trkpt>
      <trkpt lat="47.28667" lon="-2.36125">
        <ele>102</ele>
        <time>2019-09-15T07:51:31Z</time>
      </trkpt>
      <trkpt lat="47.28671" lon="-2.36137">
        <ele>103</ele>
        <time>2019-09-15T07:51:33Z</time>
      </trkpt>
      <trkpt lat="47.28674" lon="-2.36142">
        <ele>102</ele>
        <time>2019-09-15T07:51:35Z</time>
      </trkpt>
      <trkpt lat="47.28676" lon="-2.3615">
        <ele>103</ele>
        <time>2019-09-15T07:51:40Z</time>
      </trkpt>
      <trkpt lat="47.28677" lon="-2.36155">
        <ele>102</ele>
        <time>2019-09-15T07:51:43Z</time>
      </trkpt>
      <trkpt lat="47.28681" lon="-2.36163">
        <ele>102</ele>
        <time>2019-09-15T07:51:47Z</time>
      </trkpt>
      <trkpt lat="47.28684" lon="-2.3617">
        <ele>102</ele>
        <time>2019-09-15T07:51:49Z</time>
      </trkpt>
      <trkpt lat="47.28688" lon="-2.36179">
        <ele>102</ele>
        <time>2019-09-15T07:51:51Z</time>
      </trkpt>
      <trkpt lat="47.28693" lon="-2.36188">
        <ele>103</ele>
        <time>2019-09-15T07:51:53Z</time>
      </trkpt>
      <trkpt lat="47.28702" lon="-2.36198">
        <ele>103</ele>
        <time>2019-09-15T07:51:56Z</time>
      </trkpt>
      <trkpt lat="47.28712" lon="-2.36203">
        <ele>103</ele>
        <time>2019-09-15T07:51:59Z</time>
      </trkpt>
      <trkpt lat="47.2872" lon="-2.36204">
        <ele>103</ele>
        <time>2019-09-15T07:52:01Z</time>
      </trkpt>
      <trkpt lat="47.28725" lon="-2.36203">
        <ele>103</ele>
        <time>2019-09-15T07:52:03Z</time>
      </trkpt>
      <trkpt lat="47.28727" lon="-2.36203">
        <ele>103</ele>
        <time>2019-09-15T07:52:04Z</time>
      </trkpt>
      <trkpt lat="47.28738" lon="-2.36199">
        <ele>102</ele>
        <time>2019-09-15T07:52:07Z</time>
      </trkpt>
      <trkpt lat="47.28743" lon="-2.36201">
        <ele>102</ele>
        <time>2019-09-15T07:52:08Z</time>
      </trkpt>
      <trkpt lat="47.28748" lon="-2.36205">
        <ele>101</ele>
        <time>2019-09-15T07:52:09Z</time>
      </trkpt>
      <trkpt lat="47.28755" lon="-2.3621">
        <ele>100</ele>
        <time>2019-09-15T07:52:10Z</time>
      </trkpt>
      <trkpt lat="47.28762" lon="-2.36212">
        <ele>100</ele>
        <time>2019-09-15T07:52:11Z</time>
      </trkpt>
      <trkpt lat="47.28769" lon="-2.3621">
        <ele>99</ele>
        <time>2019-09-15T07:52:12Z</time>
      </trkpt>
      <trkpt lat="47.28776" lon="-2.36206">
        <ele>98</ele>
        <time>2019-09-15T07:52:13Z</time>
      </trkpt>
      <trkpt lat="47.28782" lon="-2.36201">
        <ele>98</ele>
        <time>2019-09-15T07:52:14Z</time>
      </trkpt>
      <trkpt lat="47.28789" lon="-2.36197">
        <ele>96</ele>
        <time>2019-09-15T07:52:15Z</time>
      </trkpt>
      <trkpt lat="47.28795" lon="-2.36193">
        <ele>95</ele>
        <time>2019-09-15T07:52:16Z</time>
      </trkpt>
      <trkpt lat="47.28801" lon="-2.36188">
        <ele>94</ele>
        <time>2019-09-15T07:52:17Z</time>
      </trkpt>
      <trkpt lat="47.28807" lon="-2.36184">
        <ele>94</ele>
        <time>2019-09-15T07:52:18Z</time>
      </trkpt>
      <trkpt lat="47.28813" lon="-2.36179">
        <ele>93</ele>
        <time>2019-09-15T07:52:19Z</time>
      </trkpt>
      <trkpt lat="47.28818" lon="-2.36173">
        <ele>93</ele>
        <time>2019-09-15T07:52:20Z</time>
      </trkpt>
      <trkpt lat="47.28823" lon="-2.36167">
        <ele>93</ele>
        <time>2019-09-15T07:52:21Z</time>
      </trkpt>
      <trkpt lat="47.28828" lon="-2.36161">
        <ele>91</ele>
        <time>2019-09-15T07:52:22Z</time>
      </trkpt>
      <trkpt lat="47.28834" lon="-2.36154">
        <ele>90</ele>
        <time>2019-09-15T07:52:23Z</time>
      </trkpt>
      <trkpt lat="47.28838" lon="-2.36148">
        <ele>90</ele>
        <time>2019-09-15T07:52:24Z</time>
      </trkpt>
      <trkpt lat="47.28843" lon="-2.36142">
        <ele>89</ele>
        <time>2019-09-15T07:52:25Z</time>
      </trkpt>
      <trkpt lat="47.28848" lon="-2.36137">
        <ele>88</ele>
        <time>2019-09-15T07:52:26Z</time>
      </trkpt>
      <trkpt lat="47.28859" lon="-2.36125">
        <ele>88</ele>
        <time>2019-09-15T07:52:28Z</time>
      </trkpt>
      <trkpt lat="47.28863" lon="-2.36119">
        <ele>88</ele>
        <time>2019-09-15T07:52:29Z</time>
      </trkpt>
      <trkpt lat="47.28869" lon="-2.36114">
        <ele>88</ele>
        <time>2019-09-15T07:52:30Z</time>
      </trkpt>
      <trkpt lat="47.28874" lon="-2.36109">
        <ele>88</ele>
        <time>2019-09-15T07:52:31Z</time>
      </trkpt>
      <trkpt lat="47.2888" lon="-2.36103">
        <ele>88</ele>
        <time>2019-09-15T07:52:32Z</time>
      </trkpt>
      <trkpt lat="47.28885" lon="-2.36098">
        <ele>88</ele>
        <time>2019-09-15T07:52:33Z</time>
      </trkpt>
      <trkpt lat="47.2889" lon="-2.36092">
        <ele>88</ele>
        <time>2019-09-15T07:52:34Z</time>
      </trkpt>
      <trkpt lat="47.28895" lon="-2.36087">
        <ele>88</ele>
        <time>2019-09-15T07:52:35Z</time>
      </trkpt>
      <trkpt lat="47.28919" lon="-2.36067">
        <ele>88</ele>
        <time>2019-09-15T07:52:39Z</time>
      </trkpt>
      <trkpt lat="47.28925" lon="-2.36063">
        <ele>88</ele>
        <time>2019-09-15T07:52:40Z</time>
      </trkpt>
      <trkpt lat="47.28931" lon="-2.36059">
        <ele>88</ele>
        <time>2019-09-15T07:52:41Z</time>
      </trkpt>
      <trkpt lat="47.28937" lon="-2.36054">
        <ele>87</ele>
        <time>2019-09-15T07:52:42Z</time>
      </trkpt>
      <trkpt lat="47.28955" lon="-2.36043">
        <ele>88</ele>
        <time>2019-09-15T07:52:45Z</time>
      </trkpt>
      <trkpt lat="47.28961" lon="-2.36038">
        <ele>88</ele>
        <time>2019-09-15T07:52:46Z</time>
      </trkpt>
      <trkpt lat="47.28966" lon="-2.36032">
        <ele>88</ele>
        <time>2019-09-15T07:52:47Z</time>
      </trkpt>
      <trkpt lat="47.28972" lon="-2.36027">
        <ele>88</ele>
        <time>2019-09-15T07:52:48Z</time>
      </trkpt>
      <trkpt lat="47.28983" lon="-2.36016">
        <ele>88</ele>
        <time>2019-09-15T07:52:50Z</time>
      </trkpt>
      <trkpt lat="47.28989" lon="-2.36011">
        <ele>88</ele>
        <time>2019-09-15T07:52:51Z</time>
      </trkpt>
      <trkpt lat="47.28994" lon="-2.36006">
        <ele>88</ele>
        <time>2019-09-15T07:52:52Z</time>
      </trkpt>
      <trkpt lat="47.28999" lon="-2.36001">
        <ele>88</ele>
        <time>2019-09-15T07:52:53Z</time>
      </trkpt>
      <trkpt lat="47.29005" lon="-2.35995">
        <ele>88</ele>
        <time>2019-09-15T07:52:54Z</time>
      </trkpt>
      <trkpt lat="47.2901" lon="-2.35989">
        <ele>88</ele>
        <time>2019-09-15T07:52:55Z</time>
      </trkpt>
      <trkpt lat="47.29015" lon="-2.35983">
        <ele>88</ele>
        <time>2019-09-15T07:52:56Z</time>
      </trkpt>
      <trkpt lat="47.2902" lon="-2.35978">
        <ele>88</ele>
        <time>2019-09-15T07:52:57Z</time>
      </trkpt>
      <trkpt lat="47.29025" lon="-2.35973">
        <ele>88</ele>
        <time>2019-09-15T07:52:58Z</time>
      </trkpt>
      <trkpt lat="47.2903" lon="-2.35968">
        <ele>88</ele>
        <time>2019-09-15T07:52:59Z</time>
      </trkpt>
      <trkpt lat="47.29036" lon="-2.35962">
        <ele>88</ele>
        <time>2019-09-15T07:53:00Z</time>
      </trkpt>
      <trkpt lat="47.2904" lon="-2.35956">
        <ele>87</ele>
        <time>2019-09-15T07:53:01Z</time>
      </trkpt>
      <trkpt lat="47.29055" lon="-2.35939">
        <ele>87</ele>
        <time>2019-09-15T07:53:04Z</time>
      </trkpt>
      <trkpt lat="47.29064" lon="-2.35929">
        <ele>87</ele>
        <time>2019-09-15T07:53:06Z</time>
      </trkpt>
      <trkpt lat="47.29068" lon="-2.35924">
        <ele>86</ele>
        <time>2019-09-15T07:53:07Z</time>
      </trkpt>
      <trkpt lat="47.29076" lon="-2.35914">
        <ele>86</ele>
        <time>2019-09-15T07:53:09Z</time>
      </trkpt>
      <trkpt lat="47.29081" lon="-2.35909">
        <ele>86</ele>
        <time>2019-09-15T07:53:10Z</time>
      </trkpt>
      <trkpt lat="47.2909" lon="-2.35899">
        <ele>86</ele>
        <time>2019-09-15T07:53:12Z</time>
      </trkpt>
      <trkpt lat="47.29094" lon="-2.35893">
        <ele>86</ele>
        <time>2019-09-15T07:53:13Z</time>
      </trkpt>
      <trkpt lat="47.29099" lon="-2.35888">
        <ele>85</ele>
        <time>2019-09-15T07:53:14Z</time>
      </trkpt>
      <trkpt lat="47.29107" lon="-2.35877">
        <ele>85</ele>
        <time>2019-09-15T07:53:16Z</time>
      </trkpt>
      <trkpt lat="47.29117" lon="-2.35866">
        <ele>85</ele>
        <time>2019-09-15T07:53:17Z</time>
      </trkpt>
      <trkpt lat="47.29122" lon="-2.35861">
        <ele>85</ele>
        <time>2019-09-15T07:53:18Z</time>
      </trkpt>
      <trkpt lat="47.29126" lon="-2.35857">
        <ele>84</ele>
        <time>2019-09-15T07:53:20Z</time>
      </trkpt>
      <trkpt lat="47.29135" lon="-2.35847">
        <ele>84</ele>
        <time>2019-09-15T07:53:22Z</time>
      </trkpt>
      <trkpt lat="47.2914" lon="-2.35842">
        <ele>84</ele>
        <time>2019-09-15T07:53:23Z</time>
      </trkpt>
      <trkpt lat="47.29145" lon="-2.35837">
        <ele>84</ele>
        <time>2019-09-15T07:53:24Z</time>
      </trkpt>
      <trkpt lat="47.29149" lon="-2.35833">
        <ele>84</ele>
        <time>2019-09-15T07:53:25Z</time>
      </trkpt>
      <trkpt lat="47.29154" lon="-2.35829">
        <ele>84</ele>
        <time>2019-09-15T07:53:26Z</time>
      </trkpt>
      <trkpt lat="47.29159" lon="-2.35825">
        <ele>83</ele>
        <time>2019-09-15T07:53:27Z</time>
      </trkpt>
      <trkpt lat="47.29164" lon="-2.35821">
        <ele>84</ele>
        <time>2019-09-15T07:53:28Z</time>
      </trkpt>
      <trkpt lat="47.29169" lon="-2.35818">
        <ele>84</ele>
        <time>2019-09-15T07:53:29Z</time>
      </trkpt>
      <trkpt lat="47.29174" lon="-2.35816">
        <ele>84</ele>
        <time>2019-09-15T07:53:30Z</time>
      </trkpt>
      <trkpt lat="47.29179" lon="-2.35813">
        <ele>84</ele>
        <time>2019-09-15T07:53:31Z</time>
      </trkpt>
      <trkpt lat="47.29184" lon="-2.3581">
        <ele>85</ele>
        <time>2019-09-15T07:53:32Z</time>
      </trkpt>
      <trkpt lat="47.29199" lon="-2.358">
        <ele>85</ele>
        <time>2019-09-15T07:53:35Z</time>
      </trkpt>
      <trkpt lat="47.29204" lon="-2.35796">
        <ele>85</ele>
        <time>2019-09-15T07:53:36Z</time>
      </trkpt>
      <trkpt lat="47.29209" lon="-2.35792">
        <ele>85</ele>
        <time>2019-09-15T07:53:37Z</time>
      </trkpt>
      <trkpt lat="47.29213" lon="-2.35787">
        <ele>86</ele>
        <time>2019-09-15T07:53:38Z</time>
      </trkpt>
      <trkpt lat="47.29217" lon="-2.35783">
        <ele>85</ele>
        <time>2019-09-15T07:53:39Z</time>
      </trkpt>
      <trkpt lat="47.29222" lon="-2.35779">
        <ele>85</ele>
        <time>2019-09-15T07:53:40Z</time>
      </trkpt>
      <trkpt lat="47.29225" lon="-2.35776">
        <ele>85</ele>
        <time>2019-09-15T07:53:41Z</time>
      </trkpt>
      <trkpt lat="47.29229" lon="-2.35772">
        <ele>85</ele>
        <time>2019-09-15T07:53:42Z</time>
      </trkpt>
      <trkpt lat="47.29235" lon="-2.35763">
        <ele>85</ele>
        <time>2019-09-15T07:53:44Z</time>
      </trkpt>
      <trkpt lat="47.29238" lon="-2.35759">
        <ele>85</ele>
        <time>2019-09-15T07:53:45Z</time>
      </trkpt>
      <trkpt lat="47.29241" lon="-2.35756">
        <ele>85</ele>
        <time>2019-09-15T07:53:46Z</time>
      </trkpt>
      <trkpt lat="47.29246" lon="-2.35749">
        <ele>85</ele>
        <time>2019-09-15T07:53:48Z</time>
      </trkpt>
      <trkpt lat="47.2925" lon="-2.35743">
        <ele>85</ele>
        <time>2019-09-15T07:53:50Z</time>
      </trkpt>
      <trkpt lat="47.29252" lon="-2.35739">
        <ele>86</ele>
        <time>2019-09-15T07:53:53Z</time>
      </trkpt>
      <trkpt lat="47.29253" lon="-2.35735">
        <ele>86</ele>
        <time>2019-09-15T07:53:56Z</time>
      </trkpt>
      <trkpt lat="47.29258" lon="-2.35734">
        <ele>86</ele>
        <time>2019-09-15T07:53:58Z</time>
      </trkpt>
      <trkpt lat="47.29269" lon="-2.3574">
        <ele>86</ele>
        <time>2019-09-15T07:54:01Z</time>
      </trkpt>
      <trkpt lat="47.29274" lon="-2.35744">
        <ele>86</ele>
        <time>2019-09-15T07:54:02Z</time>
      </trkpt>
      <trkpt lat="47.29279" lon="-2.35746">
        <ele>86</ele>
        <time>2019-09-15T07:54:03Z</time>
      </trkpt>
      <trkpt lat="47.29283" lon="-2.3575">
        <ele>86</ele>
        <time>2019-09-15T07:54:04Z</time>
      </trkpt>
      <trkpt lat="47.29288" lon="-2.35754">
        <ele>86</ele>
        <time>2019-09-15T07:54:05Z</time>
      </trkpt>
      <trkpt lat="47.29294" lon="-2.35759">
        <ele>86</ele>
        <time>2019-09-15T07:54:06Z</time>
      </trkpt>
      <trkpt lat="47.29299" lon="-2.35763">
        <ele>86</ele>
        <time>2019-09-15T07:54:07Z</time>
      </trkpt>
      <trkpt lat="47.29309" lon="-2.35773">
        <ele>86</ele>
        <time>2019-09-15T07:54:09Z</time>
      </trkpt>
      <trkpt lat="47.29315" lon="-2.35777">
        <ele>86</ele>
        <time>2019-09-15T07:54:10Z</time>
      </trkpt>
      <trkpt lat="47.2932" lon="-2.35782">
        <ele>86</ele>
        <time>2019-09-15T07:54:11Z</time>
      </trkpt>
      <trkpt lat="47.29325" lon="-2.35786">
        <ele>86</ele>
        <time>2019-09-15T07:54:12Z</time>
      </trkpt>
      <trkpt lat="47.29336" lon="-2.35795">
        <ele>86</ele>
        <time>2019-09-15T07:54:14Z</time>
      </trkpt>
      <trkpt lat="47.2934" lon="-2.358">
        <ele>86</ele>
        <time>2019-09-15T07:54:15Z</time>
      </trkpt>
      <trkpt lat="47.29345" lon="-2.35804">
        <ele>86</ele>
        <time>2019-09-15T07:54:16Z</time>
      </trkpt>
      <trkpt lat="47.29349" lon="-2.35808">
        <ele>86</ele>
        <time>2019-09-15T07:54:17Z</time>
      </trkpt>
      <trkpt lat="47.29353" lon="-2.35811">
        <ele>85</ele>
        <time>2019-09-15T07:54:18Z</time>
      </trkpt>
      <trkpt lat="47.29359" lon="-2.35818">
        <ele>85</ele>
        <time>2019-09-15T07:54:20Z</time>
      </trkpt>
      <trkpt lat="47.29361" lon="-2.35821">
        <ele>85</ele>
        <time>2019-09-15T07:54:21Z</time>
      </trkpt>
      <trkpt lat="47.29366" lon="-2.35824">
        <ele>85</ele>
        <time>2019-09-15T07:54:23Z</time>
      </trkpt>
      <trkpt lat="47.29371" lon="-2.35825">
        <ele>85</ele>
        <time>2019-09-15T07:54:25Z</time>
      </trkpt>
      <trkpt lat="47.29376" lon="-2.3583">
        <ele>85</ele>
        <time>2019-09-15T07:54:28Z</time>
      </trkpt>
      <trkpt lat="47.29379" lon="-2.35831">
        <ele>85</ele>
        <time>2019-09-15T07:54:30Z</time>
      </trkpt>
      <trkpt lat="47.29385" lon="-2.3584">
        <ele>85</ele>
        <time>2019-09-15T07:54:33Z</time>
      </trkpt>
      <trkpt lat="47.29387" lon="-2.35843">
        <ele>85</ele>
        <time>2019-09-15T07:54:34Z</time>
      </trkpt>
      <trkpt lat="47.29396" lon="-2.35852">
        <ele>85</ele>
        <time>2019-09-15T07:54:37Z</time>
      </trkpt>
      <trkpt lat="47.29402" lon="-2.35859">
        <ele>85</ele>
        <time>2019-09-15T07:54:38Z</time>
      </trkpt>
      <trkpt lat="47.29405" lon="-2.35863">
        <ele>84</ele>
        <time>2019-09-15T07:54:39Z</time>
      </trkpt>
      <trkpt lat="47.29408" lon="-2.35866">
        <ele>84</ele>
        <time>2019-09-15T07:54:40Z</time>
      </trkpt>
      <trkpt lat="47.29411" lon="-2.35869">
        <ele>84</ele>
        <time>2019-09-15T07:54:42Z</time>
      </trkpt>
      <trkpt lat="47.29416" lon="-2.35877">
        <ele>83</ele>
        <time>2019-09-15T07:54:44Z</time>
      </trkpt>
      <trkpt lat="47.29428" lon="-2.3589">
        <ele>83</ele>
        <time>2019-09-15T07:54:48Z</time>
      </trkpt>
      <trkpt lat="47.29437" lon="-2.35895">
        <ele>83</ele>
        <time>2019-09-15T07:54:52Z</time>
      </trkpt>
      <trkpt lat="47.29444" lon="-2.35896">
        <ele>84</ele>
        <time>2019-09-15T07:54:55Z</time>
      </trkpt>
      <trkpt lat="47.29448" lon="-2.35901">
        <ele>84</ele>
        <time>2019-09-15T07:54:58Z</time>
      </trkpt>
      <trkpt lat="47.29454" lon="-2.35907">
        <ele>84</ele>
        <time>2019-09-15T07:55:00Z</time>
      </trkpt>
      <trkpt lat="47.29456" lon="-2.35913">
        <ele>85</ele>
        <time>2019-09-15T07:55:02Z</time>
      </trkpt>
      <trkpt lat="47.29459" lon="-2.35922">
        <ele>84</ele>
        <time>2019-09-15T07:55:05Z</time>
      </trkpt>
      <trkpt lat="47.2946" lon="-2.35931">
        <ele>85</ele>
        <time>2019-09-15T07:55:07Z</time>
      </trkpt>
      <trkpt lat="47.29461" lon="-2.35936">
        <ele>85</ele>
        <time>2019-09-15T07:55:08Z</time>
      </trkpt>
      <trkpt lat="47.29464" lon="-2.3595">
        <ele>85</ele>
        <time>2019-09-15T07:55:12Z</time>
      </trkpt>
      <trkpt lat="47.29466" lon="-2.35955">
        <ele>85</ele>
        <time>2019-09-15T07:55:13Z</time>
      </trkpt>
      <trkpt lat="47.2947" lon="-2.35968">
        <ele>85</ele>
        <time>2019-09-15T07:55:16Z</time>
      </trkpt>
      <trkpt lat="47.29476" lon="-2.35973">
        <ele>86</ele>
        <time>2019-09-15T07:55:17Z</time>
      </trkpt>
      <trkpt lat="47.29482" lon="-2.35969">
        <ele>86</ele>
        <time>2019-09-15T07:55:20Z</time>
      </trkpt>
      <trkpt lat="47.29492" lon="-2.35961">
        <ele>88</ele>
        <time>2019-09-15T07:55:23Z</time>
      </trkpt>
      <trkpt lat="47.29507" lon="-2.35951">
        <ele>88</ele>
        <time>2019-09-15T07:55:26Z</time>
      </trkpt>
      <trkpt lat="47.29515" lon="-2.35945">
        <ele>89</ele>
        <time>2019-09-15T07:55:28Z</time>
      </trkpt>
      <trkpt lat="47.29519" lon="-2.35942">
        <ele>88</ele>
        <time>2019-09-15T07:55:29Z</time>
      </trkpt>
      <trkpt lat="47.29523" lon="-2.35939">
        <ele>88</ele>
        <time>2019-09-15T07:55:30Z</time>
      </trkpt>
      <trkpt lat="47.29533" lon="-2.35934">
        <ele>88</ele>
        <time>2019-09-15T07:55:32Z</time>
      </trkpt>
      <trkpt lat="47.29537" lon="-2.35932">
        <ele>88</ele>
        <time>2019-09-15T07:55:33Z</time>
      </trkpt>
      <trkpt lat="47.29543" lon="-2.35929">
        <ele>88</ele>
        <time>2019-09-15T07:55:34Z</time>
      </trkpt>
      <trkpt lat="47.2956" lon="-2.3592">
        <ele>88</ele>
        <time>2019-09-15T07:55:37Z</time>
      </trkpt>
      <trkpt lat="47.29565" lon="-2.35917">
        <ele>88</ele>
        <time>2019-09-15T07:55:38Z</time>
      </trkpt>
      <trkpt lat="47.29571" lon="-2.35914">
        <ele>88</ele>
        <time>2019-09-15T07:55:39Z</time>
      </trkpt>
      <trkpt lat="47.29577" lon="-2.3591">
        <ele>88</ele>
        <time>2019-09-15T07:55:40Z</time>
      </trkpt>
      <trkpt lat="47.29583" lon="-2.35907">
        <ele>88</ele>
        <time>2019-09-15T07:55:41Z</time>
      </trkpt>
      <trkpt lat="47.29589" lon="-2.35904">
        <ele>89</ele>
        <time>2019-09-15T07:55:42Z</time>
      </trkpt>
      <trkpt lat="47.29595" lon="-2.35899">
        <ele>89</ele>
        <time>2019-09-15T07:55:43Z</time>
      </trkpt>
      <trkpt lat="47.29601" lon="-2.35895">
        <ele>90</ele>
        <time>2019-09-15T07:55:44Z</time>
      </trkpt>
      <trkpt lat="47.29607" lon="-2.3589">
        <ele>89</ele>
        <time>2019-09-15T07:55:45Z</time>
      </trkpt>
      <trkpt lat="47.29613" lon="-2.35886">
        <ele>89</ele>
        <time>2019-09-15T07:55:46Z</time>
      </trkpt>
      <trkpt lat="47.29619" lon="-2.35883">
        <ele>89</ele>
        <time>2019-09-15T07:55:47Z</time>
      </trkpt>
      <trkpt lat="47.29626" lon="-2.3588">
        <ele>89</ele>
        <time>2019-09-15T07:55:48Z</time>
      </trkpt>
      <trkpt lat="47.29632" lon="-2.35877">
        <ele>89</ele>
        <time>2019-09-15T07:55:49Z</time>
      </trkpt>
      <trkpt lat="47.29638" lon="-2.35872">
        <ele>89</ele>
        <time>2019-09-15T07:55:50Z</time>
      </trkpt>
      <trkpt lat="47.29644" lon="-2.35867">
        <ele>89</ele>
        <time>2019-09-15T07:55:51Z</time>
      </trkpt>
      <trkpt lat="47.29653" lon="-2.35853">
        <ele>90</ele>
        <time>2019-09-15T07:55:53Z</time>
      </trkpt>
      <trkpt lat="47.29656" lon="-2.35845">
        <ele>91</ele>
        <time>2019-09-15T07:55:54Z</time>
      </trkpt>
      <trkpt lat="47.29668" lon="-2.3584">
        <ele>90</ele>
        <time>2019-09-15T07:55:56Z</time>
      </trkpt>
      <trkpt lat="47.29674" lon="-2.35841">
        <ele>90</ele>
        <time>2019-09-15T07:55:57Z</time>
      </trkpt>
      <trkpt lat="47.29682" lon="-2.3584">
        <ele>90</ele>
        <time>2019-09-15T07:55:58Z</time>
      </trkpt>
      <trkpt lat="47.29695" lon="-2.35838">
        <ele>89</ele>
        <time>2019-09-15T07:56:00Z</time>
      </trkpt>
      <trkpt lat="47.29701" lon="-2.35836">
        <ele>90</ele>
        <time>2019-09-15T07:56:01Z</time>
      </trkpt>
      <trkpt lat="47.29707" lon="-2.35834">
        <ele>89</ele>
        <time>2019-09-15T07:56:02Z</time>
      </trkpt>
      <trkpt lat="47.29713" lon="-2.35831">
        <ele>89</ele>
        <time>2019-09-15T07:56:03Z</time>
      </trkpt>
      <trkpt lat="47.29719" lon="-2.35828">
        <ele>89</ele>
        <time>2019-09-15T07:56:04Z</time>
      </trkpt>
      <trkpt lat="47.29724" lon="-2.35824">
        <ele>89</ele>
        <time>2019-09-15T07:56:05Z</time>
      </trkpt>
      <trkpt lat="47.29729" lon="-2.35821">
        <ele>89</ele>
        <time>2019-09-15T07:56:06Z</time>
      </trkpt>
      <trkpt lat="47.29734" lon="-2.35818">
        <ele>90</ele>
        <time>2019-09-15T07:56:07Z</time>
      </trkpt>
      <trkpt lat="47.29739" lon="-2.35814">
        <ele>90</ele>
        <time>2019-09-15T07:56:08Z</time>
      </trkpt>
      <trkpt lat="47.29744" lon="-2.35811">
        <ele>90</ele>
        <time>2019-09-15T07:56:09Z</time>
      </trkpt>
      <trkpt lat="47.29748" lon="-2.3581">
        <ele>90</ele>
        <time>2019-09-15T07:56:10Z</time>
      </trkpt>
      <trkpt lat="47.29753" lon="-2.35807">
        <ele>90</ele>
        <time>2019-09-15T07:56:11Z</time>
      </trkpt>
      <trkpt lat="47.29758" lon="-2.35806">
        <ele>90</ele>
        <time>2019-09-15T07:56:12Z</time>
      </trkpt>
      <trkpt lat="47.29762" lon="-2.35804">
        <ele>90</ele>
        <time>2019-09-15T07:56:13Z</time>
      </trkpt>
      <trkpt lat="47.29767" lon="-2.35803">
        <ele>90</ele>
        <time>2019-09-15T07:56:14Z</time>
      </trkpt>
      <trkpt lat="47.29772" lon="-2.35801">
        <ele>90</ele>
        <time>2019-09-15T07:56:15Z</time>
      </trkpt>
      <trkpt lat="47.29777" lon="-2.35799">
        <ele>89</ele>
        <time>2019-09-15T07:56:16Z</time>
      </trkpt>
      <trkpt lat="47.29782" lon="-2.35797">
        <ele>89</ele>
        <time>2019-09-15T07:56:17Z</time>
      </trkpt>
      <trkpt lat="47.29787" lon="-2.35796">
        <ele>89</ele>
        <time>2019-09-15T07:56:18Z</time>
      </trkpt>
      <trkpt lat="47.29792" lon="-2.35794">
        <ele>89</ele>
        <time>2019-09-15T07:56:19Z</time>
      </trkpt>
      <trkpt lat="47.29796" lon="-2.35792">
        <ele>89</ele>
        <time>2019-09-15T07:56:20Z</time>
      </trkpt>
      <trkpt lat="47.29802" lon="-2.35791">
        <ele>89</ele>
        <time>2019-09-15T07:56:21Z</time>
      </trkpt>
      <trkpt lat="47.29807" lon="-2.35789">
        <ele>89</ele>
        <time>2019-09-15T07:56:22Z</time>
      </trkpt>
      <trkpt lat="47.29812" lon="-2.35787">
        <ele>89</ele>
        <time>2019-09-15T07:56:23Z</time>
      </trkpt>
      <trkpt lat="47.29817" lon="-2.35785">
        <ele>89</ele>
        <time>2019-09-15T07:56:24Z</time>
      </trkpt>
      <trkpt lat="47.29822" lon="-2.35783">
        <ele>89</ele>
        <time>2019-09-15T07:56:25Z</time>
      </trkpt>
      <trkpt lat="47.29828" lon="-2.35781">
        <ele>89</ele>
        <time>2019-09-15T07:56:26Z</time>
      </trkpt>
      <trkpt lat="47.29839" lon="-2.35777">
        <ele>89</ele>
        <time>2019-09-15T07:56:28Z</time>
      </trkpt>
      <trkpt lat="47.29845" lon="-2.35775">
        <ele>89</ele>
        <time>2019-09-15T07:56:29Z</time>
      </trkpt>
      <trkpt lat="47.29852" lon="-2.35773">
        <ele>89</ele>
        <time>2019-09-15T07:56:30Z</time>
      </trkpt>
      <trkpt lat="47.29858" lon="-2.35771">
        <ele>88</ele>
        <time>2019-09-15T07:56:31Z</time>
      </trkpt>
      <trkpt lat="47.29876" lon="-2.35765">
        <ele>88</ele>
        <time>2019-09-15T07:56:34Z</time>
      </trkpt>
      <trkpt lat="47.29882" lon="-2.35763">
        <ele>88</ele>
        <time>2019-09-15T07:56:35Z</time>
      </trkpt>
      <trkpt lat="47.29887" lon="-2.3576">
        <ele>88</ele>
        <time>2019-09-15T07:56:36Z</time>
      </trkpt>
      <trkpt lat="47.29893" lon="-2.35753">
        <ele>88</ele>
        <time>2019-09-15T07:56:38Z</time>
      </trkpt>
      <trkpt lat="47.29894" lon="-2.35741">
        <ele>89</ele>
        <time>2019-09-15T07:56:40Z</time>
      </trkpt>
      <trkpt lat="47.29887" lon="-2.35715">
        <ele>89</ele>
        <time>2019-09-15T07:56:44Z</time>
      </trkpt>
      <trkpt lat="47.29881" lon="-2.35693">
        <ele>89</ele>
        <time>2019-09-15T07:56:47Z</time>
      </trkpt>
      <trkpt lat="47.2988" lon="-2.35686">
        <ele>89</ele>
        <time>2019-09-15T07:56:48Z</time>
      </trkpt>
      <trkpt lat="47.29878" lon="-2.35678">
        <ele>89</ele>
        <time>2019-09-15T07:56:49Z</time>
      </trkpt>
      <trkpt lat="47.29874" lon="-2.35653">
        <ele>89</ele>
        <time>2019-09-15T07:56:52Z</time>
      </trkpt>
      <trkpt lat="47.29873" lon="-2.35645">
        <ele>89</ele>
        <time>2019-09-15T07:56:53Z</time>
      </trkpt>
      <trkpt lat="47.29871" lon="-2.35637">
        <ele>88</ele>
        <time>2019-09-15T07:56:54Z</time>
      </trkpt>
      <trkpt lat="47.2987" lon="-2.35629">
        <ele>88</ele>
        <time>2019-09-15T07:56:55Z</time>
      </trkpt>
      <trkpt lat="47.29868" lon="-2.35621">
        <ele>88</ele>
        <time>2019-09-15T07:56:56Z</time>
      </trkpt>
      <trkpt lat="47.29864" lon="-2.35604">
        <ele>88</ele>
        <time>2019-09-15T07:56:58Z</time>
      </trkpt>
      <trkpt lat="47.29861" lon="-2.35587">
        <ele>88</ele>
        <time>2019-09-15T07:57:00Z</time>
      </trkpt>
      <trkpt lat="47.29856" lon="-2.35574">
        <ele>87</ele>
        <time>2019-09-15T07:57:02Z</time>
      </trkpt>
      <trkpt lat="47.29854" lon="-2.35568">
        <ele>88</ele>
        <time>2019-09-15T07:57:03Z</time>
      </trkpt>
      <trkpt lat="47.29853" lon="-2.35561">
        <ele>88</ele>
        <time>2019-09-15T07:57:04Z</time>
      </trkpt>
      <trkpt lat="47.29848" lon="-2.35547">
        <ele>88</ele>
        <time>2019-09-15T07:57:06Z</time>
      </trkpt>
      <trkpt lat="47.29845" lon="-2.35534">
        <ele>88</ele>
        <time>2019-09-15T07:57:08Z</time>
      </trkpt>
      <trkpt lat="47.29843" lon="-2.35527">
        <ele>87</ele>
        <time>2019-09-15T07:57:09Z</time>
      </trkpt>
      <trkpt lat="47.2984" lon="-2.3552">
        <ele>87</ele>
        <time>2019-09-15T07:57:10Z</time>
      </trkpt>
      <trkpt lat="47.29835" lon="-2.35499">
        <ele>88</ele>
        <time>2019-09-15T07:57:12Z</time>
      </trkpt>
      <trkpt lat="47.29832" lon="-2.35485">
        <ele>88</ele>
        <time>2019-09-15T07:57:15Z</time>
      </trkpt>
      <trkpt lat="47.2983" lon="-2.35471">
        <ele>88</ele>
        <time>2019-09-15T07:57:16Z</time>
      </trkpt>
      <trkpt lat="47.29828" lon="-2.35464">
        <ele>88</ele>
        <time>2019-09-15T07:57:17Z</time>
      </trkpt>
      <trkpt lat="47.29837" lon="-2.35448">
        <ele>87</ele>
        <time>2019-09-15T07:57:20Z</time>
      </trkpt>
      <trkpt lat="47.29842" lon="-2.35442">
        <ele>87</ele>
        <time>2019-09-15T07:57:21Z</time>
      </trkpt>
      <trkpt lat="47.29852" lon="-2.3543">
        <ele>87</ele>
        <time>2019-09-15T07:57:23Z</time>
      </trkpt>
      <trkpt lat="47.29858" lon="-2.35425">
        <ele>87</ele>
        <time>2019-09-15T07:57:24Z</time>
      </trkpt>
      <trkpt lat="47.29863" lon="-2.3542">
        <ele>87</ele>
        <time>2019-09-15T07:57:25Z</time>
      </trkpt>
      <trkpt lat="47.29868" lon="-2.35415">
        <ele>87</ele>
        <time>2019-09-15T07:57:26Z</time>
      </trkpt>
      <trkpt lat="47.29885" lon="-2.35399">
        <ele>87</ele>
        <time>2019-09-15T07:57:29Z</time>
      </trkpt>
      <trkpt lat="47.29891" lon="-2.35393">
        <ele>87</ele>
        <time>2019-09-15T07:57:30Z</time>
      </trkpt>
      <trkpt lat="47.29897" lon="-2.35387">
        <ele>87</ele>
        <time>2019-09-15T07:57:31Z</time>
      </trkpt>
      <trkpt lat="47.29902" lon="-2.35381">
        <ele>87</ele>
        <time>2019-09-15T07:57:32Z</time>
      </trkpt>
      <trkpt lat="47.29907" lon="-2.35374">
        <ele>87</ele>
        <time>2019-09-15T07:57:33Z</time>
      </trkpt>
      <trkpt lat="47.29913" lon="-2.35368">
        <ele>86</ele>
        <time>2019-09-15T07:57:34Z</time>
      </trkpt>
      <trkpt lat="47.29918" lon="-2.35362">
        <ele>86</ele>
        <time>2019-09-15T07:57:36Z</time>
      </trkpt>
      <trkpt lat="47.29923" lon="-2.35357">
        <ele>86</ele>
        <time>2019-09-15T07:57:37Z</time>
      </trkpt>
      <trkpt lat="47.29928" lon="-2.3535">
        <ele>86</ele>
        <time>2019-09-15T07:57:38Z</time>
      </trkpt>
      <trkpt lat="47.29933" lon="-2.35343">
        <ele>87</ele>
        <time>2019-09-15T07:57:39Z</time>
      </trkpt>
      <trkpt lat="47.29937" lon="-2.35336">
        <ele>86</ele>
        <time>2019-09-15T07:57:40Z</time>
      </trkpt>
      <trkpt lat="47.29942" lon="-2.3533">
        <ele>86</ele>
        <time>2019-09-15T07:57:41Z</time>
      </trkpt>
      <trkpt lat="47.29951" lon="-2.35319">
        <ele>86</ele>
        <time>2019-09-15T07:57:43Z</time>
      </trkpt>
      <trkpt lat="47.29955" lon="-2.35313">
        <ele>85</ele>
        <time>2019-09-15T07:57:44Z</time>
      </trkpt>
      <trkpt lat="47.29963" lon="-2.35302">
        <ele>85</ele>
        <time>2019-09-15T07:57:46Z</time>
      </trkpt>
      <trkpt lat="47.29967" lon="-2.35297">
        <ele>85</ele>
        <time>2019-09-15T07:57:47Z</time>
      </trkpt>
      <trkpt lat="47.2997" lon="-2.35292">
        <ele>85</ele>
        <time>2019-09-15T07:57:48Z</time>
      </trkpt>
      <trkpt lat="47.29974" lon="-2.35287">
        <ele>85</ele>
        <time>2019-09-15T07:57:49Z</time>
      </trkpt>
      <trkpt lat="47.29978" lon="-2.35283">
        <ele>85</ele>
        <time>2019-09-15T07:57:50Z</time>
      </trkpt>
      <trkpt lat="47.29982" lon="-2.35278">
        <ele>84</ele>
        <time>2019-09-15T07:57:51Z</time>
      </trkpt>
      <trkpt lat="47.29985" lon="-2.35274">
        <ele>84</ele>
        <time>2019-09-15T07:57:52Z</time>
      </trkpt>
      <trkpt lat="47.2999" lon="-2.3527">
        <ele>84</ele>
        <time>2019-09-15T07:57:53Z</time>
      </trkpt>
      <trkpt lat="47.29994" lon="-2.35267">
        <ele>84</ele>
        <time>2019-09-15T07:57:54Z</time>
      </trkpt>
      <trkpt lat="47.29998" lon="-2.35263">
        <ele>84</ele>
        <time>2019-09-15T07:57:55Z</time>
      </trkpt>
      <trkpt lat="47.30002" lon="-2.3526">
        <ele>84</ele>
        <time>2019-09-15T07:57:56Z</time>
      </trkpt>
      <trkpt lat="47.30008" lon="-2.35257">
        <ele>84</ele>
        <time>2019-09-15T07:57:58Z</time>
      </trkpt>
      <trkpt lat="47.30011" lon="-2.35255">
        <ele>84</ele>
        <time>2019-09-15T07:58:00Z</time>
      </trkpt>
      <trkpt lat="47.30016" lon="-2.35252">
        <ele>83</ele>
        <time>2019-09-15T07:58:06Z</time>
      </trkpt>
      <trkpt lat="47.3002" lon="-2.35249">
        <ele>83</ele>
        <time>2019-09-15T07:58:11Z</time>
      </trkpt>
      <trkpt lat="47.30025" lon="-2.35248">
        <ele>83</ele>
        <time>2019-09-15T07:58:16Z</time>
      </trkpt>
      <trkpt lat="47.3003" lon="-2.35246">
        <ele>83</ele>
        <time>2019-09-15T07:58:18Z</time>
      </trkpt>
      <trkpt lat="47.30037" lon="-2.3524">
        <ele>83</ele>
        <time>2019-09-15T07:58:20Z</time>
      </trkpt>
      <trkpt lat="47.30042" lon="-2.35237">
        <ele>83</ele>
        <time>2019-09-15T07:58:21Z</time>
      </trkpt>
      <trkpt lat="47.30047" lon="-2.35236">
        <ele>83</ele>
        <time>2019-09-15T07:58:22Z</time>
      </trkpt>
      <trkpt lat="47.30053" lon="-2.35235">
        <ele>83</ele>
        <time>2019-09-15T07:58:23Z</time>
      </trkpt>
      <trkpt lat="47.30064" lon="-2.35228">
        <ele>83</ele>
        <time>2019-09-15T07:58:25Z</time>
      </trkpt>
      <trkpt lat="47.30074" lon="-2.35222">
        <ele>84</ele>
        <time>2019-09-15T07:58:27Z</time>
      </trkpt>
      <trkpt lat="47.3008" lon="-2.35221">
        <ele>84</ele>
        <time>2019-09-15T07:58:28Z</time>
      </trkpt>
      <trkpt lat="47.30085" lon="-2.3522">
        <ele>84</ele>
        <time>2019-09-15T07:58:29Z</time>
      </trkpt>
      <trkpt lat="47.30091" lon="-2.35218">
        <ele>85</ele>
        <time>2019-09-15T07:58:30Z</time>
      </trkpt>
      <trkpt lat="47.301" lon="-2.35213">
        <ele>85</ele>
        <time>2019-09-15T07:58:32Z</time>
      </trkpt>
      <trkpt lat="47.30105" lon="-2.35211">
        <ele>85</ele>
        <time>2019-09-15T07:58:33Z</time>
      </trkpt>
      <trkpt lat="47.30126" lon="-2.35199">
        <ele>85</ele>
        <time>2019-09-15T07:58:37Z</time>
      </trkpt>
      <trkpt lat="47.30136" lon="-2.35197">
        <ele>85</ele>
        <time>2019-09-15T07:58:39Z</time>
      </trkpt>
      <trkpt lat="47.30142" lon="-2.35196">
        <ele>86</ele>
        <time>2019-09-15T07:58:40Z</time>
      </trkpt>
      <trkpt lat="47.30147" lon="-2.35195">
        <ele>86</ele>
        <time>2019-09-15T07:58:41Z</time>
      </trkpt>
      <trkpt lat="47.30152" lon="-2.35194">
        <ele>86</ele>
        <time>2019-09-15T07:58:42Z</time>
      </trkpt>
      <trkpt lat="47.30157" lon="-2.35192">
        <ele>86</ele>
        <time>2019-09-15T07:58:43Z</time>
      </trkpt>
      <trkpt lat="47.30161" lon="-2.35189">
        <ele>86</ele>
        <time>2019-09-15T07:58:44Z</time>
      </trkpt>
      <trkpt lat="47.30166" lon="-2.35186">
        <ele>87</ele>
        <time>2019-09-15T07:58:45Z</time>
      </trkpt>
      <trkpt lat="47.30171" lon="-2.35183">
        <ele>88</ele>
        <time>2019-09-15T07:58:46Z</time>
      </trkpt>
      <trkpt lat="47.30177" lon="-2.35181">
        <ele>87</ele>
        <time>2019-09-15T07:58:47Z</time>
      </trkpt>
      <trkpt lat="47.30191" lon="-2.35179">
        <ele>87</ele>
        <time>2019-09-15T07:58:49Z</time>
      </trkpt>
      <trkpt lat="47.30196" lon="-2.35175">
        <ele>87</ele>
        <time>2019-09-15T07:58:50Z</time>
      </trkpt>
      <trkpt lat="47.30203" lon="-2.35163">
        <ele>88</ele>
        <time>2019-09-15T07:58:52Z</time>
      </trkpt>
      <trkpt lat="47.30206" lon="-2.35139">
        <ele>89</ele>
        <time>2019-09-15T07:58:55Z</time>
      </trkpt>
      <trkpt lat="47.30206" lon="-2.35131">
        <ele>89</ele>
        <time>2019-09-15T07:58:56Z</time>
      </trkpt>
      <trkpt lat="47.30206" lon="-2.35122">
        <ele>89</ele>
        <time>2019-09-15T07:58:57Z</time>
      </trkpt>
      <trkpt lat="47.30206" lon="-2.35114">
        <ele>89</ele>
        <time>2019-09-15T07:58:58Z</time>
      </trkpt>
      <trkpt lat="47.30207" lon="-2.35106">
        <ele>88</ele>
        <time>2019-09-15T07:58:59Z</time>
      </trkpt>
      <trkpt lat="47.30207" lon="-2.35098">
        <ele>88</ele>
        <time>2019-09-15T07:59:00Z</time>
      </trkpt>
      <trkpt lat="47.30208" lon="-2.3509">
        <ele>88</ele>
        <time>2019-09-15T07:59:01Z</time>
      </trkpt>
      <trkpt lat="47.30208" lon="-2.35082">
        <ele>88</ele>
        <time>2019-09-15T07:59:02Z</time>
      </trkpt>
      <trkpt lat="47.30208" lon="-2.35074">
        <ele>88</ele>
        <time>2019-09-15T07:59:03Z</time>
      </trkpt>
      <trkpt lat="47.30207" lon="-2.3505">
        <ele>88</ele>
        <time>2019-09-15T07:59:06Z</time>
      </trkpt>
      <trkpt lat="47.30207" lon="-2.35036">
        <ele>88</ele>
        <time>2019-09-15T07:59:08Z</time>
      </trkpt>
      <trkpt lat="47.30207" lon="-2.35029">
        <ele>88</ele>
        <time>2019-09-15T07:59:09Z</time>
      </trkpt>
      <trkpt lat="47.30207" lon="-2.35021">
        <ele>89</ele>
        <time>2019-09-15T07:59:10Z</time>
      </trkpt>
      <trkpt lat="47.30207" lon="-2.35008">
        <ele>89</ele>
        <time>2019-09-15T07:59:12Z</time>
      </trkpt>
      <trkpt lat="47.30207" lon="-2.34994">
        <ele>89</ele>
        <time>2019-09-15T07:59:14Z</time>
      </trkpt>
      <trkpt lat="47.30207" lon="-2.34987">
        <ele>89</ele>
        <time>2019-09-15T07:59:15Z</time>
      </trkpt>
      <trkpt lat="47.30208" lon="-2.34979">
        <ele>89</ele>
        <time>2019-09-15T07:59:16Z</time>
      </trkpt>
      <trkpt lat="47.30208" lon="-2.34972">
        <ele>89</ele>
        <time>2019-09-15T07:59:17Z</time>
      </trkpt>
      <trkpt lat="47.30209" lon="-2.34965">
        <ele>89</ele>
        <time>2019-09-15T07:59:18Z</time>
      </trkpt>
      <trkpt lat="47.3021" lon="-2.3495">
        <ele>89</ele>
        <time>2019-09-15T07:59:20Z</time>
      </trkpt>
      <trkpt lat="47.3021" lon="-2.34943">
        <ele>89</ele>
        <time>2019-09-15T07:59:21Z</time>
      </trkpt>
      <trkpt lat="47.3021" lon="-2.34936">
        <ele>89</ele>
        <time>2019-09-15T07:59:22Z</time>
      </trkpt>
      <trkpt lat="47.3021" lon="-2.34929">
        <ele>89</ele>
        <time>2019-09-15T07:59:23Z</time>
      </trkpt>
      <trkpt lat="47.30211" lon="-2.34921">
        <ele>89</ele>
        <time>2019-09-15T07:59:24Z</time>
      </trkpt>
      <trkpt lat="47.30213" lon="-2.3491">
        <ele>90</ele>
        <time>2019-09-15T07:59:26Z</time>
      </trkpt>
      <trkpt lat="47.30219" lon="-2.34905">
        <ele>90</ele>
        <time>2019-09-15T07:59:28Z</time>
      </trkpt>
      <trkpt lat="47.30223" lon="-2.34901">
        <ele>90</ele>
        <time>2019-09-15T07:59:29Z</time>
      </trkpt>
      <trkpt lat="47.30227" lon="-2.34897">
        <ele>90</ele>
        <time>2019-09-15T07:59:30Z</time>
      </trkpt>
      <trkpt lat="47.30231" lon="-2.34892">
        <ele>90</ele>
        <time>2019-09-15T07:59:31Z</time>
      </trkpt>
      <trkpt lat="47.30235" lon="-2.34887">
        <ele>90</ele>
        <time>2019-09-15T07:59:32Z</time>
      </trkpt>
      <trkpt lat="47.30239" lon="-2.34883">
        <ele>90</ele>
        <time>2019-09-15T07:59:33Z</time>
      </trkpt>
      <trkpt lat="47.30244" lon="-2.3488">
        <ele>90</ele>
        <time>2019-09-15T07:59:34Z</time>
      </trkpt>
      <trkpt lat="47.30249" lon="-2.34878">
        <ele>91</ele>
        <time>2019-09-15T07:59:35Z</time>
      </trkpt>
      <trkpt lat="47.30254" lon="-2.34876">
        <ele>91</ele>
        <time>2019-09-15T07:59:36Z</time>
      </trkpt>
      <trkpt lat="47.30258" lon="-2.34875">
        <ele>91</ele>
        <time>2019-09-15T07:59:38Z</time>
      </trkpt>
      <trkpt lat="47.30263" lon="-2.34872">
        <ele>91</ele>
        <time>2019-09-15T07:59:39Z</time>
      </trkpt>
      <trkpt lat="47.30268" lon="-2.34869">
        <ele>91</ele>
        <time>2019-09-15T07:59:40Z</time>
      </trkpt>
      <trkpt lat="47.30277" lon="-2.34863">
        <ele>92</ele>
        <time>2019-09-15T07:59:42Z</time>
      </trkpt>
      <trkpt lat="47.30281" lon="-2.34861">
        <ele>92</ele>
        <time>2019-09-15T07:59:43Z</time>
      </trkpt>
      <trkpt lat="47.30295" lon="-2.34849">
        <ele>93</ele>
        <time>2019-09-15T07:59:46Z</time>
      </trkpt>
      <trkpt lat="47.30303" lon="-2.3484">
        <ele>93</ele>
        <time>2019-09-15T07:59:48Z</time>
      </trkpt>
      <trkpt lat="47.30311" lon="-2.3483">
        <ele>93</ele>
        <time>2019-09-15T07:59:50Z</time>
      </trkpt>
      <trkpt lat="47.30314" lon="-2.34826">
        <ele>93</ele>
        <time>2019-09-15T07:59:51Z</time>
      </trkpt>
      <trkpt lat="47.30317" lon="-2.34822">
        <ele>94</ele>
        <time>2019-09-15T07:59:52Z</time>
      </trkpt>
      <trkpt lat="47.3032" lon="-2.34816">
        <ele>94</ele>
        <time>2019-09-15T07:59:53Z</time>
      </trkpt>
      <trkpt lat="47.30328" lon="-2.348">
        <ele>94</ele>
        <time>2019-09-15T07:59:56Z</time>
      </trkpt>
      <trkpt lat="47.30331" lon="-2.34794">
        <ele>94</ele>
        <time>2019-09-15T07:59:57Z</time>
      </trkpt>
      <trkpt lat="47.30335" lon="-2.34789">
        <ele>94</ele>
        <time>2019-09-15T07:59:58Z</time>
      </trkpt>
      <trkpt lat="47.3034" lon="-2.34785">
        <ele>94</ele>
        <time>2019-09-15T07:59:59Z</time>
      </trkpt>
      <trkpt lat="47.30344" lon="-2.34781">
        <ele>94</ele>
        <time>2019-09-15T08:00:00Z</time>
      </trkpt>
      <trkpt lat="47.30349" lon="-2.34777">
        <ele>94</ele>
        <time>2019-09-15T08:00:01Z</time>
      </trkpt>
      <trkpt lat="47.30358" lon="-2.34772">
        <ele>93</ele>
        <time>2019-09-15T08:00:03Z</time>
      </trkpt>
      <trkpt lat="47.30363" lon="-2.34769">
        <ele>93</ele>
        <time>2019-09-15T08:00:04Z</time>
      </trkpt>
      <trkpt lat="47.30368" lon="-2.34765">
        <ele>93</ele>
        <time>2019-09-15T08:00:05Z</time>
      </trkpt>
      <trkpt lat="47.30374" lon="-2.3476">
        <ele>93</ele>
        <time>2019-09-15T08:00:06Z</time>
      </trkpt>
      <trkpt lat="47.30379" lon="-2.34757">
        <ele>93</ele>
        <time>2019-09-15T08:00:07Z</time>
      </trkpt>
      <trkpt lat="47.30384" lon="-2.34754">
        <ele>93</ele>
        <time>2019-09-15T08:00:08Z</time>
      </trkpt>
      <trkpt lat="47.30393" lon="-2.3475">
        <ele>94</ele>
        <time>2019-09-15T08:00:10Z</time>
      </trkpt>
      <trkpt lat="47.30399" lon="-2.34746">
        <ele>94</ele>
        <time>2019-09-15T08:00:11Z</time>
      </trkpt>
      <trkpt lat="47.30413" lon="-2.34738">
        <ele>95</ele>
        <time>2019-09-15T08:00:14Z</time>
      </trkpt>
      <trkpt lat="47.30418" lon="-2.34734">
        <ele>95</ele>
        <time>2019-09-15T08:00:15Z</time>
      </trkpt>
      <trkpt lat="47.30423" lon="-2.34729">
        <ele>95</ele>
        <time>2019-09-15T08:00:16Z</time>
      </trkpt>
      <trkpt lat="47.30428" lon="-2.34725">
        <ele>95</ele>
        <time>2019-09-15T08:00:17Z</time>
      </trkpt>
      <trkpt lat="47.30433" lon="-2.34719">
        <ele>96</ele>
        <time>2019-09-15T08:00:18Z</time>
      </trkpt>
      <trkpt lat="47.30437" lon="-2.34714">
        <ele>97</ele>
        <time>2019-09-15T08:00:19Z</time>
      </trkpt>
      <trkpt lat="47.30442" lon="-2.3471">
        <ele>97</ele>
        <time>2019-09-15T08:00:20Z</time>
      </trkpt>
      <trkpt lat="47.30448" lon="-2.34706">
        <ele>97</ele>
        <time>2019-09-15T08:00:21Z</time>
      </trkpt>
      <trkpt lat="47.30458" lon="-2.34699">
        <ele>97</ele>
        <time>2019-09-15T08:00:23Z</time>
      </trkpt>
      <trkpt lat="47.30462" lon="-2.34696">
        <ele>98</ele>
        <time>2019-09-15T08:00:24Z</time>
      </trkpt>
      <trkpt lat="47.30466" lon="-2.34691">
        <ele>98</ele>
        <time>2019-09-15T08:00:25Z</time>
      </trkpt>
      <trkpt lat="47.3047" lon="-2.34686">
        <ele>98</ele>
        <time>2019-09-15T08:00:26Z</time>
      </trkpt>
      <trkpt lat="47.30475" lon="-2.34681">
        <ele>98</ele>
        <time>2019-09-15T08:00:27Z</time>
      </trkpt>
      <trkpt lat="47.30484" lon="-2.34672">
        <ele>99</ele>
        <time>2019-09-15T08:00:29Z</time>
      </trkpt>
      <trkpt lat="47.30487" lon="-2.34667">
        <ele>98</ele>
        <time>2019-09-15T08:00:30Z</time>
      </trkpt>
      <trkpt lat="47.30491" lon="-2.34664">
        <ele>98</ele>
        <time>2019-09-15T08:00:31Z</time>
      </trkpt>
      <trkpt lat="47.30498" lon="-2.34654">
        <ele>99</ele>
        <time>2019-09-15T08:00:33Z</time>
      </trkpt>
      <trkpt lat="47.30506" lon="-2.34642">
        <ele>99</ele>
        <time>2019-09-15T08:00:35Z</time>
      </trkpt>
      <trkpt lat="47.30509" lon="-2.34636">
        <ele>99</ele>
        <time>2019-09-15T08:00:36Z</time>
      </trkpt>
      <trkpt lat="47.30517" lon="-2.34626">
        <ele>100</ele>
        <time>2019-09-15T08:00:38Z</time>
      </trkpt>
      <trkpt lat="47.30521" lon="-2.34621">
        <ele>100</ele>
        <time>2019-09-15T08:00:39Z</time>
      </trkpt>
      <trkpt lat="47.30525" lon="-2.34615">
        <ele>100</ele>
        <time>2019-09-15T08:00:40Z</time>
      </trkpt>
      <trkpt lat="47.30532" lon="-2.34605">
        <ele>100</ele>
        <time>2019-09-15T08:00:42Z</time>
      </trkpt>
      <trkpt lat="47.30536" lon="-2.34599">
        <ele>100</ele>
        <time>2019-09-15T08:00:43Z</time>
      </trkpt>
      <trkpt lat="47.30539" lon="-2.34594">
        <ele>100</ele>
        <time>2019-09-15T08:00:44Z</time>
      </trkpt>
      <trkpt lat="47.30542" lon="-2.34589">
        <ele>101</ele>
        <time>2019-09-15T08:00:45Z</time>
      </trkpt>
      <trkpt lat="47.30545" lon="-2.34584">
        <ele>101</ele>
        <time>2019-09-15T08:00:46Z</time>
      </trkpt>
      <trkpt lat="47.30555" lon="-2.34569">
        <ele>102</ele>
        <time>2019-09-15T08:00:50Z</time>
      </trkpt>
      <trkpt lat="47.30561" lon="-2.34553">
        <ele>103</ele>
        <time>2019-09-15T08:00:53Z</time>
      </trkpt>
      <trkpt lat="47.3056" lon="-2.34546">
        <ele>104</ele>
        <time>2019-09-15T08:00:55Z</time>
      </trkpt>
      <trkpt lat="47.30559" lon="-2.34535">
        <ele>103</ele>
        <time>2019-09-15T08:00:58Z</time>
      </trkpt>
      <trkpt lat="47.30558" lon="-2.34525">
        <ele>103</ele>
        <time>2019-09-15T08:01:00Z</time>
      </trkpt>
      <trkpt lat="47.30553" lon="-2.34516">
        <ele>104</ele>
        <time>2019-09-15T08:01:02Z</time>
      </trkpt>
      <trkpt lat="47.30551" lon="-2.34512">
        <ele>104</ele>
        <time>2019-09-15T08:01:03Z</time>
      </trkpt>
      <trkpt lat="47.3055" lon="-2.34508">
        <ele>104</ele>
        <time>2019-09-15T08:01:04Z</time>
      </trkpt>
      <trkpt lat="47.30544" lon="-2.34496">
        <ele>104</ele>
        <time>2019-09-15T08:01:07Z</time>
      </trkpt>
      <trkpt lat="47.30539" lon="-2.3449">
        <ele>104</ele>
        <time>2019-09-15T08:01:10Z</time>
      </trkpt>
      <trkpt lat="47.30536" lon="-2.34486">
        <ele>104</ele>
        <time>2019-09-15T08:01:12Z</time>
      </trkpt>
      <trkpt lat="47.3053" lon="-2.34481">
        <ele>104</ele>
        <time>2019-09-15T08:01:14Z</time>
      </trkpt>
      <trkpt lat="47.30525" lon="-2.34469">
        <ele>104</ele>
        <time>2019-09-15T08:01:17Z</time>
      </trkpt>
      <trkpt lat="47.30522" lon="-2.34459">
        <ele>104</ele>
        <time>2019-09-15T08:01:19Z</time>
      </trkpt>
      <trkpt lat="47.30515" lon="-2.34442">
        <ele>105</ele>
        <time>2019-09-15T08:01:22Z</time>
      </trkpt>
      <trkpt lat="47.30513" lon="-2.34438">
        <ele>105</ele>
        <time>2019-09-15T08:01:23Z</time>
      </trkpt>
      <trkpt lat="47.30511" lon="-2.34426">
        <ele>105</ele>
        <time>2019-09-15T08:01:26Z</time>
      </trkpt>
      <trkpt lat="47.30512" lon="-2.34418">
        <ele>106</ele>
        <time>2019-09-15T08:01:28Z</time>
      </trkpt>
      <trkpt lat="47.30513" lon="-2.34407">
        <ele>107</ele>
        <time>2019-09-15T08:01:30Z</time>
      </trkpt>
      <trkpt lat="47.30515" lon="-2.34396">
        <ele>107</ele>
        <time>2019-09-15T08:01:32Z</time>
      </trkpt>
      <trkpt lat="47.30517" lon="-2.34383">
        <ele>107</ele>
        <time>2019-09-15T08:01:34Z</time>
      </trkpt>
      <trkpt lat="47.30518" lon="-2.34377">
        <ele>107</ele>
        <time>2019-09-15T08:01:35Z</time>
      </trkpt>
      <trkpt lat="47.30519" lon="-2.3437">
        <ele>107</ele>
        <time>2019-09-15T08:01:36Z</time>
      </trkpt>
      <trkpt lat="47.3052" lon="-2.34364">
        <ele>107</ele>
        <time>2019-09-15T08:01:37Z</time>
      </trkpt>
      <trkpt lat="47.30521" lon="-2.34347">
        <ele>107</ele>
        <time>2019-09-15T08:01:39Z</time>
      </trkpt>
      <trkpt lat="47.30522" lon="-2.34321">
        <ele>107</ele>
        <time>2019-09-15T08:01:42Z</time>
      </trkpt>
      <trkpt lat="47.30519" lon="-2.34312">
        <ele>107</ele>
        <time>2019-09-15T08:01:43Z</time>
      </trkpt>
      <trkpt lat="47.30505" lon="-2.34289">
        <ele>107</ele>
        <time>2019-09-15T08:01:47Z</time>
      </trkpt>
      <trkpt lat="47.305" lon="-2.34278">
        <ele>106</ele>
        <time>2019-09-15T08:01:49Z</time>
      </trkpt>
      <trkpt lat="47.305" lon="-2.34268">
        <ele>107</ele>
        <time>2019-09-15T08:01:51Z</time>
      </trkpt>
      <trkpt lat="47.30502" lon="-2.3426">
        <ele>107</ele>
        <time>2019-09-15T08:01:53Z</time>
      </trkpt>
      <trkpt lat="47.30505" lon="-2.34251">
        <ele>107</ele>
        <time>2019-09-15T08:01:55Z</time>
      </trkpt>
      <trkpt lat="47.30506" lon="-2.34246">
        <ele>107</ele>
        <time>2019-09-15T08:01:56Z</time>
      </trkpt>
      <trkpt lat="47.30509" lon="-2.3424">
        <ele>107</ele>
        <time>2019-09-15T08:01:57Z</time>
      </trkpt>
      <trkpt lat="47.30509" lon="-2.34233">
        <ele>106</ele>
        <time>2019-09-15T08:01:58Z</time>
      </trkpt>
      <trkpt lat="47.3051" lon="-2.34228">
        <ele>106</ele>
        <time>2019-09-15T08:01:59Z</time>
      </trkpt>
      <trkpt lat="47.30513" lon="-2.3422">
        <ele>107</ele>
        <time>2019-09-15T08:02:01Z</time>
      </trkpt>
      <trkpt lat="47.30519" lon="-2.34211">
        <ele>107</ele>
        <time>2019-09-15T08:02:03Z</time>
      </trkpt>
      <trkpt lat="47.30526" lon="-2.34204">
        <ele>107</ele>
        <time>2019-09-15T08:02:05Z</time>
      </trkpt>
      <trkpt lat="47.30532" lon="-2.342">
        <ele>106</ele>
        <time>2019-09-15T08:02:07Z</time>
      </trkpt>
      <trkpt lat="47.30535" lon="-2.34198">
        <ele>106</ele>
        <time>2019-09-15T08:02:08Z</time>
      </trkpt>
      <trkpt lat="47.30542" lon="-2.34193">
        <ele>106</ele>
        <time>2019-09-15T08:02:10Z</time>
      </trkpt>
      <trkpt lat="47.30546" lon="-2.3419">
        <ele>106</ele>
        <time>2019-09-15T08:02:11Z</time>
      </trkpt>
      <trkpt lat="47.3055" lon="-2.34185">
        <ele>106</ele>
        <time>2019-09-15T08:02:12Z</time>
      </trkpt>
      <trkpt lat="47.30555" lon="-2.34178">
        <ele>105</ele>
        <time>2019-09-15T08:02:13Z</time>
      </trkpt>
      <trkpt lat="47.3056" lon="-2.34171">
        <ele>105</ele>
        <time>2019-09-15T08:02:14Z</time>
      </trkpt>
      <trkpt lat="47.30565" lon="-2.34166">
        <ele>104</ele>
        <time>2019-09-15T08:02:15Z</time>
      </trkpt>
      <trkpt lat="47.3057" lon="-2.34158">
        <ele>103</ele>
        <time>2019-09-15T08:02:16Z</time>
      </trkpt>
      <trkpt lat="47.30575" lon="-2.34151">
        <ele>102</ele>
        <time>2019-09-15T08:02:17Z</time>
      </trkpt>
      <trkpt lat="47.30578" lon="-2.34143">
        <ele>101</ele>
        <time>2019-09-15T08:02:18Z</time>
      </trkpt>
      <trkpt lat="47.30582" lon="-2.34136">
        <ele>101</ele>
        <time>2019-09-15T08:02:19Z</time>
      </trkpt>
      <trkpt lat="47.30585" lon="-2.3413">
        <ele>100</ele>
        <time>2019-09-15T08:02:20Z</time>
      </trkpt>
      <trkpt lat="47.30587" lon="-2.34123">
        <ele>99</ele>
        <time>2019-09-15T08:02:21Z</time>
      </trkpt>
      <trkpt lat="47.30589" lon="-2.34117">
        <ele>98</ele>
        <time>2019-09-15T08:02:22Z</time>
      </trkpt>
      <trkpt lat="47.30591" lon="-2.34111">
        <ele>97</ele>
        <time>2019-09-15T08:02:23Z</time>
      </trkpt>
      <trkpt lat="47.30594" lon="-2.34105">
        <ele>97</ele>
        <time>2019-09-15T08:02:24Z</time>
      </trkpt>
      <trkpt lat="47.30597" lon="-2.341">
        <ele>96</ele>
        <time>2019-09-15T08:02:25Z</time>
      </trkpt>
      <trkpt lat="47.30599" lon="-2.34095">
        <ele>96</ele>
        <time>2019-09-15T08:02:26Z</time>
      </trkpt>
      <trkpt lat="47.30606" lon="-2.34088">
        <ele>95</ele>
        <time>2019-09-15T08:02:28Z</time>
      </trkpt>
      <trkpt lat="47.30609" lon="-2.34084">
        <ele>94</ele>
        <time>2019-09-15T08:02:29Z</time>
      </trkpt>
      <trkpt lat="47.30616" lon="-2.3408">
        <ele>94</ele>
        <time>2019-09-15T08:02:31Z</time>
      </trkpt>
      <trkpt lat="47.30619" lon="-2.34077">
        <ele>94</ele>
        <time>2019-09-15T08:02:32Z</time>
      </trkpt>
      <trkpt lat="47.30622" lon="-2.34075">
        <ele>94</ele>
        <time>2019-09-15T08:02:33Z</time>
      </trkpt>
      <trkpt lat="47.30625" lon="-2.34074">
        <ele>95</ele>
        <time>2019-09-15T08:02:34Z</time>
      </trkpt>
      <trkpt lat="47.30628" lon="-2.34072">
        <ele>95</ele>
        <time>2019-09-15T08:02:35Z</time>
      </trkpt>
      <trkpt lat="47.3063" lon="-2.34071">
        <ele>94</ele>
        <time>2019-09-15T08:02:36Z</time>
      </trkpt>
      <trkpt lat="47.30636" lon="-2.34067">
        <ele>94</ele>
        <time>2019-09-15T08:02:38Z</time>
      </trkpt>
      <trkpt lat="47.30642" lon="-2.34062">
        <ele>94</ele>
        <time>2019-09-15T08:02:40Z</time>
      </trkpt>
      <trkpt lat="47.30645" lon="-2.3406">
        <ele>94</ele>
        <time>2019-09-15T08:02:41Z</time>
      </trkpt>
      <trkpt lat="47.30649" lon="-2.34058">
        <ele>93</ele>
        <time>2019-09-15T08:02:42Z</time>
      </trkpt>
      <trkpt lat="47.30652" lon="-2.34056">
        <ele>93</ele>
        <time>2019-09-15T08:02:43Z</time>
      </trkpt>
      <trkpt lat="47.30655" lon="-2.34054">
        <ele>93</ele>
        <time>2019-09-15T08:02:44Z</time>
      </trkpt>
      <trkpt lat="47.3066" lon="-2.34048">
        <ele>92</ele>
        <time>2019-09-15T08:02:46Z</time>
      </trkpt>
      <trkpt lat="47.30663" lon="-2.34046">
        <ele>92</ele>
        <time>2019-09-15T08:02:47Z</time>
      </trkpt>
      <trkpt lat="47.30665" lon="-2.34043">
        <ele>92</ele>
        <time>2019-09-15T08:02:48Z</time>
      </trkpt>
      <trkpt lat="47.30673" lon="-2.34033">
        <ele>92</ele>
        <time>2019-09-15T08:02:51Z</time>
      </trkpt>
      <trkpt lat="47.30679" lon="-2.3403">
        <ele>92</ele>
        <time>2019-09-15T08:02:53Z</time>
      </trkpt>
      <trkpt lat="47.30681" lon="-2.34028">
        <ele>91</ele>
        <time>2019-09-15T08:02:54Z</time>
      </trkpt>
      <trkpt lat="47.30686" lon="-2.34028">
        <ele>91</ele>
        <time>2019-09-15T08:02:56Z</time>
      </trkpt>
      <trkpt lat="47.30693" lon="-2.34026">
        <ele>91</ele>
        <time>2019-09-15T08:02:58Z</time>
      </trkpt>
      <trkpt lat="47.30696" lon="-2.34026">
        <ele>91</ele>
        <time>2019-09-15T08:02:59Z</time>
      </trkpt>
      <trkpt lat="47.30699" lon="-2.34025">
        <ele>91</ele>
        <time>2019-09-15T08:03:00Z</time>
      </trkpt>
      <trkpt lat="47.30702" lon="-2.34024">
        <ele>91</ele>
        <time>2019-09-15T08:03:01Z</time>
      </trkpt>
      <trkpt lat="47.30705" lon="-2.34024">
        <ele>90</ele>
        <time>2019-09-15T08:03:02Z</time>
      </trkpt>
      <trkpt lat="47.30708" lon="-2.34024">
        <ele>90</ele>
        <time>2019-09-15T08:03:03Z</time>
      </trkpt>
      <trkpt lat="47.30714" lon="-2.34022">
        <ele>90</ele>
        <time>2019-09-15T08:03:05Z</time>
      </trkpt>
      <trkpt lat="47.30716" lon="-2.34015">
        <ele>90</ele>
        <time>2019-09-15T08:03:07Z</time>
      </trkpt>
      <trkpt lat="47.30718" lon="-2.34006">
        <ele>90</ele>
        <time>2019-09-15T08:03:09Z</time>
      </trkpt>
      <trkpt lat="47.30719" lon="-2.33997">
        <ele>90</ele>
        <time>2019-09-15T08:03:11Z</time>
      </trkpt>
      <trkpt lat="47.30725" lon="-2.33991">
        <ele>90</ele>
        <time>2019-09-15T08:03:13Z</time>
      </trkpt>
      <trkpt lat="47.3073" lon="-2.33987">
        <ele>90</ele>
        <time>2019-09-15T08:03:14Z</time>
      </trkpt>
      <trkpt lat="47.30735" lon="-2.33984">
        <ele>89</ele>
        <time>2019-09-15T08:03:15Z</time>
      </trkpt>
      <trkpt lat="47.30745" lon="-2.33978">
        <ele>89</ele>
        <time>2019-09-15T08:03:17Z</time>
      </trkpt>
      <trkpt lat="47.3075" lon="-2.33976">
        <ele>90</ele>
        <time>2019-09-15T08:03:18Z</time>
      </trkpt>
      <trkpt lat="47.30755" lon="-2.33974">
        <ele>90</ele>
        <time>2019-09-15T08:03:19Z</time>
      </trkpt>
      <trkpt lat="47.3076" lon="-2.33973">
        <ele>90</ele>
        <time>2019-09-15T08:03:20Z</time>
      </trkpt>
      <trkpt lat="47.30766" lon="-2.33973">
        <ele>90</ele>
        <time>2019-09-15T08:03:21Z</time>
      </trkpt>
      <trkpt lat="47.30771" lon="-2.33972">
        <ele>90</ele>
        <time>2019-09-15T08:03:22Z</time>
      </trkpt>
      <trkpt lat="47.30783" lon="-2.3397">
        <ele>91</ele>
        <time>2019-09-15T08:03:24Z</time>
      </trkpt>
      <trkpt lat="47.30789" lon="-2.33969">
        <ele>90</ele>
        <time>2019-09-15T08:03:25Z</time>
      </trkpt>
      <trkpt lat="47.30794" lon="-2.33968">
        <ele>90</ele>
        <time>2019-09-15T08:03:26Z</time>
      </trkpt>
      <trkpt lat="47.30799" lon="-2.33967">
        <ele>90</ele>
        <time>2019-09-15T08:03:27Z</time>
      </trkpt>
      <trkpt lat="47.30804" lon="-2.33967">
        <ele>90</ele>
        <time>2019-09-15T08:03:28Z</time>
      </trkpt>
      <trkpt lat="47.30809" lon="-2.33965">
        <ele>90</ele>
        <time>2019-09-15T08:03:29Z</time>
      </trkpt>
      <trkpt lat="47.30816" lon="-2.33964">
        <ele>90</ele>
        <time>2019-09-15T08:03:30Z</time>
      </trkpt>
      <trkpt lat="47.30827" lon="-2.33961">
        <ele>90</ele>
        <time>2019-09-15T08:03:32Z</time>
      </trkpt>
      <trkpt lat="47.30833" lon="-2.3396">
        <ele>90</ele>
        <time>2019-09-15T08:03:33Z</time>
      </trkpt>
      <trkpt lat="47.30838" lon="-2.33958">
        <ele>90</ele>
        <time>2019-09-15T08:03:34Z</time>
      </trkpt>
      <trkpt lat="47.30844" lon="-2.33957">
        <ele>90</ele>
        <time>2019-09-15T08:03:35Z</time>
      </trkpt>
      <trkpt lat="47.3085" lon="-2.33956">
        <ele>91</ele>
        <time>2019-09-15T08:03:36Z</time>
      </trkpt>
      <trkpt lat="47.30856" lon="-2.33956">
        <ele>91</ele>
        <time>2019-09-15T08:03:37Z</time>
      </trkpt>
      <trkpt lat="47.30863" lon="-2.33955">
        <ele>91</ele>
        <time>2019-09-15T08:03:38Z</time>
      </trkpt>
      <trkpt lat="47.30868" lon="-2.33954">
        <ele>91</ele>
        <time>2019-09-15T08:03:39Z</time>
      </trkpt>
      <trkpt lat="47.30874" lon="-2.33954">
        <ele>91</ele>
        <time>2019-09-15T08:03:40Z</time>
      </trkpt>
      <trkpt lat="47.30879" lon="-2.33953">
        <ele>92</ele>
        <time>2019-09-15T08:03:41Z</time>
      </trkpt>
      <trkpt lat="47.30885" lon="-2.33951">
        <ele>91</ele>
        <time>2019-09-15T08:03:42Z</time>
      </trkpt>
      <trkpt lat="47.3089" lon="-2.3395">
        <ele>91</ele>
        <time>2019-09-15T08:03:43Z</time>
      </trkpt>
      <trkpt lat="47.30896" lon="-2.33948">
        <ele>91</ele>
        <time>2019-09-15T08:03:44Z</time>
      </trkpt>
      <trkpt lat="47.30906" lon="-2.33947">
        <ele>91</ele>
        <time>2019-09-15T08:03:46Z</time>
      </trkpt>
      <trkpt lat="47.30912" lon="-2.33947">
        <ele>92</ele>
        <time>2019-09-15T08:03:47Z</time>
      </trkpt>
      <trkpt lat="47.30918" lon="-2.33949">
        <ele>92</ele>
        <time>2019-09-15T08:03:48Z</time>
      </trkpt>
      <trkpt lat="47.30923" lon="-2.33949">
        <ele>92</ele>
        <time>2019-09-15T08:03:49Z</time>
      </trkpt>
      <trkpt lat="47.30929" lon="-2.3395">
        <ele>92</ele>
        <time>2019-09-15T08:03:50Z</time>
      </trkpt>
      <trkpt lat="47.30941" lon="-2.33952">
        <ele>92</ele>
        <time>2019-09-15T08:03:52Z</time>
      </trkpt>
      <trkpt lat="47.30947" lon="-2.33953">
        <ele>92</ele>
        <time>2019-09-15T08:03:53Z</time>
      </trkpt>
      <trkpt lat="47.30952" lon="-2.33954">
        <ele>91</ele>
        <time>2019-09-15T08:03:54Z</time>
      </trkpt>
      <trkpt lat="47.30958" lon="-2.33954">
        <ele>91</ele>
        <time>2019-09-15T08:03:55Z</time>
      </trkpt>
      <trkpt lat="47.30964" lon="-2.33956">
        <ele>91</ele>
        <time>2019-09-15T08:03:56Z</time>
      </trkpt>
      <trkpt lat="47.30969" lon="-2.33956">
        <ele>91</ele>
        <time>2019-09-15T08:03:57Z</time>
      </trkpt>
      <trkpt lat="47.30975" lon="-2.33957">
        <ele>91</ele>
        <time>2019-09-15T08:03:58Z</time>
      </trkpt>
      <trkpt lat="47.3098" lon="-2.33957">
        <ele>90</ele>
        <time>2019-09-15T08:03:59Z</time>
      </trkpt>
      <trkpt lat="47.30985" lon="-2.33956">
        <ele>90</ele>
        <time>2019-09-15T08:04:00Z</time>
      </trkpt>
      <trkpt lat="47.30995" lon="-2.33955">
        <ele>90</ele>
        <time>2019-09-15T08:04:02Z</time>
      </trkpt>
      <trkpt lat="47.31" lon="-2.33954">
        <ele>90</ele>
        <time>2019-09-15T08:04:03Z</time>
      </trkpt>
      <trkpt lat="47.31005" lon="-2.33954">
        <ele>89</ele>
        <time>2019-09-15T08:04:04Z</time>
      </trkpt>
      <trkpt lat="47.31011" lon="-2.33954">
        <ele>89</ele>
        <time>2019-09-15T08:04:05Z</time>
      </trkpt>
      <trkpt lat="47.31016" lon="-2.33954">
        <ele>89</ele>
        <time>2019-09-15T08:04:06Z</time>
      </trkpt>
      <trkpt lat="47.31022" lon="-2.33953">
        <ele>90</ele>
        <time>2019-09-15T08:04:07Z</time>
      </trkpt>
      <trkpt lat="47.31027" lon="-2.33952">
        <ele>90</ele>
        <time>2019-09-15T08:04:08Z</time>
      </trkpt>
      <trkpt lat="47.31033" lon="-2.33951">
        <ele>89</ele>
        <time>2019-09-15T08:04:09Z</time>
      </trkpt>
      <trkpt lat="47.31039" lon="-2.33949">
        <ele>90</ele>
        <time>2019-09-15T08:04:10Z</time>
      </trkpt>
      <trkpt lat="47.3105" lon="-2.33948">
        <ele>89</ele>
        <time>2019-09-15T08:04:12Z</time>
      </trkpt>
      <trkpt lat="47.31055" lon="-2.33951">
        <ele>89</ele>
        <time>2019-09-15T08:04:13Z</time>
      </trkpt>
      <trkpt lat="47.31061" lon="-2.33962">
        <ele>88</ele>
        <time>2019-09-15T08:04:14Z</time>
      </trkpt>
      <trkpt lat="47.31062" lon="-2.33979">
        <ele>88</ele>
        <time>2019-09-15T08:04:17Z</time>
      </trkpt>
      <trkpt lat="47.31063" lon="-2.33996">
        <ele>87</ele>
        <time>2019-09-15T08:04:18Z</time>
      </trkpt>
      <trkpt lat="47.31063" lon="-2.34005">
        <ele>87</ele>
        <time>2019-09-15T08:04:19Z</time>
      </trkpt>
      <trkpt lat="47.31064" lon="-2.34014">
        <ele>87</ele>
        <time>2019-09-15T08:04:21Z</time>
      </trkpt>
      <trkpt lat="47.31064" lon="-2.34024">
        <ele>87</ele>
        <time>2019-09-15T08:04:22Z</time>
      </trkpt>
      <trkpt lat="47.31067" lon="-2.34042">
        <ele>87</ele>
        <time>2019-09-15T08:04:23Z</time>
      </trkpt>
      <trkpt lat="47.31069" lon="-2.34052">
        <ele>86</ele>
        <time>2019-09-15T08:04:25Z</time>
      </trkpt>
      <trkpt lat="47.31071" lon="-2.34062">
        <ele>86</ele>
        <time>2019-09-15T08:04:26Z</time>
      </trkpt>
      <trkpt lat="47.31077" lon="-2.34081">
        <ele>85</ele>
        <time>2019-09-15T08:04:28Z</time>
      </trkpt>
      <trkpt lat="47.3108" lon="-2.34091">
        <ele>85</ele>
        <time>2019-09-15T08:04:29Z</time>
      </trkpt>
      <trkpt lat="47.31084" lon="-2.34101">
        <ele>85</ele>
        <time>2019-09-15T08:04:30Z</time>
      </trkpt>
      <trkpt lat="47.31093" lon="-2.3412">
        <ele>84</ele>
        <time>2019-09-15T08:04:32Z</time>
      </trkpt>
      <trkpt lat="47.31098" lon="-2.34131">
        <ele>84</ele>
        <time>2019-09-15T08:04:33Z</time>
      </trkpt>
      <trkpt lat="47.31103" lon="-2.34141">
        <ele>84</ele>
        <time>2019-09-15T08:04:34Z</time>
      </trkpt>
      <trkpt lat="47.3112" lon="-2.34174">
        <ele>83</ele>
        <time>2019-09-15T08:04:37Z</time>
      </trkpt>
      <trkpt lat="47.31125" lon="-2.34185">
        <ele>82</ele>
        <time>2019-09-15T08:04:38Z</time>
      </trkpt>
      <trkpt lat="47.31131" lon="-2.34197">
        <ele>81</ele>
        <time>2019-09-15T08:04:39Z</time>
      </trkpt>
      <trkpt lat="47.31137" lon="-2.34208">
        <ele>80</ele>
        <time>2019-09-15T08:04:40Z</time>
      </trkpt>
      <trkpt lat="47.31144" lon="-2.34219">
        <ele>79</ele>
        <time>2019-09-15T08:04:41Z</time>
      </trkpt>
      <trkpt lat="47.3115" lon="-2.3423">
        <ele>78</ele>
        <time>2019-09-15T08:04:42Z</time>
      </trkpt>
      <trkpt lat="47.31156" lon="-2.34242">
        <ele>77</ele>
        <time>2019-09-15T08:04:43Z</time>
      </trkpt>
      <trkpt lat="47.31162" lon="-2.34254">
        <ele>77</ele>
        <time>2019-09-15T08:04:44Z</time>
      </trkpt>
      <trkpt lat="47.31167" lon="-2.34266">
        <ele>76</ele>
        <time>2019-09-15T08:04:45Z</time>
      </trkpt>
      <trkpt lat="47.31177" lon="-2.34289">
        <ele>75</ele>
        <time>2019-09-15T08:04:47Z</time>
      </trkpt>
      <trkpt lat="47.31192" lon="-2.34321">
        <ele>74</ele>
        <time>2019-09-15T08:04:50Z</time>
      </trkpt>
      <trkpt lat="47.31198" lon="-2.3433">
        <ele>74</ele>
        <time>2019-09-15T08:04:51Z</time>
      </trkpt>
      <trkpt lat="47.31212" lon="-2.34343">
        <ele>74</ele>
        <time>2019-09-15T08:04:53Z</time>
      </trkpt>
      <trkpt lat="47.31233" lon="-2.34353">
        <ele>74</ele>
        <time>2019-09-15T08:04:56Z</time>
      </trkpt>
      <trkpt lat="47.3124" lon="-2.34356">
        <ele>75</ele>
        <time>2019-09-15T08:04:57Z</time>
      </trkpt>
      <trkpt lat="47.31247" lon="-2.34361">
        <ele>75</ele>
        <time>2019-09-15T08:04:58Z</time>
      </trkpt>
      <trkpt lat="47.31252" lon="-2.34367">
        <ele>75</ele>
        <time>2019-09-15T08:04:59Z</time>
      </trkpt>
      <trkpt lat="47.31267" lon="-2.34402">
        <ele>75</ele>
        <time>2019-09-15T08:05:03Z</time>
      </trkpt>
      <trkpt lat="47.3127" lon="-2.34421">
        <ele>75</ele>
        <time>2019-09-15T08:05:05Z</time>
      </trkpt>
      <trkpt lat="47.31271" lon="-2.34431">
        <ele>75</ele>
        <time>2019-09-15T08:05:06Z</time>
      </trkpt>
      <trkpt lat="47.31273" lon="-2.34449">
        <ele>75</ele>
        <time>2019-09-15T08:05:08Z</time>
      </trkpt>
      <trkpt lat="47.31273" lon="-2.34459">
        <ele>75</ele>
        <time>2019-09-15T08:05:09Z</time>
      </trkpt>
      <trkpt lat="47.31274" lon="-2.34468">
        <ele>75</ele>
        <time>2019-09-15T08:05:10Z</time>
      </trkpt>
      <trkpt lat="47.31275" lon="-2.34479">
        <ele>75</ele>
        <time>2019-09-15T08:05:11Z</time>
      </trkpt>
      <trkpt lat="47.31276" lon="-2.34488">
        <ele>74</ele>
        <time>2019-09-15T08:05:12Z</time>
      </trkpt>
      <trkpt lat="47.31278" lon="-2.34507">
        <ele>74</ele>
        <time>2019-09-15T08:05:14Z</time>
      </trkpt>
      <trkpt lat="47.3128" lon="-2.34517">
        <ele>74</ele>
        <time>2019-09-15T08:05:15Z</time>
      </trkpt>
      <trkpt lat="47.31281" lon="-2.34528">
        <ele>74</ele>
        <time>2019-09-15T08:05:16Z</time>
      </trkpt>
      <trkpt lat="47.31283" lon="-2.34538">
        <ele>74</ele>
        <time>2019-09-15T08:05:17Z</time>
      </trkpt>
      <trkpt lat="47.31286" lon="-2.34568">
        <ele>75</ele>
        <time>2019-09-15T08:05:20Z</time>
      </trkpt>
      <trkpt lat="47.31287" lon="-2.34578">
        <ele>76</ele>
        <time>2019-09-15T08:05:21Z</time>
      </trkpt>
      <trkpt lat="47.31288" lon="-2.34587">
        <ele>76</ele>
        <time>2019-09-15T08:05:22Z</time>
      </trkpt>
      <trkpt lat="47.31289" lon="-2.34597">
        <ele>76</ele>
        <time>2019-09-15T08:05:23Z</time>
      </trkpt>
      <trkpt lat="47.3129" lon="-2.34606">
        <ele>76</ele>
        <time>2019-09-15T08:05:24Z</time>
      </trkpt>
      <trkpt lat="47.31292" lon="-2.34624">
        <ele>77</ele>
        <time>2019-09-15T08:05:26Z</time>
      </trkpt>
      <trkpt lat="47.31293" lon="-2.3464">
        <ele>77</ele>
        <time>2019-09-15T08:05:28Z</time>
      </trkpt>
      <trkpt lat="47.31294" lon="-2.34648">
        <ele>77</ele>
        <time>2019-09-15T08:05:29Z</time>
      </trkpt>
      <trkpt lat="47.31296" lon="-2.3466">
        <ele>77</ele>
        <time>2019-09-15T08:05:31Z</time>
      </trkpt>
      <trkpt lat="47.31295" lon="-2.34667">
        <ele>77</ele>
        <time>2019-09-15T08:05:32Z</time>
      </trkpt>
      <trkpt lat="47.31294" lon="-2.34674">
        <ele>78</ele>
        <time>2019-09-15T08:05:33Z</time>
      </trkpt>
      <trkpt lat="47.31292" lon="-2.34681">
        <ele>78</ele>
        <time>2019-09-15T08:05:34Z</time>
      </trkpt>
      <trkpt lat="47.3129" lon="-2.34688">
        <ele>78</ele>
        <time>2019-09-15T08:05:35Z</time>
      </trkpt>
      <trkpt lat="47.31286" lon="-2.34693">
        <ele>78</ele>
        <time>2019-09-15T08:05:36Z</time>
      </trkpt>
      <trkpt lat="47.31283" lon="-2.34697">
        <ele>78</ele>
        <time>2019-09-15T08:05:37Z</time>
      </trkpt>
      <trkpt lat="47.3128" lon="-2.34701">
        <ele>78</ele>
        <time>2019-09-15T08:05:38Z</time>
      </trkpt>
      <trkpt lat="47.31278" lon="-2.34712">
        <ele>77</ele>
        <time>2019-09-15T08:05:40Z</time>
      </trkpt>
      <trkpt lat="47.3128" lon="-2.34731">
        <ele>78</ele>
        <time>2019-09-15T08:05:43Z</time>
      </trkpt>
      <trkpt lat="47.31282" lon="-2.34751">
        <ele>79</ele>
        <time>2019-09-15T08:05:46Z</time>
      </trkpt>
      <trkpt lat="47.31285" lon="-2.34764">
        <ele>79</ele>
        <time>2019-09-15T08:05:48Z</time>
      </trkpt>
      <trkpt lat="47.31286" lon="-2.3477">
        <ele>79</ele>
        <time>2019-09-15T08:05:49Z</time>
      </trkpt>
      <trkpt lat="47.31287" lon="-2.34777">
        <ele>79</ele>
        <time>2019-09-15T08:05:50Z</time>
      </trkpt>
      <trkpt lat="47.31289" lon="-2.34791">
        <ele>79</ele>
        <time>2019-09-15T08:05:52Z</time>
      </trkpt>
      <trkpt lat="47.31292" lon="-2.34805">
        <ele>79</ele>
        <time>2019-09-15T08:05:54Z</time>
      </trkpt>
      <trkpt lat="47.31293" lon="-2.34812">
        <ele>79</ele>
        <time>2019-09-15T08:05:55Z</time>
      </trkpt>
      <trkpt lat="47.31294" lon="-2.34819">
        <ele>79</ele>
        <time>2019-09-15T08:05:56Z</time>
      </trkpt>
      <trkpt lat="47.31296" lon="-2.34825">
        <ele>79</ele>
        <time>2019-09-15T08:05:57Z</time>
      </trkpt>
      <trkpt lat="47.31297" lon="-2.34832">
        <ele>79</ele>
        <time>2019-09-15T08:05:58Z</time>
      </trkpt>
      <trkpt lat="47.31301" lon="-2.34846">
        <ele>79</ele>
        <time>2019-09-15T08:06:00Z</time>
      </trkpt>
      <trkpt lat="47.31302" lon="-2.34854">
        <ele>79</ele>
        <time>2019-09-15T08:06:01Z</time>
      </trkpt>
      <trkpt lat="47.31304" lon="-2.34862">
        <ele>79</ele>
        <time>2019-09-15T08:06:02Z</time>
      </trkpt>
      <trkpt lat="47.31306" lon="-2.34869">
        <ele>79</ele>
        <time>2019-09-15T08:06:03Z</time>
      </trkpt>
      <trkpt lat="47.3131" lon="-2.34884">
        <ele>79</ele>
        <time>2019-09-15T08:06:05Z</time>
      </trkpt>
      <trkpt lat="47.31312" lon="-2.34891">
        <ele>80</ele>
        <time>2019-09-15T08:06:06Z</time>
      </trkpt>
      <trkpt lat="47.31315" lon="-2.34898">
        <ele>80</ele>
        <time>2019-09-15T08:06:07Z</time>
      </trkpt>
      <trkpt lat="47.31317" lon="-2.34906">
        <ele>80</ele>
        <time>2019-09-15T08:06:08Z</time>
      </trkpt>
      <trkpt lat="47.31327" lon="-2.34936">
        <ele>80</ele>
        <time>2019-09-15T08:06:12Z</time>
      </trkpt>
      <trkpt lat="47.31329" lon="-2.34944">
        <ele>80</ele>
        <time>2019-09-15T08:06:13Z</time>
      </trkpt>
      <trkpt lat="47.31331" lon="-2.34952">
        <ele>79</ele>
        <time>2019-09-15T08:06:14Z</time>
      </trkpt>
      <trkpt lat="47.31333" lon="-2.34961">
        <ele>79</ele>
        <time>2019-09-15T08:06:15Z</time>
      </trkpt>
      <trkpt lat="47.31335" lon="-2.34969">
        <ele>79</ele>
        <time>2019-09-15T08:06:16Z</time>
      </trkpt>
      <trkpt lat="47.31338" lon="-2.34985">
        <ele>79</ele>
        <time>2019-09-15T08:06:17Z</time>
      </trkpt>
      <trkpt lat="47.31339" lon="-2.34993">
        <ele>80</ele>
        <time>2019-09-15T08:06:18Z</time>
      </trkpt>
      <trkpt lat="47.31341" lon="-2.35">
        <ele>80</ele>
        <time>2019-09-15T08:06:19Z</time>
      </trkpt>
      <trkpt lat="47.31343" lon="-2.35015">
        <ele>80</ele>
        <time>2019-09-15T08:06:21Z</time>
      </trkpt>
      <trkpt lat="47.31344" lon="-2.35023">
        <ele>80</ele>
        <time>2019-09-15T08:06:22Z</time>
      </trkpt>
      <trkpt lat="47.31344" lon="-2.35032">
        <ele>80</ele>
        <time>2019-09-15T08:06:23Z</time>
      </trkpt>
      <trkpt lat="47.31344" lon="-2.35056">
        <ele>81</ele>
        <time>2019-09-15T08:06:26Z</time>
      </trkpt>
      <trkpt lat="47.31344" lon="-2.35064">
        <ele>81</ele>
        <time>2019-09-15T08:06:27Z</time>
      </trkpt>
      <trkpt lat="47.31344" lon="-2.35073">
        <ele>81</ele>
        <time>2019-09-15T08:06:28Z</time>
      </trkpt>
      <trkpt lat="47.31343" lon="-2.35082">
        <ele>81</ele>
        <time>2019-09-15T08:06:29Z</time>
      </trkpt>
      <trkpt lat="47.31343" lon="-2.35092">
        <ele>81</ele>
        <time>2019-09-15T08:06:30Z</time>
      </trkpt>
      <trkpt lat="47.31343" lon="-2.351">
        <ele>81</ele>
        <time>2019-09-15T08:06:31Z</time>
      </trkpt>
      <trkpt lat="47.31343" lon="-2.35118">
        <ele>81</ele>
        <time>2019-09-15T08:06:34Z</time>
      </trkpt>
      <trkpt lat="47.31342" lon="-2.35126">
        <ele>81</ele>
        <time>2019-09-15T08:06:35Z</time>
      </trkpt>
      <trkpt lat="47.31341" lon="-2.35152">
        <ele>81</ele>
        <time>2019-09-15T08:06:38Z</time>
      </trkpt>
      <trkpt lat="47.31341" lon="-2.35161">
        <ele>81</ele>
        <time>2019-09-15T08:06:39Z</time>
      </trkpt>
      <trkpt lat="47.31341" lon="-2.35169">
        <ele>81</ele>
        <time>2019-09-15T08:06:40Z</time>
      </trkpt>
      <trkpt lat="47.3134" lon="-2.35178">
        <ele>82</ele>
        <time>2019-09-15T08:06:41Z</time>
      </trkpt>
      <trkpt lat="47.3134" lon="-2.35187">
        <ele>81</ele>
        <time>2019-09-15T08:06:42Z</time>
      </trkpt>
      <trkpt lat="47.3134" lon="-2.35196">
        <ele>81</ele>
        <time>2019-09-15T08:06:43Z</time>
      </trkpt>
      <trkpt lat="47.31339" lon="-2.35222">
        <ele>81</ele>
        <time>2019-09-15T08:06:46Z</time>
      </trkpt>
      <trkpt lat="47.31339" lon="-2.3523">
        <ele>81</ele>
        <time>2019-09-15T08:06:47Z</time>
      </trkpt>
      <trkpt lat="47.31339" lon="-2.35255">
        <ele>80</ele>
        <time>2019-09-15T08:06:50Z</time>
      </trkpt>
      <trkpt lat="47.31339" lon="-2.3527">
        <ele>80</ele>
        <time>2019-09-15T08:06:52Z</time>
      </trkpt>
      <trkpt lat="47.31339" lon="-2.35278">
        <ele>80</ele>
        <time>2019-09-15T08:06:53Z</time>
      </trkpt>
      <trkpt lat="47.31338" lon="-2.35286">
        <ele>81</ele>
        <time>2019-09-15T08:06:54Z</time>
      </trkpt>
      <trkpt lat="47.31338" lon="-2.35294">
        <ele>81</ele>
        <time>2019-09-15T08:06:55Z</time>
      </trkpt>
      <trkpt lat="47.31338" lon="-2.35303">
        <ele>81</ele>
        <time>2019-09-15T08:06:56Z</time>
      </trkpt>
      <trkpt lat="47.31337" lon="-2.35311">
        <ele>81</ele>
        <time>2019-09-15T08:06:57Z</time>
      </trkpt>
      <trkpt lat="47.31336" lon="-2.35326">
        <ele>81</ele>
        <time>2019-09-15T08:06:59Z</time>
      </trkpt>
      <trkpt lat="47.31335" lon="-2.35334">
        <ele>82</ele>
        <time>2019-09-15T08:07:00Z</time>
      </trkpt>
      <trkpt lat="47.31335" lon="-2.35342">
        <ele>82</ele>
        <time>2019-09-15T08:07:01Z</time>
      </trkpt>
      <trkpt lat="47.31335" lon="-2.3536">
        <ele>82</ele>
        <time>2019-09-15T08:07:03Z</time>
      </trkpt>
      <trkpt lat="47.31335" lon="-2.3537">
        <ele>82</ele>
        <time>2019-09-15T08:07:04Z</time>
      </trkpt>
      <trkpt lat="47.31334" lon="-2.35395">
        <ele>83</ele>
        <time>2019-09-15T08:07:07Z</time>
      </trkpt>
      <trkpt lat="47.31334" lon="-2.35402">
        <ele>83</ele>
        <time>2019-09-15T08:07:08Z</time>
      </trkpt>
      <trkpt lat="47.31334" lon="-2.35409">
        <ele>83</ele>
        <time>2019-09-15T08:07:09Z</time>
      </trkpt>
      <trkpt lat="47.31333" lon="-2.35423">
        <ele>84</ele>
        <time>2019-09-15T08:07:11Z</time>
      </trkpt>
      <trkpt lat="47.31333" lon="-2.3543">
        <ele>84</ele>
        <time>2019-09-15T08:07:12Z</time>
      </trkpt>
      <trkpt lat="47.31331" lon="-2.35449">
        <ele>84</ele>
        <time>2019-09-15T08:07:14Z</time>
      </trkpt>
      <trkpt lat="47.31331" lon="-2.35462">
        <ele>85</ele>
        <time>2019-09-15T08:07:16Z</time>
      </trkpt>
      <trkpt lat="47.3133" lon="-2.35467">
        <ele>85</ele>
        <time>2019-09-15T08:07:17Z</time>
      </trkpt>
      <trkpt lat="47.3133" lon="-2.35478">
        <ele>85</ele>
        <time>2019-09-15T08:07:20Z</time>
      </trkpt>
      <trkpt lat="47.3133" lon="-2.35485">
        <ele>86</ele>
        <time>2019-09-15T08:07:21Z</time>
      </trkpt>
      <trkpt lat="47.31328" lon="-2.35495">
        <ele>86</ele>
        <time>2019-09-15T08:07:23Z</time>
      </trkpt>
      <trkpt lat="47.31328" lon="-2.355">
        <ele>86</ele>
        <time>2019-09-15T08:07:24Z</time>
      </trkpt>
      <trkpt lat="47.31327" lon="-2.35507">
        <ele>86</ele>
        <time>2019-09-15T08:07:26Z</time>
      </trkpt>
      <trkpt lat="47.31327" lon="-2.35515">
        <ele>87</ele>
        <time>2019-09-15T08:07:27Z</time>
      </trkpt>
      <trkpt lat="47.31327" lon="-2.35522">
        <ele>87</ele>
        <time>2019-09-15T08:07:30Z</time>
      </trkpt>
      <trkpt lat="47.31327" lon="-2.3553">
        <ele>88</ele>
        <time>2019-09-15T08:07:32Z</time>
      </trkpt>
      <trkpt lat="47.3133" lon="-2.35537">
        <ele>88</ele>
        <time>2019-09-15T08:07:34Z</time>
      </trkpt>
      <trkpt lat="47.31334" lon="-2.35544">
        <ele>88</ele>
        <time>2019-09-15T08:07:36Z</time>
      </trkpt>
      <trkpt lat="47.31338" lon="-2.35547">
        <ele>87</ele>
        <time>2019-09-15T08:07:38Z</time>
      </trkpt>
      <trkpt lat="47.31344" lon="-2.35548">
        <ele>87</ele>
        <time>2019-09-15T08:07:42Z</time>
      </trkpt>
      <trkpt lat="47.3135" lon="-2.35545">
        <ele>87</ele>
        <time>2019-09-15T08:07:47Z</time>
      </trkpt>
      <trkpt lat="47.31357" lon="-2.35544">
        <ele>88</ele>
        <time>2019-09-15T08:07:52Z</time>
      </trkpt>
      <trkpt lat="47.3136" lon="-2.35543">
        <ele>88</ele>
        <time>2019-09-15T08:07:54Z</time>
      </trkpt>
      <trkpt lat="47.31366" lon="-2.3554">
        <ele>89</ele>
        <time>2019-09-15T08:07:57Z</time>
      </trkpt>
      <trkpt lat="47.3137" lon="-2.35537">
        <ele>89</ele>
        <time>2019-09-15T08:08:00Z</time>
      </trkpt>
      <trkpt lat="47.31374" lon="-2.35536">
        <ele>89</ele>
        <time>2019-09-15T08:08:02Z</time>
      </trkpt>
      <trkpt lat="47.31381" lon="-2.35537">
        <ele>90</ele>
        <time>2019-09-15T08:08:05Z</time>
      </trkpt>
      <trkpt lat="47.31383" lon="-2.35537">
        <ele>90</ele>
        <time>2019-09-15T08:08:06Z</time>
      </trkpt>
      <trkpt lat="47.31389" lon="-2.35536">
        <ele>89</ele>
        <time>2019-09-15T08:08:08Z</time>
      </trkpt>
      <trkpt lat="47.31392" lon="-2.35536">
        <ele>89</ele>
        <time>2019-09-15T08:08:09Z</time>
      </trkpt>
      <trkpt lat="47.31397" lon="-2.35535">
        <ele>90</ele>
        <time>2019-09-15T08:08:12Z</time>
      </trkpt>
      <trkpt lat="47.31401" lon="-2.35535">
        <ele>90</ele>
        <time>2019-09-15T08:08:13Z</time>
      </trkpt>
      <trkpt lat="47.31406" lon="-2.35535">
        <ele>90</ele>
        <time>2019-09-15T08:08:14Z</time>
      </trkpt>
      <trkpt lat="47.3141" lon="-2.35535">
        <ele>90</ele>
        <time>2019-09-15T08:08:15Z</time>
      </trkpt>
      <trkpt lat="47.31415" lon="-2.35532">
        <ele>90</ele>
        <time>2019-09-15T08:08:16Z</time>
      </trkpt>
      <trkpt lat="47.31421" lon="-2.35531">
        <ele>90</ele>
        <time>2019-09-15T08:08:17Z</time>
      </trkpt>
      <trkpt lat="47.31426" lon="-2.35531">
        <ele>90</ele>
        <time>2019-09-15T08:08:18Z</time>
      </trkpt>
      <trkpt lat="47.31431" lon="-2.3553">
        <ele>91</ele>
        <time>2019-09-15T08:08:19Z</time>
      </trkpt>
      <trkpt lat="47.31436" lon="-2.3553">
        <ele>92</ele>
        <time>2019-09-15T08:08:20Z</time>
      </trkpt>
      <trkpt lat="47.31441" lon="-2.3553">
        <ele>92</ele>
        <time>2019-09-15T08:08:21Z</time>
      </trkpt>
      <trkpt lat="47.31446" lon="-2.3553">
        <ele>92</ele>
        <time>2019-09-15T08:08:22Z</time>
      </trkpt>
      <trkpt lat="47.31455" lon="-2.35528">
        <ele>92</ele>
        <time>2019-09-15T08:08:24Z</time>
      </trkpt>
      <trkpt lat="47.31459" lon="-2.35527">
        <ele>92</ele>
        <time>2019-09-15T08:08:25Z</time>
      </trkpt>
      <trkpt lat="47.31464" lon="-2.35524">
        <ele>93</ele>
        <time>2019-09-15T08:08:26Z</time>
      </trkpt>
      <trkpt lat="47.31468" lon="-2.3552">
        <ele>93</ele>
        <time>2019-09-15T08:08:27Z</time>
      </trkpt>
      <trkpt lat="47.31475" lon="-2.35503">
        <ele>94</ele>
        <time>2019-09-15T08:08:30Z</time>
      </trkpt>
      <trkpt lat="47.31477" lon="-2.35496">
        <ele>94</ele>
        <time>2019-09-15T08:08:31Z</time>
      </trkpt>
      <trkpt lat="47.3148" lon="-2.35489">
        <ele>94</ele>
        <time>2019-09-15T08:08:32Z</time>
      </trkpt>
      <trkpt lat="47.31481" lon="-2.35481">
        <ele>94</ele>
        <time>2019-09-15T08:08:33Z</time>
      </trkpt>
      <trkpt lat="47.31485" lon="-2.35465">
        <ele>93</ele>
        <time>2019-09-15T08:08:35Z</time>
      </trkpt>
      <trkpt lat="47.31487" lon="-2.35456">
        <ele>92</ele>
        <time>2019-09-15T08:08:36Z</time>
      </trkpt>
      <trkpt lat="47.31494" lon="-2.35442">
        <ele>93</ele>
        <time>2019-09-15T08:08:38Z</time>
      </trkpt>
      <trkpt lat="47.31499" lon="-2.35435">
        <ele>93</ele>
        <time>2019-09-15T08:08:39Z</time>
      </trkpt>
      <trkpt lat="47.31505" lon="-2.3543">
        <ele>93</ele>
        <time>2019-09-15T08:08:40Z</time>
      </trkpt>
      <trkpt lat="47.31515" lon="-2.35422">
        <ele>93</ele>
        <time>2019-09-15T08:08:42Z</time>
      </trkpt>
      <trkpt lat="47.31521" lon="-2.35417">
        <ele>93</ele>
        <time>2019-09-15T08:08:43Z</time>
      </trkpt>
      <trkpt lat="47.31545" lon="-2.354">
        <ele>94</ele>
        <time>2019-09-15T08:08:47Z</time>
      </trkpt>
      <trkpt lat="47.3155" lon="-2.35396">
        <ele>94</ele>
        <time>2019-09-15T08:08:48Z</time>
      </trkpt>
      <trkpt lat="47.31557" lon="-2.35392">
        <ele>94</ele>
        <time>2019-09-15T08:08:49Z</time>
      </trkpt>
      <trkpt lat="47.31562" lon="-2.35388">
        <ele>94</ele>
        <time>2019-09-15T08:08:50Z</time>
      </trkpt>
      <trkpt lat="47.31568" lon="-2.35385">
        <ele>94</ele>
        <time>2019-09-15T08:08:51Z</time>
      </trkpt>
      <trkpt lat="47.31574" lon="-2.35381">
        <ele>93</ele>
        <time>2019-09-15T08:08:52Z</time>
      </trkpt>
      <trkpt lat="47.3158" lon="-2.35378">
        <ele>94</ele>
        <time>2019-09-15T08:08:53Z</time>
      </trkpt>
      <trkpt lat="47.31599" lon="-2.3537">
        <ele>93</ele>
        <time>2019-09-15T08:08:56Z</time>
      </trkpt>
      <trkpt lat="47.31605" lon="-2.35368">
        <ele>93</ele>
        <time>2019-09-15T08:08:57Z</time>
      </trkpt>
      <trkpt lat="47.31611" lon="-2.35369">
        <ele>93</ele>
        <time>2019-09-15T08:08:58Z</time>
      </trkpt>
      <trkpt lat="47.31623" lon="-2.35371">
        <ele>93</ele>
        <time>2019-09-15T08:09:00Z</time>
      </trkpt>
      <trkpt lat="47.3163" lon="-2.35373">
        <ele>93</ele>
        <time>2019-09-15T08:09:01Z</time>
      </trkpt>
      <trkpt lat="47.31638" lon="-2.35376">
        <ele>93</ele>
        <time>2019-09-15T08:09:02Z</time>
      </trkpt>
      <trkpt lat="47.31646" lon="-2.3538">
        <ele>93</ele>
        <time>2019-09-15T08:09:03Z</time>
      </trkpt>
      <trkpt lat="47.31666" lon="-2.35383">
        <ele>93</ele>
        <time>2019-09-15T08:09:06Z</time>
      </trkpt>
      <trkpt lat="47.31673" lon="-2.35383">
        <ele>93</ele>
        <time>2019-09-15T08:09:07Z</time>
      </trkpt>
      <trkpt lat="47.3168" lon="-2.35382">
        <ele>93</ele>
        <time>2019-09-15T08:09:08Z</time>
      </trkpt>
      <trkpt lat="47.31687" lon="-2.35381">
        <ele>93</ele>
        <time>2019-09-15T08:09:09Z</time>
      </trkpt>
      <trkpt lat="47.31693" lon="-2.3538">
        <ele>93</ele>
        <time>2019-09-15T08:09:10Z</time>
      </trkpt>
      <trkpt lat="47.31712" lon="-2.3538">
        <ele>93</ele>
        <time>2019-09-15T08:09:12Z</time>
      </trkpt>
      <trkpt lat="47.31719" lon="-2.3538">
        <ele>93</ele>
        <time>2019-09-15T08:09:13Z</time>
      </trkpt>
      <trkpt lat="47.31726" lon="-2.35378">
        <ele>93</ele>
        <time>2019-09-15T08:09:14Z</time>
      </trkpt>
      <trkpt lat="47.31733" lon="-2.35376">
        <ele>93</ele>
        <time>2019-09-15T08:09:16Z</time>
      </trkpt>
      <trkpt lat="47.31738" lon="-2.35375">
        <ele>93</ele>
        <time>2019-09-15T08:09:17Z</time>
      </trkpt>
      <trkpt lat="47.31747" lon="-2.35383">
        <ele>93</ele>
        <time>2019-09-15T08:09:19Z</time>
      </trkpt>
      <trkpt lat="47.31751" lon="-2.35388">
        <ele>93</ele>
        <time>2019-09-15T08:09:20Z</time>
      </trkpt>
      <trkpt lat="47.3176" lon="-2.354">
        <ele>93</ele>
        <time>2019-09-15T08:09:22Z</time>
      </trkpt>
      <trkpt lat="47.31766" lon="-2.35408">
        <ele>93</ele>
        <time>2019-09-15T08:09:23Z</time>
      </trkpt>
      <trkpt lat="47.31773" lon="-2.35416">
        <ele>93</ele>
        <time>2019-09-15T08:09:24Z</time>
      </trkpt>
      <trkpt lat="47.31778" lon="-2.35425">
        <ele>93</ele>
        <time>2019-09-15T08:09:25Z</time>
      </trkpt>
      <trkpt lat="47.31791" lon="-2.35451">
        <ele>93</ele>
        <time>2019-09-15T08:09:28Z</time>
      </trkpt>
      <trkpt lat="47.31795" lon="-2.35458">
        <ele>93</ele>
        <time>2019-09-15T08:09:29Z</time>
      </trkpt>
      <trkpt lat="47.31803" lon="-2.35472">
        <ele>93</ele>
        <time>2019-09-15T08:09:31Z</time>
      </trkpt>
      <trkpt lat="47.31811" lon="-2.35486">
        <ele>93</ele>
        <time>2019-09-15T08:09:33Z</time>
      </trkpt>
      <trkpt lat="47.31818" lon="-2.35501">
        <ele>92</ele>
        <time>2019-09-15T08:09:35Z</time>
      </trkpt>
      <trkpt lat="47.31821" lon="-2.35509">
        <ele>92</ele>
        <time>2019-09-15T08:09:36Z</time>
      </trkpt>
      <trkpt lat="47.31824" lon="-2.35517">
        <ele>92</ele>
        <time>2019-09-15T08:09:37Z</time>
      </trkpt>
      <trkpt lat="47.31827" lon="-2.35524">
        <ele>92</ele>
        <time>2019-09-15T08:09:38Z</time>
      </trkpt>
      <trkpt lat="47.3183" lon="-2.35531">
        <ele>92</ele>
        <time>2019-09-15T08:09:39Z</time>
      </trkpt>
      <trkpt lat="47.3183" lon="-2.35549">
        <ele>91</ele>
        <time>2019-09-15T08:09:42Z</time>
      </trkpt>
      <trkpt lat="47.31823" lon="-2.35555">
        <ele>92</ele>
        <time>2019-09-15T08:09:44Z</time>
      </trkpt>
      <trkpt lat="47.31815" lon="-2.35565">
        <ele>92</ele>
        <time>2019-09-15T08:09:46Z</time>
      </trkpt>
      <trkpt lat="47.31811" lon="-2.35571">
        <ele>92</ele>
        <time>2019-09-15T08:09:47Z</time>
      </trkpt>
      <trkpt lat="47.31808" lon="-2.35578">
        <ele>92</ele>
        <time>2019-09-15T08:09:48Z</time>
      </trkpt>
      <trkpt lat="47.31801" lon="-2.3559">
        <ele>91</ele>
        <time>2019-09-15T08:09:50Z</time>
      </trkpt>
      <trkpt lat="47.31794" lon="-2.35602">
        <ele>91</ele>
        <time>2019-09-15T08:09:52Z</time>
      </trkpt>
      <trkpt lat="47.31791" lon="-2.35606">
        <ele>92</ele>
        <time>2019-09-15T08:09:53Z</time>
      </trkpt>
      <trkpt lat="47.31775" lon="-2.35629">
        <ele>91</ele>
        <time>2019-09-15T08:09:57Z</time>
      </trkpt>
      <trkpt lat="47.31771" lon="-2.35648">
        <ele>91</ele>
        <time>2019-09-15T08:10:00Z</time>
      </trkpt>
      <trkpt lat="47.31771" lon="-2.35656">
        <ele>91</ele>
        <time>2019-09-15T08:10:01Z</time>
      </trkpt>
      <trkpt lat="47.3177" lon="-2.35662">
        <ele>91</ele>
        <time>2019-09-15T08:10:02Z</time>
      </trkpt>
      <trkpt lat="47.31769" lon="-2.35672">
        <ele>92</ele>
        <time>2019-09-15T08:10:04Z</time>
      </trkpt>
      <trkpt lat="47.31769" lon="-2.35692">
        <ele>92</ele>
        <time>2019-09-15T08:10:07Z</time>
      </trkpt>
      <trkpt lat="47.31769" lon="-2.35728">
        <ele>92</ele>
        <time>2019-09-15T08:10:11Z</time>
      </trkpt>
      <trkpt lat="47.31769" lon="-2.35737">
        <ele>91</ele>
        <time>2019-09-15T08:10:12Z</time>
      </trkpt>
      <trkpt lat="47.31772" lon="-2.35756">
        <ele>91</ele>
        <time>2019-09-15T08:10:14Z</time>
      </trkpt>
      <trkpt lat="47.31774" lon="-2.35766">
        <ele>92</ele>
        <time>2019-09-15T08:10:15Z</time>
      </trkpt>
      <trkpt lat="47.31776" lon="-2.35774">
        <ele>92</ele>
        <time>2019-09-15T08:10:16Z</time>
      </trkpt>
      <trkpt lat="47.31781" lon="-2.3579">
        <ele>91</ele>
        <time>2019-09-15T08:10:18Z</time>
      </trkpt>
      <trkpt lat="47.31785" lon="-2.35797">
        <ele>91</ele>
        <time>2019-09-15T08:10:19Z</time>
      </trkpt>
      <trkpt lat="47.31794" lon="-2.35808">
        <ele>91</ele>
        <time>2019-09-15T08:10:21Z</time>
      </trkpt>
      <trkpt lat="47.31797" lon="-2.35814">
        <ele>91</ele>
        <time>2019-09-15T08:10:22Z</time>
      </trkpt>
      <trkpt lat="47.31801" lon="-2.35821">
        <ele>91</ele>
        <time>2019-09-15T08:10:23Z</time>
      </trkpt>
      <trkpt lat="47.31806" lon="-2.35827">
        <ele>92</ele>
        <time>2019-09-15T08:10:24Z</time>
      </trkpt>
      <trkpt lat="47.3181" lon="-2.35832">
        <ele>92</ele>
        <time>2019-09-15T08:10:25Z</time>
      </trkpt>
      <trkpt lat="47.31816" lon="-2.35846">
        <ele>92</ele>
        <time>2019-09-15T08:10:27Z</time>
      </trkpt>
      <trkpt lat="47.31818" lon="-2.35853">
        <ele>91</ele>
        <time>2019-09-15T08:10:28Z</time>
      </trkpt>
      <trkpt lat="47.31813" lon="-2.35879">
        <ele>89</ele>
        <time>2019-09-15T08:10:31Z</time>
      </trkpt>
      <trkpt lat="47.31809" lon="-2.35883">
        <ele>89</ele>
        <time>2019-09-15T08:10:32Z</time>
      </trkpt>
      <trkpt lat="47.31799" lon="-2.35889">
        <ele>89</ele>
        <time>2019-09-15T08:10:34Z</time>
      </trkpt>
      <trkpt lat="47.31795" lon="-2.35891">
        <ele>88</ele>
        <time>2019-09-15T08:10:35Z</time>
      </trkpt>
      <trkpt lat="47.31791" lon="-2.35894">
        <ele>88</ele>
        <time>2019-09-15T08:10:36Z</time>
      </trkpt>
      <trkpt lat="47.31781" lon="-2.35902">
        <ele>87</ele>
        <time>2019-09-15T08:10:38Z</time>
      </trkpt>
      <trkpt lat="47.31776" lon="-2.35907">
        <ele>86</ele>
        <time>2019-09-15T08:10:39Z</time>
      </trkpt>
      <trkpt lat="47.3176" lon="-2.35914">
        <ele>86</ele>
        <time>2019-09-15T08:10:42Z</time>
      </trkpt>
      <trkpt lat="47.31754" lon="-2.35918">
        <ele>87</ele>
        <time>2019-09-15T08:10:43Z</time>
      </trkpt>
      <trkpt lat="47.31749" lon="-2.35921">
        <ele>86</ele>
        <time>2019-09-15T08:10:44Z</time>
      </trkpt>
      <trkpt lat="47.31744" lon="-2.35923">
        <ele>86</ele>
        <time>2019-09-15T08:10:45Z</time>
      </trkpt>
      <trkpt lat="47.31735" lon="-2.35929">
        <ele>85</ele>
        <time>2019-09-15T08:10:47Z</time>
      </trkpt>
      <trkpt lat="47.3173" lon="-2.35933">
        <ele>85</ele>
        <time>2019-09-15T08:10:48Z</time>
      </trkpt>
      <trkpt lat="47.31725" lon="-2.35936">
        <ele>84</ele>
        <time>2019-09-15T08:10:49Z</time>
      </trkpt>
      <trkpt lat="47.31716" lon="-2.35942">
        <ele>84</ele>
        <time>2019-09-15T08:10:51Z</time>
      </trkpt>
      <trkpt lat="47.31711" lon="-2.35945">
        <ele>84</ele>
        <time>2019-09-15T08:10:52Z</time>
      </trkpt>
      <trkpt lat="47.31706" lon="-2.35948">
        <ele>84</ele>
        <time>2019-09-15T08:10:53Z</time>
      </trkpt>
      <trkpt lat="47.31701" lon="-2.35952">
        <ele>83</ele>
        <time>2019-09-15T08:10:54Z</time>
      </trkpt>
      <trkpt lat="47.31689" lon="-2.35961">
        <ele>84</ele>
        <time>2019-09-15T08:10:57Z</time>
      </trkpt>
      <trkpt lat="47.31684" lon="-2.35964">
        <ele>84</ele>
        <time>2019-09-15T08:10:58Z</time>
      </trkpt>
      <trkpt lat="47.3168" lon="-2.35967">
        <ele>84</ele>
        <time>2019-09-15T08:10:59Z</time>
      </trkpt>
      <trkpt lat="47.31671" lon="-2.35974">
        <ele>84</ele>
        <time>2019-09-15T08:11:01Z</time>
      </trkpt>
      <trkpt lat="47.31666" lon="-2.35977">
        <ele>84</ele>
        <time>2019-09-15T08:11:02Z</time>
      </trkpt>
      <trkpt lat="47.31662" lon="-2.35981">
        <ele>85</ele>
        <time>2019-09-15T08:11:03Z</time>
      </trkpt>
      <trkpt lat="47.31656" lon="-2.35985">
        <ele>85</ele>
        <time>2019-09-15T08:11:04Z</time>
      </trkpt>
      <trkpt lat="47.31651" lon="-2.35989">
        <ele>84</ele>
        <time>2019-09-15T08:11:05Z</time>
      </trkpt>
      <trkpt lat="47.31647" lon="-2.35993">
        <ele>84</ele>
        <time>2019-09-15T08:11:06Z</time>
      </trkpt>
      <trkpt lat="47.31636" lon="-2.36005">
        <ele>84</ele>
        <time>2019-09-15T08:11:08Z</time>
      </trkpt>
      <trkpt lat="47.3163" lon="-2.3601">
        <ele>85</ele>
        <time>2019-09-15T08:11:09Z</time>
      </trkpt>
      <trkpt lat="47.31624" lon="-2.36015">
        <ele>85</ele>
        <time>2019-09-15T08:11:10Z</time>
      </trkpt>
      <trkpt lat="47.31609" lon="-2.36031">
        <ele>86</ele>
        <time>2019-09-15T08:11:13Z</time>
      </trkpt>
      <trkpt lat="47.31604" lon="-2.36036">
        <ele>86</ele>
        <time>2019-09-15T08:11:14Z</time>
      </trkpt>
      <trkpt lat="47.31593" lon="-2.36044">
        <ele>86</ele>
        <time>2019-09-15T08:11:16Z</time>
      </trkpt>
      <trkpt lat="47.31587" lon="-2.36049">
        <ele>86</ele>
        <time>2019-09-15T08:11:17Z</time>
      </trkpt>
      <trkpt lat="47.31582" lon="-2.36054">
        <ele>87</ele>
        <time>2019-09-15T08:11:18Z</time>
      </trkpt>
      <trkpt lat="47.31576" lon="-2.36059">
        <ele>87</ele>
        <time>2019-09-15T08:11:19Z</time>
      </trkpt>
      <trkpt lat="47.31571" lon="-2.36065">
        <ele>87</ele>
        <time>2019-09-15T08:11:20Z</time>
      </trkpt>
      <trkpt lat="47.31565" lon="-2.36068">
        <ele>86</ele>
        <time>2019-09-15T08:11:21Z</time>
      </trkpt>
      <trkpt lat="47.31559" lon="-2.36073">
        <ele>86</ele>
        <time>2019-09-15T08:11:22Z</time>
      </trkpt>
      <trkpt lat="47.31553" lon="-2.36078">
        <ele>86</ele>
        <time>2019-09-15T08:11:23Z</time>
      </trkpt>
      <trkpt lat="47.31548" lon="-2.36083">
        <ele>87</ele>
        <time>2019-09-15T08:11:24Z</time>
      </trkpt>
      <trkpt lat="47.31543" lon="-2.36089">
        <ele>86</ele>
        <time>2019-09-15T08:11:25Z</time>
      </trkpt>
      <trkpt lat="47.31538" lon="-2.36095">
        <ele>86</ele>
        <time>2019-09-15T08:11:26Z</time>
      </trkpt>
      <trkpt lat="47.31533" lon="-2.36101">
        <ele>86</ele>
        <time>2019-09-15T08:11:27Z</time>
      </trkpt>
      <trkpt lat="47.3152" lon="-2.36116">
        <ele>87</ele>
        <time>2019-09-15T08:11:30Z</time>
      </trkpt>
      <trkpt lat="47.31516" lon="-2.36121">
        <ele>87</ele>
        <time>2019-09-15T08:11:31Z</time>
      </trkpt>
      <trkpt lat="47.31511" lon="-2.36126">
        <ele>87</ele>
        <time>2019-09-15T08:11:32Z</time>
      </trkpt>
      <trkpt lat="47.31503" lon="-2.36137">
        <ele>87</ele>
        <time>2019-09-15T08:11:34Z</time>
      </trkpt>
      <trkpt lat="47.31499" lon="-2.36143">
        <ele>88</ele>
        <time>2019-09-15T08:11:35Z</time>
      </trkpt>
      <trkpt lat="47.31496" lon="-2.36149">
        <ele>88</ele>
        <time>2019-09-15T08:11:36Z</time>
      </trkpt>
      <trkpt lat="47.31491" lon="-2.36153">
        <ele>88</ele>
        <time>2019-09-15T08:11:37Z</time>
      </trkpt>
      <trkpt lat="47.31487" lon="-2.36157">
        <ele>88</ele>
        <time>2019-09-15T08:11:38Z</time>
      </trkpt>
      <trkpt lat="47.31483" lon="-2.36161">
        <ele>88</ele>
        <time>2019-09-15T08:11:39Z</time>
      </trkpt>
      <trkpt lat="47.31479" lon="-2.36165">
        <ele>87</ele>
        <time>2019-09-15T08:11:40Z</time>
      </trkpt>
      <trkpt lat="47.31475" lon="-2.36168">
        <ele>87</ele>
        <time>2019-09-15T08:11:41Z</time>
      </trkpt>
      <trkpt lat="47.31471" lon="-2.36171">
        <ele>87</ele>
        <time>2019-09-15T08:11:42Z</time>
      </trkpt>
      <trkpt lat="47.31466" lon="-2.36176">
        <ele>87</ele>
        <time>2019-09-15T08:11:44Z</time>
      </trkpt>
      <trkpt lat="47.31463" lon="-2.36179">
        <ele>87</ele>
        <time>2019-09-15T08:11:46Z</time>
      </trkpt>
      <trkpt lat="47.31463" lon="-2.36179">
        <ele>40.2</ele>
        <time>2019-09-15T08:11:51Z</time>
      </trkpt>
      <trkpt lat="47.31463" lon="-2.36179">
        <ele>40.2</ele>
        <time>2019-09-15T08:12:54Z</time>
      </trkpt>
      <trkpt lat="47.31464" lon="-2.36209">
        <ele>88</ele>
        <time>2019-09-15T08:12:54Z</time>
      </trkpt>
      <trkpt lat="47.31473" lon="-2.36243">
        <ele>103</ele>
        <time>2019-09-15T08:13:00Z</time>
      </trkpt>
      <trkpt lat="47.31476" lon="-2.36251">
        <ele>95</ele>
        <time>2019-09-15T08:13:01Z</time>
      </trkpt>
      <trkpt lat="47.31478" lon="-2.36261">
        <ele>92</ele>
        <time>2019-09-15T08:13:02Z</time>
      </trkpt>
      <trkpt lat="47.3148" lon="-2.36269">
        <ele>94</ele>
        <time>2019-09-15T08:13:03Z</time>
      </trkpt>
      <trkpt lat="47.31482" lon="-2.36277">
        <ele>96</ele>
        <time>2019-09-15T08:13:04Z</time>
      </trkpt>
      <trkpt lat="47.31484" lon="-2.36286">
        <ele>97</ele>
        <time>2019-09-15T08:13:05Z</time>
      </trkpt>
      <trkpt lat="47.31485" lon="-2.36294">
        <ele>97</ele>
        <time>2019-09-15T08:13:06Z</time>
      </trkpt>
      <trkpt lat="47.31487" lon="-2.36303">
        <ele>97</ele>
        <time>2019-09-15T08:13:07Z</time>
      </trkpt>
      <trkpt lat="47.31488" lon="-2.36312">
        <ele>97</ele>
        <time>2019-09-15T08:13:08Z</time>
      </trkpt>
      <trkpt lat="47.3149" lon="-2.36341">
        <ele>95</ele>
        <time>2019-09-15T08:13:11Z</time>
      </trkpt>
      <trkpt lat="47.3149" lon="-2.36351">
        <ele>95</ele>
        <time>2019-09-15T08:13:12Z</time>
      </trkpt>
      <trkpt lat="47.3149" lon="-2.36393">
        <ele>96</ele>
        <time>2019-09-15T08:13:16Z</time>
      </trkpt>
      <trkpt lat="47.31491" lon="-2.36403">
        <ele>95</ele>
        <time>2019-09-15T08:13:17Z</time>
      </trkpt>
      <trkpt lat="47.31491" lon="-2.36421">
        <ele>96</ele>
        <time>2019-09-15T08:13:19Z</time>
      </trkpt>
      <trkpt lat="47.31491" lon="-2.36429">
        <ele>96</ele>
        <time>2019-09-15T08:13:20Z</time>
      </trkpt>
      <trkpt lat="47.31492" lon="-2.36436">
        <ele>96</ele>
        <time>2019-09-15T08:13:21Z</time>
      </trkpt>
      <trkpt lat="47.31491" lon="-2.3645">
        <ele>96</ele>
        <time>2019-09-15T08:13:23Z</time>
      </trkpt>
      <trkpt lat="47.31492" lon="-2.36457">
        <ele>95</ele>
        <time>2019-09-15T08:13:24Z</time>
      </trkpt>
      <trkpt lat="47.31493" lon="-2.36464">
        <ele>94</ele>
        <time>2019-09-15T08:13:25Z</time>
      </trkpt>
      <trkpt lat="47.31493" lon="-2.36471">
        <ele>94</ele>
        <time>2019-09-15T08:13:26Z</time>
      </trkpt>
      <trkpt lat="47.31494" lon="-2.36478">
        <ele>93</ele>
        <time>2019-09-15T08:13:27Z</time>
      </trkpt>
      <trkpt lat="47.31494" lon="-2.36485">
        <ele>93</ele>
        <time>2019-09-15T08:13:28Z</time>
      </trkpt>
      <trkpt lat="47.31493" lon="-2.36492">
        <ele>93</ele>
        <time>2019-09-15T08:13:29Z</time>
      </trkpt>
      <trkpt lat="47.31495" lon="-2.36506">
        <ele>94</ele>
        <time>2019-09-15T08:13:31Z</time>
      </trkpt>
      <trkpt lat="47.31495" lon="-2.36513">
        <ele>93</ele>
        <time>2019-09-15T08:13:32Z</time>
      </trkpt>
      <trkpt lat="47.31494" lon="-2.3652">
        <ele>93</ele>
        <time>2019-09-15T08:13:33Z</time>
      </trkpt>
      <trkpt lat="47.31492" lon="-2.36527">
        <ele>93</ele>
        <time>2019-09-15T08:13:34Z</time>
      </trkpt>
      <trkpt lat="47.31491" lon="-2.36534">
        <ele>94</ele>
        <time>2019-09-15T08:13:35Z</time>
      </trkpt>
      <trkpt lat="47.31491" lon="-2.36559">
        <ele>95</ele>
        <time>2019-09-15T08:13:38Z</time>
      </trkpt>
      <trkpt lat="47.31491" lon="-2.36567">
        <ele>95</ele>
        <time>2019-09-15T08:13:39Z</time>
      </trkpt>
      <trkpt lat="47.31492" lon="-2.36577">
        <ele>95</ele>
        <time>2019-09-15T08:13:40Z</time>
      </trkpt>
      <trkpt lat="47.31493" lon="-2.36586">
        <ele>96</ele>
        <time>2019-09-15T08:13:41Z</time>
      </trkpt>
      <trkpt lat="47.31495" lon="-2.36595">
        <ele>96</ele>
        <time>2019-09-15T08:13:42Z</time>
      </trkpt>
      <trkpt lat="47.31497" lon="-2.36604">
        <ele>96</ele>
        <time>2019-09-15T08:13:43Z</time>
      </trkpt>
      <trkpt lat="47.315" lon="-2.36615">
        <ele>97</ele>
        <time>2019-09-15T08:13:44Z</time>
      </trkpt>
      <trkpt lat="47.31502" lon="-2.36624">
        <ele>97</ele>
        <time>2019-09-15T08:13:45Z</time>
      </trkpt>
      <trkpt lat="47.31504" lon="-2.36633">
        <ele>97</ele>
        <time>2019-09-15T08:13:46Z</time>
      </trkpt>
      <trkpt lat="47.31506" lon="-2.36641">
        <ele>96</ele>
        <time>2019-09-15T08:13:47Z</time>
      </trkpt>
      <trkpt lat="47.31508" lon="-2.3665">
        <ele>97</ele>
        <time>2019-09-15T08:13:48Z</time>
      </trkpt>
      <trkpt lat="47.31511" lon="-2.36659">
        <ele>96</ele>
        <time>2019-09-15T08:13:49Z</time>
      </trkpt>
      <trkpt lat="47.31513" lon="-2.36668">
        <ele>96</ele>
        <time>2019-09-15T08:13:50Z</time>
      </trkpt>
      <trkpt lat="47.31515" lon="-2.36676">
        <ele>96</ele>
        <time>2019-09-15T08:13:51Z</time>
      </trkpt>
      <trkpt lat="47.31517" lon="-2.36686">
        <ele>96</ele>
        <time>2019-09-15T08:13:52Z</time>
      </trkpt>
      <trkpt lat="47.31519" lon="-2.36694">
        <ele>96</ele>
        <time>2019-09-15T08:13:53Z</time>
      </trkpt>
      <trkpt lat="47.31521" lon="-2.36701">
        <ele>96</ele>
        <time>2019-09-15T08:13:54Z</time>
      </trkpt>
      <trkpt lat="47.31523" lon="-2.36708">
        <ele>96</ele>
        <time>2019-09-15T08:13:55Z</time>
      </trkpt>
      <trkpt lat="47.31527" lon="-2.36723">
        <ele>96</ele>
        <time>2019-09-15T08:13:57Z</time>
      </trkpt>
      <trkpt lat="47.31529" lon="-2.3673">
        <ele>96</ele>
        <time>2019-09-15T08:13:58Z</time>
      </trkpt>
      <trkpt lat="47.31531" lon="-2.36737">
        <ele>95</ele>
        <time>2019-09-15T08:13:59Z</time>
      </trkpt>
      <trkpt lat="47.31533" lon="-2.36745">
        <ele>95</ele>
        <time>2019-09-15T08:14:00Z</time>
      </trkpt>
      <trkpt lat="47.31535" lon="-2.36753">
        <ele>95</ele>
        <time>2019-09-15T08:14:01Z</time>
      </trkpt>
      <trkpt lat="47.31537" lon="-2.3676">
        <ele>95</ele>
        <time>2019-09-15T08:14:02Z</time>
      </trkpt>
      <trkpt lat="47.31538" lon="-2.36767">
        <ele>95</ele>
        <time>2019-09-15T08:14:03Z</time>
      </trkpt>
      <trkpt lat="47.3154" lon="-2.36774">
        <ele>95</ele>
        <time>2019-09-15T08:14:04Z</time>
      </trkpt>
      <trkpt lat="47.31542" lon="-2.36781">
        <ele>94</ele>
        <time>2019-09-15T08:14:05Z</time>
      </trkpt>
      <trkpt lat="47.31544" lon="-2.36793">
        <ele>94</ele>
        <time>2019-09-15T08:14:07Z</time>
      </trkpt>
      <trkpt lat="47.31546" lon="-2.36802">
        <ele>94</ele>
        <time>2019-09-15T08:14:09Z</time>
      </trkpt>
      <trkpt lat="47.31547" lon="-2.36806">
        <ele>94</ele>
        <time>2019-09-15T08:14:10Z</time>
      </trkpt>
      <trkpt lat="47.31549" lon="-2.36815">
        <ele>95</ele>
        <time>2019-09-15T08:14:12Z</time>
      </trkpt>
      <trkpt lat="47.31552" lon="-2.36825">
        <ele>95</ele>
        <time>2019-09-15T08:14:14Z</time>
      </trkpt>
      <trkpt lat="47.31554" lon="-2.36831">
        <ele>95</ele>
        <time>2019-09-15T08:14:15Z</time>
      </trkpt>
      <trkpt lat="47.31558" lon="-2.36848">
        <ele>95</ele>
        <time>2019-09-15T08:14:18Z</time>
      </trkpt>
      <trkpt lat="47.31559" lon="-2.36853">
        <ele>95</ele>
        <time>2019-09-15T08:14:19Z</time>
      </trkpt>
      <trkpt lat="47.31563" lon="-2.36865">
        <ele>95</ele>
        <time>2019-09-15T08:14:21Z</time>
      </trkpt>
      <trkpt lat="47.31564" lon="-2.36871">
        <ele>95</ele>
        <time>2019-09-15T08:14:22Z</time>
      </trkpt>
      <trkpt lat="47.31566" lon="-2.36877">
        <ele>95</ele>
        <time>2019-09-15T08:14:23Z</time>
      </trkpt>
      <trkpt lat="47.31571" lon="-2.3689">
        <ele>96</ele>
        <time>2019-09-15T08:14:25Z</time>
      </trkpt>
      <trkpt lat="47.31575" lon="-2.36907">
        <ele>96</ele>
        <time>2019-09-15T08:14:28Z</time>
      </trkpt>
      <trkpt lat="47.31577" lon="-2.36913">
        <ele>96</ele>
        <time>2019-09-15T08:14:29Z</time>
      </trkpt>
      <trkpt lat="47.31579" lon="-2.36919">
        <ele>97</ele>
        <time>2019-09-15T08:14:30Z</time>
      </trkpt>
      <trkpt lat="47.31581" lon="-2.36925">
        <ele>97</ele>
        <time>2019-09-15T08:14:31Z</time>
      </trkpt>
      <trkpt lat="47.31582" lon="-2.36931">
        <ele>97</ele>
        <time>2019-09-15T08:14:32Z</time>
      </trkpt>
      <trkpt lat="47.31586" lon="-2.36943">
        <ele>97</ele>
        <time>2019-09-15T08:14:34Z</time>
      </trkpt>
      <trkpt lat="47.31588" lon="-2.36949">
        <ele>97</ele>
        <time>2019-09-15T08:14:35Z</time>
      </trkpt>
      <trkpt lat="47.3159" lon="-2.36955">
        <ele>97</ele>
        <time>2019-09-15T08:14:36Z</time>
      </trkpt>
      <trkpt lat="47.31593" lon="-2.36961">
        <ele>97</ele>
        <time>2019-09-15T08:14:37Z</time>
      </trkpt>
      <trkpt lat="47.31595" lon="-2.36967">
        <ele>97</ele>
        <time>2019-09-15T08:14:38Z</time>
      </trkpt>
      <trkpt lat="47.31597" lon="-2.36974">
        <ele>97</ele>
        <time>2019-09-15T08:14:39Z</time>
      </trkpt>
      <trkpt lat="47.31599" lon="-2.3698">
        <ele>98</ele>
        <time>2019-09-15T08:14:40Z</time>
      </trkpt>
      <trkpt lat="47.31601" lon="-2.36986">
        <ele>98</ele>
        <time>2019-09-15T08:14:41Z</time>
      </trkpt>
      <trkpt lat="47.31603" lon="-2.36993">
        <ele>98</ele>
        <time>2019-09-15T08:14:42Z</time>
      </trkpt>
      <trkpt lat="47.31608" lon="-2.37005">
        <ele>98</ele>
        <time>2019-09-15T08:14:44Z</time>
      </trkpt>
      <trkpt lat="47.3161" lon="-2.37011">
        <ele>97</ele>
        <time>2019-09-15T08:14:45Z</time>
      </trkpt>
      <trkpt lat="47.31612" lon="-2.37018">
        <ele>97</ele>
        <time>2019-09-15T08:14:46Z</time>
      </trkpt>
      <trkpt lat="47.31614" lon="-2.37024">
        <ele>98</ele>
        <time>2019-09-15T08:14:47Z</time>
      </trkpt>
      <trkpt lat="47.31616" lon="-2.37029">
        <ele>98</ele>
        <time>2019-09-15T08:14:48Z</time>
      </trkpt>
      <trkpt lat="47.3162" lon="-2.37041">
        <ele>97</ele>
        <time>2019-09-15T08:14:50Z</time>
      </trkpt>
      <trkpt lat="47.31623" lon="-2.37047">
        <ele>97</ele>
        <time>2019-09-15T08:14:51Z</time>
      </trkpt>
      <trkpt lat="47.31628" lon="-2.3706">
        <ele>97</ele>
        <time>2019-09-15T08:14:53Z</time>
      </trkpt>
      <trkpt lat="47.31632" lon="-2.37067">
        <ele>97</ele>
        <time>2019-09-15T08:14:54Z</time>
      </trkpt>
      <trkpt lat="47.31635" lon="-2.37074">
        <ele>97</ele>
        <time>2019-09-15T08:14:55Z</time>
      </trkpt>
      <trkpt lat="47.31638" lon="-2.3708">
        <ele>97</ele>
        <time>2019-09-15T08:14:56Z</time>
      </trkpt>
      <trkpt lat="47.31647" lon="-2.371">
        <ele>97</ele>
        <time>2019-09-15T08:14:59Z</time>
      </trkpt>
      <trkpt lat="47.3165" lon="-2.37106">
        <ele>97</ele>
        <time>2019-09-15T08:15:00Z</time>
      </trkpt>
      <trkpt lat="47.31654" lon="-2.37112">
        <ele>97</ele>
        <time>2019-09-15T08:15:01Z</time>
      </trkpt>
      <trkpt lat="47.31657" lon="-2.37118">
        <ele>97</ele>
        <time>2019-09-15T08:15:02Z</time>
      </trkpt>
      <trkpt lat="47.3166" lon="-2.37123">
        <ele>97</ele>
        <time>2019-09-15T08:15:03Z</time>
      </trkpt>
      <trkpt lat="47.31663" lon="-2.3713">
        <ele>97</ele>
        <time>2019-09-15T08:15:04Z</time>
      </trkpt>
      <trkpt lat="47.3167" lon="-2.37144">
        <ele>97</ele>
        <time>2019-09-15T08:15:06Z</time>
      </trkpt>
      <trkpt lat="47.31673" lon="-2.37151">
        <ele>97</ele>
        <time>2019-09-15T08:15:07Z</time>
      </trkpt>
      <trkpt lat="47.31676" lon="-2.37159">
        <ele>97</ele>
        <time>2019-09-15T08:15:08Z</time>
      </trkpt>
      <trkpt lat="47.31679" lon="-2.37166">
        <ele>97</ele>
        <time>2019-09-15T08:15:09Z</time>
      </trkpt>
      <trkpt lat="47.31682" lon="-2.37174">
        <ele>97</ele>
        <time>2019-09-15T08:15:10Z</time>
      </trkpt>
      <trkpt lat="47.31685" lon="-2.3718">
        <ele>97</ele>
        <time>2019-09-15T08:15:11Z</time>
      </trkpt>
      <trkpt lat="47.31687" lon="-2.37196">
        <ele>97</ele>
        <time>2019-09-15T08:15:13Z</time>
      </trkpt>
      <trkpt lat="47.31685" lon="-2.37205">
        <ele>97</ele>
        <time>2019-09-15T08:15:14Z</time>
      </trkpt>
      <trkpt lat="47.31682" lon="-2.37215">
        <ele>96</ele>
        <time>2019-09-15T08:15:15Z</time>
      </trkpt>
      <trkpt lat="47.31679" lon="-2.37224">
        <ele>96</ele>
        <time>2019-09-15T08:15:16Z</time>
      </trkpt>
      <trkpt lat="47.31675" lon="-2.37233">
        <ele>96</ele>
        <time>2019-09-15T08:15:17Z</time>
      </trkpt>
      <trkpt lat="47.31671" lon="-2.3724">
        <ele>96</ele>
        <time>2019-09-15T08:15:18Z</time>
      </trkpt>
      <trkpt lat="47.31666" lon="-2.37247">
        <ele>95</ele>
        <time>2019-09-15T08:15:19Z</time>
      </trkpt>
      <trkpt lat="47.31656" lon="-2.37256">
        <ele>94</ele>
        <time>2019-09-15T08:15:21Z</time>
      </trkpt>
      <trkpt lat="47.31651" lon="-2.37261">
        <ele>94</ele>
        <time>2019-09-15T08:15:22Z</time>
      </trkpt>
      <trkpt lat="47.31645" lon="-2.37266">
        <ele>94</ele>
        <time>2019-09-15T08:15:23Z</time>
      </trkpt>
      <trkpt lat="47.31639" lon="-2.37271">
        <ele>94</ele>
        <time>2019-09-15T08:15:24Z</time>
      </trkpt>
      <trkpt lat="47.31633" lon="-2.37277">
        <ele>94</ele>
        <time>2019-09-15T08:15:25Z</time>
      </trkpt>
      <trkpt lat="47.31628" lon="-2.37285">
        <ele>94</ele>
        <time>2019-09-15T08:15:26Z</time>
      </trkpt>
      <trkpt lat="47.31624" lon="-2.37294">
        <ele>94</ele>
        <time>2019-09-15T08:15:27Z</time>
      </trkpt>
      <trkpt lat="47.31621" lon="-2.37304">
        <ele>94</ele>
        <time>2019-09-15T08:15:28Z</time>
      </trkpt>
      <trkpt lat="47.3162" lon="-2.37315">
        <ele>94</ele>
        <time>2019-09-15T08:15:29Z</time>
      </trkpt>
      <trkpt lat="47.31621" lon="-2.37326">
        <ele>94</ele>
        <time>2019-09-15T08:15:30Z</time>
      </trkpt>
      <trkpt lat="47.31623" lon="-2.37337">
        <ele>94</ele>
        <time>2019-09-15T08:15:31Z</time>
      </trkpt>
      <trkpt lat="47.31625" lon="-2.37348">
        <ele>94</ele>
        <time>2019-09-15T08:15:32Z</time>
      </trkpt>
      <trkpt lat="47.31628" lon="-2.37359">
        <ele>93</ele>
        <time>2019-09-15T08:15:33Z</time>
      </trkpt>
      <trkpt lat="47.3163" lon="-2.37369">
        <ele>93</ele>
        <time>2019-09-15T08:15:34Z</time>
      </trkpt>
      <trkpt lat="47.31634" lon="-2.3739">
        <ele>93</ele>
        <time>2019-09-15T08:15:36Z</time>
      </trkpt>
      <trkpt lat="47.31635" lon="-2.374">
        <ele>92</ele>
        <time>2019-09-15T08:15:37Z</time>
      </trkpt>
      <trkpt lat="47.31636" lon="-2.37411">
        <ele>92</ele>
        <time>2019-09-15T08:15:38Z</time>
      </trkpt>
      <trkpt lat="47.31636" lon="-2.37422">
        <ele>92</ele>
        <time>2019-09-15T08:15:39Z</time>
      </trkpt>
      <trkpt lat="47.31635" lon="-2.37433">
        <ele>92</ele>
        <time>2019-09-15T08:15:40Z</time>
      </trkpt>
      <trkpt lat="47.31636" lon="-2.37444">
        <ele>92</ele>
        <time>2019-09-15T08:15:41Z</time>
      </trkpt>
      <trkpt lat="47.31636" lon="-2.37455">
        <ele>91</ele>
        <time>2019-09-15T08:15:42Z</time>
      </trkpt>
      <trkpt lat="47.31637" lon="-2.37466">
        <ele>91</ele>
        <time>2019-09-15T08:15:43Z</time>
      </trkpt>
      <trkpt lat="47.31638" lon="-2.37477">
        <ele>91</ele>
        <time>2019-09-15T08:15:44Z</time>
      </trkpt>
      <trkpt lat="47.31638" lon="-2.37489">
        <ele>91</ele>
        <time>2019-09-15T08:15:45Z</time>
      </trkpt>
      <trkpt lat="47.31636" lon="-2.37499">
        <ele>91</ele>
        <time>2019-09-15T08:15:46Z</time>
      </trkpt>
      <trkpt lat="47.31634" lon="-2.3751">
        <ele>90</ele>
        <time>2019-09-15T08:15:47Z</time>
      </trkpt>
      <trkpt lat="47.31631" lon="-2.37521">
        <ele>90</ele>
        <time>2019-09-15T08:15:48Z</time>
      </trkpt>
      <trkpt lat="47.31628" lon="-2.37531">
        <ele>90</ele>
        <time>2019-09-15T08:15:49Z</time>
      </trkpt>
      <trkpt lat="47.31624" lon="-2.37541">
        <ele>90</ele>
        <time>2019-09-15T08:15:50Z</time>
      </trkpt>
      <trkpt lat="47.31621" lon="-2.37551">
        <ele>90</ele>
        <time>2019-09-15T08:15:51Z</time>
      </trkpt>
      <trkpt lat="47.31618" lon="-2.37561">
        <ele>90</ele>
        <time>2019-09-15T08:15:52Z</time>
      </trkpt>
      <trkpt lat="47.31616" lon="-2.37571">
        <ele>90</ele>
        <time>2019-09-15T08:15:53Z</time>
      </trkpt>
      <trkpt lat="47.31615" lon="-2.37582">
        <ele>90</ele>
        <time>2019-09-15T08:15:54Z</time>
      </trkpt>
      <trkpt lat="47.31614" lon="-2.37592">
        <ele>90</ele>
        <time>2019-09-15T08:15:55Z</time>
      </trkpt>
      <trkpt lat="47.31615" lon="-2.37602">
        <ele>90</ele>
        <time>2019-09-15T08:15:56Z</time>
      </trkpt>
      <trkpt lat="47.31617" lon="-2.37631">
        <ele>90</ele>
        <time>2019-09-15T08:15:59Z</time>
      </trkpt>
      <trkpt lat="47.31619" lon="-2.3764">
        <ele>90</ele>
        <time>2019-09-15T08:16:00Z</time>
      </trkpt>
      <trkpt lat="47.31623" lon="-2.37648">
        <ele>90</ele>
        <time>2019-09-15T08:16:01Z</time>
      </trkpt>
      <trkpt lat="47.31642" lon="-2.37661">
        <ele>90</ele>
        <time>2019-09-15T08:16:04Z</time>
      </trkpt>
      <trkpt lat="47.31648" lon="-2.37665">
        <ele>90</ele>
        <time>2019-09-15T08:16:05Z</time>
      </trkpt>
      <trkpt lat="47.31655" lon="-2.3767">
        <ele>90</ele>
        <time>2019-09-15T08:16:06Z</time>
      </trkpt>
      <trkpt lat="47.31661" lon="-2.37675">
        <ele>89</ele>
        <time>2019-09-15T08:16:07Z</time>
      </trkpt>
      <trkpt lat="47.31666" lon="-2.37681">
        <ele>89</ele>
        <time>2019-09-15T08:16:08Z</time>
      </trkpt>
      <trkpt lat="47.31672" lon="-2.37688">
        <ele>89</ele>
        <time>2019-09-15T08:16:09Z</time>
      </trkpt>
      <trkpt lat="47.31678" lon="-2.37694">
        <ele>89</ele>
        <time>2019-09-15T08:16:10Z</time>
      </trkpt>
      <trkpt lat="47.3169" lon="-2.37705">
        <ele>89</ele>
        <time>2019-09-15T08:16:12Z</time>
      </trkpt>
      <trkpt lat="47.31712" lon="-2.37713">
        <ele>89</ele>
        <time>2019-09-15T08:16:15Z</time>
      </trkpt>
      <trkpt lat="47.31719" lon="-2.37713">
        <ele>90</ele>
        <time>2019-09-15T08:16:16Z</time>
      </trkpt>
      <trkpt lat="47.31748" lon="-2.37702">
        <ele>90</ele>
        <time>2019-09-15T08:16:20Z</time>
      </trkpt>
      <trkpt lat="47.31754" lon="-2.37698">
        <ele>90</ele>
        <time>2019-09-15T08:16:21Z</time>
      </trkpt>
      <trkpt lat="47.31761" lon="-2.37692">
        <ele>89</ele>
        <time>2019-09-15T08:16:22Z</time>
      </trkpt>
      <trkpt lat="47.31767" lon="-2.37686">
        <ele>89</ele>
        <time>2019-09-15T08:16:23Z</time>
      </trkpt>
      <trkpt lat="47.31779" lon="-2.37673">
        <ele>90</ele>
        <time>2019-09-15T08:16:24Z</time>
      </trkpt>
      <trkpt lat="47.31785" lon="-2.37667">
        <ele>90</ele>
        <time>2019-09-15T08:16:25Z</time>
      </trkpt>
      <trkpt lat="47.31792" lon="-2.37662">
        <ele>90</ele>
        <time>2019-09-15T08:16:26Z</time>
      </trkpt>
      <trkpt lat="47.31798" lon="-2.37659">
        <ele>90</ele>
        <time>2019-09-15T08:16:27Z</time>
      </trkpt>
      <trkpt lat="47.31805" lon="-2.37655">
        <ele>90</ele>
        <time>2019-09-15T08:16:28Z</time>
      </trkpt>
      <trkpt lat="47.31817" lon="-2.37654">
        <ele>90</ele>
        <time>2019-09-15T08:16:31Z</time>
      </trkpt>
      <trkpt lat="47.31822" lon="-2.37657">
        <ele>90</ele>
        <time>2019-09-15T08:16:32Z</time>
      </trkpt>
      <trkpt lat="47.31826" lon="-2.37663">
        <ele>91</ele>
        <time>2019-09-15T08:16:33Z</time>
      </trkpt>
      <trkpt lat="47.31827" lon="-2.3767">
        <ele>91</ele>
        <time>2019-09-15T08:16:34Z</time>
      </trkpt>
      <trkpt lat="47.31826" lon="-2.37677">
        <ele>90</ele>
        <time>2019-09-15T08:16:35Z</time>
      </trkpt>
      <trkpt lat="47.31825" lon="-2.37684">
        <ele>90</ele>
        <time>2019-09-15T08:16:36Z</time>
      </trkpt>
      <trkpt lat="47.31821" lon="-2.37701">
        <ele>91</ele>
        <time>2019-09-15T08:16:38Z</time>
      </trkpt>
      <trkpt lat="47.31819" lon="-2.37711">
        <ele>90</ele>
        <time>2019-09-15T08:16:39Z</time>
      </trkpt>
      <trkpt lat="47.31818" lon="-2.3772">
        <ele>91</ele>
        <time>2019-09-15T08:16:40Z</time>
      </trkpt>
      <trkpt lat="47.31817" lon="-2.37728">
        <ele>91</ele>
        <time>2019-09-15T08:16:41Z</time>
      </trkpt>
      <trkpt lat="47.31817" lon="-2.37737">
        <ele>90</ele>
        <time>2019-09-15T08:16:42Z</time>
      </trkpt>
      <trkpt lat="47.31816" lon="-2.37746">
        <ele>90</ele>
        <time>2019-09-15T08:16:43Z</time>
      </trkpt>
      <trkpt lat="47.31816" lon="-2.37753">
        <ele>90</ele>
        <time>2019-09-15T08:16:44Z</time>
      </trkpt>
      <trkpt lat="47.31814" lon="-2.37761">
        <ele>91</ele>
        <time>2019-09-15T08:16:45Z</time>
      </trkpt>
      <trkpt lat="47.31813" lon="-2.37769">
        <ele>91</ele>
        <time>2019-09-15T08:16:46Z</time>
      </trkpt>
      <trkpt lat="47.31813" lon="-2.37777">
        <ele>91</ele>
        <time>2019-09-15T08:16:47Z</time>
      </trkpt>
      <trkpt lat="47.31812" lon="-2.37784">
        <ele>91</ele>
        <time>2019-09-15T08:16:48Z</time>
      </trkpt>
      <trkpt lat="47.31811" lon="-2.37792">
        <ele>91</ele>
        <time>2019-09-15T08:16:49Z</time>
      </trkpt>
      <trkpt lat="47.31811" lon="-2.37799">
        <ele>91</ele>
        <time>2019-09-15T08:16:50Z</time>
      </trkpt>
      <trkpt lat="47.3181" lon="-2.37807">
        <ele>91</ele>
        <time>2019-09-15T08:16:51Z</time>
      </trkpt>
      <trkpt lat="47.31809" lon="-2.37815">
        <ele>91</ele>
        <time>2019-09-15T08:16:52Z</time>
      </trkpt>
      <trkpt lat="47.31809" lon="-2.37823">
        <ele>91</ele>
        <time>2019-09-15T08:16:53Z</time>
      </trkpt>
      <trkpt lat="47.31808" lon="-2.37831">
        <ele>90</ele>
        <time>2019-09-15T08:16:54Z</time>
      </trkpt>
      <trkpt lat="47.31807" lon="-2.37839">
        <ele>90</ele>
        <time>2019-09-15T08:16:55Z</time>
      </trkpt>
      <trkpt lat="47.31806" lon="-2.37846">
        <ele>90</ele>
        <time>2019-09-15T08:16:56Z</time>
      </trkpt>
      <trkpt lat="47.31805" lon="-2.37854">
        <ele>90</ele>
        <time>2019-09-15T08:16:57Z</time>
      </trkpt>
      <trkpt lat="47.31804" lon="-2.37862">
        <ele>90</ele>
        <time>2019-09-15T08:16:58Z</time>
      </trkpt>
      <trkpt lat="47.31803" lon="-2.37871">
        <ele>90</ele>
        <time>2019-09-15T08:16:59Z</time>
      </trkpt>
      <trkpt lat="47.31802" lon="-2.3788">
        <ele>90</ele>
        <time>2019-09-15T08:17:00Z</time>
      </trkpt>
      <trkpt lat="47.31801" lon="-2.37889">
        <ele>89</ele>
        <time>2019-09-15T08:17:01Z</time>
      </trkpt>
      <trkpt lat="47.318" lon="-2.37899">
        <ele>89</ele>
        <time>2019-09-15T08:17:02Z</time>
      </trkpt>
      <trkpt lat="47.31799" lon="-2.37909">
        <ele>89</ele>
        <time>2019-09-15T08:17:03Z</time>
      </trkpt>
      <trkpt lat="47.31798" lon="-2.37919">
        <ele>88</ele>
        <time>2019-09-15T08:17:04Z</time>
      </trkpt>
      <trkpt lat="47.31797" lon="-2.37928">
        <ele>88</ele>
        <time>2019-09-15T08:17:05Z</time>
      </trkpt>
      <trkpt lat="47.31797" lon="-2.37939">
        <ele>87</ele>
        <time>2019-09-15T08:17:06Z</time>
      </trkpt>
      <trkpt lat="47.31796" lon="-2.37949">
        <ele>87</ele>
        <time>2019-09-15T08:17:07Z</time>
      </trkpt>
      <trkpt lat="47.31796" lon="-2.37959">
        <ele>87</ele>
        <time>2019-09-15T08:17:08Z</time>
      </trkpt>
      <trkpt lat="47.31796" lon="-2.3797">
        <ele>87</ele>
        <time>2019-09-15T08:17:09Z</time>
      </trkpt>
      <trkpt lat="47.31796" lon="-2.37981">
        <ele>86</ele>
        <time>2019-09-15T08:17:10Z</time>
      </trkpt>
      <trkpt lat="47.31796" lon="-2.37992">
        <ele>86</ele>
        <time>2019-09-15T08:17:11Z</time>
      </trkpt>
      <trkpt lat="47.31796" lon="-2.38004">
        <ele>86</ele>
        <time>2019-09-15T08:17:12Z</time>
      </trkpt>
      <trkpt lat="47.31796" lon="-2.38015">
        <ele>85</ele>
        <time>2019-09-15T08:17:13Z</time>
      </trkpt>
      <trkpt lat="47.31796" lon="-2.38027">
        <ele>85</ele>
        <time>2019-09-15T08:17:14Z</time>
      </trkpt>
      <trkpt lat="47.31797" lon="-2.3805">
        <ele>85</ele>
        <time>2019-09-15T08:17:16Z</time>
      </trkpt>
      <trkpt lat="47.31799" lon="-2.38062">
        <ele>85</ele>
        <time>2019-09-15T08:17:17Z</time>
      </trkpt>
      <trkpt lat="47.31799" lon="-2.38074">
        <ele>85</ele>
        <time>2019-09-15T08:17:18Z</time>
      </trkpt>
      <trkpt lat="47.318" lon="-2.38085">
        <ele>85</ele>
        <time>2019-09-15T08:17:19Z</time>
      </trkpt>
      <trkpt lat="47.318" lon="-2.38097">
        <ele>85</ele>
        <time>2019-09-15T08:17:20Z</time>
      </trkpt>
      <trkpt lat="47.31801" lon="-2.38108">
        <ele>85</ele>
        <time>2019-09-15T08:17:21Z</time>
      </trkpt>
      <trkpt lat="47.31801" lon="-2.3812">
        <ele>85</ele>
        <time>2019-09-15T08:17:22Z</time>
      </trkpt>
      <trkpt lat="47.31802" lon="-2.38131">
        <ele>85</ele>
        <time>2019-09-15T08:17:23Z</time>
      </trkpt>
      <trkpt lat="47.31803" lon="-2.38143">
        <ele>85</ele>
        <time>2019-09-15T08:17:24Z</time>
      </trkpt>
      <trkpt lat="47.31804" lon="-2.38155">
        <ele>85</ele>
        <time>2019-09-15T08:17:25Z</time>
      </trkpt>
      <trkpt lat="47.31806" lon="-2.38189">
        <ele>85</ele>
        <time>2019-09-15T08:17:27Z</time>
      </trkpt>
      <trkpt lat="47.31806" lon="-2.382">
        <ele>85</ele>
        <time>2019-09-15T08:17:28Z</time>
      </trkpt>
      <trkpt lat="47.31807" lon="-2.38222">
        <ele>85</ele>
        <time>2019-09-15T08:17:30Z</time>
      </trkpt>
      <trkpt lat="47.31808" lon="-2.38233">
        <ele>85</ele>
        <time>2019-09-15T08:17:31Z</time>
      </trkpt>
      <trkpt lat="47.31808" lon="-2.38244">
        <ele>85</ele>
        <time>2019-09-15T08:17:33Z</time>
      </trkpt>
      <trkpt lat="47.31809" lon="-2.38265">
        <ele>85</ele>
        <time>2019-09-15T08:17:34Z</time>
      </trkpt>
      <trkpt lat="47.3181" lon="-2.38286">
        <ele>85</ele>
        <time>2019-09-15T08:17:37Z</time>
      </trkpt>
      <trkpt lat="47.3181" lon="-2.38309">
        <ele>85</ele>
        <time>2019-09-15T08:17:38Z</time>
      </trkpt>
      <trkpt lat="47.31811" lon="-2.38352">
        <ele>86</ele>
        <time>2019-09-15T08:17:42Z</time>
      </trkpt>
      <trkpt lat="47.31811" lon="-2.38362">
        <ele>86</ele>
        <time>2019-09-15T08:17:43Z</time>
      </trkpt>
      <trkpt lat="47.31811" lon="-2.38373">
        <ele>87</ele>
        <time>2019-09-15T08:17:44Z</time>
      </trkpt>
      <trkpt lat="47.31811" lon="-2.38383">
        <ele>87</ele>
        <time>2019-09-15T08:17:46Z</time>
      </trkpt>
      <trkpt lat="47.31811" lon="-2.38394">
        <ele>87</ele>
        <time>2019-09-15T08:17:47Z</time>
      </trkpt>
      <trkpt lat="47.31811" lon="-2.38405">
        <ele>87</ele>
        <time>2019-09-15T08:17:48Z</time>
      </trkpt>
      <trkpt lat="47.31812" lon="-2.38415">
        <ele>87</ele>
        <time>2019-09-15T08:17:49Z</time>
      </trkpt>
      <trkpt lat="47.31812" lon="-2.38426">
        <ele>87</ele>
        <time>2019-09-15T08:17:50Z</time>
      </trkpt>
      <trkpt lat="47.31811" lon="-2.38436">
        <ele>88</ele>
        <time>2019-09-15T08:17:51Z</time>
      </trkpt>
      <trkpt lat="47.31811" lon="-2.38446">
        <ele>87</ele>
        <time>2019-09-15T08:17:52Z</time>
      </trkpt>
      <trkpt lat="47.31811" lon="-2.38456">
        <ele>87</ele>
        <time>2019-09-15T08:17:53Z</time>
      </trkpt>
      <trkpt lat="47.31811" lon="-2.38465">
        <ele>87</ele>
        <time>2019-09-15T08:17:54Z</time>
      </trkpt>
      <trkpt lat="47.31811" lon="-2.38475">
        <ele>87</ele>
        <time>2019-09-15T08:17:55Z</time>
      </trkpt>
      <trkpt lat="47.31811" lon="-2.38484">
        <ele>88</ele>
        <time>2019-09-15T08:17:56Z</time>
      </trkpt>
      <trkpt lat="47.31811" lon="-2.38494">
        <ele>87</ele>
        <time>2019-09-15T08:17:57Z</time>
      </trkpt>
      <trkpt lat="47.31811" lon="-2.38502">
        <ele>88</ele>
        <time>2019-09-15T08:17:58Z</time>
      </trkpt>
      <trkpt lat="47.31811" lon="-2.38511">
        <ele>89</ele>
        <time>2019-09-15T08:17:59Z</time>
      </trkpt>
      <trkpt lat="47.31811" lon="-2.38519">
        <ele>89</ele>
        <time>2019-09-15T08:18:00Z</time>
      </trkpt>
      <trkpt lat="47.31809" lon="-2.38527">
        <ele>89</ele>
        <time>2019-09-15T08:18:01Z</time>
      </trkpt>
      <trkpt lat="47.31806" lon="-2.38534">
        <ele>89</ele>
        <time>2019-09-15T08:18:02Z</time>
      </trkpt>
      <trkpt lat="47.31802" lon="-2.38539">
        <ele>90</ele>
        <time>2019-09-15T08:18:03Z</time>
      </trkpt>
      <trkpt lat="47.31797" lon="-2.38542">
        <ele>90</ele>
        <time>2019-09-15T08:18:04Z</time>
      </trkpt>
      <trkpt lat="47.31792" lon="-2.38546">
        <ele>90</ele>
        <time>2019-09-15T08:18:05Z</time>
      </trkpt>
      <trkpt lat="47.31786" lon="-2.38548">
        <ele>90</ele>
        <time>2019-09-15T08:18:06Z</time>
      </trkpt>
      <trkpt lat="47.31781" lon="-2.38551">
        <ele>90</ele>
        <time>2019-09-15T08:18:07Z</time>
      </trkpt>
      <trkpt lat="47.31769" lon="-2.38557">
        <ele>89</ele>
        <time>2019-09-15T08:18:09Z</time>
      </trkpt>
      <trkpt lat="47.31763" lon="-2.3856">
        <ele>89</ele>
        <time>2019-09-15T08:18:10Z</time>
      </trkpt>
      <trkpt lat="47.31758" lon="-2.38563">
        <ele>89</ele>
        <time>2019-09-15T08:18:11Z</time>
      </trkpt>
      <trkpt lat="47.31752" lon="-2.38567">
        <ele>89</ele>
        <time>2019-09-15T08:18:12Z</time>
      </trkpt>
      <trkpt lat="47.31746" lon="-2.3857">
        <ele>89</ele>
        <time>2019-09-15T08:18:13Z</time>
      </trkpt>
      <trkpt lat="47.31741" lon="-2.38574">
        <ele>90</ele>
        <time>2019-09-15T08:18:14Z</time>
      </trkpt>
      <trkpt lat="47.31735" lon="-2.38578">
        <ele>90</ele>
        <time>2019-09-15T08:18:15Z</time>
      </trkpt>
      <trkpt lat="47.31728" lon="-2.38581">
        <ele>90</ele>
        <time>2019-09-15T08:18:16Z</time>
      </trkpt>
      <trkpt lat="47.31722" lon="-2.38584">
        <ele>91</ele>
        <time>2019-09-15T08:18:17Z</time>
      </trkpt>
      <trkpt lat="47.31716" lon="-2.38588">
        <ele>91</ele>
        <time>2019-09-15T08:18:18Z</time>
      </trkpt>
      <trkpt lat="47.3171" lon="-2.38591">
        <ele>91</ele>
        <time>2019-09-15T08:18:19Z</time>
      </trkpt>
      <trkpt lat="47.31704" lon="-2.38595">
        <ele>91</ele>
        <time>2019-09-15T08:18:20Z</time>
      </trkpt>
      <trkpt lat="47.31697" lon="-2.38599">
        <ele>91</ele>
        <time>2019-09-15T08:18:21Z</time>
      </trkpt>
      <trkpt lat="47.31691" lon="-2.38602">
        <ele>91</ele>
        <time>2019-09-15T08:18:22Z</time>
      </trkpt>
      <trkpt lat="47.31684" lon="-2.38606">
        <ele>91</ele>
        <time>2019-09-15T08:18:23Z</time>
      </trkpt>
      <trkpt lat="47.31672" lon="-2.38614">
        <ele>91</ele>
        <time>2019-09-15T08:18:24Z</time>
      </trkpt>
      <trkpt lat="47.31666" lon="-2.38619">
        <ele>91</ele>
        <time>2019-09-15T08:18:26Z</time>
      </trkpt>
      <trkpt lat="47.3166" lon="-2.38624">
        <ele>91</ele>
        <time>2019-09-15T08:18:27Z</time>
      </trkpt>
      <trkpt lat="47.31654" lon="-2.3863">
        <ele>90</ele>
        <time>2019-09-15T08:18:28Z</time>
      </trkpt>
      <trkpt lat="47.31648" lon="-2.38636">
        <ele>90</ele>
        <time>2019-09-15T08:18:29Z</time>
      </trkpt>
      <trkpt lat="47.31642" lon="-2.38643">
        <ele>90</ele>
        <time>2019-09-15T08:18:30Z</time>
      </trkpt>
      <trkpt lat="47.31636" lon="-2.3865">
        <ele>90</ele>
        <time>2019-09-15T08:18:31Z</time>
      </trkpt>
      <trkpt lat="47.31631" lon="-2.38657">
        <ele>90</ele>
        <time>2019-09-15T08:18:32Z</time>
      </trkpt>
      <trkpt lat="47.31626" lon="-2.38665">
        <ele>90</ele>
        <time>2019-09-15T08:18:33Z</time>
      </trkpt>
      <trkpt lat="47.31621" lon="-2.38672">
        <ele>90</ele>
        <time>2019-09-15T08:18:34Z</time>
      </trkpt>
      <trkpt lat="47.3161" lon="-2.38687">
        <ele>90</ele>
        <time>2019-09-15T08:18:36Z</time>
      </trkpt>
      <trkpt lat="47.31605" lon="-2.38695">
        <ele>90</ele>
        <time>2019-09-15T08:18:37Z</time>
      </trkpt>
      <trkpt lat="47.316" lon="-2.38704">
        <ele>90</ele>
        <time>2019-09-15T08:18:38Z</time>
      </trkpt>
      <trkpt lat="47.3159" lon="-2.3872">
        <ele>90</ele>
        <time>2019-09-15T08:18:40Z</time>
      </trkpt>
      <trkpt lat="47.31585" lon="-2.38728">
        <ele>90</ele>
        <time>2019-09-15T08:18:41Z</time>
      </trkpt>
      <trkpt lat="47.3158" lon="-2.38735">
        <ele>90</ele>
        <time>2019-09-15T08:18:42Z</time>
      </trkpt>
      <trkpt lat="47.31574" lon="-2.38743">
        <ele>90</ele>
        <time>2019-09-15T08:18:43Z</time>
      </trkpt>
      <trkpt lat="47.31569" lon="-2.38751">
        <ele>90</ele>
        <time>2019-09-15T08:18:44Z</time>
      </trkpt>
      <trkpt lat="47.31564" lon="-2.38759">
        <ele>90</ele>
        <time>2019-09-15T08:18:45Z</time>
      </trkpt>
      <trkpt lat="47.31559" lon="-2.38767">
        <ele>90</ele>
        <time>2019-09-15T08:18:46Z</time>
      </trkpt>
      <trkpt lat="47.31554" lon="-2.38775">
        <ele>91</ele>
        <time>2019-09-15T08:18:47Z</time>
      </trkpt>
      <trkpt lat="47.31549" lon="-2.38783">
        <ele>91</ele>
        <time>2019-09-15T08:18:48Z</time>
      </trkpt>
      <trkpt lat="47.31535" lon="-2.38807">
        <ele>91</ele>
        <time>2019-09-15T08:18:51Z</time>
      </trkpt>
      <trkpt lat="47.31522" lon="-2.38832">
        <ele>90</ele>
        <time>2019-09-15T08:18:53Z</time>
      </trkpt>
      <trkpt lat="47.31518" lon="-2.3884">
        <ele>91</ele>
        <time>2019-09-15T08:18:54Z</time>
      </trkpt>
      <trkpt lat="47.31513" lon="-2.38849">
        <ele>91</ele>
        <time>2019-09-15T08:18:55Z</time>
      </trkpt>
      <trkpt lat="47.315" lon="-2.38874">
        <ele>91</ele>
        <time>2019-09-15T08:18:58Z</time>
      </trkpt>
      <trkpt lat="47.31496" lon="-2.38884">
        <ele>92</ele>
        <time>2019-09-15T08:18:59Z</time>
      </trkpt>
      <trkpt lat="47.31491" lon="-2.38892">
        <ele>92</ele>
        <time>2019-09-15T08:19:01Z</time>
      </trkpt>
      <trkpt lat="47.31487" lon="-2.389">
        <ele>92</ele>
        <time>2019-09-15T08:19:02Z</time>
      </trkpt>
      <trkpt lat="47.31483" lon="-2.38908">
        <ele>92</ele>
        <time>2019-09-15T08:19:03Z</time>
      </trkpt>
      <trkpt lat="47.31479" lon="-2.38917">
        <ele>92</ele>
        <time>2019-09-15T08:19:04Z</time>
      </trkpt>
      <trkpt lat="47.31474" lon="-2.38926">
        <ele>91</ele>
        <time>2019-09-15T08:19:05Z</time>
      </trkpt>
      <trkpt lat="47.3147" lon="-2.38934">
        <ele>92</ele>
        <time>2019-09-15T08:19:06Z</time>
      </trkpt>
      <trkpt lat="47.31466" lon="-2.38942">
        <ele>91</ele>
        <time>2019-09-15T08:19:07Z</time>
      </trkpt>
      <trkpt lat="47.31462" lon="-2.3895">
        <ele>91</ele>
        <time>2019-09-15T08:19:08Z</time>
      </trkpt>
      <trkpt lat="47.31458" lon="-2.38958">
        <ele>91</ele>
        <time>2019-09-15T08:19:09Z</time>
      </trkpt>
      <trkpt lat="47.31454" lon="-2.38966">
        <ele>91</ele>
        <time>2019-09-15T08:19:10Z</time>
      </trkpt>
      <trkpt lat="47.31442" lon="-2.38991">
        <ele>92</ele>
        <time>2019-09-15T08:19:13Z</time>
      </trkpt>
      <trkpt lat="47.31439" lon="-2.38999">
        <ele>92</ele>
        <time>2019-09-15T08:19:14Z</time>
      </trkpt>
      <trkpt lat="47.31436" lon="-2.39007">
        <ele>93</ele>
        <time>2019-09-15T08:19:15Z</time>
      </trkpt>
      <trkpt lat="47.31432" lon="-2.39015">
        <ele>93</ele>
        <time>2019-09-15T08:19:16Z</time>
      </trkpt>
      <trkpt lat="47.31429" lon="-2.39024">
        <ele>93</ele>
        <time>2019-09-15T08:19:17Z</time>
      </trkpt>
      <trkpt lat="47.31426" lon="-2.39032">
        <ele>93</ele>
        <time>2019-09-15T08:19:18Z</time>
      </trkpt>
      <trkpt lat="47.31422" lon="-2.39041">
        <ele>93</ele>
        <time>2019-09-15T08:19:19Z</time>
      </trkpt>
      <trkpt lat="47.31418" lon="-2.39049">
        <ele>93</ele>
        <time>2019-09-15T08:19:20Z</time>
      </trkpt>
      <trkpt lat="47.31414" lon="-2.39057">
        <ele>93</ele>
        <time>2019-09-15T08:19:21Z</time>
      </trkpt>
      <trkpt lat="47.31409" lon="-2.39064">
        <ele>92</ele>
        <time>2019-09-15T08:19:22Z</time>
      </trkpt>
      <trkpt lat="47.31405" lon="-2.39071">
        <ele>93</ele>
        <time>2019-09-15T08:19:23Z</time>
      </trkpt>
      <trkpt lat="47.314" lon="-2.39078">
        <ele>93</ele>
        <time>2019-09-15T08:19:24Z</time>
      </trkpt>
      <trkpt lat="47.3139" lon="-2.39091">
        <ele>93</ele>
        <time>2019-09-15T08:19:25Z</time>
      </trkpt>
      <trkpt lat="47.31385" lon="-2.39097">
        <ele>93</ele>
        <time>2019-09-15T08:19:27Z</time>
      </trkpt>
      <trkpt lat="47.31379" lon="-2.39102">
        <ele>94</ele>
        <time>2019-09-15T08:19:28Z</time>
      </trkpt>
      <trkpt lat="47.31374" lon="-2.39108">
        <ele>94</ele>
        <time>2019-09-15T08:19:29Z</time>
      </trkpt>
      <trkpt lat="47.31369" lon="-2.39115">
        <ele>94</ele>
        <time>2019-09-15T08:19:30Z</time>
      </trkpt>
      <trkpt lat="47.31364" lon="-2.39121">
        <ele>94</ele>
        <time>2019-09-15T08:19:31Z</time>
      </trkpt>
      <trkpt lat="47.31359" lon="-2.39127">
        <ele>94</ele>
        <time>2019-09-15T08:19:32Z</time>
      </trkpt>
      <trkpt lat="47.31353" lon="-2.39132">
        <ele>94</ele>
        <time>2019-09-15T08:19:33Z</time>
      </trkpt>
      <trkpt lat="47.31348" lon="-2.39137">
        <ele>94</ele>
        <time>2019-09-15T08:19:34Z</time>
      </trkpt>
      <trkpt lat="47.31342" lon="-2.39142">
        <ele>94</ele>
        <time>2019-09-15T08:19:35Z</time>
      </trkpt>
      <trkpt lat="47.31337" lon="-2.39148">
        <ele>94</ele>
        <time>2019-09-15T08:19:36Z</time>
      </trkpt>
      <trkpt lat="47.31332" lon="-2.39155">
        <ele>94</ele>
        <time>2019-09-15T08:19:37Z</time>
      </trkpt>
      <trkpt lat="47.31314" lon="-2.39174">
        <ele>95</ele>
        <time>2019-09-15T08:19:40Z</time>
      </trkpt>
      <trkpt lat="47.31309" lon="-2.3918">
        <ele>95</ele>
        <time>2019-09-15T08:19:41Z</time>
      </trkpt>
      <trkpt lat="47.31303" lon="-2.39186">
        <ele>94</ele>
        <time>2019-09-15T08:19:42Z</time>
      </trkpt>
      <trkpt lat="47.31297" lon="-2.39192">
        <ele>95</ele>
        <time>2019-09-15T08:19:43Z</time>
      </trkpt>
      <trkpt lat="47.31292" lon="-2.39199">
        <ele>95</ele>
        <time>2019-09-15T08:19:44Z</time>
      </trkpt>
      <trkpt lat="47.31282" lon="-2.39212">
        <ele>95</ele>
        <time>2019-09-15T08:19:46Z</time>
      </trkpt>
      <trkpt lat="47.31276" lon="-2.39219">
        <ele>95</ele>
        <time>2019-09-15T08:19:47Z</time>
      </trkpt>
      <trkpt lat="47.31271" lon="-2.39226">
        <ele>95</ele>
        <time>2019-09-15T08:19:48Z</time>
      </trkpt>
      <trkpt lat="47.31267" lon="-2.39233">
        <ele>95</ele>
        <time>2019-09-15T08:19:49Z</time>
      </trkpt>
      <trkpt lat="47.31262" lon="-2.3924">
        <ele>95</ele>
        <time>2019-09-15T08:19:50Z</time>
      </trkpt>
      <trkpt lat="47.31252" lon="-2.39254">
        <ele>95</ele>
        <time>2019-09-15T08:19:52Z</time>
      </trkpt>
      <trkpt lat="47.31238" lon="-2.39272">
        <ele>95</ele>
        <time>2019-09-15T08:19:55Z</time>
      </trkpt>
      <trkpt lat="47.31215" lon="-2.39295">
        <ele>94</ele>
        <time>2019-09-15T08:19:59Z</time>
      </trkpt>
      <trkpt lat="47.31209" lon="-2.39301">
        <ele>94</ele>
        <time>2019-09-15T08:20:00Z</time>
      </trkpt>
      <trkpt lat="47.31203" lon="-2.39305">
        <ele>94</ele>
        <time>2019-09-15T08:20:01Z</time>
      </trkpt>
      <trkpt lat="47.31196" lon="-2.39309">
        <ele>94</ele>
        <time>2019-09-15T08:20:02Z</time>
      </trkpt>
      <trkpt lat="47.3119" lon="-2.39314">
        <ele>94</ele>
        <time>2019-09-15T08:20:03Z</time>
      </trkpt>
      <trkpt lat="47.31183" lon="-2.39319">
        <ele>94</ele>
        <time>2019-09-15T08:20:04Z</time>
      </trkpt>
      <trkpt lat="47.31176" lon="-2.39324">
        <ele>93</ele>
        <time>2019-09-15T08:20:05Z</time>
      </trkpt>
      <trkpt lat="47.31169" lon="-2.39328">
        <ele>93</ele>
        <time>2019-09-15T08:20:06Z</time>
      </trkpt>
      <trkpt lat="47.31162" lon="-2.39333">
        <ele>93</ele>
        <time>2019-09-15T08:20:07Z</time>
      </trkpt>
      <trkpt lat="47.31156" lon="-2.39338">
        <ele>93</ele>
        <time>2019-09-15T08:20:08Z</time>
      </trkpt>
      <trkpt lat="47.31144" lon="-2.3935">
        <ele>94</ele>
        <time>2019-09-15T08:20:10Z</time>
      </trkpt>
      <trkpt lat="47.31138" lon="-2.39357">
        <ele>93</ele>
        <time>2019-09-15T08:20:11Z</time>
      </trkpt>
      <trkpt lat="47.31125" lon="-2.3937">
        <ele>93</ele>
        <time>2019-09-15T08:20:13Z</time>
      </trkpt>
      <trkpt lat="47.3112" lon="-2.39377">
        <ele>93</ele>
        <time>2019-09-15T08:20:14Z</time>
      </trkpt>
      <trkpt lat="47.31115" lon="-2.39383">
        <ele>93</ele>
        <time>2019-09-15T08:20:15Z</time>
      </trkpt>
      <trkpt lat="47.31095" lon="-2.39409">
        <ele>93</ele>
        <time>2019-09-15T08:20:19Z</time>
      </trkpt>
      <trkpt lat="47.31089" lon="-2.39417">
        <ele>93</ele>
        <time>2019-09-15T08:20:20Z</time>
      </trkpt>
      <trkpt lat="47.31084" lon="-2.39425">
        <ele>94</ele>
        <time>2019-09-15T08:20:21Z</time>
      </trkpt>
      <trkpt lat="47.31068" lon="-2.39444">
        <ele>93</ele>
        <time>2019-09-15T08:20:24Z</time>
      </trkpt>
      <trkpt lat="47.31062" lon="-2.39451">
        <ele>93</ele>
        <time>2019-09-15T08:20:25Z</time>
      </trkpt>
      <trkpt lat="47.31057" lon="-2.39457">
        <ele>92</ele>
        <time>2019-09-15T08:20:26Z</time>
      </trkpt>
      <trkpt lat="47.31053" lon="-2.39463">
        <ele>91</ele>
        <time>2019-09-15T08:20:27Z</time>
      </trkpt>
      <trkpt lat="47.31047" lon="-2.39479">
        <ele>91</ele>
        <time>2019-09-15T08:20:29Z</time>
      </trkpt>
      <trkpt lat="47.31049" lon="-2.39488">
        <ele>91</ele>
        <time>2019-09-15T08:20:30Z</time>
      </trkpt>
      <trkpt lat="47.31052" lon="-2.39495">
        <ele>91</ele>
        <time>2019-09-15T08:20:31Z</time>
      </trkpt>
      <trkpt lat="47.31055" lon="-2.39503">
        <ele>91</ele>
        <time>2019-09-15T08:20:32Z</time>
      </trkpt>
      <trkpt lat="47.31058" lon="-2.39511">
        <ele>91</ele>
        <time>2019-09-15T08:20:33Z</time>
      </trkpt>
      <trkpt lat="47.31065" lon="-2.39533">
        <ele>91</ele>
        <time>2019-09-15T08:20:36Z</time>
      </trkpt>
      <trkpt lat="47.31067" lon="-2.3954">
        <ele>91</ele>
        <time>2019-09-15T08:20:37Z</time>
      </trkpt>
      <trkpt lat="47.31069" lon="-2.39546">
        <ele>91</ele>
        <time>2019-09-15T08:20:38Z</time>
      </trkpt>
      <trkpt lat="47.31071" lon="-2.39551">
        <ele>91</ele>
        <time>2019-09-15T08:20:39Z</time>
      </trkpt>
      <trkpt lat="47.31073" lon="-2.39556">
        <ele>92</ele>
        <time>2019-09-15T08:20:40Z</time>
      </trkpt>
      <trkpt lat="47.31074" lon="-2.39561">
        <ele>92</ele>
        <time>2019-09-15T08:20:41Z</time>
      </trkpt>
      <trkpt lat="47.31076" lon="-2.39567">
        <ele>92</ele>
        <time>2019-09-15T08:20:42Z</time>
      </trkpt>
      <trkpt lat="47.31078" lon="-2.39572">
        <ele>92</ele>
        <time>2019-09-15T08:20:43Z</time>
      </trkpt>
      <trkpt lat="47.31079" lon="-2.39577">
        <ele>92</ele>
        <time>2019-09-15T08:20:44Z</time>
      </trkpt>
      <trkpt lat="47.31081" lon="-2.39583">
        <ele>92</ele>
        <time>2019-09-15T08:20:45Z</time>
      </trkpt>
      <trkpt lat="47.31083" lon="-2.39588">
        <ele>93</ele>
        <time>2019-09-15T08:20:46Z</time>
      </trkpt>
      <trkpt lat="47.31084" lon="-2.39593">
        <ele>93</ele>
        <time>2019-09-15T08:20:47Z</time>
      </trkpt>
      <trkpt lat="47.31086" lon="-2.39599">
        <ele>93</ele>
        <time>2019-09-15T08:20:48Z</time>
      </trkpt>
      <trkpt lat="47.31091" lon="-2.3961">
        <ele>93</ele>
        <time>2019-09-15T08:20:50Z</time>
      </trkpt>
      <trkpt lat="47.31097" lon="-2.39628">
        <ele>93</ele>
        <time>2019-09-15T08:20:53Z</time>
      </trkpt>
      <trkpt lat="47.31099" lon="-2.39634">
        <ele>93</ele>
        <time>2019-09-15T08:20:54Z</time>
      </trkpt>
      <trkpt lat="47.31101" lon="-2.3964">
        <ele>93</ele>
        <time>2019-09-15T08:20:55Z</time>
      </trkpt>
      <trkpt lat="47.31108" lon="-2.39659">
        <ele>93</ele>
        <time>2019-09-15T08:20:58Z</time>
      </trkpt>
      <trkpt lat="47.31111" lon="-2.39666">
        <ele>93</ele>
        <time>2019-09-15T08:20:59Z</time>
      </trkpt>
      <trkpt lat="47.31114" lon="-2.39673">
        <ele>93</ele>
        <time>2019-09-15T08:21:00Z</time>
      </trkpt>
      <trkpt lat="47.31116" lon="-2.3968">
        <ele>93</ele>
        <time>2019-09-15T08:21:01Z</time>
      </trkpt>
      <trkpt lat="47.31118" lon="-2.39687">
        <ele>93</ele>
        <time>2019-09-15T08:21:02Z</time>
      </trkpt>
      <trkpt lat="47.31121" lon="-2.39694">
        <ele>93</ele>
        <time>2019-09-15T08:21:03Z</time>
      </trkpt>
      <trkpt lat="47.31123" lon="-2.39702">
        <ele>92</ele>
        <time>2019-09-15T08:21:04Z</time>
      </trkpt>
      <trkpt lat="47.31126" lon="-2.39708">
        <ele>93</ele>
        <time>2019-09-15T08:21:05Z</time>
      </trkpt>
      <trkpt lat="47.31131" lon="-2.39723">
        <ele>93</ele>
        <time>2019-09-15T08:21:06Z</time>
      </trkpt>
      <trkpt lat="47.31133" lon="-2.3973">
        <ele>92</ele>
        <time>2019-09-15T08:21:07Z</time>
      </trkpt>
      <trkpt lat="47.31136" lon="-2.39737">
        <ele>92</ele>
        <time>2019-09-15T08:21:08Z</time>
      </trkpt>
      <trkpt lat="47.31139" lon="-2.39744">
        <ele>92</ele>
        <time>2019-09-15T08:21:10Z</time>
      </trkpt>
      <trkpt lat="47.31142" lon="-2.39751">
        <ele>92</ele>
        <time>2019-09-15T08:21:11Z</time>
      </trkpt>
      <trkpt lat="47.31144" lon="-2.39759">
        <ele>92</ele>
        <time>2019-09-15T08:21:12Z</time>
      </trkpt>
      <trkpt lat="47.31146" lon="-2.39766">
        <ele>91</ele>
        <time>2019-09-15T08:21:13Z</time>
      </trkpt>
      <trkpt lat="47.31149" lon="-2.39774">
        <ele>91</ele>
        <time>2019-09-15T08:21:14Z</time>
      </trkpt>
      <trkpt lat="47.31152" lon="-2.39781">
        <ele>91</ele>
        <time>2019-09-15T08:21:15Z</time>
      </trkpt>
      <trkpt lat="47.31154" lon="-2.39789">
        <ele>91</ele>
        <time>2019-09-15T08:21:16Z</time>
      </trkpt>
      <trkpt lat="47.31156" lon="-2.39796">
        <ele>91</ele>
        <time>2019-09-15T08:21:17Z</time>
      </trkpt>
      <trkpt lat="47.31162" lon="-2.3981">
        <ele>90</ele>
        <time>2019-09-15T08:21:19Z</time>
      </trkpt>
      <trkpt lat="47.31165" lon="-2.39817">
        <ele>91</ele>
        <time>2019-09-15T08:21:20Z</time>
      </trkpt>
      <trkpt lat="47.31168" lon="-2.39823">
        <ele>90</ele>
        <time>2019-09-15T08:21:21Z</time>
      </trkpt>
      <trkpt lat="47.31171" lon="-2.39829">
        <ele>90</ele>
        <time>2019-09-15T08:21:22Z</time>
      </trkpt>
      <trkpt lat="47.31174" lon="-2.39835">
        <ele>90</ele>
        <time>2019-09-15T08:21:23Z</time>
      </trkpt>
      <trkpt lat="47.31176" lon="-2.39842">
        <ele>90</ele>
        <time>2019-09-15T08:21:24Z</time>
      </trkpt>
      <trkpt lat="47.31178" lon="-2.39847">
        <ele>90</ele>
        <time>2019-09-15T08:21:25Z</time>
      </trkpt>
      <trkpt lat="47.31181" lon="-2.39859">
        <ele>90</ele>
        <time>2019-09-15T08:21:27Z</time>
      </trkpt>
      <trkpt lat="47.31182" lon="-2.39865">
        <ele>89</ele>
        <time>2019-09-15T08:21:28Z</time>
      </trkpt>
      <trkpt lat="47.31185" lon="-2.39875">
        <ele>90</ele>
        <time>2019-09-15T08:21:30Z</time>
      </trkpt>
      <trkpt lat="47.31187" lon="-2.39883">
        <ele>90</ele>
        <time>2019-09-15T08:21:32Z</time>
      </trkpt>
      <trkpt lat="47.3119" lon="-2.39892">
        <ele>90</ele>
        <time>2019-09-15T08:21:34Z</time>
      </trkpt>
      <trkpt lat="47.31192" lon="-2.39898">
        <ele>90</ele>
        <time>2019-09-15T08:21:35Z</time>
      </trkpt>
      <trkpt lat="47.31195" lon="-2.39903">
        <ele>90</ele>
        <time>2019-09-15T08:21:36Z</time>
      </trkpt>
      <trkpt lat="47.31197" lon="-2.39912">
        <ele>90</ele>
        <time>2019-09-15T08:21:38Z</time>
      </trkpt>
      <trkpt lat="47.31201" lon="-2.39921">
        <ele>90</ele>
        <time>2019-09-15T08:21:40Z</time>
      </trkpt>
      <trkpt lat="47.31204" lon="-2.3993">
        <ele>90</ele>
        <time>2019-09-15T08:21:42Z</time>
      </trkpt>
      <trkpt lat="47.31206" lon="-2.39936">
        <ele>90</ele>
        <time>2019-09-15T08:21:43Z</time>
      </trkpt>
      <trkpt lat="47.31207" lon="-2.39941">
        <ele>90</ele>
        <time>2019-09-15T08:21:44Z</time>
      </trkpt>
      <trkpt lat="47.3121" lon="-2.3995">
        <ele>90</ele>
        <time>2019-09-15T08:21:46Z</time>
      </trkpt>
      <trkpt lat="47.31212" lon="-2.39954">
        <ele>90</ele>
        <time>2019-09-15T08:21:47Z</time>
      </trkpt>
      <trkpt lat="47.31213" lon="-2.39959">
        <ele>90</ele>
        <time>2019-09-15T08:21:48Z</time>
      </trkpt>
      <trkpt lat="47.31215" lon="-2.39963">
        <ele>90</ele>
        <time>2019-09-15T08:21:49Z</time>
      </trkpt>
      <trkpt lat="47.31218" lon="-2.39973">
        <ele>90</ele>
        <time>2019-09-15T08:21:51Z</time>
      </trkpt>
      <trkpt lat="47.31219" lon="-2.39978">
        <ele>90</ele>
        <time>2019-09-15T08:21:52Z</time>
      </trkpt>
      <trkpt lat="47.31224" lon="-2.39992">
        <ele>90</ele>
        <time>2019-09-15T08:21:55Z</time>
      </trkpt>
      <trkpt lat="47.31226" lon="-2.39998">
        <ele>91</ele>
        <time>2019-09-15T08:21:56Z</time>
      </trkpt>
      <trkpt lat="47.31227" lon="-2.40005">
        <ele>90</ele>
        <time>2019-09-15T08:21:57Z</time>
      </trkpt>
      <trkpt lat="47.31229" lon="-2.40013">
        <ele>90</ele>
        <time>2019-09-15T08:21:58Z</time>
      </trkpt>
      <trkpt lat="47.31231" lon="-2.4002">
        <ele>90</ele>
        <time>2019-09-15T08:21:59Z</time>
      </trkpt>
      <trkpt lat="47.31233" lon="-2.40027">
        <ele>90</ele>
        <time>2019-09-15T08:22:00Z</time>
      </trkpt>
      <trkpt lat="47.31235" lon="-2.40036">
        <ele>89</ele>
        <time>2019-09-15T08:22:02Z</time>
      </trkpt>
      <trkpt lat="47.31239" lon="-2.40042">
        <ele>89</ele>
        <time>2019-09-15T08:22:06Z</time>
      </trkpt>
      <trkpt lat="47.31246" lon="-2.40047">
        <ele>90</ele>
        <time>2019-09-15T08:22:09Z</time>
      </trkpt>
      <trkpt lat="47.3125" lon="-2.40051">
        <ele>90</ele>
        <time>2019-09-15T08:22:10Z</time>
      </trkpt>
      <trkpt lat="47.31266" lon="-2.40059">
        <ele>90</ele>
        <time>2019-09-15T08:22:13Z</time>
      </trkpt>
      <trkpt lat="47.31275" lon="-2.40061">
        <ele>90</ele>
        <time>2019-09-15T08:22:15Z</time>
      </trkpt>
      <trkpt lat="47.31279" lon="-2.40062">
        <ele>90</ele>
        <time>2019-09-15T08:22:16Z</time>
      </trkpt>
      <trkpt lat="47.31293" lon="-2.40067">
        <ele>90</ele>
        <time>2019-09-15T08:22:19Z</time>
      </trkpt>
      <trkpt lat="47.31302" lon="-2.4007">
        <ele>91</ele>
        <time>2019-09-15T08:22:21Z</time>
      </trkpt>
      <trkpt lat="47.31306" lon="-2.40072">
        <ele>91</ele>
        <time>2019-09-15T08:22:22Z</time>
      </trkpt>
      <trkpt lat="47.31311" lon="-2.40075">
        <ele>91</ele>
        <time>2019-09-15T08:22:23Z</time>
      </trkpt>
      <trkpt lat="47.31316" lon="-2.40078">
        <ele>92</ele>
        <time>2019-09-15T08:22:24Z</time>
      </trkpt>
      <trkpt lat="47.3132" lon="-2.4008">
        <ele>93</ele>
        <time>2019-09-15T08:22:25Z</time>
      </trkpt>
      <trkpt lat="47.31325" lon="-2.40083">
        <ele>93</ele>
        <time>2019-09-15T08:22:26Z</time>
      </trkpt>
      <trkpt lat="47.31338" lon="-2.40096">
        <ele>94</ele>
        <time>2019-09-15T08:22:29Z</time>
      </trkpt>
      <trkpt lat="47.31344" lon="-2.40099">
        <ele>95</ele>
        <time>2019-09-15T08:22:30Z</time>
      </trkpt>
      <trkpt lat="47.31349" lon="-2.401">
        <ele>94</ele>
        <time>2019-09-15T08:22:31Z</time>
      </trkpt>
      <trkpt lat="47.31353" lon="-2.40103">
        <ele>95</ele>
        <time>2019-09-15T08:22:32Z</time>
      </trkpt>
      <trkpt lat="47.31358" lon="-2.40106">
        <ele>95</ele>
        <time>2019-09-15T08:22:33Z</time>
      </trkpt>
      <trkpt lat="47.31362" lon="-2.40109">
        <ele>95</ele>
        <time>2019-09-15T08:22:34Z</time>
      </trkpt>
      <trkpt lat="47.31367" lon="-2.40111">
        <ele>95</ele>
        <time>2019-09-15T08:22:35Z</time>
      </trkpt>
      <trkpt lat="47.31372" lon="-2.40113">
        <ele>95</ele>
        <time>2019-09-15T08:22:36Z</time>
      </trkpt>
      <trkpt lat="47.31377" lon="-2.40115">
        <ele>95</ele>
        <time>2019-09-15T08:22:37Z</time>
      </trkpt>
      <trkpt lat="47.31381" lon="-2.40117">
        <ele>95</ele>
        <time>2019-09-15T08:22:38Z</time>
      </trkpt>
      <trkpt lat="47.31385" lon="-2.40118">
        <ele>95</ele>
        <time>2019-09-15T08:22:39Z</time>
      </trkpt>
      <trkpt lat="47.31397" lon="-2.40125">
        <ele>97</ele>
        <time>2019-09-15T08:22:42Z</time>
      </trkpt>
      <trkpt lat="47.31401" lon="-2.40127">
        <ele>96</ele>
        <time>2019-09-15T08:22:43Z</time>
      </trkpt>
      <trkpt lat="47.31405" lon="-2.4013">
        <ele>96</ele>
        <time>2019-09-15T08:22:44Z</time>
      </trkpt>
      <trkpt lat="47.3141" lon="-2.40132">
        <ele>96</ele>
        <time>2019-09-15T08:22:45Z</time>
      </trkpt>
      <trkpt lat="47.31414" lon="-2.40135">
        <ele>96</ele>
        <time>2019-09-15T08:22:46Z</time>
      </trkpt>
      <trkpt lat="47.31419" lon="-2.40137">
        <ele>96</ele>
        <time>2019-09-15T08:22:47Z</time>
      </trkpt>
      <trkpt lat="47.31423" lon="-2.4014">
        <ele>95</ele>
        <time>2019-09-15T08:22:48Z</time>
      </trkpt>
      <trkpt lat="47.31428" lon="-2.40144">
        <ele>95</ele>
        <time>2019-09-15T08:22:49Z</time>
      </trkpt>
      <trkpt lat="47.31432" lon="-2.40147">
        <ele>95</ele>
        <time>2019-09-15T08:22:50Z</time>
      </trkpt>
      <trkpt lat="47.3144" lon="-2.40154">
        <ele>95</ele>
        <time>2019-09-15T08:22:52Z</time>
      </trkpt>
      <trkpt lat="47.31445" lon="-2.40156">
        <ele>95</ele>
        <time>2019-09-15T08:22:53Z</time>
      </trkpt>
      <trkpt lat="47.31452" lon="-2.40163">
        <ele>95</ele>
        <time>2019-09-15T08:22:55Z</time>
      </trkpt>
      <trkpt lat="47.31456" lon="-2.40167">
        <ele>95</ele>
        <time>2019-09-15T08:22:56Z</time>
      </trkpt>
      <trkpt lat="47.3146" lon="-2.4017">
        <ele>95</ele>
        <time>2019-09-15T08:22:57Z</time>
      </trkpt>
      <trkpt lat="47.31474" lon="-2.40178">
        <ele>93</ele>
        <time>2019-09-15T08:23:00Z</time>
      </trkpt>
      <trkpt lat="47.31482" lon="-2.40183">
        <ele>94</ele>
        <time>2019-09-15T08:23:02Z</time>
      </trkpt>
      <trkpt lat="47.31489" lon="-2.40187">
        <ele>94</ele>
        <time>2019-09-15T08:23:04Z</time>
      </trkpt>
      <trkpt lat="47.31499" lon="-2.40194">
        <ele>95</ele>
        <time>2019-09-15T08:23:07Z</time>
      </trkpt>
      <trkpt lat="47.31506" lon="-2.402">
        <ele>95</ele>
        <time>2019-09-15T08:23:09Z</time>
      </trkpt>
      <trkpt lat="47.31509" lon="-2.40203">
        <ele>96</ele>
        <time>2019-09-15T08:23:10Z</time>
      </trkpt>
      <trkpt lat="47.31521" lon="-2.4021">
        <ele>96</ele>
        <time>2019-09-15T08:23:13Z</time>
      </trkpt>
      <trkpt lat="47.31525" lon="-2.40213">
        <ele>95</ele>
        <time>2019-09-15T08:23:14Z</time>
      </trkpt>
      <trkpt lat="47.31529" lon="-2.40215">
        <ele>95</ele>
        <time>2019-09-15T08:23:15Z</time>
      </trkpt>
      <trkpt lat="47.31532" lon="-2.40218">
        <ele>96</ele>
        <time>2019-09-15T08:23:16Z</time>
      </trkpt>
      <trkpt lat="47.31537" lon="-2.40222">
        <ele>96</ele>
        <time>2019-09-15T08:23:17Z</time>
      </trkpt>
      <trkpt lat="47.31541" lon="-2.40226">
        <ele>96</ele>
        <time>2019-09-15T08:23:18Z</time>
      </trkpt>
      <trkpt lat="47.31559" lon="-2.40239">
        <ele>97</ele>
        <time>2019-09-15T08:23:22Z</time>
      </trkpt>
      <trkpt lat="47.31564" lon="-2.40243">
        <ele>97</ele>
        <time>2019-09-15T08:23:23Z</time>
      </trkpt>
      <trkpt lat="47.31569" lon="-2.40246">
        <ele>97</ele>
        <time>2019-09-15T08:23:24Z</time>
      </trkpt>
      <trkpt lat="47.31574" lon="-2.4025">
        <ele>97</ele>
        <time>2019-09-15T08:23:25Z</time>
      </trkpt>
      <trkpt lat="47.31579" lon="-2.40254">
        <ele>97</ele>
        <time>2019-09-15T08:23:26Z</time>
      </trkpt>
      <trkpt lat="47.31584" lon="-2.40258">
        <ele>97</ele>
        <time>2019-09-15T08:23:27Z</time>
      </trkpt>
      <trkpt lat="47.31588" lon="-2.40262">
        <ele>97</ele>
        <time>2019-09-15T08:23:28Z</time>
      </trkpt>
      <trkpt lat="47.31593" lon="-2.40266">
        <ele>97</ele>
        <time>2019-09-15T08:23:29Z</time>
      </trkpt>
      <trkpt lat="47.31597" lon="-2.4027">
        <ele>97</ele>
        <time>2019-09-15T08:23:30Z</time>
      </trkpt>
      <trkpt lat="47.31601" lon="-2.40273">
        <ele>97</ele>
        <time>2019-09-15T08:23:31Z</time>
      </trkpt>
      <trkpt lat="47.31605" lon="-2.40276">
        <ele>97</ele>
        <time>2019-09-15T08:23:32Z</time>
      </trkpt>
      <trkpt lat="47.3161" lon="-2.40279">
        <ele>97</ele>
        <time>2019-09-15T08:23:33Z</time>
      </trkpt>
      <trkpt lat="47.31617" lon="-2.40286">
        <ele>97</ele>
        <time>2019-09-15T08:23:35Z</time>
      </trkpt>
      <trkpt lat="47.31621" lon="-2.40289">
        <ele>97</ele>
        <time>2019-09-15T08:23:36Z</time>
      </trkpt>
      <trkpt lat="47.31633" lon="-2.40297">
        <ele>98</ele>
        <time>2019-09-15T08:23:39Z</time>
      </trkpt>
      <trkpt lat="47.31641" lon="-2.40306">
        <ele>98</ele>
        <time>2019-09-15T08:23:41Z</time>
      </trkpt>
      <trkpt lat="47.31646" lon="-2.40309">
        <ele>98</ele>
        <time>2019-09-15T08:23:42Z</time>
      </trkpt>
      <trkpt lat="47.31654" lon="-2.40314">
        <ele>99</ele>
        <time>2019-09-15T08:23:44Z</time>
      </trkpt>
      <trkpt lat="47.31658" lon="-2.40316">
        <ele>99</ele>
        <time>2019-09-15T08:23:45Z</time>
      </trkpt>
      <trkpt lat="47.31662" lon="-2.40319">
        <ele>99</ele>
        <time>2019-09-15T08:23:46Z</time>
      </trkpt>
      <trkpt lat="47.31669" lon="-2.40327">
        <ele>99</ele>
        <time>2019-09-15T08:23:49Z</time>
      </trkpt>
      <trkpt lat="47.31674" lon="-2.4033">
        <ele>99</ele>
        <time>2019-09-15T08:23:51Z</time>
      </trkpt>
      <trkpt lat="47.31679" lon="-2.4033">
        <ele>99</ele>
        <time>2019-09-15T08:23:53Z</time>
      </trkpt>
      <trkpt lat="47.31679" lon="-2.4033">
        <ele>44.9</ele>
        <time>2019-09-15T08:23:59Z</time>
      </trkpt>
      <trkpt lat="47.31679" lon="-2.4033">
        <ele>44.9</ele>
        <time>2019-09-15T08:27:03Z</time>
      </trkpt>
      <trkpt lat="47.31695" lon="-2.40339">
        <ele>95</ele>
        <time>2019-09-15T08:27:03Z</time>
      </trkpt>
      <trkpt lat="47.31716" lon="-2.40359">
        <ele>113</ele>
        <time>2019-09-15T08:27:11Z</time>
      </trkpt>
      <trkpt lat="47.31722" lon="-2.40367">
        <ele>117</ele>
        <time>2019-09-15T08:27:13Z</time>
      </trkpt>
      <trkpt lat="47.31733" lon="-2.40374">
        <ele>116</ele>
        <time>2019-09-15T08:27:16Z</time>
      </trkpt>
      <trkpt lat="47.31739" lon="-2.40379">
        <ele>117</ele>
        <time>2019-09-15T08:27:18Z</time>
      </trkpt>
      <trkpt lat="47.31743" lon="-2.40382">
        <ele>118</ele>
        <time>2019-09-15T08:27:19Z</time>
      </trkpt>
      <trkpt lat="47.3175" lon="-2.40386">
        <ele>119</ele>
        <time>2019-09-15T08:27:21Z</time>
      </trkpt>
      <trkpt lat="47.3176" lon="-2.40392">
        <ele>125</ele>
        <time>2019-09-15T08:27:24Z</time>
      </trkpt>
      <trkpt lat="47.31764" lon="-2.40394">
        <ele>126</ele>
        <time>2019-09-15T08:27:25Z</time>
      </trkpt>
      <trkpt lat="47.31771" lon="-2.40399">
        <ele>126</ele>
        <time>2019-09-15T08:27:27Z</time>
      </trkpt>
      <trkpt lat="47.31779" lon="-2.40404">
        <ele>125</ele>
        <time>2019-09-15T08:27:29Z</time>
      </trkpt>
      <trkpt lat="47.31783" lon="-2.40408">
        <ele>125</ele>
        <time>2019-09-15T08:27:30Z</time>
      </trkpt>
      <trkpt lat="47.31789" lon="-2.40412">
        <ele>123</ele>
        <time>2019-09-15T08:27:31Z</time>
      </trkpt>
      <trkpt lat="47.31794" lon="-2.40416">
        <ele>122</ele>
        <time>2019-09-15T08:27:32Z</time>
      </trkpt>
      <trkpt lat="47.31799" lon="-2.40419">
        <ele>122</ele>
        <time>2019-09-15T08:27:33Z</time>
      </trkpt>
      <trkpt lat="47.31803" lon="-2.40422">
        <ele>123</ele>
        <time>2019-09-15T08:27:34Z</time>
      </trkpt>
      <trkpt lat="47.31811" lon="-2.4043">
        <ele>122</ele>
        <time>2019-09-15T08:27:36Z</time>
      </trkpt>
      <trkpt lat="47.31819" lon="-2.40435">
        <ele>121</ele>
        <time>2019-09-15T08:27:38Z</time>
      </trkpt>
      <trkpt lat="47.31823" lon="-2.40438">
        <ele>120</ele>
        <time>2019-09-15T08:27:39Z</time>
      </trkpt>
      <trkpt lat="47.31836" lon="-2.40447">
        <ele>119</ele>
        <time>2019-09-15T08:27:42Z</time>
      </trkpt>
      <trkpt lat="47.31841" lon="-2.40451">
        <ele>118</ele>
        <time>2019-09-15T08:27:43Z</time>
      </trkpt>
      <trkpt lat="47.31845" lon="-2.40454">
        <ele>117</ele>
        <time>2019-09-15T08:27:44Z</time>
      </trkpt>
      <trkpt lat="47.31849" lon="-2.40457">
        <ele>117</ele>
        <time>2019-09-15T08:27:45Z</time>
      </trkpt>
      <trkpt lat="47.31852" lon="-2.40459">
        <ele>117</ele>
        <time>2019-09-15T08:27:46Z</time>
      </trkpt>
      <trkpt lat="47.31862" lon="-2.40465">
        <ele>117</ele>
        <time>2019-09-15T08:27:48Z</time>
      </trkpt>
      <trkpt lat="47.31867" lon="-2.40468">
        <ele>117</ele>
        <time>2019-09-15T08:27:49Z</time>
      </trkpt>
      <trkpt lat="47.31871" lon="-2.40472">
        <ele>117</ele>
        <time>2019-09-15T08:27:50Z</time>
      </trkpt>
      <trkpt lat="47.3189" lon="-2.40488">
        <ele>117</ele>
        <time>2019-09-15T08:27:54Z</time>
      </trkpt>
      <trkpt lat="47.31895" lon="-2.40493">
        <ele>117</ele>
        <time>2019-09-15T08:27:55Z</time>
      </trkpt>
      <trkpt lat="47.319" lon="-2.40497">
        <ele>117</ele>
        <time>2019-09-15T08:27:56Z</time>
      </trkpt>
      <trkpt lat="47.31905" lon="-2.40502">
        <ele>117</ele>
        <time>2019-09-15T08:27:57Z</time>
      </trkpt>
      <trkpt lat="47.3191" lon="-2.40507">
        <ele>117</ele>
        <time>2019-09-15T08:27:58Z</time>
      </trkpt>
      <trkpt lat="47.31915" lon="-2.40512">
        <ele>117</ele>
        <time>2019-09-15T08:27:59Z</time>
      </trkpt>
      <trkpt lat="47.31928" lon="-2.40522">
        <ele>117</ele>
        <time>2019-09-15T08:28:01Z</time>
      </trkpt>
      <trkpt lat="47.31933" lon="-2.40523">
        <ele>117</ele>
        <time>2019-09-15T08:28:02Z</time>
      </trkpt>
      <trkpt lat="47.31937" lon="-2.40526">
        <ele>117</ele>
        <time>2019-09-15T08:28:03Z</time>
      </trkpt>
      <trkpt lat="47.31949" lon="-2.40532">
        <ele>118</ele>
        <time>2019-09-15T08:28:06Z</time>
      </trkpt>
      <trkpt lat="47.31954" lon="-2.40536">
        <ele>118</ele>
        <time>2019-09-15T08:28:07Z</time>
      </trkpt>
      <trkpt lat="47.31958" lon="-2.4054">
        <ele>118</ele>
        <time>2019-09-15T08:28:08Z</time>
      </trkpt>
      <trkpt lat="47.31964" lon="-2.40544">
        <ele>118</ele>
        <time>2019-09-15T08:28:09Z</time>
      </trkpt>
      <trkpt lat="47.31975" lon="-2.40552">
        <ele>118</ele>
        <time>2019-09-15T08:28:11Z</time>
      </trkpt>
      <trkpt lat="47.3198" lon="-2.40557">
        <ele>117</ele>
        <time>2019-09-15T08:28:12Z</time>
      </trkpt>
      <trkpt lat="47.31986" lon="-2.40562">
        <ele>118</ele>
        <time>2019-09-15T08:28:13Z</time>
      </trkpt>
      <trkpt lat="47.31992" lon="-2.40566">
        <ele>118</ele>
        <time>2019-09-15T08:28:15Z</time>
      </trkpt>
      <trkpt lat="47.31997" lon="-2.4057">
        <ele>118</ele>
        <time>2019-09-15T08:28:16Z</time>
      </trkpt>
      <trkpt lat="47.32002" lon="-2.40575">
        <ele>117</ele>
        <time>2019-09-15T08:28:17Z</time>
      </trkpt>
      <trkpt lat="47.32007" lon="-2.40581">
        <ele>117</ele>
        <time>2019-09-15T08:28:18Z</time>
      </trkpt>
      <trkpt lat="47.32017" lon="-2.40591">
        <ele>117</ele>
        <time>2019-09-15T08:28:20Z</time>
      </trkpt>
      <trkpt lat="47.32031" lon="-2.40605">
        <ele>117</ele>
        <time>2019-09-15T08:28:23Z</time>
      </trkpt>
      <trkpt lat="47.32036" lon="-2.40609">
        <ele>116</ele>
        <time>2019-09-15T08:28:24Z</time>
      </trkpt>
      <trkpt lat="47.3204" lon="-2.40612">
        <ele>116</ele>
        <time>2019-09-15T08:28:25Z</time>
      </trkpt>
      <trkpt lat="47.32048" lon="-2.40619">
        <ele>115</ele>
        <time>2019-09-15T08:28:27Z</time>
      </trkpt>
      <trkpt lat="47.32052" lon="-2.40623">
        <ele>115</ele>
        <time>2019-09-15T08:28:28Z</time>
      </trkpt>
      <trkpt lat="47.32057" lon="-2.40626">
        <ele>115</ele>
        <time>2019-09-15T08:28:29Z</time>
      </trkpt>
      <trkpt lat="47.32061" lon="-2.40629">
        <ele>115</ele>
        <time>2019-09-15T08:28:30Z</time>
      </trkpt>
      <trkpt lat="47.32071" lon="-2.40638">
        <ele>116</ele>
        <time>2019-09-15T08:28:32Z</time>
      </trkpt>
      <trkpt lat="47.32076" lon="-2.40642">
        <ele>115</ele>
        <time>2019-09-15T08:28:33Z</time>
      </trkpt>
      <trkpt lat="47.32081" lon="-2.40647">
        <ele>115</ele>
        <time>2019-09-15T08:28:34Z</time>
      </trkpt>
      <trkpt lat="47.32085" lon="-2.40652">
        <ele>115</ele>
        <time>2019-09-15T08:28:35Z</time>
      </trkpt>
      <trkpt lat="47.3209" lon="-2.40656">
        <ele>115</ele>
        <time>2019-09-15T08:28:36Z</time>
      </trkpt>
      <trkpt lat="47.32095" lon="-2.40661">
        <ele>115</ele>
        <time>2019-09-15T08:28:37Z</time>
      </trkpt>
      <trkpt lat="47.32099" lon="-2.40666">
        <ele>114</ele>
        <time>2019-09-15T08:28:38Z</time>
      </trkpt>
      <trkpt lat="47.32104" lon="-2.40671">
        <ele>114</ele>
        <time>2019-09-15T08:28:39Z</time>
      </trkpt>
      <trkpt lat="47.32108" lon="-2.40676">
        <ele>114</ele>
        <time>2019-09-15T08:28:40Z</time>
      </trkpt>
      <trkpt lat="47.32112" lon="-2.40681">
        <ele>113</ele>
        <time>2019-09-15T08:28:41Z</time>
      </trkpt>
      <trkpt lat="47.32116" lon="-2.40686">
        <ele>113</ele>
        <time>2019-09-15T08:28:42Z</time>
      </trkpt>
      <trkpt lat="47.32121" lon="-2.4069">
        <ele>113</ele>
        <time>2019-09-15T08:28:43Z</time>
      </trkpt>
      <trkpt lat="47.32125" lon="-2.40696">
        <ele>113</ele>
        <time>2019-09-15T08:28:44Z</time>
      </trkpt>
      <trkpt lat="47.32138" lon="-2.40711">
        <ele>113</ele>
        <time>2019-09-15T08:28:47Z</time>
      </trkpt>
      <trkpt lat="47.32143" lon="-2.40718">
        <ele>113</ele>
        <time>2019-09-15T08:28:48Z</time>
      </trkpt>
      <trkpt lat="47.32147" lon="-2.40723">
        <ele>112</ele>
        <time>2019-09-15T08:28:49Z</time>
      </trkpt>
      <trkpt lat="47.32151" lon="-2.40729">
        <ele>112</ele>
        <time>2019-09-15T08:28:50Z</time>
      </trkpt>
      <trkpt lat="47.32155" lon="-2.40734">
        <ele>112</ele>
        <time>2019-09-15T08:28:51Z</time>
      </trkpt>
      <trkpt lat="47.32159" lon="-2.40739">
        <ele>112</ele>
        <time>2019-09-15T08:28:52Z</time>
      </trkpt>
      <trkpt lat="47.32163" lon="-2.40744">
        <ele>112</ele>
        <time>2019-09-15T08:28:53Z</time>
      </trkpt>
      <trkpt lat="47.32166" lon="-2.40748">
        <ele>112</ele>
        <time>2019-09-15T08:28:54Z</time>
      </trkpt>
      <trkpt lat="47.32174" lon="-2.40758">
        <ele>113</ele>
        <time>2019-09-15T08:28:56Z</time>
      </trkpt>
      <trkpt lat="47.32177" lon="-2.40762">
        <ele>113</ele>
        <time>2019-09-15T08:28:57Z</time>
      </trkpt>
      <trkpt lat="47.32187" lon="-2.40775">
        <ele>113</ele>
        <time>2019-09-15T08:29:00Z</time>
      </trkpt>
      <trkpt lat="47.3219" lon="-2.40778">
        <ele>112</ele>
        <time>2019-09-15T08:29:01Z</time>
      </trkpt>
      <trkpt lat="47.32196" lon="-2.40786">
        <ele>112</ele>
        <time>2019-09-15T08:29:04Z</time>
      </trkpt>
      <trkpt lat="47.32202" lon="-2.40791">
        <ele>113</ele>
        <time>2019-09-15T08:29:07Z</time>
      </trkpt>
      <trkpt lat="47.32207" lon="-2.40798">
        <ele>113</ele>
        <time>2019-09-15T08:29:09Z</time>
      </trkpt>
      <trkpt lat="47.32217" lon="-2.40812">
        <ele>111</ele>
        <time>2019-09-15T08:29:12Z</time>
      </trkpt>
      <trkpt lat="47.32225" lon="-2.4082">
        <ele>109</ele>
        <time>2019-09-15T08:29:14Z</time>
      </trkpt>
      <trkpt lat="47.32228" lon="-2.40825">
        <ele>109</ele>
        <time>2019-09-15T08:29:15Z</time>
      </trkpt>
      <trkpt lat="47.32236" lon="-2.40837">
        <ele>108</ele>
        <time>2019-09-15T08:29:17Z</time>
      </trkpt>
      <trkpt lat="47.32239" lon="-2.40844">
        <ele>107</ele>
        <time>2019-09-15T08:29:18Z</time>
      </trkpt>
      <trkpt lat="47.32243" lon="-2.40851">
        <ele>107</ele>
        <time>2019-09-15T08:29:19Z</time>
      </trkpt>
      <trkpt lat="47.32246" lon="-2.40857">
        <ele>107</ele>
        <time>2019-09-15T08:29:20Z</time>
      </trkpt>
      <trkpt lat="47.3225" lon="-2.40863">
        <ele>106</ele>
        <time>2019-09-15T08:29:21Z</time>
      </trkpt>
      <trkpt lat="47.32253" lon="-2.40869">
        <ele>106</ele>
        <time>2019-09-15T08:29:22Z</time>
      </trkpt>
      <trkpt lat="47.32257" lon="-2.40876">
        <ele>106</ele>
        <time>2019-09-15T08:29:23Z</time>
      </trkpt>
      <trkpt lat="47.32261" lon="-2.40882">
        <ele>106</ele>
        <time>2019-09-15T08:29:24Z</time>
      </trkpt>
      <trkpt lat="47.32264" lon="-2.40889">
        <ele>106</ele>
        <time>2019-09-15T08:29:25Z</time>
      </trkpt>
      <trkpt lat="47.32268" lon="-2.40894">
        <ele>106</ele>
        <time>2019-09-15T08:29:26Z</time>
      </trkpt>
      <trkpt lat="47.32271" lon="-2.409">
        <ele>106</ele>
        <time>2019-09-15T08:29:27Z</time>
      </trkpt>
      <trkpt lat="47.32284" lon="-2.40925">
        <ele>105</ele>
        <time>2019-09-15T08:29:31Z</time>
      </trkpt>
      <trkpt lat="47.3229" lon="-2.40937">
        <ele>104</ele>
        <time>2019-09-15T08:29:32Z</time>
      </trkpt>
      <trkpt lat="47.32293" lon="-2.40943">
        <ele>104</ele>
        <time>2019-09-15T08:29:33Z</time>
      </trkpt>
      <trkpt lat="47.32296" lon="-2.40949">
        <ele>104</ele>
        <time>2019-09-15T08:29:34Z</time>
      </trkpt>
      <trkpt lat="47.32299" lon="-2.40955">
        <ele>104</ele>
        <time>2019-09-15T08:29:35Z</time>
      </trkpt>
      <trkpt lat="47.32305" lon="-2.40966">
        <ele>104</ele>
        <time>2019-09-15T08:29:38Z</time>
      </trkpt>
      <trkpt lat="47.32308" lon="-2.40971">
        <ele>104</ele>
        <time>2019-09-15T08:29:39Z</time>
      </trkpt>
      <trkpt lat="47.32317" lon="-2.40988">
        <ele>104</ele>
        <time>2019-09-15T08:29:42Z</time>
      </trkpt>
      <trkpt lat="47.3232" lon="-2.40994">
        <ele>105</ele>
        <time>2019-09-15T08:29:43Z</time>
      </trkpt>
      <trkpt lat="47.32326" lon="-2.41006">
        <ele>105</ele>
        <time>2019-09-15T08:29:45Z</time>
      </trkpt>
      <trkpt lat="47.32329" lon="-2.41012">
        <ele>105</ele>
        <time>2019-09-15T08:29:46Z</time>
      </trkpt>
      <trkpt lat="47.32332" lon="-2.41017">
        <ele>105</ele>
        <time>2019-09-15T08:29:47Z</time>
      </trkpt>
      <trkpt lat="47.32335" lon="-2.41023">
        <ele>105</ele>
        <time>2019-09-15T08:29:48Z</time>
      </trkpt>
      <trkpt lat="47.32338" lon="-2.41028">
        <ele>105</ele>
        <time>2019-09-15T08:29:49Z</time>
      </trkpt>
      <trkpt lat="47.3234" lon="-2.41033">
        <ele>105</ele>
        <time>2019-09-15T08:29:50Z</time>
      </trkpt>
      <trkpt lat="47.32343" lon="-2.41038">
        <ele>104</ele>
        <time>2019-09-15T08:29:51Z</time>
      </trkpt>
      <trkpt lat="47.32346" lon="-2.41044">
        <ele>105</ele>
        <time>2019-09-15T08:29:52Z</time>
      </trkpt>
      <trkpt lat="47.32349" lon="-2.4105">
        <ele>105</ele>
        <time>2019-09-15T08:29:53Z</time>
      </trkpt>
      <trkpt lat="47.32355" lon="-2.4106">
        <ele>105</ele>
        <time>2019-09-15T08:29:55Z</time>
      </trkpt>
      <trkpt lat="47.32357" lon="-2.41064">
        <ele>104</ele>
        <time>2019-09-15T08:29:56Z</time>
      </trkpt>
      <trkpt lat="47.32359" lon="-2.41069">
        <ele>104</ele>
        <time>2019-09-15T08:29:57Z</time>
      </trkpt>
      <trkpt lat="47.32363" lon="-2.41076">
        <ele>105</ele>
        <time>2019-09-15T08:29:59Z</time>
      </trkpt>
      <trkpt lat="47.32368" lon="-2.41081">
        <ele>105</ele>
        <time>2019-09-15T08:30:01Z</time>
      </trkpt>
      <trkpt lat="47.32372" lon="-2.41089">
        <ele>105</ele>
        <time>2019-09-15T08:30:03Z</time>
      </trkpt>
      <trkpt lat="47.32377" lon="-2.411">
        <ele>105</ele>
        <time>2019-09-15T08:30:05Z</time>
      </trkpt>
      <trkpt lat="47.3238" lon="-2.41106">
        <ele>105</ele>
        <time>2019-09-15T08:30:06Z</time>
      </trkpt>
      <trkpt lat="47.32383" lon="-2.41112">
        <ele>105</ele>
        <time>2019-09-15T08:30:07Z</time>
      </trkpt>
      <trkpt lat="47.32386" lon="-2.41118">
        <ele>105</ele>
        <time>2019-09-15T08:30:08Z</time>
      </trkpt>
      <trkpt lat="47.32389" lon="-2.41123">
        <ele>105</ele>
        <time>2019-09-15T08:30:09Z</time>
      </trkpt>
      <trkpt lat="47.32392" lon="-2.41129">
        <ele>105</ele>
        <time>2019-09-15T08:30:10Z</time>
      </trkpt>
      <trkpt lat="47.32394" lon="-2.41134">
        <ele>105</ele>
        <time>2019-09-15T08:30:11Z</time>
      </trkpt>
      <trkpt lat="47.32397" lon="-2.4114">
        <ele>105</ele>
        <time>2019-09-15T08:30:12Z</time>
      </trkpt>
      <trkpt lat="47.32399" lon="-2.41145">
        <ele>105</ele>
        <time>2019-09-15T08:30:13Z</time>
      </trkpt>
      <trkpt lat="47.32402" lon="-2.41149">
        <ele>104</ele>
        <time>2019-09-15T08:30:14Z</time>
      </trkpt>
      <trkpt lat="47.32404" lon="-2.41154">
        <ele>104</ele>
        <time>2019-09-15T08:30:15Z</time>
      </trkpt>
      <trkpt lat="47.32409" lon="-2.41164">
        <ele>104</ele>
        <time>2019-09-15T08:30:17Z</time>
      </trkpt>
      <trkpt lat="47.32415" lon="-2.41173">
        <ele>103</ele>
        <time>2019-09-15T08:30:19Z</time>
      </trkpt>
      <trkpt lat="47.3242" lon="-2.41184">
        <ele>103</ele>
        <time>2019-09-15T08:30:21Z</time>
      </trkpt>
      <trkpt lat="47.32424" lon="-2.41191">
        <ele>103</ele>
        <time>2019-09-15T08:30:23Z</time>
      </trkpt>
      <trkpt lat="47.32431" lon="-2.41202">
        <ele>104</ele>
        <time>2019-09-15T08:30:26Z</time>
      </trkpt>
      <trkpt lat="47.32434" lon="-2.41207">
        <ele>104</ele>
        <time>2019-09-15T08:30:27Z</time>
      </trkpt>
      <trkpt lat="47.32437" lon="-2.41212">
        <ele>104</ele>
        <time>2019-09-15T08:30:28Z</time>
      </trkpt>
      <trkpt lat="47.3244" lon="-2.41218">
        <ele>104</ele>
        <time>2019-09-15T08:30:29Z</time>
      </trkpt>
      <trkpt lat="47.32443" lon="-2.41224">
        <ele>104</ele>
        <time>2019-09-15T08:30:30Z</time>
      </trkpt>
      <trkpt lat="47.32446" lon="-2.41231">
        <ele>104</ele>
        <time>2019-09-15T08:30:31Z</time>
      </trkpt>
      <trkpt lat="47.3245" lon="-2.41238">
        <ele>104</ele>
        <time>2019-09-15T08:30:32Z</time>
      </trkpt>
      <trkpt lat="47.32453" lon="-2.41244">
        <ele>104</ele>
        <time>2019-09-15T08:30:33Z</time>
      </trkpt>
      <trkpt lat="47.32457" lon="-2.41251">
        <ele>104</ele>
        <time>2019-09-15T08:30:34Z</time>
      </trkpt>
      <trkpt lat="47.3246" lon="-2.41259">
        <ele>105</ele>
        <time>2019-09-15T08:30:35Z</time>
      </trkpt>
      <trkpt lat="47.32464" lon="-2.41265">
        <ele>105</ele>
        <time>2019-09-15T08:30:36Z</time>
      </trkpt>
      <trkpt lat="47.32467" lon="-2.41272">
        <ele>105</ele>
        <time>2019-09-15T08:30:37Z</time>
      </trkpt>
      <trkpt lat="47.32471" lon="-2.4128">
        <ele>104</ele>
        <time>2019-09-15T08:30:38Z</time>
      </trkpt>
      <trkpt lat="47.32475" lon="-2.41286">
        <ele>104</ele>
        <time>2019-09-15T08:30:39Z</time>
      </trkpt>
      <trkpt lat="47.32482" lon="-2.41301">
        <ele>104</ele>
        <time>2019-09-15T08:30:40Z</time>
      </trkpt>
      <trkpt lat="47.32486" lon="-2.41308">
        <ele>104</ele>
        <time>2019-09-15T08:30:42Z</time>
      </trkpt>
      <trkpt lat="47.32494" lon="-2.41322">
        <ele>104</ele>
        <time>2019-09-15T08:30:44Z</time>
      </trkpt>
      <trkpt lat="47.32501" lon="-2.41336">
        <ele>104</ele>
        <time>2019-09-15T08:30:45Z</time>
      </trkpt>
      <trkpt lat="47.32505" lon="-2.41343">
        <ele>104</ele>
        <time>2019-09-15T08:30:46Z</time>
      </trkpt>
      <trkpt lat="47.32509" lon="-2.4135">
        <ele>104</ele>
        <time>2019-09-15T08:30:47Z</time>
      </trkpt>
      <trkpt lat="47.32512" lon="-2.41358">
        <ele>104</ele>
        <time>2019-09-15T08:30:48Z</time>
      </trkpt>
      <trkpt lat="47.32516" lon="-2.41365">
        <ele>104</ele>
        <time>2019-09-15T08:30:49Z</time>
      </trkpt>
      <trkpt lat="47.3252" lon="-2.41372">
        <ele>104</ele>
        <time>2019-09-15T08:30:50Z</time>
      </trkpt>
      <trkpt lat="47.32524" lon="-2.41379">
        <ele>104</ele>
        <time>2019-09-15T08:30:51Z</time>
      </trkpt>
      <trkpt lat="47.32528" lon="-2.41386">
        <ele>104</ele>
        <time>2019-09-15T08:30:52Z</time>
      </trkpt>
      <trkpt lat="47.32532" lon="-2.41394">
        <ele>104</ele>
        <time>2019-09-15T08:30:53Z</time>
      </trkpt>
      <trkpt lat="47.32535" lon="-2.41401">
        <ele>103</ele>
        <time>2019-09-15T08:30:54Z</time>
      </trkpt>
      <trkpt lat="47.32538" lon="-2.41409">
        <ele>103</ele>
        <time>2019-09-15T08:30:56Z</time>
      </trkpt>
      <trkpt lat="47.32542" lon="-2.41416">
        <ele>103</ele>
        <time>2019-09-15T08:30:57Z</time>
      </trkpt>
      <trkpt lat="47.32549" lon="-2.4143">
        <ele>103</ele>
        <time>2019-09-15T08:30:58Z</time>
      </trkpt>
      <trkpt lat="47.32552" lon="-2.41436">
        <ele>103</ele>
        <time>2019-09-15T08:30:59Z</time>
      </trkpt>
      <trkpt lat="47.32555" lon="-2.41441">
        <ele>103</ele>
        <time>2019-09-15T08:31:01Z</time>
      </trkpt>
      <trkpt lat="47.32558" lon="-2.41446">
        <ele>102</ele>
        <time>2019-09-15T08:31:02Z</time>
      </trkpt>
      <trkpt lat="47.32563" lon="-2.41455">
        <ele>102</ele>
        <time>2019-09-15T08:31:04Z</time>
      </trkpt>
      <trkpt lat="47.32565" lon="-2.41459">
        <ele>102</ele>
        <time>2019-09-15T08:31:05Z</time>
      </trkpt>
      <trkpt lat="47.32568" lon="-2.41463">
        <ele>102</ele>
        <time>2019-09-15T08:31:06Z</time>
      </trkpt>
      <trkpt lat="47.32571" lon="-2.41471">
        <ele>102</ele>
        <time>2019-09-15T08:31:08Z</time>
      </trkpt>
      <trkpt lat="47.32573" lon="-2.4148">
        <ele>102</ele>
        <time>2019-09-15T08:31:10Z</time>
      </trkpt>
      <trkpt lat="47.32573" lon="-2.4149">
        <ele>102</ele>
        <time>2019-09-15T08:31:12Z</time>
      </trkpt>
      <trkpt lat="47.32573" lon="-2.41496">
        <ele>102</ele>
        <time>2019-09-15T08:31:13Z</time>
      </trkpt>
      <trkpt lat="47.32576" lon="-2.41509">
        <ele>101</ele>
        <time>2019-09-15T08:31:15Z</time>
      </trkpt>
      <trkpt lat="47.32584" lon="-2.41517">
        <ele>101</ele>
        <time>2019-09-15T08:31:17Z</time>
      </trkpt>
      <trkpt lat="47.3259" lon="-2.4152">
        <ele>101</ele>
        <time>2019-09-15T08:31:18Z</time>
      </trkpt>
      <trkpt lat="47.32595" lon="-2.41522">
        <ele>101</ele>
        <time>2019-09-15T08:31:19Z</time>
      </trkpt>
      <trkpt lat="47.32601" lon="-2.41523">
        <ele>101</ele>
        <time>2019-09-15T08:31:20Z</time>
      </trkpt>
      <trkpt lat="47.32606" lon="-2.41524">
        <ele>101</ele>
        <time>2019-09-15T08:31:21Z</time>
      </trkpt>
      <trkpt lat="47.32611" lon="-2.41525">
        <ele>101</ele>
        <time>2019-09-15T08:31:22Z</time>
      </trkpt>
      <trkpt lat="47.32617" lon="-2.41527">
        <ele>101</ele>
        <time>2019-09-15T08:31:23Z</time>
      </trkpt>
      <trkpt lat="47.32622" lon="-2.41528">
        <ele>101</ele>
        <time>2019-09-15T08:31:24Z</time>
      </trkpt>
      <trkpt lat="47.32627" lon="-2.41528">
        <ele>101</ele>
        <time>2019-09-15T08:31:25Z</time>
      </trkpt>
      <trkpt lat="47.32632" lon="-2.41529">
        <ele>101</ele>
        <time>2019-09-15T08:31:26Z</time>
      </trkpt>
      <trkpt lat="47.32637" lon="-2.4153">
        <ele>101</ele>
        <time>2019-09-15T08:31:27Z</time>
      </trkpt>
      <trkpt lat="47.32642" lon="-2.41532">
        <ele>101</ele>
        <time>2019-09-15T08:31:28Z</time>
      </trkpt>
      <trkpt lat="47.32648" lon="-2.41533">
        <ele>100</ele>
        <time>2019-09-15T08:31:29Z</time>
      </trkpt>
      <trkpt lat="47.32653" lon="-2.41533">
        <ele>100</ele>
        <time>2019-09-15T08:31:30Z</time>
      </trkpt>
      <trkpt lat="47.32659" lon="-2.41534">
        <ele>100</ele>
        <time>2019-09-15T08:31:31Z</time>
      </trkpt>
      <trkpt lat="47.32664" lon="-2.41536">
        <ele>99</ele>
        <time>2019-09-15T08:31:32Z</time>
      </trkpt>
      <trkpt lat="47.32669" lon="-2.41536">
        <ele>99</ele>
        <time>2019-09-15T08:31:33Z</time>
      </trkpt>
      <trkpt lat="47.32679" lon="-2.41538">
        <ele>99</ele>
        <time>2019-09-15T08:31:35Z</time>
      </trkpt>
      <trkpt lat="47.32684" lon="-2.41538">
        <ele>99</ele>
        <time>2019-09-15T08:31:36Z</time>
      </trkpt>
      <trkpt lat="47.32689" lon="-2.41539">
        <ele>99</ele>
        <time>2019-09-15T08:31:37Z</time>
      </trkpt>
      <trkpt lat="47.32694" lon="-2.4154">
        <ele>99</ele>
        <time>2019-09-15T08:31:38Z</time>
      </trkpt>
      <trkpt lat="47.327" lon="-2.41545">
        <ele>99</ele>
        <time>2019-09-15T08:31:40Z</time>
      </trkpt>
      <trkpt lat="47.32701" lon="-2.41552">
        <ele>99</ele>
        <time>2019-09-15T08:31:42Z</time>
      </trkpt>
      <trkpt lat="47.327" lon="-2.41566">
        <ele>100</ele>
        <time>2019-09-15T08:31:45Z</time>
      </trkpt>
      <trkpt lat="47.32701" lon="-2.41573">
        <ele>99</ele>
        <time>2019-09-15T08:31:48Z</time>
      </trkpt>
      <trkpt lat="47.32704" lon="-2.41579">
        <ele>99</ele>
        <time>2019-09-15T08:31:51Z</time>
      </trkpt>
      <trkpt lat="47.32705" lon="-2.4159">
        <ele>99</ele>
        <time>2019-09-15T08:31:53Z</time>
      </trkpt>
      <trkpt lat="47.32705" lon="-2.41596">
        <ele>98</ele>
        <time>2019-09-15T08:31:54Z</time>
      </trkpt>
      <trkpt lat="47.3271" lon="-2.41607">
        <ele>98</ele>
        <time>2019-09-15T08:31:56Z</time>
      </trkpt>
      <trkpt lat="47.32713" lon="-2.41613">
        <ele>98</ele>
        <time>2019-09-15T08:31:57Z</time>
      </trkpt>
      <trkpt lat="47.32715" lon="-2.41621">
        <ele>98</ele>
        <time>2019-09-15T08:31:58Z</time>
      </trkpt>
      <trkpt lat="47.32716" lon="-2.41648">
        <ele>98</ele>
        <time>2019-09-15T08:32:01Z</time>
      </trkpt>
      <trkpt lat="47.32716" lon="-2.41657">
        <ele>98</ele>
        <time>2019-09-15T08:32:02Z</time>
      </trkpt>
      <trkpt lat="47.32715" lon="-2.41666">
        <ele>98</ele>
        <time>2019-09-15T08:32:03Z</time>
      </trkpt>
      <trkpt lat="47.32714" lon="-2.41674">
        <ele>98</ele>
        <time>2019-09-15T08:32:04Z</time>
      </trkpt>
      <trkpt lat="47.32714" lon="-2.41683">
        <ele>97</ele>
        <time>2019-09-15T08:32:05Z</time>
      </trkpt>
      <trkpt lat="47.32713" lon="-2.41691">
        <ele>98</ele>
        <time>2019-09-15T08:32:06Z</time>
      </trkpt>
      <trkpt lat="47.32713" lon="-2.417">
        <ele>98</ele>
        <time>2019-09-15T08:32:07Z</time>
      </trkpt>
      <trkpt lat="47.32712" lon="-2.41707">
        <ele>98</ele>
        <time>2019-09-15T08:32:08Z</time>
      </trkpt>
      <trkpt lat="47.32712" lon="-2.41714">
        <ele>98</ele>
        <time>2019-09-15T08:32:09Z</time>
      </trkpt>
      <trkpt lat="47.32711" lon="-2.41721">
        <ele>98</ele>
        <time>2019-09-15T08:32:10Z</time>
      </trkpt>
      <trkpt lat="47.3271" lon="-2.41728">
        <ele>98</ele>
        <time>2019-09-15T08:32:11Z</time>
      </trkpt>
      <trkpt lat="47.3271" lon="-2.41735">
        <ele>97</ele>
        <time>2019-09-15T08:32:12Z</time>
      </trkpt>
      <trkpt lat="47.32709" lon="-2.41746">
        <ele>97</ele>
        <time>2019-09-15T08:32:14Z</time>
      </trkpt>
      <trkpt lat="47.32708" lon="-2.41756">
        <ele>97</ele>
        <time>2019-09-15T08:32:16Z</time>
      </trkpt>
      <trkpt lat="47.32709" lon="-2.41766">
        <ele>96</ele>
        <time>2019-09-15T08:32:18Z</time>
      </trkpt>
      <trkpt lat="47.32714" lon="-2.41769">
        <ele>96</ele>
        <time>2019-09-15T08:32:19Z</time>
      </trkpt>
      <trkpt lat="47.32717" lon="-2.41774">
        <ele>96</ele>
        <time>2019-09-15T08:32:20Z</time>
      </trkpt>
      <trkpt lat="47.32721" lon="-2.41778">
        <ele>97</ele>
        <time>2019-09-15T08:32:21Z</time>
      </trkpt>
      <trkpt lat="47.32724" lon="-2.41783">
        <ele>97</ele>
        <time>2019-09-15T08:32:22Z</time>
      </trkpt>
      <trkpt lat="47.32727" lon="-2.41789">
        <ele>97</ele>
        <time>2019-09-15T08:32:23Z</time>
      </trkpt>
      <trkpt lat="47.3273" lon="-2.41795">
        <ele>98</ele>
        <time>2019-09-15T08:32:24Z</time>
      </trkpt>
      <trkpt lat="47.32733" lon="-2.418">
        <ele>98</ele>
        <time>2019-09-15T08:32:25Z</time>
      </trkpt>
      <trkpt lat="47.32736" lon="-2.41806">
        <ele>97</ele>
        <time>2019-09-15T08:32:26Z</time>
      </trkpt>
      <trkpt lat="47.32739" lon="-2.41813">
        <ele>97</ele>
        <time>2019-09-15T08:32:27Z</time>
      </trkpt>
      <trkpt lat="47.32743" lon="-2.4182">
        <ele>97</ele>
        <time>2019-09-15T08:32:28Z</time>
      </trkpt>
      <trkpt lat="47.32747" lon="-2.41826">
        <ele>97</ele>
        <time>2019-09-15T08:32:29Z</time>
      </trkpt>
      <trkpt lat="47.3275" lon="-2.41834">
        <ele>97</ele>
        <time>2019-09-15T08:32:30Z</time>
      </trkpt>
      <trkpt lat="47.32759" lon="-2.41855">
        <ele>97</ele>
        <time>2019-09-15T08:32:33Z</time>
      </trkpt>
      <trkpt lat="47.32761" lon="-2.41863">
        <ele>97</ele>
        <time>2019-09-15T08:32:34Z</time>
      </trkpt>
      <trkpt lat="47.32768" lon="-2.41878">
        <ele>97</ele>
        <time>2019-09-15T08:32:36Z</time>
      </trkpt>
      <trkpt lat="47.32774" lon="-2.41892">
        <ele>96</ele>
        <time>2019-09-15T08:32:38Z</time>
      </trkpt>
      <trkpt lat="47.3278" lon="-2.41907">
        <ele>96</ele>
        <time>2019-09-15T08:32:40Z</time>
      </trkpt>
      <trkpt lat="47.32786" lon="-2.41922">
        <ele>96</ele>
        <time>2019-09-15T08:32:42Z</time>
      </trkpt>
      <trkpt lat="47.3279" lon="-2.41929">
        <ele>96</ele>
        <time>2019-09-15T08:32:43Z</time>
      </trkpt>
      <trkpt lat="47.32797" lon="-2.41942">
        <ele>96</ele>
        <time>2019-09-15T08:32:44Z</time>
      </trkpt>
      <trkpt lat="47.328" lon="-2.41949">
        <ele>96</ele>
        <time>2019-09-15T08:32:45Z</time>
      </trkpt>
      <trkpt lat="47.32803" lon="-2.41955">
        <ele>96</ele>
        <time>2019-09-15T08:32:46Z</time>
      </trkpt>
      <trkpt lat="47.32803" lon="-2.41962">
        <ele>96</ele>
        <time>2019-09-15T08:32:47Z</time>
      </trkpt>
      <trkpt lat="47.32802" lon="-2.41969">
        <ele>96</ele>
        <time>2019-09-15T08:32:48Z</time>
      </trkpt>
      <trkpt lat="47.32802" lon="-2.41976">
        <ele>96</ele>
        <time>2019-09-15T08:32:49Z</time>
      </trkpt>
      <trkpt lat="47.32804" lon="-2.41983">
        <ele>96</ele>
        <time>2019-09-15T08:32:50Z</time>
      </trkpt>
      <trkpt lat="47.32811" lon="-2.41995">
        <ele>95</ele>
        <time>2019-09-15T08:32:52Z</time>
      </trkpt>
      <trkpt lat="47.3282" lon="-2.42002">
        <ele>95</ele>
        <time>2019-09-15T08:32:54Z</time>
      </trkpt>
      <trkpt lat="47.32827" lon="-2.42013">
        <ele>95</ele>
        <time>2019-09-15T08:32:57Z</time>
      </trkpt>
      <trkpt lat="47.32829" lon="-2.42019">
        <ele>96</ele>
        <time>2019-09-15T08:32:58Z</time>
      </trkpt>
      <trkpt lat="47.32832" lon="-2.42026">
        <ele>96</ele>
        <time>2019-09-15T08:32:59Z</time>
      </trkpt>
      <trkpt lat="47.32835" lon="-2.42032">
        <ele>96</ele>
        <time>2019-09-15T08:33:01Z</time>
      </trkpt>
      <trkpt lat="47.32838" lon="-2.42039">
        <ele>96</ele>
        <time>2019-09-15T08:33:02Z</time>
      </trkpt>
      <trkpt lat="47.3284" lon="-2.42046">
        <ele>96</ele>
        <time>2019-09-15T08:33:03Z</time>
      </trkpt>
      <trkpt lat="47.32842" lon="-2.42053">
        <ele>96</ele>
        <time>2019-09-15T08:33:04Z</time>
      </trkpt>
      <trkpt lat="47.32846" lon="-2.42061">
        <ele>96</ele>
        <time>2019-09-15T08:33:05Z</time>
      </trkpt>
      <trkpt lat="47.32849" lon="-2.42068">
        <ele>96</ele>
        <time>2019-09-15T08:33:06Z</time>
      </trkpt>
      <trkpt lat="47.32852" lon="-2.42076">
        <ele>96</ele>
        <time>2019-09-15T08:33:07Z</time>
      </trkpt>
      <trkpt lat="47.32855" lon="-2.42083">
        <ele>96</ele>
        <time>2019-09-15T08:33:08Z</time>
      </trkpt>
      <trkpt lat="47.3286" lon="-2.42096">
        <ele>96</ele>
        <time>2019-09-15T08:33:10Z</time>
      </trkpt>
      <trkpt lat="47.32862" lon="-2.42103">
        <ele>96</ele>
        <time>2019-09-15T08:33:11Z</time>
      </trkpt>
      <trkpt lat="47.32864" lon="-2.42111">
        <ele>96</ele>
        <time>2019-09-15T08:33:12Z</time>
      </trkpt>
      <trkpt lat="47.32866" lon="-2.42119">
        <ele>96</ele>
        <time>2019-09-15T08:33:13Z</time>
      </trkpt>
      <trkpt lat="47.32869" lon="-2.42126">
        <ele>96</ele>
        <time>2019-09-15T08:33:14Z</time>
      </trkpt>
      <trkpt lat="47.32872" lon="-2.42134">
        <ele>96</ele>
        <time>2019-09-15T08:33:15Z</time>
      </trkpt>
      <trkpt lat="47.32874" lon="-2.4214">
        <ele>96</ele>
        <time>2019-09-15T08:33:16Z</time>
      </trkpt>
      <trkpt lat="47.32877" lon="-2.42147">
        <ele>96</ele>
        <time>2019-09-15T08:33:17Z</time>
      </trkpt>
      <trkpt lat="47.32879" lon="-2.42154">
        <ele>97</ele>
        <time>2019-09-15T08:33:18Z</time>
      </trkpt>
      <trkpt lat="47.32882" lon="-2.42161">
        <ele>97</ele>
        <time>2019-09-15T08:33:19Z</time>
      </trkpt>
      <trkpt lat="47.32884" lon="-2.42167">
        <ele>97</ele>
        <time>2019-09-15T08:33:20Z</time>
      </trkpt>
      <trkpt lat="47.32887" lon="-2.42174">
        <ele>96</ele>
        <time>2019-09-15T08:33:21Z</time>
      </trkpt>
      <trkpt lat="47.32888" lon="-2.4219">
        <ele>96</ele>
        <time>2019-09-15T08:33:23Z</time>
      </trkpt>
      <trkpt lat="47.32887" lon="-2.42198">
        <ele>96</ele>
        <time>2019-09-15T08:33:24Z</time>
      </trkpt>
      <trkpt lat="47.32887" lon="-2.42206">
        <ele>95</ele>
        <time>2019-09-15T08:33:25Z</time>
      </trkpt>
      <trkpt lat="47.32886" lon="-2.42215">
        <ele>95</ele>
        <time>2019-09-15T08:33:26Z</time>
      </trkpt>
      <trkpt lat="47.32885" lon="-2.42224">
        <ele>95</ele>
        <time>2019-09-15T08:33:27Z</time>
      </trkpt>
      <trkpt lat="47.32885" lon="-2.42232">
        <ele>95</ele>
        <time>2019-09-15T08:33:28Z</time>
      </trkpt>
      <trkpt lat="47.32884" lon="-2.42259">
        <ele>95</ele>
        <time>2019-09-15T08:33:31Z</time>
      </trkpt>
      <trkpt lat="47.32884" lon="-2.42269">
        <ele>95</ele>
        <time>2019-09-15T08:33:32Z</time>
      </trkpt>
      <trkpt lat="47.32884" lon="-2.42277">
        <ele>95</ele>
        <time>2019-09-15T08:33:33Z</time>
      </trkpt>
      <trkpt lat="47.32881" lon="-2.42314">
        <ele>95</ele>
        <time>2019-09-15T08:33:37Z</time>
      </trkpt>
      <trkpt lat="47.32881" lon="-2.42322">
        <ele>95</ele>
        <time>2019-09-15T08:33:38Z</time>
      </trkpt>
      <trkpt lat="47.32881" lon="-2.42331">
        <ele>96</ele>
        <time>2019-09-15T08:33:39Z</time>
      </trkpt>
      <trkpt lat="47.3288" lon="-2.42339">
        <ele>95</ele>
        <time>2019-09-15T08:33:40Z</time>
      </trkpt>
      <trkpt lat="47.32879" lon="-2.42347">
        <ele>95</ele>
        <time>2019-09-15T08:33:41Z</time>
      </trkpt>
      <trkpt lat="47.32878" lon="-2.42356">
        <ele>95</ele>
        <time>2019-09-15T08:33:42Z</time>
      </trkpt>
      <trkpt lat="47.32875" lon="-2.42364">
        <ele>94</ele>
        <time>2019-09-15T08:33:43Z</time>
      </trkpt>
      <trkpt lat="47.32872" lon="-2.42371">
        <ele>94</ele>
        <time>2019-09-15T08:33:44Z</time>
      </trkpt>
      <trkpt lat="47.32867" lon="-2.42376">
        <ele>94</ele>
        <time>2019-09-15T08:33:45Z</time>
      </trkpt>
      <trkpt lat="47.32862" lon="-2.42378">
        <ele>93</ele>
        <time>2019-09-15T08:33:46Z</time>
      </trkpt>
      <trkpt lat="47.32845" lon="-2.42381">
        <ele>94</ele>
        <time>2019-09-15T08:33:49Z</time>
      </trkpt>
      <trkpt lat="47.32839" lon="-2.42382">
        <ele>94</ele>
        <time>2019-09-15T08:33:50Z</time>
      </trkpt>
      <trkpt lat="47.32834" lon="-2.42383">
        <ele>94</ele>
        <time>2019-09-15T08:33:51Z</time>
      </trkpt>
      <trkpt lat="47.32825" lon="-2.42386">
        <ele>94</ele>
        <time>2019-09-15T08:33:53Z</time>
      </trkpt>
      <trkpt lat="47.32821" lon="-2.42396">
        <ele>94</ele>
        <time>2019-09-15T08:33:55Z</time>
      </trkpt>
      <trkpt lat="47.3282" lon="-2.42403">
        <ele>94</ele>
        <time>2019-09-15T08:33:56Z</time>
      </trkpt>
      <trkpt lat="47.32821" lon="-2.42415">
        <ele>94</ele>
        <time>2019-09-15T08:33:58Z</time>
      </trkpt>
      <trkpt lat="47.32821" lon="-2.42421">
        <ele>95</ele>
        <time>2019-09-15T08:33:59Z</time>
      </trkpt>
      <trkpt lat="47.32822" lon="-2.42427">
        <ele>95</ele>
        <time>2019-09-15T08:34:00Z</time>
      </trkpt>
      <trkpt lat="47.32822" lon="-2.42436">
        <ele>95</ele>
        <time>2019-09-15T08:34:02Z</time>
      </trkpt>
      <trkpt lat="47.3282" lon="-2.42449">
        <ele>95</ele>
        <time>2019-09-15T08:34:05Z</time>
      </trkpt>
      <trkpt lat="47.32822" lon="-2.4246">
        <ele>95</ele>
        <time>2019-09-15T08:34:07Z</time>
      </trkpt>
      <trkpt lat="47.32825" lon="-2.4247">
        <ele>96</ele>
        <time>2019-09-15T08:34:09Z</time>
      </trkpt>
      <trkpt lat="47.32827" lon="-2.4248">
        <ele>96</ele>
        <time>2019-09-15T08:34:11Z</time>
      </trkpt>
      <trkpt lat="47.32832" lon="-2.42501">
        <ele>96</ele>
        <time>2019-09-15T08:34:14Z</time>
      </trkpt>
      <trkpt lat="47.32833" lon="-2.4251">
        <ele>96</ele>
        <time>2019-09-15T08:34:16Z</time>
      </trkpt>
      <trkpt lat="47.32824" lon="-2.42515">
        <ele>97</ele>
        <time>2019-09-15T08:34:21Z</time>
      </trkpt>
      <trkpt lat="47.32818" lon="-2.42521">
        <ele>97</ele>
        <time>2019-09-15T08:34:24Z</time>
      </trkpt>
      <trkpt lat="47.32819" lon="-2.4253">
        <ele>97</ele>
        <time>2019-09-15T08:34:27Z</time>
      </trkpt>
      <trkpt lat="47.32818" lon="-2.42537">
        <ele>98</ele>
        <time>2019-09-15T08:34:29Z</time>
      </trkpt>
      <trkpt lat="47.32815" lon="-2.42542">
        <ele>98</ele>
        <time>2019-09-15T08:34:30Z</time>
      </trkpt>
      <trkpt lat="47.32811" lon="-2.42549">
        <ele>98</ele>
        <time>2019-09-15T08:34:31Z</time>
      </trkpt>
      <trkpt lat="47.32806" lon="-2.42556">
        <ele>99</ele>
        <time>2019-09-15T08:34:32Z</time>
      </trkpt>
      <trkpt lat="47.32801" lon="-2.4256">
        <ele>99</ele>
        <time>2019-09-15T08:34:33Z</time>
      </trkpt>
      <trkpt lat="47.32797" lon="-2.42563">
        <ele>98</ele>
        <time>2019-09-15T08:34:34Z</time>
      </trkpt>
      <trkpt lat="47.32793" lon="-2.42566">
        <ele>98</ele>
        <time>2019-09-15T08:34:35Z</time>
      </trkpt>
      <trkpt lat="47.32786" lon="-2.4257">
        <ele>99</ele>
        <time>2019-09-15T08:34:37Z</time>
      </trkpt>
      <trkpt lat="47.32784" lon="-2.42586">
        <ele>100</ele>
        <time>2019-09-15T08:34:40Z</time>
      </trkpt>
      <trkpt lat="47.32786" lon="-2.42596">
        <ele>100</ele>
        <time>2019-09-15T08:34:42Z</time>
      </trkpt>
      <trkpt lat="47.32788" lon="-2.42603">
        <ele>100</ele>
        <time>2019-09-15T08:34:44Z</time>
      </trkpt>
      <trkpt lat="47.32789" lon="-2.42609">
        <ele>101</ele>
        <time>2019-09-15T08:34:46Z</time>
      </trkpt>
      <trkpt lat="47.3279" lon="-2.4262">
        <ele>101</ele>
        <time>2019-09-15T08:34:49Z</time>
      </trkpt>
      <trkpt lat="47.32787" lon="-2.42637">
        <ele>101</ele>
        <time>2019-09-15T08:34:53Z</time>
      </trkpt>
      <trkpt lat="47.32786" lon="-2.42642">
        <ele>101</ele>
        <time>2019-09-15T08:34:54Z</time>
      </trkpt>
      <trkpt lat="47.3278" lon="-2.42654">
        <ele>101</ele>
        <time>2019-09-15T08:34:57Z</time>
      </trkpt>
      <trkpt lat="47.32777" lon="-2.42657">
        <ele>102</ele>
        <time>2019-09-15T08:34:58Z</time>
      </trkpt>
      <trkpt lat="47.32775" lon="-2.42661">
        <ele>101</ele>
        <time>2019-09-15T08:34:59Z</time>
      </trkpt>
      <trkpt lat="47.32773" lon="-2.42664">
        <ele>102</ele>
        <time>2019-09-15T08:35:00Z</time>
      </trkpt>
      <trkpt lat="47.3277" lon="-2.42668">
        <ele>101</ele>
        <time>2019-09-15T08:35:01Z</time>
      </trkpt>
      <trkpt lat="47.32764" lon="-2.42674">
        <ele>101</ele>
        <time>2019-09-15T08:35:03Z</time>
      </trkpt>
      <trkpt lat="47.3276" lon="-2.42683">
        <ele>101</ele>
        <time>2019-09-15T08:35:05Z</time>
      </trkpt>
      <trkpt lat="47.32754" lon="-2.4269">
        <ele>101</ele>
        <time>2019-09-15T08:35:08Z</time>
      </trkpt>
      <trkpt lat="47.32746" lon="-2.42689">
        <ele>100</ele>
        <time>2019-09-15T08:35:11Z</time>
      </trkpt>
      <trkpt lat="47.32739" lon="-2.42688">
        <ele>100</ele>
        <time>2019-09-15T08:35:13Z</time>
      </trkpt>
      <trkpt lat="47.32733" lon="-2.4269">
        <ele>100</ele>
        <time>2019-09-15T08:35:15Z</time>
      </trkpt>
      <trkpt lat="47.32729" lon="-2.42693">
        <ele>100</ele>
        <time>2019-09-15T08:35:17Z</time>
      </trkpt>
      <trkpt lat="47.32724" lon="-2.42696">
        <ele>100</ele>
        <time>2019-09-15T08:35:20Z</time>
      </trkpt>
      <trkpt lat="47.3272" lon="-2.42696">
        <ele>101</ele>
        <time>2019-09-15T08:35:24Z</time>
      </trkpt>
      <trkpt lat="47.32716" lon="-2.42696">
        <ele>101</ele>
        <time>2019-09-15T08:35:26Z</time>
      </trkpt>
      <trkpt lat="47.32713" lon="-2.427">
        <ele>101</ele>
        <time>2019-09-15T08:35:28Z</time>
      </trkpt>
      <trkpt lat="47.32708" lon="-2.42709">
        <ele>101</ele>
        <time>2019-09-15T08:35:30Z</time>
      </trkpt>
      <trkpt lat="47.32704" lon="-2.42714">
        <ele>100</ele>
        <time>2019-09-15T08:35:31Z</time>
      </trkpt>
      <trkpt lat="47.32697" lon="-2.42721">
        <ele>101</ele>
        <time>2019-09-15T08:35:33Z</time>
      </trkpt>
      <trkpt lat="47.32693" lon="-2.42725">
        <ele>100</ele>
        <time>2019-09-15T08:35:34Z</time>
      </trkpt>
      <trkpt lat="47.32689" lon="-2.42728">
        <ele>100</ele>
        <time>2019-09-15T08:35:35Z</time>
      </trkpt>
      <trkpt lat="47.32689" lon="-2.42728">
        <ele>49.6</ele>
        <time>2019-09-15T08:35:41Z</time>
      </trkpt>
      <trkpt lat="47.32689" lon="-2.42728">
        <ele>49.6</ele>
        <time>2019-09-15T08:35:44Z</time>
      </trkpt>
      <trkpt lat="47.32683" lon="-2.42739">
        <ele>99</ele>
        <time>2019-09-15T08:35:44Z</time>
      </trkpt>
      <trkpt lat="47.32666" lon="-2.42768">
        <ele>109</ele>
        <time>2019-09-15T08:35:50Z</time>
      </trkpt>
      <trkpt lat="47.32661" lon="-2.42778">
        <ele>106</ele>
        <time>2019-09-15T08:35:52Z</time>
      </trkpt>
      <trkpt lat="47.32659" lon="-2.42785">
        <ele>106</ele>
        <time>2019-09-15T08:35:53Z</time>
      </trkpt>
      <trkpt lat="47.32656" lon="-2.42791">
        <ele>106</ele>
        <time>2019-09-15T08:35:54Z</time>
      </trkpt>
      <trkpt lat="47.32654" lon="-2.42798">
        <ele>106</ele>
        <time>2019-09-15T08:35:55Z</time>
      </trkpt>
      <trkpt lat="47.32649" lon="-2.42814">
        <ele>105</ele>
        <time>2019-09-15T08:35:57Z</time>
      </trkpt>
      <trkpt lat="47.32647" lon="-2.4282">
        <ele>105</ele>
        <time>2019-09-15T08:35:58Z</time>
      </trkpt>
      <trkpt lat="47.32645" lon="-2.42828">
        <ele>104</ele>
        <time>2019-09-15T08:35:59Z</time>
      </trkpt>
      <trkpt lat="47.32645" lon="-2.42835">
        <ele>103</ele>
        <time>2019-09-15T08:36:00Z</time>
      </trkpt>
      <trkpt lat="47.32643" lon="-2.42841">
        <ele>102</ele>
        <time>2019-09-15T08:36:01Z</time>
      </trkpt>
      <trkpt lat="47.32642" lon="-2.42846">
        <ele>103</ele>
        <time>2019-09-15T08:36:02Z</time>
      </trkpt>
      <trkpt lat="47.32641" lon="-2.42852">
        <ele>103</ele>
        <time>2019-09-15T08:36:03Z</time>
      </trkpt>
      <trkpt lat="47.32638" lon="-2.42871">
        <ele>103</ele>
        <time>2019-09-15T08:36:06Z</time>
      </trkpt>
      <trkpt lat="47.32636" lon="-2.42876">
        <ele>103</ele>
        <time>2019-09-15T08:36:07Z</time>
      </trkpt>
      <trkpt lat="47.32635" lon="-2.42881">
        <ele>103</ele>
        <time>2019-09-15T08:36:08Z</time>
      </trkpt>
      <trkpt lat="47.32634" lon="-2.42886">
        <ele>103</ele>
        <time>2019-09-15T08:36:09Z</time>
      </trkpt>
      <trkpt lat="47.32633" lon="-2.4289">
        <ele>104</ele>
        <time>2019-09-15T08:36:10Z</time>
      </trkpt>
      <trkpt lat="47.32632" lon="-2.42894">
        <ele>104</ele>
        <time>2019-09-15T08:36:11Z</time>
      </trkpt>
      <trkpt lat="47.32631" lon="-2.42898">
        <ele>104</ele>
        <time>2019-09-15T08:36:12Z</time>
      </trkpt>
      <trkpt lat="47.3263" lon="-2.42902">
        <ele>105</ele>
        <time>2019-09-15T08:36:13Z</time>
      </trkpt>
      <trkpt lat="47.32629" lon="-2.4291">
        <ele>104</ele>
        <time>2019-09-15T08:36:15Z</time>
      </trkpt>
      <trkpt lat="47.32628" lon="-2.42919">
        <ele>104</ele>
        <time>2019-09-15T08:36:18Z</time>
      </trkpt>
      <trkpt lat="47.32627" lon="-2.42926">
        <ele>103</ele>
        <time>2019-09-15T08:36:20Z</time>
      </trkpt>
      <trkpt lat="47.32627" lon="-2.42933">
        <ele>103</ele>
        <time>2019-09-15T08:36:22Z</time>
      </trkpt>
      <trkpt lat="47.32626" lon="-2.42937">
        <ele>103</ele>
        <time>2019-09-15T08:36:23Z</time>
      </trkpt>
      <trkpt lat="47.32624" lon="-2.42945">
        <ele>103</ele>
        <time>2019-09-15T08:36:25Z</time>
      </trkpt>
      <trkpt lat="47.32623" lon="-2.42949">
        <ele>103</ele>
        <time>2019-09-15T08:36:26Z</time>
      </trkpt>
      <trkpt lat="47.32621" lon="-2.42959">
        <ele>103</ele>
        <time>2019-09-15T08:36:28Z</time>
      </trkpt>
      <trkpt lat="47.3262" lon="-2.42964">
        <ele>102</ele>
        <time>2019-09-15T08:36:29Z</time>
      </trkpt>
      <trkpt lat="47.3262" lon="-2.42975">
        <ele>102</ele>
        <time>2019-09-15T08:36:31Z</time>
      </trkpt>
      <trkpt lat="47.32619" lon="-2.4298">
        <ele>102</ele>
        <time>2019-09-15T08:36:32Z</time>
      </trkpt>
      <trkpt lat="47.32619" lon="-2.42992">
        <ele>101</ele>
        <time>2019-09-15T08:36:34Z</time>
      </trkpt>
      <trkpt lat="47.32619" lon="-2.43004">
        <ele>101</ele>
        <time>2019-09-15T08:36:36Z</time>
      </trkpt>
      <trkpt lat="47.3262" lon="-2.4301">
        <ele>101</ele>
        <time>2019-09-15T08:36:37Z</time>
      </trkpt>
      <trkpt lat="47.32619" lon="-2.43017">
        <ele>100</ele>
        <time>2019-09-15T08:36:38Z</time>
      </trkpt>
      <trkpt lat="47.32619" lon="-2.43022">
        <ele>100</ele>
        <time>2019-09-15T08:36:39Z</time>
      </trkpt>
      <trkpt lat="47.32619" lon="-2.43028">
        <ele>101</ele>
        <time>2019-09-15T08:36:40Z</time>
      </trkpt>
      <trkpt lat="47.3262" lon="-2.43034">
        <ele>100</ele>
        <time>2019-09-15T08:36:41Z</time>
      </trkpt>
      <trkpt lat="47.3262" lon="-2.4304">
        <ele>101</ele>
        <time>2019-09-15T08:36:42Z</time>
      </trkpt>
      <trkpt lat="47.32621" lon="-2.43047">
        <ele>100</ele>
        <time>2019-09-15T08:36:43Z</time>
      </trkpt>
      <trkpt lat="47.32621" lon="-2.43053">
        <ele>101</ele>
        <time>2019-09-15T08:36:44Z</time>
      </trkpt>
      <trkpt lat="47.32619" lon="-2.43066">
        <ele>101</ele>
        <time>2019-09-15T08:36:47Z</time>
      </trkpt>
      <trkpt lat="47.32615" lon="-2.43073">
        <ele>101</ele>
        <time>2019-09-15T08:36:49Z</time>
      </trkpt>
      <trkpt lat="47.3261" lon="-2.43077">
        <ele>101</ele>
        <time>2019-09-15T08:36:51Z</time>
      </trkpt>
      <trkpt lat="47.32607" lon="-2.43079">
        <ele>100</ele>
        <time>2019-09-15T08:36:52Z</time>
      </trkpt>
      <trkpt lat="47.32598" lon="-2.4308">
        <ele>100</ele>
        <time>2019-09-15T08:36:54Z</time>
      </trkpt>
      <trkpt lat="47.32593" lon="-2.43082">
        <ele>100</ele>
        <time>2019-09-15T08:36:55Z</time>
      </trkpt>
      <trkpt lat="47.32588" lon="-2.43084">
        <ele>99</ele>
        <time>2019-09-15T08:36:56Z</time>
      </trkpt>
      <trkpt lat="47.32584" lon="-2.43085">
        <ele>98</ele>
        <time>2019-09-15T08:36:57Z</time>
      </trkpt>
      <trkpt lat="47.32578" lon="-2.43087">
        <ele>97</ele>
        <time>2019-09-15T08:36:58Z</time>
      </trkpt>
      <trkpt lat="47.32567" lon="-2.43088">
        <ele>96</ele>
        <time>2019-09-15T08:37:00Z</time>
      </trkpt>
      <trkpt lat="47.32561" lon="-2.43088">
        <ele>96</ele>
        <time>2019-09-15T08:37:01Z</time>
      </trkpt>
      <trkpt lat="47.32556" lon="-2.43088">
        <ele>95</ele>
        <time>2019-09-15T08:37:02Z</time>
      </trkpt>
      <trkpt lat="47.3255" lon="-2.43088">
        <ele>95</ele>
        <time>2019-09-15T08:37:03Z</time>
      </trkpt>
      <trkpt lat="47.32543" lon="-2.43087">
        <ele>95</ele>
        <time>2019-09-15T08:37:04Z</time>
      </trkpt>
      <trkpt lat="47.32536" lon="-2.43087">
        <ele>96</ele>
        <time>2019-09-15T08:37:05Z</time>
      </trkpt>
      <trkpt lat="47.32516" lon="-2.43087">
        <ele>95</ele>
        <time>2019-09-15T08:37:08Z</time>
      </trkpt>
      <trkpt lat="47.32503" lon="-2.43088">
        <ele>95</ele>
        <time>2019-09-15T08:37:10Z</time>
      </trkpt>
      <trkpt lat="47.32495" lon="-2.43086">
        <ele>94</ele>
        <time>2019-09-15T08:37:11Z</time>
      </trkpt>
      <trkpt lat="47.32488" lon="-2.43085">
        <ele>95</ele>
        <time>2019-09-15T08:37:12Z</time>
      </trkpt>
      <trkpt lat="47.3248" lon="-2.43084">
        <ele>94</ele>
        <time>2019-09-15T08:37:13Z</time>
      </trkpt>
      <trkpt lat="47.32448" lon="-2.4308">
        <ele>92</ele>
        <time>2019-09-15T08:37:17Z</time>
      </trkpt>
      <trkpt lat="47.3244" lon="-2.43078">
        <ele>92</ele>
        <time>2019-09-15T08:37:18Z</time>
      </trkpt>
      <trkpt lat="47.32431" lon="-2.43076">
        <ele>91</ele>
        <time>2019-09-15T08:37:19Z</time>
      </trkpt>
      <trkpt lat="47.32421" lon="-2.43073">
        <ele>91</ele>
        <time>2019-09-15T08:37:20Z</time>
      </trkpt>
      <trkpt lat="47.32411" lon="-2.43071">
        <ele>90</ele>
        <time>2019-09-15T08:37:21Z</time>
      </trkpt>
      <trkpt lat="47.32401" lon="-2.43071">
        <ele>89</ele>
        <time>2019-09-15T08:37:22Z</time>
      </trkpt>
      <trkpt lat="47.32391" lon="-2.43072">
        <ele>88</ele>
        <time>2019-09-15T08:37:23Z</time>
      </trkpt>
      <trkpt lat="47.3238" lon="-2.43075">
        <ele>88</ele>
        <time>2019-09-15T08:37:24Z</time>
      </trkpt>
      <trkpt lat="47.32329" lon="-2.43095">
        <ele>86</ele>
        <time>2019-09-15T08:37:29Z</time>
      </trkpt>
      <trkpt lat="47.32319" lon="-2.43101">
        <ele>86</ele>
        <time>2019-09-15T08:37:30Z</time>
      </trkpt>
      <trkpt lat="47.3231" lon="-2.43108">
        <ele>85</ele>
        <time>2019-09-15T08:37:31Z</time>
      </trkpt>
      <trkpt lat="47.323" lon="-2.43114">
        <ele>84</ele>
        <time>2019-09-15T08:37:32Z</time>
      </trkpt>
      <trkpt lat="47.32291" lon="-2.43119">
        <ele>84</ele>
        <time>2019-09-15T08:37:33Z</time>
      </trkpt>
      <trkpt lat="47.32282" lon="-2.43124">
        <ele>84</ele>
        <time>2019-09-15T08:37:34Z</time>
      </trkpt>
      <trkpt lat="47.32273" lon="-2.43128">
        <ele>84</ele>
        <time>2019-09-15T08:37:35Z</time>
      </trkpt>
      <trkpt lat="47.32265" lon="-2.43131">
        <ele>84</ele>
        <time>2019-09-15T08:37:36Z</time>
      </trkpt>
      <trkpt lat="47.32257" lon="-2.43134">
        <ele>84</ele>
        <time>2019-09-15T08:37:37Z</time>
      </trkpt>
      <trkpt lat="47.32248" lon="-2.43137">
        <ele>83</ele>
        <time>2019-09-15T08:37:38Z</time>
      </trkpt>
      <trkpt lat="47.32239" lon="-2.43141">
        <ele>83</ele>
        <time>2019-09-15T08:37:39Z</time>
      </trkpt>
      <trkpt lat="47.32231" lon="-2.43145">
        <ele>83</ele>
        <time>2019-09-15T08:37:40Z</time>
      </trkpt>
      <trkpt lat="47.32222" lon="-2.4315">
        <ele>82</ele>
        <time>2019-09-15T08:37:41Z</time>
      </trkpt>
      <trkpt lat="47.32214" lon="-2.43155">
        <ele>82</ele>
        <time>2019-09-15T08:37:42Z</time>
      </trkpt>
      <trkpt lat="47.32205" lon="-2.43159">
        <ele>82</ele>
        <time>2019-09-15T08:37:43Z</time>
      </trkpt>
      <trkpt lat="47.32187" lon="-2.43167">
        <ele>81</ele>
        <time>2019-09-15T08:37:45Z</time>
      </trkpt>
      <trkpt lat="47.32179" lon="-2.43171">
        <ele>81</ele>
        <time>2019-09-15T08:37:46Z</time>
      </trkpt>
      <trkpt lat="47.32143" lon="-2.43187">
        <ele>79</ele>
        <time>2019-09-15T08:37:50Z</time>
      </trkpt>
      <trkpt lat="47.32134" lon="-2.43191">
        <ele>79</ele>
        <time>2019-09-15T08:37:51Z</time>
      </trkpt>
      <trkpt lat="47.32125" lon="-2.43194">
        <ele>78</ele>
        <time>2019-09-15T08:37:52Z</time>
      </trkpt>
      <trkpt lat="47.32116" lon="-2.43198">
        <ele>78</ele>
        <time>2019-09-15T08:37:53Z</time>
      </trkpt>
      <trkpt lat="47.32108" lon="-2.43201">
        <ele>77</ele>
        <time>2019-09-15T08:37:54Z</time>
      </trkpt>
      <trkpt lat="47.32099" lon="-2.43205">
        <ele>77</ele>
        <time>2019-09-15T08:37:55Z</time>
      </trkpt>
      <trkpt lat="47.32074" lon="-2.43217">
        <ele>76</ele>
        <time>2019-09-15T08:37:58Z</time>
      </trkpt>
      <trkpt lat="47.32066" lon="-2.43222">
        <ele>76</ele>
        <time>2019-09-15T08:37:59Z</time>
      </trkpt>
      <trkpt lat="47.32058" lon="-2.43226">
        <ele>75</ele>
        <time>2019-09-15T08:38:00Z</time>
      </trkpt>
      <trkpt lat="47.32051" lon="-2.43231">
        <ele>75</ele>
        <time>2019-09-15T08:38:01Z</time>
      </trkpt>
      <trkpt lat="47.32044" lon="-2.43236">
        <ele>75</ele>
        <time>2019-09-15T08:38:02Z</time>
      </trkpt>
      <trkpt lat="47.32037" lon="-2.43241">
        <ele>75</ele>
        <time>2019-09-15T08:38:03Z</time>
      </trkpt>
      <trkpt lat="47.32031" lon="-2.43246">
        <ele>74</ele>
        <time>2019-09-15T08:38:04Z</time>
      </trkpt>
      <trkpt lat="47.3201" lon="-2.43263">
        <ele>74</ele>
        <time>2019-09-15T08:38:07Z</time>
      </trkpt>
      <trkpt lat="47.32003" lon="-2.43268">
        <ele>74</ele>
        <time>2019-09-15T08:38:08Z</time>
      </trkpt>
      <trkpt lat="47.31996" lon="-2.43272">
        <ele>73</ele>
        <time>2019-09-15T08:38:09Z</time>
      </trkpt>
      <trkpt lat="47.3199" lon="-2.43274">
        <ele>73</ele>
        <time>2019-09-15T08:38:10Z</time>
      </trkpt>
      <trkpt lat="47.31986" lon="-2.43279">
        <ele>73</ele>
        <time>2019-09-15T08:38:11Z</time>
      </trkpt>
      <trkpt lat="47.31982" lon="-2.43285">
        <ele>73</ele>
        <time>2019-09-15T08:38:12Z</time>
      </trkpt>
      <trkpt lat="47.3198" lon="-2.43291">
        <ele>73</ele>
        <time>2019-09-15T08:38:13Z</time>
      </trkpt>
      <trkpt lat="47.31974" lon="-2.43328">
        <ele>73</ele>
        <time>2019-09-15T08:38:17Z</time>
      </trkpt>
      <trkpt lat="47.31972" lon="-2.4334">
        <ele>72</ele>
        <time>2019-09-15T08:38:18Z</time>
      </trkpt>
      <trkpt lat="47.31969" lon="-2.43351">
        <ele>72</ele>
        <time>2019-09-15T08:38:19Z</time>
      </trkpt>
      <trkpt lat="47.31966" lon="-2.43362">
        <ele>71</ele>
        <time>2019-09-15T08:38:20Z</time>
      </trkpt>
      <trkpt lat="47.31963" lon="-2.43373">
        <ele>71</ele>
        <time>2019-09-15T08:38:21Z</time>
      </trkpt>
      <trkpt lat="47.3196" lon="-2.43385">
        <ele>70</ele>
        <time>2019-09-15T08:38:22Z</time>
      </trkpt>
      <trkpt lat="47.31957" lon="-2.43397">
        <ele>70</ele>
        <time>2019-09-15T08:38:23Z</time>
      </trkpt>
      <trkpt lat="47.31953" lon="-2.43408">
        <ele>70</ele>
        <time>2019-09-15T08:38:24Z</time>
      </trkpt>
      <trkpt lat="47.3195" lon="-2.4342">
        <ele>69</ele>
        <time>2019-09-15T08:38:25Z</time>
      </trkpt>
      <trkpt lat="47.31947" lon="-2.43431">
        <ele>69</ele>
        <time>2019-09-15T08:38:26Z</time>
      </trkpt>
      <trkpt lat="47.31942" lon="-2.43443">
        <ele>68</ele>
        <time>2019-09-15T08:38:27Z</time>
      </trkpt>
      <trkpt lat="47.31938" lon="-2.43455">
        <ele>68</ele>
        <time>2019-09-15T08:38:28Z</time>
      </trkpt>
      <trkpt lat="47.31934" lon="-2.43468">
        <ele>67</ele>
        <time>2019-09-15T08:38:29Z</time>
      </trkpt>
      <trkpt lat="47.31931" lon="-2.43481">
        <ele>67</ele>
        <time>2019-09-15T08:38:30Z</time>
      </trkpt>
      <trkpt lat="47.31929" lon="-2.43494">
        <ele>67</ele>
        <time>2019-09-15T08:38:31Z</time>
      </trkpt>
      <trkpt lat="47.31928" lon="-2.43508">
        <ele>67</ele>
        <time>2019-09-15T08:38:32Z</time>
      </trkpt>
      <trkpt lat="47.31928" lon="-2.43522">
        <ele>67</ele>
        <time>2019-09-15T08:38:33Z</time>
      </trkpt>
      <trkpt lat="47.31928" lon="-2.43535">
        <ele>66</ele>
        <time>2019-09-15T08:38:34Z</time>
      </trkpt>
      <trkpt lat="47.31929" lon="-2.43548">
        <ele>66</ele>
        <time>2019-09-15T08:38:35Z</time>
      </trkpt>
      <trkpt lat="47.31927" lon="-2.43584">
        <ele>65</ele>
        <time>2019-09-15T08:38:38Z</time>
      </trkpt>
      <trkpt lat="47.31924" lon="-2.43595">
        <ele>64</ele>
        <time>2019-09-15T08:38:39Z</time>
      </trkpt>
      <trkpt lat="47.31919" lon="-2.43603">
        <ele>65</ele>
        <time>2019-09-15T08:38:40Z</time>
      </trkpt>
      <trkpt lat="47.31913" lon="-2.43609">
        <ele>64</ele>
        <time>2019-09-15T08:38:41Z</time>
      </trkpt>
      <trkpt lat="47.31907" lon="-2.43615">
        <ele>63</ele>
        <time>2019-09-15T08:38:42Z</time>
      </trkpt>
      <trkpt lat="47.319" lon="-2.43621">
        <ele>62</ele>
        <time>2019-09-15T08:38:43Z</time>
      </trkpt>
      <trkpt lat="47.3189" lon="-2.43642">
        <ele>62</ele>
        <time>2019-09-15T08:38:46Z</time>
      </trkpt>
      <trkpt lat="47.31893" lon="-2.4366">
        <ele>61</ele>
        <time>2019-09-15T08:38:48Z</time>
      </trkpt>
      <trkpt lat="47.31898" lon="-2.43668">
        <ele>62</ele>
        <time>2019-09-15T08:38:49Z</time>
      </trkpt>
      <trkpt lat="47.31902" lon="-2.43676">
        <ele>62</ele>
        <time>2019-09-15T08:38:50Z</time>
      </trkpt>
      <trkpt lat="47.31906" lon="-2.43684">
        <ele>62</ele>
        <time>2019-09-15T08:38:51Z</time>
      </trkpt>
      <trkpt lat="47.31914" lon="-2.43702">
        <ele>62</ele>
        <time>2019-09-15T08:38:53Z</time>
      </trkpt>
      <trkpt lat="47.31918" lon="-2.4371">
        <ele>62</ele>
        <time>2019-09-15T08:38:54Z</time>
      </trkpt>
      <trkpt lat="47.31921" lon="-2.43719">
        <ele>62</ele>
        <time>2019-09-15T08:38:55Z</time>
      </trkpt>
      <trkpt lat="47.31925" lon="-2.43728">
        <ele>62</ele>
        <time>2019-09-15T08:38:56Z</time>
      </trkpt>
      <trkpt lat="47.31928" lon="-2.43737">
        <ele>61</ele>
        <time>2019-09-15T08:38:57Z</time>
      </trkpt>
      <trkpt lat="47.31932" lon="-2.43745">
        <ele>61</ele>
        <time>2019-09-15T08:38:58Z</time>
      </trkpt>
      <trkpt lat="47.31935" lon="-2.43754">
        <ele>61</ele>
        <time>2019-09-15T08:38:59Z</time>
      </trkpt>
      <trkpt lat="47.31938" lon="-2.43764">
        <ele>61</ele>
        <time>2019-09-15T08:39:00Z</time>
      </trkpt>
      <trkpt lat="47.31941" lon="-2.43773">
        <ele>61</ele>
        <time>2019-09-15T08:39:01Z</time>
      </trkpt>
      <trkpt lat="47.31945" lon="-2.43782">
        <ele>61</ele>
        <time>2019-09-15T08:39:02Z</time>
      </trkpt>
      <trkpt lat="47.31948" lon="-2.43791">
        <ele>61</ele>
        <time>2019-09-15T08:39:03Z</time>
      </trkpt>
      <trkpt lat="47.31952" lon="-2.43799">
        <ele>61</ele>
        <time>2019-09-15T08:39:04Z</time>
      </trkpt>
      <trkpt lat="47.31956" lon="-2.43807">
        <ele>61</ele>
        <time>2019-09-15T08:39:05Z</time>
      </trkpt>
      <trkpt lat="47.3196" lon="-2.43814">
        <ele>61</ele>
        <time>2019-09-15T08:39:06Z</time>
      </trkpt>
      <trkpt lat="47.31964" lon="-2.43822">
        <ele>61</ele>
        <time>2019-09-15T08:39:07Z</time>
      </trkpt>
      <trkpt lat="47.31968" lon="-2.43828">
        <ele>62</ele>
        <time>2019-09-15T08:39:08Z</time>
      </trkpt>
      <trkpt lat="47.31973" lon="-2.43833">
        <ele>62</ele>
        <time>2019-09-15T08:39:09Z</time>
      </trkpt>
      <trkpt lat="47.31979" lon="-2.43837">
        <ele>62</ele>
        <time>2019-09-15T08:39:10Z</time>
      </trkpt>
      <trkpt lat="47.3199" lon="-2.43836">
        <ele>62</ele>
        <time>2019-09-15T08:39:12Z</time>
      </trkpt>
      <trkpt lat="47.31995" lon="-2.43833">
        <ele>62</ele>
        <time>2019-09-15T08:39:13Z</time>
      </trkpt>
      <trkpt lat="47.31999" lon="-2.43829">
        <ele>62</ele>
        <time>2019-09-15T08:39:14Z</time>
      </trkpt>
      <trkpt lat="47.32003" lon="-2.43824">
        <ele>62</ele>
        <time>2019-09-15T08:39:15Z</time>
      </trkpt>
      <trkpt lat="47.32007" lon="-2.4382">
        <ele>62</ele>
        <time>2019-09-15T08:39:16Z</time>
      </trkpt>
      <trkpt lat="47.32011" lon="-2.43816">
        <ele>62</ele>
        <time>2019-09-15T08:39:17Z</time>
      </trkpt>
      <trkpt lat="47.32015" lon="-2.43812">
        <ele>63</ele>
        <time>2019-09-15T08:39:18Z</time>
      </trkpt>
      <trkpt lat="47.32018" lon="-2.43809">
        <ele>63</ele>
        <time>2019-09-15T08:39:19Z</time>
      </trkpt>
      <trkpt lat="47.32029" lon="-2.43801">
        <ele>63</ele>
        <time>2019-09-15T08:39:22Z</time>
      </trkpt>
      <trkpt lat="47.32036" lon="-2.43803">
        <ele>64</ele>
        <time>2019-09-15T08:39:24Z</time>
      </trkpt>
      <trkpt lat="47.32041" lon="-2.43813">
        <ele>65</ele>
        <time>2019-09-15T08:39:26Z</time>
      </trkpt>
      <trkpt lat="47.32044" lon="-2.43818">
        <ele>65</ele>
        <time>2019-09-15T08:39:27Z</time>
      </trkpt>
      <trkpt lat="47.32047" lon="-2.43824">
        <ele>66</ele>
        <time>2019-09-15T08:39:28Z</time>
      </trkpt>
      <trkpt lat="47.3205" lon="-2.43829">
        <ele>66</ele>
        <time>2019-09-15T08:39:29Z</time>
      </trkpt>
      <trkpt lat="47.32053" lon="-2.43836">
        <ele>67</ele>
        <time>2019-09-15T08:39:30Z</time>
      </trkpt>
      <trkpt lat="47.32056" lon="-2.43842">
        <ele>67</ele>
        <time>2019-09-15T08:39:31Z</time>
      </trkpt>
      <trkpt lat="47.32062" lon="-2.43855">
        <ele>67</ele>
        <time>2019-09-15T08:39:33Z</time>
      </trkpt>
      <trkpt lat="47.32066" lon="-2.43861">
        <ele>68</ele>
        <time>2019-09-15T08:39:34Z</time>
      </trkpt>
      <trkpt lat="47.32072" lon="-2.43875">
        <ele>68</ele>
        <time>2019-09-15T08:39:36Z</time>
      </trkpt>
      <trkpt lat="47.32076" lon="-2.43881">
        <ele>68</ele>
        <time>2019-09-15T08:39:37Z</time>
      </trkpt>
      <trkpt lat="47.3208" lon="-2.43887">
        <ele>69</ele>
        <time>2019-09-15T08:39:38Z</time>
      </trkpt>
      <trkpt lat="47.32084" lon="-2.43892">
        <ele>68</ele>
        <time>2019-09-15T08:39:39Z</time>
      </trkpt>
      <trkpt lat="47.32094" lon="-2.439">
        <ele>69</ele>
        <time>2019-09-15T08:39:41Z</time>
      </trkpt>
      <trkpt lat="47.32099" lon="-2.43903">
        <ele>69</ele>
        <time>2019-09-15T08:39:42Z</time>
      </trkpt>
      <trkpt lat="47.32108" lon="-2.43907">
        <ele>69</ele>
        <time>2019-09-15T08:39:44Z</time>
      </trkpt>
      <trkpt lat="47.32113" lon="-2.43909">
        <ele>69</ele>
        <time>2019-09-15T08:39:45Z</time>
      </trkpt>
      <trkpt lat="47.32118" lon="-2.43912">
        <ele>70</ele>
        <time>2019-09-15T08:39:46Z</time>
      </trkpt>
      <trkpt lat="47.32128" lon="-2.43918">
        <ele>70</ele>
        <time>2019-09-15T08:39:48Z</time>
      </trkpt>
      <trkpt lat="47.32132" lon="-2.43921">
        <ele>70</ele>
        <time>2019-09-15T08:39:49Z</time>
      </trkpt>
      <trkpt lat="47.32139" lon="-2.43929">
        <ele>71</ele>
        <time>2019-09-15T08:39:51Z</time>
      </trkpt>
      <trkpt lat="47.32145" lon="-2.43938">
        <ele>72</ele>
        <time>2019-09-15T08:39:53Z</time>
      </trkpt>
      <trkpt lat="47.32148" lon="-2.43943">
        <ele>72</ele>
        <time>2019-09-15T08:39:54Z</time>
      </trkpt>
      <trkpt lat="47.32153" lon="-2.43953">
        <ele>73</ele>
        <time>2019-09-15T08:39:56Z</time>
      </trkpt>
      <trkpt lat="47.32156" lon="-2.43959">
        <ele>72</ele>
        <time>2019-09-15T08:39:57Z</time>
      </trkpt>
      <trkpt lat="47.32162" lon="-2.43967">
        <ele>73</ele>
        <time>2019-09-15T08:39:59Z</time>
      </trkpt>
      <trkpt lat="47.32165" lon="-2.43971">
        <ele>74</ele>
        <time>2019-09-15T08:40:00Z</time>
      </trkpt>
      <trkpt lat="47.32169" lon="-2.43976">
        <ele>74</ele>
        <time>2019-09-15T08:40:01Z</time>
      </trkpt>
      <trkpt lat="47.32172" lon="-2.4398">
        <ele>75</ele>
        <time>2019-09-15T08:40:02Z</time>
      </trkpt>
      <trkpt lat="47.32176" lon="-2.43985">
        <ele>75</ele>
        <time>2019-09-15T08:40:03Z</time>
      </trkpt>
      <trkpt lat="47.32179" lon="-2.43989">
        <ele>75</ele>
        <time>2019-09-15T08:40:04Z</time>
      </trkpt>
      <trkpt lat="47.32183" lon="-2.43994">
        <ele>75</ele>
        <time>2019-09-15T08:40:05Z</time>
      </trkpt>
      <trkpt lat="47.32186" lon="-2.43998">
        <ele>75</ele>
        <time>2019-09-15T08:40:06Z</time>
      </trkpt>
      <trkpt lat="47.3219" lon="-2.44003">
        <ele>75</ele>
        <time>2019-09-15T08:40:07Z</time>
      </trkpt>
      <trkpt lat="47.32193" lon="-2.44006">
        <ele>76</ele>
        <time>2019-09-15T08:40:08Z</time>
      </trkpt>
      <trkpt lat="47.32197" lon="-2.44011">
        <ele>76</ele>
        <time>2019-09-15T08:40:09Z</time>
      </trkpt>
      <trkpt lat="47.32204" lon="-2.4402">
        <ele>76</ele>
        <time>2019-09-15T08:40:11Z</time>
      </trkpt>
      <trkpt lat="47.32208" lon="-2.44025">
        <ele>76</ele>
        <time>2019-09-15T08:40:12Z</time>
      </trkpt>
      <trkpt lat="47.32219" lon="-2.44038">
        <ele>77</ele>
        <time>2019-09-15T08:40:15Z</time>
      </trkpt>
      <trkpt lat="47.32232" lon="-2.44045">
        <ele>77</ele>
        <time>2019-09-15T08:40:18Z</time>
      </trkpt>
      <trkpt lat="47.32236" lon="-2.44046">
        <ele>77</ele>
        <time>2019-09-15T08:40:19Z</time>
      </trkpt>
      <trkpt lat="47.32241" lon="-2.44048">
        <ele>77</ele>
        <time>2019-09-15T08:40:20Z</time>
      </trkpt>
      <trkpt lat="47.3225" lon="-2.44047">
        <ele>78</ele>
        <time>2019-09-15T08:40:22Z</time>
      </trkpt>
      <trkpt lat="47.32254" lon="-2.44047">
        <ele>78</ele>
        <time>2019-09-15T08:40:23Z</time>
      </trkpt>
      <trkpt lat="47.32259" lon="-2.44048">
        <ele>78</ele>
        <time>2019-09-15T08:40:24Z</time>
      </trkpt>
      <trkpt lat="47.32264" lon="-2.44048">
        <ele>78</ele>
        <time>2019-09-15T08:40:25Z</time>
      </trkpt>
      <trkpt lat="47.32268" lon="-2.44048">
        <ele>78</ele>
        <time>2019-09-15T08:40:26Z</time>
      </trkpt>
      <trkpt lat="47.32282" lon="-2.44052">
        <ele>79</ele>
        <time>2019-09-15T08:40:29Z</time>
      </trkpt>
      <trkpt lat="47.32286" lon="-2.44053">
        <ele>79</ele>
        <time>2019-09-15T08:40:30Z</time>
      </trkpt>
      <trkpt lat="47.32295" lon="-2.44057">
        <ele>79</ele>
        <time>2019-09-15T08:40:32Z</time>
      </trkpt>
      <trkpt lat="47.32299" lon="-2.44059">
        <ele>79</ele>
        <time>2019-09-15T08:40:33Z</time>
      </trkpt>
      <trkpt lat="47.32308" lon="-2.44063">
        <ele>80</ele>
        <time>2019-09-15T08:40:35Z</time>
      </trkpt>
      <trkpt lat="47.32316" lon="-2.44065">
        <ele>80</ele>
        <time>2019-09-15T08:40:37Z</time>
      </trkpt>
      <trkpt lat="47.32325" lon="-2.44067">
        <ele>81</ele>
        <time>2019-09-15T08:40:39Z</time>
      </trkpt>
      <trkpt lat="47.32334" lon="-2.4407">
        <ele>81</ele>
        <time>2019-09-15T08:40:41Z</time>
      </trkpt>
      <trkpt lat="47.32338" lon="-2.44071">
        <ele>81</ele>
        <time>2019-09-15T08:40:42Z</time>
      </trkpt>
      <trkpt lat="47.32342" lon="-2.44072">
        <ele>81</ele>
        <time>2019-09-15T08:40:43Z</time>
      </trkpt>
      <trkpt lat="47.32347" lon="-2.44072">
        <ele>80</ele>
        <time>2019-09-15T08:40:44Z</time>
      </trkpt>
      <trkpt lat="47.32351" lon="-2.44072">
        <ele>80</ele>
        <time>2019-09-15T08:40:45Z</time>
      </trkpt>
      <trkpt lat="47.32356" lon="-2.44072">
        <ele>81</ele>
        <time>2019-09-15T08:40:46Z</time>
      </trkpt>
      <trkpt lat="47.3236" lon="-2.44071">
        <ele>81</ele>
        <time>2019-09-15T08:40:47Z</time>
      </trkpt>
      <trkpt lat="47.32364" lon="-2.44069">
        <ele>81</ele>
        <time>2019-09-15T08:40:48Z</time>
      </trkpt>
      <trkpt lat="47.32373" lon="-2.44066">
        <ele>81</ele>
        <time>2019-09-15T08:40:50Z</time>
      </trkpt>
      <trkpt lat="47.32377" lon="-2.44064">
        <ele>81</ele>
        <time>2019-09-15T08:40:51Z</time>
      </trkpt>
      <trkpt lat="47.32381" lon="-2.44062">
        <ele>81</ele>
        <time>2019-09-15T08:40:52Z</time>
      </trkpt>
      <trkpt lat="47.32386" lon="-2.44059">
        <ele>81</ele>
        <time>2019-09-15T08:40:53Z</time>
      </trkpt>
      <trkpt lat="47.3239" lon="-2.44057">
        <ele>82</ele>
        <time>2019-09-15T08:40:54Z</time>
      </trkpt>
      <trkpt lat="47.32394" lon="-2.44055">
        <ele>82</ele>
        <time>2019-09-15T08:40:55Z</time>
      </trkpt>
      <trkpt lat="47.32402" lon="-2.44051">
        <ele>82</ele>
        <time>2019-09-15T08:40:57Z</time>
      </trkpt>
      <trkpt lat="47.32405" lon="-2.44049">
        <ele>82</ele>
        <time>2019-09-15T08:40:58Z</time>
      </trkpt>
      <trkpt lat="47.3241" lon="-2.44046">
        <ele>82</ele>
        <time>2019-09-15T08:40:59Z</time>
      </trkpt>
      <trkpt lat="47.32413" lon="-2.44043">
        <ele>82</ele>
        <time>2019-09-15T08:41:00Z</time>
      </trkpt>
      <trkpt lat="47.32417" lon="-2.44041">
        <ele>83</ele>
        <time>2019-09-15T08:41:01Z</time>
      </trkpt>
      <trkpt lat="47.32425" lon="-2.44036">
        <ele>82</ele>
        <time>2019-09-15T08:41:03Z</time>
      </trkpt>
      <trkpt lat="47.32429" lon="-2.44033">
        <ele>83</ele>
        <time>2019-09-15T08:41:04Z</time>
      </trkpt>
      <trkpt lat="47.32433" lon="-2.4403">
        <ele>83</ele>
        <time>2019-09-15T08:41:05Z</time>
      </trkpt>
      <trkpt lat="47.32437" lon="-2.44027">
        <ele>83</ele>
        <time>2019-09-15T08:41:06Z</time>
      </trkpt>
      <trkpt lat="47.32441" lon="-2.44024">
        <ele>83</ele>
        <time>2019-09-15T08:41:07Z</time>
      </trkpt>
      <trkpt lat="47.32449" lon="-2.44019">
        <ele>84</ele>
        <time>2019-09-15T08:41:09Z</time>
      </trkpt>
      <trkpt lat="47.32453" lon="-2.44016">
        <ele>84</ele>
        <time>2019-09-15T08:41:10Z</time>
      </trkpt>
      <trkpt lat="47.32457" lon="-2.44013">
        <ele>84</ele>
        <time>2019-09-15T08:41:11Z</time>
      </trkpt>
      <trkpt lat="47.32461" lon="-2.44011">
        <ele>84</ele>
        <time>2019-09-15T08:41:12Z</time>
      </trkpt>
      <trkpt lat="47.32466" lon="-2.44008">
        <ele>85</ele>
        <time>2019-09-15T08:41:13Z</time>
      </trkpt>
      <trkpt lat="47.32469" lon="-2.44005">
        <ele>85</ele>
        <time>2019-09-15T08:41:14Z</time>
      </trkpt>
      <trkpt lat="47.32473" lon="-2.44003">
        <ele>85</ele>
        <time>2019-09-15T08:41:15Z</time>
      </trkpt>
      <trkpt lat="47.32477" lon="-2.44001">
        <ele>85</ele>
        <time>2019-09-15T08:41:16Z</time>
      </trkpt>
      <trkpt lat="47.3248" lon="-2.43998">
        <ele>86</ele>
        <time>2019-09-15T08:41:17Z</time>
      </trkpt>
      <trkpt lat="47.32484" lon="-2.43995">
        <ele>86</ele>
        <time>2019-09-15T08:41:18Z</time>
      </trkpt>
      <trkpt lat="47.32492" lon="-2.43991">
        <ele>86</ele>
        <time>2019-09-15T08:41:20Z</time>
      </trkpt>
      <trkpt lat="47.32499" lon="-2.43987">
        <ele>86</ele>
        <time>2019-09-15T08:41:21Z</time>
      </trkpt>
      <trkpt lat="47.32502" lon="-2.43985">
        <ele>87</ele>
        <time>2019-09-15T08:41:22Z</time>
      </trkpt>
      <trkpt lat="47.32508" lon="-2.43985">
        <ele>87</ele>
        <time>2019-09-15T08:41:24Z</time>
      </trkpt>
      <trkpt lat="47.32519" lon="-2.44">
        <ele>88</ele>
        <time>2019-09-15T08:41:28Z</time>
      </trkpt>
      <trkpt lat="47.32527" lon="-2.44012">
        <ele>88</ele>
        <time>2019-09-15T08:41:30Z</time>
      </trkpt>
      <trkpt lat="47.32532" lon="-2.44016">
        <ele>88</ele>
        <time>2019-09-15T08:41:31Z</time>
      </trkpt>
      <trkpt lat="47.32541" lon="-2.44023">
        <ele>88</ele>
        <time>2019-09-15T08:41:32Z</time>
      </trkpt>
      <trkpt lat="47.32546" lon="-2.44025">
        <ele>89</ele>
        <time>2019-09-15T08:41:34Z</time>
      </trkpt>
      <trkpt lat="47.32559" lon="-2.44032">
        <ele>89</ele>
        <time>2019-09-15T08:41:37Z</time>
      </trkpt>
      <trkpt lat="47.32563" lon="-2.44034">
        <ele>90</ele>
        <time>2019-09-15T08:41:38Z</time>
      </trkpt>
      <trkpt lat="47.32567" lon="-2.44036">
        <ele>90</ele>
        <time>2019-09-15T08:41:39Z</time>
      </trkpt>
      <trkpt lat="47.32571" lon="-2.44041">
        <ele>91</ele>
        <time>2019-09-15T08:41:41Z</time>
      </trkpt>
      <trkpt lat="47.32566" lon="-2.44051">
        <ele>91</ele>
        <time>2019-09-15T08:41:44Z</time>
      </trkpt>
      <trkpt lat="47.32561" lon="-2.44059">
        <ele>91</ele>
        <time>2019-09-15T08:41:46Z</time>
      </trkpt>
      <trkpt lat="47.32557" lon="-2.4407">
        <ele>92</ele>
        <time>2019-09-15T08:41:48Z</time>
      </trkpt>
      <trkpt lat="47.32555" lon="-2.44076">
        <ele>93</ele>
        <time>2019-09-15T08:41:49Z</time>
      </trkpt>
      <trkpt lat="47.32554" lon="-2.44082">
        <ele>93</ele>
        <time>2019-09-15T08:41:50Z</time>
      </trkpt>
      <trkpt lat="47.32548" lon="-2.44103">
        <ele>92</ele>
        <time>2019-09-15T08:41:53Z</time>
      </trkpt>
      <trkpt lat="47.32546" lon="-2.44111">
        <ele>92</ele>
        <time>2019-09-15T08:41:54Z</time>
      </trkpt>
      <trkpt lat="47.32543" lon="-2.44118">
        <ele>92</ele>
        <time>2019-09-15T08:41:55Z</time>
      </trkpt>
      <trkpt lat="47.32541" lon="-2.44126">
        <ele>92</ele>
        <time>2019-09-15T08:41:56Z</time>
      </trkpt>
      <trkpt lat="47.3254" lon="-2.44134">
        <ele>92</ele>
        <time>2019-09-15T08:41:57Z</time>
      </trkpt>
      <trkpt lat="47.32538" lon="-2.44143">
        <ele>92</ele>
        <time>2019-09-15T08:41:58Z</time>
      </trkpt>
      <trkpt lat="47.32536" lon="-2.44151">
        <ele>92</ele>
        <time>2019-09-15T08:41:59Z</time>
      </trkpt>
      <trkpt lat="47.32534" lon="-2.44159">
        <ele>92</ele>
        <time>2019-09-15T08:42:00Z</time>
      </trkpt>
      <trkpt lat="47.32531" lon="-2.44166">
        <ele>92</ele>
        <time>2019-09-15T08:42:01Z</time>
      </trkpt>
      <trkpt lat="47.32525" lon="-2.44189">
        <ele>91</ele>
        <time>2019-09-15T08:42:03Z</time>
      </trkpt>
      <trkpt lat="47.32525" lon="-2.44202">
        <ele>91</ele>
        <time>2019-09-15T08:42:05Z</time>
      </trkpt>
      <trkpt lat="47.32528" lon="-2.44208">
        <ele>91</ele>
        <time>2019-09-15T08:42:07Z</time>
      </trkpt>
      <trkpt lat="47.32538" lon="-2.44224">
        <ele>91</ele>
        <time>2019-09-15T08:42:09Z</time>
      </trkpt>
      <trkpt lat="47.32541" lon="-2.44229">
        <ele>91</ele>
        <time>2019-09-15T08:42:10Z</time>
      </trkpt>
      <trkpt lat="47.32544" lon="-2.44235">
        <ele>90</ele>
        <time>2019-09-15T08:42:11Z</time>
      </trkpt>
      <trkpt lat="47.32547" lon="-2.4424">
        <ele>90</ele>
        <time>2019-09-15T08:42:12Z</time>
      </trkpt>
      <trkpt lat="47.3255" lon="-2.44246">
        <ele>90</ele>
        <time>2019-09-15T08:42:13Z</time>
      </trkpt>
      <trkpt lat="47.32553" lon="-2.44253">
        <ele>90</ele>
        <time>2019-09-15T08:42:14Z</time>
      </trkpt>
      <trkpt lat="47.32555" lon="-2.44261">
        <ele>90</ele>
        <time>2019-09-15T08:42:15Z</time>
      </trkpt>
      <trkpt lat="47.32557" lon="-2.4427">
        <ele>90</ele>
        <time>2019-09-15T08:42:16Z</time>
      </trkpt>
      <trkpt lat="47.32558" lon="-2.4428">
        <ele>90</ele>
        <time>2019-09-15T08:42:17Z</time>
      </trkpt>
      <trkpt lat="47.32568" lon="-2.44313">
        <ele>90</ele>
        <time>2019-09-15T08:42:22Z</time>
      </trkpt>
      <trkpt lat="47.32571" lon="-2.4432">
        <ele>91</ele>
        <time>2019-09-15T08:42:23Z</time>
      </trkpt>
      <trkpt lat="47.32576" lon="-2.44333">
        <ele>91</ele>
        <time>2019-09-15T08:42:25Z</time>
      </trkpt>
      <trkpt lat="47.32581" lon="-2.44348">
        <ele>91</ele>
        <time>2019-09-15T08:42:27Z</time>
      </trkpt>
      <trkpt lat="47.32585" lon="-2.44356">
        <ele>91</ele>
        <time>2019-09-15T08:42:28Z</time>
      </trkpt>
      <trkpt lat="47.32589" lon="-2.44364">
        <ele>91</ele>
        <time>2019-09-15T08:42:29Z</time>
      </trkpt>
      <trkpt lat="47.32598" lon="-2.44375">
        <ele>91</ele>
        <time>2019-09-15T08:42:31Z</time>
      </trkpt>
      <trkpt lat="47.32603" lon="-2.4438">
        <ele>91</ele>
        <time>2019-09-15T08:42:32Z</time>
      </trkpt>
      <trkpt lat="47.32607" lon="-2.44386">
        <ele>91</ele>
        <time>2019-09-15T08:42:33Z</time>
      </trkpt>
      <trkpt lat="47.32618" lon="-2.44395">
        <ele>91</ele>
        <time>2019-09-15T08:42:36Z</time>
      </trkpt>
      <trkpt lat="47.32623" lon="-2.44406">
        <ele>91</ele>
        <time>2019-09-15T08:42:38Z</time>
      </trkpt>
      <trkpt lat="47.32625" lon="-2.44412">
        <ele>92</ele>
        <time>2019-09-15T08:42:39Z</time>
      </trkpt>
      <trkpt lat="47.32631" lon="-2.44424">
        <ele>92</ele>
        <time>2019-09-15T08:42:40Z</time>
      </trkpt>
      <trkpt lat="47.32635" lon="-2.44431">
        <ele>92</ele>
        <time>2019-09-15T08:42:42Z</time>
      </trkpt>
      <trkpt lat="47.32638" lon="-2.44436">
        <ele>92</ele>
        <time>2019-09-15T08:42:43Z</time>
      </trkpt>
      <trkpt lat="47.32641" lon="-2.44443">
        <ele>92</ele>
        <time>2019-09-15T08:42:44Z</time>
      </trkpt>
      <trkpt lat="47.32645" lon="-2.44458">
        <ele>92</ele>
        <time>2019-09-15T08:42:45Z</time>
      </trkpt>
      <trkpt lat="47.32648" lon="-2.44466">
        <ele>92</ele>
        <time>2019-09-15T08:42:46Z</time>
      </trkpt>
      <trkpt lat="47.3265" lon="-2.44473">
        <ele>93</ele>
        <time>2019-09-15T08:42:47Z</time>
      </trkpt>
      <trkpt lat="47.32653" lon="-2.4448">
        <ele>93</ele>
        <time>2019-09-15T08:42:48Z</time>
      </trkpt>
      <trkpt lat="47.32657" lon="-2.44486">
        <ele>92</ele>
        <time>2019-09-15T08:42:49Z</time>
      </trkpt>
      <trkpt lat="47.32661" lon="-2.4449">
        <ele>93</ele>
        <time>2019-09-15T08:42:50Z</time>
      </trkpt>
      <trkpt lat="47.3267" lon="-2.44501">
        <ele>93</ele>
        <time>2019-09-15T08:42:53Z</time>
      </trkpt>
      <trkpt lat="47.32665" lon="-2.44516">
        <ele>92</ele>
        <time>2019-09-15T08:42:56Z</time>
      </trkpt>
      <trkpt lat="47.32661" lon="-2.44521">
        <ele>93</ele>
        <time>2019-09-15T08:42:57Z</time>
      </trkpt>
      <trkpt lat="47.32658" lon="-2.44526">
        <ele>93</ele>
        <time>2019-09-15T08:42:58Z</time>
      </trkpt>
      <trkpt lat="47.32655" lon="-2.44532">
        <ele>93</ele>
        <time>2019-09-15T08:42:59Z</time>
      </trkpt>
      <trkpt lat="47.32651" lon="-2.44539">
        <ele>93</ele>
        <time>2019-09-15T08:43:00Z</time>
      </trkpt>
      <trkpt lat="47.32648" lon="-2.44546">
        <ele>94</ele>
        <time>2019-09-15T08:43:01Z</time>
      </trkpt>
      <trkpt lat="47.32643" lon="-2.44553">
        <ele>94</ele>
        <time>2019-09-15T08:43:02Z</time>
      </trkpt>
      <trkpt lat="47.32639" lon="-2.44561">
        <ele>93</ele>
        <time>2019-09-15T08:43:03Z</time>
      </trkpt>
      <trkpt lat="47.32635" lon="-2.4457">
        <ele>93</ele>
        <time>2019-09-15T08:43:05Z</time>
      </trkpt>
      <trkpt lat="47.32631" lon="-2.44577">
        <ele>93</ele>
        <time>2019-09-15T08:43:06Z</time>
      </trkpt>
      <trkpt lat="47.32627" lon="-2.44584">
        <ele>93</ele>
        <time>2019-09-15T08:43:07Z</time>
      </trkpt>
      <trkpt lat="47.32623" lon="-2.44591">
        <ele>93</ele>
        <time>2019-09-15T08:43:08Z</time>
      </trkpt>
      <trkpt lat="47.32618" lon="-2.44599">
        <ele>93</ele>
        <time>2019-09-15T08:43:09Z</time>
      </trkpt>
      <trkpt lat="47.32613" lon="-2.44606">
        <ele>93</ele>
        <time>2019-09-15T08:43:10Z</time>
      </trkpt>
      <trkpt lat="47.32599" lon="-2.44629">
        <ele>93</ele>
        <time>2019-09-15T08:43:13Z</time>
      </trkpt>
      <trkpt lat="47.32583" lon="-2.44649">
        <ele>93</ele>
        <time>2019-09-15T08:43:16Z</time>
      </trkpt>
      <trkpt lat="47.32567" lon="-2.44669">
        <ele>93</ele>
        <time>2019-09-15T08:43:19Z</time>
      </trkpt>
      <trkpt lat="47.3256" lon="-2.44678">
        <ele>93</ele>
        <time>2019-09-15T08:43:20Z</time>
      </trkpt>
      <trkpt lat="47.32554" lon="-2.44687">
        <ele>93</ele>
        <time>2019-09-15T08:43:21Z</time>
      </trkpt>
      <trkpt lat="47.32549" lon="-2.44695">
        <ele>92</ele>
        <time>2019-09-15T08:43:22Z</time>
      </trkpt>
      <trkpt lat="47.32539" lon="-2.4471">
        <ele>93</ele>
        <time>2019-09-15T08:43:24Z</time>
      </trkpt>
      <trkpt lat="47.32534" lon="-2.44717">
        <ele>93</ele>
        <time>2019-09-15T08:43:25Z</time>
      </trkpt>
      <trkpt lat="47.32531" lon="-2.44724">
        <ele>93</ele>
        <time>2019-09-15T08:43:26Z</time>
      </trkpt>
      <trkpt lat="47.32528" lon="-2.44731">
        <ele>93</ele>
        <time>2019-09-15T08:43:27Z</time>
      </trkpt>
      <trkpt lat="47.32526" lon="-2.44736">
        <ele>93</ele>
        <time>2019-09-15T08:43:28Z</time>
      </trkpt>
      <trkpt lat="47.32522" lon="-2.44741">
        <ele>93</ele>
        <time>2019-09-15T08:43:29Z</time>
      </trkpt>
      <trkpt lat="47.32516" lon="-2.44744">
        <ele>92</ele>
        <time>2019-09-15T08:43:30Z</time>
      </trkpt>
      <trkpt lat="47.32492" lon="-2.4476">
        <ele>92</ele>
        <time>2019-09-15T08:43:34Z</time>
      </trkpt>
      <trkpt lat="47.32478" lon="-2.4477">
        <ele>92</ele>
        <time>2019-09-15T08:43:36Z</time>
      </trkpt>
      <trkpt lat="47.3247" lon="-2.44775">
        <ele>93</ele>
        <time>2019-09-15T08:43:37Z</time>
      </trkpt>
      <trkpt lat="47.32461" lon="-2.4478">
        <ele>93</ele>
        <time>2019-09-15T08:43:38Z</time>
      </trkpt>
      <trkpt lat="47.32452" lon="-2.44787">
        <ele>93</ele>
        <time>2019-09-15T08:43:39Z</time>
      </trkpt>
      <trkpt lat="47.32444" lon="-2.44795">
        <ele>93</ele>
        <time>2019-09-15T08:43:40Z</time>
      </trkpt>
      <trkpt lat="47.32435" lon="-2.44802">
        <ele>93</ele>
        <time>2019-09-15T08:43:41Z</time>
      </trkpt>
      <trkpt lat="47.32427" lon="-2.44809">
        <ele>92</ele>
        <time>2019-09-15T08:43:42Z</time>
      </trkpt>
      <trkpt lat="47.3242" lon="-2.44817">
        <ele>91</ele>
        <time>2019-09-15T08:43:43Z</time>
      </trkpt>
      <trkpt lat="47.32403" lon="-2.4483">
        <ele>89</ele>
        <time>2019-09-15T08:43:45Z</time>
      </trkpt>
      <trkpt lat="47.32388" lon="-2.44841">
        <ele>87</ele>
        <time>2019-09-15T08:43:46Z</time>
      </trkpt>
      <trkpt lat="47.32376" lon="-2.4485">
        <ele>86</ele>
        <time>2019-09-15T08:43:49Z</time>
      </trkpt>
      <trkpt lat="47.32371" lon="-2.44854">
        <ele>85</ele>
        <time>2019-09-15T08:43:50Z</time>
      </trkpt>
      <trkpt lat="47.32367" lon="-2.44858">
        <ele>84</ele>
        <time>2019-09-15T08:43:51Z</time>
      </trkpt>
      <trkpt lat="47.32361" lon="-2.44862">
        <ele>84</ele>
        <time>2019-09-15T08:43:52Z</time>
      </trkpt>
      <trkpt lat="47.32354" lon="-2.44869">
        <ele>83</ele>
        <time>2019-09-15T08:43:54Z</time>
      </trkpt>
      <trkpt lat="47.32343" lon="-2.44885">
        <ele>82</ele>
        <time>2019-09-15T08:43:57Z</time>
      </trkpt>
      <trkpt lat="47.32329" lon="-2.44903">
        <ele>82</ele>
        <time>2019-09-15T08:44:00Z</time>
      </trkpt>
      <trkpt lat="47.32323" lon="-2.4491">
        <ele>82</ele>
        <time>2019-09-15T08:44:01Z</time>
      </trkpt>
      <trkpt lat="47.32318" lon="-2.44917">
        <ele>82</ele>
        <time>2019-09-15T08:44:02Z</time>
      </trkpt>
      <trkpt lat="47.32312" lon="-2.44923">
        <ele>81</ele>
        <time>2019-09-15T08:44:03Z</time>
      </trkpt>
      <trkpt lat="47.32307" lon="-2.44929">
        <ele>81</ele>
        <time>2019-09-15T08:44:04Z</time>
      </trkpt>
      <trkpt lat="47.32301" lon="-2.44936">
        <ele>81</ele>
        <time>2019-09-15T08:44:05Z</time>
      </trkpt>
      <trkpt lat="47.32295" lon="-2.44942">
        <ele>80</ele>
        <time>2019-09-15T08:44:06Z</time>
      </trkpt>
      <trkpt lat="47.32289" lon="-2.44949">
        <ele>80</ele>
        <time>2019-09-15T08:44:07Z</time>
      </trkpt>
      <trkpt lat="47.32283" lon="-2.44955">
        <ele>79</ele>
        <time>2019-09-15T08:44:08Z</time>
      </trkpt>
      <trkpt lat="47.32277" lon="-2.44962">
        <ele>79</ele>
        <time>2019-09-15T08:44:09Z</time>
      </trkpt>
      <trkpt lat="47.32271" lon="-2.44969">
        <ele>78</ele>
        <time>2019-09-15T08:44:10Z</time>
      </trkpt>
      <trkpt lat="47.32265" lon="-2.44976">
        <ele>77</ele>
        <time>2019-09-15T08:44:11Z</time>
      </trkpt>
      <trkpt lat="47.32259" lon="-2.44983">
        <ele>76</ele>
        <time>2019-09-15T08:44:12Z</time>
      </trkpt>
      <trkpt lat="47.32253" lon="-2.44991">
        <ele>75</ele>
        <time>2019-09-15T08:44:13Z</time>
      </trkpt>
      <trkpt lat="47.32247" lon="-2.44998">
        <ele>74</ele>
        <time>2019-09-15T08:44:14Z</time>
      </trkpt>
      <trkpt lat="47.32241" lon="-2.45004">
        <ele>73</ele>
        <time>2019-09-15T08:44:15Z</time>
      </trkpt>
      <trkpt lat="47.32236" lon="-2.45011">
        <ele>72</ele>
        <time>2019-09-15T08:44:16Z</time>
      </trkpt>
      <trkpt lat="47.32232" lon="-2.45017">
        <ele>72</ele>
        <time>2019-09-15T08:44:17Z</time>
      </trkpt>
      <trkpt lat="47.32227" lon="-2.45022">
        <ele>71</ele>
        <time>2019-09-15T08:44:18Z</time>
      </trkpt>
      <trkpt lat="47.32223" lon="-2.45026">
        <ele>70</ele>
        <time>2019-09-15T08:44:19Z</time>
      </trkpt>
      <trkpt lat="47.3222" lon="-2.45028">
        <ele>68</ele>
        <time>2019-09-15T08:44:20Z</time>
      </trkpt>
      <trkpt lat="47.32215" lon="-2.4503">
        <ele>68</ele>
        <time>2019-09-15T08:44:25Z</time>
      </trkpt>
      <trkpt lat="47.32215" lon="-2.4503">
        <ele>68</ele>
        <time>2019-09-15T08:44:32Z</time>
      </trkpt>
      <trkpt lat="47.32215" lon="-2.4503">
        <ele>15.4</ele>
        <time>2019-09-15T08:44:32Z</time>
      </trkpt>
      <trkpt lat="47.32215" lon="-2.4503">
        <ele>15.4</ele>
        <time>2019-09-15T08:53:24Z</time>
      </trkpt>
      <trkpt lat="47.32231" lon="-2.45067">
        <ele>63</ele>
        <time>2019-09-15T08:53:24Z</time>
      </trkpt>
      <trkpt lat="47.32246" lon="-2.45108">
        <ele>61</ele>
        <time>2019-09-15T08:53:30Z</time>
      </trkpt>
      <trkpt lat="47.32254" lon="-2.45123">
        <ele>62</ele>
        <time>2019-09-15T08:53:32Z</time>
      </trkpt>
      <trkpt lat="47.32257" lon="-2.45132">
        <ele>62</ele>
        <time>2019-09-15T08:53:33Z</time>
      </trkpt>
      <trkpt lat="47.3226" lon="-2.4514">
        <ele>61</ele>
        <time>2019-09-15T08:53:34Z</time>
      </trkpt>
      <trkpt lat="47.32262" lon="-2.45149">
        <ele>60</ele>
        <time>2019-09-15T08:53:35Z</time>
      </trkpt>
      <trkpt lat="47.32264" lon="-2.45158">
        <ele>59</ele>
        <time>2019-09-15T08:53:36Z</time>
      </trkpt>
      <trkpt lat="47.32267" lon="-2.45168">
        <ele>58</ele>
        <time>2019-09-15T08:53:37Z</time>
      </trkpt>
      <trkpt lat="47.32269" lon="-2.45179">
        <ele>57</ele>
        <time>2019-09-15T08:53:38Z</time>
      </trkpt>
      <trkpt lat="47.32272" lon="-2.4519">
        <ele>56</ele>
        <time>2019-09-15T08:53:39Z</time>
      </trkpt>
      <trkpt lat="47.32276" lon="-2.45199">
        <ele>55</ele>
        <time>2019-09-15T08:53:40Z</time>
      </trkpt>
      <trkpt lat="47.32286" lon="-2.45218">
        <ele>56</ele>
        <time>2019-09-15T08:53:42Z</time>
      </trkpt>
      <trkpt lat="47.32289" lon="-2.45226">
        <ele>56</ele>
        <time>2019-09-15T08:53:43Z</time>
      </trkpt>
      <trkpt lat="47.32293" lon="-2.45235">
        <ele>57</ele>
        <time>2019-09-15T08:53:44Z</time>
      </trkpt>
      <trkpt lat="47.32298" lon="-2.4525">
        <ele>60</ele>
        <time>2019-09-15T08:53:46Z</time>
      </trkpt>
      <trkpt lat="47.32299" lon="-2.45256">
        <ele>62</ele>
        <time>2019-09-15T08:53:47Z</time>
      </trkpt>
      <trkpt lat="47.32301" lon="-2.45261">
        <ele>63</ele>
        <time>2019-09-15T08:53:48Z</time>
      </trkpt>
      <trkpt lat="47.32302" lon="-2.45269">
        <ele>66</ele>
        <time>2019-09-15T08:53:50Z</time>
      </trkpt>
      <trkpt lat="47.32303" lon="-2.45273">
        <ele>68</ele>
        <time>2019-09-15T08:53:51Z</time>
      </trkpt>
      <trkpt lat="47.32306" lon="-2.45285">
        <ele>70</ele>
        <time>2019-09-15T08:53:53Z</time>
      </trkpt>
      <trkpt lat="47.32308" lon="-2.45291">
        <ele>69</ele>
        <time>2019-09-15T08:53:54Z</time>
      </trkpt>
      <trkpt lat="47.32309" lon="-2.45296">
        <ele>69</ele>
        <time>2019-09-15T08:53:55Z</time>
      </trkpt>
      <trkpt lat="47.32312" lon="-2.45302">
        <ele>68</ele>
        <time>2019-09-15T08:53:56Z</time>
      </trkpt>
      <trkpt lat="47.32313" lon="-2.45309">
        <ele>68</ele>
        <time>2019-09-15T08:53:57Z</time>
      </trkpt>
      <trkpt lat="47.32314" lon="-2.45316">
        <ele>68</ele>
        <time>2019-09-15T08:53:58Z</time>
      </trkpt>
      <trkpt lat="47.32314" lon="-2.45324">
        <ele>68</ele>
        <time>2019-09-15T08:53:59Z</time>
      </trkpt>
      <trkpt lat="47.32314" lon="-2.45332">
        <ele>67</ele>
        <time>2019-09-15T08:54:00Z</time>
      </trkpt>
      <trkpt lat="47.32314" lon="-2.45341">
        <ele>67</ele>
        <time>2019-09-15T08:54:01Z</time>
      </trkpt>
      <trkpt lat="47.32315" lon="-2.45351">
        <ele>67</ele>
        <time>2019-09-15T08:54:02Z</time>
      </trkpt>
      <trkpt lat="47.32316" lon="-2.45361">
        <ele>67</ele>
        <time>2019-09-15T08:54:03Z</time>
      </trkpt>
      <trkpt lat="47.32316" lon="-2.4537">
        <ele>67</ele>
        <time>2019-09-15T08:54:04Z</time>
      </trkpt>
      <trkpt lat="47.32317" lon="-2.45386">
        <ele>68</ele>
        <time>2019-09-15T08:54:06Z</time>
      </trkpt>
      <trkpt lat="47.32316" lon="-2.45393">
        <ele>69</ele>
        <time>2019-09-15T08:54:07Z</time>
      </trkpt>
      <trkpt lat="47.32314" lon="-2.45401">
        <ele>68</ele>
        <time>2019-09-15T08:54:08Z</time>
      </trkpt>
      <trkpt lat="47.32312" lon="-2.45411">
        <ele>67</ele>
        <time>2019-09-15T08:54:09Z</time>
      </trkpt>
      <trkpt lat="47.32318" lon="-2.45429">
        <ele>66</ele>
        <time>2019-09-15T08:54:11Z</time>
      </trkpt>
      <trkpt lat="47.32323" lon="-2.45438">
        <ele>66</ele>
        <time>2019-09-15T08:54:12Z</time>
      </trkpt>
      <trkpt lat="47.32327" lon="-2.45448">
        <ele>65</ele>
        <time>2019-09-15T08:54:13Z</time>
      </trkpt>
      <trkpt lat="47.32331" lon="-2.45456">
        <ele>65</ele>
        <time>2019-09-15T08:54:14Z</time>
      </trkpt>
      <trkpt lat="47.32337" lon="-2.45464">
        <ele>66</ele>
        <time>2019-09-15T08:54:15Z</time>
      </trkpt>
      <trkpt lat="47.32341" lon="-2.45471">
        <ele>66</ele>
        <time>2019-09-15T08:54:16Z</time>
      </trkpt>
      <trkpt lat="47.32347" lon="-2.45479">
        <ele>66</ele>
        <time>2019-09-15T08:54:17Z</time>
      </trkpt>
      <trkpt lat="47.32352" lon="-2.45485">
        <ele>66</ele>
        <time>2019-09-15T08:54:18Z</time>
      </trkpt>
      <trkpt lat="47.32357" lon="-2.45493">
        <ele>65</ele>
        <time>2019-09-15T08:54:19Z</time>
      </trkpt>
      <trkpt lat="47.32362" lon="-2.455">
        <ele>64</ele>
        <time>2019-09-15T08:54:20Z</time>
      </trkpt>
      <trkpt lat="47.32367" lon="-2.45507">
        <ele>64</ele>
        <time>2019-09-15T08:54:21Z</time>
      </trkpt>
      <trkpt lat="47.32372" lon="-2.45514">
        <ele>64</ele>
        <time>2019-09-15T08:54:22Z</time>
      </trkpt>
      <trkpt lat="47.32376" lon="-2.45521">
        <ele>63</ele>
        <time>2019-09-15T08:54:23Z</time>
      </trkpt>
      <trkpt lat="47.32379" lon="-2.45528">
        <ele>63</ele>
        <time>2019-09-15T08:54:24Z</time>
      </trkpt>
      <trkpt lat="47.32383" lon="-2.45535">
        <ele>63</ele>
        <time>2019-09-15T08:54:25Z</time>
      </trkpt>
      <trkpt lat="47.32389" lon="-2.45549">
        <ele>63</ele>
        <time>2019-09-15T08:54:27Z</time>
      </trkpt>
      <trkpt lat="47.32392" lon="-2.45554">
        <ele>64</ele>
        <time>2019-09-15T08:54:28Z</time>
      </trkpt>
      <trkpt lat="47.32395" lon="-2.45559">
        <ele>64</ele>
        <time>2019-09-15T08:54:29Z</time>
      </trkpt>
      <trkpt lat="47.324" lon="-2.45564">
        <ele>64</ele>
        <time>2019-09-15T08:54:30Z</time>
      </trkpt>
      <trkpt lat="47.32404" lon="-2.45569">
        <ele>63</ele>
        <time>2019-09-15T08:54:31Z</time>
      </trkpt>
      <trkpt lat="47.32406" lon="-2.45573">
        <ele>63</ele>
        <time>2019-09-15T08:54:32Z</time>
      </trkpt>
      <trkpt lat="47.32413" lon="-2.45589">
        <ele>61</ele>
        <time>2019-09-15T08:54:35Z</time>
      </trkpt>
      <trkpt lat="47.32414" lon="-2.45595">
        <ele>61</ele>
        <time>2019-09-15T08:54:36Z</time>
      </trkpt>
      <trkpt lat="47.3242" lon="-2.45608">
        <ele>61</ele>
        <time>2019-09-15T08:54:38Z</time>
      </trkpt>
      <trkpt lat="47.32422" lon="-2.45614">
        <ele>61</ele>
        <time>2019-09-15T08:54:39Z</time>
      </trkpt>
      <trkpt lat="47.32426" lon="-2.4562">
        <ele>62</ele>
        <time>2019-09-15T08:54:40Z</time>
      </trkpt>
      <trkpt lat="47.3243" lon="-2.45627">
        <ele>62</ele>
        <time>2019-09-15T08:54:41Z</time>
      </trkpt>
      <trkpt lat="47.32434" lon="-2.45634">
        <ele>61</ele>
        <time>2019-09-15T08:54:42Z</time>
      </trkpt>
      <trkpt lat="47.32446" lon="-2.45655">
        <ele>61</ele>
        <time>2019-09-15T08:54:45Z</time>
      </trkpt>
      <trkpt lat="47.32451" lon="-2.45661">
        <ele>61</ele>
        <time>2019-09-15T08:54:46Z</time>
      </trkpt>
      <trkpt lat="47.32455" lon="-2.45668">
        <ele>61</ele>
        <time>2019-09-15T08:54:47Z</time>
      </trkpt>
      <trkpt lat="47.3246" lon="-2.45675">
        <ele>61</ele>
        <time>2019-09-15T08:54:48Z</time>
      </trkpt>
      <trkpt lat="47.32465" lon="-2.45682">
        <ele>61</ele>
        <time>2019-09-15T08:54:49Z</time>
      </trkpt>
      <trkpt lat="47.3247" lon="-2.45691">
        <ele>60</ele>
        <time>2019-09-15T08:54:50Z</time>
      </trkpt>
      <trkpt lat="47.32474" lon="-2.45699">
        <ele>60</ele>
        <time>2019-09-15T08:54:51Z</time>
      </trkpt>
      <trkpt lat="47.32479" lon="-2.45707">
        <ele>60</ele>
        <time>2019-09-15T08:54:52Z</time>
      </trkpt>
      <trkpt lat="47.32483" lon="-2.45715">
        <ele>60</ele>
        <time>2019-09-15T08:54:53Z</time>
      </trkpt>
      <trkpt lat="47.32495" lon="-2.45738">
        <ele>59</ele>
        <time>2019-09-15T08:54:56Z</time>
      </trkpt>
      <trkpt lat="47.325" lon="-2.45746">
        <ele>59</ele>
        <time>2019-09-15T08:54:57Z</time>
      </trkpt>
      <trkpt lat="47.32508" lon="-2.45762">
        <ele>58</ele>
        <time>2019-09-15T08:54:59Z</time>
      </trkpt>
      <trkpt lat="47.32512" lon="-2.4577">
        <ele>58</ele>
        <time>2019-09-15T08:55:00Z</time>
      </trkpt>
      <trkpt lat="47.32516" lon="-2.45777">
        <ele>57</ele>
        <time>2019-09-15T08:55:01Z</time>
      </trkpt>
      <trkpt lat="47.32528" lon="-2.45796">
        <ele>57</ele>
        <time>2019-09-15T08:55:04Z</time>
      </trkpt>
      <trkpt lat="47.32531" lon="-2.45802">
        <ele>57</ele>
        <time>2019-09-15T08:55:05Z</time>
      </trkpt>
      <trkpt lat="47.32535" lon="-2.45808">
        <ele>57</ele>
        <time>2019-09-15T08:55:06Z</time>
      </trkpt>
      <trkpt lat="47.32539" lon="-2.45813">
        <ele>57</ele>
        <time>2019-09-15T08:55:07Z</time>
      </trkpt>
      <trkpt lat="47.3255" lon="-2.45828">
        <ele>57</ele>
        <time>2019-09-15T08:55:10Z</time>
      </trkpt>
      <trkpt lat="47.32557" lon="-2.45839">
        <ele>57</ele>
        <time>2019-09-15T08:55:12Z</time>
      </trkpt>
      <trkpt lat="47.3256" lon="-2.45845">
        <ele>58</ele>
        <time>2019-09-15T08:55:13Z</time>
      </trkpt>
      <trkpt lat="47.32564" lon="-2.45852">
        <ele>58</ele>
        <time>2019-09-15T08:55:14Z</time>
      </trkpt>
      <trkpt lat="47.32567" lon="-2.45858">
        <ele>57</ele>
        <time>2019-09-15T08:55:15Z</time>
      </trkpt>
      <trkpt lat="47.3257" lon="-2.45865">
        <ele>57</ele>
        <time>2019-09-15T08:55:16Z</time>
      </trkpt>
      <trkpt lat="47.32574" lon="-2.45871">
        <ele>58</ele>
        <time>2019-09-15T08:55:17Z</time>
      </trkpt>
      <trkpt lat="47.32578" lon="-2.45876">
        <ele>57</ele>
        <time>2019-09-15T08:55:18Z</time>
      </trkpt>
      <trkpt lat="47.32582" lon="-2.4588">
        <ele>57</ele>
        <time>2019-09-15T08:55:19Z</time>
      </trkpt>
      <trkpt lat="47.32586" lon="-2.45884">
        <ele>57</ele>
        <time>2019-09-15T08:55:20Z</time>
      </trkpt>
      <trkpt lat="47.32598" lon="-2.45898">
        <ele>58</ele>
        <time>2019-09-15T08:55:23Z</time>
      </trkpt>
      <trkpt lat="47.32602" lon="-2.45903">
        <ele>58</ele>
        <time>2019-09-15T08:55:24Z</time>
      </trkpt>
      <trkpt lat="47.32606" lon="-2.45908">
        <ele>59</ele>
        <time>2019-09-15T08:55:25Z</time>
      </trkpt>
      <trkpt lat="47.32609" lon="-2.45913">
        <ele>59</ele>
        <time>2019-09-15T08:55:26Z</time>
      </trkpt>
      <trkpt lat="47.32613" lon="-2.4592">
        <ele>59</ele>
        <time>2019-09-15T08:55:27Z</time>
      </trkpt>
      <trkpt lat="47.32617" lon="-2.45926">
        <ele>59</ele>
        <time>2019-09-15T08:55:28Z</time>
      </trkpt>
      <trkpt lat="47.32622" lon="-2.45932">
        <ele>59</ele>
        <time>2019-09-15T08:55:29Z</time>
      </trkpt>
      <trkpt lat="47.3263" lon="-2.45944">
        <ele>59</ele>
        <time>2019-09-15T08:55:31Z</time>
      </trkpt>
      <trkpt lat="47.32634" lon="-2.4595">
        <ele>59</ele>
        <time>2019-09-15T08:55:32Z</time>
      </trkpt>
      <trkpt lat="47.32638" lon="-2.45956">
        <ele>59</ele>
        <time>2019-09-15T08:55:33Z</time>
      </trkpt>
      <trkpt lat="47.32644" lon="-2.45962">
        <ele>59</ele>
        <time>2019-09-15T08:55:34Z</time>
      </trkpt>
      <trkpt lat="47.32653" lon="-2.45971">
        <ele>60</ele>
        <time>2019-09-15T08:55:36Z</time>
      </trkpt>
      <trkpt lat="47.32663" lon="-2.45983">
        <ele>60</ele>
        <time>2019-09-15T08:55:38Z</time>
      </trkpt>
      <trkpt lat="47.32667" lon="-2.45988">
        <ele>59</ele>
        <time>2019-09-15T08:55:39Z</time>
      </trkpt>
      <trkpt lat="47.32674" lon="-2.45996">
        <ele>60</ele>
        <time>2019-09-15T08:55:41Z</time>
      </trkpt>
      <trkpt lat="47.32682" lon="-2.46005">
        <ele>60</ele>
        <time>2019-09-15T08:55:44Z</time>
      </trkpt>
      <trkpt lat="47.32685" lon="-2.46011">
        <ele>60</ele>
        <time>2019-09-15T08:55:45Z</time>
      </trkpt>
      <trkpt lat="47.32689" lon="-2.46017">
        <ele>61</ele>
        <time>2019-09-15T08:55:46Z</time>
      </trkpt>
      <trkpt lat="47.32693" lon="-2.46023">
        <ele>61</ele>
        <time>2019-09-15T08:55:47Z</time>
      </trkpt>
      <trkpt lat="47.327" lon="-2.46034">
        <ele>62</ele>
        <time>2019-09-15T08:55:49Z</time>
      </trkpt>
      <trkpt lat="47.32709" lon="-2.46044">
        <ele>62</ele>
        <time>2019-09-15T08:55:51Z</time>
      </trkpt>
      <trkpt lat="47.32713" lon="-2.46048">
        <ele>62</ele>
        <time>2019-09-15T08:55:52Z</time>
      </trkpt>
      <trkpt lat="47.32721" lon="-2.46059">
        <ele>62</ele>
        <time>2019-09-15T08:55:55Z</time>
      </trkpt>
      <trkpt lat="47.32729" lon="-2.46067">
        <ele>63</ele>
        <time>2019-09-15T08:55:59Z</time>
      </trkpt>
      <trkpt lat="47.32731" lon="-2.4607">
        <ele>63</ele>
        <time>2019-09-15T08:56:00Z</time>
      </trkpt>
      <trkpt lat="47.32742" lon="-2.46083">
        <ele>64</ele>
        <time>2019-09-15T08:56:04Z</time>
      </trkpt>
      <trkpt lat="47.32746" lon="-2.4609">
        <ele>65</ele>
        <time>2019-09-15T08:56:06Z</time>
      </trkpt>
      <trkpt lat="47.32751" lon="-2.46098">
        <ele>65</ele>
        <time>2019-09-15T08:56:08Z</time>
      </trkpt>
      <trkpt lat="47.32756" lon="-2.4611">
        <ele>66</ele>
        <time>2019-09-15T08:56:11Z</time>
      </trkpt>
      <trkpt lat="47.32758" lon="-2.46116">
        <ele>67</ele>
        <time>2019-09-15T08:56:13Z</time>
      </trkpt>
      <trkpt lat="47.3276" lon="-2.4612">
        <ele>67</ele>
        <time>2019-09-15T08:56:14Z</time>
      </trkpt>
      <trkpt lat="47.32761" lon="-2.46126">
        <ele>67</ele>
        <time>2019-09-15T08:56:15Z</time>
      </trkpt>
      <trkpt lat="47.32764" lon="-2.46132">
        <ele>67</ele>
        <time>2019-09-15T08:56:16Z</time>
      </trkpt>
      <trkpt lat="47.32766" lon="-2.46141">
        <ele>67</ele>
        <time>2019-09-15T08:56:17Z</time>
      </trkpt>
      <trkpt lat="47.32769" lon="-2.46148">
        <ele>66</ele>
        <time>2019-09-15T08:56:18Z</time>
      </trkpt>
      <trkpt lat="47.32773" lon="-2.46154">
        <ele>67</ele>
        <time>2019-09-15T08:56:19Z</time>
      </trkpt>
      <trkpt lat="47.32777" lon="-2.46159">
        <ele>67</ele>
        <time>2019-09-15T08:56:20Z</time>
      </trkpt>
      <trkpt lat="47.32788" lon="-2.46173">
        <ele>68</ele>
        <time>2019-09-15T08:56:23Z</time>
      </trkpt>
      <trkpt lat="47.32794" lon="-2.46181">
        <ele>69</ele>
        <time>2019-09-15T08:56:25Z</time>
      </trkpt>
      <trkpt lat="47.32798" lon="-2.46185">
        <ele>69</ele>
        <time>2019-09-15T08:56:26Z</time>
      </trkpt>
      <trkpt lat="47.32802" lon="-2.4619">
        <ele>70</ele>
        <time>2019-09-15T08:56:27Z</time>
      </trkpt>
      <trkpt lat="47.32807" lon="-2.46194">
        <ele>71</ele>
        <time>2019-09-15T08:56:28Z</time>
      </trkpt>
      <trkpt lat="47.32812" lon="-2.46196">
        <ele>71</ele>
        <time>2019-09-15T08:56:29Z</time>
      </trkpt>
      <trkpt lat="47.32817" lon="-2.46196">
        <ele>71</ele>
        <time>2019-09-15T08:56:30Z</time>
      </trkpt>
      <trkpt lat="47.32825" lon="-2.46194">
        <ele>72</ele>
        <time>2019-09-15T08:56:32Z</time>
      </trkpt>
      <trkpt lat="47.32833" lon="-2.4619">
        <ele>72</ele>
        <time>2019-09-15T08:56:34Z</time>
      </trkpt>
      <trkpt lat="47.32837" lon="-2.46187">
        <ele>73</ele>
        <time>2019-09-15T08:56:35Z</time>
      </trkpt>
      <trkpt lat="47.32841" lon="-2.46185">
        <ele>73</ele>
        <time>2019-09-15T08:56:36Z</time>
      </trkpt>
      <trkpt lat="47.32847" lon="-2.46181">
        <ele>73</ele>
        <time>2019-09-15T08:56:38Z</time>
      </trkpt>
      <trkpt lat="47.32854" lon="-2.46177">
        <ele>73</ele>
        <time>2019-09-15T08:56:40Z</time>
      </trkpt>
      <trkpt lat="47.32858" lon="-2.46174">
        <ele>73</ele>
        <time>2019-09-15T08:56:41Z</time>
      </trkpt>
      <trkpt lat="47.32861" lon="-2.46172">
        <ele>73</ele>
        <time>2019-09-15T08:56:42Z</time>
      </trkpt>
      <trkpt lat="47.32864" lon="-2.4617">
        <ele>73</ele>
        <time>2019-09-15T08:56:43Z</time>
      </trkpt>
      <trkpt lat="47.32867" lon="-2.46168">
        <ele>73</ele>
        <time>2019-09-15T08:56:44Z</time>
      </trkpt>
      <trkpt lat="47.32876" lon="-2.46162">
        <ele>74</ele>
        <time>2019-09-15T08:56:47Z</time>
      </trkpt>
      <trkpt lat="47.32879" lon="-2.4616">
        <ele>74</ele>
        <time>2019-09-15T08:56:48Z</time>
      </trkpt>
      <trkpt lat="47.32882" lon="-2.46158">
        <ele>74</ele>
        <time>2019-09-15T08:56:49Z</time>
      </trkpt>
      <trkpt lat="47.32884" lon="-2.46157">
        <ele>74</ele>
        <time>2019-09-15T08:56:50Z</time>
      </trkpt>
      <trkpt lat="47.32892" lon="-2.46153">
        <ele>74</ele>
        <time>2019-09-15T08:56:53Z</time>
      </trkpt>
      <trkpt lat="47.32897" lon="-2.46153">
        <ele>75</ele>
        <time>2019-09-15T08:56:55Z</time>
      </trkpt>
      <trkpt lat="47.32901" lon="-2.46156">
        <ele>75</ele>
        <time>2019-09-15T08:56:57Z</time>
      </trkpt>
      <trkpt lat="47.32905" lon="-2.46165">
        <ele>75</ele>
        <time>2019-09-15T08:56:59Z</time>
      </trkpt>
      <trkpt lat="47.32909" lon="-2.46177">
        <ele>76</ele>
        <time>2019-09-15T08:57:01Z</time>
      </trkpt>
      <trkpt lat="47.32911" lon="-2.46183">
        <ele>76</ele>
        <time>2019-09-15T08:57:02Z</time>
      </trkpt>
      <trkpt lat="47.32913" lon="-2.4619">
        <ele>75</ele>
        <time>2019-09-15T08:57:03Z</time>
      </trkpt>
      <trkpt lat="47.32915" lon="-2.46197">
        <ele>76</ele>
        <time>2019-09-15T08:57:04Z</time>
      </trkpt>
      <trkpt lat="47.32918" lon="-2.46204">
        <ele>75</ele>
        <time>2019-09-15T08:57:05Z</time>
      </trkpt>
      <trkpt lat="47.3292" lon="-2.46212">
        <ele>75</ele>
        <time>2019-09-15T08:57:06Z</time>
      </trkpt>
      <trkpt lat="47.32923" lon="-2.4622">
        <ele>75</ele>
        <time>2019-09-15T08:57:07Z</time>
      </trkpt>
      <trkpt lat="47.32925" lon="-2.46227">
        <ele>75</ele>
        <time>2019-09-15T08:57:08Z</time>
      </trkpt>
      <trkpt lat="47.32928" lon="-2.46235">
        <ele>76</ele>
        <time>2019-09-15T08:57:09Z</time>
      </trkpt>
      <trkpt lat="47.3293" lon="-2.46244">
        <ele>75</ele>
        <time>2019-09-15T08:57:10Z</time>
      </trkpt>
      <trkpt lat="47.32932" lon="-2.46252">
        <ele>75</ele>
        <time>2019-09-15T08:57:11Z</time>
      </trkpt>
      <trkpt lat="47.32935" lon="-2.4626">
        <ele>75</ele>
        <time>2019-09-15T08:57:12Z</time>
      </trkpt>
      <trkpt lat="47.32937" lon="-2.46268">
        <ele>75</ele>
        <time>2019-09-15T08:57:13Z</time>
      </trkpt>
      <trkpt lat="47.32939" lon="-2.46276">
        <ele>74</ele>
        <time>2019-09-15T08:57:14Z</time>
      </trkpt>
      <trkpt lat="47.32941" lon="-2.46284">
        <ele>74</ele>
        <time>2019-09-15T08:57:15Z</time>
      </trkpt>
      <trkpt lat="47.32943" lon="-2.46292">
        <ele>73</ele>
        <time>2019-09-15T08:57:16Z</time>
      </trkpt>
      <trkpt lat="47.32945" lon="-2.46301">
        <ele>73</ele>
        <time>2019-09-15T08:57:17Z</time>
      </trkpt>
      <trkpt lat="47.32947" lon="-2.46308">
        <ele>72</ele>
        <time>2019-09-15T08:57:18Z</time>
      </trkpt>
      <trkpt lat="47.3295" lon="-2.46317">
        <ele>72</ele>
        <time>2019-09-15T08:57:19Z</time>
      </trkpt>
      <trkpt lat="47.32953" lon="-2.46326">
        <ele>71</ele>
        <time>2019-09-15T08:57:20Z</time>
      </trkpt>
      <trkpt lat="47.32955" lon="-2.46336">
        <ele>71</ele>
        <time>2019-09-15T08:57:21Z</time>
      </trkpt>
      <trkpt lat="47.32958" lon="-2.46348">
        <ele>71</ele>
        <time>2019-09-15T08:57:22Z</time>
      </trkpt>
      <trkpt lat="47.3296" lon="-2.4636">
        <ele>70</ele>
        <time>2019-09-15T08:57:23Z</time>
      </trkpt>
      <trkpt lat="47.32962" lon="-2.46373">
        <ele>70</ele>
        <time>2019-09-15T08:57:24Z</time>
      </trkpt>
      <trkpt lat="47.32963" lon="-2.46386">
        <ele>70</ele>
        <time>2019-09-15T08:57:25Z</time>
      </trkpt>
      <trkpt lat="47.32963" lon="-2.46401">
        <ele>70</ele>
        <time>2019-09-15T08:57:26Z</time>
      </trkpt>
      <trkpt lat="47.32962" lon="-2.46416">
        <ele>69</ele>
        <time>2019-09-15T08:57:27Z</time>
      </trkpt>
      <trkpt lat="47.32962" lon="-2.46431">
        <ele>68</ele>
        <time>2019-09-15T08:57:28Z</time>
      </trkpt>
      <trkpt lat="47.32962" lon="-2.46447">
        <ele>68</ele>
        <time>2019-09-15T08:57:29Z</time>
      </trkpt>
      <trkpt lat="47.32961" lon="-2.46463">
        <ele>67</ele>
        <time>2019-09-15T08:57:30Z</time>
      </trkpt>
      <trkpt lat="47.3296" lon="-2.4648">
        <ele>67</ele>
        <time>2019-09-15T08:57:31Z</time>
      </trkpt>
      <trkpt lat="47.32959" lon="-2.46514">
        <ele>66</ele>
        <time>2019-09-15T08:57:33Z</time>
      </trkpt>
      <trkpt lat="47.32958" lon="-2.46528">
        <ele>64</ele>
        <time>2019-09-15T08:57:34Z</time>
      </trkpt>
      <trkpt lat="47.32958" lon="-2.46539">
        <ele>64</ele>
        <time>2019-09-15T08:57:35Z</time>
      </trkpt>
      <trkpt lat="47.32957" lon="-2.46548">
        <ele>62</ele>
        <time>2019-09-15T08:57:36Z</time>
      </trkpt>
      <trkpt lat="47.32964" lon="-2.4656">
        <ele>62</ele>
        <time>2019-09-15T08:57:38Z</time>
      </trkpt>
      <trkpt lat="47.32972" lon="-2.46563">
        <ele>61</ele>
        <time>2019-09-15T08:57:40Z</time>
      </trkpt>
      <trkpt lat="47.32978" lon="-2.46561">
        <ele>61</ele>
        <time>2019-09-15T08:57:42Z</time>
      </trkpt>
      <trkpt lat="47.32983" lon="-2.46558">
        <ele>62</ele>
        <time>2019-09-15T08:57:44Z</time>
      </trkpt>
      <trkpt lat="47.32989" lon="-2.46555">
        <ele>62</ele>
        <time>2019-09-15T08:57:46Z</time>
      </trkpt>
      <trkpt lat="47.32992" lon="-2.46554">
        <ele>62</ele>
        <time>2019-09-15T08:57:47Z</time>
      </trkpt>
      <trkpt lat="47.32995" lon="-2.46553">
        <ele>62</ele>
        <time>2019-09-15T08:57:48Z</time>
      </trkpt>
      <trkpt lat="47.33001" lon="-2.46548">
        <ele>63</ele>
        <time>2019-09-15T08:57:50Z</time>
      </trkpt>
      <trkpt lat="47.33004" lon="-2.46546">
        <ele>63</ele>
        <time>2019-09-15T08:57:51Z</time>
      </trkpt>
      <trkpt lat="47.33011" lon="-2.46544">
        <ele>63</ele>
        <time>2019-09-15T08:57:53Z</time>
      </trkpt>
      <trkpt lat="47.33014" lon="-2.46542">
        <ele>63</ele>
        <time>2019-09-15T08:57:54Z</time>
      </trkpt>
      <trkpt lat="47.33017" lon="-2.46541">
        <ele>63</ele>
        <time>2019-09-15T08:57:55Z</time>
      </trkpt>
      <trkpt lat="47.33021" lon="-2.4654">
        <ele>63</ele>
        <time>2019-09-15T08:57:56Z</time>
      </trkpt>
      <trkpt lat="47.3303" lon="-2.46539">
        <ele>62</ele>
        <time>2019-09-15T08:57:58Z</time>
      </trkpt>
      <trkpt lat="47.33035" lon="-2.46539">
        <ele>63</ele>
        <time>2019-09-15T08:57:59Z</time>
      </trkpt>
      <trkpt lat="47.33039" lon="-2.46538">
        <ele>63</ele>
        <time>2019-09-15T08:58:00Z</time>
      </trkpt>
      <trkpt lat="47.33044" lon="-2.46538">
        <ele>63</ele>
        <time>2019-09-15T08:58:01Z</time>
      </trkpt>
      <trkpt lat="47.33049" lon="-2.46536">
        <ele>63</ele>
        <time>2019-09-15T08:58:02Z</time>
      </trkpt>
      <trkpt lat="47.33062" lon="-2.46529">
        <ele>63</ele>
        <time>2019-09-15T08:58:05Z</time>
      </trkpt>
      <trkpt lat="47.33074" lon="-2.46524">
        <ele>64</ele>
        <time>2019-09-15T08:58:08Z</time>
      </trkpt>
      <trkpt lat="47.33085" lon="-2.46521">
        <ele>64</ele>
        <time>2019-09-15T08:58:11Z</time>
      </trkpt>
      <trkpt lat="47.33088" lon="-2.4652">
        <ele>64</ele>
        <time>2019-09-15T08:58:12Z</time>
      </trkpt>
      <trkpt lat="47.33091" lon="-2.46519">
        <ele>64</ele>
        <time>2019-09-15T08:58:13Z</time>
      </trkpt>
      <trkpt lat="47.33101" lon="-2.46514">
        <ele>65</ele>
        <time>2019-09-15T08:58:16Z</time>
      </trkpt>
      <trkpt lat="47.33104" lon="-2.46512">
        <ele>65</ele>
        <time>2019-09-15T08:58:17Z</time>
      </trkpt>
      <trkpt lat="47.33107" lon="-2.4651">
        <ele>65</ele>
        <time>2019-09-15T08:58:18Z</time>
      </trkpt>
      <trkpt lat="47.33113" lon="-2.46505">
        <ele>66</ele>
        <time>2019-09-15T08:58:20Z</time>
      </trkpt>
      <trkpt lat="47.33116" lon="-2.46504">
        <ele>66</ele>
        <time>2019-09-15T08:58:21Z</time>
      </trkpt>
      <trkpt lat="47.33121" lon="-2.46502">
        <ele>66</ele>
        <time>2019-09-15T08:58:24Z</time>
      </trkpt>
      <trkpt lat="47.33121" lon="-2.46502">
        <ele>66</ele>
        <time>2019-09-15T08:58:30Z</time>
      </trkpt>
      <trkpt lat="47.33121" lon="-2.46502">
        <ele>21.3</ele>
        <time>2019-09-15T08:58:30Z</time>
      </trkpt>
      <trkpt lat="47.33121" lon="-2.46502">
        <ele>21.3</ele>
        <time>2019-09-15T08:59:16Z</time>
      </trkpt>
      <trkpt lat="47.33141" lon="-2.46496">
        <ele>68</ele>
        <time>2019-09-15T08:59:16Z</time>
      </trkpt>
      <trkpt lat="47.33161" lon="-2.46491">
        <ele>71</ele>
        <time>2019-09-15T08:59:23Z</time>
      </trkpt>
      <trkpt lat="47.33165" lon="-2.46489">
        <ele>70</ele>
        <time>2019-09-15T08:59:24Z</time>
      </trkpt>
      <trkpt lat="47.33171" lon="-2.46488">
        <ele>74</ele>
        <time>2019-09-15T08:59:26Z</time>
      </trkpt>
      <trkpt lat="47.33174" lon="-2.46487">
        <ele>74</ele>
        <time>2019-09-15T08:59:27Z</time>
      </trkpt>
      <trkpt lat="47.3318" lon="-2.46484">
        <ele>78</ele>
        <time>2019-09-15T08:59:30Z</time>
      </trkpt>
      <trkpt lat="47.33186" lon="-2.4648">
        <ele>78</ele>
        <time>2019-09-15T08:59:32Z</time>
      </trkpt>
      <trkpt lat="47.33193" lon="-2.46477">
        <ele>81</ele>
        <time>2019-09-15T08:59:35Z</time>
      </trkpt>
      <trkpt lat="47.33198" lon="-2.46478">
        <ele>84</ele>
        <time>2019-09-15T08:59:37Z</time>
      </trkpt>
      <trkpt lat="47.332" lon="-2.46479">
        <ele>86</ele>
        <time>2019-09-15T08:59:38Z</time>
      </trkpt>
      <trkpt lat="47.33208" lon="-2.46478">
        <ele>86</ele>
        <time>2019-09-15T08:59:41Z</time>
      </trkpt>
      <trkpt lat="47.33214" lon="-2.46476">
        <ele>84</ele>
        <time>2019-09-15T08:59:43Z</time>
      </trkpt>
      <trkpt lat="47.33219" lon="-2.46473">
        <ele>84</ele>
        <time>2019-09-15T08:59:45Z</time>
      </trkpt>
      <trkpt lat="47.33223" lon="-2.46468">
        <ele>84</ele>
        <time>2019-09-15T08:59:47Z</time>
      </trkpt>
      <trkpt lat="47.33227" lon="-2.46461">
        <ele>84</ele>
        <time>2019-09-15T08:59:49Z</time>
      </trkpt>
      <trkpt lat="47.3323" lon="-2.46454">
        <ele>83</ele>
        <time>2019-09-15T08:59:51Z</time>
      </trkpt>
      <trkpt lat="47.33231" lon="-2.46451">
        <ele>83</ele>
        <time>2019-09-15T08:59:52Z</time>
      </trkpt>
      <trkpt lat="47.33233" lon="-2.46447">
        <ele>83</ele>
        <time>2019-09-15T08:59:53Z</time>
      </trkpt>
      <trkpt lat="47.33237" lon="-2.46442">
        <ele>83</ele>
        <time>2019-09-15T08:59:55Z</time>
      </trkpt>
      <trkpt lat="47.33241" lon="-2.46437">
        <ele>83</ele>
        <time>2019-09-15T08:59:57Z</time>
      </trkpt>
      <trkpt lat="47.33247" lon="-2.46434">
        <ele>83</ele>
        <time>2019-09-15T09:00:00Z</time>
      </trkpt>
      <trkpt lat="47.33253" lon="-2.46432">
        <ele>84</ele>
        <time>2019-09-15T09:00:03Z</time>
      </trkpt>
      <trkpt lat="47.33259" lon="-2.46432">
        <ele>84</ele>
        <time>2019-09-15T09:00:05Z</time>
      </trkpt>
      <trkpt lat="47.33261" lon="-2.46432">
        <ele>84</ele>
        <time>2019-09-15T09:00:06Z</time>
      </trkpt>
      <trkpt lat="47.33264" lon="-2.46432">
        <ele>84</ele>
        <time>2019-09-15T09:00:07Z</time>
      </trkpt>
      <trkpt lat="47.33269" lon="-2.46436">
        <ele>84</ele>
        <time>2019-09-15T09:00:09Z</time>
      </trkpt>
      <trkpt lat="47.33275" lon="-2.46445">
        <ele>84</ele>
        <time>2019-09-15T09:00:12Z</time>
      </trkpt>
      <trkpt lat="47.33278" lon="-2.46454">
        <ele>85</ele>
        <time>2019-09-15T09:00:14Z</time>
      </trkpt>
      <trkpt lat="47.33281" lon="-2.46463">
        <ele>84</ele>
        <time>2019-09-15T09:00:16Z</time>
      </trkpt>
      <trkpt lat="47.33283" lon="-2.46475">
        <ele>82</ele>
        <time>2019-09-15T09:00:18Z</time>
      </trkpt>
      <trkpt lat="47.33285" lon="-2.46489">
        <ele>81</ele>
        <time>2019-09-15T09:00:20Z</time>
      </trkpt>
      <trkpt lat="47.33286" lon="-2.46497">
        <ele>81</ele>
        <time>2019-09-15T09:00:21Z</time>
      </trkpt>
      <trkpt lat="47.33287" lon="-2.46506">
        <ele>81</ele>
        <time>2019-09-15T09:00:22Z</time>
      </trkpt>
      <trkpt lat="47.33288" lon="-2.46515">
        <ele>81</ele>
        <time>2019-09-15T09:00:23Z</time>
      </trkpt>
      <trkpt lat="47.33289" lon="-2.46524">
        <ele>81</ele>
        <time>2019-09-15T09:00:24Z</time>
      </trkpt>
      <trkpt lat="47.33296" lon="-2.46574">
        <ele>80</ele>
        <time>2019-09-15T09:00:29Z</time>
      </trkpt>
      <trkpt lat="47.33298" lon="-2.46582">
        <ele>80</ele>
        <time>2019-09-15T09:00:30Z</time>
      </trkpt>
      <trkpt lat="47.33301" lon="-2.46591">
        <ele>79</ele>
        <time>2019-09-15T09:00:31Z</time>
      </trkpt>
      <trkpt lat="47.33304" lon="-2.46598">
        <ele>79</ele>
        <time>2019-09-15T09:00:32Z</time>
      </trkpt>
      <trkpt lat="47.33308" lon="-2.46604">
        <ele>80</ele>
        <time>2019-09-15T09:00:33Z</time>
      </trkpt>
      <trkpt lat="47.33312" lon="-2.46609">
        <ele>80</ele>
        <time>2019-09-15T09:00:34Z</time>
      </trkpt>
      <trkpt lat="47.33316" lon="-2.46614">
        <ele>80</ele>
        <time>2019-09-15T09:00:35Z</time>
      </trkpt>
      <trkpt lat="47.3332" lon="-2.46619">
        <ele>80</ele>
        <time>2019-09-15T09:00:36Z</time>
      </trkpt>
      <trkpt lat="47.33323" lon="-2.46624">
        <ele>79</ele>
        <time>2019-09-15T09:00:37Z</time>
      </trkpt>
      <trkpt lat="47.33329" lon="-2.46638">
        <ele>79</ele>
        <time>2019-09-15T09:00:40Z</time>
      </trkpt>
      <trkpt lat="47.33328" lon="-2.46645">
        <ele>79</ele>
        <time>2019-09-15T09:00:43Z</time>
      </trkpt>
      <trkpt lat="47.33328" lon="-2.46645">
        <ele>79</ele>
        <time>2019-09-15T09:00:51Z</time>
      </trkpt>
      <trkpt lat="47.33328" lon="-2.46645">
        <ele>27.8</ele>
        <time>2019-09-15T09:00:51Z</time>
      </trkpt>
      <trkpt lat="47.33328" lon="-2.46645">
        <ele>27.8</ele>
        <time>2019-09-15T09:01:04Z</time>
      </trkpt>
      <trkpt lat="47.33342" lon="-2.46656">
        <ele>80</ele>
        <time>2019-09-15T09:01:04Z</time>
      </trkpt>
      <trkpt lat="47.33357" lon="-2.46653">
        <ele>85</ele>
        <time>2019-09-15T09:01:10Z</time>
      </trkpt>
      <trkpt lat="47.33361" lon="-2.4665">
        <ele>83</ele>
        <time>2019-09-15T09:01:11Z</time>
      </trkpt>
      <trkpt lat="47.33366" lon="-2.46648">
        <ele>80</ele>
        <time>2019-09-15T09:01:12Z</time>
      </trkpt>
      <trkpt lat="47.33368" lon="-2.46646">
        <ele>80</ele>
        <time>2019-09-15T09:01:13Z</time>
      </trkpt>
      <trkpt lat="47.33373" lon="-2.46639">
        <ele>79</ele>
        <time>2019-09-15T09:01:15Z</time>
      </trkpt>
      <trkpt lat="47.33377" lon="-2.46634">
        <ele>80</ele>
        <time>2019-09-15T09:01:17Z</time>
      </trkpt>
      <trkpt lat="47.33379" lon="-2.46632">
        <ele>81</ele>
        <time>2019-09-15T09:01:18Z</time>
      </trkpt>
      <trkpt lat="47.33383" lon="-2.46628">
        <ele>82</ele>
        <time>2019-09-15T09:01:20Z</time>
      </trkpt>
      <trkpt lat="47.33387" lon="-2.46624">
        <ele>83</ele>
        <time>2019-09-15T09:01:22Z</time>
      </trkpt>
      <trkpt lat="47.33389" lon="-2.46622">
        <ele>84</ele>
        <time>2019-09-15T09:01:23Z</time>
      </trkpt>
      <trkpt lat="47.33393" lon="-2.46619">
        <ele>86</ele>
        <time>2019-09-15T09:01:25Z</time>
      </trkpt>
      <trkpt lat="47.33399" lon="-2.46613">
        <ele>89</ele>
        <time>2019-09-15T09:01:28Z</time>
      </trkpt>
      <trkpt lat="47.33403" lon="-2.46609">
        <ele>92</ele>
        <time>2019-09-15T09:01:30Z</time>
      </trkpt>
      <trkpt lat="47.33408" lon="-2.46603">
        <ele>94</ele>
        <time>2019-09-15T09:01:33Z</time>
      </trkpt>
      <trkpt lat="47.33412" lon="-2.46601">
        <ele>97</ele>
        <time>2019-09-15T09:01:35Z</time>
      </trkpt>
      <trkpt lat="47.33417" lon="-2.46597">
        <ele>98</ele>
        <time>2019-09-15T09:01:37Z</time>
      </trkpt>
      <trkpt lat="47.33419" lon="-2.46595">
        <ele>98</ele>
        <time>2019-09-15T09:01:38Z</time>
      </trkpt>
      <trkpt lat="47.33422" lon="-2.46593">
        <ele>98</ele>
        <time>2019-09-15T09:01:39Z</time>
      </trkpt>
      <trkpt lat="47.33431" lon="-2.46588">
        <ele>98</ele>
        <time>2019-09-15T09:01:42Z</time>
      </trkpt>
      <trkpt lat="47.33434" lon="-2.46586">
        <ele>98</ele>
        <time>2019-09-15T09:01:43Z</time>
      </trkpt>
      <trkpt lat="47.33437" lon="-2.46584">
        <ele>98</ele>
        <time>2019-09-15T09:01:44Z</time>
      </trkpt>
      <trkpt lat="47.33448" lon="-2.46572">
        <ele>97</ele>
        <time>2019-09-15T09:01:47Z</time>
      </trkpt>
      <trkpt lat="47.33452" lon="-2.46566">
        <ele>97</ele>
        <time>2019-09-15T09:01:50Z</time>
      </trkpt>
      <trkpt lat="47.33456" lon="-2.46562">
        <ele>97</ele>
        <time>2019-09-15T09:01:52Z</time>
      </trkpt>
      <trkpt lat="47.3346" lon="-2.46557">
        <ele>97</ele>
        <time>2019-09-15T09:01:54Z</time>
      </trkpt>
      <trkpt lat="47.33462" lon="-2.46555">
        <ele>97</ele>
        <time>2019-09-15T09:01:55Z</time>
      </trkpt>
      <trkpt lat="47.33467" lon="-2.46551">
        <ele>97</ele>
        <time>2019-09-15T09:01:57Z</time>
      </trkpt>
      <trkpt lat="47.33469" lon="-2.46548">
        <ele>97</ele>
        <time>2019-09-15T09:01:58Z</time>
      </trkpt>
      <trkpt lat="47.33474" lon="-2.46542">
        <ele>97</ele>
        <time>2019-09-15T09:02:00Z</time>
      </trkpt>
      <trkpt lat="47.33476" lon="-2.46539">
        <ele>97</ele>
        <time>2019-09-15T09:02:01Z</time>
      </trkpt>
      <trkpt lat="47.33481" lon="-2.46533">
        <ele>98</ele>
        <time>2019-09-15T09:02:04Z</time>
      </trkpt>
      <trkpt lat="47.33484" lon="-2.4653">
        <ele>98</ele>
        <time>2019-09-15T09:02:05Z</time>
      </trkpt>
      <trkpt lat="47.3349" lon="-2.46525">
        <ele>99</ele>
        <time>2019-09-15T09:02:07Z</time>
      </trkpt>
      <trkpt lat="47.33496" lon="-2.46518">
        <ele>99</ele>
        <time>2019-09-15T09:02:09Z</time>
      </trkpt>
      <trkpt lat="47.335" lon="-2.46513">
        <ele>100</ele>
        <time>2019-09-15T09:02:11Z</time>
      </trkpt>
      <trkpt lat="47.33503" lon="-2.46511">
        <ele>100</ele>
        <time>2019-09-15T09:02:12Z</time>
      </trkpt>
      <trkpt lat="47.33507" lon="-2.46506">
        <ele>101</ele>
        <time>2019-09-15T09:02:14Z</time>
      </trkpt>
      <trkpt lat="47.33514" lon="-2.46499">
        <ele>102</ele>
        <time>2019-09-15T09:02:17Z</time>
      </trkpt>
      <trkpt lat="47.33522" lon="-2.46498">
        <ele>104</ele>
        <time>2019-09-15T09:02:20Z</time>
      </trkpt>
      <trkpt lat="47.33527" lon="-2.465">
        <ele>104</ele>
        <time>2019-09-15T09:02:22Z</time>
      </trkpt>
      <trkpt lat="47.33533" lon="-2.46503">
        <ele>101</ele>
        <time>2019-09-15T09:02:24Z</time>
      </trkpt>
      <trkpt lat="47.33538" lon="-2.46516">
        <ele>98</ele>
        <time>2019-09-15T09:02:26Z</time>
      </trkpt>
      <trkpt lat="47.33541" lon="-2.46523">
        <ele>97</ele>
        <time>2019-09-15T09:02:27Z</time>
      </trkpt>
      <trkpt lat="47.33543" lon="-2.46531">
        <ele>96</ele>
        <time>2019-09-15T09:02:28Z</time>
      </trkpt>
      <trkpt lat="47.33544" lon="-2.46537">
        <ele>96</ele>
        <time>2019-09-15T09:02:29Z</time>
      </trkpt>
      <trkpt lat="47.33545" lon="-2.46545">
        <ele>96</ele>
        <time>2019-09-15T09:02:30Z</time>
      </trkpt>
      <trkpt lat="47.33548" lon="-2.46561">
        <ele>96</ele>
        <time>2019-09-15T09:02:32Z</time>
      </trkpt>
      <trkpt lat="47.3355" lon="-2.46569">
        <ele>95</ele>
        <time>2019-09-15T09:02:33Z</time>
      </trkpt>
      <trkpt lat="47.33554" lon="-2.46582">
        <ele>94</ele>
        <time>2019-09-15T09:02:35Z</time>
      </trkpt>
      <trkpt lat="47.33557" lon="-2.46586">
        <ele>94</ele>
        <time>2019-09-15T09:02:36Z</time>
      </trkpt>
      <trkpt lat="47.33564" lon="-2.46593">
        <ele>93</ele>
        <time>2019-09-15T09:02:38Z</time>
      </trkpt>
      <trkpt lat="47.33569" lon="-2.46602">
        <ele>94</ele>
        <time>2019-09-15T09:02:40Z</time>
      </trkpt>
      <trkpt lat="47.33576" lon="-2.46617">
        <ele>94</ele>
        <time>2019-09-15T09:02:43Z</time>
      </trkpt>
      <trkpt lat="47.33582" lon="-2.46634">
        <ele>93</ele>
        <time>2019-09-15T09:02:46Z</time>
      </trkpt>
      <trkpt lat="47.33585" lon="-2.46644">
        <ele>92</ele>
        <time>2019-09-15T09:02:48Z</time>
      </trkpt>
      <trkpt lat="47.33587" lon="-2.4665">
        <ele>92</ele>
        <time>2019-09-15T09:02:49Z</time>
      </trkpt>
      <trkpt lat="47.33594" lon="-2.46665">
        <ele>91</ele>
        <time>2019-09-15T09:02:52Z</time>
      </trkpt>
      <trkpt lat="47.33596" lon="-2.46671">
        <ele>91</ele>
        <time>2019-09-15T09:02:53Z</time>
      </trkpt>
      <trkpt lat="47.33599" lon="-2.46677">
        <ele>91</ele>
        <time>2019-09-15T09:02:54Z</time>
      </trkpt>
      <trkpt lat="47.33601" lon="-2.46684">
        <ele>91</ele>
        <time>2019-09-15T09:02:55Z</time>
      </trkpt>
      <trkpt lat="47.33604" lon="-2.46691">
        <ele>91</ele>
        <time>2019-09-15T09:02:56Z</time>
      </trkpt>
      <trkpt lat="47.33607" lon="-2.46698">
        <ele>91</ele>
        <time>2019-09-15T09:02:57Z</time>
      </trkpt>
      <trkpt lat="47.33609" lon="-2.46705">
        <ele>91</ele>
        <time>2019-09-15T09:02:58Z</time>
      </trkpt>
      <trkpt lat="47.33614" lon="-2.46719">
        <ele>91</ele>
        <time>2019-09-15T09:03:00Z</time>
      </trkpt>
      <trkpt lat="47.33617" lon="-2.46733">
        <ele>91</ele>
        <time>2019-09-15T09:03:02Z</time>
      </trkpt>
      <trkpt lat="47.33617" lon="-2.46748">
        <ele>91</ele>
        <time>2019-09-15T09:03:04Z</time>
      </trkpt>
      <trkpt lat="47.33615" lon="-2.46754">
        <ele>91</ele>
        <time>2019-09-15T09:03:05Z</time>
      </trkpt>
      <trkpt lat="47.33611" lon="-2.46759">
        <ele>91</ele>
        <time>2019-09-15T09:03:06Z</time>
      </trkpt>
      <trkpt lat="47.33606" lon="-2.46764">
        <ele>90</ele>
        <time>2019-09-15T09:03:07Z</time>
      </trkpt>
      <trkpt lat="47.33601" lon="-2.46769">
        <ele>90</ele>
        <time>2019-09-15T09:03:08Z</time>
      </trkpt>
      <trkpt lat="47.33592" lon="-2.46779">
        <ele>89</ele>
        <time>2019-09-15T09:03:10Z</time>
      </trkpt>
      <trkpt lat="47.33587" lon="-2.46785">
        <ele>88</ele>
        <time>2019-09-15T09:03:11Z</time>
      </trkpt>
      <trkpt lat="47.33576" lon="-2.46798">
        <ele>88</ele>
        <time>2019-09-15T09:03:13Z</time>
      </trkpt>
      <trkpt lat="47.33565" lon="-2.46811">
        <ele>88</ele>
        <time>2019-09-15T09:03:15Z</time>
      </trkpt>
      <trkpt lat="47.33538" lon="-2.46841">
        <ele>85</ele>
        <time>2019-09-15T09:03:20Z</time>
      </trkpt>
      <trkpt lat="47.33536" lon="-2.46848">
        <ele>84</ele>
        <time>2019-09-15T09:03:21Z</time>
      </trkpt>
      <trkpt lat="47.33536" lon="-2.46855">
        <ele>84</ele>
        <time>2019-09-15T09:03:22Z</time>
      </trkpt>
      <trkpt lat="47.33536" lon="-2.46863">
        <ele>83</ele>
        <time>2019-09-15T09:03:23Z</time>
      </trkpt>
      <trkpt lat="47.33535" lon="-2.46876">
        <ele>83</ele>
        <time>2019-09-15T09:03:25Z</time>
      </trkpt>
      <trkpt lat="47.33532" lon="-2.46882">
        <ele>82</ele>
        <time>2019-09-15T09:03:26Z</time>
      </trkpt>
      <trkpt lat="47.33529" lon="-2.46887">
        <ele>82</ele>
        <time>2019-09-15T09:03:27Z</time>
      </trkpt>
      <trkpt lat="47.33521" lon="-2.46896">
        <ele>81</ele>
        <time>2019-09-15T09:03:29Z</time>
      </trkpt>
      <trkpt lat="47.33517" lon="-2.469">
        <ele>81</ele>
        <time>2019-09-15T09:03:30Z</time>
      </trkpt>
      <trkpt lat="47.33513" lon="-2.46903">
        <ele>81</ele>
        <time>2019-09-15T09:03:31Z</time>
      </trkpt>
      <trkpt lat="47.33509" lon="-2.46908">
        <ele>81</ele>
        <time>2019-09-15T09:03:32Z</time>
      </trkpt>
      <trkpt lat="47.33503" lon="-2.46913">
        <ele>81</ele>
        <time>2019-09-15T09:03:33Z</time>
      </trkpt>
      <trkpt lat="47.33498" lon="-2.46917">
        <ele>81</ele>
        <time>2019-09-15T09:03:34Z</time>
      </trkpt>
      <trkpt lat="47.33492" lon="-2.46921">
        <ele>80</ele>
        <time>2019-09-15T09:03:35Z</time>
      </trkpt>
      <trkpt lat="47.33473" lon="-2.46945">
        <ele>79</ele>
        <time>2019-09-15T09:03:39Z</time>
      </trkpt>
      <trkpt lat="47.33469" lon="-2.46952">
        <ele>79</ele>
        <time>2019-09-15T09:03:40Z</time>
      </trkpt>
      <trkpt lat="47.33465" lon="-2.46959">
        <ele>78</ele>
        <time>2019-09-15T09:03:41Z</time>
      </trkpt>
      <trkpt lat="47.33461" lon="-2.46966">
        <ele>78</ele>
        <time>2019-09-15T09:03:42Z</time>
      </trkpt>
      <trkpt lat="47.33457" lon="-2.46972">
        <ele>78</ele>
        <time>2019-09-15T09:03:43Z</time>
      </trkpt>
      <trkpt lat="47.33453" lon="-2.46978">
        <ele>77</ele>
        <time>2019-09-15T09:03:44Z</time>
      </trkpt>
      <trkpt lat="47.3344" lon="-2.46994">
        <ele>76</ele>
        <time>2019-09-15T09:03:47Z</time>
      </trkpt>
      <trkpt lat="47.33435" lon="-2.47">
        <ele>76</ele>
        <time>2019-09-15T09:03:48Z</time>
      </trkpt>
      <trkpt lat="47.33427" lon="-2.47011">
        <ele>75</ele>
        <time>2019-09-15T09:03:50Z</time>
      </trkpt>
      <trkpt lat="47.33423" lon="-2.47017">
        <ele>74</ele>
        <time>2019-09-15T09:03:51Z</time>
      </trkpt>
      <trkpt lat="47.33419" lon="-2.47024">
        <ele>74</ele>
        <time>2019-09-15T09:03:52Z</time>
      </trkpt>
      <trkpt lat="47.33416" lon="-2.47032">
        <ele>74</ele>
        <time>2019-09-15T09:03:53Z</time>
      </trkpt>
      <trkpt lat="47.33409" lon="-2.47048">
        <ele>74</ele>
        <time>2019-09-15T09:03:55Z</time>
      </trkpt>
      <trkpt lat="47.33405" lon="-2.47056">
        <ele>74</ele>
        <time>2019-09-15T09:03:56Z</time>
      </trkpt>
      <trkpt lat="47.33402" lon="-2.47066">
        <ele>73</ele>
        <time>2019-09-15T09:03:57Z</time>
      </trkpt>
      <trkpt lat="47.33398" lon="-2.47075">
        <ele>73</ele>
        <time>2019-09-15T09:03:58Z</time>
      </trkpt>
      <trkpt lat="47.33396" lon="-2.47085">
        <ele>72</ele>
        <time>2019-09-15T09:03:59Z</time>
      </trkpt>
      <trkpt lat="47.33393" lon="-2.47095">
        <ele>71</ele>
        <time>2019-09-15T09:04:00Z</time>
      </trkpt>
      <trkpt lat="47.3339" lon="-2.47115">
        <ele>71</ele>
        <time>2019-09-15T09:04:02Z</time>
      </trkpt>
      <trkpt lat="47.33388" lon="-2.47123">
        <ele>72</ele>
        <time>2019-09-15T09:04:03Z</time>
      </trkpt>
      <trkpt lat="47.33385" lon="-2.47131">
        <ele>72</ele>
        <time>2019-09-15T09:04:04Z</time>
      </trkpt>
      <trkpt lat="47.33382" lon="-2.47138">
        <ele>72</ele>
        <time>2019-09-15T09:04:05Z</time>
      </trkpt>
      <trkpt lat="47.33375" lon="-2.47151">
        <ele>72</ele>
        <time>2019-09-15T09:04:07Z</time>
      </trkpt>
      <trkpt lat="47.33371" lon="-2.47157">
        <ele>72</ele>
        <time>2019-09-15T09:04:08Z</time>
      </trkpt>
      <trkpt lat="47.33369" lon="-2.47164">
        <ele>72</ele>
        <time>2019-09-15T09:04:09Z</time>
      </trkpt>
      <trkpt lat="47.33368" lon="-2.47171">
        <ele>72</ele>
        <time>2019-09-15T09:04:10Z</time>
      </trkpt>
      <trkpt lat="47.33369" lon="-2.47181">
        <ele>72</ele>
        <time>2019-09-15T09:04:11Z</time>
      </trkpt>
      <trkpt lat="47.3337" lon="-2.47188">
        <ele>72</ele>
        <time>2019-09-15T09:04:12Z</time>
      </trkpt>
      <trkpt lat="47.33371" lon="-2.47196">
        <ele>72</ele>
        <time>2019-09-15T09:04:13Z</time>
      </trkpt>
      <trkpt lat="47.33373" lon="-2.47204">
        <ele>72</ele>
        <time>2019-09-15T09:04:14Z</time>
      </trkpt>
      <trkpt lat="47.33376" lon="-2.47223">
        <ele>72</ele>
        <time>2019-09-15T09:04:16Z</time>
      </trkpt>
      <trkpt lat="47.33377" lon="-2.47233">
        <ele>72</ele>
        <time>2019-09-15T09:04:17Z</time>
      </trkpt>
      <trkpt lat="47.33378" lon="-2.47243">
        <ele>72</ele>
        <time>2019-09-15T09:04:18Z</time>
      </trkpt>
      <trkpt lat="47.33381" lon="-2.47264">
        <ele>73</ele>
        <time>2019-09-15T09:04:20Z</time>
      </trkpt>
      <trkpt lat="47.33383" lon="-2.47274">
        <ele>73</ele>
        <time>2019-09-15T09:04:21Z</time>
      </trkpt>
      <trkpt lat="47.33384" lon="-2.47285">
        <ele>73</ele>
        <time>2019-09-15T09:04:22Z</time>
      </trkpt>
      <trkpt lat="47.33385" lon="-2.47295">
        <ele>73</ele>
        <time>2019-09-15T09:04:23Z</time>
      </trkpt>
      <trkpt lat="47.33387" lon="-2.47323">
        <ele>72</ele>
        <time>2019-09-15T09:04:26Z</time>
      </trkpt>
      <trkpt lat="47.33389" lon="-2.47332">
        <ele>72</ele>
        <time>2019-09-15T09:04:27Z</time>
      </trkpt>
      <trkpt lat="47.33391" lon="-2.47341">
        <ele>72</ele>
        <time>2019-09-15T09:04:28Z</time>
      </trkpt>
      <trkpt lat="47.33393" lon="-2.47349">
        <ele>72</ele>
        <time>2019-09-15T09:04:29Z</time>
      </trkpt>
      <trkpt lat="47.33396" lon="-2.47358">
        <ele>72</ele>
        <time>2019-09-15T09:04:30Z</time>
      </trkpt>
      <trkpt lat="47.33404" lon="-2.47385">
        <ele>72</ele>
        <time>2019-09-15T09:04:33Z</time>
      </trkpt>
      <trkpt lat="47.33407" lon="-2.47394">
        <ele>72</ele>
        <time>2019-09-15T09:04:34Z</time>
      </trkpt>
      <trkpt lat="47.3341" lon="-2.47403">
        <ele>72</ele>
        <time>2019-09-15T09:04:35Z</time>
      </trkpt>
      <trkpt lat="47.33414" lon="-2.4743">
        <ele>73</ele>
        <time>2019-09-15T09:04:38Z</time>
      </trkpt>
      <trkpt lat="47.33416" lon="-2.4744">
        <ele>73</ele>
        <time>2019-09-15T09:04:39Z</time>
      </trkpt>
      <trkpt lat="47.33418" lon="-2.47449">
        <ele>72</ele>
        <time>2019-09-15T09:04:40Z</time>
      </trkpt>
      <trkpt lat="47.3342" lon="-2.47457">
        <ele>72</ele>
        <time>2019-09-15T09:04:41Z</time>
      </trkpt>
      <trkpt lat="47.33424" lon="-2.47473">
        <ele>72</ele>
        <time>2019-09-15T09:04:43Z</time>
      </trkpt>
      <trkpt lat="47.33427" lon="-2.47481">
        <ele>73</ele>
        <time>2019-09-15T09:04:44Z</time>
      </trkpt>
      <trkpt lat="47.3343" lon="-2.47488">
        <ele>73</ele>
        <time>2019-09-15T09:04:45Z</time>
      </trkpt>
      <trkpt lat="47.33437" lon="-2.47504">
        <ele>73</ele>
        <time>2019-09-15T09:04:47Z</time>
      </trkpt>
      <trkpt lat="47.3344" lon="-2.47512">
        <ele>73</ele>
        <time>2019-09-15T09:04:48Z</time>
      </trkpt>
      <trkpt lat="47.33443" lon="-2.4752">
        <ele>73</ele>
        <time>2019-09-15T09:04:49Z</time>
      </trkpt>
      <trkpt lat="47.33445" lon="-2.47528">
        <ele>73</ele>
        <time>2019-09-15T09:04:50Z</time>
      </trkpt>
      <trkpt lat="47.33449" lon="-2.47536">
        <ele>73</ele>
        <time>2019-09-15T09:04:51Z</time>
      </trkpt>
      <trkpt lat="47.33452" lon="-2.47545">
        <ele>73</ele>
        <time>2019-09-15T09:04:52Z</time>
      </trkpt>
      <trkpt lat="47.33456" lon="-2.47553">
        <ele>73</ele>
        <time>2019-09-15T09:04:53Z</time>
      </trkpt>
      <trkpt lat="47.3346" lon="-2.47561">
        <ele>72</ele>
        <time>2019-09-15T09:04:54Z</time>
      </trkpt>
      <trkpt lat="47.33464" lon="-2.47568">
        <ele>71</ele>
        <time>2019-09-15T09:04:55Z</time>
      </trkpt>
      <trkpt lat="47.33469" lon="-2.47576">
        <ele>71</ele>
        <time>2019-09-15T09:04:56Z</time>
      </trkpt>
      <trkpt lat="47.33478" lon="-2.47592">
        <ele>71</ele>
        <time>2019-09-15T09:04:58Z</time>
      </trkpt>
      <trkpt lat="47.33493" lon="-2.47611">
        <ele>72</ele>
        <time>2019-09-15T09:05:01Z</time>
      </trkpt>
      <trkpt lat="47.33499" lon="-2.47616">
        <ele>72</ele>
        <time>2019-09-15T09:05:02Z</time>
      </trkpt>
      <trkpt lat="47.33503" lon="-2.47621">
        <ele>72</ele>
        <time>2019-09-15T09:05:03Z</time>
      </trkpt>
      <trkpt lat="47.33507" lon="-2.47627">
        <ele>72</ele>
        <time>2019-09-15T09:05:04Z</time>
      </trkpt>
      <trkpt lat="47.33513" lon="-2.47642">
        <ele>72</ele>
        <time>2019-09-15T09:05:06Z</time>
      </trkpt>
      <trkpt lat="47.33517" lon="-2.47649">
        <ele>72</ele>
        <time>2019-09-15T09:05:07Z</time>
      </trkpt>
      <trkpt lat="47.3352" lon="-2.47656">
        <ele>72</ele>
        <time>2019-09-15T09:05:08Z</time>
      </trkpt>
      <trkpt lat="47.33524" lon="-2.47663">
        <ele>72</ele>
        <time>2019-09-15T09:05:09Z</time>
      </trkpt>
      <trkpt lat="47.33528" lon="-2.47669">
        <ele>72</ele>
        <time>2019-09-15T09:05:10Z</time>
      </trkpt>
      <trkpt lat="47.33533" lon="-2.47674">
        <ele>72</ele>
        <time>2019-09-15T09:05:11Z</time>
      </trkpt>
      <trkpt lat="47.33539" lon="-2.47678">
        <ele>72</ele>
        <time>2019-09-15T09:05:12Z</time>
      </trkpt>
      <trkpt lat="47.33544" lon="-2.47681">
        <ele>72</ele>
        <time>2019-09-15T09:05:13Z</time>
      </trkpt>
      <trkpt lat="47.3355" lon="-2.47684">
        <ele>72</ele>
        <time>2019-09-15T09:05:14Z</time>
      </trkpt>
      <trkpt lat="47.33555" lon="-2.47688">
        <ele>72</ele>
        <time>2019-09-15T09:05:15Z</time>
      </trkpt>
      <trkpt lat="47.33559" lon="-2.47692">
        <ele>72</ele>
        <time>2019-09-15T09:05:16Z</time>
      </trkpt>
      <trkpt lat="47.33563" lon="-2.47697">
        <ele>72</ele>
        <time>2019-09-15T09:05:17Z</time>
      </trkpt>
      <trkpt lat="47.33568" lon="-2.477">
        <ele>72</ele>
        <time>2019-09-15T09:05:18Z</time>
      </trkpt>
      <trkpt lat="47.33573" lon="-2.47701">
        <ele>72</ele>
        <time>2019-09-15T09:05:19Z</time>
      </trkpt>
      <trkpt lat="47.33578" lon="-2.47703">
        <ele>71</ele>
        <time>2019-09-15T09:05:20Z</time>
      </trkpt>
      <trkpt lat="47.33583" lon="-2.47704">
        <ele>71</ele>
        <time>2019-09-15T09:05:21Z</time>
      </trkpt>
      <trkpt lat="47.336" lon="-2.47694">
        <ele>72</ele>
        <time>2019-09-15T09:05:24Z</time>
      </trkpt>
      <trkpt lat="47.33604" lon="-2.47689">
        <ele>71</ele>
        <time>2019-09-15T09:05:25Z</time>
      </trkpt>
      <trkpt lat="47.33608" lon="-2.47684">
        <ele>71</ele>
        <time>2019-09-15T09:05:26Z</time>
      </trkpt>
      <trkpt lat="47.33613" lon="-2.4768">
        <ele>71</ele>
        <time>2019-09-15T09:05:27Z</time>
      </trkpt>
      <trkpt lat="47.33618" lon="-2.47675">
        <ele>71</ele>
        <time>2019-09-15T09:05:28Z</time>
      </trkpt>
      <trkpt lat="47.33628" lon="-2.47667">
        <ele>71</ele>
        <time>2019-09-15T09:05:30Z</time>
      </trkpt>
      <trkpt lat="47.33633" lon="-2.47663">
        <ele>71</ele>
        <time>2019-09-15T09:05:31Z</time>
      </trkpt>
      <trkpt lat="47.33649" lon="-2.47651">
        <ele>71</ele>
        <time>2019-09-15T09:05:34Z</time>
      </trkpt>
      <trkpt lat="47.33654" lon="-2.47647">
        <ele>71</ele>
        <time>2019-09-15T09:05:35Z</time>
      </trkpt>
      <trkpt lat="47.33659" lon="-2.47643">
        <ele>70</ele>
        <time>2019-09-15T09:05:36Z</time>
      </trkpt>
      <trkpt lat="47.33664" lon="-2.4764">
        <ele>70</ele>
        <time>2019-09-15T09:05:37Z</time>
      </trkpt>
      <trkpt lat="47.33669" lon="-2.47636">
        <ele>71</ele>
        <time>2019-09-15T09:05:38Z</time>
      </trkpt>
      <trkpt lat="47.33674" lon="-2.47632">
        <ele>71</ele>
        <time>2019-09-15T09:05:39Z</time>
      </trkpt>
      <trkpt lat="47.33679" lon="-2.47629">
        <ele>71</ele>
        <time>2019-09-15T09:05:40Z</time>
      </trkpt>
      <trkpt lat="47.33685" lon="-2.47626">
        <ele>71</ele>
        <time>2019-09-15T09:05:41Z</time>
      </trkpt>
      <trkpt lat="47.3369" lon="-2.47624">
        <ele>71</ele>
        <time>2019-09-15T09:05:42Z</time>
      </trkpt>
      <trkpt lat="47.33707" lon="-2.4762">
        <ele>72</ele>
        <time>2019-09-15T09:05:45Z</time>
      </trkpt>
      <trkpt lat="47.33712" lon="-2.47619">
        <ele>71</ele>
        <time>2019-09-15T09:05:46Z</time>
      </trkpt>
      <trkpt lat="47.33717" lon="-2.4762">
        <ele>71</ele>
        <time>2019-09-15T09:05:47Z</time>
      </trkpt>
      <trkpt lat="47.33723" lon="-2.4762">
        <ele>70</ele>
        <time>2019-09-15T09:05:48Z</time>
      </trkpt>
      <trkpt lat="47.33728" lon="-2.47622">
        <ele>71</ele>
        <time>2019-09-15T09:05:49Z</time>
      </trkpt>
      <trkpt lat="47.33733" lon="-2.47624">
        <ele>70</ele>
        <time>2019-09-15T09:05:50Z</time>
      </trkpt>
      <trkpt lat="47.33739" lon="-2.47627">
        <ele>71</ele>
        <time>2019-09-15T09:05:51Z</time>
      </trkpt>
      <trkpt lat="47.33744" lon="-2.47631">
        <ele>71</ele>
        <time>2019-09-15T09:05:52Z</time>
      </trkpt>
      <trkpt lat="47.33758" lon="-2.47647">
        <ele>72</ele>
        <time>2019-09-15T09:05:55Z</time>
      </trkpt>
      <trkpt lat="47.33761" lon="-2.47654">
        <ele>72</ele>
        <time>2019-09-15T09:05:56Z</time>
      </trkpt>
      <trkpt lat="47.33765" lon="-2.47662">
        <ele>72</ele>
        <time>2019-09-15T09:05:57Z</time>
      </trkpt>
      <trkpt lat="47.33768" lon="-2.4767">
        <ele>72</ele>
        <time>2019-09-15T09:05:58Z</time>
      </trkpt>
      <trkpt lat="47.33773" lon="-2.47677">
        <ele>72</ele>
        <time>2019-09-15T09:05:59Z</time>
      </trkpt>
      <trkpt lat="47.33778" lon="-2.47683">
        <ele>72</ele>
        <time>2019-09-15T09:06:00Z</time>
      </trkpt>
      <trkpt lat="47.33783" lon="-2.4769">
        <ele>71</ele>
        <time>2019-09-15T09:06:01Z</time>
      </trkpt>
      <trkpt lat="47.33799" lon="-2.47709">
        <ele>71</ele>
        <time>2019-09-15T09:06:04Z</time>
      </trkpt>
      <trkpt lat="47.33804" lon="-2.47716">
        <ele>71</ele>
        <time>2019-09-15T09:06:05Z</time>
      </trkpt>
      <trkpt lat="47.33814" lon="-2.4773">
        <ele>71</ele>
        <time>2019-09-15T09:06:07Z</time>
      </trkpt>
      <trkpt lat="47.33819" lon="-2.47735">
        <ele>70</ele>
        <time>2019-09-15T09:06:08Z</time>
      </trkpt>
      <trkpt lat="47.33824" lon="-2.47741">
        <ele>70</ele>
        <time>2019-09-15T09:06:09Z</time>
      </trkpt>
      <trkpt lat="47.33829" lon="-2.47747">
        <ele>70</ele>
        <time>2019-09-15T09:06:10Z</time>
      </trkpt>
      <trkpt lat="47.33838" lon="-2.4776">
        <ele>71</ele>
        <time>2019-09-15T09:06:12Z</time>
      </trkpt>
      <trkpt lat="47.33843" lon="-2.47764">
        <ele>71</ele>
        <time>2019-09-15T09:06:13Z</time>
      </trkpt>
      <trkpt lat="47.33847" lon="-2.47771">
        <ele>71</ele>
        <time>2019-09-15T09:06:14Z</time>
      </trkpt>
      <trkpt lat="47.3385" lon="-2.47777">
        <ele>71</ele>
        <time>2019-09-15T09:06:15Z</time>
      </trkpt>
      <trkpt lat="47.3385" lon="-2.4779">
        <ele>71</ele>
        <time>2019-09-15T09:06:17Z</time>
      </trkpt>
      <trkpt lat="47.33846" lon="-2.47805">
        <ele>71</ele>
        <time>2019-09-15T09:06:19Z</time>
      </trkpt>
      <trkpt lat="47.33842" lon="-2.47811">
        <ele>71</ele>
        <time>2019-09-15T09:06:20Z</time>
      </trkpt>
      <trkpt lat="47.33838" lon="-2.47818">
        <ele>71</ele>
        <time>2019-09-15T09:06:21Z</time>
      </trkpt>
      <trkpt lat="47.33834" lon="-2.47826">
        <ele>71</ele>
        <time>2019-09-15T09:06:22Z</time>
      </trkpt>
      <trkpt lat="47.3383" lon="-2.47834">
        <ele>71</ele>
        <time>2019-09-15T09:06:23Z</time>
      </trkpt>
      <trkpt lat="47.33825" lon="-2.47842">
        <ele>70</ele>
        <time>2019-09-15T09:06:24Z</time>
      </trkpt>
      <trkpt lat="47.33821" lon="-2.4785">
        <ele>69</ele>
        <time>2019-09-15T09:06:25Z</time>
      </trkpt>
      <trkpt lat="47.33816" lon="-2.47858">
        <ele>69</ele>
        <time>2019-09-15T09:06:26Z</time>
      </trkpt>
      <trkpt lat="47.33811" lon="-2.47865">
        <ele>69</ele>
        <time>2019-09-15T09:06:27Z</time>
      </trkpt>
      <trkpt lat="47.33807" lon="-2.47873">
        <ele>68</ele>
        <time>2019-09-15T09:06:28Z</time>
      </trkpt>
      <trkpt lat="47.33803" lon="-2.47881">
        <ele>67</ele>
        <time>2019-09-15T09:06:29Z</time>
      </trkpt>
      <trkpt lat="47.3379" lon="-2.47908">
        <ele>66</ele>
        <time>2019-09-15T09:06:32Z</time>
      </trkpt>
      <trkpt lat="47.33785" lon="-2.47918">
        <ele>66</ele>
        <time>2019-09-15T09:06:33Z</time>
      </trkpt>
      <trkpt lat="47.33781" lon="-2.47927">
        <ele>66</ele>
        <time>2019-09-15T09:06:34Z</time>
      </trkpt>
      <trkpt lat="47.33776" lon="-2.47937">
        <ele>66</ele>
        <time>2019-09-15T09:06:35Z</time>
      </trkpt>
      <trkpt lat="47.33763" lon="-2.47967">
        <ele>65</ele>
        <time>2019-09-15T09:06:38Z</time>
      </trkpt>
      <trkpt lat="47.3376" lon="-2.47978">
        <ele>65</ele>
        <time>2019-09-15T09:06:39Z</time>
      </trkpt>
      <trkpt lat="47.33757" lon="-2.4799">
        <ele>65</ele>
        <time>2019-09-15T09:06:40Z</time>
      </trkpt>
      <trkpt lat="47.33755" lon="-2.48">
        <ele>65</ele>
        <time>2019-09-15T09:06:41Z</time>
      </trkpt>
      <trkpt lat="47.33753" lon="-2.48011">
        <ele>65</ele>
        <time>2019-09-15T09:06:42Z</time>
      </trkpt>
      <trkpt lat="47.3375" lon="-2.48021">
        <ele>65</ele>
        <time>2019-09-15T09:06:43Z</time>
      </trkpt>
      <trkpt lat="47.33748" lon="-2.48031">
        <ele>65</ele>
        <time>2019-09-15T09:06:44Z</time>
      </trkpt>
      <trkpt lat="47.33746" lon="-2.48042">
        <ele>65</ele>
        <time>2019-09-15T09:06:45Z</time>
      </trkpt>
      <trkpt lat="47.33744" lon="-2.48054">
        <ele>64</ele>
        <time>2019-09-15T09:06:46Z</time>
      </trkpt>
      <trkpt lat="47.33741" lon="-2.48064">
        <ele>64</ele>
        <time>2019-09-15T09:06:47Z</time>
      </trkpt>
      <trkpt lat="47.33738" lon="-2.48076">
        <ele>64</ele>
        <time>2019-09-15T09:06:48Z</time>
      </trkpt>
      <trkpt lat="47.33736" lon="-2.48087">
        <ele>64</ele>
        <time>2019-09-15T09:06:49Z</time>
      </trkpt>
      <trkpt lat="47.33734" lon="-2.481">
        <ele>63</ele>
        <time>2019-09-15T09:06:50Z</time>
      </trkpt>
      <trkpt lat="47.33732" lon="-2.48112">
        <ele>63</ele>
        <time>2019-09-15T09:06:51Z</time>
      </trkpt>
      <trkpt lat="47.33729" lon="-2.48134">
        <ele>63</ele>
        <time>2019-09-15T09:06:53Z</time>
      </trkpt>
      <trkpt lat="47.33727" lon="-2.48144">
        <ele>63</ele>
        <time>2019-09-15T09:06:54Z</time>
      </trkpt>
      <trkpt lat="47.33726" lon="-2.48156">
        <ele>63</ele>
        <time>2019-09-15T09:06:55Z</time>
      </trkpt>
      <trkpt lat="47.33726" lon="-2.48168">
        <ele>62</ele>
        <time>2019-09-15T09:06:56Z</time>
      </trkpt>
      <trkpt lat="47.33726" lon="-2.4818">
        <ele>62</ele>
        <time>2019-09-15T09:06:57Z</time>
      </trkpt>
      <trkpt lat="47.33725" lon="-2.48192">
        <ele>62</ele>
        <time>2019-09-15T09:06:58Z</time>
      </trkpt>
      <trkpt lat="47.33724" lon="-2.48204">
        <ele>62</ele>
        <time>2019-09-15T09:06:59Z</time>
      </trkpt>
      <trkpt lat="47.33724" lon="-2.48215">
        <ele>62</ele>
        <time>2019-09-15T09:07:00Z</time>
      </trkpt>
      <trkpt lat="47.33724" lon="-2.48226">
        <ele>61</ele>
        <time>2019-09-15T09:07:01Z</time>
      </trkpt>
      <trkpt lat="47.33724" lon="-2.48238">
        <ele>61</ele>
        <time>2019-09-15T09:07:02Z</time>
      </trkpt>
      <trkpt lat="47.33721" lon="-2.48271">
        <ele>60</ele>
        <time>2019-09-15T09:07:05Z</time>
      </trkpt>
      <trkpt lat="47.33721" lon="-2.48289">
        <ele>59</ele>
        <time>2019-09-15T09:07:07Z</time>
      </trkpt>
      <trkpt lat="47.33722" lon="-2.48298">
        <ele>59</ele>
        <time>2019-09-15T09:07:08Z</time>
      </trkpt>
      <trkpt lat="47.33723" lon="-2.48305">
        <ele>59</ele>
        <time>2019-09-15T09:07:09Z</time>
      </trkpt>
      <trkpt lat="47.33724" lon="-2.48311">
        <ele>59</ele>
        <time>2019-09-15T09:07:10Z</time>
      </trkpt>
      <trkpt lat="47.33724" lon="-2.48316">
        <ele>59</ele>
        <time>2019-09-15T09:07:11Z</time>
      </trkpt>
      <trkpt lat="47.33723" lon="-2.48323">
        <ele>59</ele>
        <time>2019-09-15T09:07:13Z</time>
      </trkpt>
      <trkpt lat="47.33718" lon="-2.48329">
        <ele>59</ele>
        <time>2019-09-15T09:07:15Z</time>
      </trkpt>
      <trkpt lat="47.33713" lon="-2.48331">
        <ele>59</ele>
        <time>2019-09-15T09:07:16Z</time>
      </trkpt>
      <trkpt lat="47.33708" lon="-2.48332">
        <ele>58</ele>
        <time>2019-09-15T09:07:17Z</time>
      </trkpt>
      <trkpt lat="47.33702" lon="-2.48335">
        <ele>58</ele>
        <time>2019-09-15T09:07:18Z</time>
      </trkpt>
      <trkpt lat="47.33696" lon="-2.48335">
        <ele>58</ele>
        <time>2019-09-15T09:07:19Z</time>
      </trkpt>
      <trkpt lat="47.33674" lon="-2.48344">
        <ele>57</ele>
        <time>2019-09-15T09:07:22Z</time>
      </trkpt>
      <trkpt lat="47.33665" lon="-2.48348">
        <ele>56</ele>
        <time>2019-09-15T09:07:23Z</time>
      </trkpt>
      <trkpt lat="47.33657" lon="-2.48353">
        <ele>55</ele>
        <time>2019-09-15T09:07:24Z</time>
      </trkpt>
      <trkpt lat="47.3365" lon="-2.48361">
        <ele>55</ele>
        <time>2019-09-15T09:07:25Z</time>
      </trkpt>
      <trkpt lat="47.33643" lon="-2.4837">
        <ele>54</ele>
        <time>2019-09-15T09:07:26Z</time>
      </trkpt>
      <trkpt lat="47.33638" lon="-2.4838">
        <ele>54</ele>
        <time>2019-09-15T09:07:27Z</time>
      </trkpt>
      <trkpt lat="47.33633" lon="-2.4839">
        <ele>54</ele>
        <time>2019-09-15T09:07:28Z</time>
      </trkpt>
      <trkpt lat="47.33629" lon="-2.48402">
        <ele>54</ele>
        <time>2019-09-15T09:07:29Z</time>
      </trkpt>
      <trkpt lat="47.33627" lon="-2.48415">
        <ele>54</ele>
        <time>2019-09-15T09:07:30Z</time>
      </trkpt>
      <trkpt lat="47.33625" lon="-2.48427">
        <ele>54</ele>
        <time>2019-09-15T09:07:31Z</time>
      </trkpt>
      <trkpt lat="47.33622" lon="-2.48439">
        <ele>54</ele>
        <time>2019-09-15T09:07:32Z</time>
      </trkpt>
      <trkpt lat="47.33619" lon="-2.48451">
        <ele>54</ele>
        <time>2019-09-15T09:07:33Z</time>
      </trkpt>
      <trkpt lat="47.33603" lon="-2.48495">
        <ele>53</ele>
        <time>2019-09-15T09:07:37Z</time>
      </trkpt>
      <trkpt lat="47.33599" lon="-2.48506">
        <ele>53</ele>
        <time>2019-09-15T09:07:38Z</time>
      </trkpt>
      <trkpt lat="47.33593" lon="-2.48515">
        <ele>53</ele>
        <time>2019-09-15T09:07:39Z</time>
      </trkpt>
      <trkpt lat="47.33588" lon="-2.48525">
        <ele>53</ele>
        <time>2019-09-15T09:07:40Z</time>
      </trkpt>
      <trkpt lat="47.33583" lon="-2.48535">
        <ele>53</ele>
        <time>2019-09-15T09:07:41Z</time>
      </trkpt>
      <trkpt lat="47.33578" lon="-2.48545">
        <ele>53</ele>
        <time>2019-09-15T09:07:42Z</time>
      </trkpt>
      <trkpt lat="47.33573" lon="-2.48554">
        <ele>53</ele>
        <time>2019-09-15T09:07:43Z</time>
      </trkpt>
      <trkpt lat="47.33568" lon="-2.48564">
        <ele>53</ele>
        <time>2019-09-15T09:07:44Z</time>
      </trkpt>
      <trkpt lat="47.33563" lon="-2.48574">
        <ele>52</ele>
        <time>2019-09-15T09:07:45Z</time>
      </trkpt>
      <trkpt lat="47.33557" lon="-2.48583">
        <ele>52</ele>
        <time>2019-09-15T09:07:46Z</time>
      </trkpt>
      <trkpt lat="47.33552" lon="-2.48593">
        <ele>52</ele>
        <time>2019-09-15T09:07:47Z</time>
      </trkpt>
      <trkpt lat="47.33546" lon="-2.48603">
        <ele>52</ele>
        <time>2019-09-15T09:07:48Z</time>
      </trkpt>
      <trkpt lat="47.33541" lon="-2.48612">
        <ele>51</ele>
        <time>2019-09-15T09:07:49Z</time>
      </trkpt>
      <trkpt lat="47.33535" lon="-2.48621">
        <ele>51</ele>
        <time>2019-09-15T09:07:50Z</time>
      </trkpt>
      <trkpt lat="47.3353" lon="-2.4863">
        <ele>51</ele>
        <time>2019-09-15T09:07:51Z</time>
      </trkpt>
      <trkpt lat="47.33525" lon="-2.48639">
        <ele>51</ele>
        <time>2019-09-15T09:07:52Z</time>
      </trkpt>
      <trkpt lat="47.33508" lon="-2.48664">
        <ele>51</ele>
        <time>2019-09-15T09:07:55Z</time>
      </trkpt>
      <trkpt lat="47.33502" lon="-2.48672">
        <ele>51</ele>
        <time>2019-09-15T09:07:56Z</time>
      </trkpt>
      <trkpt lat="47.33495" lon="-2.4868">
        <ele>50</ele>
        <time>2019-09-15T09:07:57Z</time>
      </trkpt>
      <trkpt lat="47.33489" lon="-2.48687">
        <ele>50</ele>
        <time>2019-09-15T09:07:58Z</time>
      </trkpt>
      <trkpt lat="47.33483" lon="-2.48695">
        <ele>50</ele>
        <time>2019-09-15T09:07:59Z</time>
      </trkpt>
      <trkpt lat="47.33477" lon="-2.48703">
        <ele>50</ele>
        <time>2019-09-15T09:08:00Z</time>
      </trkpt>
      <trkpt lat="47.33471" lon="-2.48711">
        <ele>50</ele>
        <time>2019-09-15T09:08:01Z</time>
      </trkpt>
      <trkpt lat="47.33464" lon="-2.48718">
        <ele>50</ele>
        <time>2019-09-15T09:08:02Z</time>
      </trkpt>
      <trkpt lat="47.33458" lon="-2.48726">
        <ele>51</ele>
        <time>2019-09-15T09:08:03Z</time>
      </trkpt>
      <trkpt lat="47.33451" lon="-2.48734">
        <ele>51</ele>
        <time>2019-09-15T09:08:04Z</time>
      </trkpt>
      <trkpt lat="47.33444" lon="-2.48742">
        <ele>51</ele>
        <time>2019-09-15T09:08:05Z</time>
      </trkpt>
      <trkpt lat="47.33438" lon="-2.4875">
        <ele>51</ele>
        <time>2019-09-15T09:08:06Z</time>
      </trkpt>
      <trkpt lat="47.33432" lon="-2.48758">
        <ele>50</ele>
        <time>2019-09-15T09:08:07Z</time>
      </trkpt>
      <trkpt lat="47.33425" lon="-2.48765">
        <ele>50</ele>
        <time>2019-09-15T09:08:08Z</time>
      </trkpt>
      <trkpt lat="47.33419" lon="-2.48773">
        <ele>50</ele>
        <time>2019-09-15T09:08:09Z</time>
      </trkpt>
      <trkpt lat="47.33412" lon="-2.48781">
        <ele>50</ele>
        <time>2019-09-15T09:08:10Z</time>
      </trkpt>
      <trkpt lat="47.33406" lon="-2.48789">
        <ele>50</ele>
        <time>2019-09-15T09:08:11Z</time>
      </trkpt>
      <trkpt lat="47.334" lon="-2.48797">
        <ele>50</ele>
        <time>2019-09-15T09:08:12Z</time>
      </trkpt>
      <trkpt lat="47.33393" lon="-2.48805">
        <ele>50</ele>
        <time>2019-09-15T09:08:13Z</time>
      </trkpt>
      <trkpt lat="47.33387" lon="-2.48813">
        <ele>50</ele>
        <time>2019-09-15T09:08:14Z</time>
      </trkpt>
      <trkpt lat="47.33379" lon="-2.4882">
        <ele>50</ele>
        <time>2019-09-15T09:08:15Z</time>
      </trkpt>
      <trkpt lat="47.33371" lon="-2.48825">
        <ele>50</ele>
        <time>2019-09-15T09:08:16Z</time>
      </trkpt>
      <trkpt lat="47.33363" lon="-2.48828">
        <ele>50</ele>
        <time>2019-09-15T09:08:17Z</time>
      </trkpt>
      <trkpt lat="47.33339" lon="-2.48833">
        <ele>50</ele>
        <time>2019-09-15T09:08:20Z</time>
      </trkpt>
      <trkpt lat="47.33331" lon="-2.48832">
        <ele>50</ele>
        <time>2019-09-15T09:08:21Z</time>
      </trkpt>
      <trkpt lat="47.33324" lon="-2.48831">
        <ele>50</ele>
        <time>2019-09-15T09:08:22Z</time>
      </trkpt>
      <trkpt lat="47.33317" lon="-2.48831">
        <ele>50</ele>
        <time>2019-09-15T09:08:23Z</time>
      </trkpt>
      <trkpt lat="47.33309" lon="-2.48832">
        <ele>51</ele>
        <time>2019-09-15T09:08:24Z</time>
      </trkpt>
      <trkpt lat="47.33303" lon="-2.48834">
        <ele>51</ele>
        <time>2019-09-15T09:08:25Z</time>
      </trkpt>
      <trkpt lat="47.33296" lon="-2.48837">
        <ele>51</ele>
        <time>2019-09-15T09:08:26Z</time>
      </trkpt>
      <trkpt lat="47.33288" lon="-2.48842">
        <ele>51</ele>
        <time>2019-09-15T09:08:27Z</time>
      </trkpt>
      <trkpt lat="47.3327" lon="-2.48861">
        <ele>50</ele>
        <time>2019-09-15T09:08:30Z</time>
      </trkpt>
      <trkpt lat="47.33265" lon="-2.48867">
        <ele>50</ele>
        <time>2019-09-15T09:08:31Z</time>
      </trkpt>
      <trkpt lat="47.3326" lon="-2.48873">
        <ele>51</ele>
        <time>2019-09-15T09:08:32Z</time>
      </trkpt>
      <trkpt lat="47.33257" lon="-2.48877">
        <ele>50</ele>
        <time>2019-09-15T09:08:33Z</time>
      </trkpt>
      <trkpt lat="47.33252" lon="-2.48888">
        <ele>50</ele>
        <time>2019-09-15T09:08:36Z</time>
      </trkpt>
      <trkpt lat="47.33253" lon="-2.48898">
        <ele>51</ele>
        <time>2019-09-15T09:08:38Z</time>
      </trkpt>
      <trkpt lat="47.33256" lon="-2.4891">
        <ele>50</ele>
        <time>2019-09-15T09:08:40Z</time>
      </trkpt>
      <trkpt lat="47.33259" lon="-2.48925">
        <ele>51</ele>
        <time>2019-09-15T09:08:42Z</time>
      </trkpt>
      <trkpt lat="47.33261" lon="-2.48933">
        <ele>51</ele>
        <time>2019-09-15T09:08:43Z</time>
      </trkpt>
      <trkpt lat="47.33262" lon="-2.48941">
        <ele>51</ele>
        <time>2019-09-15T09:08:44Z</time>
      </trkpt>
      <trkpt lat="47.33264" lon="-2.4895">
        <ele>51</ele>
        <time>2019-09-15T09:08:45Z</time>
      </trkpt>
      <trkpt lat="47.33268" lon="-2.48967">
        <ele>51</ele>
        <time>2019-09-15T09:08:46Z</time>
      </trkpt>
      <trkpt lat="47.3327" lon="-2.48976">
        <ele>51</ele>
        <time>2019-09-15T09:08:48Z</time>
      </trkpt>
      <trkpt lat="47.33272" lon="-2.48985">
        <ele>51</ele>
        <time>2019-09-15T09:08:49Z</time>
      </trkpt>
      <trkpt lat="47.33277" lon="-2.49003">
        <ele>51</ele>
        <time>2019-09-15T09:08:51Z</time>
      </trkpt>
      <trkpt lat="47.3328" lon="-2.49013">
        <ele>51</ele>
        <time>2019-09-15T09:08:52Z</time>
      </trkpt>
      <trkpt lat="47.33282" lon="-2.49022">
        <ele>51</ele>
        <time>2019-09-15T09:08:53Z</time>
      </trkpt>
      <trkpt lat="47.33285" lon="-2.49032">
        <ele>51</ele>
        <time>2019-09-15T09:08:54Z</time>
      </trkpt>
      <trkpt lat="47.33289" lon="-2.49041">
        <ele>51</ele>
        <time>2019-09-15T09:08:55Z</time>
      </trkpt>
      <trkpt lat="47.33292" lon="-2.49051">
        <ele>51</ele>
        <time>2019-09-15T09:08:56Z</time>
      </trkpt>
      <trkpt lat="47.33296" lon="-2.4906">
        <ele>51</ele>
        <time>2019-09-15T09:08:57Z</time>
      </trkpt>
      <trkpt lat="47.333" lon="-2.49068">
        <ele>50</ele>
        <time>2019-09-15T09:08:58Z</time>
      </trkpt>
      <trkpt lat="47.33304" lon="-2.49075">
        <ele>51</ele>
        <time>2019-09-15T09:08:59Z</time>
      </trkpt>
      <trkpt lat="47.33309" lon="-2.49082">
        <ele>50</ele>
        <time>2019-09-15T09:09:00Z</time>
      </trkpt>
      <trkpt lat="47.33314" lon="-2.49089">
        <ele>50</ele>
        <time>2019-09-15T09:09:01Z</time>
      </trkpt>
      <trkpt lat="47.33319" lon="-2.49096">
        <ele>51</ele>
        <time>2019-09-15T09:09:02Z</time>
      </trkpt>
      <trkpt lat="47.33323" lon="-2.49103">
        <ele>51</ele>
        <time>2019-09-15T09:09:03Z</time>
      </trkpt>
      <trkpt lat="47.33328" lon="-2.49109">
        <ele>51</ele>
        <time>2019-09-15T09:09:04Z</time>
      </trkpt>
      <trkpt lat="47.33332" lon="-2.49115">
        <ele>51</ele>
        <time>2019-09-15T09:09:05Z</time>
      </trkpt>
      <trkpt lat="47.33341" lon="-2.4913">
        <ele>51</ele>
        <time>2019-09-15T09:09:07Z</time>
      </trkpt>
      <trkpt lat="47.33346" lon="-2.49137">
        <ele>51</ele>
        <time>2019-09-15T09:09:08Z</time>
      </trkpt>
      <trkpt lat="47.3335" lon="-2.49144">
        <ele>51</ele>
        <time>2019-09-15T09:09:09Z</time>
      </trkpt>
      <trkpt lat="47.33354" lon="-2.49152">
        <ele>51</ele>
        <time>2019-09-15T09:09:10Z</time>
      </trkpt>
      <trkpt lat="47.33358" lon="-2.4916">
        <ele>51</ele>
        <time>2019-09-15T09:09:11Z</time>
      </trkpt>
      <trkpt lat="47.33362" lon="-2.49168">
        <ele>51</ele>
        <time>2019-09-15T09:09:12Z</time>
      </trkpt>
      <trkpt lat="47.33366" lon="-2.49176">
        <ele>51</ele>
        <time>2019-09-15T09:09:13Z</time>
      </trkpt>
      <trkpt lat="47.3337" lon="-2.49185">
        <ele>52</ele>
        <time>2019-09-15T09:09:14Z</time>
      </trkpt>
      <trkpt lat="47.33373" lon="-2.49194">
        <ele>51</ele>
        <time>2019-09-15T09:09:15Z</time>
      </trkpt>
      <trkpt lat="47.33377" lon="-2.49203">
        <ele>51</ele>
        <time>2019-09-15T09:09:16Z</time>
      </trkpt>
      <trkpt lat="47.33379" lon="-2.49212">
        <ele>51</ele>
        <time>2019-09-15T09:09:17Z</time>
      </trkpt>
      <trkpt lat="47.33381" lon="-2.49222">
        <ele>51</ele>
        <time>2019-09-15T09:09:18Z</time>
      </trkpt>
      <trkpt lat="47.33383" lon="-2.49231">
        <ele>51</ele>
        <time>2019-09-15T09:09:19Z</time>
      </trkpt>
      <trkpt lat="47.33384" lon="-2.49242">
        <ele>51</ele>
        <time>2019-09-15T09:09:20Z</time>
      </trkpt>
      <trkpt lat="47.33385" lon="-2.49252">
        <ele>51</ele>
        <time>2019-09-15T09:09:21Z</time>
      </trkpt>
      <trkpt lat="47.33386" lon="-2.49262">
        <ele>51</ele>
        <time>2019-09-15T09:09:22Z</time>
      </trkpt>
      <trkpt lat="47.33388" lon="-2.49272">
        <ele>51</ele>
        <time>2019-09-15T09:09:23Z</time>
      </trkpt>
      <trkpt lat="47.33391" lon="-2.49282">
        <ele>51</ele>
        <time>2019-09-15T09:09:24Z</time>
      </trkpt>
      <trkpt lat="47.33394" lon="-2.49291">
        <ele>51</ele>
        <time>2019-09-15T09:09:25Z</time>
      </trkpt>
      <trkpt lat="47.33398" lon="-2.493">
        <ele>51</ele>
        <time>2019-09-15T09:09:26Z</time>
      </trkpt>
      <trkpt lat="47.33402" lon="-2.49309">
        <ele>51</ele>
        <time>2019-09-15T09:09:27Z</time>
      </trkpt>
      <trkpt lat="47.33406" lon="-2.49317">
        <ele>51</ele>
        <time>2019-09-15T09:09:28Z</time>
      </trkpt>
      <trkpt lat="47.33409" lon="-2.49325">
        <ele>51</ele>
        <time>2019-09-15T09:09:29Z</time>
      </trkpt>
      <trkpt lat="47.33412" lon="-2.49334">
        <ele>52</ele>
        <time>2019-09-15T09:09:30Z</time>
      </trkpt>
      <trkpt lat="47.33415" lon="-2.49343">
        <ele>52</ele>
        <time>2019-09-15T09:09:31Z</time>
      </trkpt>
      <trkpt lat="47.33417" lon="-2.49353">
        <ele>52</ele>
        <time>2019-09-15T09:09:32Z</time>
      </trkpt>
      <trkpt lat="47.33419" lon="-2.49362">
        <ele>51</ele>
        <time>2019-09-15T09:09:33Z</time>
      </trkpt>
      <trkpt lat="47.3342" lon="-2.49372">
        <ele>51</ele>
        <time>2019-09-15T09:09:34Z</time>
      </trkpt>
      <trkpt lat="47.33422" lon="-2.49382">
        <ele>51</ele>
        <time>2019-09-15T09:09:35Z</time>
      </trkpt>
      <trkpt lat="47.33423" lon="-2.49392">
        <ele>51</ele>
        <time>2019-09-15T09:09:36Z</time>
      </trkpt>
      <trkpt lat="47.33424" lon="-2.49403">
        <ele>51</ele>
        <time>2019-09-15T09:09:37Z</time>
      </trkpt>
      <trkpt lat="47.33425" lon="-2.49413">
        <ele>51</ele>
        <time>2019-09-15T09:09:38Z</time>
      </trkpt>
      <trkpt lat="47.33427" lon="-2.49423">
        <ele>51</ele>
        <time>2019-09-15T09:09:39Z</time>
      </trkpt>
      <trkpt lat="47.33428" lon="-2.49433">
        <ele>51</ele>
        <time>2019-09-15T09:09:40Z</time>
      </trkpt>
      <trkpt lat="47.33431" lon="-2.49454">
        <ele>51</ele>
        <time>2019-09-15T09:09:42Z</time>
      </trkpt>
      <trkpt lat="47.33432" lon="-2.49464">
        <ele>50</ele>
        <time>2019-09-15T09:09:43Z</time>
      </trkpt>
      <trkpt lat="47.33433" lon="-2.49473">
        <ele>50</ele>
        <time>2019-09-15T09:09:44Z</time>
      </trkpt>
      <trkpt lat="47.33435" lon="-2.49483">
        <ele>51</ele>
        <time>2019-09-15T09:09:45Z</time>
      </trkpt>
      <trkpt lat="47.33436" lon="-2.49493">
        <ele>51</ele>
        <time>2019-09-15T09:09:46Z</time>
      </trkpt>
      <trkpt lat="47.33438" lon="-2.49503">
        <ele>51</ele>
        <time>2019-09-15T09:09:47Z</time>
      </trkpt>
      <trkpt lat="47.33439" lon="-2.49513">
        <ele>51</ele>
        <time>2019-09-15T09:09:48Z</time>
      </trkpt>
      <trkpt lat="47.3344" lon="-2.49523">
        <ele>51</ele>
        <time>2019-09-15T09:09:49Z</time>
      </trkpt>
      <trkpt lat="47.33441" lon="-2.49533">
        <ele>51</ele>
        <time>2019-09-15T09:09:50Z</time>
      </trkpt>
      <trkpt lat="47.33442" lon="-2.49542">
        <ele>51</ele>
        <time>2019-09-15T09:09:51Z</time>
      </trkpt>
      <trkpt lat="47.33444" lon="-2.49552">
        <ele>51</ele>
        <time>2019-09-15T09:09:52Z</time>
      </trkpt>
      <trkpt lat="47.33445" lon="-2.49562">
        <ele>50</ele>
        <time>2019-09-15T09:09:53Z</time>
      </trkpt>
      <trkpt lat="47.33446" lon="-2.49572">
        <ele>50</ele>
        <time>2019-09-15T09:09:54Z</time>
      </trkpt>
      <trkpt lat="47.33447" lon="-2.49582">
        <ele>51</ele>
        <time>2019-09-15T09:09:55Z</time>
      </trkpt>
      <trkpt lat="47.33448" lon="-2.49593">
        <ele>51</ele>
        <time>2019-09-15T09:09:56Z</time>
      </trkpt>
      <trkpt lat="47.33449" lon="-2.49603">
        <ele>50</ele>
        <time>2019-09-15T09:09:57Z</time>
      </trkpt>
      <trkpt lat="47.33451" lon="-2.49614">
        <ele>51</ele>
        <time>2019-09-15T09:09:58Z</time>
      </trkpt>
      <trkpt lat="47.33452" lon="-2.49625">
        <ele>51</ele>
        <time>2019-09-15T09:09:59Z</time>
      </trkpt>
      <trkpt lat="47.33454" lon="-2.49634">
        <ele>51</ele>
        <time>2019-09-15T09:10:00Z</time>
      </trkpt>
      <trkpt lat="47.33456" lon="-2.49644">
        <ele>51</ele>
        <time>2019-09-15T09:10:01Z</time>
      </trkpt>
      <trkpt lat="47.33459" lon="-2.49654">
        <ele>51</ele>
        <time>2019-09-15T09:10:02Z</time>
      </trkpt>
      <trkpt lat="47.33462" lon="-2.49663">
        <ele>50</ele>
        <time>2019-09-15T09:10:03Z</time>
      </trkpt>
      <trkpt lat="47.33465" lon="-2.49672">
        <ele>50</ele>
        <time>2019-09-15T09:10:04Z</time>
      </trkpt>
      <trkpt lat="47.33469" lon="-2.49681">
        <ele>50</ele>
        <time>2019-09-15T09:10:05Z</time>
      </trkpt>
      <trkpt lat="47.33472" lon="-2.4969">
        <ele>50</ele>
        <time>2019-09-15T09:10:06Z</time>
      </trkpt>
      <trkpt lat="47.33476" lon="-2.49699">
        <ele>50</ele>
        <time>2019-09-15T09:10:07Z</time>
      </trkpt>
      <trkpt lat="47.33479" lon="-2.49708">
        <ele>50</ele>
        <time>2019-09-15T09:10:08Z</time>
      </trkpt>
      <trkpt lat="47.33483" lon="-2.49716">
        <ele>50</ele>
        <time>2019-09-15T09:10:09Z</time>
      </trkpt>
      <trkpt lat="47.33486" lon="-2.49725">
        <ele>50</ele>
        <time>2019-09-15T09:10:10Z</time>
      </trkpt>
      <trkpt lat="47.3349" lon="-2.49733">
        <ele>50</ele>
        <time>2019-09-15T09:10:11Z</time>
      </trkpt>
      <trkpt lat="47.33493" lon="-2.49742">
        <ele>50</ele>
        <time>2019-09-15T09:10:12Z</time>
      </trkpt>
      <trkpt lat="47.33497" lon="-2.4975">
        <ele>50</ele>
        <time>2019-09-15T09:10:13Z</time>
      </trkpt>
      <trkpt lat="47.335" lon="-2.49758">
        <ele>51</ele>
        <time>2019-09-15T09:10:14Z</time>
      </trkpt>
      <trkpt lat="47.33503" lon="-2.49766">
        <ele>51</ele>
        <time>2019-09-15T09:10:15Z</time>
      </trkpt>
      <trkpt lat="47.33507" lon="-2.49775">
        <ele>51</ele>
        <time>2019-09-15T09:10:16Z</time>
      </trkpt>
      <trkpt lat="47.3351" lon="-2.49783">
        <ele>51</ele>
        <time>2019-09-15T09:10:17Z</time>
      </trkpt>
      <trkpt lat="47.33514" lon="-2.49791">
        <ele>51</ele>
        <time>2019-09-15T09:10:18Z</time>
      </trkpt>
      <trkpt lat="47.33518" lon="-2.498">
        <ele>51</ele>
        <time>2019-09-15T09:10:19Z</time>
      </trkpt>
      <trkpt lat="47.33521" lon="-2.49809">
        <ele>51</ele>
        <time>2019-09-15T09:10:20Z</time>
      </trkpt>
      <trkpt lat="47.33524" lon="-2.49817">
        <ele>51</ele>
        <time>2019-09-15T09:10:21Z</time>
      </trkpt>
      <trkpt lat="47.33527" lon="-2.49826">
        <ele>51</ele>
        <time>2019-09-15T09:10:22Z</time>
      </trkpt>
      <trkpt lat="47.3353" lon="-2.49834">
        <ele>51</ele>
        <time>2019-09-15T09:10:23Z</time>
      </trkpt>
      <trkpt lat="47.33534" lon="-2.49843">
        <ele>52</ele>
        <time>2019-09-15T09:10:24Z</time>
      </trkpt>
      <trkpt lat="47.33537" lon="-2.49852">
        <ele>52</ele>
        <time>2019-09-15T09:10:25Z</time>
      </trkpt>
      <trkpt lat="47.3354" lon="-2.49861">
        <ele>52</ele>
        <time>2019-09-15T09:10:26Z</time>
      </trkpt>
      <trkpt lat="47.33543" lon="-2.4987">
        <ele>52</ele>
        <time>2019-09-15T09:10:27Z</time>
      </trkpt>
      <trkpt lat="47.33546" lon="-2.49878">
        <ele>52</ele>
        <time>2019-09-15T09:10:28Z</time>
      </trkpt>
      <trkpt lat="47.33549" lon="-2.49887">
        <ele>52</ele>
        <time>2019-09-15T09:10:29Z</time>
      </trkpt>
      <trkpt lat="47.33552" lon="-2.49896">
        <ele>52</ele>
        <time>2019-09-15T09:10:30Z</time>
      </trkpt>
      <trkpt lat="47.33555" lon="-2.49905">
        <ele>52</ele>
        <time>2019-09-15T09:10:31Z</time>
      </trkpt>
      <trkpt lat="47.33558" lon="-2.49913">
        <ele>52</ele>
        <time>2019-09-15T09:10:32Z</time>
      </trkpt>
      <trkpt lat="47.33561" lon="-2.49922">
        <ele>52</ele>
        <time>2019-09-15T09:10:33Z</time>
      </trkpt>
      <trkpt lat="47.33564" lon="-2.4993">
        <ele>52</ele>
        <time>2019-09-15T09:10:34Z</time>
      </trkpt>
      <trkpt lat="47.33567" lon="-2.49938">
        <ele>52</ele>
        <time>2019-09-15T09:10:35Z</time>
      </trkpt>
      <trkpt lat="47.3357" lon="-2.49946">
        <ele>52</ele>
        <time>2019-09-15T09:10:36Z</time>
      </trkpt>
      <trkpt lat="47.33573" lon="-2.49954">
        <ele>52</ele>
        <time>2019-09-15T09:10:37Z</time>
      </trkpt>
      <trkpt lat="47.33581" lon="-2.49979">
        <ele>52</ele>
        <time>2019-09-15T09:10:40Z</time>
      </trkpt>
      <trkpt lat="47.33584" lon="-2.49987">
        <ele>52</ele>
        <time>2019-09-15T09:10:41Z</time>
      </trkpt>
      <trkpt lat="47.33586" lon="-2.49996">
        <ele>53</ele>
        <time>2019-09-15T09:10:42Z</time>
      </trkpt>
      <trkpt lat="47.33589" lon="-2.50004">
        <ele>53</ele>
        <time>2019-09-15T09:10:43Z</time>
      </trkpt>
      <trkpt lat="47.33592" lon="-2.50012">
        <ele>53</ele>
        <time>2019-09-15T09:10:44Z</time>
      </trkpt>
      <trkpt lat="47.33595" lon="-2.5002">
        <ele>52</ele>
        <time>2019-09-15T09:10:45Z</time>
      </trkpt>
      <trkpt lat="47.33598" lon="-2.50028">
        <ele>52</ele>
        <time>2019-09-15T09:10:46Z</time>
      </trkpt>
      <trkpt lat="47.336" lon="-2.50036">
        <ele>53</ele>
        <time>2019-09-15T09:10:47Z</time>
      </trkpt>
      <trkpt lat="47.33603" lon="-2.50044">
        <ele>52</ele>
        <time>2019-09-15T09:10:48Z</time>
      </trkpt>
      <trkpt lat="47.33606" lon="-2.50052">
        <ele>52</ele>
        <time>2019-09-15T09:10:49Z</time>
      </trkpt>
      <trkpt lat="47.33612" lon="-2.50068">
        <ele>52</ele>
        <time>2019-09-15T09:10:51Z</time>
      </trkpt>
      <trkpt lat="47.33615" lon="-2.50075">
        <ele>52</ele>
        <time>2019-09-15T09:10:52Z</time>
      </trkpt>
      <trkpt lat="47.33621" lon="-2.50089">
        <ele>53</ele>
        <time>2019-09-15T09:10:54Z</time>
      </trkpt>
      <trkpt lat="47.33623" lon="-2.50094">
        <ele>53</ele>
        <time>2019-09-15T09:10:55Z</time>
      </trkpt>
      <trkpt lat="47.33623" lon="-2.50102">
        <ele>53</ele>
        <time>2019-09-15T09:10:57Z</time>
      </trkpt>
      <trkpt lat="47.33619" lon="-2.50107">
        <ele>53</ele>
        <time>2019-09-15T09:10:59Z</time>
      </trkpt>
      <trkpt lat="47.33614" lon="-2.501">
        <ele>54</ele>
        <time>2019-09-15T09:11:03Z</time>
      </trkpt>
      <trkpt lat="47.33612" lon="-2.50097">
        <ele>54</ele>
        <time>2019-09-15T09:11:04Z</time>
      </trkpt>
      <trkpt lat="47.33606" lon="-2.50092">
        <ele>54</ele>
        <time>2019-09-15T09:11:05Z</time>
      </trkpt>
      <trkpt lat="47.33599" lon="-2.50087">
        <ele>53</ele>
        <time>2019-09-15T09:11:08Z</time>
      </trkpt>
      <trkpt lat="47.33593" lon="-2.50082">
        <ele>53</ele>
        <time>2019-09-15T09:11:10Z</time>
      </trkpt>
      <trkpt lat="47.33589" lon="-2.50079">
        <ele>53</ele>
        <time>2019-09-15T09:11:11Z</time>
      </trkpt>
      <trkpt lat="47.33582" lon="-2.50072">
        <ele>53</ele>
        <time>2019-09-15T09:11:13Z</time>
      </trkpt>
      <trkpt lat="47.33577" lon="-2.50068">
        <ele>53</ele>
        <time>2019-09-15T09:11:14Z</time>
      </trkpt>
      <trkpt lat="47.33574" lon="-2.50065">
        <ele>53</ele>
        <time>2019-09-15T09:11:15Z</time>
      </trkpt>
      <trkpt lat="47.3357" lon="-2.50062">
        <ele>53</ele>
        <time>2019-09-15T09:11:16Z</time>
      </trkpt>
      <trkpt lat="47.33567" lon="-2.50056">
        <ele>53</ele>
        <time>2019-09-15T09:11:18Z</time>
      </trkpt>
      <trkpt lat="47.33564" lon="-2.50051">
        <ele>53</ele>
        <time>2019-09-15T09:11:21Z</time>
      </trkpt>
      <trkpt lat="47.33558" lon="-2.50051">
        <ele>54</ele>
        <time>2019-09-15T09:11:28Z</time>
      </trkpt>
      <trkpt lat="47.33554" lon="-2.50058">
        <ele>54</ele>
        <time>2019-09-15T09:11:31Z</time>
      </trkpt>
      <trkpt lat="47.3355" lon="-2.50064">
        <ele>54</ele>
        <time>2019-09-15T09:11:33Z</time>
      </trkpt>
      <trkpt lat="47.33538" lon="-2.50068">
        <ele>52</ele>
        <time>2019-09-15T09:11:36Z</time>
      </trkpt>
      <trkpt lat="47.33533" lon="-2.50067">
        <ele>52</ele>
        <time>2019-09-15T09:11:37Z</time>
      </trkpt>
      <trkpt lat="47.33524" lon="-2.50065">
        <ele>53</ele>
        <time>2019-09-15T09:11:39Z</time>
      </trkpt>
      <trkpt lat="47.33519" lon="-2.50063">
        <ele>53</ele>
        <time>2019-09-15T09:11:40Z</time>
      </trkpt>
      <trkpt lat="47.33515" lon="-2.50061">
        <ele>52</ele>
        <time>2019-09-15T09:11:41Z</time>
      </trkpt>
      <trkpt lat="47.3351" lon="-2.50059">
        <ele>52</ele>
        <time>2019-09-15T09:11:42Z</time>
      </trkpt>
      <trkpt lat="47.33506" lon="-2.50056">
        <ele>52</ele>
        <time>2019-09-15T09:11:43Z</time>
      </trkpt>
      <trkpt lat="47.33492" lon="-2.5005">
        <ele>52</ele>
        <time>2019-09-15T09:11:46Z</time>
      </trkpt>
      <trkpt lat="47.33483" lon="-2.50046">
        <ele>53</ele>
        <time>2019-09-15T09:11:48Z</time>
      </trkpt>
      <trkpt lat="47.33479" lon="-2.50044">
        <ele>53</ele>
        <time>2019-09-15T09:11:49Z</time>
      </trkpt>
      <trkpt lat="47.33473" lon="-2.50042">
        <ele>53</ele>
        <time>2019-09-15T09:11:50Z</time>
      </trkpt>
      <trkpt lat="47.33464" lon="-2.50037">
        <ele>53</ele>
        <time>2019-09-15T09:11:52Z</time>
      </trkpt>
      <trkpt lat="47.33459" lon="-2.50034">
        <ele>53</ele>
        <time>2019-09-15T09:11:53Z</time>
      </trkpt>
      <trkpt lat="47.33454" lon="-2.50031">
        <ele>53</ele>
        <time>2019-09-15T09:11:54Z</time>
      </trkpt>
      <trkpt lat="47.33449" lon="-2.50029">
        <ele>54</ele>
        <time>2019-09-15T09:11:55Z</time>
      </trkpt>
      <trkpt lat="47.3344" lon="-2.50023">
        <ele>54</ele>
        <time>2019-09-15T09:11:57Z</time>
      </trkpt>
      <trkpt lat="47.33435" lon="-2.5002">
        <ele>53</ele>
        <time>2019-09-15T09:11:58Z</time>
      </trkpt>
      <trkpt lat="47.33429" lon="-2.50018">
        <ele>54</ele>
        <time>2019-09-15T09:11:59Z</time>
      </trkpt>
      <trkpt lat="47.33423" lon="-2.50015">
        <ele>54</ele>
        <time>2019-09-15T09:12:00Z</time>
      </trkpt>
      <trkpt lat="47.33418" lon="-2.50013">
        <ele>54</ele>
        <time>2019-09-15T09:12:01Z</time>
      </trkpt>
      <trkpt lat="47.33412" lon="-2.5001">
        <ele>54</ele>
        <time>2019-09-15T09:12:02Z</time>
      </trkpt>
      <trkpt lat="47.33406" lon="-2.50007">
        <ele>54</ele>
        <time>2019-09-15T09:12:03Z</time>
      </trkpt>
      <trkpt lat="47.334" lon="-2.50004">
        <ele>54</ele>
        <time>2019-09-15T09:12:04Z</time>
      </trkpt>
      <trkpt lat="47.33394" lon="-2.50002">
        <ele>53</ele>
        <time>2019-09-15T09:12:05Z</time>
      </trkpt>
      <trkpt lat="47.33389" lon="-2.5">
        <ele>54</ele>
        <time>2019-09-15T09:12:06Z</time>
      </trkpt>
      <trkpt lat="47.33383" lon="-2.49997">
        <ele>53</ele>
        <time>2019-09-15T09:12:07Z</time>
      </trkpt>
      <trkpt lat="47.33378" lon="-2.49993">
        <ele>53</ele>
        <time>2019-09-15T09:12:08Z</time>
      </trkpt>
      <trkpt lat="47.33374" lon="-2.49988">
        <ele>53</ele>
        <time>2019-09-15T09:12:09Z</time>
      </trkpt>
      <trkpt lat="47.3337" lon="-2.49984">
        <ele>53</ele>
        <time>2019-09-15T09:12:10Z</time>
      </trkpt>
      <trkpt lat="47.33365" lon="-2.49979">
        <ele>53</ele>
        <time>2019-09-15T09:12:11Z</time>
      </trkpt>
      <trkpt lat="47.33361" lon="-2.49973">
        <ele>53</ele>
        <time>2019-09-15T09:12:12Z</time>
      </trkpt>
      <trkpt lat="47.33356" lon="-2.49962">
        <ele>53</ele>
        <time>2019-09-15T09:12:14Z</time>
      </trkpt>
      <trkpt lat="47.33353" lon="-2.49957">
        <ele>53</ele>
        <time>2019-09-15T09:12:15Z</time>
      </trkpt>
      <trkpt lat="47.3334" lon="-2.49942">
        <ele>53</ele>
        <time>2019-09-15T09:12:18Z</time>
      </trkpt>
      <trkpt lat="47.33331" lon="-2.49933">
        <ele>54</ele>
        <time>2019-09-15T09:12:20Z</time>
      </trkpt>
      <trkpt lat="47.33328" lon="-2.49929">
        <ele>54</ele>
        <time>2019-09-15T09:12:21Z</time>
      </trkpt>
      <trkpt lat="47.33316" lon="-2.49916">
        <ele>54</ele>
        <time>2019-09-15T09:12:24Z</time>
      </trkpt>
      <trkpt lat="47.3331" lon="-2.49907">
        <ele>54</ele>
        <time>2019-09-15T09:12:26Z</time>
      </trkpt>
      <trkpt lat="47.33303" lon="-2.499">
        <ele>54</ele>
        <time>2019-09-15T09:12:28Z</time>
      </trkpt>
      <trkpt lat="47.33293" lon="-2.49891">
        <ele>54</ele>
        <time>2019-09-15T09:12:31Z</time>
      </trkpt>
      <trkpt lat="47.33291" lon="-2.49888">
        <ele>54</ele>
        <time>2019-09-15T09:12:32Z</time>
      </trkpt>
      <trkpt lat="47.33281" lon="-2.49879">
        <ele>55</ele>
        <time>2019-09-15T09:12:35Z</time>
      </trkpt>
      <trkpt lat="47.33278" lon="-2.49876">
        <ele>55</ele>
        <time>2019-09-15T09:12:36Z</time>
      </trkpt>
      <trkpt lat="47.33267" lon="-2.49867">
        <ele>55</ele>
        <time>2019-09-15T09:12:39Z</time>
      </trkpt>
      <trkpt lat="47.33262" lon="-2.49864">
        <ele>55</ele>
        <time>2019-09-15T09:12:40Z</time>
      </trkpt>
      <trkpt lat="47.33256" lon="-2.49859">
        <ele>55</ele>
        <time>2019-09-15T09:12:41Z</time>
      </trkpt>
      <trkpt lat="47.33252" lon="-2.49856">
        <ele>55</ele>
        <time>2019-09-15T09:12:42Z</time>
      </trkpt>
      <trkpt lat="47.33247" lon="-2.49852">
        <ele>55</ele>
        <time>2019-09-15T09:12:43Z</time>
      </trkpt>
      <trkpt lat="47.33243" lon="-2.49849">
        <ele>55</ele>
        <time>2019-09-15T09:12:44Z</time>
      </trkpt>
      <trkpt lat="47.33237" lon="-2.49845">
        <ele>55</ele>
        <time>2019-09-15T09:12:45Z</time>
      </trkpt>
      <trkpt lat="47.33231" lon="-2.4984">
        <ele>55</ele>
        <time>2019-09-15T09:12:46Z</time>
      </trkpt>
      <trkpt lat="47.33226" lon="-2.49836">
        <ele>55</ele>
        <time>2019-09-15T09:12:47Z</time>
      </trkpt>
      <trkpt lat="47.3322" lon="-2.49833">
        <ele>55</ele>
        <time>2019-09-15T09:12:48Z</time>
      </trkpt>
      <trkpt lat="47.33205" lon="-2.49821">
        <ele>56</ele>
        <time>2019-09-15T09:12:51Z</time>
      </trkpt>
      <trkpt lat="47.33197" lon="-2.49813">
        <ele>56</ele>
        <time>2019-09-15T09:12:53Z</time>
      </trkpt>
      <trkpt lat="47.33191" lon="-2.49808">
        <ele>56</ele>
        <time>2019-09-15T09:12:54Z</time>
      </trkpt>
      <trkpt lat="47.33187" lon="-2.49803">
        <ele>56</ele>
        <time>2019-09-15T09:12:55Z</time>
      </trkpt>
      <trkpt lat="47.33175" lon="-2.49793">
        <ele>56</ele>
        <time>2019-09-15T09:12:58Z</time>
      </trkpt>
      <trkpt lat="47.3317" lon="-2.49791">
        <ele>56</ele>
        <time>2019-09-15T09:12:59Z</time>
      </trkpt>
      <trkpt lat="47.33164" lon="-2.49792">
        <ele>56</ele>
        <time>2019-09-15T09:13:00Z</time>
      </trkpt>
      <trkpt lat="47.3315" lon="-2.4979">
        <ele>57</ele>
        <time>2019-09-15T09:13:03Z</time>
      </trkpt>
      <trkpt lat="47.33144" lon="-2.49788">
        <ele>57</ele>
        <time>2019-09-15T09:13:04Z</time>
      </trkpt>
      <trkpt lat="47.33138" lon="-2.49787">
        <ele>57</ele>
        <time>2019-09-15T09:13:05Z</time>
      </trkpt>
      <trkpt lat="47.33132" lon="-2.49785">
        <ele>57</ele>
        <time>2019-09-15T09:13:06Z</time>
      </trkpt>
      <trkpt lat="47.33127" lon="-2.49781">
        <ele>57</ele>
        <time>2019-09-15T09:13:07Z</time>
      </trkpt>
      <trkpt lat="47.33122" lon="-2.49777">
        <ele>57</ele>
        <time>2019-09-15T09:13:08Z</time>
      </trkpt>
      <trkpt lat="47.33116" lon="-2.49774">
        <ele>57</ele>
        <time>2019-09-15T09:13:09Z</time>
      </trkpt>
      <trkpt lat="47.3311" lon="-2.49769">
        <ele>56</ele>
        <time>2019-09-15T09:13:10Z</time>
      </trkpt>
      <trkpt lat="47.33105" lon="-2.49764">
        <ele>56</ele>
        <time>2019-09-15T09:13:11Z</time>
      </trkpt>
      <trkpt lat="47.331" lon="-2.49759">
        <ele>56</ele>
        <time>2019-09-15T09:13:12Z</time>
      </trkpt>
      <trkpt lat="47.33096" lon="-2.49754">
        <ele>55</ele>
        <time>2019-09-15T09:13:13Z</time>
      </trkpt>
      <trkpt lat="47.33091" lon="-2.49749">
        <ele>55</ele>
        <time>2019-09-15T09:13:14Z</time>
      </trkpt>
      <trkpt lat="47.33086" lon="-2.49745">
        <ele>55</ele>
        <time>2019-09-15T09:13:15Z</time>
      </trkpt>
      <trkpt lat="47.33082" lon="-2.4974">
        <ele>55</ele>
        <time>2019-09-15T09:13:16Z</time>
      </trkpt>
      <trkpt lat="47.33077" lon="-2.49736">
        <ele>55</ele>
        <time>2019-09-15T09:13:17Z</time>
      </trkpt>
      <trkpt lat="47.33064" lon="-2.49723">
        <ele>54</ele>
        <time>2019-09-15T09:13:20Z</time>
      </trkpt>
      <trkpt lat="47.3306" lon="-2.4972">
        <ele>54</ele>
        <time>2019-09-15T09:13:21Z</time>
      </trkpt>
      <trkpt lat="47.33055" lon="-2.49717">
        <ele>54</ele>
        <time>2019-09-15T09:13:22Z</time>
      </trkpt>
      <trkpt lat="47.3305" lon="-2.49715">
        <ele>54</ele>
        <time>2019-09-15T09:13:23Z</time>
      </trkpt>
      <trkpt lat="47.33046" lon="-2.49713">
        <ele>54</ele>
        <time>2019-09-15T09:13:24Z</time>
      </trkpt>
      <trkpt lat="47.33038" lon="-2.49707">
        <ele>54</ele>
        <time>2019-09-15T09:13:26Z</time>
      </trkpt>
      <trkpt lat="47.3303" lon="-2.497">
        <ele>53</ele>
        <time>2019-09-15T09:13:28Z</time>
      </trkpt>
      <trkpt lat="47.33022" lon="-2.49697">
        <ele>53</ele>
        <time>2019-09-15T09:13:30Z</time>
      </trkpt>
      <trkpt lat="47.33015" lon="-2.49702">
        <ele>54</ele>
        <time>2019-09-15T09:13:33Z</time>
      </trkpt>
      <trkpt lat="47.33013" lon="-2.4971">
        <ele>54</ele>
        <time>2019-09-15T09:13:35Z</time>
      </trkpt>
      <trkpt lat="47.33012" lon="-2.49719">
        <ele>54</ele>
        <time>2019-09-15T09:13:37Z</time>
      </trkpt>
      <trkpt lat="47.33011" lon="-2.49724">
        <ele>54</ele>
        <time>2019-09-15T09:13:38Z</time>
      </trkpt>
      <trkpt lat="47.3301" lon="-2.49733">
        <ele>54</ele>
        <time>2019-09-15T09:13:40Z</time>
      </trkpt>
      <trkpt lat="47.33006" lon="-2.49741">
        <ele>55</ele>
        <time>2019-09-15T09:13:42Z</time>
      </trkpt>
      <trkpt lat="47.33004" lon="-2.49745">
        <ele>55</ele>
        <time>2019-09-15T09:13:43Z</time>
      </trkpt>
      <trkpt lat="47.32997" lon="-2.49755">
        <ele>55</ele>
        <time>2019-09-15T09:13:46Z</time>
      </trkpt>
      <trkpt lat="47.32995" lon="-2.49759">
        <ele>55</ele>
        <time>2019-09-15T09:13:47Z</time>
      </trkpt>
      <trkpt lat="47.32991" lon="-2.49764">
        <ele>56</ele>
        <time>2019-09-15T09:13:49Z</time>
      </trkpt>
      <trkpt lat="47.32987" lon="-2.49767">
        <ele>56</ele>
        <time>2019-09-15T09:13:52Z</time>
      </trkpt>
      <trkpt lat="47.32987" lon="-2.49767">
        <ele>4</ele>
        <time>2019-09-15T09:13:58Z</time>
      </trkpt>
      <trkpt lat="47.32987" lon="-2.49767">
        <ele>4</ele>
        <time>2019-09-15T09:14:55Z</time>
      </trkpt>
      <trkpt lat="47.32972" lon="-2.49764">
        <ele>57</ele>
        <time>2019-09-15T09:14:55Z</time>
      </trkpt>
      <trkpt lat="47.32955" lon="-2.4975">
        <ele>52</ele>
        <time>2019-09-15T09:15:01Z</time>
      </trkpt>
      <trkpt lat="47.32952" lon="-2.49747">
        <ele>53</ele>
        <time>2019-09-15T09:15:02Z</time>
      </trkpt>
      <trkpt lat="47.32937" lon="-2.49744">
        <ele>53</ele>
        <time>2019-09-15T09:15:05Z</time>
      </trkpt>
      <trkpt lat="47.32933" lon="-2.49744">
        <ele>53</ele>
        <time>2019-09-15T09:15:06Z</time>
      </trkpt>
      <trkpt lat="47.32924" lon="-2.49743">
        <ele>53</ele>
        <time>2019-09-15T09:15:08Z</time>
      </trkpt>
      <trkpt lat="47.32914" lon="-2.49744">
        <ele>51</ele>
        <time>2019-09-15T09:15:10Z</time>
      </trkpt>
      <trkpt lat="47.32904" lon="-2.49746">
        <ele>52</ele>
        <time>2019-09-15T09:15:12Z</time>
      </trkpt>
      <trkpt lat="47.32895" lon="-2.49749">
        <ele>53</ele>
        <time>2019-09-15T09:15:14Z</time>
      </trkpt>
      <trkpt lat="47.32884" lon="-2.49754">
        <ele>55</ele>
        <time>2019-09-15T09:15:16Z</time>
      </trkpt>
      <trkpt lat="47.32874" lon="-2.49758">
        <ele>56</ele>
        <time>2019-09-15T09:15:18Z</time>
      </trkpt>
      <trkpt lat="47.32869" lon="-2.49761">
        <ele>57</ele>
        <time>2019-09-15T09:15:19Z</time>
      </trkpt>
      <trkpt lat="47.32853" lon="-2.49762">
        <ele>57</ele>
        <time>2019-09-15T09:15:22Z</time>
      </trkpt>
      <trkpt lat="47.32848" lon="-2.49761">
        <ele>57</ele>
        <time>2019-09-15T09:15:23Z</time>
      </trkpt>
      <trkpt lat="47.32839" lon="-2.49758">
        <ele>56</ele>
        <time>2019-09-15T09:15:25Z</time>
      </trkpt>
      <trkpt lat="47.32834" lon="-2.49757">
        <ele>56</ele>
        <time>2019-09-15T09:15:26Z</time>
      </trkpt>
      <trkpt lat="47.32828" lon="-2.49755">
        <ele>56</ele>
        <time>2019-09-15T09:15:27Z</time>
      </trkpt>
      <trkpt lat="47.32819" lon="-2.49754">
        <ele>56</ele>
        <time>2019-09-15T09:15:29Z</time>
      </trkpt>
      <trkpt lat="47.32813" lon="-2.49753">
        <ele>56</ele>
        <time>2019-09-15T09:15:30Z</time>
      </trkpt>
      <trkpt lat="47.32802" lon="-2.49751">
        <ele>56</ele>
        <time>2019-09-15T09:15:32Z</time>
      </trkpt>
      <trkpt lat="47.32797" lon="-2.49751">
        <ele>56</ele>
        <time>2019-09-15T09:15:33Z</time>
      </trkpt>
      <trkpt lat="47.32792" lon="-2.49751">
        <ele>55</ele>
        <time>2019-09-15T09:15:34Z</time>
      </trkpt>
      <trkpt lat="47.32787" lon="-2.49751">
        <ele>55</ele>
        <time>2019-09-15T09:15:35Z</time>
      </trkpt>
      <trkpt lat="47.32782" lon="-2.49752">
        <ele>55</ele>
        <time>2019-09-15T09:15:36Z</time>
      </trkpt>
      <trkpt lat="47.32776" lon="-2.49751">
        <ele>55</ele>
        <time>2019-09-15T09:15:37Z</time>
      </trkpt>
      <trkpt lat="47.3275" lon="-2.49744">
        <ele>55</ele>
        <time>2019-09-15T09:15:41Z</time>
      </trkpt>
      <trkpt lat="47.32745" lon="-2.49742">
        <ele>55</ele>
        <time>2019-09-15T09:15:43Z</time>
      </trkpt>
      <trkpt lat="47.3274" lon="-2.49742">
        <ele>55</ele>
        <time>2019-09-15T09:15:44Z</time>
      </trkpt>
      <trkpt lat="47.32724" lon="-2.49738">
        <ele>55</ele>
        <time>2019-09-15T09:15:47Z</time>
      </trkpt>
      <trkpt lat="47.32713" lon="-2.49733">
        <ele>54</ele>
        <time>2019-09-15T09:15:49Z</time>
      </trkpt>
      <trkpt lat="47.32707" lon="-2.4973">
        <ele>54</ele>
        <time>2019-09-15T09:15:50Z</time>
      </trkpt>
      <trkpt lat="47.32686" lon="-2.49716">
        <ele>53</ele>
        <time>2019-09-15T09:15:53Z</time>
      </trkpt>
      <trkpt lat="47.32678" lon="-2.49708">
        <ele>54</ele>
        <time>2019-09-15T09:15:56Z</time>
      </trkpt>
      <trkpt lat="47.32665" lon="-2.49699">
        <ele>54</ele>
        <time>2019-09-15T09:15:59Z</time>
      </trkpt>
      <trkpt lat="47.32659" lon="-2.49696">
        <ele>54</ele>
        <time>2019-09-15T09:16:00Z</time>
      </trkpt>
      <trkpt lat="47.32653" lon="-2.49693">
        <ele>53</ele>
        <time>2019-09-15T09:16:01Z</time>
      </trkpt>
      <trkpt lat="47.32644" lon="-2.49687">
        <ele>53</ele>
        <time>2019-09-15T09:16:03Z</time>
      </trkpt>
      <trkpt lat="47.32639" lon="-2.49684">
        <ele>52</ele>
        <time>2019-09-15T09:16:04Z</time>
      </trkpt>
      <trkpt lat="47.32633" lon="-2.4968">
        <ele>52</ele>
        <time>2019-09-15T09:16:05Z</time>
      </trkpt>
      <trkpt lat="47.32627" lon="-2.49677">
        <ele>52</ele>
        <time>2019-09-15T09:16:06Z</time>
      </trkpt>
      <trkpt lat="47.32618" lon="-2.49672">
        <ele>52</ele>
        <time>2019-09-15T09:16:08Z</time>
      </trkpt>
      <trkpt lat="47.32605" lon="-2.4967">
        <ele>53</ele>
        <time>2019-09-15T09:16:11Z</time>
      </trkpt>
      <trkpt lat="47.32596" lon="-2.49671">
        <ele>54</ele>
        <time>2019-09-15T09:16:13Z</time>
      </trkpt>
      <trkpt lat="47.32576" lon="-2.49676">
        <ele>55</ele>
        <time>2019-09-15T09:16:17Z</time>
      </trkpt>
      <trkpt lat="47.3257" lon="-2.49682">
        <ele>56</ele>
        <time>2019-09-15T09:16:19Z</time>
      </trkpt>
      <trkpt lat="47.32563" lon="-2.4969">
        <ele>57</ele>
        <time>2019-09-15T09:16:21Z</time>
      </trkpt>
      <trkpt lat="47.32559" lon="-2.49695">
        <ele>58</ele>
        <time>2019-09-15T09:16:22Z</time>
      </trkpt>
      <trkpt lat="47.32555" lon="-2.49701">
        <ele>58</ele>
        <time>2019-09-15T09:16:23Z</time>
      </trkpt>
      <trkpt lat="47.32549" lon="-2.49717">
        <ele>59</ele>
        <time>2019-09-15T09:16:25Z</time>
      </trkpt>
      <trkpt lat="47.32546" lon="-2.49725">
        <ele>59</ele>
        <time>2019-09-15T09:16:26Z</time>
      </trkpt>
      <trkpt lat="47.32544" lon="-2.49733">
        <ele>59</ele>
        <time>2019-09-15T09:16:27Z</time>
      </trkpt>
      <trkpt lat="47.3254" lon="-2.49747">
        <ele>61</ele>
        <time>2019-09-15T09:16:29Z</time>
      </trkpt>
      <trkpt lat="47.32539" lon="-2.49755">
        <ele>62</ele>
        <time>2019-09-15T09:16:30Z</time>
      </trkpt>
      <trkpt lat="47.32537" lon="-2.49764">
        <ele>63</ele>
        <time>2019-09-15T09:16:31Z</time>
      </trkpt>
      <trkpt lat="47.32536" lon="-2.4978">
        <ele>63</ele>
        <time>2019-09-15T09:16:33Z</time>
      </trkpt>
      <trkpt lat="47.32535" lon="-2.49789">
        <ele>64</ele>
        <time>2019-09-15T09:16:34Z</time>
      </trkpt>
      <trkpt lat="47.32534" lon="-2.49797">
        <ele>65</ele>
        <time>2019-09-15T09:16:35Z</time>
      </trkpt>
      <trkpt lat="47.32534" lon="-2.49805">
        <ele>65</ele>
        <time>2019-09-15T09:16:36Z</time>
      </trkpt>
      <trkpt lat="47.32533" lon="-2.49813">
        <ele>66</ele>
        <time>2019-09-15T09:16:37Z</time>
      </trkpt>
      <trkpt lat="47.32534" lon="-2.4982">
        <ele>66</ele>
        <time>2019-09-15T09:16:38Z</time>
      </trkpt>
      <trkpt lat="47.32533" lon="-2.49828">
        <ele>66</ele>
        <time>2019-09-15T09:16:39Z</time>
      </trkpt>
      <trkpt lat="47.32532" lon="-2.49843">
        <ele>66</ele>
        <time>2019-09-15T09:16:41Z</time>
      </trkpt>
      <trkpt lat="47.32529" lon="-2.49851">
        <ele>66</ele>
        <time>2019-09-15T09:16:42Z</time>
      </trkpt>
      <trkpt lat="47.32517" lon="-2.49866">
        <ele>66</ele>
        <time>2019-09-15T09:16:45Z</time>
      </trkpt>
      <trkpt lat="47.32512" lon="-2.49871">
        <ele>66</ele>
        <time>2019-09-15T09:16:46Z</time>
      </trkpt>
      <trkpt lat="47.32509" lon="-2.49875">
        <ele>65</ele>
        <time>2019-09-15T09:16:47Z</time>
      </trkpt>
      <trkpt lat="47.32505" lon="-2.49879">
        <ele>65</ele>
        <time>2019-09-15T09:16:48Z</time>
      </trkpt>
      <trkpt lat="47.32501" lon="-2.49884">
        <ele>65</ele>
        <time>2019-09-15T09:16:49Z</time>
      </trkpt>
      <trkpt lat="47.32496" lon="-2.49888">
        <ele>65</ele>
        <time>2019-09-15T09:16:50Z</time>
      </trkpt>
      <trkpt lat="47.32487" lon="-2.4989">
        <ele>65</ele>
        <time>2019-09-15T09:16:52Z</time>
      </trkpt>
      <trkpt lat="47.32482" lon="-2.49891">
        <ele>65</ele>
        <time>2019-09-15T09:16:53Z</time>
      </trkpt>
      <trkpt lat="47.32478" lon="-2.49892">
        <ele>64</ele>
        <time>2019-09-15T09:16:54Z</time>
      </trkpt>
      <trkpt lat="47.32466" lon="-2.49901">
        <ele>65</ele>
        <time>2019-09-15T09:16:57Z</time>
      </trkpt>
      <trkpt lat="47.32461" lon="-2.49906">
        <ele>64</ele>
        <time>2019-09-15T09:16:58Z</time>
      </trkpt>
      <trkpt lat="47.32452" lon="-2.49915">
        <ele>65</ele>
        <time>2019-09-15T09:17:00Z</time>
      </trkpt>
      <trkpt lat="47.32448" lon="-2.4992">
        <ele>64</ele>
        <time>2019-09-15T09:17:01Z</time>
      </trkpt>
      <trkpt lat="47.32444" lon="-2.49925">
        <ele>64</ele>
        <time>2019-09-15T09:17:02Z</time>
      </trkpt>
      <trkpt lat="47.32435" lon="-2.49934">
        <ele>64</ele>
        <time>2019-09-15T09:17:04Z</time>
      </trkpt>
      <trkpt lat="47.32431" lon="-2.49939">
        <ele>65</ele>
        <time>2019-09-15T09:17:05Z</time>
      </trkpt>
      <trkpt lat="47.32417" lon="-2.49948">
        <ele>65</ele>
        <time>2019-09-15T09:17:08Z</time>
      </trkpt>
      <trkpt lat="47.32412" lon="-2.49951">
        <ele>66</ele>
        <time>2019-09-15T09:17:09Z</time>
      </trkpt>
      <trkpt lat="47.32407" lon="-2.49953">
        <ele>65</ele>
        <time>2019-09-15T09:17:10Z</time>
      </trkpt>
      <trkpt lat="47.324" lon="-2.49954">
        <ele>64</ele>
        <time>2019-09-15T09:17:11Z</time>
      </trkpt>
      <trkpt lat="47.32395" lon="-2.49953">
        <ele>64</ele>
        <time>2019-09-15T09:17:12Z</time>
      </trkpt>
      <trkpt lat="47.32385" lon="-2.49951">
        <ele>62</ele>
        <time>2019-09-15T09:17:14Z</time>
      </trkpt>
      <trkpt lat="47.3238" lon="-2.49949">
        <ele>62</ele>
        <time>2019-09-15T09:17:15Z</time>
      </trkpt>
      <trkpt lat="47.32375" lon="-2.49947">
        <ele>61</ele>
        <time>2019-09-15T09:17:16Z</time>
      </trkpt>
      <trkpt lat="47.3237" lon="-2.49946">
        <ele>61</ele>
        <time>2019-09-15T09:17:17Z</time>
      </trkpt>
      <trkpt lat="47.32365" lon="-2.49946">
        <ele>60</ele>
        <time>2019-09-15T09:17:18Z</time>
      </trkpt>
      <trkpt lat="47.32359" lon="-2.49946">
        <ele>60</ele>
        <time>2019-09-15T09:17:19Z</time>
      </trkpt>
      <trkpt lat="47.32346" lon="-2.49948">
        <ele>60</ele>
        <time>2019-09-15T09:17:22Z</time>
      </trkpt>
      <trkpt lat="47.32341" lon="-2.49949">
        <ele>59</ele>
        <time>2019-09-15T09:17:23Z</time>
      </trkpt>
      <trkpt lat="47.32333" lon="-2.49946">
        <ele>59</ele>
        <time>2019-09-15T09:17:25Z</time>
      </trkpt>
      <trkpt lat="47.32319" lon="-2.49936">
        <ele>59</ele>
        <time>2019-09-15T09:17:28Z</time>
      </trkpt>
      <trkpt lat="47.32313" lon="-2.49928">
        <ele>58</ele>
        <time>2019-09-15T09:17:30Z</time>
      </trkpt>
      <trkpt lat="47.32308" lon="-2.49923">
        <ele>58</ele>
        <time>2019-09-15T09:17:31Z</time>
      </trkpt>
      <trkpt lat="47.32306" lon="-2.49917">
        <ele>58</ele>
        <time>2019-09-15T09:17:32Z</time>
      </trkpt>
      <trkpt lat="47.32303" lon="-2.49905">
        <ele>57</ele>
        <time>2019-09-15T09:17:34Z</time>
      </trkpt>
      <trkpt lat="47.32301" lon="-2.49894">
        <ele>57</ele>
        <time>2019-09-15T09:17:36Z</time>
      </trkpt>
      <trkpt lat="47.32299" lon="-2.49873">
        <ele>58</ele>
        <time>2019-09-15T09:17:39Z</time>
      </trkpt>
      <trkpt lat="47.32298" lon="-2.49865">
        <ele>58</ele>
        <time>2019-09-15T09:17:40Z</time>
      </trkpt>
      <trkpt lat="47.32297" lon="-2.49857">
        <ele>58</ele>
        <time>2019-09-15T09:17:41Z</time>
      </trkpt>
      <trkpt lat="47.32296" lon="-2.49849">
        <ele>57</ele>
        <time>2019-09-15T09:17:42Z</time>
      </trkpt>
      <trkpt lat="47.32295" lon="-2.49842">
        <ele>57</ele>
        <time>2019-09-15T09:17:43Z</time>
      </trkpt>
      <trkpt lat="47.32294" lon="-2.49828">
        <ele>58</ele>
        <time>2019-09-15T09:17:45Z</time>
      </trkpt>
      <trkpt lat="47.32294" lon="-2.49821">
        <ele>58</ele>
        <time>2019-09-15T09:17:46Z</time>
      </trkpt>
      <trkpt lat="47.32293" lon="-2.49813">
        <ele>58</ele>
        <time>2019-09-15T09:17:47Z</time>
      </trkpt>
      <trkpt lat="47.32293" lon="-2.49806">
        <ele>58</ele>
        <time>2019-09-15T09:17:48Z</time>
      </trkpt>
      <trkpt lat="47.32293" lon="-2.49799">
        <ele>57</ele>
        <time>2019-09-15T09:17:49Z</time>
      </trkpt>
      <trkpt lat="47.32293" lon="-2.49791">
        <ele>58</ele>
        <time>2019-09-15T09:17:50Z</time>
      </trkpt>
      <trkpt lat="47.32293" lon="-2.49784">
        <ele>58</ele>
        <time>2019-09-15T09:17:51Z</time>
      </trkpt>
      <trkpt lat="47.32292" lon="-2.49776">
        <ele>58</ele>
        <time>2019-09-15T09:17:52Z</time>
      </trkpt>
      <trkpt lat="47.32291" lon="-2.49768">
        <ele>57</ele>
        <time>2019-09-15T09:17:53Z</time>
      </trkpt>
      <trkpt lat="47.32291" lon="-2.4976">
        <ele>57</ele>
        <time>2019-09-15T09:17:54Z</time>
      </trkpt>
      <trkpt lat="47.3229" lon="-2.49753">
        <ele>57</ele>
        <time>2019-09-15T09:17:55Z</time>
      </trkpt>
      <trkpt lat="47.32291" lon="-2.49744">
        <ele>57</ele>
        <time>2019-09-15T09:17:56Z</time>
      </trkpt>
      <trkpt lat="47.3229" lon="-2.49736">
        <ele>56</ele>
        <time>2019-09-15T09:17:57Z</time>
      </trkpt>
      <trkpt lat="47.32288" lon="-2.49722">
        <ele>57</ele>
        <time>2019-09-15T09:17:59Z</time>
      </trkpt>
      <trkpt lat="47.32286" lon="-2.4971">
        <ele>57</ele>
        <time>2019-09-15T09:18:01Z</time>
      </trkpt>
      <trkpt lat="47.32286" lon="-2.49704">
        <ele>58</ele>
        <time>2019-09-15T09:18:02Z</time>
      </trkpt>
      <trkpt lat="47.32285" lon="-2.49698">
        <ele>57</ele>
        <time>2019-09-15T09:18:03Z</time>
      </trkpt>
      <trkpt lat="47.32284" lon="-2.4969">
        <ele>57</ele>
        <time>2019-09-15T09:18:04Z</time>
      </trkpt>
      <trkpt lat="47.32281" lon="-2.49675">
        <ele>57</ele>
        <time>2019-09-15T09:18:06Z</time>
      </trkpt>
      <trkpt lat="47.32277" lon="-2.49662">
        <ele>57</ele>
        <time>2019-09-15T09:18:08Z</time>
      </trkpt>
      <trkpt lat="47.32276" lon="-2.49654">
        <ele>58</ele>
        <time>2019-09-15T09:18:09Z</time>
      </trkpt>
      <trkpt lat="47.32275" lon="-2.49639">
        <ele>58</ele>
        <time>2019-09-15T09:18:11Z</time>
      </trkpt>
      <trkpt lat="47.32275" lon="-2.49632">
        <ele>58</ele>
        <time>2019-09-15T09:18:12Z</time>
      </trkpt>
      <trkpt lat="47.32275" lon="-2.49625">
        <ele>59</ele>
        <time>2019-09-15T09:18:13Z</time>
      </trkpt>
      <trkpt lat="47.32273" lon="-2.49601">
        <ele>60</ele>
        <time>2019-09-15T09:18:16Z</time>
      </trkpt>
      <trkpt lat="47.32273" lon="-2.49593">
        <ele>60</ele>
        <time>2019-09-15T09:18:17Z</time>
      </trkpt>
      <trkpt lat="47.32272" lon="-2.49585">
        <ele>61</ele>
        <time>2019-09-15T09:18:18Z</time>
      </trkpt>
      <trkpt lat="47.32272" lon="-2.49577">
        <ele>61</ele>
        <time>2019-09-15T09:18:19Z</time>
      </trkpt>
      <trkpt lat="47.32273" lon="-2.49564">
        <ele>61</ele>
        <time>2019-09-15T09:18:21Z</time>
      </trkpt>
      <trkpt lat="47.32273" lon="-2.49553">
        <ele>61</ele>
        <time>2019-09-15T09:18:23Z</time>
      </trkpt>
      <trkpt lat="47.32273" lon="-2.49546">
        <ele>62</ele>
        <time>2019-09-15T09:18:24Z</time>
      </trkpt>
      <trkpt lat="47.32273" lon="-2.49539">
        <ele>62</ele>
        <time>2019-09-15T09:18:25Z</time>
      </trkpt>
      <trkpt lat="47.32273" lon="-2.49533">
        <ele>62</ele>
        <time>2019-09-15T09:18:26Z</time>
      </trkpt>
      <trkpt lat="47.32273" lon="-2.49525">
        <ele>62</ele>
        <time>2019-09-15T09:18:27Z</time>
      </trkpt>
      <trkpt lat="47.32273" lon="-2.49517">
        <ele>61</ele>
        <time>2019-09-15T09:18:28Z</time>
      </trkpt>
      <trkpt lat="47.32272" lon="-2.49508">
        <ele>61</ele>
        <time>2019-09-15T09:18:29Z</time>
      </trkpt>
      <trkpt lat="47.3227" lon="-2.495">
        <ele>61</ele>
        <time>2019-09-15T09:18:30Z</time>
      </trkpt>
      <trkpt lat="47.32267" lon="-2.49492">
        <ele>61</ele>
        <time>2019-09-15T09:18:31Z</time>
      </trkpt>
      <trkpt lat="47.32261" lon="-2.49479">
        <ele>61</ele>
        <time>2019-09-15T09:18:33Z</time>
      </trkpt>
      <trkpt lat="47.32256" lon="-2.49473">
        <ele>61</ele>
        <time>2019-09-15T09:18:34Z</time>
      </trkpt>
      <trkpt lat="47.32251" lon="-2.49468">
        <ele>60</ele>
        <time>2019-09-15T09:18:35Z</time>
      </trkpt>
      <trkpt lat="47.32246" lon="-2.49463">
        <ele>60</ele>
        <time>2019-09-15T09:18:36Z</time>
      </trkpt>
      <trkpt lat="47.32242" lon="-2.49458">
        <ele>59</ele>
        <time>2019-09-15T09:18:37Z</time>
      </trkpt>
      <trkpt lat="47.32239" lon="-2.49452">
        <ele>58</ele>
        <time>2019-09-15T09:18:38Z</time>
      </trkpt>
      <trkpt lat="47.32235" lon="-2.49445">
        <ele>58</ele>
        <time>2019-09-15T09:18:39Z</time>
      </trkpt>
      <trkpt lat="47.32231" lon="-2.49439">
        <ele>58</ele>
        <time>2019-09-15T09:18:40Z</time>
      </trkpt>
      <trkpt lat="47.32228" lon="-2.49433">
        <ele>57</ele>
        <time>2019-09-15T09:18:41Z</time>
      </trkpt>
      <trkpt lat="47.32224" lon="-2.49429">
        <ele>57</ele>
        <time>2019-09-15T09:18:42Z</time>
      </trkpt>
      <trkpt lat="47.32217" lon="-2.4942">
        <ele>57</ele>
        <time>2019-09-15T09:18:44Z</time>
      </trkpt>
      <trkpt lat="47.3221" lon="-2.49411">
        <ele>57</ele>
        <time>2019-09-15T09:18:46Z</time>
      </trkpt>
      <trkpt lat="47.32206" lon="-2.49405">
        <ele>57</ele>
        <time>2019-09-15T09:18:47Z</time>
      </trkpt>
      <trkpt lat="47.32203" lon="-2.494">
        <ele>58</ele>
        <time>2019-09-15T09:18:48Z</time>
      </trkpt>
      <trkpt lat="47.32197" lon="-2.49389">
        <ele>57</ele>
        <time>2019-09-15T09:18:50Z</time>
      </trkpt>
      <trkpt lat="47.32194" lon="-2.49384">
        <ele>57</ele>
        <time>2019-09-15T09:18:51Z</time>
      </trkpt>
      <trkpt lat="47.32192" lon="-2.49378">
        <ele>57</ele>
        <time>2019-09-15T09:18:52Z</time>
      </trkpt>
      <trkpt lat="47.32185" lon="-2.49357">
        <ele>58</ele>
        <time>2019-09-15T09:18:56Z</time>
      </trkpt>
      <trkpt lat="47.32183" lon="-2.49351">
        <ele>58</ele>
        <time>2019-09-15T09:18:57Z</time>
      </trkpt>
      <trkpt lat="47.32181" lon="-2.49344">
        <ele>58</ele>
        <time>2019-09-15T09:18:58Z</time>
      </trkpt>
      <trkpt lat="47.32178" lon="-2.49332">
        <ele>58</ele>
        <time>2019-09-15T09:19:00Z</time>
      </trkpt>
      <trkpt lat="47.32174" lon="-2.49321">
        <ele>59</ele>
        <time>2019-09-15T09:19:02Z</time>
      </trkpt>
      <trkpt lat="47.32173" lon="-2.49315">
        <ele>60</ele>
        <time>2019-09-15T09:19:03Z</time>
      </trkpt>
      <trkpt lat="47.3217" lon="-2.49309">
        <ele>60</ele>
        <time>2019-09-15T09:19:04Z</time>
      </trkpt>
      <trkpt lat="47.32168" lon="-2.49303">
        <ele>61</ele>
        <time>2019-09-15T09:19:05Z</time>
      </trkpt>
      <trkpt lat="47.32167" lon="-2.49297">
        <ele>62</ele>
        <time>2019-09-15T09:19:06Z</time>
      </trkpt>
      <trkpt lat="47.32162" lon="-2.4928">
        <ele>63</ele>
        <time>2019-09-15T09:19:09Z</time>
      </trkpt>
      <trkpt lat="47.32159" lon="-2.49262">
        <ele>63</ele>
        <time>2019-09-15T09:19:12Z</time>
      </trkpt>
      <trkpt lat="47.32158" lon="-2.49254">
        <ele>62</ele>
        <time>2019-09-15T09:19:13Z</time>
      </trkpt>
      <trkpt lat="47.32157" lon="-2.49244">
        <ele>61</ele>
        <time>2019-09-15T09:19:14Z</time>
      </trkpt>
      <trkpt lat="47.32156" lon="-2.49236">
        <ele>61</ele>
        <time>2019-09-15T09:19:15Z</time>
      </trkpt>
      <trkpt lat="47.32156" lon="-2.49226">
        <ele>60</ele>
        <time>2019-09-15T09:19:16Z</time>
      </trkpt>
      <trkpt lat="47.32156" lon="-2.49217">
        <ele>59</ele>
        <time>2019-09-15T09:19:17Z</time>
      </trkpt>
      <trkpt lat="47.32156" lon="-2.49208">
        <ele>58</ele>
        <time>2019-09-15T09:19:18Z</time>
      </trkpt>
      <trkpt lat="47.32156" lon="-2.49199">
        <ele>57</ele>
        <time>2019-09-15T09:19:19Z</time>
      </trkpt>
      <trkpt lat="47.32156" lon="-2.49191">
        <ele>56</ele>
        <time>2019-09-15T09:19:20Z</time>
      </trkpt>
      <trkpt lat="47.32156" lon="-2.49182">
        <ele>55</ele>
        <time>2019-09-15T09:19:21Z</time>
      </trkpt>
      <trkpt lat="47.32156" lon="-2.49174">
        <ele>55</ele>
        <time>2019-09-15T09:19:22Z</time>
      </trkpt>
      <trkpt lat="47.32158" lon="-2.49161">
        <ele>54</ele>
        <time>2019-09-15T09:19:24Z</time>
      </trkpt>
      <trkpt lat="47.32158" lon="-2.49149">
        <ele>54</ele>
        <time>2019-09-15T09:19:27Z</time>
      </trkpt>
      <trkpt lat="47.32158" lon="-2.49145">
        <ele>54</ele>
        <time>2019-09-15T09:19:28Z</time>
      </trkpt>
      <trkpt lat="47.3216" lon="-2.49135">
        <ele>54</ele>
        <time>2019-09-15T09:19:30Z</time>
      </trkpt>
      <trkpt lat="47.3216" lon="-2.49129">
        <ele>53</ele>
        <time>2019-09-15T09:19:31Z</time>
      </trkpt>
      <trkpt lat="47.32161" lon="-2.49116">
        <ele>53</ele>
        <time>2019-09-15T09:19:33Z</time>
      </trkpt>
      <trkpt lat="47.32162" lon="-2.49109">
        <ele>53</ele>
        <time>2019-09-15T09:19:34Z</time>
      </trkpt>
      <trkpt lat="47.32162" lon="-2.49102">
        <ele>52</ele>
        <time>2019-09-15T09:19:35Z</time>
      </trkpt>
      <trkpt lat="47.32163" lon="-2.49096">
        <ele>52</ele>
        <time>2019-09-15T09:19:36Z</time>
      </trkpt>
      <trkpt lat="47.32164" lon="-2.49089">
        <ele>52</ele>
        <time>2019-09-15T09:19:37Z</time>
      </trkpt>
      <trkpt lat="47.32165" lon="-2.49083">
        <ele>52</ele>
        <time>2019-09-15T09:19:38Z</time>
      </trkpt>
      <trkpt lat="47.32165" lon="-2.49077">
        <ele>52</ele>
        <time>2019-09-15T09:19:39Z</time>
      </trkpt>
      <trkpt lat="47.32165" lon="-2.49071">
        <ele>52</ele>
        <time>2019-09-15T09:19:40Z</time>
      </trkpt>
      <trkpt lat="47.32166" lon="-2.49065">
        <ele>52</ele>
        <time>2019-09-15T09:19:41Z</time>
      </trkpt>
      <trkpt lat="47.32164" lon="-2.49054">
        <ele>52</ele>
        <time>2019-09-15T09:19:43Z</time>
      </trkpt>
      <trkpt lat="47.32157" lon="-2.49049">
        <ele>51</ele>
        <time>2019-09-15T09:19:45Z</time>
      </trkpt>
      <trkpt lat="47.32149" lon="-2.49049">
        <ele>51</ele>
        <time>2019-09-15T09:19:47Z</time>
      </trkpt>
      <trkpt lat="47.32146" lon="-2.49048">
        <ele>51</ele>
        <time>2019-09-15T09:19:48Z</time>
      </trkpt>
      <trkpt lat="47.32138" lon="-2.49039">
        <ele>51</ele>
        <time>2019-09-15T09:19:51Z</time>
      </trkpt>
      <trkpt lat="47.32137" lon="-2.49028">
        <ele>51</ele>
        <time>2019-09-15T09:19:53Z</time>
      </trkpt>
      <trkpt lat="47.32138" lon="-2.49021">
        <ele>51</ele>
        <time>2019-09-15T09:19:54Z</time>
      </trkpt>
      <trkpt lat="47.32138" lon="-2.49015">
        <ele>51</ele>
        <time>2019-09-15T09:19:55Z</time>
      </trkpt>
      <trkpt lat="47.32138" lon="-2.49008">
        <ele>50</ele>
        <time>2019-09-15T09:19:56Z</time>
      </trkpt>
      <trkpt lat="47.32137" lon="-2.49">
        <ele>50</ele>
        <time>2019-09-15T09:19:57Z</time>
      </trkpt>
      <trkpt lat="47.32137" lon="-2.48992">
        <ele>50</ele>
        <time>2019-09-15T09:19:58Z</time>
      </trkpt>
      <trkpt lat="47.32137" lon="-2.48984">
        <ele>50</ele>
        <time>2019-09-15T09:19:59Z</time>
      </trkpt>
      <trkpt lat="47.32136" lon="-2.48977">
        <ele>50</ele>
        <time>2019-09-15T09:20:00Z</time>
      </trkpt>
      <trkpt lat="47.32136" lon="-2.48969">
        <ele>50</ele>
        <time>2019-09-15T09:20:01Z</time>
      </trkpt>
      <trkpt lat="47.32136" lon="-2.48961">
        <ele>49</ele>
        <time>2019-09-15T09:20:02Z</time>
      </trkpt>
      <trkpt lat="47.32136" lon="-2.48953">
        <ele>50</ele>
        <time>2019-09-15T09:20:03Z</time>
      </trkpt>
      <trkpt lat="47.32137" lon="-2.48945">
        <ele>50</ele>
        <time>2019-09-15T09:20:04Z</time>
      </trkpt>
      <trkpt lat="47.32138" lon="-2.48937">
        <ele>50</ele>
        <time>2019-09-15T09:20:05Z</time>
      </trkpt>
      <trkpt lat="47.3214" lon="-2.4893">
        <ele>50</ele>
        <time>2019-09-15T09:20:06Z</time>
      </trkpt>
      <trkpt lat="47.32141" lon="-2.48923">
        <ele>50</ele>
        <time>2019-09-15T09:20:07Z</time>
      </trkpt>
      <trkpt lat="47.32146" lon="-2.4891">
        <ele>50</ele>
        <time>2019-09-15T09:20:09Z</time>
      </trkpt>
      <trkpt lat="47.32148" lon="-2.48903">
        <ele>50</ele>
        <time>2019-09-15T09:20:10Z</time>
      </trkpt>
      <trkpt lat="47.32151" lon="-2.48897">
        <ele>50</ele>
        <time>2019-09-15T09:20:11Z</time>
      </trkpt>
      <trkpt lat="47.32154" lon="-2.4889">
        <ele>50</ele>
        <time>2019-09-15T09:20:12Z</time>
      </trkpt>
      <trkpt lat="47.32157" lon="-2.48884">
        <ele>50</ele>
        <time>2019-09-15T09:20:13Z</time>
      </trkpt>
      <trkpt lat="47.32161" lon="-2.48878">
        <ele>50</ele>
        <time>2019-09-15T09:20:14Z</time>
      </trkpt>
      <trkpt lat="47.32167" lon="-2.48866">
        <ele>50</ele>
        <time>2019-09-15T09:20:16Z</time>
      </trkpt>
      <trkpt lat="47.3217" lon="-2.48859">
        <ele>50</ele>
        <time>2019-09-15T09:20:17Z</time>
      </trkpt>
      <trkpt lat="47.32174" lon="-2.48854">
        <ele>50</ele>
        <time>2019-09-15T09:20:18Z</time>
      </trkpt>
      <trkpt lat="47.32176" lon="-2.48848">
        <ele>50</ele>
        <time>2019-09-15T09:20:19Z</time>
      </trkpt>
      <trkpt lat="47.3218" lon="-2.48843">
        <ele>50</ele>
        <time>2019-09-15T09:20:20Z</time>
      </trkpt>
      <trkpt lat="47.32183" lon="-2.48837">
        <ele>50</ele>
        <time>2019-09-15T09:20:21Z</time>
      </trkpt>
      <trkpt lat="47.32187" lon="-2.48832">
        <ele>50</ele>
        <time>2019-09-15T09:20:22Z</time>
      </trkpt>
      <trkpt lat="47.3219" lon="-2.48826">
        <ele>50</ele>
        <time>2019-09-15T09:20:23Z</time>
      </trkpt>
      <trkpt lat="47.32193" lon="-2.48821">
        <ele>50</ele>
        <time>2019-09-15T09:20:24Z</time>
      </trkpt>
      <trkpt lat="47.32196" lon="-2.48815">
        <ele>50</ele>
        <time>2019-09-15T09:20:25Z</time>
      </trkpt>
      <trkpt lat="47.322" lon="-2.4881">
        <ele>50</ele>
        <time>2019-09-15T09:20:26Z</time>
      </trkpt>
      <trkpt lat="47.32204" lon="-2.48803">
        <ele>50</ele>
        <time>2019-09-15T09:20:28Z</time>
      </trkpt>
      <trkpt lat="47.32206" lon="-2.488">
        <ele>50</ele>
        <time>2019-09-15T09:20:30Z</time>
      </trkpt>
      <trkpt lat="47.3221" lon="-2.48793">
        <ele>51</ele>
        <time>2019-09-15T09:20:34Z</time>
      </trkpt>
      <trkpt lat="47.32213" lon="-2.48787">
        <ele>51</ele>
        <time>2019-09-15T09:20:37Z</time>
      </trkpt>
      <trkpt lat="47.32214" lon="-2.48784">
        <ele>50</ele>
        <time>2019-09-15T09:20:39Z</time>
      </trkpt>
      <trkpt lat="47.32218" lon="-2.48776">
        <ele>51</ele>
        <time>2019-09-15T09:20:42Z</time>
      </trkpt>
      <trkpt lat="47.32221" lon="-2.48772">
        <ele>50</ele>
        <time>2019-09-15T09:20:43Z</time>
      </trkpt>
      <trkpt lat="47.32224" lon="-2.48763">
        <ele>50</ele>
        <time>2019-09-15T09:20:45Z</time>
      </trkpt>
      <trkpt lat="47.32226" lon="-2.48757">
        <ele>50</ele>
        <time>2019-09-15T09:20:46Z</time>
      </trkpt>
      <trkpt lat="47.32228" lon="-2.4875">
        <ele>50</ele>
        <time>2019-09-15T09:20:47Z</time>
      </trkpt>
      <trkpt lat="47.3223" lon="-2.48744">
        <ele>50</ele>
        <time>2019-09-15T09:20:48Z</time>
      </trkpt>
      <trkpt lat="47.32232" lon="-2.48736">
        <ele>49</ele>
        <time>2019-09-15T09:20:49Z</time>
      </trkpt>
      <trkpt lat="47.32234" lon="-2.48728">
        <ele>50</ele>
        <time>2019-09-15T09:20:50Z</time>
      </trkpt>
      <trkpt lat="47.32236" lon="-2.4872">
        <ele>50</ele>
        <time>2019-09-15T09:20:51Z</time>
      </trkpt>
      <trkpt lat="47.32237" lon="-2.48713">
        <ele>50</ele>
        <time>2019-09-15T09:20:52Z</time>
      </trkpt>
      <trkpt lat="47.32239" lon="-2.48705">
        <ele>50</ele>
        <time>2019-09-15T09:20:53Z</time>
      </trkpt>
      <trkpt lat="47.3224" lon="-2.48698">
        <ele>50</ele>
        <time>2019-09-15T09:20:54Z</time>
      </trkpt>
      <trkpt lat="47.32243" lon="-2.48691">
        <ele>50</ele>
        <time>2019-09-15T09:20:55Z</time>
      </trkpt>
      <trkpt lat="47.32246" lon="-2.48683">
        <ele>50</ele>
        <time>2019-09-15T09:20:56Z</time>
      </trkpt>
      <trkpt lat="47.32249" lon="-2.48677">
        <ele>50</ele>
        <time>2019-09-15T09:20:57Z</time>
      </trkpt>
      <trkpt lat="47.32253" lon="-2.48671">
        <ele>50</ele>
        <time>2019-09-15T09:20:58Z</time>
      </trkpt>
      <trkpt lat="47.32257" lon="-2.48665">
        <ele>50</ele>
        <time>2019-09-15T09:20:59Z</time>
      </trkpt>
      <trkpt lat="47.32261" lon="-2.48659">
        <ele>49</ele>
        <time>2019-09-15T09:21:00Z</time>
      </trkpt>
      <trkpt lat="47.32266" lon="-2.48653">
        <ele>50</ele>
        <time>2019-09-15T09:21:01Z</time>
      </trkpt>
      <trkpt lat="47.32271" lon="-2.48647">
        <ele>49</ele>
        <time>2019-09-15T09:21:02Z</time>
      </trkpt>
      <trkpt lat="47.32277" lon="-2.48643">
        <ele>49</ele>
        <time>2019-09-15T09:21:03Z</time>
      </trkpt>
      <trkpt lat="47.32282" lon="-2.48639">
        <ele>49</ele>
        <time>2019-09-15T09:21:04Z</time>
      </trkpt>
      <trkpt lat="47.32293" lon="-2.48631">
        <ele>49</ele>
        <time>2019-09-15T09:21:06Z</time>
      </trkpt>
      <trkpt lat="47.32299" lon="-2.48627">
        <ele>49</ele>
        <time>2019-09-15T09:21:07Z</time>
      </trkpt>
      <trkpt lat="47.32304" lon="-2.48623">
        <ele>49</ele>
        <time>2019-09-15T09:21:08Z</time>
      </trkpt>
      <trkpt lat="47.3231" lon="-2.48619">
        <ele>49</ele>
        <time>2019-09-15T09:21:09Z</time>
      </trkpt>
      <trkpt lat="47.32315" lon="-2.48615">
        <ele>49</ele>
        <time>2019-09-15T09:21:10Z</time>
      </trkpt>
      <trkpt lat="47.3232" lon="-2.48611">
        <ele>49</ele>
        <time>2019-09-15T09:21:11Z</time>
      </trkpt>
      <trkpt lat="47.32325" lon="-2.48607">
        <ele>49</ele>
        <time>2019-09-15T09:21:12Z</time>
      </trkpt>
      <trkpt lat="47.32331" lon="-2.48603">
        <ele>49</ele>
        <time>2019-09-15T09:21:13Z</time>
      </trkpt>
      <trkpt lat="47.32336" lon="-2.486">
        <ele>49</ele>
        <time>2019-09-15T09:21:14Z</time>
      </trkpt>
      <trkpt lat="47.32342" lon="-2.48596">
        <ele>49</ele>
        <time>2019-09-15T09:21:15Z</time>
      </trkpt>
      <trkpt lat="47.32347" lon="-2.48592">
        <ele>50</ele>
        <time>2019-09-15T09:21:16Z</time>
      </trkpt>
      <trkpt lat="47.32353" lon="-2.48588">
        <ele>50</ele>
        <time>2019-09-15T09:21:17Z</time>
      </trkpt>
      <trkpt lat="47.32358" lon="-2.48584">
        <ele>50</ele>
        <time>2019-09-15T09:21:18Z</time>
      </trkpt>
      <trkpt lat="47.32364" lon="-2.4858">
        <ele>50</ele>
        <time>2019-09-15T09:21:19Z</time>
      </trkpt>
      <trkpt lat="47.3237" lon="-2.48577">
        <ele>50</ele>
        <time>2019-09-15T09:21:20Z</time>
      </trkpt>
      <trkpt lat="47.32376" lon="-2.48574">
        <ele>50</ele>
        <time>2019-09-15T09:21:21Z</time>
      </trkpt>
      <trkpt lat="47.32382" lon="-2.48572">
        <ele>50</ele>
        <time>2019-09-15T09:21:22Z</time>
      </trkpt>
      <trkpt lat="47.32388" lon="-2.4857">
        <ele>50</ele>
        <time>2019-09-15T09:21:23Z</time>
      </trkpt>
      <trkpt lat="47.32394" lon="-2.48568">
        <ele>50</ele>
        <time>2019-09-15T09:21:24Z</time>
      </trkpt>
      <trkpt lat="47.32401" lon="-2.48567">
        <ele>51</ele>
        <time>2019-09-15T09:21:25Z</time>
      </trkpt>
      <trkpt lat="47.32407" lon="-2.48567">
        <ele>51</ele>
        <time>2019-09-15T09:21:26Z</time>
      </trkpt>
      <trkpt lat="47.32413" lon="-2.48567">
        <ele>51</ele>
        <time>2019-09-15T09:21:27Z</time>
      </trkpt>
      <trkpt lat="47.3242" lon="-2.48568">
        <ele>51</ele>
        <time>2019-09-15T09:21:28Z</time>
      </trkpt>
      <trkpt lat="47.32426" lon="-2.4857">
        <ele>51</ele>
        <time>2019-09-15T09:21:29Z</time>
      </trkpt>
      <trkpt lat="47.32432" lon="-2.48572">
        <ele>51</ele>
        <time>2019-09-15T09:21:30Z</time>
      </trkpt>
      <trkpt lat="47.32439" lon="-2.48573">
        <ele>51</ele>
        <time>2019-09-15T09:21:31Z</time>
      </trkpt>
      <trkpt lat="47.32445" lon="-2.48575">
        <ele>51</ele>
        <time>2019-09-15T09:21:32Z</time>
      </trkpt>
      <trkpt lat="47.32451" lon="-2.48577">
        <ele>51</ele>
        <time>2019-09-15T09:21:33Z</time>
      </trkpt>
      <trkpt lat="47.32457" lon="-2.4858">
        <ele>51</ele>
        <time>2019-09-15T09:21:34Z</time>
      </trkpt>
      <trkpt lat="47.32463" lon="-2.48583">
        <ele>51</ele>
        <time>2019-09-15T09:21:35Z</time>
      </trkpt>
      <trkpt lat="47.32468" lon="-2.48586">
        <ele>51</ele>
        <time>2019-09-15T09:21:36Z</time>
      </trkpt>
      <trkpt lat="47.32474" lon="-2.48589">
        <ele>50</ele>
        <time>2019-09-15T09:21:37Z</time>
      </trkpt>
      <trkpt lat="47.32479" lon="-2.48592">
        <ele>50</ele>
        <time>2019-09-15T09:21:38Z</time>
      </trkpt>
      <trkpt lat="47.32485" lon="-2.48597">
        <ele>50</ele>
        <time>2019-09-15T09:21:39Z</time>
      </trkpt>
      <trkpt lat="47.3249" lon="-2.48602">
        <ele>50</ele>
        <time>2019-09-15T09:21:40Z</time>
      </trkpt>
      <trkpt lat="47.32495" lon="-2.48607">
        <ele>50</ele>
        <time>2019-09-15T09:21:41Z</time>
      </trkpt>
      <trkpt lat="47.32506" lon="-2.48619">
        <ele>50</ele>
        <time>2019-09-15T09:21:43Z</time>
      </trkpt>
      <trkpt lat="47.32511" lon="-2.48624">
        <ele>50</ele>
        <time>2019-09-15T09:21:44Z</time>
      </trkpt>
      <trkpt lat="47.32516" lon="-2.48629">
        <ele>50</ele>
        <time>2019-09-15T09:21:45Z</time>
      </trkpt>
      <trkpt lat="47.32521" lon="-2.48634">
        <ele>50</ele>
        <time>2019-09-15T09:21:46Z</time>
      </trkpt>
      <trkpt lat="47.32526" lon="-2.48639">
        <ele>50</ele>
        <time>2019-09-15T09:21:47Z</time>
      </trkpt>
      <trkpt lat="47.32531" lon="-2.48644">
        <ele>50</ele>
        <time>2019-09-15T09:21:48Z</time>
      </trkpt>
      <trkpt lat="47.32541" lon="-2.48652">
        <ele>50</ele>
        <time>2019-09-15T09:21:50Z</time>
      </trkpt>
      <trkpt lat="47.32546" lon="-2.48657">
        <ele>50</ele>
        <time>2019-09-15T09:21:51Z</time>
      </trkpt>
      <trkpt lat="47.32551" lon="-2.48661">
        <ele>50</ele>
        <time>2019-09-15T09:21:52Z</time>
      </trkpt>
      <trkpt lat="47.32557" lon="-2.48665">
        <ele>50</ele>
        <time>2019-09-15T09:21:53Z</time>
      </trkpt>
      <trkpt lat="47.32563" lon="-2.48668">
        <ele>51</ele>
        <time>2019-09-15T09:21:54Z</time>
      </trkpt>
      <trkpt lat="47.32569" lon="-2.4867">
        <ele>51</ele>
        <time>2019-09-15T09:21:55Z</time>
      </trkpt>
      <trkpt lat="47.32575" lon="-2.48672">
        <ele>52</ele>
        <time>2019-09-15T09:21:56Z</time>
      </trkpt>
      <trkpt lat="47.3258" lon="-2.48674">
        <ele>51</ele>
        <time>2019-09-15T09:21:57Z</time>
      </trkpt>
      <trkpt lat="47.32586" lon="-2.48674">
        <ele>51</ele>
        <time>2019-09-15T09:21:58Z</time>
      </trkpt>
      <trkpt lat="47.32592" lon="-2.48673">
        <ele>51</ele>
        <time>2019-09-15T09:21:59Z</time>
      </trkpt>
      <trkpt lat="47.32597" lon="-2.48673">
        <ele>50</ele>
        <time>2019-09-15T09:22:00Z</time>
      </trkpt>
      <trkpt lat="47.32603" lon="-2.48672">
        <ele>50</ele>
        <time>2019-09-15T09:22:01Z</time>
      </trkpt>
      <trkpt lat="47.32608" lon="-2.48671">
        <ele>50</ele>
        <time>2019-09-15T09:22:02Z</time>
      </trkpt>
      <trkpt lat="47.32614" lon="-2.4867">
        <ele>50</ele>
        <time>2019-09-15T09:22:03Z</time>
      </trkpt>
      <trkpt lat="47.32619" lon="-2.48668">
        <ele>50</ele>
        <time>2019-09-15T09:22:04Z</time>
      </trkpt>
      <trkpt lat="47.32624" lon="-2.48667">
        <ele>50</ele>
        <time>2019-09-15T09:22:05Z</time>
      </trkpt>
      <trkpt lat="47.32629" lon="-2.48665">
        <ele>50</ele>
        <time>2019-09-15T09:22:06Z</time>
      </trkpt>
      <trkpt lat="47.32634" lon="-2.48664">
        <ele>50</ele>
        <time>2019-09-15T09:22:07Z</time>
      </trkpt>
      <trkpt lat="47.32639" lon="-2.48661">
        <ele>50</ele>
        <time>2019-09-15T09:22:08Z</time>
      </trkpt>
      <trkpt lat="47.32645" lon="-2.4866">
        <ele>50</ele>
        <time>2019-09-15T09:22:09Z</time>
      </trkpt>
      <trkpt lat="47.3265" lon="-2.48657">
        <ele>50</ele>
        <time>2019-09-15T09:22:10Z</time>
      </trkpt>
      <trkpt lat="47.32655" lon="-2.48655">
        <ele>50</ele>
        <time>2019-09-15T09:22:11Z</time>
      </trkpt>
      <trkpt lat="47.3266" lon="-2.48653">
        <ele>50</ele>
        <time>2019-09-15T09:22:12Z</time>
      </trkpt>
      <trkpt lat="47.32665" lon="-2.4865">
        <ele>50</ele>
        <time>2019-09-15T09:22:13Z</time>
      </trkpt>
      <trkpt lat="47.3267" lon="-2.48647">
        <ele>50</ele>
        <time>2019-09-15T09:22:14Z</time>
      </trkpt>
      <trkpt lat="47.32675" lon="-2.48644">
        <ele>50</ele>
        <time>2019-09-15T09:22:15Z</time>
      </trkpt>
      <trkpt lat="47.32679" lon="-2.48642">
        <ele>50</ele>
        <time>2019-09-15T09:22:16Z</time>
      </trkpt>
      <trkpt lat="47.32684" lon="-2.48639">
        <ele>50</ele>
        <time>2019-09-15T09:22:17Z</time>
      </trkpt>
      <trkpt lat="47.32689" lon="-2.48636">
        <ele>50</ele>
        <time>2019-09-15T09:22:18Z</time>
      </trkpt>
      <trkpt lat="47.32695" lon="-2.48633">
        <ele>49</ele>
        <time>2019-09-15T09:22:19Z</time>
      </trkpt>
      <trkpt lat="47.327" lon="-2.4863">
        <ele>49</ele>
        <time>2019-09-15T09:22:20Z</time>
      </trkpt>
      <trkpt lat="47.32705" lon="-2.48627">
        <ele>49</ele>
        <time>2019-09-15T09:22:21Z</time>
      </trkpt>
      <trkpt lat="47.32711" lon="-2.48624">
        <ele>49</ele>
        <time>2019-09-15T09:22:22Z</time>
      </trkpt>
      <trkpt lat="47.32716" lon="-2.48621">
        <ele>50</ele>
        <time>2019-09-15T09:22:23Z</time>
      </trkpt>
      <trkpt lat="47.32727" lon="-2.48614">
        <ele>50</ele>
        <time>2019-09-15T09:22:25Z</time>
      </trkpt>
      <trkpt lat="47.32732" lon="-2.48611">
        <ele>50</ele>
        <time>2019-09-15T09:22:26Z</time>
      </trkpt>
      <trkpt lat="47.32738" lon="-2.48608">
        <ele>50</ele>
        <time>2019-09-15T09:22:27Z</time>
      </trkpt>
      <trkpt lat="47.32749" lon="-2.48603">
        <ele>50</ele>
        <time>2019-09-15T09:22:29Z</time>
      </trkpt>
      <trkpt lat="47.32754" lon="-2.486">
        <ele>50</ele>
        <time>2019-09-15T09:22:30Z</time>
      </trkpt>
      <trkpt lat="47.3276" lon="-2.48597">
        <ele>50</ele>
        <time>2019-09-15T09:22:31Z</time>
      </trkpt>
      <trkpt lat="47.32765" lon="-2.48594">
        <ele>50</ele>
        <time>2019-09-15T09:22:32Z</time>
      </trkpt>
      <trkpt lat="47.32771" lon="-2.48592">
        <ele>50</ele>
        <time>2019-09-15T09:22:33Z</time>
      </trkpt>
      <trkpt lat="47.32783" lon="-2.4859">
        <ele>51</ele>
        <time>2019-09-15T09:22:35Z</time>
      </trkpt>
      <trkpt lat="47.32789" lon="-2.48589">
        <ele>51</ele>
        <time>2019-09-15T09:22:36Z</time>
      </trkpt>
      <trkpt lat="47.32795" lon="-2.4859">
        <ele>50</ele>
        <time>2019-09-15T09:22:37Z</time>
      </trkpt>
      <trkpt lat="47.32801" lon="-2.4859">
        <ele>50</ele>
        <time>2019-09-15T09:22:38Z</time>
      </trkpt>
      <trkpt lat="47.32807" lon="-2.4859">
        <ele>50</ele>
        <time>2019-09-15T09:22:39Z</time>
      </trkpt>
      <trkpt lat="47.32813" lon="-2.4859">
        <ele>50</ele>
        <time>2019-09-15T09:22:40Z</time>
      </trkpt>
      <trkpt lat="47.32819" lon="-2.4859">
        <ele>50</ele>
        <time>2019-09-15T09:22:41Z</time>
      </trkpt>
      <trkpt lat="47.32825" lon="-2.48589">
        <ele>51</ele>
        <time>2019-09-15T09:22:42Z</time>
      </trkpt>
      <trkpt lat="47.32831" lon="-2.4859">
        <ele>51</ele>
        <time>2019-09-15T09:22:43Z</time>
      </trkpt>
      <trkpt lat="47.32837" lon="-2.4859">
        <ele>51</ele>
        <time>2019-09-15T09:22:44Z</time>
      </trkpt>
      <trkpt lat="47.32844" lon="-2.4859">
        <ele>51</ele>
        <time>2019-09-15T09:22:45Z</time>
      </trkpt>
      <trkpt lat="47.3285" lon="-2.4859">
        <ele>50</ele>
        <time>2019-09-15T09:22:46Z</time>
      </trkpt>
      <trkpt lat="47.32856" lon="-2.4859">
        <ele>50</ele>
        <time>2019-09-15T09:22:47Z</time>
      </trkpt>
      <trkpt lat="47.32863" lon="-2.48591">
        <ele>50</ele>
        <time>2019-09-15T09:22:48Z</time>
      </trkpt>
      <trkpt lat="47.32869" lon="-2.48591">
        <ele>51</ele>
        <time>2019-09-15T09:22:49Z</time>
      </trkpt>
      <trkpt lat="47.32874" lon="-2.48591">
        <ele>51</ele>
        <time>2019-09-15T09:22:50Z</time>
      </trkpt>
      <trkpt lat="47.3288" lon="-2.4859">
        <ele>51</ele>
        <time>2019-09-15T09:22:51Z</time>
      </trkpt>
      <trkpt lat="47.32886" lon="-2.48588">
        <ele>51</ele>
        <time>2019-09-15T09:22:52Z</time>
      </trkpt>
      <trkpt lat="47.32892" lon="-2.48586">
        <ele>51</ele>
        <time>2019-09-15T09:22:53Z</time>
      </trkpt>
      <trkpt lat="47.32898" lon="-2.48582">
        <ele>51</ele>
        <time>2019-09-15T09:22:54Z</time>
      </trkpt>
      <trkpt lat="47.32903" lon="-2.48578">
        <ele>51</ele>
        <time>2019-09-15T09:22:55Z</time>
      </trkpt>
      <trkpt lat="47.32908" lon="-2.48573">
        <ele>51</ele>
        <time>2019-09-15T09:22:56Z</time>
      </trkpt>
      <trkpt lat="47.32913" lon="-2.48567">
        <ele>51</ele>
        <time>2019-09-15T09:22:57Z</time>
      </trkpt>
      <trkpt lat="47.32918" lon="-2.48562">
        <ele>51</ele>
        <time>2019-09-15T09:22:58Z</time>
      </trkpt>
      <trkpt lat="47.32923" lon="-2.48556">
        <ele>52</ele>
        <time>2019-09-15T09:22:59Z</time>
      </trkpt>
      <trkpt lat="47.32927" lon="-2.4855">
        <ele>51</ele>
        <time>2019-09-15T09:23:00Z</time>
      </trkpt>
      <trkpt lat="47.32936" lon="-2.48539">
        <ele>52</ele>
        <time>2019-09-15T09:23:02Z</time>
      </trkpt>
      <trkpt lat="47.3294" lon="-2.48534">
        <ele>52</ele>
        <time>2019-09-15T09:23:03Z</time>
      </trkpt>
      <trkpt lat="47.32944" lon="-2.4853">
        <ele>52</ele>
        <time>2019-09-15T09:23:04Z</time>
      </trkpt>
      <trkpt lat="47.32957" lon="-2.48513">
        <ele>52</ele>
        <time>2019-09-15T09:23:08Z</time>
      </trkpt>
      <trkpt lat="47.32961" lon="-2.48509">
        <ele>53</ele>
        <time>2019-09-15T09:23:09Z</time>
      </trkpt>
      <trkpt lat="47.32966" lon="-2.48505">
        <ele>52</ele>
        <time>2019-09-15T09:23:10Z</time>
      </trkpt>
      <trkpt lat="47.32972" lon="-2.485">
        <ele>53</ele>
        <time>2019-09-15T09:23:11Z</time>
      </trkpt>
      <trkpt lat="47.32983" lon="-2.48492">
        <ele>52</ele>
        <time>2019-09-15T09:23:13Z</time>
      </trkpt>
      <trkpt lat="47.32989" lon="-2.48487">
        <ele>52</ele>
        <time>2019-09-15T09:23:14Z</time>
      </trkpt>
      <trkpt lat="47.32995" lon="-2.48484">
        <ele>52</ele>
        <time>2019-09-15T09:23:15Z</time>
      </trkpt>
      <trkpt lat="47.33001" lon="-2.48481">
        <ele>52</ele>
        <time>2019-09-15T09:23:16Z</time>
      </trkpt>
      <trkpt lat="47.33006" lon="-2.48478">
        <ele>52</ele>
        <time>2019-09-15T09:23:17Z</time>
      </trkpt>
      <trkpt lat="47.33011" lon="-2.48475">
        <ele>52</ele>
        <time>2019-09-15T09:23:18Z</time>
      </trkpt>
      <trkpt lat="47.33017" lon="-2.48471">
        <ele>52</ele>
        <time>2019-09-15T09:23:19Z</time>
      </trkpt>
      <trkpt lat="47.33023" lon="-2.48468">
        <ele>51</ele>
        <time>2019-09-15T09:23:20Z</time>
      </trkpt>
      <trkpt lat="47.33028" lon="-2.48464">
        <ele>51</ele>
        <time>2019-09-15T09:23:21Z</time>
      </trkpt>
      <trkpt lat="47.33033" lon="-2.4846">
        <ele>51</ele>
        <time>2019-09-15T09:23:22Z</time>
      </trkpt>
      <trkpt lat="47.33039" lon="-2.48456">
        <ele>51</ele>
        <time>2019-09-15T09:23:23Z</time>
      </trkpt>
      <trkpt lat="47.33044" lon="-2.48453">
        <ele>51</ele>
        <time>2019-09-15T09:23:24Z</time>
      </trkpt>
      <trkpt lat="47.3305" lon="-2.48449">
        <ele>51</ele>
        <time>2019-09-15T09:23:25Z</time>
      </trkpt>
      <trkpt lat="47.33055" lon="-2.48445">
        <ele>51</ele>
        <time>2019-09-15T09:23:26Z</time>
      </trkpt>
      <trkpt lat="47.3306" lon="-2.48442">
        <ele>51</ele>
        <time>2019-09-15T09:23:27Z</time>
      </trkpt>
      <trkpt lat="47.33065" lon="-2.48438">
        <ele>51</ele>
        <time>2019-09-15T09:23:28Z</time>
      </trkpt>
      <trkpt lat="47.3307" lon="-2.48435">
        <ele>51</ele>
        <time>2019-09-15T09:23:29Z</time>
      </trkpt>
      <trkpt lat="47.33075" lon="-2.48432">
        <ele>51</ele>
        <time>2019-09-15T09:23:30Z</time>
      </trkpt>
      <trkpt lat="47.33086" lon="-2.48425">
        <ele>51</ele>
        <time>2019-09-15T09:23:32Z</time>
      </trkpt>
      <trkpt lat="47.33092" lon="-2.48421">
        <ele>51</ele>
        <time>2019-09-15T09:23:33Z</time>
      </trkpt>
      <trkpt lat="47.33097" lon="-2.48418">
        <ele>51</ele>
        <time>2019-09-15T09:23:34Z</time>
      </trkpt>
      <trkpt lat="47.33102" lon="-2.48416">
        <ele>51</ele>
        <time>2019-09-15T09:23:35Z</time>
      </trkpt>
      <trkpt lat="47.33107" lon="-2.48413">
        <ele>51</ele>
        <time>2019-09-15T09:23:36Z</time>
      </trkpt>
      <trkpt lat="47.33112" lon="-2.48409">
        <ele>51</ele>
        <time>2019-09-15T09:23:37Z</time>
      </trkpt>
      <trkpt lat="47.33117" lon="-2.48405">
        <ele>50</ele>
        <time>2019-09-15T09:23:38Z</time>
      </trkpt>
      <trkpt lat="47.33121" lon="-2.484">
        <ele>50</ele>
        <time>2019-09-15T09:23:39Z</time>
      </trkpt>
      <trkpt lat="47.33125" lon="-2.48394">
        <ele>50</ele>
        <time>2019-09-15T09:23:40Z</time>
      </trkpt>
      <trkpt lat="47.33132" lon="-2.48382">
        <ele>50</ele>
        <time>2019-09-15T09:23:42Z</time>
      </trkpt>
      <trkpt lat="47.33134" lon="-2.48377">
        <ele>50</ele>
        <time>2019-09-15T09:23:43Z</time>
      </trkpt>
      <trkpt lat="47.33136" lon="-2.48371">
        <ele>50</ele>
        <time>2019-09-15T09:23:44Z</time>
      </trkpt>
      <trkpt lat="47.33138" lon="-2.48365">
        <ele>50</ele>
        <time>2019-09-15T09:23:45Z</time>
      </trkpt>
      <trkpt lat="47.3314" lon="-2.48354">
        <ele>50</ele>
        <time>2019-09-15T09:23:47Z</time>
      </trkpt>
      <trkpt lat="47.33143" lon="-2.48345">
        <ele>51</ele>
        <time>2019-09-15T09:23:49Z</time>
      </trkpt>
      <trkpt lat="47.33143" lon="-2.48339">
        <ele>50</ele>
        <time>2019-09-15T09:23:50Z</time>
      </trkpt>
      <trkpt lat="47.33144" lon="-2.48327">
        <ele>50</ele>
        <time>2019-09-15T09:23:52Z</time>
      </trkpt>
      <trkpt lat="47.33144" lon="-2.48314">
        <ele>50</ele>
        <time>2019-09-15T09:23:54Z</time>
      </trkpt>
      <trkpt lat="47.33144" lon="-2.48308">
        <ele>50</ele>
        <time>2019-09-15T09:23:55Z</time>
      </trkpt>
      <trkpt lat="47.33143" lon="-2.48301">
        <ele>50</ele>
        <time>2019-09-15T09:23:56Z</time>
      </trkpt>
      <trkpt lat="47.33143" lon="-2.48295">
        <ele>51</ele>
        <time>2019-09-15T09:23:57Z</time>
      </trkpt>
      <trkpt lat="47.33143" lon="-2.48288">
        <ele>51</ele>
        <time>2019-09-15T09:23:58Z</time>
      </trkpt>
      <trkpt lat="47.33143" lon="-2.48275">
        <ele>51</ele>
        <time>2019-09-15T09:24:00Z</time>
      </trkpt>
      <trkpt lat="47.33143" lon="-2.48268">
        <ele>51</ele>
        <time>2019-09-15T09:24:01Z</time>
      </trkpt>
      <trkpt lat="47.33143" lon="-2.48257">
        <ele>51</ele>
        <time>2019-09-15T09:24:03Z</time>
      </trkpt>
      <trkpt lat="47.33143" lon="-2.48252">
        <ele>51</ele>
        <time>2019-09-15T09:24:04Z</time>
      </trkpt>
      <trkpt lat="47.33143" lon="-2.48246">
        <ele>51</ele>
        <time>2019-09-15T09:24:05Z</time>
      </trkpt>
      <trkpt lat="47.33142" lon="-2.48235">
        <ele>51</ele>
        <time>2019-09-15T09:24:07Z</time>
      </trkpt>
      <trkpt lat="47.33142" lon="-2.48225">
        <ele>51</ele>
        <time>2019-09-15T09:24:09Z</time>
      </trkpt>
      <trkpt lat="47.33142" lon="-2.48219">
        <ele>51</ele>
        <time>2019-09-15T09:24:10Z</time>
      </trkpt>
      <trkpt lat="47.33142" lon="-2.48215">
        <ele>51</ele>
        <time>2019-09-15T09:24:11Z</time>
      </trkpt>
      <trkpt lat="47.33142" lon="-2.4821">
        <ele>51</ele>
        <time>2019-09-15T09:24:12Z</time>
      </trkpt>
      <trkpt lat="47.33142" lon="-2.48206">
        <ele>51</ele>
        <time>2019-09-15T09:24:13Z</time>
      </trkpt>
      <trkpt lat="47.33141" lon="-2.48197">
        <ele>51</ele>
        <time>2019-09-15T09:24:15Z</time>
      </trkpt>
      <trkpt lat="47.33142" lon="-2.48187">
        <ele>51</ele>
        <time>2019-09-15T09:24:17Z</time>
      </trkpt>
      <trkpt lat="47.33142" lon="-2.48181">
        <ele>51</ele>
        <time>2019-09-15T09:24:18Z</time>
      </trkpt>
      <trkpt lat="47.33142" lon="-2.48164">
        <ele>51</ele>
        <time>2019-09-15T09:24:21Z</time>
      </trkpt>
      <trkpt lat="47.33142" lon="-2.48159">
        <ele>51</ele>
        <time>2019-09-15T09:24:22Z</time>
      </trkpt>
      <trkpt lat="47.33142" lon="-2.48153">
        <ele>51</ele>
        <time>2019-09-15T09:24:23Z</time>
      </trkpt>
      <trkpt lat="47.33142" lon="-2.48148">
        <ele>51</ele>
        <time>2019-09-15T09:24:24Z</time>
      </trkpt>
      <trkpt lat="47.33142" lon="-2.48142">
        <ele>51</ele>
        <time>2019-09-15T09:24:25Z</time>
      </trkpt>
      <trkpt lat="47.33142" lon="-2.48137">
        <ele>52</ele>
        <time>2019-09-15T09:24:26Z</time>
      </trkpt>
      <trkpt lat="47.33142" lon="-2.48121">
        <ele>51</ele>
        <time>2019-09-15T09:24:29Z</time>
      </trkpt>
      <trkpt lat="47.33143" lon="-2.48112">
        <ele>52</ele>
        <time>2019-09-15T09:24:31Z</time>
      </trkpt>
      <trkpt lat="47.33142" lon="-2.48104">
        <ele>52</ele>
        <time>2019-09-15T09:24:33Z</time>
      </trkpt>
      <trkpt lat="47.33143" lon="-2.48094">
        <ele>52</ele>
        <time>2019-09-15T09:24:35Z</time>
      </trkpt>
      <trkpt lat="47.33144" lon="-2.48089">
        <ele>52</ele>
        <time>2019-09-15T09:24:36Z</time>
      </trkpt>
      <trkpt lat="47.33144" lon="-2.48085">
        <ele>52</ele>
        <time>2019-09-15T09:24:37Z</time>
      </trkpt>
      <trkpt lat="47.33144" lon="-2.48074">
        <ele>52</ele>
        <time>2019-09-15T09:24:39Z</time>
      </trkpt>
      <trkpt lat="47.33144" lon="-2.48069">
        <ele>52</ele>
        <time>2019-09-15T09:24:40Z</time>
      </trkpt>
      <trkpt lat="47.33145" lon="-2.48059">
        <ele>52</ele>
        <time>2019-09-15T09:24:42Z</time>
      </trkpt>
      <trkpt lat="47.33144" lon="-2.4805">
        <ele>52</ele>
        <time>2019-09-15T09:24:44Z</time>
      </trkpt>
      <trkpt lat="47.33144" lon="-2.48045">
        <ele>52</ele>
        <time>2019-09-15T09:24:45Z</time>
      </trkpt>
      <trkpt lat="47.33145" lon="-2.48036">
        <ele>52</ele>
        <time>2019-09-15T09:24:47Z</time>
      </trkpt>
      <trkpt lat="47.33145" lon="-2.48031">
        <ele>52</ele>
        <time>2019-09-15T09:24:49Z</time>
      </trkpt>
      <trkpt lat="47.33145" lon="-2.48031">
        <ele>3.2</ele>
        <time>2019-09-15T09:24:54Z</time>
      </trkpt>
      <trkpt lat="47.33145" lon="-2.48031">
        <ele>3.2</ele>
        <time>2019-09-15T09:25:33Z</time>
      </trkpt>
      <trkpt lat="47.33146" lon="-2.48007">
        <ele>52</ele>
        <time>2019-09-15T09:25:33Z</time>
      </trkpt>
      <trkpt lat="47.33147" lon="-2.47969">
        <ele>51</ele>
        <time>2019-09-15T09:25:39Z</time>
      </trkpt>
      <trkpt lat="47.33149" lon="-2.47962">
        <ele>50</ele>
        <time>2019-09-15T09:25:40Z</time>
      </trkpt>
      <trkpt lat="47.33149" lon="-2.47955">
        <ele>51</ele>
        <time>2019-09-15T09:25:41Z</time>
      </trkpt>
      <trkpt lat="47.3315" lon="-2.47948">
        <ele>51</ele>
        <time>2019-09-15T09:25:42Z</time>
      </trkpt>
      <trkpt lat="47.33149" lon="-2.4794">
        <ele>51</ele>
        <time>2019-09-15T09:25:43Z</time>
      </trkpt>
      <trkpt lat="47.33148" lon="-2.47934">
        <ele>51</ele>
        <time>2019-09-15T09:25:44Z</time>
      </trkpt>
      <trkpt lat="47.33145" lon="-2.47918">
        <ele>51</ele>
        <time>2019-09-15T09:25:46Z</time>
      </trkpt>
      <trkpt lat="47.33143" lon="-2.47911">
        <ele>51</ele>
        <time>2019-09-15T09:25:47Z</time>
      </trkpt>
      <trkpt lat="47.33141" lon="-2.47903">
        <ele>52</ele>
        <time>2019-09-15T09:25:48Z</time>
      </trkpt>
      <trkpt lat="47.33139" lon="-2.47895">
        <ele>52</ele>
        <time>2019-09-15T09:25:49Z</time>
      </trkpt>
      <trkpt lat="47.33137" lon="-2.47888">
        <ele>51</ele>
        <time>2019-09-15T09:25:50Z</time>
      </trkpt>
      <trkpt lat="47.33134" lon="-2.47881">
        <ele>51</ele>
        <time>2019-09-15T09:25:51Z</time>
      </trkpt>
      <trkpt lat="47.33129" lon="-2.47867">
        <ele>52</ele>
        <time>2019-09-15T09:25:53Z</time>
      </trkpt>
      <trkpt lat="47.33127" lon="-2.47859">
        <ele>51</ele>
        <time>2019-09-15T09:25:54Z</time>
      </trkpt>
      <trkpt lat="47.33124" lon="-2.47852">
        <ele>50</ele>
        <time>2019-09-15T09:25:55Z</time>
      </trkpt>
      <trkpt lat="47.33121" lon="-2.47846">
        <ele>50</ele>
        <time>2019-09-15T09:25:56Z</time>
      </trkpt>
      <trkpt lat="47.33117" lon="-2.4784">
        <ele>50</ele>
        <time>2019-09-15T09:25:57Z</time>
      </trkpt>
      <trkpt lat="47.33112" lon="-2.47835">
        <ele>51</ele>
        <time>2019-09-15T09:25:58Z</time>
      </trkpt>
      <trkpt lat="47.33104" lon="-2.47827">
        <ele>51</ele>
        <time>2019-09-15T09:26:00Z</time>
      </trkpt>
      <trkpt lat="47.331" lon="-2.47824">
        <ele>51</ele>
        <time>2019-09-15T09:26:01Z</time>
      </trkpt>
      <trkpt lat="47.33092" lon="-2.47819">
        <ele>51</ele>
        <time>2019-09-15T09:26:03Z</time>
      </trkpt>
      <trkpt lat="47.33089" lon="-2.47818">
        <ele>51</ele>
        <time>2019-09-15T09:26:04Z</time>
      </trkpt>
      <trkpt lat="47.33086" lon="-2.47816">
        <ele>51</ele>
        <time>2019-09-15T09:26:06Z</time>
      </trkpt>
      <trkpt lat="47.33086" lon="-2.47816">
        <ele>51</ele>
        <time>2019-09-15T09:26:11Z</time>
      </trkpt>
      <trkpt lat="47.33086" lon="-2.47816">
        <ele>3</ele>
        <time>2019-09-15T09:26:11Z</time>
      </trkpt>
      <trkpt lat="47.33086" lon="-2.47816">
        <ele>3</ele>
        <time>2019-09-15T09:28:27Z</time>
      </trkpt>
      <trkpt lat="47.33069" lon="-2.47807">
        <ele>52</ele>
        <time>2019-09-15T09:28:27Z</time>
      </trkpt>
      <trkpt lat="47.33041" lon="-2.47802">
        <ele>55</ele>
        <time>2019-09-15T09:28:33Z</time>
      </trkpt>
      <trkpt lat="47.33037" lon="-2.478">
        <ele>54</ele>
        <time>2019-09-15T09:28:34Z</time>
      </trkpt>
      <trkpt lat="47.33031" lon="-2.47797">
        <ele>52</ele>
        <time>2019-09-15T09:28:35Z</time>
      </trkpt>
      <trkpt lat="47.33026" lon="-2.47795">
        <ele>52</ele>
        <time>2019-09-15T09:28:36Z</time>
      </trkpt>
      <trkpt lat="47.33021" lon="-2.47792">
        <ele>52</ele>
        <time>2019-09-15T09:28:37Z</time>
      </trkpt>
      <trkpt lat="47.33016" lon="-2.47789">
        <ele>53</ele>
        <time>2019-09-15T09:28:38Z</time>
      </trkpt>
      <trkpt lat="47.3301" lon="-2.47786">
        <ele>52</ele>
        <time>2019-09-15T09:28:39Z</time>
      </trkpt>
      <trkpt lat="47.33005" lon="-2.47782">
        <ele>52</ele>
        <time>2019-09-15T09:28:40Z</time>
      </trkpt>
      <trkpt lat="47.33" lon="-2.47779">
        <ele>52</ele>
        <time>2019-09-15T09:28:41Z</time>
      </trkpt>
      <trkpt lat="47.32991" lon="-2.47771">
        <ele>52</ele>
        <time>2019-09-15T09:28:43Z</time>
      </trkpt>
      <trkpt lat="47.32986" lon="-2.47767">
        <ele>52</ele>
        <time>2019-09-15T09:28:44Z</time>
      </trkpt>
      <trkpt lat="47.32982" lon="-2.47763">
        <ele>52</ele>
        <time>2019-09-15T09:28:45Z</time>
      </trkpt>
      <trkpt lat="47.32977" lon="-2.47758">
        <ele>52</ele>
        <time>2019-09-15T09:28:46Z</time>
      </trkpt>
      <trkpt lat="47.32963" lon="-2.47743">
        <ele>52</ele>
        <time>2019-09-15T09:28:49Z</time>
      </trkpt>
      <trkpt lat="47.32959" lon="-2.47737">
        <ele>51</ele>
        <time>2019-09-15T09:28:50Z</time>
      </trkpt>
      <trkpt lat="47.32951" lon="-2.47726">
        <ele>51</ele>
        <time>2019-09-15T09:28:52Z</time>
      </trkpt>
      <trkpt lat="47.32947" lon="-2.47719">
        <ele>51</ele>
        <time>2019-09-15T09:28:53Z</time>
      </trkpt>
      <trkpt lat="47.32944" lon="-2.47712">
        <ele>51</ele>
        <time>2019-09-15T09:28:54Z</time>
      </trkpt>
      <trkpt lat="47.3294" lon="-2.47704">
        <ele>51</ele>
        <time>2019-09-15T09:28:55Z</time>
      </trkpt>
      <trkpt lat="47.32938" lon="-2.47696">
        <ele>51</ele>
        <time>2019-09-15T09:28:56Z</time>
      </trkpt>
      <trkpt lat="47.32936" lon="-2.47687">
        <ele>51</ele>
        <time>2019-09-15T09:28:57Z</time>
      </trkpt>
      <trkpt lat="47.32934" lon="-2.47677">
        <ele>51</ele>
        <time>2019-09-15T09:28:58Z</time>
      </trkpt>
      <trkpt lat="47.32933" lon="-2.47668">
        <ele>51</ele>
        <time>2019-09-15T09:28:59Z</time>
      </trkpt>
      <trkpt lat="47.32931" lon="-2.47659">
        <ele>51</ele>
        <time>2019-09-15T09:29:00Z</time>
      </trkpt>
      <trkpt lat="47.32929" lon="-2.4765">
        <ele>51</ele>
        <time>2019-09-15T09:29:01Z</time>
      </trkpt>
      <trkpt lat="47.32927" lon="-2.47642">
        <ele>51</ele>
        <time>2019-09-15T09:29:02Z</time>
      </trkpt>
      <trkpt lat="47.32925" lon="-2.47633">
        <ele>51</ele>
        <time>2019-09-15T09:29:03Z</time>
      </trkpt>
      <trkpt lat="47.32924" lon="-2.47624">
        <ele>51</ele>
        <time>2019-09-15T09:29:04Z</time>
      </trkpt>
      <trkpt lat="47.32922" lon="-2.47615">
        <ele>51</ele>
        <time>2019-09-15T09:29:05Z</time>
      </trkpt>
      <trkpt lat="47.3292" lon="-2.47606">
        <ele>51</ele>
        <time>2019-09-15T09:29:06Z</time>
      </trkpt>
      <trkpt lat="47.32919" lon="-2.47596">
        <ele>51</ele>
        <time>2019-09-15T09:29:07Z</time>
      </trkpt>
      <trkpt lat="47.32918" lon="-2.47587">
        <ele>51</ele>
        <time>2019-09-15T09:29:08Z</time>
      </trkpt>
      <trkpt lat="47.32918" lon="-2.47577">
        <ele>51</ele>
        <time>2019-09-15T09:29:09Z</time>
      </trkpt>
      <trkpt lat="47.32918" lon="-2.47568">
        <ele>51</ele>
        <time>2019-09-15T09:29:10Z</time>
      </trkpt>
      <trkpt lat="47.32919" lon="-2.4756">
        <ele>51</ele>
        <time>2019-09-15T09:29:11Z</time>
      </trkpt>
      <trkpt lat="47.32919" lon="-2.47551">
        <ele>51</ele>
        <time>2019-09-15T09:29:12Z</time>
      </trkpt>
      <trkpt lat="47.3292" lon="-2.47543">
        <ele>51</ele>
        <time>2019-09-15T09:29:13Z</time>
      </trkpt>
      <trkpt lat="47.32921" lon="-2.47535">
        <ele>51</ele>
        <time>2019-09-15T09:29:14Z</time>
      </trkpt>
      <trkpt lat="47.32921" lon="-2.47528">
        <ele>51</ele>
        <time>2019-09-15T09:29:15Z</time>
      </trkpt>
      <trkpt lat="47.32921" lon="-2.4752">
        <ele>51</ele>
        <time>2019-09-15T09:29:16Z</time>
      </trkpt>
      <trkpt lat="47.3292" lon="-2.47512">
        <ele>51</ele>
        <time>2019-09-15T09:29:17Z</time>
      </trkpt>
      <trkpt lat="47.32919" lon="-2.47505">
        <ele>51</ele>
        <time>2019-09-15T09:29:18Z</time>
      </trkpt>
      <trkpt lat="47.32918" lon="-2.47498">
        <ele>51</ele>
        <time>2019-09-15T09:29:19Z</time>
      </trkpt>
      <trkpt lat="47.32915" lon="-2.47486">
        <ele>51</ele>
        <time>2019-09-15T09:29:21Z</time>
      </trkpt>
      <trkpt lat="47.32913" lon="-2.4748">
        <ele>51</ele>
        <time>2019-09-15T09:29:22Z</time>
      </trkpt>
      <trkpt lat="47.32911" lon="-2.47467">
        <ele>51</ele>
        <time>2019-09-15T09:29:25Z</time>
      </trkpt>
      <trkpt lat="47.3291" lon="-2.47457">
        <ele>51</ele>
        <time>2019-09-15T09:29:27Z</time>
      </trkpt>
      <trkpt lat="47.32907" lon="-2.47446">
        <ele>51</ele>
        <time>2019-09-15T09:29:29Z</time>
      </trkpt>
      <trkpt lat="47.32905" lon="-2.47439">
        <ele>51</ele>
        <time>2019-09-15T09:29:30Z</time>
      </trkpt>
      <trkpt lat="47.32904" lon="-2.47433">
        <ele>51</ele>
        <time>2019-09-15T09:29:31Z</time>
      </trkpt>
      <trkpt lat="47.32902" lon="-2.47427">
        <ele>51</ele>
        <time>2019-09-15T09:29:32Z</time>
      </trkpt>
      <trkpt lat="47.32899" lon="-2.47413">
        <ele>52</ele>
        <time>2019-09-15T09:29:34Z</time>
      </trkpt>
      <trkpt lat="47.32895" lon="-2.47387">
        <ele>52</ele>
        <time>2019-09-15T09:29:38Z</time>
      </trkpt>
      <trkpt lat="47.32894" lon="-2.4738">
        <ele>52</ele>
        <time>2019-09-15T09:29:39Z</time>
      </trkpt>
      <trkpt lat="47.32894" lon="-2.47373">
        <ele>52</ele>
        <time>2019-09-15T09:29:40Z</time>
      </trkpt>
      <trkpt lat="47.32893" lon="-2.47366">
        <ele>52</ele>
        <time>2019-09-15T09:29:41Z</time>
      </trkpt>
      <trkpt lat="47.32892" lon="-2.47359">
        <ele>52</ele>
        <time>2019-09-15T09:29:42Z</time>
      </trkpt>
      <trkpt lat="47.32892" lon="-2.47352">
        <ele>52</ele>
        <time>2019-09-15T09:29:43Z</time>
      </trkpt>
      <trkpt lat="47.32891" lon="-2.47345">
        <ele>52</ele>
        <time>2019-09-15T09:29:44Z</time>
      </trkpt>
      <trkpt lat="47.3289" lon="-2.47339">
        <ele>52</ele>
        <time>2019-09-15T09:29:45Z</time>
      </trkpt>
      <trkpt lat="47.32889" lon="-2.47332">
        <ele>52</ele>
        <time>2019-09-15T09:29:46Z</time>
      </trkpt>
      <trkpt lat="47.32888" lon="-2.47325">
        <ele>52</ele>
        <time>2019-09-15T09:29:47Z</time>
      </trkpt>
      <trkpt lat="47.32887" lon="-2.47319">
        <ele>52</ele>
        <time>2019-09-15T09:29:48Z</time>
      </trkpt>
      <trkpt lat="47.32885" lon="-2.47312">
        <ele>52</ele>
        <time>2019-09-15T09:29:49Z</time>
      </trkpt>
      <trkpt lat="47.32884" lon="-2.47305">
        <ele>52</ele>
        <time>2019-09-15T09:29:50Z</time>
      </trkpt>
      <trkpt lat="47.32884" lon="-2.47298">
        <ele>52</ele>
        <time>2019-09-15T09:29:51Z</time>
      </trkpt>
      <trkpt lat="47.32882" lon="-2.47291">
        <ele>53</ele>
        <time>2019-09-15T09:29:52Z</time>
      </trkpt>
      <trkpt lat="47.32878" lon="-2.4727">
        <ele>52</ele>
        <time>2019-09-15T09:29:55Z</time>
      </trkpt>
      <trkpt lat="47.32877" lon="-2.47263">
        <ele>52</ele>
        <time>2019-09-15T09:29:56Z</time>
      </trkpt>
      <trkpt lat="47.32876" lon="-2.47255">
        <ele>52</ele>
        <time>2019-09-15T09:29:57Z</time>
      </trkpt>
      <trkpt lat="47.32874" lon="-2.47246">
        <ele>52</ele>
        <time>2019-09-15T09:29:58Z</time>
      </trkpt>
      <trkpt lat="47.32873" lon="-2.47238">
        <ele>52</ele>
        <time>2019-09-15T09:29:59Z</time>
      </trkpt>
      <trkpt lat="47.32871" lon="-2.47229">
        <ele>52</ele>
        <time>2019-09-15T09:30:00Z</time>
      </trkpt>
      <trkpt lat="47.3287" lon="-2.4722">
        <ele>52</ele>
        <time>2019-09-15T09:30:01Z</time>
      </trkpt>
      <trkpt lat="47.32869" lon="-2.47212">
        <ele>52</ele>
        <time>2019-09-15T09:30:02Z</time>
      </trkpt>
      <trkpt lat="47.32868" lon="-2.47203">
        <ele>52</ele>
        <time>2019-09-15T09:30:03Z</time>
      </trkpt>
      <trkpt lat="47.32866" lon="-2.47194">
        <ele>52</ele>
        <time>2019-09-15T09:30:04Z</time>
      </trkpt>
      <trkpt lat="47.32865" lon="-2.47186">
        <ele>52</ele>
        <time>2019-09-15T09:30:05Z</time>
      </trkpt>
      <trkpt lat="47.32863" lon="-2.47169">
        <ele>52</ele>
        <time>2019-09-15T09:30:07Z</time>
      </trkpt>
      <trkpt lat="47.32861" lon="-2.47161">
        <ele>51</ele>
        <time>2019-09-15T09:30:08Z</time>
      </trkpt>
      <trkpt lat="47.3286" lon="-2.47152">
        <ele>51</ele>
        <time>2019-09-15T09:30:09Z</time>
      </trkpt>
      <trkpt lat="47.32859" lon="-2.47143">
        <ele>51</ele>
        <time>2019-09-15T09:30:10Z</time>
      </trkpt>
      <trkpt lat="47.32858" lon="-2.47135">
        <ele>51</ele>
        <time>2019-09-15T09:30:11Z</time>
      </trkpt>
      <trkpt lat="47.32856" lon="-2.47127">
        <ele>51</ele>
        <time>2019-09-15T09:30:12Z</time>
      </trkpt>
      <trkpt lat="47.32854" lon="-2.47118">
        <ele>52</ele>
        <time>2019-09-15T09:30:13Z</time>
      </trkpt>
      <trkpt lat="47.32853" lon="-2.47109">
        <ele>51</ele>
        <time>2019-09-15T09:30:14Z</time>
      </trkpt>
      <trkpt lat="47.32849" lon="-2.47092">
        <ele>51</ele>
        <time>2019-09-15T09:30:16Z</time>
      </trkpt>
      <trkpt lat="47.32845" lon="-2.47074">
        <ele>51</ele>
        <time>2019-09-15T09:30:18Z</time>
      </trkpt>
      <trkpt lat="47.32842" lon="-2.47064">
        <ele>51</ele>
        <time>2019-09-15T09:30:19Z</time>
      </trkpt>
      <trkpt lat="47.3284" lon="-2.47056">
        <ele>51</ele>
        <time>2019-09-15T09:30:20Z</time>
      </trkpt>
      <trkpt lat="47.32837" lon="-2.47047">
        <ele>51</ele>
        <time>2019-09-15T09:30:21Z</time>
      </trkpt>
      <trkpt lat="47.32834" lon="-2.47039">
        <ele>51</ele>
        <time>2019-09-15T09:30:22Z</time>
      </trkpt>
      <trkpt lat="47.32831" lon="-2.4703">
        <ele>51</ele>
        <time>2019-09-15T09:30:23Z</time>
      </trkpt>
      <trkpt lat="47.32829" lon="-2.47022">
        <ele>51</ele>
        <time>2019-09-15T09:30:24Z</time>
      </trkpt>
      <trkpt lat="47.32818" lon="-2.46998">
        <ele>51</ele>
        <time>2019-09-15T09:30:27Z</time>
      </trkpt>
      <trkpt lat="47.32815" lon="-2.46989">
        <ele>52</ele>
        <time>2019-09-15T09:30:28Z</time>
      </trkpt>
      <trkpt lat="47.32812" lon="-2.46981">
        <ele>52</ele>
        <time>2019-09-15T09:30:29Z</time>
      </trkpt>
      <trkpt lat="47.32809" lon="-2.46973">
        <ele>52</ele>
        <time>2019-09-15T09:30:30Z</time>
      </trkpt>
      <trkpt lat="47.32806" lon="-2.46964">
        <ele>52</ele>
        <time>2019-09-15T09:30:31Z</time>
      </trkpt>
      <trkpt lat="47.32803" lon="-2.46956">
        <ele>52</ele>
        <time>2019-09-15T09:30:32Z</time>
      </trkpt>
      <trkpt lat="47.32799" lon="-2.46947">
        <ele>52</ele>
        <time>2019-09-15T09:30:33Z</time>
      </trkpt>
      <trkpt lat="47.32795" lon="-2.46939">
        <ele>52</ele>
        <time>2019-09-15T09:30:34Z</time>
      </trkpt>
      <trkpt lat="47.32792" lon="-2.4693">
        <ele>52</ele>
        <time>2019-09-15T09:30:35Z</time>
      </trkpt>
      <trkpt lat="47.32788" lon="-2.46921">
        <ele>52</ele>
        <time>2019-09-15T09:30:36Z</time>
      </trkpt>
      <trkpt lat="47.32786" lon="-2.46912">
        <ele>52</ele>
        <time>2019-09-15T09:30:37Z</time>
      </trkpt>
      <trkpt lat="47.32784" lon="-2.46902">
        <ele>52</ele>
        <time>2019-09-15T09:30:38Z</time>
      </trkpt>
      <trkpt lat="47.32782" lon="-2.46892">
        <ele>52</ele>
        <time>2019-09-15T09:30:39Z</time>
      </trkpt>
      <trkpt lat="47.3278" lon="-2.46881">
        <ele>51</ele>
        <time>2019-09-15T09:30:40Z</time>
      </trkpt>
      <trkpt lat="47.32778" lon="-2.46872">
        <ele>51</ele>
        <time>2019-09-15T09:30:41Z</time>
      </trkpt>
      <trkpt lat="47.32776" lon="-2.46861">
        <ele>51</ele>
        <time>2019-09-15T09:30:42Z</time>
      </trkpt>
      <trkpt lat="47.32774" lon="-2.46851">
        <ele>51</ele>
        <time>2019-09-15T09:30:43Z</time>
      </trkpt>
      <trkpt lat="47.32771" lon="-2.46842">
        <ele>51</ele>
        <time>2019-09-15T09:30:44Z</time>
      </trkpt>
      <trkpt lat="47.32768" lon="-2.46832">
        <ele>51</ele>
        <time>2019-09-15T09:30:45Z</time>
      </trkpt>
      <trkpt lat="47.32765" lon="-2.46823">
        <ele>51</ele>
        <time>2019-09-15T09:30:46Z</time>
      </trkpt>
      <trkpt lat="47.32761" lon="-2.46814">
        <ele>51</ele>
        <time>2019-09-15T09:30:47Z</time>
      </trkpt>
      <trkpt lat="47.32757" lon="-2.46805">
        <ele>51</ele>
        <time>2019-09-15T09:30:48Z</time>
      </trkpt>
      <trkpt lat="47.32753" lon="-2.46796">
        <ele>51</ele>
        <time>2019-09-15T09:30:49Z</time>
      </trkpt>
      <trkpt lat="47.32749" lon="-2.46788">
        <ele>51</ele>
        <time>2019-09-15T09:30:50Z</time>
      </trkpt>
      <trkpt lat="47.32744" lon="-2.46781">
        <ele>51</ele>
        <time>2019-09-15T09:30:51Z</time>
      </trkpt>
      <trkpt lat="47.32741" lon="-2.46773">
        <ele>51</ele>
        <time>2019-09-15T09:30:52Z</time>
      </trkpt>
      <trkpt lat="47.32736" lon="-2.46765">
        <ele>51</ele>
        <time>2019-09-15T09:30:53Z</time>
      </trkpt>
      <trkpt lat="47.32731" lon="-2.46756">
        <ele>51</ele>
        <time>2019-09-15T09:30:54Z</time>
      </trkpt>
      <trkpt lat="47.32726" lon="-2.46747">
        <ele>51</ele>
        <time>2019-09-15T09:30:55Z</time>
      </trkpt>
      <trkpt lat="47.32721" lon="-2.46739">
        <ele>51</ele>
        <time>2019-09-15T09:30:56Z</time>
      </trkpt>
      <trkpt lat="47.32716" lon="-2.46732">
        <ele>51</ele>
        <time>2019-09-15T09:30:57Z</time>
      </trkpt>
      <trkpt lat="47.3271" lon="-2.46725">
        <ele>51</ele>
        <time>2019-09-15T09:30:58Z</time>
      </trkpt>
      <trkpt lat="47.32699" lon="-2.46712">
        <ele>51</ele>
        <time>2019-09-15T09:31:00Z</time>
      </trkpt>
      <trkpt lat="47.32693" lon="-2.46706">
        <ele>51</ele>
        <time>2019-09-15T09:31:01Z</time>
      </trkpt>
      <trkpt lat="47.32687" lon="-2.467">
        <ele>51</ele>
        <time>2019-09-15T09:31:02Z</time>
      </trkpt>
      <trkpt lat="47.32681" lon="-2.46695">
        <ele>51</ele>
        <time>2019-09-15T09:31:03Z</time>
      </trkpt>
      <trkpt lat="47.32674" lon="-2.4669">
        <ele>51</ele>
        <time>2019-09-15T09:31:04Z</time>
      </trkpt>
      <trkpt lat="47.32668" lon="-2.46686">
        <ele>51</ele>
        <time>2019-09-15T09:31:05Z</time>
      </trkpt>
      <trkpt lat="47.32661" lon="-2.46682">
        <ele>51</ele>
        <time>2019-09-15T09:31:06Z</time>
      </trkpt>
      <trkpt lat="47.32655" lon="-2.46678">
        <ele>51</ele>
        <time>2019-09-15T09:31:07Z</time>
      </trkpt>
      <trkpt lat="47.32648" lon="-2.46673">
        <ele>51</ele>
        <time>2019-09-15T09:31:08Z</time>
      </trkpt>
      <trkpt lat="47.32641" lon="-2.46669">
        <ele>51</ele>
        <time>2019-09-15T09:31:09Z</time>
      </trkpt>
      <trkpt lat="47.32635" lon="-2.46664">
        <ele>51</ele>
        <time>2019-09-15T09:31:10Z</time>
      </trkpt>
      <trkpt lat="47.32629" lon="-2.46658">
        <ele>52</ele>
        <time>2019-09-15T09:31:11Z</time>
      </trkpt>
      <trkpt lat="47.32623" lon="-2.46652">
        <ele>52</ele>
        <time>2019-09-15T09:31:12Z</time>
      </trkpt>
      <trkpt lat="47.32618" lon="-2.46644">
        <ele>52</ele>
        <time>2019-09-15T09:31:13Z</time>
      </trkpt>
      <trkpt lat="47.32613" lon="-2.46636">
        <ele>52</ele>
        <time>2019-09-15T09:31:14Z</time>
      </trkpt>
      <trkpt lat="47.32609" lon="-2.46628">
        <ele>51</ele>
        <time>2019-09-15T09:31:15Z</time>
      </trkpt>
      <trkpt lat="47.32604" lon="-2.4662">
        <ele>52</ele>
        <time>2019-09-15T09:31:16Z</time>
      </trkpt>
      <trkpt lat="47.32599" lon="-2.46611">
        <ele>51</ele>
        <time>2019-09-15T09:31:17Z</time>
      </trkpt>
      <trkpt lat="47.32594" lon="-2.46602">
        <ele>51</ele>
        <time>2019-09-15T09:31:18Z</time>
      </trkpt>
      <trkpt lat="47.3259" lon="-2.46594">
        <ele>52</ele>
        <time>2019-09-15T09:31:19Z</time>
      </trkpt>
      <trkpt lat="47.32585" lon="-2.46586">
        <ele>51</ele>
        <time>2019-09-15T09:31:20Z</time>
      </trkpt>
      <trkpt lat="47.3258" lon="-2.46578">
        <ele>51</ele>
        <time>2019-09-15T09:31:21Z</time>
      </trkpt>
      <trkpt lat="47.32575" lon="-2.4657">
        <ele>51</ele>
        <time>2019-09-15T09:31:22Z</time>
      </trkpt>
      <trkpt lat="47.32569" lon="-2.46563">
        <ele>51</ele>
        <time>2019-09-15T09:31:23Z</time>
      </trkpt>
      <trkpt lat="47.32563" lon="-2.46556">
        <ele>51</ele>
        <time>2019-09-15T09:31:24Z</time>
      </trkpt>
      <trkpt lat="47.32558" lon="-2.46549">
        <ele>51</ele>
        <time>2019-09-15T09:31:25Z</time>
      </trkpt>
      <trkpt lat="47.32552" lon="-2.46543">
        <ele>52</ele>
        <time>2019-09-15T09:31:26Z</time>
      </trkpt>
      <trkpt lat="47.32547" lon="-2.46536">
        <ele>51</ele>
        <time>2019-09-15T09:31:27Z</time>
      </trkpt>
      <trkpt lat="47.32542" lon="-2.46529">
        <ele>52</ele>
        <time>2019-09-15T09:31:28Z</time>
      </trkpt>
      <trkpt lat="47.32538" lon="-2.46522">
        <ele>52</ele>
        <time>2019-09-15T09:31:29Z</time>
      </trkpt>
      <trkpt lat="47.32534" lon="-2.46513">
        <ele>51</ele>
        <time>2019-09-15T09:31:30Z</time>
      </trkpt>
      <trkpt lat="47.32523" lon="-2.46487">
        <ele>51</ele>
        <time>2019-09-15T09:31:33Z</time>
      </trkpt>
      <trkpt lat="47.3252" lon="-2.46479">
        <ele>51</ele>
        <time>2019-09-15T09:31:34Z</time>
      </trkpt>
      <trkpt lat="47.32516" lon="-2.4647">
        <ele>51</ele>
        <time>2019-09-15T09:31:35Z</time>
      </trkpt>
      <trkpt lat="47.32512" lon="-2.46461">
        <ele>51</ele>
        <time>2019-09-15T09:31:36Z</time>
      </trkpt>
      <trkpt lat="47.32508" lon="-2.46452">
        <ele>51</ele>
        <time>2019-09-15T09:31:37Z</time>
      </trkpt>
      <trkpt lat="47.32504" lon="-2.46444">
        <ele>51</ele>
        <time>2019-09-15T09:31:38Z</time>
      </trkpt>
      <trkpt lat="47.32499" lon="-2.46436">
        <ele>51</ele>
        <time>2019-09-15T09:31:39Z</time>
      </trkpt>
      <trkpt lat="47.32494" lon="-2.46428">
        <ele>51</ele>
        <time>2019-09-15T09:31:40Z</time>
      </trkpt>
      <trkpt lat="47.32489" lon="-2.46421">
        <ele>51</ele>
        <time>2019-09-15T09:31:41Z</time>
      </trkpt>
      <trkpt lat="47.32483" lon="-2.46414">
        <ele>50</ele>
        <time>2019-09-15T09:31:42Z</time>
      </trkpt>
      <trkpt lat="47.32478" lon="-2.46406">
        <ele>50</ele>
        <time>2019-09-15T09:31:43Z</time>
      </trkpt>
      <trkpt lat="47.32473" lon="-2.46399">
        <ele>50</ele>
        <time>2019-09-15T09:31:44Z</time>
      </trkpt>
      <trkpt lat="47.32468" lon="-2.46392">
        <ele>50</ele>
        <time>2019-09-15T09:31:45Z</time>
      </trkpt>
      <trkpt lat="47.32463" lon="-2.46384">
        <ele>50</ele>
        <time>2019-09-15T09:31:46Z</time>
      </trkpt>
      <trkpt lat="47.32458" lon="-2.46376">
        <ele>50</ele>
        <time>2019-09-15T09:31:47Z</time>
      </trkpt>
      <trkpt lat="47.32453" lon="-2.46368">
        <ele>50</ele>
        <time>2019-09-15T09:31:48Z</time>
      </trkpt>
      <trkpt lat="47.32449" lon="-2.4636">
        <ele>51</ele>
        <time>2019-09-15T09:31:49Z</time>
      </trkpt>
      <trkpt lat="47.32445" lon="-2.46351">
        <ele>50</ele>
        <time>2019-09-15T09:31:50Z</time>
      </trkpt>
      <trkpt lat="47.32442" lon="-2.46342">
        <ele>51</ele>
        <time>2019-09-15T09:31:51Z</time>
      </trkpt>
      <trkpt lat="47.32439" lon="-2.46332">
        <ele>50</ele>
        <time>2019-09-15T09:31:52Z</time>
      </trkpt>
      <trkpt lat="47.32435" lon="-2.46323">
        <ele>51</ele>
        <time>2019-09-15T09:31:53Z</time>
      </trkpt>
      <trkpt lat="47.32432" lon="-2.46314">
        <ele>50</ele>
        <time>2019-09-15T09:31:54Z</time>
      </trkpt>
      <trkpt lat="47.32429" lon="-2.46305">
        <ele>50</ele>
        <time>2019-09-15T09:31:55Z</time>
      </trkpt>
      <trkpt lat="47.32426" lon="-2.46295">
        <ele>51</ele>
        <time>2019-09-15T09:31:56Z</time>
      </trkpt>
      <trkpt lat="47.32423" lon="-2.46286">
        <ele>51</ele>
        <time>2019-09-15T09:31:57Z</time>
      </trkpt>
      <trkpt lat="47.32419" lon="-2.46278">
        <ele>51</ele>
        <time>2019-09-15T09:31:58Z</time>
      </trkpt>
      <trkpt lat="47.32415" lon="-2.46269">
        <ele>51</ele>
        <time>2019-09-15T09:31:59Z</time>
      </trkpt>
      <trkpt lat="47.3241" lon="-2.46261">
        <ele>50</ele>
        <time>2019-09-15T09:32:00Z</time>
      </trkpt>
      <trkpt lat="47.32405" lon="-2.46253">
        <ele>50</ele>
        <time>2019-09-15T09:32:01Z</time>
      </trkpt>
      <trkpt lat="47.32396" lon="-2.46237">
        <ele>51</ele>
        <time>2019-09-15T09:32:03Z</time>
      </trkpt>
      <trkpt lat="47.32391" lon="-2.46229">
        <ele>51</ele>
        <time>2019-09-15T09:32:04Z</time>
      </trkpt>
      <trkpt lat="47.32387" lon="-2.46221">
        <ele>51</ele>
        <time>2019-09-15T09:32:05Z</time>
      </trkpt>
      <trkpt lat="47.32383" lon="-2.46213">
        <ele>51</ele>
        <time>2019-09-15T09:32:06Z</time>
      </trkpt>
      <trkpt lat="47.32379" lon="-2.46205">
        <ele>50</ele>
        <time>2019-09-15T09:32:07Z</time>
      </trkpt>
      <trkpt lat="47.32374" lon="-2.46196">
        <ele>50</ele>
        <time>2019-09-15T09:32:08Z</time>
      </trkpt>
      <trkpt lat="47.3236" lon="-2.46173">
        <ele>50</ele>
        <time>2019-09-15T09:32:11Z</time>
      </trkpt>
      <trkpt lat="47.32355" lon="-2.46166">
        <ele>50</ele>
        <time>2019-09-15T09:32:12Z</time>
      </trkpt>
      <trkpt lat="47.3235" lon="-2.46159">
        <ele>50</ele>
        <time>2019-09-15T09:32:13Z</time>
      </trkpt>
      <trkpt lat="47.32346" lon="-2.46152">
        <ele>50</ele>
        <time>2019-09-15T09:32:14Z</time>
      </trkpt>
      <trkpt lat="47.32341" lon="-2.46146">
        <ele>51</ele>
        <time>2019-09-15T09:32:15Z</time>
      </trkpt>
      <trkpt lat="47.32337" lon="-2.46139">
        <ele>51</ele>
        <time>2019-09-15T09:32:16Z</time>
      </trkpt>
      <trkpt lat="47.32332" lon="-2.46132">
        <ele>50</ele>
        <time>2019-09-15T09:32:17Z</time>
      </trkpt>
      <trkpt lat="47.32319" lon="-2.46111">
        <ele>50</ele>
        <time>2019-09-15T09:32:20Z</time>
      </trkpt>
      <trkpt lat="47.32314" lon="-2.46104">
        <ele>50</ele>
        <time>2019-09-15T09:32:21Z</time>
      </trkpt>
      <trkpt lat="47.3231" lon="-2.46096">
        <ele>50</ele>
        <time>2019-09-15T09:32:22Z</time>
      </trkpt>
      <trkpt lat="47.32297" lon="-2.46073">
        <ele>50</ele>
        <time>2019-09-15T09:32:25Z</time>
      </trkpt>
      <trkpt lat="47.32293" lon="-2.46065">
        <ele>50</ele>
        <time>2019-09-15T09:32:26Z</time>
      </trkpt>
      <trkpt lat="47.32286" lon="-2.46049">
        <ele>51</ele>
        <time>2019-09-15T09:32:27Z</time>
      </trkpt>
      <trkpt lat="47.32282" lon="-2.46041">
        <ele>51</ele>
        <time>2019-09-15T09:32:29Z</time>
      </trkpt>
      <trkpt lat="47.32278" lon="-2.46033">
        <ele>51</ele>
        <time>2019-09-15T09:32:30Z</time>
      </trkpt>
      <trkpt lat="47.32275" lon="-2.46024">
        <ele>51</ele>
        <time>2019-09-15T09:32:31Z</time>
      </trkpt>
      <trkpt lat="47.32271" lon="-2.46016">
        <ele>51</ele>
        <time>2019-09-15T09:32:32Z</time>
      </trkpt>
      <trkpt lat="47.32268" lon="-2.46007">
        <ele>51</ele>
        <time>2019-09-15T09:32:33Z</time>
      </trkpt>
      <trkpt lat="47.32264" lon="-2.45999">
        <ele>51</ele>
        <time>2019-09-15T09:32:34Z</time>
      </trkpt>
      <trkpt lat="47.3226" lon="-2.45992">
        <ele>51</ele>
        <time>2019-09-15T09:32:35Z</time>
      </trkpt>
      <trkpt lat="47.32255" lon="-2.45985">
        <ele>51</ele>
        <time>2019-09-15T09:32:36Z</time>
      </trkpt>
      <trkpt lat="47.32249" lon="-2.4598">
        <ele>51</ele>
        <time>2019-09-15T09:32:37Z</time>
      </trkpt>
      <trkpt lat="47.32244" lon="-2.45974">
        <ele>51</ele>
        <time>2019-09-15T09:32:38Z</time>
      </trkpt>
      <trkpt lat="47.32238" lon="-2.45968">
        <ele>50</ele>
        <time>2019-09-15T09:32:39Z</time>
      </trkpt>
      <trkpt lat="47.32232" lon="-2.45961">
        <ele>51</ele>
        <time>2019-09-15T09:32:40Z</time>
      </trkpt>
      <trkpt lat="47.32227" lon="-2.45953">
        <ele>51</ele>
        <time>2019-09-15T09:32:41Z</time>
      </trkpt>
      <trkpt lat="47.32223" lon="-2.45946">
        <ele>51</ele>
        <time>2019-09-15T09:32:42Z</time>
      </trkpt>
      <trkpt lat="47.32219" lon="-2.45937">
        <ele>51</ele>
        <time>2019-09-15T09:32:43Z</time>
      </trkpt>
      <trkpt lat="47.32215" lon="-2.45928">
        <ele>51</ele>
        <time>2019-09-15T09:32:44Z</time>
      </trkpt>
      <trkpt lat="47.32212" lon="-2.45918">
        <ele>52</ele>
        <time>2019-09-15T09:32:45Z</time>
      </trkpt>
      <trkpt lat="47.32208" lon="-2.45909">
        <ele>52</ele>
        <time>2019-09-15T09:32:46Z</time>
      </trkpt>
      <trkpt lat="47.32205" lon="-2.45899">
        <ele>52</ele>
        <time>2019-09-15T09:32:47Z</time>
      </trkpt>
      <trkpt lat="47.32201" lon="-2.4589">
        <ele>52</ele>
        <time>2019-09-15T09:32:48Z</time>
      </trkpt>
      <trkpt lat="47.32198" lon="-2.45881">
        <ele>52</ele>
        <time>2019-09-15T09:32:49Z</time>
      </trkpt>
      <trkpt lat="47.32194" lon="-2.45871">
        <ele>52</ele>
        <time>2019-09-15T09:32:50Z</time>
      </trkpt>
      <trkpt lat="47.3219" lon="-2.45863">
        <ele>52</ele>
        <time>2019-09-15T09:32:51Z</time>
      </trkpt>
      <trkpt lat="47.32187" lon="-2.45854">
        <ele>52</ele>
        <time>2019-09-15T09:32:52Z</time>
      </trkpt>
      <trkpt lat="47.32183" lon="-2.45846">
        <ele>52</ele>
        <time>2019-09-15T09:32:53Z</time>
      </trkpt>
      <trkpt lat="47.32179" lon="-2.45839">
        <ele>52</ele>
        <time>2019-09-15T09:32:54Z</time>
      </trkpt>
      <trkpt lat="47.32175" lon="-2.45831">
        <ele>52</ele>
        <time>2019-09-15T09:32:55Z</time>
      </trkpt>
      <trkpt lat="47.32171" lon="-2.45824">
        <ele>52</ele>
        <time>2019-09-15T09:32:56Z</time>
      </trkpt>
      <trkpt lat="47.32167" lon="-2.45816">
        <ele>51</ele>
        <time>2019-09-15T09:32:57Z</time>
      </trkpt>
      <trkpt lat="47.32163" lon="-2.45809">
        <ele>51</ele>
        <time>2019-09-15T09:32:58Z</time>
      </trkpt>
      <trkpt lat="47.32155" lon="-2.45794">
        <ele>51</ele>
        <time>2019-09-15T09:33:00Z</time>
      </trkpt>
      <trkpt lat="47.32151" lon="-2.45787">
        <ele>51</ele>
        <time>2019-09-15T09:33:01Z</time>
      </trkpt>
      <trkpt lat="47.32146" lon="-2.4578">
        <ele>51</ele>
        <time>2019-09-15T09:33:02Z</time>
      </trkpt>
      <trkpt lat="47.32141" lon="-2.45773">
        <ele>51</ele>
        <time>2019-09-15T09:33:03Z</time>
      </trkpt>
      <trkpt lat="47.32136" lon="-2.45767">
        <ele>51</ele>
        <time>2019-09-15T09:33:04Z</time>
      </trkpt>
      <trkpt lat="47.3213" lon="-2.45762">
        <ele>51</ele>
        <time>2019-09-15T09:33:05Z</time>
      </trkpt>
      <trkpt lat="47.32124" lon="-2.45758">
        <ele>50</ele>
        <time>2019-09-15T09:33:06Z</time>
      </trkpt>
      <trkpt lat="47.32118" lon="-2.45754">
        <ele>50</ele>
        <time>2019-09-15T09:33:07Z</time>
      </trkpt>
      <trkpt lat="47.32111" lon="-2.4575">
        <ele>50</ele>
        <time>2019-09-15T09:33:08Z</time>
      </trkpt>
      <trkpt lat="47.32104" lon="-2.45747">
        <ele>50</ele>
        <time>2019-09-15T09:33:09Z</time>
      </trkpt>
      <trkpt lat="47.32097" lon="-2.45744">
        <ele>50</ele>
        <time>2019-09-15T09:33:10Z</time>
      </trkpt>
      <trkpt lat="47.32091" lon="-2.45742">
        <ele>50</ele>
        <time>2019-09-15T09:33:11Z</time>
      </trkpt>
      <trkpt lat="47.32084" lon="-2.4574">
        <ele>50</ele>
        <time>2019-09-15T09:33:12Z</time>
      </trkpt>
      <trkpt lat="47.32077" lon="-2.45737">
        <ele>50</ele>
        <time>2019-09-15T09:33:13Z</time>
      </trkpt>
      <trkpt lat="47.32071" lon="-2.45733">
        <ele>50</ele>
        <time>2019-09-15T09:33:14Z</time>
      </trkpt>
      <trkpt lat="47.32064" lon="-2.45729">
        <ele>50</ele>
        <time>2019-09-15T09:33:15Z</time>
      </trkpt>
      <trkpt lat="47.32058" lon="-2.45724">
        <ele>50</ele>
        <time>2019-09-15T09:33:16Z</time>
      </trkpt>
      <trkpt lat="47.32052" lon="-2.4572">
        <ele>50</ele>
        <time>2019-09-15T09:33:17Z</time>
      </trkpt>
      <trkpt lat="47.32046" lon="-2.45715">
        <ele>50</ele>
        <time>2019-09-15T09:33:18Z</time>
      </trkpt>
      <trkpt lat="47.3204" lon="-2.4571">
        <ele>51</ele>
        <time>2019-09-15T09:33:19Z</time>
      </trkpt>
      <trkpt lat="47.32034" lon="-2.45706">
        <ele>51</ele>
        <time>2019-09-15T09:33:20Z</time>
      </trkpt>
      <trkpt lat="47.32015" lon="-2.45692">
        <ele>51</ele>
        <time>2019-09-15T09:33:23Z</time>
      </trkpt>
      <trkpt lat="47.32009" lon="-2.45687">
        <ele>50</ele>
        <time>2019-09-15T09:33:24Z</time>
      </trkpt>
      <trkpt lat="47.32003" lon="-2.45683">
        <ele>50</ele>
        <time>2019-09-15T09:33:25Z</time>
      </trkpt>
      <trkpt lat="47.31998" lon="-2.45677">
        <ele>51</ele>
        <time>2019-09-15T09:33:26Z</time>
      </trkpt>
      <trkpt lat="47.31993" lon="-2.45671">
        <ele>51</ele>
        <time>2019-09-15T09:33:27Z</time>
      </trkpt>
      <trkpt lat="47.31988" lon="-2.45664">
        <ele>51</ele>
        <time>2019-09-15T09:33:28Z</time>
      </trkpt>
      <trkpt lat="47.31984" lon="-2.45657">
        <ele>51</ele>
        <time>2019-09-15T09:33:29Z</time>
      </trkpt>
      <trkpt lat="47.31979" lon="-2.4565">
        <ele>50</ele>
        <time>2019-09-15T09:33:30Z</time>
      </trkpt>
      <trkpt lat="47.31975" lon="-2.45642">
        <ele>50</ele>
        <time>2019-09-15T09:33:31Z</time>
      </trkpt>
      <trkpt lat="47.31971" lon="-2.45634">
        <ele>51</ele>
        <time>2019-09-15T09:33:32Z</time>
      </trkpt>
      <trkpt lat="47.31967" lon="-2.45627">
        <ele>50</ele>
        <time>2019-09-15T09:33:33Z</time>
      </trkpt>
      <trkpt lat="47.31963" lon="-2.45618">
        <ele>50</ele>
        <time>2019-09-15T09:33:34Z</time>
      </trkpt>
      <trkpt lat="47.31958" lon="-2.4561">
        <ele>50</ele>
        <time>2019-09-15T09:33:35Z</time>
      </trkpt>
      <trkpt lat="47.31955" lon="-2.45602">
        <ele>50</ele>
        <time>2019-09-15T09:33:36Z</time>
      </trkpt>
      <trkpt lat="47.31952" lon="-2.45594">
        <ele>50</ele>
        <time>2019-09-15T09:33:37Z</time>
      </trkpt>
      <trkpt lat="47.31949" lon="-2.45586">
        <ele>50</ele>
        <time>2019-09-15T09:33:38Z</time>
      </trkpt>
      <trkpt lat="47.31946" lon="-2.45578">
        <ele>50</ele>
        <time>2019-09-15T09:33:39Z</time>
      </trkpt>
      <trkpt lat="47.31943" lon="-2.4557">
        <ele>50</ele>
        <time>2019-09-15T09:33:40Z</time>
      </trkpt>
      <trkpt lat="47.3194" lon="-2.45561">
        <ele>50</ele>
        <time>2019-09-15T09:33:41Z</time>
      </trkpt>
      <trkpt lat="47.31936" lon="-2.45554">
        <ele>50</ele>
        <time>2019-09-15T09:33:42Z</time>
      </trkpt>
      <trkpt lat="47.31933" lon="-2.45546">
        <ele>51</ele>
        <time>2019-09-15T09:33:43Z</time>
      </trkpt>
      <trkpt lat="47.31928" lon="-2.45539">
        <ele>51</ele>
        <time>2019-09-15T09:33:44Z</time>
      </trkpt>
      <trkpt lat="47.31923" lon="-2.45532">
        <ele>51</ele>
        <time>2019-09-15T09:33:45Z</time>
      </trkpt>
      <trkpt lat="47.31919" lon="-2.45526">
        <ele>51</ele>
        <time>2019-09-15T09:33:46Z</time>
      </trkpt>
      <trkpt lat="47.31914" lon="-2.45519">
        <ele>51</ele>
        <time>2019-09-15T09:33:47Z</time>
      </trkpt>
      <trkpt lat="47.31909" lon="-2.45513">
        <ele>51</ele>
        <time>2019-09-15T09:33:48Z</time>
      </trkpt>
      <trkpt lat="47.31904" lon="-2.45507">
        <ele>51</ele>
        <time>2019-09-15T09:33:49Z</time>
      </trkpt>
      <trkpt lat="47.31899" lon="-2.45501">
        <ele>50</ele>
        <time>2019-09-15T09:33:50Z</time>
      </trkpt>
      <trkpt lat="47.31894" lon="-2.45494">
        <ele>50</ele>
        <time>2019-09-15T09:33:51Z</time>
      </trkpt>
      <trkpt lat="47.31885" lon="-2.45481">
        <ele>50</ele>
        <time>2019-09-15T09:33:53Z</time>
      </trkpt>
      <trkpt lat="47.31872" lon="-2.4546">
        <ele>50</ele>
        <time>2019-09-15T09:33:56Z</time>
      </trkpt>
      <trkpt lat="47.31868" lon="-2.45454">
        <ele>50</ele>
        <time>2019-09-15T09:33:57Z</time>
      </trkpt>
      <trkpt lat="47.31864" lon="-2.45447">
        <ele>50</ele>
        <time>2019-09-15T09:33:58Z</time>
      </trkpt>
      <trkpt lat="47.31859" lon="-2.45441">
        <ele>50</ele>
        <time>2019-09-15T09:33:59Z</time>
      </trkpt>
      <trkpt lat="47.31854" lon="-2.45434">
        <ele>50</ele>
        <time>2019-09-15T09:34:00Z</time>
      </trkpt>
      <trkpt lat="47.3185" lon="-2.45427">
        <ele>50</ele>
        <time>2019-09-15T09:34:01Z</time>
      </trkpt>
      <trkpt lat="47.31846" lon="-2.4542">
        <ele>50</ele>
        <time>2019-09-15T09:34:02Z</time>
      </trkpt>
      <trkpt lat="47.31842" lon="-2.45413">
        <ele>50</ele>
        <time>2019-09-15T09:34:03Z</time>
      </trkpt>
      <trkpt lat="47.31837" lon="-2.45407">
        <ele>50</ele>
        <time>2019-09-15T09:34:04Z</time>
      </trkpt>
      <trkpt lat="47.31833" lon="-2.45399">
        <ele>50</ele>
        <time>2019-09-15T09:34:05Z</time>
      </trkpt>
      <trkpt lat="47.31828" lon="-2.45392">
        <ele>50</ele>
        <time>2019-09-15T09:34:06Z</time>
      </trkpt>
      <trkpt lat="47.31824" lon="-2.45385">
        <ele>49</ele>
        <time>2019-09-15T09:34:07Z</time>
      </trkpt>
      <trkpt lat="47.31819" lon="-2.45378">
        <ele>49</ele>
        <time>2019-09-15T09:34:08Z</time>
      </trkpt>
      <trkpt lat="47.31815" lon="-2.45372">
        <ele>49</ele>
        <time>2019-09-15T09:34:09Z</time>
      </trkpt>
      <trkpt lat="47.3181" lon="-2.45366">
        <ele>49</ele>
        <time>2019-09-15T09:34:10Z</time>
      </trkpt>
      <trkpt lat="47.31805" lon="-2.4536">
        <ele>49</ele>
        <time>2019-09-15T09:34:11Z</time>
      </trkpt>
      <trkpt lat="47.31801" lon="-2.45355">
        <ele>49</ele>
        <time>2019-09-15T09:34:12Z</time>
      </trkpt>
      <trkpt lat="47.31796" lon="-2.45351">
        <ele>50</ele>
        <time>2019-09-15T09:34:13Z</time>
      </trkpt>
      <trkpt lat="47.31791" lon="-2.45347">
        <ele>50</ele>
        <time>2019-09-15T09:34:14Z</time>
      </trkpt>
      <trkpt lat="47.31786" lon="-2.45344">
        <ele>50</ele>
        <time>2019-09-15T09:34:15Z</time>
      </trkpt>
      <trkpt lat="47.31782" lon="-2.45341">
        <ele>50</ele>
        <time>2019-09-15T09:34:16Z</time>
      </trkpt>
      <trkpt lat="47.31777" lon="-2.45337">
        <ele>50</ele>
        <time>2019-09-15T09:34:17Z</time>
      </trkpt>
      <trkpt lat="47.3177" lon="-2.45328">
        <ele>50</ele>
        <time>2019-09-15T09:34:19Z</time>
      </trkpt>
      <trkpt lat="47.31768" lon="-2.45321">
        <ele>50</ele>
        <time>2019-09-15T09:34:20Z</time>
      </trkpt>
      <trkpt lat="47.31769" lon="-2.45309">
        <ele>50</ele>
        <time>2019-09-15T09:34:22Z</time>
      </trkpt>
      <trkpt lat="47.31777" lon="-2.45298">
        <ele>50</ele>
        <time>2019-09-15T09:34:24Z</time>
      </trkpt>
      <trkpt lat="47.3178" lon="-2.45293">
        <ele>50</ele>
        <time>2019-09-15T09:34:25Z</time>
      </trkpt>
      <trkpt lat="47.31784" lon="-2.45288">
        <ele>50</ele>
        <time>2019-09-15T09:34:26Z</time>
      </trkpt>
      <trkpt lat="47.31788" lon="-2.45284">
        <ele>50</ele>
        <time>2019-09-15T09:34:27Z</time>
      </trkpt>
      <trkpt lat="47.31791" lon="-2.45279">
        <ele>50</ele>
        <time>2019-09-15T09:34:28Z</time>
      </trkpt>
      <trkpt lat="47.31795" lon="-2.45274">
        <ele>50</ele>
        <time>2019-09-15T09:34:29Z</time>
      </trkpt>
      <trkpt lat="47.31798" lon="-2.45269">
        <ele>50</ele>
        <time>2019-09-15T09:34:30Z</time>
      </trkpt>
      <trkpt lat="47.31806" lon="-2.45258">
        <ele>50</ele>
        <time>2019-09-15T09:34:32Z</time>
      </trkpt>
      <trkpt lat="47.31809" lon="-2.45253">
        <ele>50</ele>
        <time>2019-09-15T09:34:33Z</time>
      </trkpt>
      <trkpt lat="47.31813" lon="-2.45248">
        <ele>50</ele>
        <time>2019-09-15T09:34:34Z</time>
      </trkpt>
      <trkpt lat="47.31816" lon="-2.45243">
        <ele>50</ele>
        <time>2019-09-15T09:34:35Z</time>
      </trkpt>
      <trkpt lat="47.3182" lon="-2.45239">
        <ele>50</ele>
        <time>2019-09-15T09:34:36Z</time>
      </trkpt>
      <trkpt lat="47.31824" lon="-2.45234">
        <ele>51</ele>
        <time>2019-09-15T09:34:37Z</time>
      </trkpt>
      <trkpt lat="47.31827" lon="-2.45228">
        <ele>51</ele>
        <time>2019-09-15T09:34:38Z</time>
      </trkpt>
      <trkpt lat="47.31831" lon="-2.45224">
        <ele>51</ele>
        <time>2019-09-15T09:34:39Z</time>
      </trkpt>
      <trkpt lat="47.31835" lon="-2.45219">
        <ele>51</ele>
        <time>2019-09-15T09:34:40Z</time>
      </trkpt>
      <trkpt lat="47.31839" lon="-2.45214">
        <ele>50</ele>
        <time>2019-09-15T09:34:41Z</time>
      </trkpt>
      <trkpt lat="47.31842" lon="-2.4521">
        <ele>50</ele>
        <time>2019-09-15T09:34:42Z</time>
      </trkpt>
      <trkpt lat="47.31846" lon="-2.45206">
        <ele>51</ele>
        <time>2019-09-15T09:34:43Z</time>
      </trkpt>
      <trkpt lat="47.3185" lon="-2.45201">
        <ele>51</ele>
        <time>2019-09-15T09:34:44Z</time>
      </trkpt>
      <trkpt lat="47.31854" lon="-2.45197">
        <ele>51</ele>
        <time>2019-09-15T09:34:45Z</time>
      </trkpt>
      <trkpt lat="47.31857" lon="-2.45192">
        <ele>51</ele>
        <time>2019-09-15T09:34:46Z</time>
      </trkpt>
      <trkpt lat="47.31858" lon="-2.45179">
        <ele>51</ele>
        <time>2019-09-15T09:34:48Z</time>
      </trkpt>
      <trkpt lat="47.31858" lon="-2.45172">
        <ele>51</ele>
        <time>2019-09-15T09:34:49Z</time>
      </trkpt>
      <trkpt lat="47.31855" lon="-2.45149">
        <ele>51</ele>
        <time>2019-09-15T09:34:52Z</time>
      </trkpt>
      <trkpt lat="47.31854" lon="-2.4514">
        <ele>50</ele>
        <time>2019-09-15T09:34:53Z</time>
      </trkpt>
      <trkpt lat="47.31852" lon="-2.45132">
        <ele>50</ele>
        <time>2019-09-15T09:34:54Z</time>
      </trkpt>
      <trkpt lat="47.3185" lon="-2.45125">
        <ele>51</ele>
        <time>2019-09-15T09:34:55Z</time>
      </trkpt>
      <trkpt lat="47.31849" lon="-2.45117">
        <ele>50</ele>
        <time>2019-09-15T09:34:56Z</time>
      </trkpt>
      <trkpt lat="47.31846" lon="-2.4511">
        <ele>50</ele>
        <time>2019-09-15T09:34:57Z</time>
      </trkpt>
      <trkpt lat="47.3184" lon="-2.45089">
        <ele>50</ele>
        <time>2019-09-15T09:35:00Z</time>
      </trkpt>
      <trkpt lat="47.31837" lon="-2.45082">
        <ele>50</ele>
        <time>2019-09-15T09:35:01Z</time>
      </trkpt>
      <trkpt lat="47.31835" lon="-2.45076">
        <ele>50</ele>
        <time>2019-09-15T09:35:02Z</time>
      </trkpt>
      <trkpt lat="47.31833" lon="-2.45069">
        <ele>50</ele>
        <time>2019-09-15T09:35:03Z</time>
      </trkpt>
      <trkpt lat="47.31829" lon="-2.45057">
        <ele>50</ele>
        <time>2019-09-15T09:35:05Z</time>
      </trkpt>
      <trkpt lat="47.31827" lon="-2.4505">
        <ele>51</ele>
        <time>2019-09-15T09:35:06Z</time>
      </trkpt>
      <trkpt lat="47.31825" lon="-2.45043">
        <ele>51</ele>
        <time>2019-09-15T09:35:07Z</time>
      </trkpt>
      <trkpt lat="47.31823" lon="-2.45036">
        <ele>50</ele>
        <time>2019-09-15T09:35:08Z</time>
      </trkpt>
      <trkpt lat="47.31819" lon="-2.45022">
        <ele>50</ele>
        <time>2019-09-15T09:35:10Z</time>
      </trkpt>
      <trkpt lat="47.31812" lon="-2.45002">
        <ele>51</ele>
        <time>2019-09-15T09:35:12Z</time>
      </trkpt>
      <trkpt lat="47.31804" lon="-2.44981">
        <ele>51</ele>
        <time>2019-09-15T09:35:16Z</time>
      </trkpt>
      <trkpt lat="47.318" lon="-2.44973">
        <ele>52</ele>
        <time>2019-09-15T09:35:19Z</time>
      </trkpt>
      <trkpt lat="47.31797" lon="-2.44967">
        <ele>52</ele>
        <time>2019-09-15T09:35:20Z</time>
      </trkpt>
      <trkpt lat="47.31789" lon="-2.4495">
        <ele>52</ele>
        <time>2019-09-15T09:35:23Z</time>
      </trkpt>
      <trkpt lat="47.31786" lon="-2.44944">
        <ele>52</ele>
        <time>2019-09-15T09:35:24Z</time>
      </trkpt>
      <trkpt lat="47.31783" lon="-2.44937">
        <ele>53</ele>
        <time>2019-09-15T09:35:25Z</time>
      </trkpt>
      <trkpt lat="47.3178" lon="-2.44931">
        <ele>53</ele>
        <time>2019-09-15T09:35:26Z</time>
      </trkpt>
      <trkpt lat="47.31777" lon="-2.44924">
        <ele>52</ele>
        <time>2019-09-15T09:35:27Z</time>
      </trkpt>
      <trkpt lat="47.31773" lon="-2.44917">
        <ele>52</ele>
        <time>2019-09-15T09:35:28Z</time>
      </trkpt>
      <trkpt lat="47.3177" lon="-2.4491">
        <ele>52</ele>
        <time>2019-09-15T09:35:29Z</time>
      </trkpt>
      <trkpt lat="47.31766" lon="-2.44902">
        <ele>52</ele>
        <time>2019-09-15T09:35:30Z</time>
      </trkpt>
      <trkpt lat="47.31763" lon="-2.44895">
        <ele>52</ele>
        <time>2019-09-15T09:35:31Z</time>
      </trkpt>
      <trkpt lat="47.31759" lon="-2.44888">
        <ele>52</ele>
        <time>2019-09-15T09:35:32Z</time>
      </trkpt>
      <trkpt lat="47.31756" lon="-2.44881">
        <ele>52</ele>
        <time>2019-09-15T09:35:33Z</time>
      </trkpt>
      <trkpt lat="47.31754" lon="-2.44873">
        <ele>52</ele>
        <time>2019-09-15T09:35:34Z</time>
      </trkpt>
      <trkpt lat="47.3175" lon="-2.44865">
        <ele>52</ele>
        <time>2019-09-15T09:35:35Z</time>
      </trkpt>
      <trkpt lat="47.31748" lon="-2.44857">
        <ele>52</ele>
        <time>2019-09-15T09:35:36Z</time>
      </trkpt>
      <trkpt lat="47.31745" lon="-2.44849">
        <ele>52</ele>
        <time>2019-09-15T09:35:37Z</time>
      </trkpt>
      <trkpt lat="47.31742" lon="-2.44841">
        <ele>52</ele>
        <time>2019-09-15T09:35:38Z</time>
      </trkpt>
      <trkpt lat="47.3174" lon="-2.44833">
        <ele>52</ele>
        <time>2019-09-15T09:35:39Z</time>
      </trkpt>
      <trkpt lat="47.31738" lon="-2.44826">
        <ele>52</ele>
        <time>2019-09-15T09:35:40Z</time>
      </trkpt>
      <trkpt lat="47.31735" lon="-2.44817">
        <ele>52</ele>
        <time>2019-09-15T09:35:41Z</time>
      </trkpt>
      <trkpt lat="47.31732" lon="-2.4481">
        <ele>53</ele>
        <time>2019-09-15T09:35:42Z</time>
      </trkpt>
      <trkpt lat="47.3173" lon="-2.44802">
        <ele>53</ele>
        <time>2019-09-15T09:35:43Z</time>
      </trkpt>
      <trkpt lat="47.31723" lon="-2.44785">
        <ele>53</ele>
        <time>2019-09-15T09:35:45Z</time>
      </trkpt>
      <trkpt lat="47.3172" lon="-2.44777">
        <ele>52</ele>
        <time>2019-09-15T09:35:46Z</time>
      </trkpt>
      <trkpt lat="47.31716" lon="-2.44768">
        <ele>52</ele>
        <time>2019-09-15T09:35:47Z</time>
      </trkpt>
      <trkpt lat="47.31708" lon="-2.44751">
        <ele>52</ele>
        <time>2019-09-15T09:35:49Z</time>
      </trkpt>
      <trkpt lat="47.31704" lon="-2.44742">
        <ele>52</ele>
        <time>2019-09-15T09:35:50Z</time>
      </trkpt>
      <trkpt lat="47.31701" lon="-2.44734">
        <ele>52</ele>
        <time>2019-09-15T09:35:51Z</time>
      </trkpt>
      <trkpt lat="47.31697" lon="-2.44725">
        <ele>52</ele>
        <time>2019-09-15T09:35:52Z</time>
      </trkpt>
      <trkpt lat="47.31693" lon="-2.44716">
        <ele>52</ele>
        <time>2019-09-15T09:35:53Z</time>
      </trkpt>
      <trkpt lat="47.31689" lon="-2.44707">
        <ele>51</ele>
        <time>2019-09-15T09:35:54Z</time>
      </trkpt>
      <trkpt lat="47.31686" lon="-2.44698">
        <ele>52</ele>
        <time>2019-09-15T09:35:55Z</time>
      </trkpt>
      <trkpt lat="47.31682" lon="-2.44689">
        <ele>51</ele>
        <time>2019-09-15T09:35:56Z</time>
      </trkpt>
      <trkpt lat="47.31678" lon="-2.44681">
        <ele>51</ele>
        <time>2019-09-15T09:35:57Z</time>
      </trkpt>
      <trkpt lat="47.31675" lon="-2.44672">
        <ele>51</ele>
        <time>2019-09-15T09:35:58Z</time>
      </trkpt>
      <trkpt lat="47.31671" lon="-2.44662">
        <ele>51</ele>
        <time>2019-09-15T09:35:59Z</time>
      </trkpt>
      <trkpt lat="47.31668" lon="-2.44653">
        <ele>51</ele>
        <time>2019-09-15T09:36:00Z</time>
      </trkpt>
      <trkpt lat="47.3166" lon="-2.44633">
        <ele>51</ele>
        <time>2019-09-15T09:36:02Z</time>
      </trkpt>
      <trkpt lat="47.31648" lon="-2.44606">
        <ele>51</ele>
        <time>2019-09-15T09:36:05Z</time>
      </trkpt>
      <trkpt lat="47.31643" lon="-2.44598">
        <ele>51</ele>
        <time>2019-09-15T09:36:06Z</time>
      </trkpt>
      <trkpt lat="47.31639" lon="-2.4459">
        <ele>51</ele>
        <time>2019-09-15T09:36:07Z</time>
      </trkpt>
      <trkpt lat="47.31634" lon="-2.44582">
        <ele>51</ele>
        <time>2019-09-15T09:36:08Z</time>
      </trkpt>
      <trkpt lat="47.3163" lon="-2.44574">
        <ele>51</ele>
        <time>2019-09-15T09:36:09Z</time>
      </trkpt>
      <trkpt lat="47.31625" lon="-2.44567">
        <ele>51</ele>
        <time>2019-09-15T09:36:10Z</time>
      </trkpt>
      <trkpt lat="47.31621" lon="-2.4456">
        <ele>51</ele>
        <time>2019-09-15T09:36:11Z</time>
      </trkpt>
      <trkpt lat="47.31616" lon="-2.44553">
        <ele>51</ele>
        <time>2019-09-15T09:36:12Z</time>
      </trkpt>
      <trkpt lat="47.31611" lon="-2.44545">
        <ele>50</ele>
        <time>2019-09-15T09:36:13Z</time>
      </trkpt>
      <trkpt lat="47.31607" lon="-2.44538">
        <ele>50</ele>
        <time>2019-09-15T09:36:14Z</time>
      </trkpt>
      <trkpt lat="47.31603" lon="-2.4453">
        <ele>51</ele>
        <time>2019-09-15T09:36:15Z</time>
      </trkpt>
      <trkpt lat="47.31598" lon="-2.44523">
        <ele>51</ele>
        <time>2019-09-15T09:36:16Z</time>
      </trkpt>
      <trkpt lat="47.31595" lon="-2.44515">
        <ele>51</ele>
        <time>2019-09-15T09:36:17Z</time>
      </trkpt>
      <trkpt lat="47.31592" lon="-2.44506">
        <ele>51</ele>
        <time>2019-09-15T09:36:18Z</time>
      </trkpt>
      <trkpt lat="47.31589" lon="-2.44497">
        <ele>51</ele>
        <time>2019-09-15T09:36:19Z</time>
      </trkpt>
      <trkpt lat="47.31587" lon="-2.44488">
        <ele>51</ele>
        <time>2019-09-15T09:36:20Z</time>
      </trkpt>
      <trkpt lat="47.31584" lon="-2.44479">
        <ele>51</ele>
        <time>2019-09-15T09:36:21Z</time>
      </trkpt>
      <trkpt lat="47.31582" lon="-2.44469">
        <ele>51</ele>
        <time>2019-09-15T09:36:22Z</time>
      </trkpt>
      <trkpt lat="47.31581" lon="-2.44459">
        <ele>51</ele>
        <time>2019-09-15T09:36:23Z</time>
      </trkpt>
      <trkpt lat="47.31579" lon="-2.44448">
        <ele>51</ele>
        <time>2019-09-15T09:36:24Z</time>
      </trkpt>
      <trkpt lat="47.31575" lon="-2.44417">
        <ele>51</ele>
        <time>2019-09-15T09:36:27Z</time>
      </trkpt>
      <trkpt lat="47.31572" lon="-2.44394">
        <ele>51</ele>
        <time>2019-09-15T09:36:29Z</time>
      </trkpt>
      <trkpt lat="47.3157" lon="-2.44383">
        <ele>52</ele>
        <time>2019-09-15T09:36:30Z</time>
      </trkpt>
      <trkpt lat="47.31568" lon="-2.44373">
        <ele>51</ele>
        <time>2019-09-15T09:36:31Z</time>
      </trkpt>
      <trkpt lat="47.31567" lon="-2.44362">
        <ele>52</ele>
        <time>2019-09-15T09:36:32Z</time>
      </trkpt>
      <trkpt lat="47.31566" lon="-2.44352">
        <ele>52</ele>
        <time>2019-09-15T09:36:33Z</time>
      </trkpt>
      <trkpt lat="47.3156" lon="-2.44312">
        <ele>51</ele>
        <time>2019-09-15T09:36:37Z</time>
      </trkpt>
      <trkpt lat="47.31556" lon="-2.44294">
        <ele>51</ele>
        <time>2019-09-15T09:36:39Z</time>
      </trkpt>
      <trkpt lat="47.31555" lon="-2.44284">
        <ele>51</ele>
        <time>2019-09-15T09:36:40Z</time>
      </trkpt>
      <trkpt lat="47.31554" lon="-2.44274">
        <ele>51</ele>
        <time>2019-09-15T09:36:41Z</time>
      </trkpt>
      <trkpt lat="47.31552" lon="-2.44265">
        <ele>51</ele>
        <time>2019-09-15T09:36:42Z</time>
      </trkpt>
      <trkpt lat="47.31551" lon="-2.44255">
        <ele>50</ele>
        <time>2019-09-15T09:36:43Z</time>
      </trkpt>
      <trkpt lat="47.31549" lon="-2.44247">
        <ele>51</ele>
        <time>2019-09-15T09:36:44Z</time>
      </trkpt>
      <trkpt lat="47.31547" lon="-2.44238">
        <ele>51</ele>
        <time>2019-09-15T09:36:45Z</time>
      </trkpt>
      <trkpt lat="47.31546" lon="-2.44229">
        <ele>51</ele>
        <time>2019-09-15T09:36:46Z</time>
      </trkpt>
      <trkpt lat="47.31544" lon="-2.44221">
        <ele>51</ele>
        <time>2019-09-15T09:36:47Z</time>
      </trkpt>
      <trkpt lat="47.31541" lon="-2.44212">
        <ele>51</ele>
        <time>2019-09-15T09:36:48Z</time>
      </trkpt>
      <trkpt lat="47.31538" lon="-2.44203">
        <ele>51</ele>
        <time>2019-09-15T09:36:49Z</time>
      </trkpt>
      <trkpt lat="47.31535" lon="-2.44194">
        <ele>51</ele>
        <time>2019-09-15T09:36:50Z</time>
      </trkpt>
      <trkpt lat="47.31533" lon="-2.44187">
        <ele>52</ele>
        <time>2019-09-15T09:36:51Z</time>
      </trkpt>
      <trkpt lat="47.3153" lon="-2.44179">
        <ele>51</ele>
        <time>2019-09-15T09:36:52Z</time>
      </trkpt>
      <trkpt lat="47.31526" lon="-2.44171">
        <ele>51</ele>
        <time>2019-09-15T09:36:53Z</time>
      </trkpt>
      <trkpt lat="47.31522" lon="-2.44163">
        <ele>52</ele>
        <time>2019-09-15T09:36:54Z</time>
      </trkpt>
      <trkpt lat="47.31518" lon="-2.44155">
        <ele>52</ele>
        <time>2019-09-15T09:36:55Z</time>
      </trkpt>
      <trkpt lat="47.31513" lon="-2.44147">
        <ele>51</ele>
        <time>2019-09-15T09:36:56Z</time>
      </trkpt>
      <trkpt lat="47.31509" lon="-2.4414">
        <ele>51</ele>
        <time>2019-09-15T09:36:57Z</time>
      </trkpt>
      <trkpt lat="47.31503" lon="-2.44133">
        <ele>51</ele>
        <time>2019-09-15T09:36:58Z</time>
      </trkpt>
      <trkpt lat="47.31497" lon="-2.44126">
        <ele>51</ele>
        <time>2019-09-15T09:36:59Z</time>
      </trkpt>
      <trkpt lat="47.31492" lon="-2.44119">
        <ele>51</ele>
        <time>2019-09-15T09:37:00Z</time>
      </trkpt>
      <trkpt lat="47.31487" lon="-2.44111">
        <ele>51</ele>
        <time>2019-09-15T09:37:01Z</time>
      </trkpt>
      <trkpt lat="47.31481" lon="-2.44104">
        <ele>51</ele>
        <time>2019-09-15T09:37:02Z</time>
      </trkpt>
      <trkpt lat="47.31475" lon="-2.44096">
        <ele>51</ele>
        <time>2019-09-15T09:37:03Z</time>
      </trkpt>
      <trkpt lat="47.31464" lon="-2.44082">
        <ele>52</ele>
        <time>2019-09-15T09:37:05Z</time>
      </trkpt>
      <trkpt lat="47.31458" lon="-2.44075">
        <ele>52</ele>
        <time>2019-09-15T09:37:06Z</time>
      </trkpt>
      <trkpt lat="47.31453" lon="-2.44068">
        <ele>52</ele>
        <time>2019-09-15T09:37:07Z</time>
      </trkpt>
      <trkpt lat="47.31447" lon="-2.4406">
        <ele>52</ele>
        <time>2019-09-15T09:37:08Z</time>
      </trkpt>
      <trkpt lat="47.31431" lon="-2.44038">
        <ele>52</ele>
        <time>2019-09-15T09:37:11Z</time>
      </trkpt>
      <trkpt lat="47.31425" lon="-2.44031">
        <ele>52</ele>
        <time>2019-09-15T09:37:12Z</time>
      </trkpt>
      <trkpt lat="47.3142" lon="-2.44024">
        <ele>52</ele>
        <time>2019-09-15T09:37:13Z</time>
      </trkpt>
      <trkpt lat="47.31414" lon="-2.44017">
        <ele>52</ele>
        <time>2019-09-15T09:37:14Z</time>
      </trkpt>
      <trkpt lat="47.31409" lon="-2.4401">
        <ele>52</ele>
        <time>2019-09-15T09:37:15Z</time>
      </trkpt>
      <trkpt lat="47.31404" lon="-2.44003">
        <ele>52</ele>
        <time>2019-09-15T09:37:16Z</time>
      </trkpt>
      <trkpt lat="47.31398" lon="-2.43996">
        <ele>52</ele>
        <time>2019-09-15T09:37:17Z</time>
      </trkpt>
      <trkpt lat="47.31393" lon="-2.43989">
        <ele>53</ele>
        <time>2019-09-15T09:37:18Z</time>
      </trkpt>
      <trkpt lat="47.31388" lon="-2.43982">
        <ele>53</ele>
        <time>2019-09-15T09:37:19Z</time>
      </trkpt>
      <trkpt lat="47.31382" lon="-2.43976">
        <ele>53</ele>
        <time>2019-09-15T09:37:20Z</time>
      </trkpt>
      <trkpt lat="47.31377" lon="-2.43969">
        <ele>52</ele>
        <time>2019-09-15T09:37:21Z</time>
      </trkpt>
      <trkpt lat="47.31372" lon="-2.43961">
        <ele>52</ele>
        <time>2019-09-15T09:37:22Z</time>
      </trkpt>
      <trkpt lat="47.31367" lon="-2.43953">
        <ele>52</ele>
        <time>2019-09-15T09:37:23Z</time>
      </trkpt>
      <trkpt lat="47.31363" lon="-2.43945">
        <ele>52</ele>
        <time>2019-09-15T09:37:24Z</time>
      </trkpt>
      <trkpt lat="47.3136" lon="-2.43935">
        <ele>52</ele>
        <time>2019-09-15T09:37:25Z</time>
      </trkpt>
      <trkpt lat="47.31356" lon="-2.43926">
        <ele>52</ele>
        <time>2019-09-15T09:37:26Z</time>
      </trkpt>
      <trkpt lat="47.31353" lon="-2.43917">
        <ele>52</ele>
        <time>2019-09-15T09:37:27Z</time>
      </trkpt>
      <trkpt lat="47.3135" lon="-2.43908">
        <ele>52</ele>
        <time>2019-09-15T09:37:28Z</time>
      </trkpt>
      <trkpt lat="47.31346" lon="-2.43899">
        <ele>52</ele>
        <time>2019-09-15T09:37:29Z</time>
      </trkpt>
      <trkpt lat="47.31342" lon="-2.4389">
        <ele>52</ele>
        <time>2019-09-15T09:37:30Z</time>
      </trkpt>
      <trkpt lat="47.31331" lon="-2.43862">
        <ele>51</ele>
        <time>2019-09-15T09:37:33Z</time>
      </trkpt>
      <trkpt lat="47.31327" lon="-2.43852">
        <ele>51</ele>
        <time>2019-09-15T09:37:34Z</time>
      </trkpt>
      <trkpt lat="47.31323" lon="-2.43843">
        <ele>51</ele>
        <time>2019-09-15T09:37:35Z</time>
      </trkpt>
      <trkpt lat="47.31319" lon="-2.43835">
        <ele>51</ele>
        <time>2019-09-15T09:37:36Z</time>
      </trkpt>
      <trkpt lat="47.31314" lon="-2.43829">
        <ele>51</ele>
        <time>2019-09-15T09:37:37Z</time>
      </trkpt>
      <trkpt lat="47.31309" lon="-2.43822">
        <ele>51</ele>
        <time>2019-09-15T09:37:38Z</time>
      </trkpt>
      <trkpt lat="47.31304" lon="-2.43815">
        <ele>52</ele>
        <time>2019-09-15T09:37:39Z</time>
      </trkpt>
      <trkpt lat="47.31298" lon="-2.43808">
        <ele>52</ele>
        <time>2019-09-15T09:37:40Z</time>
      </trkpt>
      <trkpt lat="47.31294" lon="-2.43801">
        <ele>52</ele>
        <time>2019-09-15T09:37:41Z</time>
      </trkpt>
      <trkpt lat="47.3129" lon="-2.43792">
        <ele>52</ele>
        <time>2019-09-15T09:37:42Z</time>
      </trkpt>
      <trkpt lat="47.31286" lon="-2.43783">
        <ele>52</ele>
        <time>2019-09-15T09:37:43Z</time>
      </trkpt>
      <trkpt lat="47.31283" lon="-2.43774">
        <ele>52</ele>
        <time>2019-09-15T09:37:44Z</time>
      </trkpt>
      <trkpt lat="47.31279" lon="-2.43765">
        <ele>52</ele>
        <time>2019-09-15T09:37:45Z</time>
      </trkpt>
      <trkpt lat="47.31276" lon="-2.43756">
        <ele>52</ele>
        <time>2019-09-15T09:37:46Z</time>
      </trkpt>
      <trkpt lat="47.31272" lon="-2.43746">
        <ele>52</ele>
        <time>2019-09-15T09:37:47Z</time>
      </trkpt>
      <trkpt lat="47.31269" lon="-2.43738">
        <ele>52</ele>
        <time>2019-09-15T09:37:48Z</time>
      </trkpt>
      <trkpt lat="47.31265" lon="-2.43729">
        <ele>52</ele>
        <time>2019-09-15T09:37:49Z</time>
      </trkpt>
      <trkpt lat="47.31261" lon="-2.4372">
        <ele>52</ele>
        <time>2019-09-15T09:37:50Z</time>
      </trkpt>
      <trkpt lat="47.31258" lon="-2.43711">
        <ele>51</ele>
        <time>2019-09-15T09:37:51Z</time>
      </trkpt>
      <trkpt lat="47.31254" lon="-2.43702">
        <ele>52</ele>
        <time>2019-09-15T09:37:52Z</time>
      </trkpt>
      <trkpt lat="47.31251" lon="-2.43693">
        <ele>51</ele>
        <time>2019-09-15T09:37:53Z</time>
      </trkpt>
      <trkpt lat="47.31243" lon="-2.43666">
        <ele>52</ele>
        <time>2019-09-15T09:37:56Z</time>
      </trkpt>
      <trkpt lat="47.31241" lon="-2.43656">
        <ele>52</ele>
        <time>2019-09-15T09:37:57Z</time>
      </trkpt>
      <trkpt lat="47.31239" lon="-2.43647">
        <ele>52</ele>
        <time>2019-09-15T09:37:58Z</time>
      </trkpt>
      <trkpt lat="47.31238" lon="-2.43637">
        <ele>51</ele>
        <time>2019-09-15T09:37:59Z</time>
      </trkpt>
      <trkpt lat="47.31236" lon="-2.43627">
        <ele>52</ele>
        <time>2019-09-15T09:38:00Z</time>
      </trkpt>
      <trkpt lat="47.31235" lon="-2.43618">
        <ele>52</ele>
        <time>2019-09-15T09:38:01Z</time>
      </trkpt>
      <trkpt lat="47.31234" lon="-2.43608">
        <ele>52</ele>
        <time>2019-09-15T09:38:02Z</time>
      </trkpt>
      <trkpt lat="47.31231" lon="-2.4359">
        <ele>52</ele>
        <time>2019-09-15T09:38:04Z</time>
      </trkpt>
      <trkpt lat="47.3123" lon="-2.43581">
        <ele>52</ele>
        <time>2019-09-15T09:38:05Z</time>
      </trkpt>
      <trkpt lat="47.31227" lon="-2.43564">
        <ele>52</ele>
        <time>2019-09-15T09:38:07Z</time>
      </trkpt>
      <trkpt lat="47.31226" lon="-2.43555">
        <ele>53</ele>
        <time>2019-09-15T09:38:08Z</time>
      </trkpt>
      <trkpt lat="47.31223" lon="-2.43537">
        <ele>53</ele>
        <time>2019-09-15T09:38:10Z</time>
      </trkpt>
      <trkpt lat="47.31222" lon="-2.43527">
        <ele>53</ele>
        <time>2019-09-15T09:38:11Z</time>
      </trkpt>
      <trkpt lat="47.31221" lon="-2.43518">
        <ele>53</ele>
        <time>2019-09-15T09:38:12Z</time>
      </trkpt>
      <trkpt lat="47.3122" lon="-2.43508">
        <ele>53</ele>
        <time>2019-09-15T09:38:13Z</time>
      </trkpt>
      <trkpt lat="47.31215" lon="-2.43482">
        <ele>53</ele>
        <time>2019-09-15T09:38:16Z</time>
      </trkpt>
      <trkpt lat="47.31214" lon="-2.43472">
        <ele>53</ele>
        <time>2019-09-15T09:38:17Z</time>
      </trkpt>
      <trkpt lat="47.31212" lon="-2.43463">
        <ele>53</ele>
        <time>2019-09-15T09:38:18Z</time>
      </trkpt>
      <trkpt lat="47.31211" lon="-2.43454">
        <ele>53</ele>
        <time>2019-09-15T09:38:19Z</time>
      </trkpt>
      <trkpt lat="47.3121" lon="-2.43445">
        <ele>52</ele>
        <time>2019-09-15T09:38:20Z</time>
      </trkpt>
      <trkpt lat="47.31209" lon="-2.43437">
        <ele>52</ele>
        <time>2019-09-15T09:38:21Z</time>
      </trkpt>
      <trkpt lat="47.31207" lon="-2.43428">
        <ele>53</ele>
        <time>2019-09-15T09:38:22Z</time>
      </trkpt>
      <trkpt lat="47.31206" lon="-2.4342">
        <ele>53</ele>
        <time>2019-09-15T09:38:23Z</time>
      </trkpt>
      <trkpt lat="47.31205" lon="-2.43411">
        <ele>53</ele>
        <time>2019-09-15T09:38:24Z</time>
      </trkpt>
      <trkpt lat="47.31204" lon="-2.43403">
        <ele>53</ele>
        <time>2019-09-15T09:38:25Z</time>
      </trkpt>
      <trkpt lat="47.31202" lon="-2.43394">
        <ele>53</ele>
        <time>2019-09-15T09:38:26Z</time>
      </trkpt>
      <trkpt lat="47.31201" lon="-2.43386">
        <ele>53</ele>
        <time>2019-09-15T09:38:27Z</time>
      </trkpt>
      <trkpt lat="47.312" lon="-2.43377">
        <ele>53</ele>
        <time>2019-09-15T09:38:28Z</time>
      </trkpt>
      <trkpt lat="47.31199" lon="-2.43369">
        <ele>53</ele>
        <time>2019-09-15T09:38:29Z</time>
      </trkpt>
      <trkpt lat="47.31196" lon="-2.43351">
        <ele>53</ele>
        <time>2019-09-15T09:38:31Z</time>
      </trkpt>
      <trkpt lat="47.31194" lon="-2.43343">
        <ele>53</ele>
        <time>2019-09-15T09:38:32Z</time>
      </trkpt>
      <trkpt lat="47.31187" lon="-2.43318">
        <ele>53</ele>
        <time>2019-09-15T09:38:35Z</time>
      </trkpt>
      <trkpt lat="47.31184" lon="-2.43311">
        <ele>53</ele>
        <time>2019-09-15T09:38:36Z</time>
      </trkpt>
      <trkpt lat="47.31181" lon="-2.43304">
        <ele>53</ele>
        <time>2019-09-15T09:38:37Z</time>
      </trkpt>
      <trkpt lat="47.31178" lon="-2.43298">
        <ele>53</ele>
        <time>2019-09-15T09:38:38Z</time>
      </trkpt>
      <trkpt lat="47.31174" lon="-2.43291">
        <ele>53</ele>
        <time>2019-09-15T09:38:39Z</time>
      </trkpt>
      <trkpt lat="47.3117" lon="-2.43284">
        <ele>53</ele>
        <time>2019-09-15T09:38:40Z</time>
      </trkpt>
      <trkpt lat="47.31166" lon="-2.43278">
        <ele>53</ele>
        <time>2019-09-15T09:38:41Z</time>
      </trkpt>
      <trkpt lat="47.31161" lon="-2.43272">
        <ele>53</ele>
        <time>2019-09-15T09:38:42Z</time>
      </trkpt>
      <trkpt lat="47.31157" lon="-2.43265">
        <ele>53</ele>
        <time>2019-09-15T09:38:43Z</time>
      </trkpt>
      <trkpt lat="47.31152" lon="-2.43259">
        <ele>53</ele>
        <time>2019-09-15T09:38:44Z</time>
      </trkpt>
      <trkpt lat="47.31148" lon="-2.43252">
        <ele>53</ele>
        <time>2019-09-15T09:38:45Z</time>
      </trkpt>
      <trkpt lat="47.31144" lon="-2.43244">
        <ele>53</ele>
        <time>2019-09-15T09:38:46Z</time>
      </trkpt>
      <trkpt lat="47.31139" lon="-2.43237">
        <ele>53</ele>
        <time>2019-09-15T09:38:47Z</time>
      </trkpt>
      <trkpt lat="47.31135" lon="-2.4323">
        <ele>53</ele>
        <time>2019-09-15T09:38:48Z</time>
      </trkpt>
      <trkpt lat="47.31126" lon="-2.43216">
        <ele>53</ele>
        <time>2019-09-15T09:38:50Z</time>
      </trkpt>
      <trkpt lat="47.31118" lon="-2.43202">
        <ele>52</ele>
        <time>2019-09-15T09:38:52Z</time>
      </trkpt>
      <trkpt lat="47.31113" lon="-2.43198">
        <ele>52</ele>
        <time>2019-09-15T09:38:53Z</time>
      </trkpt>
      <trkpt lat="47.31107" lon="-2.43195">
        <ele>52</ele>
        <time>2019-09-15T09:38:54Z</time>
      </trkpt>
      <trkpt lat="47.31095" lon="-2.43198">
        <ele>51</ele>
        <time>2019-09-15T09:38:56Z</time>
      </trkpt>
      <trkpt lat="47.31084" lon="-2.43207">
        <ele>51</ele>
        <time>2019-09-15T09:38:58Z</time>
      </trkpt>
      <trkpt lat="47.31079" lon="-2.43213">
        <ele>51</ele>
        <time>2019-09-15T09:38:59Z</time>
      </trkpt>
      <trkpt lat="47.31074" lon="-2.43217">
        <ele>51</ele>
        <time>2019-09-15T09:39:00Z</time>
      </trkpt>
      <trkpt lat="47.31068" lon="-2.43223">
        <ele>51</ele>
        <time>2019-09-15T09:39:01Z</time>
      </trkpt>
      <trkpt lat="47.31062" lon="-2.43229">
        <ele>51</ele>
        <time>2019-09-15T09:39:02Z</time>
      </trkpt>
      <trkpt lat="47.31057" lon="-2.43235">
        <ele>52</ele>
        <time>2019-09-15T09:39:03Z</time>
      </trkpt>
      <trkpt lat="47.31051" lon="-2.43241">
        <ele>52</ele>
        <time>2019-09-15T09:39:04Z</time>
      </trkpt>
      <trkpt lat="47.31045" lon="-2.43247">
        <ele>52</ele>
        <time>2019-09-15T09:39:05Z</time>
      </trkpt>
      <trkpt lat="47.3104" lon="-2.43254">
        <ele>52</ele>
        <time>2019-09-15T09:39:06Z</time>
      </trkpt>
      <trkpt lat="47.31035" lon="-2.43261">
        <ele>52</ele>
        <time>2019-09-15T09:39:07Z</time>
      </trkpt>
      <trkpt lat="47.3103" lon="-2.43268">
        <ele>52</ele>
        <time>2019-09-15T09:39:08Z</time>
      </trkpt>
      <trkpt lat="47.31025" lon="-2.43275">
        <ele>52</ele>
        <time>2019-09-15T09:39:09Z</time>
      </trkpt>
      <trkpt lat="47.3102" lon="-2.43282">
        <ele>52</ele>
        <time>2019-09-15T09:39:10Z</time>
      </trkpt>
      <trkpt lat="47.31015" lon="-2.43289">
        <ele>52</ele>
        <time>2019-09-15T09:39:11Z</time>
      </trkpt>
      <trkpt lat="47.31009" lon="-2.43296">
        <ele>52</ele>
        <time>2019-09-15T09:39:12Z</time>
      </trkpt>
      <trkpt lat="47.31004" lon="-2.43302">
        <ele>53</ele>
        <time>2019-09-15T09:39:13Z</time>
      </trkpt>
      <trkpt lat="47.30998" lon="-2.43307">
        <ele>53</ele>
        <time>2019-09-15T09:39:14Z</time>
      </trkpt>
      <trkpt lat="47.30984" lon="-2.43315">
        <ele>53</ele>
        <time>2019-09-15T09:39:16Z</time>
      </trkpt>
      <trkpt lat="47.30978" lon="-2.43318">
        <ele>53</ele>
        <time>2019-09-15T09:39:17Z</time>
      </trkpt>
      <trkpt lat="47.30971" lon="-2.43321">
        <ele>53</ele>
        <time>2019-09-15T09:39:18Z</time>
      </trkpt>
      <trkpt lat="47.3095" lon="-2.43329">
        <ele>53</ele>
        <time>2019-09-15T09:39:21Z</time>
      </trkpt>
      <trkpt lat="47.30944" lon="-2.43332">
        <ele>53</ele>
        <time>2019-09-15T09:39:22Z</time>
      </trkpt>
      <trkpt lat="47.30937" lon="-2.43335">
        <ele>53</ele>
        <time>2019-09-15T09:39:23Z</time>
      </trkpt>
      <trkpt lat="47.3093" lon="-2.43338">
        <ele>53</ele>
        <time>2019-09-15T09:39:24Z</time>
      </trkpt>
      <trkpt lat="47.30923" lon="-2.43341">
        <ele>53</ele>
        <time>2019-09-15T09:39:25Z</time>
      </trkpt>
      <trkpt lat="47.30916" lon="-2.43344">
        <ele>53</ele>
        <time>2019-09-15T09:39:26Z</time>
      </trkpt>
      <trkpt lat="47.30909" lon="-2.43347">
        <ele>53</ele>
        <time>2019-09-15T09:39:27Z</time>
      </trkpt>
      <trkpt lat="47.30903" lon="-2.43349">
        <ele>53</ele>
        <time>2019-09-15T09:39:28Z</time>
      </trkpt>
      <trkpt lat="47.30896" lon="-2.43352">
        <ele>52</ele>
        <time>2019-09-15T09:39:29Z</time>
      </trkpt>
      <trkpt lat="47.30889" lon="-2.43355">
        <ele>52</ele>
        <time>2019-09-15T09:39:30Z</time>
      </trkpt>
      <trkpt lat="47.30882" lon="-2.43358">
        <ele>52</ele>
        <time>2019-09-15T09:39:31Z</time>
      </trkpt>
      <trkpt lat="47.30875" lon="-2.43361">
        <ele>52</ele>
        <time>2019-09-15T09:39:32Z</time>
      </trkpt>
      <trkpt lat="47.30848" lon="-2.43372">
        <ele>51</ele>
        <time>2019-09-15T09:39:36Z</time>
      </trkpt>
      <trkpt lat="47.30841" lon="-2.43375">
        <ele>51</ele>
        <time>2019-09-15T09:39:37Z</time>
      </trkpt>
      <trkpt lat="47.30834" lon="-2.43378">
        <ele>51</ele>
        <time>2019-09-15T09:39:38Z</time>
      </trkpt>
      <trkpt lat="47.30828" lon="-2.43381">
        <ele>51</ele>
        <time>2019-09-15T09:39:39Z</time>
      </trkpt>
      <trkpt lat="47.30822" lon="-2.43384">
        <ele>51</ele>
        <time>2019-09-15T09:39:40Z</time>
      </trkpt>
      <trkpt lat="47.30809" lon="-2.43388">
        <ele>51</ele>
        <time>2019-09-15T09:39:42Z</time>
      </trkpt>
      <trkpt lat="47.30802" lon="-2.43389">
        <ele>51</ele>
        <time>2019-09-15T09:39:43Z</time>
      </trkpt>
      <trkpt lat="47.30789" lon="-2.4339">
        <ele>51</ele>
        <time>2019-09-15T09:39:45Z</time>
      </trkpt>
      <trkpt lat="47.30783" lon="-2.4339">
        <ele>51</ele>
        <time>2019-09-15T09:39:46Z</time>
      </trkpt>
      <trkpt lat="47.30777" lon="-2.4339">
        <ele>51</ele>
        <time>2019-09-15T09:39:47Z</time>
      </trkpt>
      <trkpt lat="47.3077" lon="-2.4339">
        <ele>51</ele>
        <time>2019-09-15T09:39:48Z</time>
      </trkpt>
      <trkpt lat="47.30757" lon="-2.4339">
        <ele>51</ele>
        <time>2019-09-15T09:39:50Z</time>
      </trkpt>
      <trkpt lat="47.3075" lon="-2.4339">
        <ele>51</ele>
        <time>2019-09-15T09:39:51Z</time>
      </trkpt>
      <trkpt lat="47.30743" lon="-2.43389">
        <ele>50</ele>
        <time>2019-09-15T09:39:52Z</time>
      </trkpt>
      <trkpt lat="47.30736" lon="-2.43389">
        <ele>50</ele>
        <time>2019-09-15T09:39:53Z</time>
      </trkpt>
      <trkpt lat="47.3073" lon="-2.43389">
        <ele>49</ele>
        <time>2019-09-15T09:39:54Z</time>
      </trkpt>
      <trkpt lat="47.30723" lon="-2.43389">
        <ele>49</ele>
        <time>2019-09-15T09:39:55Z</time>
      </trkpt>
      <trkpt lat="47.30716" lon="-2.43389">
        <ele>49</ele>
        <time>2019-09-15T09:39:56Z</time>
      </trkpt>
      <trkpt lat="47.30709" lon="-2.4339">
        <ele>49</ele>
        <time>2019-09-15T09:39:57Z</time>
      </trkpt>
      <trkpt lat="47.30695" lon="-2.43391">
        <ele>49</ele>
        <time>2019-09-15T09:39:59Z</time>
      </trkpt>
      <trkpt lat="47.30689" lon="-2.43393">
        <ele>49</ele>
        <time>2019-09-15T09:40:00Z</time>
      </trkpt>
      <trkpt lat="47.30675" lon="-2.43394">
        <ele>49</ele>
        <time>2019-09-15T09:40:02Z</time>
      </trkpt>
      <trkpt lat="47.30669" lon="-2.43396">
        <ele>49</ele>
        <time>2019-09-15T09:40:03Z</time>
      </trkpt>
      <trkpt lat="47.30662" lon="-2.43397">
        <ele>49</ele>
        <time>2019-09-15T09:40:04Z</time>
      </trkpt>
      <trkpt lat="47.30656" lon="-2.43399">
        <ele>49</ele>
        <time>2019-09-15T09:40:05Z</time>
      </trkpt>
      <trkpt lat="47.30649" lon="-2.434">
        <ele>49</ele>
        <time>2019-09-15T09:40:06Z</time>
      </trkpt>
      <trkpt lat="47.30642" lon="-2.43401">
        <ele>49</ele>
        <time>2019-09-15T09:40:07Z</time>
      </trkpt>
      <trkpt lat="47.30635" lon="-2.43403">
        <ele>49</ele>
        <time>2019-09-15T09:40:08Z</time>
      </trkpt>
      <trkpt lat="47.30628" lon="-2.43405">
        <ele>49</ele>
        <time>2019-09-15T09:40:09Z</time>
      </trkpt>
      <trkpt lat="47.30607" lon="-2.43411">
        <ele>48</ele>
        <time>2019-09-15T09:40:12Z</time>
      </trkpt>
      <trkpt lat="47.306" lon="-2.43413">
        <ele>49</ele>
        <time>2019-09-15T09:40:13Z</time>
      </trkpt>
      <trkpt lat="47.30594" lon="-2.43415">
        <ele>49</ele>
        <time>2019-09-15T09:40:14Z</time>
      </trkpt>
      <trkpt lat="47.30587" lon="-2.43416">
        <ele>49</ele>
        <time>2019-09-15T09:40:15Z</time>
      </trkpt>
      <trkpt lat="47.3058" lon="-2.43418">
        <ele>49</ele>
        <time>2019-09-15T09:40:16Z</time>
      </trkpt>
      <trkpt lat="47.30558" lon="-2.43421">
        <ele>49</ele>
        <time>2019-09-15T09:40:19Z</time>
      </trkpt>
      <trkpt lat="47.30529" lon="-2.43416">
        <ele>49</ele>
        <time>2019-09-15T09:40:23Z</time>
      </trkpt>
      <trkpt lat="47.30515" lon="-2.43415">
        <ele>49</ele>
        <time>2019-09-15T09:40:25Z</time>
      </trkpt>
      <trkpt lat="47.30509" lon="-2.43414">
        <ele>49</ele>
        <time>2019-09-15T09:40:26Z</time>
      </trkpt>
      <trkpt lat="47.30502" lon="-2.43413">
        <ele>49</ele>
        <time>2019-09-15T09:40:27Z</time>
      </trkpt>
      <trkpt lat="47.30495" lon="-2.43413">
        <ele>49</ele>
        <time>2019-09-15T09:40:28Z</time>
      </trkpt>
      <trkpt lat="47.30488" lon="-2.43412">
        <ele>49</ele>
        <time>2019-09-15T09:40:29Z</time>
      </trkpt>
      <trkpt lat="47.30481" lon="-2.43412">
        <ele>49</ele>
        <time>2019-09-15T09:40:30Z</time>
      </trkpt>
      <trkpt lat="47.3046" lon="-2.43415">
        <ele>49</ele>
        <time>2019-09-15T09:40:33Z</time>
      </trkpt>
      <trkpt lat="47.30454" lon="-2.43417">
        <ele>50</ele>
        <time>2019-09-15T09:40:34Z</time>
      </trkpt>
      <trkpt lat="47.30448" lon="-2.4342">
        <ele>50</ele>
        <time>2019-09-15T09:40:35Z</time>
      </trkpt>
      <trkpt lat="47.30442" lon="-2.43421">
        <ele>50</ele>
        <time>2019-09-15T09:40:36Z</time>
      </trkpt>
      <trkpt lat="47.30436" lon="-2.43418">
        <ele>50</ele>
        <time>2019-09-15T09:40:37Z</time>
      </trkpt>
      <trkpt lat="47.30431" lon="-2.43412">
        <ele>50</ele>
        <time>2019-09-15T09:40:38Z</time>
      </trkpt>
      <trkpt lat="47.30426" lon="-2.43404">
        <ele>50</ele>
        <time>2019-09-15T09:40:39Z</time>
      </trkpt>
      <trkpt lat="47.30423" lon="-2.43394">
        <ele>50</ele>
        <time>2019-09-15T09:40:40Z</time>
      </trkpt>
      <trkpt lat="47.30422" lon="-2.43385">
        <ele>50</ele>
        <time>2019-09-15T09:40:41Z</time>
      </trkpt>
      <trkpt lat="47.3042" lon="-2.43375">
        <ele>50</ele>
        <time>2019-09-15T09:40:42Z</time>
      </trkpt>
      <trkpt lat="47.30418" lon="-2.43366">
        <ele>50</ele>
        <time>2019-09-15T09:40:43Z</time>
      </trkpt>
      <trkpt lat="47.30415" lon="-2.43346">
        <ele>50</ele>
        <time>2019-09-15T09:40:45Z</time>
      </trkpt>
      <trkpt lat="47.30413" lon="-2.43337">
        <ele>50</ele>
        <time>2019-09-15T09:40:46Z</time>
      </trkpt>
      <trkpt lat="47.30412" lon="-2.43327">
        <ele>51</ele>
        <time>2019-09-15T09:40:47Z</time>
      </trkpt>
      <trkpt lat="47.3041" lon="-2.43318">
        <ele>50</ele>
        <time>2019-09-15T09:40:48Z</time>
      </trkpt>
      <trkpt lat="47.30408" lon="-2.43309">
        <ele>50</ele>
        <time>2019-09-15T09:40:49Z</time>
      </trkpt>
      <trkpt lat="47.304" lon="-2.4328">
        <ele>50</ele>
        <time>2019-09-15T09:40:52Z</time>
      </trkpt>
      <trkpt lat="47.30397" lon="-2.43271">
        <ele>50</ele>
        <time>2019-09-15T09:40:53Z</time>
      </trkpt>
      <trkpt lat="47.30395" lon="-2.43262">
        <ele>50</ele>
        <time>2019-09-15T09:40:54Z</time>
      </trkpt>
      <trkpt lat="47.30392" lon="-2.43254">
        <ele>49</ele>
        <time>2019-09-15T09:40:55Z</time>
      </trkpt>
      <trkpt lat="47.30387" lon="-2.43247">
        <ele>50</ele>
        <time>2019-09-15T09:40:56Z</time>
      </trkpt>
      <trkpt lat="47.30376" lon="-2.4324">
        <ele>50</ele>
        <time>2019-09-15T09:40:58Z</time>
      </trkpt>
      <trkpt lat="47.30369" lon="-2.43239">
        <ele>51</ele>
        <time>2019-09-15T09:40:59Z</time>
      </trkpt>
      <trkpt lat="47.30363" lon="-2.4324">
        <ele>50</ele>
        <time>2019-09-15T09:41:00Z</time>
      </trkpt>
      <trkpt lat="47.30356" lon="-2.43241">
        <ele>50</ele>
        <time>2019-09-15T09:41:01Z</time>
      </trkpt>
      <trkpt lat="47.3035" lon="-2.43243">
        <ele>50</ele>
        <time>2019-09-15T09:41:02Z</time>
      </trkpt>
      <trkpt lat="47.30343" lon="-2.43245">
        <ele>51</ele>
        <time>2019-09-15T09:41:03Z</time>
      </trkpt>
      <trkpt lat="47.30336" lon="-2.43247">
        <ele>50</ele>
        <time>2019-09-15T09:41:04Z</time>
      </trkpt>
      <trkpt lat="47.3033" lon="-2.43249">
        <ele>50</ele>
        <time>2019-09-15T09:41:05Z</time>
      </trkpt>
      <trkpt lat="47.30302" lon="-2.43254">
        <ele>50</ele>
        <time>2019-09-15T09:41:09Z</time>
      </trkpt>
      <trkpt lat="47.30281" lon="-2.43259">
        <ele>50</ele>
        <time>2019-09-15T09:41:12Z</time>
      </trkpt>
      <trkpt lat="47.30274" lon="-2.43261">
        <ele>50</ele>
        <time>2019-09-15T09:41:13Z</time>
      </trkpt>
      <trkpt lat="47.30268" lon="-2.43264">
        <ele>50</ele>
        <time>2019-09-15T09:41:14Z</time>
      </trkpt>
      <trkpt lat="47.30262" lon="-2.43267">
        <ele>51</ele>
        <time>2019-09-15T09:41:15Z</time>
      </trkpt>
      <trkpt lat="47.30254" lon="-2.43269">
        <ele>51</ele>
        <time>2019-09-15T09:41:16Z</time>
      </trkpt>
      <trkpt lat="47.30247" lon="-2.43272">
        <ele>51</ele>
        <time>2019-09-15T09:41:17Z</time>
      </trkpt>
      <trkpt lat="47.3024" lon="-2.43275">
        <ele>51</ele>
        <time>2019-09-15T09:41:18Z</time>
      </trkpt>
      <trkpt lat="47.30233" lon="-2.43278">
        <ele>51</ele>
        <time>2019-09-15T09:41:19Z</time>
      </trkpt>
      <trkpt lat="47.30227" lon="-2.43281">
        <ele>51</ele>
        <time>2019-09-15T09:41:20Z</time>
      </trkpt>
      <trkpt lat="47.3022" lon="-2.43284">
        <ele>51</ele>
        <time>2019-09-15T09:41:21Z</time>
      </trkpt>
      <trkpt lat="47.30213" lon="-2.43287">
        <ele>51</ele>
        <time>2019-09-15T09:41:22Z</time>
      </trkpt>
      <trkpt lat="47.30205" lon="-2.4329">
        <ele>51</ele>
        <time>2019-09-15T09:41:23Z</time>
      </trkpt>
      <trkpt lat="47.30198" lon="-2.43293">
        <ele>50</ele>
        <time>2019-09-15T09:41:24Z</time>
      </trkpt>
      <trkpt lat="47.30191" lon="-2.43296">
        <ele>50</ele>
        <time>2019-09-15T09:41:25Z</time>
      </trkpt>
      <trkpt lat="47.30184" lon="-2.43299">
        <ele>50</ele>
        <time>2019-09-15T09:41:26Z</time>
      </trkpt>
      <trkpt lat="47.30177" lon="-2.43303">
        <ele>50</ele>
        <time>2019-09-15T09:41:27Z</time>
      </trkpt>
      <trkpt lat="47.30164" lon="-2.43309">
        <ele>50</ele>
        <time>2019-09-15T09:41:29Z</time>
      </trkpt>
      <trkpt lat="47.30157" lon="-2.43312">
        <ele>50</ele>
        <time>2019-09-15T09:41:30Z</time>
      </trkpt>
      <trkpt lat="47.30149" lon="-2.43314">
        <ele>50</ele>
        <time>2019-09-15T09:41:31Z</time>
      </trkpt>
      <trkpt lat="47.30142" lon="-2.43317">
        <ele>50</ele>
        <time>2019-09-15T09:41:32Z</time>
      </trkpt>
      <trkpt lat="47.30135" lon="-2.43319">
        <ele>50</ele>
        <time>2019-09-15T09:41:33Z</time>
      </trkpt>
      <trkpt lat="47.30128" lon="-2.4332">
        <ele>50</ele>
        <time>2019-09-15T09:41:34Z</time>
      </trkpt>
      <trkpt lat="47.3012" lon="-2.43322">
        <ele>50</ele>
        <time>2019-09-15T09:41:35Z</time>
      </trkpt>
      <trkpt lat="47.30113" lon="-2.43325">
        <ele>50</ele>
        <time>2019-09-15T09:41:36Z</time>
      </trkpt>
      <trkpt lat="47.30105" lon="-2.43326">
        <ele>50</ele>
        <time>2019-09-15T09:41:37Z</time>
      </trkpt>
      <trkpt lat="47.30097" lon="-2.43328">
        <ele>50</ele>
        <time>2019-09-15T09:41:38Z</time>
      </trkpt>
      <trkpt lat="47.3009" lon="-2.4333">
        <ele>50</ele>
        <time>2019-09-15T09:41:39Z</time>
      </trkpt>
      <trkpt lat="47.30082" lon="-2.43333">
        <ele>50</ele>
        <time>2019-09-15T09:41:40Z</time>
      </trkpt>
      <trkpt lat="47.30075" lon="-2.43334">
        <ele>50</ele>
        <time>2019-09-15T09:41:41Z</time>
      </trkpt>
      <trkpt lat="47.30067" lon="-2.43336">
        <ele>49</ele>
        <time>2019-09-15T09:41:42Z</time>
      </trkpt>
      <trkpt lat="47.3006" lon="-2.43337">
        <ele>50</ele>
        <time>2019-09-15T09:41:43Z</time>
      </trkpt>
      <trkpt lat="47.30053" lon="-2.43338">
        <ele>50</ele>
        <time>2019-09-15T09:41:44Z</time>
      </trkpt>
      <trkpt lat="47.30046" lon="-2.43339">
        <ele>50</ele>
        <time>2019-09-15T09:41:45Z</time>
      </trkpt>
      <trkpt lat="47.30039" lon="-2.43338">
        <ele>50</ele>
        <time>2019-09-15T09:41:46Z</time>
      </trkpt>
      <trkpt lat="47.30032" lon="-2.43337">
        <ele>50</ele>
        <time>2019-09-15T09:41:47Z</time>
      </trkpt>
      <trkpt lat="47.30025" lon="-2.43335">
        <ele>50</ele>
        <time>2019-09-15T09:41:48Z</time>
      </trkpt>
      <trkpt lat="47.30018" lon="-2.43332">
        <ele>50</ele>
        <time>2019-09-15T09:41:49Z</time>
      </trkpt>
      <trkpt lat="47.30012" lon="-2.43328">
        <ele>51</ele>
        <time>2019-09-15T09:41:50Z</time>
      </trkpt>
      <trkpt lat="47.30005" lon="-2.43324">
        <ele>50</ele>
        <time>2019-09-15T09:41:51Z</time>
      </trkpt>
      <trkpt lat="47.29999" lon="-2.43318">
        <ele>50</ele>
        <time>2019-09-15T09:41:52Z</time>
      </trkpt>
      <trkpt lat="47.29993" lon="-2.43313">
        <ele>50</ele>
        <time>2019-09-15T09:41:53Z</time>
      </trkpt>
      <trkpt lat="47.29987" lon="-2.43308">
        <ele>50</ele>
        <time>2019-09-15T09:41:54Z</time>
      </trkpt>
      <trkpt lat="47.29981" lon="-2.43302">
        <ele>50</ele>
        <time>2019-09-15T09:41:55Z</time>
      </trkpt>
      <trkpt lat="47.29974" lon="-2.43298">
        <ele>50</ele>
        <time>2019-09-15T09:41:56Z</time>
      </trkpt>
      <trkpt lat="47.29967" lon="-2.43296">
        <ele>50</ele>
        <time>2019-09-15T09:41:57Z</time>
      </trkpt>
      <trkpt lat="47.29953" lon="-2.43299">
        <ele>50</ele>
        <time>2019-09-15T09:41:59Z</time>
      </trkpt>
      <trkpt lat="47.29947" lon="-2.43302">
        <ele>50</ele>
        <time>2019-09-15T09:42:00Z</time>
      </trkpt>
      <trkpt lat="47.2994" lon="-2.43305">
        <ele>49</ele>
        <time>2019-09-15T09:42:01Z</time>
      </trkpt>
      <trkpt lat="47.29933" lon="-2.43308">
        <ele>49</ele>
        <time>2019-09-15T09:42:02Z</time>
      </trkpt>
      <trkpt lat="47.29926" lon="-2.4331">
        <ele>49</ele>
        <time>2019-09-15T09:42:03Z</time>
      </trkpt>
      <trkpt lat="47.29919" lon="-2.43313">
        <ele>49</ele>
        <time>2019-09-15T09:42:04Z</time>
      </trkpt>
      <trkpt lat="47.29913" lon="-2.43315">
        <ele>49</ele>
        <time>2019-09-15T09:42:05Z</time>
      </trkpt>
      <trkpt lat="47.29906" lon="-2.43318">
        <ele>49</ele>
        <time>2019-09-15T09:42:06Z</time>
      </trkpt>
      <trkpt lat="47.299" lon="-2.43321">
        <ele>49</ele>
        <time>2019-09-15T09:42:07Z</time>
      </trkpt>
      <trkpt lat="47.29888" lon="-2.43326">
        <ele>50</ele>
        <time>2019-09-15T09:42:09Z</time>
      </trkpt>
      <trkpt lat="47.29883" lon="-2.43329">
        <ele>50</ele>
        <time>2019-09-15T09:42:10Z</time>
      </trkpt>
      <trkpt lat="47.29877" lon="-2.43333">
        <ele>50</ele>
        <time>2019-09-15T09:42:11Z</time>
      </trkpt>
      <trkpt lat="47.29872" lon="-2.43337">
        <ele>50</ele>
        <time>2019-09-15T09:42:12Z</time>
      </trkpt>
      <trkpt lat="47.29867" lon="-2.43341">
        <ele>50</ele>
        <time>2019-09-15T09:42:13Z</time>
      </trkpt>
      <trkpt lat="47.29861" lon="-2.43346">
        <ele>50</ele>
        <time>2019-09-15T09:42:14Z</time>
      </trkpt>
      <trkpt lat="47.29856" lon="-2.43352">
        <ele>50</ele>
        <time>2019-09-15T09:42:15Z</time>
      </trkpt>
      <trkpt lat="47.2985" lon="-2.43358">
        <ele>50</ele>
        <time>2019-09-15T09:42:16Z</time>
      </trkpt>
      <trkpt lat="47.29845" lon="-2.43364">
        <ele>50</ele>
        <time>2019-09-15T09:42:17Z</time>
      </trkpt>
      <trkpt lat="47.29839" lon="-2.4337">
        <ele>50</ele>
        <time>2019-09-15T09:42:18Z</time>
      </trkpt>
      <trkpt lat="47.29833" lon="-2.43376">
        <ele>50</ele>
        <time>2019-09-15T09:42:19Z</time>
      </trkpt>
      <trkpt lat="47.29826" lon="-2.43383">
        <ele>50</ele>
        <time>2019-09-15T09:42:20Z</time>
      </trkpt>
      <trkpt lat="47.2982" lon="-2.43389">
        <ele>51</ele>
        <time>2019-09-15T09:42:21Z</time>
      </trkpt>
      <trkpt lat="47.29815" lon="-2.43396">
        <ele>51</ele>
        <time>2019-09-15T09:42:22Z</time>
      </trkpt>
      <trkpt lat="47.29809" lon="-2.43403">
        <ele>51</ele>
        <time>2019-09-15T09:42:23Z</time>
      </trkpt>
      <trkpt lat="47.29802" lon="-2.4341">
        <ele>51</ele>
        <time>2019-09-15T09:42:24Z</time>
      </trkpt>
      <trkpt lat="47.29796" lon="-2.43417">
        <ele>51</ele>
        <time>2019-09-15T09:42:25Z</time>
      </trkpt>
      <trkpt lat="47.2979" lon="-2.43424">
        <ele>51</ele>
        <time>2019-09-15T09:42:26Z</time>
      </trkpt>
      <trkpt lat="47.29784" lon="-2.43431">
        <ele>51</ele>
        <time>2019-09-15T09:42:27Z</time>
      </trkpt>
      <trkpt lat="47.29778" lon="-2.43438">
        <ele>51</ele>
        <time>2019-09-15T09:42:28Z</time>
      </trkpt>
      <trkpt lat="47.29771" lon="-2.43445">
        <ele>51</ele>
        <time>2019-09-15T09:42:29Z</time>
      </trkpt>
      <trkpt lat="47.29764" lon="-2.43452">
        <ele>51</ele>
        <time>2019-09-15T09:42:30Z</time>
      </trkpt>
      <trkpt lat="47.29758" lon="-2.43459">
        <ele>51</ele>
        <time>2019-09-15T09:42:31Z</time>
      </trkpt>
      <trkpt lat="47.29751" lon="-2.43465">
        <ele>51</ele>
        <time>2019-09-15T09:42:32Z</time>
      </trkpt>
      <trkpt lat="47.29745" lon="-2.43471">
        <ele>51</ele>
        <time>2019-09-15T09:42:33Z</time>
      </trkpt>
      <trkpt lat="47.29738" lon="-2.43477">
        <ele>51</ele>
        <time>2019-09-15T09:42:34Z</time>
      </trkpt>
      <trkpt lat="47.29732" lon="-2.43482">
        <ele>51</ele>
        <time>2019-09-15T09:42:35Z</time>
      </trkpt>
      <trkpt lat="47.29725" lon="-2.43488">
        <ele>51</ele>
        <time>2019-09-15T09:42:36Z</time>
      </trkpt>
      <trkpt lat="47.29718" lon="-2.43494">
        <ele>51</ele>
        <time>2019-09-15T09:42:37Z</time>
      </trkpt>
      <trkpt lat="47.2971" lon="-2.43499">
        <ele>51</ele>
        <time>2019-09-15T09:42:38Z</time>
      </trkpt>
      <trkpt lat="47.29703" lon="-2.43505">
        <ele>51</ele>
        <time>2019-09-15T09:42:39Z</time>
      </trkpt>
      <trkpt lat="47.29695" lon="-2.4351">
        <ele>50</ele>
        <time>2019-09-15T09:42:40Z</time>
      </trkpt>
      <trkpt lat="47.29689" lon="-2.43516">
        <ele>50</ele>
        <time>2019-09-15T09:42:41Z</time>
      </trkpt>
      <trkpt lat="47.29682" lon="-2.43521">
        <ele>50</ele>
        <time>2019-09-15T09:42:42Z</time>
      </trkpt>
      <trkpt lat="47.29675" lon="-2.43526">
        <ele>51</ele>
        <time>2019-09-15T09:42:43Z</time>
      </trkpt>
      <trkpt lat="47.29668" lon="-2.4353">
        <ele>51</ele>
        <time>2019-09-15T09:42:44Z</time>
      </trkpt>
      <trkpt lat="47.29662" lon="-2.43534">
        <ele>51</ele>
        <time>2019-09-15T09:42:45Z</time>
      </trkpt>
      <trkpt lat="47.29645" lon="-2.43547">
        <ele>52</ele>
        <time>2019-09-15T09:42:48Z</time>
      </trkpt>
      <trkpt lat="47.29639" lon="-2.43553">
        <ele>51</ele>
        <time>2019-09-15T09:42:49Z</time>
      </trkpt>
      <trkpt lat="47.29634" lon="-2.43557">
        <ele>51</ele>
        <time>2019-09-15T09:42:50Z</time>
      </trkpt>
      <trkpt lat="47.29629" lon="-2.43556">
        <ele>52</ele>
        <time>2019-09-15T09:42:51Z</time>
      </trkpt>
      <trkpt lat="47.29624" lon="-2.43545">
        <ele>52</ele>
        <time>2019-09-15T09:42:53Z</time>
      </trkpt>
      <trkpt lat="47.29623" lon="-2.43537">
        <ele>51</ele>
        <time>2019-09-15T09:42:54Z</time>
      </trkpt>
      <trkpt lat="47.29625" lon="-2.43529">
        <ele>52</ele>
        <time>2019-09-15T09:42:55Z</time>
      </trkpt>
      <trkpt lat="47.29626" lon="-2.43521">
        <ele>51</ele>
        <time>2019-09-15T09:42:56Z</time>
      </trkpt>
      <trkpt lat="47.29625" lon="-2.43513">
        <ele>51</ele>
        <time>2019-09-15T09:42:57Z</time>
      </trkpt>
      <trkpt lat="47.29623" lon="-2.43506">
        <ele>51</ele>
        <time>2019-09-15T09:42:58Z</time>
      </trkpt>
      <trkpt lat="47.29614" lon="-2.43497">
        <ele>52</ele>
        <time>2019-09-15T09:43:00Z</time>
      </trkpt>
      <trkpt lat="47.29608" lon="-2.43497">
        <ele>52</ele>
        <time>2019-09-15T09:43:01Z</time>
      </trkpt>
      <trkpt lat="47.29601" lon="-2.43498">
        <ele>52</ele>
        <time>2019-09-15T09:43:02Z</time>
      </trkpt>
      <trkpt lat="47.29594" lon="-2.43498">
        <ele>52</ele>
        <time>2019-09-15T09:43:03Z</time>
      </trkpt>
      <trkpt lat="47.29587" lon="-2.43497">
        <ele>52</ele>
        <time>2019-09-15T09:43:04Z</time>
      </trkpt>
      <trkpt lat="47.29566" lon="-2.43497">
        <ele>51</ele>
        <time>2019-09-15T09:43:07Z</time>
      </trkpt>
      <trkpt lat="47.29552" lon="-2.43495">
        <ele>51</ele>
        <time>2019-09-15T09:43:09Z</time>
      </trkpt>
      <trkpt lat="47.29545" lon="-2.43494">
        <ele>51</ele>
        <time>2019-09-15T09:43:10Z</time>
      </trkpt>
      <trkpt lat="47.29538" lon="-2.43492">
        <ele>51</ele>
        <time>2019-09-15T09:43:11Z</time>
      </trkpt>
      <trkpt lat="47.29531" lon="-2.4349">
        <ele>51</ele>
        <time>2019-09-15T09:43:12Z</time>
      </trkpt>
      <trkpt lat="47.29523" lon="-2.43488">
        <ele>51</ele>
        <time>2019-09-15T09:43:13Z</time>
      </trkpt>
      <trkpt lat="47.29516" lon="-2.43487">
        <ele>51</ele>
        <time>2019-09-15T09:43:14Z</time>
      </trkpt>
      <trkpt lat="47.2951" lon="-2.43484">
        <ele>51</ele>
        <time>2019-09-15T09:43:15Z</time>
      </trkpt>
      <trkpt lat="47.29503" lon="-2.43481">
        <ele>52</ele>
        <time>2019-09-15T09:43:16Z</time>
      </trkpt>
      <trkpt lat="47.29492" lon="-2.43475">
        <ele>52</ele>
        <time>2019-09-15T09:43:18Z</time>
      </trkpt>
      <trkpt lat="47.29486" lon="-2.43471">
        <ele>51</ele>
        <time>2019-09-15T09:43:19Z</time>
      </trkpt>
      <trkpt lat="47.2948" lon="-2.43468">
        <ele>51</ele>
        <time>2019-09-15T09:43:20Z</time>
      </trkpt>
      <trkpt lat="47.29476" lon="-2.43465">
        <ele>51</ele>
        <time>2019-09-15T09:43:21Z</time>
      </trkpt>
      <trkpt lat="47.29472" lon="-2.43462">
        <ele>51</ele>
        <time>2019-09-15T09:43:22Z</time>
      </trkpt>
      <trkpt lat="47.29464" lon="-2.43463">
        <ele>52</ele>
        <time>2019-09-15T09:43:24Z</time>
      </trkpt>
      <trkpt lat="47.29456" lon="-2.43466">
        <ele>52</ele>
        <time>2019-09-15T09:43:26Z</time>
      </trkpt>
      <trkpt lat="47.29449" lon="-2.4346">
        <ele>51</ele>
        <time>2019-09-15T09:43:28Z</time>
      </trkpt>
      <trkpt lat="47.29442" lon="-2.43444">
        <ele>51</ele>
        <time>2019-09-15T09:43:31Z</time>
      </trkpt>
      <trkpt lat="47.29439" lon="-2.43427">
        <ele>51</ele>
        <time>2019-09-15T09:43:34Z</time>
      </trkpt>
      <trkpt lat="47.29438" lon="-2.43421">
        <ele>52</ele>
        <time>2019-09-15T09:43:35Z</time>
      </trkpt>
      <trkpt lat="47.29437" lon="-2.43415">
        <ele>51</ele>
        <time>2019-09-15T09:43:36Z</time>
      </trkpt>
      <trkpt lat="47.29437" lon="-2.43409">
        <ele>51</ele>
        <time>2019-09-15T09:43:37Z</time>
      </trkpt>
      <trkpt lat="47.2943" lon="-2.43394">
        <ele>51</ele>
        <time>2019-09-15T09:43:40Z</time>
      </trkpt>
      <trkpt lat="47.29426" lon="-2.43391">
        <ele>51</ele>
        <time>2019-09-15T09:43:41Z</time>
      </trkpt>
      <trkpt lat="47.29414" lon="-2.43381">
        <ele>51</ele>
        <time>2019-09-15T09:43:45Z</time>
      </trkpt>
      <trkpt lat="47.29412" lon="-2.43368">
        <ele>52</ele>
        <time>2019-09-15T09:43:47Z</time>
      </trkpt>
      <trkpt lat="47.29411" lon="-2.4336">
        <ele>52</ele>
        <time>2019-09-15T09:43:48Z</time>
      </trkpt>
      <trkpt lat="47.29404" lon="-2.43344">
        <ele>52</ele>
        <time>2019-09-15T09:43:51Z</time>
      </trkpt>
      <trkpt lat="47.294" lon="-2.43339">
        <ele>51</ele>
        <time>2019-09-15T09:43:52Z</time>
      </trkpt>
      <trkpt lat="47.29396" lon="-2.43334">
        <ele>52</ele>
        <time>2019-09-15T09:43:53Z</time>
      </trkpt>
      <trkpt lat="47.29392" lon="-2.43328">
        <ele>52</ele>
        <time>2019-09-15T09:43:54Z</time>
      </trkpt>
      <trkpt lat="47.29388" lon="-2.43323">
        <ele>52</ele>
        <time>2019-09-15T09:43:55Z</time>
      </trkpt>
      <trkpt lat="47.29384" lon="-2.43317">
        <ele>52</ele>
        <time>2019-09-15T09:43:56Z</time>
      </trkpt>
      <trkpt lat="47.2938" lon="-2.43311">
        <ele>52</ele>
        <time>2019-09-15T09:43:57Z</time>
      </trkpt>
      <trkpt lat="47.29375" lon="-2.43306">
        <ele>52</ele>
        <time>2019-09-15T09:43:58Z</time>
      </trkpt>
      <trkpt lat="47.29371" lon="-2.433">
        <ele>51</ele>
        <time>2019-09-15T09:43:59Z</time>
      </trkpt>
      <trkpt lat="47.29368" lon="-2.43293">
        <ele>52</ele>
        <time>2019-09-15T09:44:00Z</time>
      </trkpt>
      <trkpt lat="47.29366" lon="-2.43286">
        <ele>52</ele>
        <time>2019-09-15T09:44:01Z</time>
      </trkpt>
      <trkpt lat="47.29363" lon="-2.43263">
        <ele>51</ele>
        <time>2019-09-15T09:44:04Z</time>
      </trkpt>
      <trkpt lat="47.29362" lon="-2.43258">
        <ele>51</ele>
        <time>2019-09-15T09:44:05Z</time>
      </trkpt>
      <trkpt lat="47.29362" lon="-2.43248">
        <ele>51</ele>
        <time>2019-09-15T09:44:07Z</time>
      </trkpt>
      <trkpt lat="47.29366" lon="-2.43234">
        <ele>52</ele>
        <time>2019-09-15T09:44:10Z</time>
      </trkpt>
      <trkpt lat="47.2937" lon="-2.43227">
        <ele>52</ele>
        <time>2019-09-15T09:44:11Z</time>
      </trkpt>
      <trkpt lat="47.29373" lon="-2.43219">
        <ele>52</ele>
        <time>2019-09-15T09:44:12Z</time>
      </trkpt>
      <trkpt lat="47.29375" lon="-2.43211">
        <ele>52</ele>
        <time>2019-09-15T09:44:13Z</time>
      </trkpt>
      <trkpt lat="47.29376" lon="-2.43203">
        <ele>52</ele>
        <time>2019-09-15T09:44:14Z</time>
      </trkpt>
      <trkpt lat="47.29375" lon="-2.43194">
        <ele>52</ele>
        <time>2019-09-15T09:44:15Z</time>
      </trkpt>
      <trkpt lat="47.29373" lon="-2.43179">
        <ele>51</ele>
        <time>2019-09-15T09:44:17Z</time>
      </trkpt>
      <trkpt lat="47.29372" lon="-2.4317">
        <ele>51</ele>
        <time>2019-09-15T09:44:18Z</time>
      </trkpt>
      <trkpt lat="47.2937" lon="-2.43162">
        <ele>51</ele>
        <time>2019-09-15T09:44:19Z</time>
      </trkpt>
      <trkpt lat="47.29368" lon="-2.43154">
        <ele>51</ele>
        <time>2019-09-15T09:44:20Z</time>
      </trkpt>
      <trkpt lat="47.29366" lon="-2.43146">
        <ele>51</ele>
        <time>2019-09-15T09:44:21Z</time>
      </trkpt>
      <trkpt lat="47.29364" lon="-2.43138">
        <ele>51</ele>
        <time>2019-09-15T09:44:22Z</time>
      </trkpt>
      <trkpt lat="47.29358" lon="-2.43123">
        <ele>51</ele>
        <time>2019-09-15T09:44:24Z</time>
      </trkpt>
      <trkpt lat="47.29355" lon="-2.43116">
        <ele>51</ele>
        <time>2019-09-15T09:44:25Z</time>
      </trkpt>
      <trkpt lat="47.29347" lon="-2.43102">
        <ele>51</ele>
        <time>2019-09-15T09:44:27Z</time>
      </trkpt>
      <trkpt lat="47.29344" lon="-2.43095">
        <ele>51</ele>
        <time>2019-09-15T09:44:28Z</time>
      </trkpt>
      <trkpt lat="47.29339" lon="-2.4309">
        <ele>51</ele>
        <time>2019-09-15T09:44:29Z</time>
      </trkpt>
      <trkpt lat="47.29328" lon="-2.43081">
        <ele>51</ele>
        <time>2019-09-15T09:44:31Z</time>
      </trkpt>
      <trkpt lat="47.29322" lon="-2.43078">
        <ele>50</ele>
        <time>2019-09-15T09:44:32Z</time>
      </trkpt>
      <trkpt lat="47.29317" lon="-2.43075">
        <ele>50</ele>
        <time>2019-09-15T09:44:33Z</time>
      </trkpt>
      <trkpt lat="47.29309" lon="-2.43064">
        <ele>51</ele>
        <time>2019-09-15T09:44:35Z</time>
      </trkpt>
      <trkpt lat="47.29307" lon="-2.43056">
        <ele>51</ele>
        <time>2019-09-15T09:44:36Z</time>
      </trkpt>
      <trkpt lat="47.29307" lon="-2.43047">
        <ele>51</ele>
        <time>2019-09-15T09:44:37Z</time>
      </trkpt>
      <trkpt lat="47.29307" lon="-2.43038">
        <ele>51</ele>
        <time>2019-09-15T09:44:38Z</time>
      </trkpt>
      <trkpt lat="47.29309" lon="-2.43021">
        <ele>51</ele>
        <time>2019-09-15T09:44:40Z</time>
      </trkpt>
      <trkpt lat="47.29311" lon="-2.43003">
        <ele>51</ele>
        <time>2019-09-15T09:44:42Z</time>
      </trkpt>
      <trkpt lat="47.29312" lon="-2.42996">
        <ele>51</ele>
        <time>2019-09-15T09:44:43Z</time>
      </trkpt>
      <trkpt lat="47.29313" lon="-2.42986">
        <ele>51</ele>
        <time>2019-09-15T09:44:44Z</time>
      </trkpt>
      <trkpt lat="47.29314" lon="-2.42977">
        <ele>51</ele>
        <time>2019-09-15T09:44:45Z</time>
      </trkpt>
      <trkpt lat="47.29315" lon="-2.42968">
        <ele>51</ele>
        <time>2019-09-15T09:44:46Z</time>
      </trkpt>
      <trkpt lat="47.29314" lon="-2.42958">
        <ele>51</ele>
        <time>2019-09-15T09:44:47Z</time>
      </trkpt>
      <trkpt lat="47.29313" lon="-2.42949">
        <ele>51</ele>
        <time>2019-09-15T09:44:48Z</time>
      </trkpt>
      <trkpt lat="47.29313" lon="-2.42939">
        <ele>51</ele>
        <time>2019-09-15T09:44:49Z</time>
      </trkpt>
      <trkpt lat="47.29313" lon="-2.4293">
        <ele>52</ele>
        <time>2019-09-15T09:44:50Z</time>
      </trkpt>
      <trkpt lat="47.29315" lon="-2.42921">
        <ele>52</ele>
        <time>2019-09-15T09:44:51Z</time>
      </trkpt>
      <trkpt lat="47.29317" lon="-2.42913">
        <ele>52</ele>
        <time>2019-09-15T09:44:52Z</time>
      </trkpt>
      <trkpt lat="47.29319" lon="-2.42904">
        <ele>52</ele>
        <time>2019-09-15T09:44:53Z</time>
      </trkpt>
      <trkpt lat="47.29322" lon="-2.42896">
        <ele>52</ele>
        <time>2019-09-15T09:44:54Z</time>
      </trkpt>
      <trkpt lat="47.29324" lon="-2.42888">
        <ele>52</ele>
        <time>2019-09-15T09:44:55Z</time>
      </trkpt>
      <trkpt lat="47.29326" lon="-2.4288">
        <ele>52</ele>
        <time>2019-09-15T09:44:56Z</time>
      </trkpt>
      <trkpt lat="47.29329" lon="-2.42871">
        <ele>52</ele>
        <time>2019-09-15T09:44:57Z</time>
      </trkpt>
      <trkpt lat="47.29335" lon="-2.42855">
        <ele>51</ele>
        <time>2019-09-15T09:44:59Z</time>
      </trkpt>
      <trkpt lat="47.29352" lon="-2.42826">
        <ele>51</ele>
        <time>2019-09-15T09:45:03Z</time>
      </trkpt>
      <trkpt lat="47.29362" lon="-2.42815">
        <ele>51</ele>
        <time>2019-09-15T09:45:04Z</time>
      </trkpt>
      <trkpt lat="47.29367" lon="-2.4281">
        <ele>51</ele>
        <time>2019-09-15T09:45:05Z</time>
      </trkpt>
      <trkpt lat="47.29375" lon="-2.42796">
        <ele>51</ele>
        <time>2019-09-15T09:45:07Z</time>
      </trkpt>
      <trkpt lat="47.29378" lon="-2.42788">
        <ele>51</ele>
        <time>2019-09-15T09:45:09Z</time>
      </trkpt>
      <trkpt lat="47.29383" lon="-2.42772">
        <ele>51</ele>
        <time>2019-09-15T09:45:11Z</time>
      </trkpt>
      <trkpt lat="47.29387" lon="-2.42754">
        <ele>51</ele>
        <time>2019-09-15T09:45:13Z</time>
      </trkpt>
      <trkpt lat="47.29394" lon="-2.42732">
        <ele>51</ele>
        <time>2019-09-15T09:45:15Z</time>
      </trkpt>
      <trkpt lat="47.29397" lon="-2.42724">
        <ele>50</ele>
        <time>2019-09-15T09:45:16Z</time>
      </trkpt>
      <trkpt lat="47.294" lon="-2.42715">
        <ele>51</ele>
        <time>2019-09-15T09:45:17Z</time>
      </trkpt>
      <trkpt lat="47.29404" lon="-2.42706">
        <ele>50</ele>
        <time>2019-09-15T09:45:18Z</time>
      </trkpt>
      <trkpt lat="47.29408" lon="-2.42698">
        <ele>50</ele>
        <time>2019-09-15T09:45:19Z</time>
      </trkpt>
      <trkpt lat="47.29411" lon="-2.42691">
        <ele>50</ele>
        <time>2019-09-15T09:45:20Z</time>
      </trkpt>
      <trkpt lat="47.29414" lon="-2.42683">
        <ele>50</ele>
        <time>2019-09-15T09:45:22Z</time>
      </trkpt>
      <trkpt lat="47.29416" lon="-2.42674">
        <ele>50</ele>
        <time>2019-09-15T09:45:23Z</time>
      </trkpt>
      <trkpt lat="47.29417" lon="-2.42665">
        <ele>50</ele>
        <time>2019-09-15T09:45:24Z</time>
      </trkpt>
      <trkpt lat="47.29418" lon="-2.42656">
        <ele>50</ele>
        <time>2019-09-15T09:45:25Z</time>
      </trkpt>
      <trkpt lat="47.29419" lon="-2.42647">
        <ele>50</ele>
        <time>2019-09-15T09:45:26Z</time>
      </trkpt>
      <trkpt lat="47.2942" lon="-2.42638">
        <ele>50</ele>
        <time>2019-09-15T09:45:27Z</time>
      </trkpt>
      <trkpt lat="47.2942" lon="-2.42629">
        <ele>50</ele>
        <time>2019-09-15T09:45:28Z</time>
      </trkpt>
      <trkpt lat="47.29421" lon="-2.4262">
        <ele>50</ele>
        <time>2019-09-15T09:45:29Z</time>
      </trkpt>
      <trkpt lat="47.29421" lon="-2.42611">
        <ele>51</ele>
        <time>2019-09-15T09:45:30Z</time>
      </trkpt>
      <trkpt lat="47.29421" lon="-2.42602">
        <ele>50</ele>
        <time>2019-09-15T09:45:31Z</time>
      </trkpt>
      <trkpt lat="47.29422" lon="-2.42594">
        <ele>50</ele>
        <time>2019-09-15T09:45:32Z</time>
      </trkpt>
      <trkpt lat="47.29429" lon="-2.4258">
        <ele>50</ele>
        <time>2019-09-15T09:45:34Z</time>
      </trkpt>
      <trkpt lat="47.29432" lon="-2.42575">
        <ele>50</ele>
        <time>2019-09-15T09:45:35Z</time>
      </trkpt>
      <trkpt lat="47.29436" lon="-2.4257">
        <ele>50</ele>
        <time>2019-09-15T09:45:36Z</time>
      </trkpt>
      <trkpt lat="47.2944" lon="-2.42565">
        <ele>50</ele>
        <time>2019-09-15T09:45:37Z</time>
      </trkpt>
      <trkpt lat="47.29444" lon="-2.42559">
        <ele>50</ele>
        <time>2019-09-15T09:45:38Z</time>
      </trkpt>
      <trkpt lat="47.29452" lon="-2.4255">
        <ele>50</ele>
        <time>2019-09-15T09:45:40Z</time>
      </trkpt>
      <trkpt lat="47.29456" lon="-2.42546">
        <ele>50</ele>
        <time>2019-09-15T09:45:41Z</time>
      </trkpt>
      <trkpt lat="47.2946" lon="-2.42543">
        <ele>50</ele>
        <time>2019-09-15T09:45:42Z</time>
      </trkpt>
      <trkpt lat="47.29464" lon="-2.42539">
        <ele>50</ele>
        <time>2019-09-15T09:45:43Z</time>
      </trkpt>
      <trkpt lat="47.29468" lon="-2.42535">
        <ele>50</ele>
        <time>2019-09-15T09:45:44Z</time>
      </trkpt>
      <trkpt lat="47.29472" lon="-2.4253">
        <ele>50</ele>
        <time>2019-09-15T09:45:45Z</time>
      </trkpt>
      <trkpt lat="47.29476" lon="-2.42525">
        <ele>50</ele>
        <time>2019-09-15T09:45:46Z</time>
      </trkpt>
      <trkpt lat="47.29483" lon="-2.42517">
        <ele>50</ele>
        <time>2019-09-15T09:45:48Z</time>
      </trkpt>
      <trkpt lat="47.29495" lon="-2.42506">
        <ele>50</ele>
        <time>2019-09-15T09:45:51Z</time>
      </trkpt>
      <trkpt lat="47.29499" lon="-2.42502">
        <ele>50</ele>
        <time>2019-09-15T09:45:52Z</time>
      </trkpt>
      <trkpt lat="47.29503" lon="-2.42497">
        <ele>50</ele>
        <time>2019-09-15T09:45:53Z</time>
      </trkpt>
      <trkpt lat="47.29507" lon="-2.42492">
        <ele>50</ele>
        <time>2019-09-15T09:45:54Z</time>
      </trkpt>
      <trkpt lat="47.29511" lon="-2.42488">
        <ele>50</ele>
        <time>2019-09-15T09:45:55Z</time>
      </trkpt>
      <trkpt lat="47.29516" lon="-2.42485">
        <ele>50</ele>
        <time>2019-09-15T09:45:56Z</time>
      </trkpt>
      <trkpt lat="47.29521" lon="-2.42482">
        <ele>50</ele>
        <time>2019-09-15T09:45:57Z</time>
      </trkpt>
      <trkpt lat="47.29525" lon="-2.42478">
        <ele>50</ele>
        <time>2019-09-15T09:45:58Z</time>
      </trkpt>
      <trkpt lat="47.2953" lon="-2.42474">
        <ele>50</ele>
        <time>2019-09-15T09:45:59Z</time>
      </trkpt>
      <trkpt lat="47.29535" lon="-2.42469">
        <ele>50</ele>
        <time>2019-09-15T09:46:00Z</time>
      </trkpt>
      <trkpt lat="47.29538" lon="-2.42463">
        <ele>50</ele>
        <time>2019-09-15T09:46:01Z</time>
      </trkpt>
      <trkpt lat="47.29542" lon="-2.42458">
        <ele>50</ele>
        <time>2019-09-15T09:46:02Z</time>
      </trkpt>
      <trkpt lat="47.29545" lon="-2.42451">
        <ele>50</ele>
        <time>2019-09-15T09:46:03Z</time>
      </trkpt>
      <trkpt lat="47.29553" lon="-2.4244">
        <ele>50</ele>
        <time>2019-09-15T09:46:05Z</time>
      </trkpt>
      <trkpt lat="47.29561" lon="-2.42431">
        <ele>50</ele>
        <time>2019-09-15T09:46:07Z</time>
      </trkpt>
      <trkpt lat="47.29565" lon="-2.42428">
        <ele>49</ele>
        <time>2019-09-15T09:46:08Z</time>
      </trkpt>
      <trkpt lat="47.29575" lon="-2.42425">
        <ele>50</ele>
        <time>2019-09-15T09:46:10Z</time>
      </trkpt>
      <trkpt lat="47.29581" lon="-2.42424">
        <ele>49</ele>
        <time>2019-09-15T09:46:11Z</time>
      </trkpt>
      <trkpt lat="47.29586" lon="-2.42425">
        <ele>49</ele>
        <time>2019-09-15T09:46:12Z</time>
      </trkpt>
      <trkpt lat="47.29591" lon="-2.42425">
        <ele>49</ele>
        <time>2019-09-15T09:46:13Z</time>
      </trkpt>
      <trkpt lat="47.29596" lon="-2.42426">
        <ele>49</ele>
        <time>2019-09-15T09:46:14Z</time>
      </trkpt>
      <trkpt lat="47.296" lon="-2.42427">
        <ele>50</ele>
        <time>2019-09-15T09:46:15Z</time>
      </trkpt>
      <trkpt lat="47.29614" lon="-2.42433">
        <ele>50</ele>
        <time>2019-09-15T09:46:18Z</time>
      </trkpt>
      <trkpt lat="47.29618" lon="-2.42435">
        <ele>50</ele>
        <time>2019-09-15T09:46:19Z</time>
      </trkpt>
      <trkpt lat="47.29624" lon="-2.42435">
        <ele>51</ele>
        <time>2019-09-15T09:46:21Z</time>
      </trkpt>
      <trkpt lat="47.29629" lon="-2.42426">
        <ele>51</ele>
        <time>2019-09-15T09:46:23Z</time>
      </trkpt>
      <trkpt lat="47.2963" lon="-2.42413">
        <ele>51</ele>
        <time>2019-09-15T09:46:25Z</time>
      </trkpt>
      <trkpt lat="47.29631" lon="-2.42407">
        <ele>51</ele>
        <time>2019-09-15T09:46:26Z</time>
      </trkpt>
      <trkpt lat="47.29632" lon="-2.42399">
        <ele>51</ele>
        <time>2019-09-15T09:46:27Z</time>
      </trkpt>
      <trkpt lat="47.29633" lon="-2.42392">
        <ele>51</ele>
        <time>2019-09-15T09:46:28Z</time>
      </trkpt>
      <trkpt lat="47.29634" lon="-2.42385">
        <ele>51</ele>
        <time>2019-09-15T09:46:29Z</time>
      </trkpt>
      <trkpt lat="47.29636" lon="-2.42377">
        <ele>51</ele>
        <time>2019-09-15T09:46:30Z</time>
      </trkpt>
      <trkpt lat="47.29638" lon="-2.42369">
        <ele>51</ele>
        <time>2019-09-15T09:46:31Z</time>
      </trkpt>
      <trkpt lat="47.29644" lon="-2.42344">
        <ele>50</ele>
        <time>2019-09-15T09:46:34Z</time>
      </trkpt>
      <trkpt lat="47.29646" lon="-2.42336">
        <ele>50</ele>
        <time>2019-09-15T09:46:35Z</time>
      </trkpt>
      <trkpt lat="47.29648" lon="-2.42327">
        <ele>50</ele>
        <time>2019-09-15T09:46:36Z</time>
      </trkpt>
      <trkpt lat="47.29649" lon="-2.42319">
        <ele>50</ele>
        <time>2019-09-15T09:46:37Z</time>
      </trkpt>
      <trkpt lat="47.29651" lon="-2.42311">
        <ele>50</ele>
        <time>2019-09-15T09:46:38Z</time>
      </trkpt>
      <trkpt lat="47.29653" lon="-2.42303">
        <ele>50</ele>
        <time>2019-09-15T09:46:39Z</time>
      </trkpt>
      <trkpt lat="47.29655" lon="-2.42295">
        <ele>50</ele>
        <time>2019-09-15T09:46:40Z</time>
      </trkpt>
      <trkpt lat="47.29657" lon="-2.42287">
        <ele>50</ele>
        <time>2019-09-15T09:46:41Z</time>
      </trkpt>
      <trkpt lat="47.29658" lon="-2.42279">
        <ele>50</ele>
        <time>2019-09-15T09:46:42Z</time>
      </trkpt>
      <trkpt lat="47.2966" lon="-2.42272">
        <ele>50</ele>
        <time>2019-09-15T09:46:43Z</time>
      </trkpt>
      <trkpt lat="47.29662" lon="-2.42265">
        <ele>50</ele>
        <time>2019-09-15T09:46:44Z</time>
      </trkpt>
      <trkpt lat="47.29664" lon="-2.42258">
        <ele>50</ele>
        <time>2019-09-15T09:46:45Z</time>
      </trkpt>
      <trkpt lat="47.29666" lon="-2.4225">
        <ele>50</ele>
        <time>2019-09-15T09:46:46Z</time>
      </trkpt>
      <trkpt lat="47.29668" lon="-2.42243">
        <ele>50</ele>
        <time>2019-09-15T09:46:47Z</time>
      </trkpt>
      <trkpt lat="47.29671" lon="-2.42236">
        <ele>50</ele>
        <time>2019-09-15T09:46:48Z</time>
      </trkpt>
      <trkpt lat="47.29673" lon="-2.42228">
        <ele>50</ele>
        <time>2019-09-15T09:46:49Z</time>
      </trkpt>
      <trkpt lat="47.29675" lon="-2.42221">
        <ele>50</ele>
        <time>2019-09-15T09:46:50Z</time>
      </trkpt>
      <trkpt lat="47.29678" lon="-2.42215">
        <ele>50</ele>
        <time>2019-09-15T09:46:51Z</time>
      </trkpt>
      <trkpt lat="47.29682" lon="-2.42209">
        <ele>50</ele>
        <time>2019-09-15T09:46:52Z</time>
      </trkpt>
      <trkpt lat="47.29692" lon="-2.4219">
        <ele>50</ele>
        <time>2019-09-15T09:46:55Z</time>
      </trkpt>
      <trkpt lat="47.29699" lon="-2.42178">
        <ele>50</ele>
        <time>2019-09-15T09:46:57Z</time>
      </trkpt>
      <trkpt lat="47.29703" lon="-2.42172">
        <ele>50</ele>
        <time>2019-09-15T09:46:58Z</time>
      </trkpt>
      <trkpt lat="47.2971" lon="-2.42159">
        <ele>50</ele>
        <time>2019-09-15T09:47:00Z</time>
      </trkpt>
      <trkpt lat="47.29714" lon="-2.42153">
        <ele>50</ele>
        <time>2019-09-15T09:47:01Z</time>
      </trkpt>
      <trkpt lat="47.29717" lon="-2.42147">
        <ele>50</ele>
        <time>2019-09-15T09:47:02Z</time>
      </trkpt>
      <trkpt lat="47.29721" lon="-2.4214">
        <ele>50</ele>
        <time>2019-09-15T09:47:03Z</time>
      </trkpt>
      <trkpt lat="47.29724" lon="-2.42134">
        <ele>50</ele>
        <time>2019-09-15T09:47:04Z</time>
      </trkpt>
      <trkpt lat="47.29727" lon="-2.42129">
        <ele>50</ele>
        <time>2019-09-15T09:47:05Z</time>
      </trkpt>
      <trkpt lat="47.29731" lon="-2.42122">
        <ele>50</ele>
        <time>2019-09-15T09:47:06Z</time>
      </trkpt>
      <trkpt lat="47.29734" lon="-2.42116">
        <ele>49</ele>
        <time>2019-09-15T09:47:07Z</time>
      </trkpt>
      <trkpt lat="47.29737" lon="-2.4211">
        <ele>49</ele>
        <time>2019-09-15T09:47:08Z</time>
      </trkpt>
      <trkpt lat="47.29741" lon="-2.42104">
        <ele>50</ele>
        <time>2019-09-15T09:47:09Z</time>
      </trkpt>
      <trkpt lat="47.29748" lon="-2.42091">
        <ele>49</ele>
        <time>2019-09-15T09:47:11Z</time>
      </trkpt>
      <trkpt lat="47.29751" lon="-2.42085">
        <ele>49</ele>
        <time>2019-09-15T09:47:12Z</time>
      </trkpt>
      <trkpt lat="47.29754" lon="-2.42079">
        <ele>49</ele>
        <time>2019-09-15T09:47:13Z</time>
      </trkpt>
      <trkpt lat="47.29758" lon="-2.42073">
        <ele>49</ele>
        <time>2019-09-15T09:47:14Z</time>
      </trkpt>
      <trkpt lat="47.29761" lon="-2.42067">
        <ele>49</ele>
        <time>2019-09-15T09:47:15Z</time>
      </trkpt>
      <trkpt lat="47.29764" lon="-2.42061">
        <ele>49</ele>
        <time>2019-09-15T09:47:16Z</time>
      </trkpt>
      <trkpt lat="47.29767" lon="-2.42055">
        <ele>49</ele>
        <time>2019-09-15T09:47:17Z</time>
      </trkpt>
      <trkpt lat="47.29771" lon="-2.42049">
        <ele>49</ele>
        <time>2019-09-15T09:47:18Z</time>
      </trkpt>
      <trkpt lat="47.29774" lon="-2.42043">
        <ele>49</ele>
        <time>2019-09-15T09:47:19Z</time>
      </trkpt>
      <trkpt lat="47.29777" lon="-2.42037">
        <ele>49</ele>
        <time>2019-09-15T09:47:20Z</time>
      </trkpt>
      <trkpt lat="47.29781" lon="-2.42031">
        <ele>49</ele>
        <time>2019-09-15T09:47:21Z</time>
      </trkpt>
      <trkpt lat="47.29784" lon="-2.42024">
        <ele>48</ele>
        <time>2019-09-15T09:47:22Z</time>
      </trkpt>
      <trkpt lat="47.29786" lon="-2.42017">
        <ele>49</ele>
        <time>2019-09-15T09:47:23Z</time>
      </trkpt>
      <trkpt lat="47.29787" lon="-2.4201">
        <ele>49</ele>
        <time>2019-09-15T09:47:24Z</time>
      </trkpt>
      <trkpt lat="47.29788" lon="-2.42002">
        <ele>49</ele>
        <time>2019-09-15T09:47:25Z</time>
      </trkpt>
      <trkpt lat="47.29787" lon="-2.41994">
        <ele>49</ele>
        <time>2019-09-15T09:47:26Z</time>
      </trkpt>
      <trkpt lat="47.29786" lon="-2.41987">
        <ele>49</ele>
        <time>2019-09-15T09:47:27Z</time>
      </trkpt>
      <trkpt lat="47.29785" lon="-2.4198">
        <ele>49</ele>
        <time>2019-09-15T09:47:28Z</time>
      </trkpt>
      <trkpt lat="47.29783" lon="-2.41973">
        <ele>49</ele>
        <time>2019-09-15T09:47:29Z</time>
      </trkpt>
      <trkpt lat="47.29781" lon="-2.41966">
        <ele>49</ele>
        <time>2019-09-15T09:47:30Z</time>
      </trkpt>
      <trkpt lat="47.29779" lon="-2.41958">
        <ele>49</ele>
        <time>2019-09-15T09:47:31Z</time>
      </trkpt>
      <trkpt lat="47.29778" lon="-2.4195">
        <ele>49</ele>
        <time>2019-09-15T09:47:32Z</time>
      </trkpt>
      <trkpt lat="47.29776" lon="-2.41943">
        <ele>49</ele>
        <time>2019-09-15T09:47:33Z</time>
      </trkpt>
      <trkpt lat="47.29775" lon="-2.41935">
        <ele>49</ele>
        <time>2019-09-15T09:47:34Z</time>
      </trkpt>
      <trkpt lat="47.29774" lon="-2.41927">
        <ele>49</ele>
        <time>2019-09-15T09:47:35Z</time>
      </trkpt>
      <trkpt lat="47.29773" lon="-2.41919">
        <ele>49</ele>
        <time>2019-09-15T09:47:36Z</time>
      </trkpt>
      <trkpt lat="47.2977" lon="-2.41904">
        <ele>50</ele>
        <time>2019-09-15T09:47:38Z</time>
      </trkpt>
      <trkpt lat="47.29769" lon="-2.41896">
        <ele>49</ele>
        <time>2019-09-15T09:47:39Z</time>
      </trkpt>
      <trkpt lat="47.29768" lon="-2.41889">
        <ele>50</ele>
        <time>2019-09-15T09:47:40Z</time>
      </trkpt>
      <trkpt lat="47.29767" lon="-2.41882">
        <ele>50</ele>
        <time>2019-09-15T09:47:41Z</time>
      </trkpt>
      <trkpt lat="47.29767" lon="-2.41874">
        <ele>50</ele>
        <time>2019-09-15T09:47:42Z</time>
      </trkpt>
      <trkpt lat="47.29767" lon="-2.41867">
        <ele>50</ele>
        <time>2019-09-15T09:47:43Z</time>
      </trkpt>
      <trkpt lat="47.29767" lon="-2.41859">
        <ele>50</ele>
        <time>2019-09-15T09:47:44Z</time>
      </trkpt>
      <trkpt lat="47.29768" lon="-2.41845">
        <ele>50</ele>
        <time>2019-09-15T09:47:46Z</time>
      </trkpt>
      <trkpt lat="47.29768" lon="-2.41838">
        <ele>50</ele>
        <time>2019-09-15T09:47:47Z</time>
      </trkpt>
      <trkpt lat="47.29769" lon="-2.41831">
        <ele>50</ele>
        <time>2019-09-15T09:47:48Z</time>
      </trkpt>
      <trkpt lat="47.29769" lon="-2.41823">
        <ele>50</ele>
        <time>2019-09-15T09:47:49Z</time>
      </trkpt>
      <trkpt lat="47.2977" lon="-2.41816">
        <ele>50</ele>
        <time>2019-09-15T09:47:50Z</time>
      </trkpt>
      <trkpt lat="47.2977" lon="-2.41809">
        <ele>50</ele>
        <time>2019-09-15T09:47:51Z</time>
      </trkpt>
      <trkpt lat="47.2977" lon="-2.41796">
        <ele>50</ele>
        <time>2019-09-15T09:47:53Z</time>
      </trkpt>
      <trkpt lat="47.2977" lon="-2.41789">
        <ele>50</ele>
        <time>2019-09-15T09:47:54Z</time>
      </trkpt>
      <trkpt lat="47.2977" lon="-2.41776">
        <ele>50</ele>
        <time>2019-09-15T09:47:56Z</time>
      </trkpt>
      <trkpt lat="47.29769" lon="-2.41763">
        <ele>51</ele>
        <time>2019-09-15T09:47:58Z</time>
      </trkpt>
      <trkpt lat="47.29767" lon="-2.41753">
        <ele>50</ele>
        <time>2019-09-15T09:48:00Z</time>
      </trkpt>
      <trkpt lat="47.29761" lon="-2.41747">
        <ele>51</ele>
        <time>2019-09-15T09:48:03Z</time>
      </trkpt>
      <trkpt lat="47.29753" lon="-2.4175">
        <ele>51</ele>
        <time>2019-09-15T09:48:06Z</time>
      </trkpt>
      <trkpt lat="47.29746" lon="-2.41755">
        <ele>51</ele>
        <time>2019-09-15T09:48:08Z</time>
      </trkpt>
      <trkpt lat="47.29742" lon="-2.41758">
        <ele>51</ele>
        <time>2019-09-15T09:48:09Z</time>
      </trkpt>
      <trkpt lat="47.29733" lon="-2.41767">
        <ele>50</ele>
        <time>2019-09-15T09:48:11Z</time>
      </trkpt>
      <trkpt lat="47.29729" lon="-2.41772">
        <ele>51</ele>
        <time>2019-09-15T09:48:12Z</time>
      </trkpt>
      <trkpt lat="47.29717" lon="-2.41788">
        <ele>51</ele>
        <time>2019-09-15T09:48:15Z</time>
      </trkpt>
      <trkpt lat="47.29713" lon="-2.41795">
        <ele>51</ele>
        <time>2019-09-15T09:48:16Z</time>
      </trkpt>
      <trkpt lat="47.29709" lon="-2.41802">
        <ele>50</ele>
        <time>2019-09-15T09:48:17Z</time>
      </trkpt>
      <trkpt lat="47.29705" lon="-2.41809">
        <ele>50</ele>
        <time>2019-09-15T09:48:18Z</time>
      </trkpt>
      <trkpt lat="47.29695" lon="-2.4182">
        <ele>50</ele>
        <time>2019-09-15T09:48:20Z</time>
      </trkpt>
      <trkpt lat="47.29689" lon="-2.41821">
        <ele>50</ele>
        <time>2019-09-15T09:48:21Z</time>
      </trkpt>
      <trkpt lat="47.29683" lon="-2.41823">
        <ele>50</ele>
        <time>2019-09-15T09:48:22Z</time>
      </trkpt>
      <trkpt lat="47.29677" lon="-2.41825">
        <ele>50</ele>
        <time>2019-09-15T09:48:23Z</time>
      </trkpt>
      <trkpt lat="47.29671" lon="-2.41826">
        <ele>50</ele>
        <time>2019-09-15T09:48:24Z</time>
      </trkpt>
      <trkpt lat="47.29666" lon="-2.41827">
        <ele>50</ele>
        <time>2019-09-15T09:48:25Z</time>
      </trkpt>
      <trkpt lat="47.2966" lon="-2.4183">
        <ele>50</ele>
        <time>2019-09-15T09:48:26Z</time>
      </trkpt>
      <trkpt lat="47.29654" lon="-2.4183">
        <ele>51</ele>
        <time>2019-09-15T09:48:27Z</time>
      </trkpt>
      <trkpt lat="47.29648" lon="-2.41828">
        <ele>51</ele>
        <time>2019-09-15T09:48:28Z</time>
      </trkpt>
      <trkpt lat="47.29644" lon="-2.41824">
        <ele>51</ele>
        <time>2019-09-15T09:48:29Z</time>
      </trkpt>
      <trkpt lat="47.2964" lon="-2.41817">
        <ele>51</ele>
        <time>2019-09-15T09:48:30Z</time>
      </trkpt>
      <trkpt lat="47.29638" lon="-2.41809">
        <ele>50</ele>
        <time>2019-09-15T09:48:31Z</time>
      </trkpt>
      <trkpt lat="47.29637" lon="-2.41801">
        <ele>50</ele>
        <time>2019-09-15T09:48:32Z</time>
      </trkpt>
      <trkpt lat="47.29637" lon="-2.41793">
        <ele>50</ele>
        <time>2019-09-15T09:48:33Z</time>
      </trkpt>
      <trkpt lat="47.29636" lon="-2.41785">
        <ele>50</ele>
        <time>2019-09-15T09:48:34Z</time>
      </trkpt>
      <trkpt lat="47.29634" lon="-2.41777">
        <ele>50</ele>
        <time>2019-09-15T09:48:35Z</time>
      </trkpt>
      <trkpt lat="47.29623" lon="-2.41757">
        <ele>51</ele>
        <time>2019-09-15T09:48:38Z</time>
      </trkpt>
      <trkpt lat="47.29617" lon="-2.41752">
        <ele>51</ele>
        <time>2019-09-15T09:48:39Z</time>
      </trkpt>
      <trkpt lat="47.29613" lon="-2.41746">
        <ele>51</ele>
        <time>2019-09-15T09:48:40Z</time>
      </trkpt>
      <trkpt lat="47.29608" lon="-2.41741">
        <ele>51</ele>
        <time>2019-09-15T09:48:41Z</time>
      </trkpt>
      <trkpt lat="47.29603" lon="-2.41737">
        <ele>51</ele>
        <time>2019-09-15T09:48:42Z</time>
      </trkpt>
      <trkpt lat="47.29598" lon="-2.41732">
        <ele>51</ele>
        <time>2019-09-15T09:48:43Z</time>
      </trkpt>
      <trkpt lat="47.29593" lon="-2.41727">
        <ele>51</ele>
        <time>2019-09-15T09:48:44Z</time>
      </trkpt>
      <trkpt lat="47.29588" lon="-2.41723">
        <ele>51</ele>
        <time>2019-09-15T09:48:45Z</time>
      </trkpt>
      <trkpt lat="47.29582" lon="-2.41719">
        <ele>51</ele>
        <time>2019-09-15T09:48:46Z</time>
      </trkpt>
      <trkpt lat="47.29576" lon="-2.41716">
        <ele>50</ele>
        <time>2019-09-15T09:48:47Z</time>
      </trkpt>
      <trkpt lat="47.29571" lon="-2.41714">
        <ele>50</ele>
        <time>2019-09-15T09:48:48Z</time>
      </trkpt>
      <trkpt lat="47.2956" lon="-2.41707">
        <ele>50</ele>
        <time>2019-09-15T09:48:50Z</time>
      </trkpt>
      <trkpt lat="47.29555" lon="-2.41702">
        <ele>50</ele>
        <time>2019-09-15T09:48:51Z</time>
      </trkpt>
      <trkpt lat="47.29551" lon="-2.41696">
        <ele>50</ele>
        <time>2019-09-15T09:48:52Z</time>
      </trkpt>
      <trkpt lat="47.29548" lon="-2.41689">
        <ele>51</ele>
        <time>2019-09-15T09:48:53Z</time>
      </trkpt>
      <trkpt lat="47.29545" lon="-2.41683">
        <ele>51</ele>
        <time>2019-09-15T09:48:54Z</time>
      </trkpt>
      <trkpt lat="47.29542" lon="-2.41676">
        <ele>51</ele>
        <time>2019-09-15T09:48:55Z</time>
      </trkpt>
      <trkpt lat="47.2954" lon="-2.41669">
        <ele>51</ele>
        <time>2019-09-15T09:48:56Z</time>
      </trkpt>
      <trkpt lat="47.29535" lon="-2.41655">
        <ele>51</ele>
        <time>2019-09-15T09:48:58Z</time>
      </trkpt>
      <trkpt lat="47.29533" lon="-2.41647">
        <ele>51</ele>
        <time>2019-09-15T09:48:59Z</time>
      </trkpt>
      <trkpt lat="47.29531" lon="-2.4164">
        <ele>51</ele>
        <time>2019-09-15T09:49:00Z</time>
      </trkpt>
      <trkpt lat="47.2953" lon="-2.41632">
        <ele>51</ele>
        <time>2019-09-15T09:49:01Z</time>
      </trkpt>
      <trkpt lat="47.29527" lon="-2.41607">
        <ele>51</ele>
        <time>2019-09-15T09:49:04Z</time>
      </trkpt>
      <trkpt lat="47.29528" lon="-2.41598">
        <ele>51</ele>
        <time>2019-09-15T09:49:05Z</time>
      </trkpt>
      <trkpt lat="47.29529" lon="-2.4159">
        <ele>51</ele>
        <time>2019-09-15T09:49:06Z</time>
      </trkpt>
      <trkpt lat="47.2953" lon="-2.41581">
        <ele>51</ele>
        <time>2019-09-15T09:49:07Z</time>
      </trkpt>
      <trkpt lat="47.29533" lon="-2.41573">
        <ele>50</ele>
        <time>2019-09-15T09:49:08Z</time>
      </trkpt>
      <trkpt lat="47.29535" lon="-2.41565">
        <ele>50</ele>
        <time>2019-09-15T09:49:09Z</time>
      </trkpt>
      <trkpt lat="47.29538" lon="-2.41557">
        <ele>50</ele>
        <time>2019-09-15T09:49:10Z</time>
      </trkpt>
      <trkpt lat="47.2954" lon="-2.41549">
        <ele>50</ele>
        <time>2019-09-15T09:49:11Z</time>
      </trkpt>
      <trkpt lat="47.29541" lon="-2.41542">
        <ele>50</ele>
        <time>2019-09-15T09:49:12Z</time>
      </trkpt>
      <trkpt lat="47.29542" lon="-2.41534">
        <ele>50</ele>
        <time>2019-09-15T09:49:13Z</time>
      </trkpt>
      <trkpt lat="47.29541" lon="-2.41526">
        <ele>50</ele>
        <time>2019-09-15T09:49:14Z</time>
      </trkpt>
      <trkpt lat="47.29539" lon="-2.41518">
        <ele>50</ele>
        <time>2019-09-15T09:49:15Z</time>
      </trkpt>
      <trkpt lat="47.29536" lon="-2.4151">
        <ele>51</ele>
        <time>2019-09-15T09:49:16Z</time>
      </trkpt>
      <trkpt lat="47.29532" lon="-2.41504">
        <ele>51</ele>
        <time>2019-09-15T09:49:17Z</time>
      </trkpt>
      <trkpt lat="47.29529" lon="-2.41497">
        <ele>50</ele>
        <time>2019-09-15T09:49:18Z</time>
      </trkpt>
      <trkpt lat="47.29526" lon="-2.41491">
        <ele>50</ele>
        <time>2019-09-15T09:49:19Z</time>
      </trkpt>
      <trkpt lat="47.29522" lon="-2.41485">
        <ele>50</ele>
        <time>2019-09-15T09:49:20Z</time>
      </trkpt>
      <trkpt lat="47.29518" lon="-2.4148">
        <ele>50</ele>
        <time>2019-09-15T09:49:21Z</time>
      </trkpt>
      <trkpt lat="47.29513" lon="-2.41478">
        <ele>49</ele>
        <time>2019-09-15T09:49:22Z</time>
      </trkpt>
      <trkpt lat="47.29507" lon="-2.41478">
        <ele>49</ele>
        <time>2019-09-15T09:49:23Z</time>
      </trkpt>
      <trkpt lat="47.29502" lon="-2.4148">
        <ele>49</ele>
        <time>2019-09-15T09:49:24Z</time>
      </trkpt>
      <trkpt lat="47.29492" lon="-2.41487">
        <ele>50</ele>
        <time>2019-09-15T09:49:26Z</time>
      </trkpt>
      <trkpt lat="47.29486" lon="-2.4149">
        <ele>50</ele>
        <time>2019-09-15T09:49:27Z</time>
      </trkpt>
      <trkpt lat="47.2948" lon="-2.41489">
        <ele>50</ele>
        <time>2019-09-15T09:49:28Z</time>
      </trkpt>
      <trkpt lat="47.29474" lon="-2.41487">
        <ele>50</ele>
        <time>2019-09-15T09:49:29Z</time>
      </trkpt>
      <trkpt lat="47.29468" lon="-2.41485">
        <ele>50</ele>
        <time>2019-09-15T09:49:30Z</time>
      </trkpt>
      <trkpt lat="47.29463" lon="-2.41485">
        <ele>50</ele>
        <time>2019-09-15T09:49:31Z</time>
      </trkpt>
      <trkpt lat="47.29457" lon="-2.41486">
        <ele>50</ele>
        <time>2019-09-15T09:49:32Z</time>
      </trkpt>
      <trkpt lat="47.29452" lon="-2.41488">
        <ele>50</ele>
        <time>2019-09-15T09:49:33Z</time>
      </trkpt>
      <trkpt lat="47.29436" lon="-2.41488">
        <ele>50</ele>
        <time>2019-09-15T09:49:36Z</time>
      </trkpt>
      <trkpt lat="47.29431" lon="-2.41486">
        <ele>50</ele>
        <time>2019-09-15T09:49:37Z</time>
      </trkpt>
      <trkpt lat="47.29426" lon="-2.41481">
        <ele>50</ele>
        <time>2019-09-15T09:49:38Z</time>
      </trkpt>
      <trkpt lat="47.29421" lon="-2.41477">
        <ele>50</ele>
        <time>2019-09-15T09:49:39Z</time>
      </trkpt>
      <trkpt lat="47.29416" lon="-2.41471">
        <ele>50</ele>
        <time>2019-09-15T09:49:40Z</time>
      </trkpt>
      <trkpt lat="47.29412" lon="-2.41465">
        <ele>50</ele>
        <time>2019-09-15T09:49:41Z</time>
      </trkpt>
      <trkpt lat="47.29404" lon="-2.41453">
        <ele>50</ele>
        <time>2019-09-15T09:49:43Z</time>
      </trkpt>
      <trkpt lat="47.294" lon="-2.41446">
        <ele>50</ele>
        <time>2019-09-15T09:49:44Z</time>
      </trkpt>
      <trkpt lat="47.29397" lon="-2.41439">
        <ele>50</ele>
        <time>2019-09-15T09:49:45Z</time>
      </trkpt>
      <trkpt lat="47.29394" lon="-2.41432">
        <ele>49</ele>
        <time>2019-09-15T09:49:46Z</time>
      </trkpt>
      <trkpt lat="47.2939" lon="-2.41425">
        <ele>49</ele>
        <time>2019-09-15T09:49:47Z</time>
      </trkpt>
      <trkpt lat="47.29384" lon="-2.4141">
        <ele>49</ele>
        <time>2019-09-15T09:49:49Z</time>
      </trkpt>
      <trkpt lat="47.2938" lon="-2.41403">
        <ele>49</ele>
        <time>2019-09-15T09:49:50Z</time>
      </trkpt>
      <trkpt lat="47.29377" lon="-2.41396">
        <ele>49</ele>
        <time>2019-09-15T09:49:51Z</time>
      </trkpt>
      <trkpt lat="47.29374" lon="-2.4139">
        <ele>49</ele>
        <time>2019-09-15T09:49:52Z</time>
      </trkpt>
      <trkpt lat="47.29371" lon="-2.41384">
        <ele>49</ele>
        <time>2019-09-15T09:49:53Z</time>
      </trkpt>
      <trkpt lat="47.29367" lon="-2.41378">
        <ele>49</ele>
        <time>2019-09-15T09:49:54Z</time>
      </trkpt>
      <trkpt lat="47.29363" lon="-2.41372">
        <ele>49</ele>
        <time>2019-09-15T09:49:55Z</time>
      </trkpt>
      <trkpt lat="47.29359" lon="-2.41367">
        <ele>48</ele>
        <time>2019-09-15T09:49:56Z</time>
      </trkpt>
      <trkpt lat="47.29354" lon="-2.41362">
        <ele>48</ele>
        <time>2019-09-15T09:49:57Z</time>
      </trkpt>
      <trkpt lat="47.29351" lon="-2.41356">
        <ele>48</ele>
        <time>2019-09-15T09:49:58Z</time>
      </trkpt>
      <trkpt lat="47.2935" lon="-2.41349">
        <ele>48</ele>
        <time>2019-09-15T09:49:59Z</time>
      </trkpt>
      <trkpt lat="47.29349" lon="-2.41334">
        <ele>47</ele>
        <time>2019-09-15T09:50:01Z</time>
      </trkpt>
      <trkpt lat="47.29351" lon="-2.41326">
        <ele>47</ele>
        <time>2019-09-15T09:50:02Z</time>
      </trkpt>
      <trkpt lat="47.29353" lon="-2.41319">
        <ele>47</ele>
        <time>2019-09-15T09:50:03Z</time>
      </trkpt>
      <trkpt lat="47.29357" lon="-2.41312">
        <ele>48</ele>
        <time>2019-09-15T09:50:04Z</time>
      </trkpt>
      <trkpt lat="47.29359" lon="-2.41306">
        <ele>47</ele>
        <time>2019-09-15T09:50:05Z</time>
      </trkpt>
      <trkpt lat="47.29361" lon="-2.41299">
        <ele>48</ele>
        <time>2019-09-15T09:50:06Z</time>
      </trkpt>
      <trkpt lat="47.29361" lon="-2.41291">
        <ele>48</ele>
        <time>2019-09-15T09:50:07Z</time>
      </trkpt>
      <trkpt lat="47.2936" lon="-2.41284">
        <ele>47</ele>
        <time>2019-09-15T09:50:08Z</time>
      </trkpt>
      <trkpt lat="47.2936" lon="-2.41277">
        <ele>47</ele>
        <time>2019-09-15T09:50:09Z</time>
      </trkpt>
      <trkpt lat="47.29359" lon="-2.41269">
        <ele>48</ele>
        <time>2019-09-15T09:50:10Z</time>
      </trkpt>
      <trkpt lat="47.29358" lon="-2.41262">
        <ele>48</ele>
        <time>2019-09-15T09:50:11Z</time>
      </trkpt>
      <trkpt lat="47.29356" lon="-2.41255">
        <ele>47</ele>
        <time>2019-09-15T09:50:12Z</time>
      </trkpt>
      <trkpt lat="47.29353" lon="-2.41249">
        <ele>48</ele>
        <time>2019-09-15T09:50:13Z</time>
      </trkpt>
      <trkpt lat="47.2935" lon="-2.41243">
        <ele>48</ele>
        <time>2019-09-15T09:50:14Z</time>
      </trkpt>
      <trkpt lat="47.29346" lon="-2.41238">
        <ele>48</ele>
        <time>2019-09-15T09:50:15Z</time>
      </trkpt>
      <trkpt lat="47.29342" lon="-2.41233">
        <ele>48</ele>
        <time>2019-09-15T09:50:16Z</time>
      </trkpt>
      <trkpt lat="47.29337" lon="-2.41227">
        <ele>48</ele>
        <time>2019-09-15T09:50:17Z</time>
      </trkpt>
      <trkpt lat="47.29332" lon="-2.41221">
        <ele>48</ele>
        <time>2019-09-15T09:50:18Z</time>
      </trkpt>
      <trkpt lat="47.29323" lon="-2.4121">
        <ele>48</ele>
        <time>2019-09-15T09:50:20Z</time>
      </trkpt>
      <trkpt lat="47.29319" lon="-2.41204">
        <ele>48</ele>
        <time>2019-09-15T09:50:21Z</time>
      </trkpt>
      <trkpt lat="47.29314" lon="-2.41198">
        <ele>48</ele>
        <time>2019-09-15T09:50:22Z</time>
      </trkpt>
      <trkpt lat="47.29309" lon="-2.41193">
        <ele>49</ele>
        <time>2019-09-15T09:50:23Z</time>
      </trkpt>
      <trkpt lat="47.29305" lon="-2.41188">
        <ele>49</ele>
        <time>2019-09-15T09:50:24Z</time>
      </trkpt>
      <trkpt lat="47.29302" lon="-2.41182">
        <ele>48</ele>
        <time>2019-09-15T09:50:25Z</time>
      </trkpt>
      <trkpt lat="47.29299" lon="-2.41176">
        <ele>48</ele>
        <time>2019-09-15T09:50:26Z</time>
      </trkpt>
      <trkpt lat="47.29297" lon="-2.41169">
        <ele>48</ele>
        <time>2019-09-15T09:50:27Z</time>
      </trkpt>
      <trkpt lat="47.29295" lon="-2.41162">
        <ele>49</ele>
        <time>2019-09-15T09:50:28Z</time>
      </trkpt>
      <trkpt lat="47.29293" lon="-2.41155">
        <ele>49</ele>
        <time>2019-09-15T09:50:29Z</time>
      </trkpt>
      <trkpt lat="47.29289" lon="-2.41149">
        <ele>49</ele>
        <time>2019-09-15T09:50:30Z</time>
      </trkpt>
      <trkpt lat="47.29286" lon="-2.41142">
        <ele>49</ele>
        <time>2019-09-15T09:50:31Z</time>
      </trkpt>
      <trkpt lat="47.29281" lon="-2.41136">
        <ele>49</ele>
        <time>2019-09-15T09:50:32Z</time>
      </trkpt>
      <trkpt lat="47.29277" lon="-2.41131">
        <ele>50</ele>
        <time>2019-09-15T09:50:33Z</time>
      </trkpt>
      <trkpt lat="47.29272" lon="-2.41126">
        <ele>50</ele>
        <time>2019-09-15T09:50:34Z</time>
      </trkpt>
      <trkpt lat="47.29267" lon="-2.41121">
        <ele>50</ele>
        <time>2019-09-15T09:50:35Z</time>
      </trkpt>
      <trkpt lat="47.29263" lon="-2.41115">
        <ele>49</ele>
        <time>2019-09-15T09:50:36Z</time>
      </trkpt>
      <trkpt lat="47.29258" lon="-2.4111">
        <ele>49</ele>
        <time>2019-09-15T09:50:37Z</time>
      </trkpt>
      <trkpt lat="47.29254" lon="-2.41104">
        <ele>50</ele>
        <time>2019-09-15T09:50:38Z</time>
      </trkpt>
      <trkpt lat="47.2925" lon="-2.41098">
        <ele>50</ele>
        <time>2019-09-15T09:50:39Z</time>
      </trkpt>
      <trkpt lat="47.29247" lon="-2.41091">
        <ele>50</ele>
        <time>2019-09-15T09:50:40Z</time>
      </trkpt>
      <trkpt lat="47.29253" lon="-2.41064">
        <ele>50</ele>
        <time>2019-09-15T09:50:44Z</time>
      </trkpt>
      <trkpt lat="47.29256" lon="-2.41058">
        <ele>50</ele>
        <time>2019-09-15T09:50:45Z</time>
      </trkpt>
      <trkpt lat="47.29257" lon="-2.41051">
        <ele>51</ele>
        <time>2019-09-15T09:50:46Z</time>
      </trkpt>
      <trkpt lat="47.29255" lon="-2.41043">
        <ele>51</ele>
        <time>2019-09-15T09:50:47Z</time>
      </trkpt>
      <trkpt lat="47.29251" lon="-2.41037">
        <ele>52</ele>
        <time>2019-09-15T09:50:48Z</time>
      </trkpt>
      <trkpt lat="47.29246" lon="-2.41032">
        <ele>51</ele>
        <time>2019-09-15T09:50:49Z</time>
      </trkpt>
      <trkpt lat="47.29242" lon="-2.41027">
        <ele>52</ele>
        <time>2019-09-15T09:50:50Z</time>
      </trkpt>
      <trkpt lat="47.29238" lon="-2.4102">
        <ele>51</ele>
        <time>2019-09-15T09:50:51Z</time>
      </trkpt>
      <trkpt lat="47.29234" lon="-2.41014">
        <ele>51</ele>
        <time>2019-09-15T09:50:52Z</time>
      </trkpt>
      <trkpt lat="47.2923" lon="-2.41007">
        <ele>51</ele>
        <time>2019-09-15T09:50:53Z</time>
      </trkpt>
      <trkpt lat="47.29227" lon="-2.40999">
        <ele>50</ele>
        <time>2019-09-15T09:50:54Z</time>
      </trkpt>
      <trkpt lat="47.29224" lon="-2.40992">
        <ele>50</ele>
        <time>2019-09-15T09:50:55Z</time>
      </trkpt>
      <trkpt lat="47.29221" lon="-2.40986">
        <ele>50</ele>
        <time>2019-09-15T09:50:56Z</time>
      </trkpt>
      <trkpt lat="47.29216" lon="-2.4097">
        <ele>50</ele>
        <time>2019-09-15T09:50:58Z</time>
      </trkpt>
      <trkpt lat="47.29209" lon="-2.40957">
        <ele>49</ele>
        <time>2019-09-15T09:51:00Z</time>
      </trkpt>
      <trkpt lat="47.29204" lon="-2.40954">
        <ele>50</ele>
        <time>2019-09-15T09:51:01Z</time>
      </trkpt>
      <trkpt lat="47.29199" lon="-2.40952">
        <ele>50</ele>
        <time>2019-09-15T09:51:02Z</time>
      </trkpt>
      <trkpt lat="47.29188" lon="-2.40947">
        <ele>49</ele>
        <time>2019-09-15T09:51:04Z</time>
      </trkpt>
      <trkpt lat="47.29182" lon="-2.40945">
        <ele>49</ele>
        <time>2019-09-15T09:51:05Z</time>
      </trkpt>
      <trkpt lat="47.29176" lon="-2.40944">
        <ele>49</ele>
        <time>2019-09-15T09:51:06Z</time>
      </trkpt>
      <trkpt lat="47.2917" lon="-2.4094">
        <ele>49</ele>
        <time>2019-09-15T09:51:07Z</time>
      </trkpt>
      <trkpt lat="47.29163" lon="-2.4092">
        <ele>49</ele>
        <time>2019-09-15T09:51:10Z</time>
      </trkpt>
      <trkpt lat="47.29164" lon="-2.40911">
        <ele>50</ele>
        <time>2019-09-15T09:51:11Z</time>
      </trkpt>
      <trkpt lat="47.29165" lon="-2.40903">
        <ele>49</ele>
        <time>2019-09-15T09:51:12Z</time>
      </trkpt>
      <trkpt lat="47.29167" lon="-2.40895">
        <ele>49</ele>
        <time>2019-09-15T09:51:13Z</time>
      </trkpt>
      <trkpt lat="47.29169" lon="-2.40888">
        <ele>49</ele>
        <time>2019-09-15T09:51:14Z</time>
      </trkpt>
      <trkpt lat="47.29171" lon="-2.4088">
        <ele>49</ele>
        <time>2019-09-15T09:51:15Z</time>
      </trkpt>
      <trkpt lat="47.29173" lon="-2.40873">
        <ele>49</ele>
        <time>2019-09-15T09:51:16Z</time>
      </trkpt>
      <trkpt lat="47.29174" lon="-2.40864">
        <ele>49</ele>
        <time>2019-09-15T09:51:17Z</time>
      </trkpt>
      <trkpt lat="47.29174" lon="-2.40855">
        <ele>49</ele>
        <time>2019-09-15T09:51:18Z</time>
      </trkpt>
      <trkpt lat="47.29174" lon="-2.40847">
        <ele>49</ele>
        <time>2019-09-15T09:51:19Z</time>
      </trkpt>
      <trkpt lat="47.29173" lon="-2.40838">
        <ele>49</ele>
        <time>2019-09-15T09:51:20Z</time>
      </trkpt>
      <trkpt lat="47.29172" lon="-2.4083">
        <ele>49</ele>
        <time>2019-09-15T09:51:21Z</time>
      </trkpt>
      <trkpt lat="47.29173" lon="-2.40821">
        <ele>49</ele>
        <time>2019-09-15T09:51:22Z</time>
      </trkpt>
      <trkpt lat="47.29174" lon="-2.40813">
        <ele>49</ele>
        <time>2019-09-15T09:51:23Z</time>
      </trkpt>
      <trkpt lat="47.29175" lon="-2.40805">
        <ele>49</ele>
        <time>2019-09-15T09:51:24Z</time>
      </trkpt>
      <trkpt lat="47.29178" lon="-2.40798">
        <ele>49</ele>
        <time>2019-09-15T09:51:25Z</time>
      </trkpt>
      <trkpt lat="47.29181" lon="-2.40791">
        <ele>49</ele>
        <time>2019-09-15T09:51:26Z</time>
      </trkpt>
      <trkpt lat="47.29184" lon="-2.40784">
        <ele>50</ele>
        <time>2019-09-15T09:51:27Z</time>
      </trkpt>
      <trkpt lat="47.29186" lon="-2.40777">
        <ele>49</ele>
        <time>2019-09-15T09:51:28Z</time>
      </trkpt>
      <trkpt lat="47.29189" lon="-2.4077">
        <ele>49</ele>
        <time>2019-09-15T09:51:29Z</time>
      </trkpt>
      <trkpt lat="47.29191" lon="-2.40763">
        <ele>49</ele>
        <time>2019-09-15T09:51:30Z</time>
      </trkpt>
      <trkpt lat="47.29194" lon="-2.40755">
        <ele>49</ele>
        <time>2019-09-15T09:51:31Z</time>
      </trkpt>
      <trkpt lat="47.29205" lon="-2.40738">
        <ele>49</ele>
        <time>2019-09-15T09:51:34Z</time>
      </trkpt>
      <trkpt lat="47.29209" lon="-2.40732">
        <ele>49</ele>
        <time>2019-09-15T09:51:35Z</time>
      </trkpt>
      <trkpt lat="47.29213" lon="-2.40727">
        <ele>50</ele>
        <time>2019-09-15T09:51:36Z</time>
      </trkpt>
      <trkpt lat="47.29216" lon="-2.40722">
        <ele>50</ele>
        <time>2019-09-15T09:51:37Z</time>
      </trkpt>
      <trkpt lat="47.29219" lon="-2.40716">
        <ele>50</ele>
        <time>2019-09-15T09:51:38Z</time>
      </trkpt>
      <trkpt lat="47.29222" lon="-2.40711">
        <ele>50</ele>
        <time>2019-09-15T09:51:39Z</time>
      </trkpt>
      <trkpt lat="47.29225" lon="-2.40705">
        <ele>49</ele>
        <time>2019-09-15T09:51:40Z</time>
      </trkpt>
      <trkpt lat="47.29228" lon="-2.40699">
        <ele>50</ele>
        <time>2019-09-15T09:51:41Z</time>
      </trkpt>
      <trkpt lat="47.29231" lon="-2.40693">
        <ele>50</ele>
        <time>2019-09-15T09:51:42Z</time>
      </trkpt>
      <trkpt lat="47.29233" lon="-2.40687">
        <ele>49</ele>
        <time>2019-09-15T09:51:43Z</time>
      </trkpt>
      <trkpt lat="47.29234" lon="-2.40679">
        <ele>49</ele>
        <time>2019-09-15T09:51:44Z</time>
      </trkpt>
      <trkpt lat="47.29235" lon="-2.40671">
        <ele>49</ele>
        <time>2019-09-15T09:51:45Z</time>
      </trkpt>
      <trkpt lat="47.29234" lon="-2.40664">
        <ele>49</ele>
        <time>2019-09-15T09:51:46Z</time>
      </trkpt>
      <trkpt lat="47.29232" lon="-2.40656">
        <ele>49</ele>
        <time>2019-09-15T09:51:47Z</time>
      </trkpt>
      <trkpt lat="47.2923" lon="-2.4065">
        <ele>49</ele>
        <time>2019-09-15T09:51:48Z</time>
      </trkpt>
      <trkpt lat="47.29227" lon="-2.40643">
        <ele>49</ele>
        <time>2019-09-15T09:51:49Z</time>
      </trkpt>
      <trkpt lat="47.29223" lon="-2.40636">
        <ele>49</ele>
        <time>2019-09-15T09:51:50Z</time>
      </trkpt>
      <trkpt lat="47.2922" lon="-2.4063">
        <ele>49</ele>
        <time>2019-09-15T09:51:51Z</time>
      </trkpt>
      <trkpt lat="47.29216" lon="-2.40624">
        <ele>49</ele>
        <time>2019-09-15T09:51:52Z</time>
      </trkpt>
      <trkpt lat="47.29212" lon="-2.40619">
        <ele>49</ele>
        <time>2019-09-15T09:51:53Z</time>
      </trkpt>
      <trkpt lat="47.29207" lon="-2.40614">
        <ele>49</ele>
        <time>2019-09-15T09:51:54Z</time>
      </trkpt>
      <trkpt lat="47.29202" lon="-2.40612">
        <ele>49</ele>
        <time>2019-09-15T09:51:55Z</time>
      </trkpt>
      <trkpt lat="47.29196" lon="-2.40613">
        <ele>49</ele>
        <time>2019-09-15T09:51:56Z</time>
      </trkpt>
      <trkpt lat="47.29191" lon="-2.40616">
        <ele>49</ele>
        <time>2019-09-15T09:51:57Z</time>
      </trkpt>
      <trkpt lat="47.29186" lon="-2.40619">
        <ele>49</ele>
        <time>2019-09-15T09:51:58Z</time>
      </trkpt>
      <trkpt lat="47.29181" lon="-2.40623">
        <ele>49</ele>
        <time>2019-09-15T09:51:59Z</time>
      </trkpt>
      <trkpt lat="47.29176" lon="-2.40627">
        <ele>50</ele>
        <time>2019-09-15T09:52:00Z</time>
      </trkpt>
      <trkpt lat="47.29171" lon="-2.4063">
        <ele>50</ele>
        <time>2019-09-15T09:52:01Z</time>
      </trkpt>
      <trkpt lat="47.29166" lon="-2.40633">
        <ele>50</ele>
        <time>2019-09-15T09:52:02Z</time>
      </trkpt>
      <trkpt lat="47.29157" lon="-2.40641">
        <ele>50</ele>
        <time>2019-09-15T09:52:04Z</time>
      </trkpt>
      <trkpt lat="47.29152" lon="-2.40644">
        <ele>50</ele>
        <time>2019-09-15T09:52:05Z</time>
      </trkpt>
      <trkpt lat="47.29147" lon="-2.40644">
        <ele>50</ele>
        <time>2019-09-15T09:52:06Z</time>
      </trkpt>
      <trkpt lat="47.29142" lon="-2.40634">
        <ele>50</ele>
        <time>2019-09-15T09:52:08Z</time>
      </trkpt>
      <trkpt lat="47.29142" lon="-2.40626">
        <ele>50</ele>
        <time>2019-09-15T09:52:09Z</time>
      </trkpt>
      <trkpt lat="47.29142" lon="-2.40619">
        <ele>50</ele>
        <time>2019-09-15T09:52:10Z</time>
      </trkpt>
      <trkpt lat="47.29141" lon="-2.40612">
        <ele>50</ele>
        <time>2019-09-15T09:52:11Z</time>
      </trkpt>
      <trkpt lat="47.29137" lon="-2.40597">
        <ele>49</ele>
        <time>2019-09-15T09:52:13Z</time>
      </trkpt>
      <trkpt lat="47.29135" lon="-2.40591">
        <ele>49</ele>
        <time>2019-09-15T09:52:14Z</time>
      </trkpt>
      <trkpt lat="47.29132" lon="-2.40585">
        <ele>50</ele>
        <time>2019-09-15T09:52:15Z</time>
      </trkpt>
      <trkpt lat="47.29129" lon="-2.40579">
        <ele>49</ele>
        <time>2019-09-15T09:52:16Z</time>
      </trkpt>
      <trkpt lat="47.29125" lon="-2.40573">
        <ele>49</ele>
        <time>2019-09-15T09:52:17Z</time>
      </trkpt>
      <trkpt lat="47.29122" lon="-2.40568">
        <ele>49</ele>
        <time>2019-09-15T09:52:18Z</time>
      </trkpt>
      <trkpt lat="47.29118" lon="-2.40564">
        <ele>49</ele>
        <time>2019-09-15T09:52:19Z</time>
      </trkpt>
      <trkpt lat="47.29114" lon="-2.4056">
        <ele>49</ele>
        <time>2019-09-15T09:52:20Z</time>
      </trkpt>
      <trkpt lat="47.29109" lon="-2.40556">
        <ele>49</ele>
        <time>2019-09-15T09:52:21Z</time>
      </trkpt>
      <trkpt lat="47.29106" lon="-2.40552">
        <ele>49</ele>
        <time>2019-09-15T09:52:22Z</time>
      </trkpt>
      <trkpt lat="47.29102" lon="-2.40548">
        <ele>49</ele>
        <time>2019-09-15T09:52:23Z</time>
      </trkpt>
      <trkpt lat="47.291" lon="-2.40542">
        <ele>49</ele>
        <time>2019-09-15T09:52:24Z</time>
      </trkpt>
      <trkpt lat="47.291" lon="-2.40528">
        <ele>49</ele>
        <time>2019-09-15T09:52:26Z</time>
      </trkpt>
      <trkpt lat="47.29102" lon="-2.40522">
        <ele>49</ele>
        <time>2019-09-15T09:52:27Z</time>
      </trkpt>
      <trkpt lat="47.29104" lon="-2.40515">
        <ele>49</ele>
        <time>2019-09-15T09:52:28Z</time>
      </trkpt>
      <trkpt lat="47.29107" lon="-2.4051">
        <ele>49</ele>
        <time>2019-09-15T09:52:29Z</time>
      </trkpt>
      <trkpt lat="47.29111" lon="-2.40506">
        <ele>50</ele>
        <time>2019-09-15T09:52:30Z</time>
      </trkpt>
      <trkpt lat="47.29116" lon="-2.40503">
        <ele>50</ele>
        <time>2019-09-15T09:52:31Z</time>
      </trkpt>
      <trkpt lat="47.2912" lon="-2.405">
        <ele>50</ele>
        <time>2019-09-15T09:52:32Z</time>
      </trkpt>
      <trkpt lat="47.29125" lon="-2.40498">
        <ele>50</ele>
        <time>2019-09-15T09:52:33Z</time>
      </trkpt>
      <trkpt lat="47.29129" lon="-2.40495">
        <ele>50</ele>
        <time>2019-09-15T09:52:34Z</time>
      </trkpt>
      <trkpt lat="47.29134" lon="-2.40492">
        <ele>50</ele>
        <time>2019-09-15T09:52:35Z</time>
      </trkpt>
      <trkpt lat="47.29139" lon="-2.4049">
        <ele>49</ele>
        <time>2019-09-15T09:52:36Z</time>
      </trkpt>
      <trkpt lat="47.29144" lon="-2.40488">
        <ele>49</ele>
        <time>2019-09-15T09:52:37Z</time>
      </trkpt>
      <trkpt lat="47.29149" lon="-2.40488">
        <ele>49</ele>
        <time>2019-09-15T09:52:38Z</time>
      </trkpt>
      <trkpt lat="47.29153" lon="-2.40488">
        <ele>49</ele>
        <time>2019-09-15T09:52:39Z</time>
      </trkpt>
      <trkpt lat="47.29158" lon="-2.4049">
        <ele>49</ele>
        <time>2019-09-15T09:52:40Z</time>
      </trkpt>
      <trkpt lat="47.29165" lon="-2.40498">
        <ele>50</ele>
        <time>2019-09-15T09:52:42Z</time>
      </trkpt>
      <trkpt lat="47.29167" lon="-2.40504">
        <ele>50</ele>
        <time>2019-09-15T09:52:43Z</time>
      </trkpt>
      <trkpt lat="47.29169" lon="-2.4051">
        <ele>50</ele>
        <time>2019-09-15T09:52:44Z</time>
      </trkpt>
      <trkpt lat="47.29182" lon="-2.40521">
        <ele>50</ele>
        <time>2019-09-15T09:52:47Z</time>
      </trkpt>
      <trkpt lat="47.29187" lon="-2.40519">
        <ele>50</ele>
        <time>2019-09-15T09:52:48Z</time>
      </trkpt>
      <trkpt lat="47.29192" lon="-2.40516">
        <ele>49</ele>
        <time>2019-09-15T09:52:49Z</time>
      </trkpt>
      <trkpt lat="47.29197" lon="-2.40515">
        <ele>49</ele>
        <time>2019-09-15T09:52:50Z</time>
      </trkpt>
      <trkpt lat="47.29201" lon="-2.40513">
        <ele>49</ele>
        <time>2019-09-15T09:52:51Z</time>
      </trkpt>
      <trkpt lat="47.29206" lon="-2.4051">
        <ele>49</ele>
        <time>2019-09-15T09:52:52Z</time>
      </trkpt>
      <trkpt lat="47.29211" lon="-2.40508">
        <ele>49</ele>
        <time>2019-09-15T09:52:53Z</time>
      </trkpt>
      <trkpt lat="47.29215" lon="-2.40504">
        <ele>49</ele>
        <time>2019-09-15T09:52:54Z</time>
      </trkpt>
      <trkpt lat="47.2922" lon="-2.40501">
        <ele>50</ele>
        <time>2019-09-15T09:52:55Z</time>
      </trkpt>
      <trkpt lat="47.29224" lon="-2.40498">
        <ele>49</ele>
        <time>2019-09-15T09:52:56Z</time>
      </trkpt>
      <trkpt lat="47.29234" lon="-2.40491">
        <ele>49</ele>
        <time>2019-09-15T09:52:58Z</time>
      </trkpt>
      <trkpt lat="47.29239" lon="-2.40488">
        <ele>49</ele>
        <time>2019-09-15T09:52:59Z</time>
      </trkpt>
      <trkpt lat="47.29244" lon="-2.40486">
        <ele>48</ele>
        <time>2019-09-15T09:53:00Z</time>
      </trkpt>
      <trkpt lat="47.29249" lon="-2.40483">
        <ele>48</ele>
        <time>2019-09-15T09:53:01Z</time>
      </trkpt>
      <trkpt lat="47.29267" lon="-2.40474">
        <ele>49</ele>
        <time>2019-09-15T09:53:05Z</time>
      </trkpt>
      <trkpt lat="47.29272" lon="-2.40473">
        <ele>49</ele>
        <time>2019-09-15T09:53:06Z</time>
      </trkpt>
      <trkpt lat="47.29282" lon="-2.40469">
        <ele>49</ele>
        <time>2019-09-15T09:53:08Z</time>
      </trkpt>
      <trkpt lat="47.2929" lon="-2.40461">
        <ele>49</ele>
        <time>2019-09-15T09:53:10Z</time>
      </trkpt>
      <trkpt lat="47.29293" lon="-2.40456">
        <ele>48</ele>
        <time>2019-09-15T09:53:11Z</time>
      </trkpt>
      <trkpt lat="47.29296" lon="-2.40451">
        <ele>48</ele>
        <time>2019-09-15T09:53:12Z</time>
      </trkpt>
      <trkpt lat="47.29298" lon="-2.40445">
        <ele>48</ele>
        <time>2019-09-15T09:53:13Z</time>
      </trkpt>
      <trkpt lat="47.293" lon="-2.40439">
        <ele>49</ele>
        <time>2019-09-15T09:53:14Z</time>
      </trkpt>
      <trkpt lat="47.29302" lon="-2.40432">
        <ele>49</ele>
        <time>2019-09-15T09:53:15Z</time>
      </trkpt>
      <trkpt lat="47.29305" lon="-2.40426">
        <ele>49</ele>
        <time>2019-09-15T09:53:16Z</time>
      </trkpt>
      <trkpt lat="47.29307" lon="-2.40419">
        <ele>49</ele>
        <time>2019-09-15T09:53:17Z</time>
      </trkpt>
      <trkpt lat="47.29308" lon="-2.40412">
        <ele>49</ele>
        <time>2019-09-15T09:53:18Z</time>
      </trkpt>
      <trkpt lat="47.29308" lon="-2.40405">
        <ele>49</ele>
        <time>2019-09-15T09:53:19Z</time>
      </trkpt>
      <trkpt lat="47.29305" lon="-2.40398">
        <ele>49</ele>
        <time>2019-09-15T09:53:20Z</time>
      </trkpt>
      <trkpt lat="47.29302" lon="-2.40391">
        <ele>49</ele>
        <time>2019-09-15T09:53:21Z</time>
      </trkpt>
      <trkpt lat="47.29299" lon="-2.40385">
        <ele>49</ele>
        <time>2019-09-15T09:53:22Z</time>
      </trkpt>
      <trkpt lat="47.29295" lon="-2.40378">
        <ele>49</ele>
        <time>2019-09-15T09:53:23Z</time>
      </trkpt>
      <trkpt lat="47.29292" lon="-2.40372">
        <ele>49</ele>
        <time>2019-09-15T09:53:24Z</time>
      </trkpt>
      <trkpt lat="47.2929" lon="-2.40365">
        <ele>49</ele>
        <time>2019-09-15T09:53:25Z</time>
      </trkpt>
      <trkpt lat="47.29288" lon="-2.40359">
        <ele>49</ele>
        <time>2019-09-15T09:53:26Z</time>
      </trkpt>
      <trkpt lat="47.29287" lon="-2.40352">
        <ele>49</ele>
        <time>2019-09-15T09:53:27Z</time>
      </trkpt>
      <trkpt lat="47.29287" lon="-2.40346">
        <ele>49</ele>
        <time>2019-09-15T09:53:28Z</time>
      </trkpt>
      <trkpt lat="47.2929" lon="-2.4034">
        <ele>49</ele>
        <time>2019-09-15T09:53:29Z</time>
      </trkpt>
      <trkpt lat="47.29294" lon="-2.40335">
        <ele>50</ele>
        <time>2019-09-15T09:53:30Z</time>
      </trkpt>
      <trkpt lat="47.29298" lon="-2.40331">
        <ele>50</ele>
        <time>2019-09-15T09:53:31Z</time>
      </trkpt>
      <trkpt lat="47.29302" lon="-2.40327">
        <ele>50</ele>
        <time>2019-09-15T09:53:32Z</time>
      </trkpt>
      <trkpt lat="47.29306" lon="-2.40322">
        <ele>50</ele>
        <time>2019-09-15T09:53:33Z</time>
      </trkpt>
      <trkpt lat="47.2931" lon="-2.40318">
        <ele>49</ele>
        <time>2019-09-15T09:53:34Z</time>
      </trkpt>
      <trkpt lat="47.29314" lon="-2.40313">
        <ele>49</ele>
        <time>2019-09-15T09:53:35Z</time>
      </trkpt>
      <trkpt lat="47.29318" lon="-2.40309">
        <ele>49</ele>
        <time>2019-09-15T09:53:36Z</time>
      </trkpt>
      <trkpt lat="47.29321" lon="-2.40305">
        <ele>49</ele>
        <time>2019-09-15T09:53:37Z</time>
      </trkpt>
      <trkpt lat="47.29325" lon="-2.403">
        <ele>50</ele>
        <time>2019-09-15T09:53:38Z</time>
      </trkpt>
      <trkpt lat="47.29329" lon="-2.40295">
        <ele>49</ele>
        <time>2019-09-15T09:53:39Z</time>
      </trkpt>
      <trkpt lat="47.29332" lon="-2.40291">
        <ele>49</ele>
        <time>2019-09-15T09:53:40Z</time>
      </trkpt>
      <trkpt lat="47.29336" lon="-2.40287">
        <ele>49</ele>
        <time>2019-09-15T09:53:41Z</time>
      </trkpt>
      <trkpt lat="47.2934" lon="-2.40283">
        <ele>49</ele>
        <time>2019-09-15T09:53:42Z</time>
      </trkpt>
      <trkpt lat="47.29344" lon="-2.4028">
        <ele>49</ele>
        <time>2019-09-15T09:53:43Z</time>
      </trkpt>
      <trkpt lat="47.29353" lon="-2.40273">
        <ele>49</ele>
        <time>2019-09-15T09:53:45Z</time>
      </trkpt>
      <trkpt lat="47.29357" lon="-2.40269">
        <ele>49</ele>
        <time>2019-09-15T09:53:46Z</time>
      </trkpt>
      <trkpt lat="47.29361" lon="-2.40265">
        <ele>49</ele>
        <time>2019-09-15T09:53:47Z</time>
      </trkpt>
      <trkpt lat="47.29368" lon="-2.40256">
        <ele>49</ele>
        <time>2019-09-15T09:53:48Z</time>
      </trkpt>
      <trkpt lat="47.29372" lon="-2.40252">
        <ele>49</ele>
        <time>2019-09-15T09:53:49Z</time>
      </trkpt>
      <trkpt lat="47.29376" lon="-2.40248">
        <ele>49</ele>
        <time>2019-09-15T09:53:50Z</time>
      </trkpt>
      <trkpt lat="47.29384" lon="-2.40243">
        <ele>49</ele>
        <time>2019-09-15T09:53:52Z</time>
      </trkpt>
      <trkpt lat="47.29389" lon="-2.4024">
        <ele>49</ele>
        <time>2019-09-15T09:53:54Z</time>
      </trkpt>
      <trkpt lat="47.29393" lon="-2.40237">
        <ele>49</ele>
        <time>2019-09-15T09:53:55Z</time>
      </trkpt>
      <trkpt lat="47.29397" lon="-2.40235">
        <ele>49</ele>
        <time>2019-09-15T09:53:56Z</time>
      </trkpt>
      <trkpt lat="47.29401" lon="-2.40232">
        <ele>49</ele>
        <time>2019-09-15T09:53:57Z</time>
      </trkpt>
      <trkpt lat="47.29405" lon="-2.40229">
        <ele>49</ele>
        <time>2019-09-15T09:53:58Z</time>
      </trkpt>
      <trkpt lat="47.2941" lon="-2.40227">
        <ele>49</ele>
        <time>2019-09-15T09:53:59Z</time>
      </trkpt>
      <trkpt lat="47.29414" lon="-2.40225">
        <ele>49</ele>
        <time>2019-09-15T09:54:00Z</time>
      </trkpt>
      <trkpt lat="47.29423" lon="-2.40219">
        <ele>48</ele>
        <time>2019-09-15T09:54:02Z</time>
      </trkpt>
      <trkpt lat="47.29427" lon="-2.40218">
        <ele>48</ele>
        <time>2019-09-15T09:54:03Z</time>
      </trkpt>
      <trkpt lat="47.29432" lon="-2.40218">
        <ele>49</ele>
        <time>2019-09-15T09:54:04Z</time>
      </trkpt>
      <trkpt lat="47.29441" lon="-2.40219">
        <ele>48</ele>
        <time>2019-09-15T09:54:06Z</time>
      </trkpt>
      <trkpt lat="47.29448" lon="-2.40209">
        <ele>49</ele>
        <time>2019-09-15T09:54:08Z</time>
      </trkpt>
      <trkpt lat="47.29449" lon="-2.40202">
        <ele>49</ele>
        <time>2019-09-15T09:54:09Z</time>
      </trkpt>
      <trkpt lat="47.29452" lon="-2.40188">
        <ele>49</ele>
        <time>2019-09-15T09:54:11Z</time>
      </trkpt>
      <trkpt lat="47.29453" lon="-2.40181">
        <ele>50</ele>
        <time>2019-09-15T09:54:12Z</time>
      </trkpt>
      <trkpt lat="47.29453" lon="-2.40174">
        <ele>50</ele>
        <time>2019-09-15T09:54:13Z</time>
      </trkpt>
      <trkpt lat="47.29457" lon="-2.40154">
        <ele>50</ele>
        <time>2019-09-15T09:54:16Z</time>
      </trkpt>
      <trkpt lat="47.29457" lon="-2.40148">
        <ele>50</ele>
        <time>2019-09-15T09:54:17Z</time>
      </trkpt>
      <trkpt lat="47.29458" lon="-2.40141">
        <ele>50</ele>
        <time>2019-09-15T09:54:18Z</time>
      </trkpt>
      <trkpt lat="47.29458" lon="-2.40133">
        <ele>50</ele>
        <time>2019-09-15T09:54:19Z</time>
      </trkpt>
      <trkpt lat="47.2946" lon="-2.40111">
        <ele>50</ele>
        <time>2019-09-15T09:54:22Z</time>
      </trkpt>
      <trkpt lat="47.29463" lon="-2.40098">
        <ele>51</ele>
        <time>2019-09-15T09:54:24Z</time>
      </trkpt>
      <trkpt lat="47.29464" lon="-2.4009">
        <ele>51</ele>
        <time>2019-09-15T09:54:25Z</time>
      </trkpt>
      <trkpt lat="47.29464" lon="-2.40082">
        <ele>50</ele>
        <time>2019-09-15T09:54:26Z</time>
      </trkpt>
      <trkpt lat="47.29465" lon="-2.40075">
        <ele>50</ele>
        <time>2019-09-15T09:54:27Z</time>
      </trkpt>
      <trkpt lat="47.29465" lon="-2.40067">
        <ele>50</ele>
        <time>2019-09-15T09:54:28Z</time>
      </trkpt>
      <trkpt lat="47.29465" lon="-2.4006">
        <ele>50</ele>
        <time>2019-09-15T09:54:29Z</time>
      </trkpt>
      <trkpt lat="47.29465" lon="-2.40053">
        <ele>51</ele>
        <time>2019-09-15T09:54:30Z</time>
      </trkpt>
      <trkpt lat="47.29464" lon="-2.40045">
        <ele>50</ele>
        <time>2019-09-15T09:54:31Z</time>
      </trkpt>
      <trkpt lat="47.29463" lon="-2.4003">
        <ele>50</ele>
        <time>2019-09-15T09:54:33Z</time>
      </trkpt>
      <trkpt lat="47.29463" lon="-2.40024">
        <ele>50</ele>
        <time>2019-09-15T09:54:34Z</time>
      </trkpt>
      <trkpt lat="47.29462" lon="-2.40017">
        <ele>50</ele>
        <time>2019-09-15T09:54:35Z</time>
      </trkpt>
      <trkpt lat="47.29462" lon="-2.4001">
        <ele>50</ele>
        <time>2019-09-15T09:54:36Z</time>
      </trkpt>
      <trkpt lat="47.29463" lon="-2.40003">
        <ele>51</ele>
        <time>2019-09-15T09:54:37Z</time>
      </trkpt>
      <trkpt lat="47.29463" lon="-2.39997">
        <ele>51</ele>
        <time>2019-09-15T09:54:38Z</time>
      </trkpt>
      <trkpt lat="47.29466" lon="-2.39985">
        <ele>51</ele>
        <time>2019-09-15T09:54:40Z</time>
      </trkpt>
      <trkpt lat="47.29467" lon="-2.39979">
        <ele>51</ele>
        <time>2019-09-15T09:54:41Z</time>
      </trkpt>
      <trkpt lat="47.29472" lon="-2.39963">
        <ele>51</ele>
        <time>2019-09-15T09:54:44Z</time>
      </trkpt>
      <trkpt lat="47.29473" lon="-2.39958">
        <ele>52</ele>
        <time>2019-09-15T09:54:45Z</time>
      </trkpt>
      <trkpt lat="47.29477" lon="-2.39948">
        <ele>52</ele>
        <time>2019-09-15T09:54:46Z</time>
      </trkpt>
      <trkpt lat="47.29482" lon="-2.39939">
        <ele>52</ele>
        <time>2019-09-15T09:54:48Z</time>
      </trkpt>
      <trkpt lat="47.29485" lon="-2.39931">
        <ele>52</ele>
        <time>2019-09-15T09:54:50Z</time>
      </trkpt>
      <trkpt lat="47.29486" lon="-2.39924">
        <ele>52</ele>
        <time>2019-09-15T09:54:52Z</time>
      </trkpt>
      <trkpt lat="47.29488" lon="-2.39916">
        <ele>52</ele>
        <time>2019-09-15T09:54:54Z</time>
      </trkpt>
      <trkpt lat="47.29492" lon="-2.39907">
        <ele>52</ele>
        <time>2019-09-15T09:54:56Z</time>
      </trkpt>
      <trkpt lat="47.29498" lon="-2.39898">
        <ele>52</ele>
        <time>2019-09-15T09:54:58Z</time>
      </trkpt>
      <trkpt lat="47.29502" lon="-2.39894">
        <ele>52</ele>
        <time>2019-09-15T09:55:00Z</time>
      </trkpt>
      <trkpt lat="47.29505" lon="-2.39889">
        <ele>52</ele>
        <time>2019-09-15T09:55:01Z</time>
      </trkpt>
      <trkpt lat="47.29509" lon="-2.39883">
        <ele>52</ele>
        <time>2019-09-15T09:55:02Z</time>
      </trkpt>
      <trkpt lat="47.29514" lon="-2.39871">
        <ele>51</ele>
        <time>2019-09-15T09:55:04Z</time>
      </trkpt>
      <trkpt lat="47.29517" lon="-2.39865">
        <ele>52</ele>
        <time>2019-09-15T09:55:05Z</time>
      </trkpt>
      <trkpt lat="47.29521" lon="-2.39858">
        <ele>51</ele>
        <time>2019-09-15T09:55:06Z</time>
      </trkpt>
      <trkpt lat="47.29524" lon="-2.39851">
        <ele>51</ele>
        <time>2019-09-15T09:55:07Z</time>
      </trkpt>
      <trkpt lat="47.29527" lon="-2.39845">
        <ele>51</ele>
        <time>2019-09-15T09:55:08Z</time>
      </trkpt>
      <trkpt lat="47.29533" lon="-2.39833">
        <ele>51</ele>
        <time>2019-09-15T09:55:10Z</time>
      </trkpt>
      <trkpt lat="47.29536" lon="-2.39827">
        <ele>51</ele>
        <time>2019-09-15T09:55:11Z</time>
      </trkpt>
      <trkpt lat="47.29539" lon="-2.39821">
        <ele>51</ele>
        <time>2019-09-15T09:55:12Z</time>
      </trkpt>
      <trkpt lat="47.29542" lon="-2.39814">
        <ele>51</ele>
        <time>2019-09-15T09:55:13Z</time>
      </trkpt>
      <trkpt lat="47.29546" lon="-2.39808">
        <ele>51</ele>
        <time>2019-09-15T09:55:14Z</time>
      </trkpt>
      <trkpt lat="47.2955" lon="-2.39802">
        <ele>50</ele>
        <time>2019-09-15T09:55:15Z</time>
      </trkpt>
      <trkpt lat="47.29559" lon="-2.39781">
        <ele>50</ele>
        <time>2019-09-15T09:55:18Z</time>
      </trkpt>
      <trkpt lat="47.29562" lon="-2.39773">
        <ele>50</ele>
        <time>2019-09-15T09:55:19Z</time>
      </trkpt>
      <trkpt lat="47.29565" lon="-2.39765">
        <ele>50</ele>
        <time>2019-09-15T09:55:20Z</time>
      </trkpt>
      <trkpt lat="47.29568" lon="-2.39758">
        <ele>50</ele>
        <time>2019-09-15T09:55:21Z</time>
      </trkpt>
      <trkpt lat="47.29571" lon="-2.39751">
        <ele>49</ele>
        <time>2019-09-15T09:55:22Z</time>
      </trkpt>
      <trkpt lat="47.29575" lon="-2.39744">
        <ele>50</ele>
        <time>2019-09-15T09:55:23Z</time>
      </trkpt>
      <trkpt lat="47.29579" lon="-2.39738">
        <ele>50</ele>
        <time>2019-09-15T09:55:24Z</time>
      </trkpt>
      <trkpt lat="47.29582" lon="-2.39731">
        <ele>50</ele>
        <time>2019-09-15T09:55:25Z</time>
      </trkpt>
      <trkpt lat="47.29585" lon="-2.39724">
        <ele>50</ele>
        <time>2019-09-15T09:55:26Z</time>
      </trkpt>
      <trkpt lat="47.29589" lon="-2.39718">
        <ele>50</ele>
        <time>2019-09-15T09:55:27Z</time>
      </trkpt>
      <trkpt lat="47.29592" lon="-2.39711">
        <ele>50</ele>
        <time>2019-09-15T09:55:28Z</time>
      </trkpt>
      <trkpt lat="47.29604" lon="-2.39693">
        <ele>50</ele>
        <time>2019-09-15T09:55:31Z</time>
      </trkpt>
      <trkpt lat="47.29608" lon="-2.39687">
        <ele>50</ele>
        <time>2019-09-15T09:55:32Z</time>
      </trkpt>
      <trkpt lat="47.29611" lon="-2.3968">
        <ele>50</ele>
        <time>2019-09-15T09:55:33Z</time>
      </trkpt>
      <trkpt lat="47.29621" lon="-2.39661">
        <ele>50</ele>
        <time>2019-09-15T09:55:36Z</time>
      </trkpt>
      <trkpt lat="47.29627" lon="-2.39648">
        <ele>50</ele>
        <time>2019-09-15T09:55:38Z</time>
      </trkpt>
      <trkpt lat="47.29628" lon="-2.3964">
        <ele>51</ele>
        <time>2019-09-15T09:55:39Z</time>
      </trkpt>
      <trkpt lat="47.2963" lon="-2.39632">
        <ele>51</ele>
        <time>2019-09-15T09:55:40Z</time>
      </trkpt>
      <trkpt lat="47.2963" lon="-2.39624">
        <ele>51</ele>
        <time>2019-09-15T09:55:41Z</time>
      </trkpt>
      <trkpt lat="47.2963" lon="-2.39617">
        <ele>51</ele>
        <time>2019-09-15T09:55:42Z</time>
      </trkpt>
      <trkpt lat="47.2963" lon="-2.39609">
        <ele>51</ele>
        <time>2019-09-15T09:55:43Z</time>
      </trkpt>
      <trkpt lat="47.2963" lon="-2.39602">
        <ele>51</ele>
        <time>2019-09-15T09:55:44Z</time>
      </trkpt>
      <trkpt lat="47.29631" lon="-2.39595">
        <ele>51</ele>
        <time>2019-09-15T09:55:45Z</time>
      </trkpt>
      <trkpt lat="47.29632" lon="-2.39582">
        <ele>51</ele>
        <time>2019-09-15T09:55:47Z</time>
      </trkpt>
      <trkpt lat="47.29617" lon="-2.39569">
        <ele>53</ele>
        <time>2019-09-15T09:55:52Z</time>
      </trkpt>
      <trkpt lat="47.29617" lon="-2.39569">
        <ele>53</ele>
        <time>2019-09-15T09:55:58Z</time>
      </trkpt>
      <trkpt lat="47.29617" lon="-2.39569">
        <ele>6.4</ele>
        <time>2019-09-15T09:55:58Z</time>
      </trkpt>
      <trkpt lat="47.29617" lon="-2.39569">
        <ele>6.4</ele>
        <time>2019-09-15T09:56:04Z</time>
      </trkpt>
      <trkpt lat="47.29612" lon="-2.39554">
        <ele>56</ele>
        <time>2019-09-15T09:56:04Z</time>
      </trkpt>
      <trkpt lat="47.29592" lon="-2.3955">
        <ele>61</ele>
        <time>2019-09-15T09:56:10Z</time>
      </trkpt>
      <trkpt lat="47.29587" lon="-2.3955">
        <ele>60</ele>
        <time>2019-09-15T09:56:11Z</time>
      </trkpt>
      <trkpt lat="47.29584" lon="-2.39549">
        <ele>58</ele>
        <time>2019-09-15T09:56:12Z</time>
      </trkpt>
      <trkpt lat="47.29578" lon="-2.39548">
        <ele>55</ele>
        <time>2019-09-15T09:56:14Z</time>
      </trkpt>
      <trkpt lat="47.29572" lon="-2.39548">
        <ele>53</ele>
        <time>2019-09-15T09:56:15Z</time>
      </trkpt>
      <trkpt lat="47.29567" lon="-2.39547">
        <ele>53</ele>
        <time>2019-09-15T09:56:16Z</time>
      </trkpt>
      <trkpt lat="47.29561" lon="-2.39546">
        <ele>53</ele>
        <time>2019-09-15T09:56:17Z</time>
      </trkpt>
      <trkpt lat="47.29555" lon="-2.39544">
        <ele>52</ele>
        <time>2019-09-15T09:56:18Z</time>
      </trkpt>
      <trkpt lat="47.29549" lon="-2.39542">
        <ele>52</ele>
        <time>2019-09-15T09:56:19Z</time>
      </trkpt>
      <trkpt lat="47.29542" lon="-2.3954">
        <ele>53</ele>
        <time>2019-09-15T09:56:20Z</time>
      </trkpt>
      <trkpt lat="47.29534" lon="-2.39539">
        <ele>53</ele>
        <time>2019-09-15T09:56:21Z</time>
      </trkpt>
      <trkpt lat="47.29526" lon="-2.39537">
        <ele>53</ele>
        <time>2019-09-15T09:56:22Z</time>
      </trkpt>
      <trkpt lat="47.29509" lon="-2.39534">
        <ele>52</ele>
        <time>2019-09-15T09:56:24Z</time>
      </trkpt>
      <trkpt lat="47.29503" lon="-2.39532">
        <ele>53</ele>
        <time>2019-09-15T09:56:25Z</time>
      </trkpt>
      <trkpt lat="47.29489" lon="-2.39531">
        <ele>54</ele>
        <time>2019-09-15T09:56:27Z</time>
      </trkpt>
      <trkpt lat="47.29483" lon="-2.39529">
        <ele>54</ele>
        <time>2019-09-15T09:56:28Z</time>
      </trkpt>
      <trkpt lat="47.29476" lon="-2.39527">
        <ele>55</ele>
        <time>2019-09-15T09:56:29Z</time>
      </trkpt>
      <trkpt lat="47.29468" lon="-2.39525">
        <ele>55</ele>
        <time>2019-09-15T09:56:30Z</time>
      </trkpt>
      <trkpt lat="47.29461" lon="-2.39524">
        <ele>54</ele>
        <time>2019-09-15T09:56:31Z</time>
      </trkpt>
      <trkpt lat="47.29454" lon="-2.39523">
        <ele>54</ele>
        <time>2019-09-15T09:56:32Z</time>
      </trkpt>
      <trkpt lat="47.29447" lon="-2.39522">
        <ele>54</ele>
        <time>2019-09-15T09:56:33Z</time>
      </trkpt>
      <trkpt lat="47.2944" lon="-2.39521">
        <ele>53</ele>
        <time>2019-09-15T09:56:34Z</time>
      </trkpt>
      <trkpt lat="47.29433" lon="-2.3952">
        <ele>53</ele>
        <time>2019-09-15T09:56:35Z</time>
      </trkpt>
      <trkpt lat="47.29426" lon="-2.39519">
        <ele>53</ele>
        <time>2019-09-15T09:56:36Z</time>
      </trkpt>
      <trkpt lat="47.29419" lon="-2.39518">
        <ele>54</ele>
        <time>2019-09-15T09:56:37Z</time>
      </trkpt>
      <trkpt lat="47.29412" lon="-2.39517">
        <ele>54</ele>
        <time>2019-09-15T09:56:38Z</time>
      </trkpt>
      <trkpt lat="47.29391" lon="-2.39512">
        <ele>54</ele>
        <time>2019-09-15T09:56:41Z</time>
      </trkpt>
      <trkpt lat="47.29384" lon="-2.3951">
        <ele>55</ele>
        <time>2019-09-15T09:56:42Z</time>
      </trkpt>
      <trkpt lat="47.29377" lon="-2.39508">
        <ele>55</ele>
        <time>2019-09-15T09:56:43Z</time>
      </trkpt>
      <trkpt lat="47.2937" lon="-2.39507">
        <ele>55</ele>
        <time>2019-09-15T09:56:44Z</time>
      </trkpt>
      <trkpt lat="47.29363" lon="-2.39506">
        <ele>55</ele>
        <time>2019-09-15T09:56:45Z</time>
      </trkpt>
      <trkpt lat="47.29356" lon="-2.39504">
        <ele>55</ele>
        <time>2019-09-15T09:56:46Z</time>
      </trkpt>
      <trkpt lat="47.29349" lon="-2.39502">
        <ele>55</ele>
        <time>2019-09-15T09:56:47Z</time>
      </trkpt>
      <trkpt lat="47.29342" lon="-2.39501">
        <ele>54</ele>
        <time>2019-09-15T09:56:48Z</time>
      </trkpt>
      <trkpt lat="47.29334" lon="-2.395">
        <ele>54</ele>
        <time>2019-09-15T09:56:49Z</time>
      </trkpt>
      <trkpt lat="47.29328" lon="-2.39499">
        <ele>54</ele>
        <time>2019-09-15T09:56:50Z</time>
      </trkpt>
      <trkpt lat="47.29321" lon="-2.39498">
        <ele>54</ele>
        <time>2019-09-15T09:56:51Z</time>
      </trkpt>
      <trkpt lat="47.29314" lon="-2.39496">
        <ele>54</ele>
        <time>2019-09-15T09:56:52Z</time>
      </trkpt>
      <trkpt lat="47.29307" lon="-2.39495">
        <ele>54</ele>
        <time>2019-09-15T09:56:53Z</time>
      </trkpt>
      <trkpt lat="47.29301" lon="-2.39493">
        <ele>53</ele>
        <time>2019-09-15T09:56:54Z</time>
      </trkpt>
      <trkpt lat="47.29293" lon="-2.39492">
        <ele>53</ele>
        <time>2019-09-15T09:56:55Z</time>
      </trkpt>
      <trkpt lat="47.29279" lon="-2.39489">
        <ele>53</ele>
        <time>2019-09-15T09:56:56Z</time>
      </trkpt>
      <trkpt lat="47.29273" lon="-2.39488">
        <ele>53</ele>
        <time>2019-09-15T09:56:58Z</time>
      </trkpt>
      <trkpt lat="47.29266" lon="-2.39487">
        <ele>53</ele>
        <time>2019-09-15T09:56:59Z</time>
      </trkpt>
      <trkpt lat="47.29259" lon="-2.39485">
        <ele>52</ele>
        <time>2019-09-15T09:57:00Z</time>
      </trkpt>
      <trkpt lat="47.29252" lon="-2.39483">
        <ele>53</ele>
        <time>2019-09-15T09:57:01Z</time>
      </trkpt>
      <trkpt lat="47.29238" lon="-2.39482">
        <ele>53</ele>
        <time>2019-09-15T09:57:03Z</time>
      </trkpt>
      <trkpt lat="47.29231" lon="-2.3948">
        <ele>53</ele>
        <time>2019-09-15T09:57:04Z</time>
      </trkpt>
      <trkpt lat="47.29224" lon="-2.39477">
        <ele>53</ele>
        <time>2019-09-15T09:57:05Z</time>
      </trkpt>
      <trkpt lat="47.29217" lon="-2.39475">
        <ele>53</ele>
        <time>2019-09-15T09:57:06Z</time>
      </trkpt>
      <trkpt lat="47.2921" lon="-2.39473">
        <ele>53</ele>
        <time>2019-09-15T09:57:07Z</time>
      </trkpt>
      <trkpt lat="47.29204" lon="-2.39472">
        <ele>53</ele>
        <time>2019-09-15T09:57:08Z</time>
      </trkpt>
      <trkpt lat="47.29197" lon="-2.39471">
        <ele>53</ele>
        <time>2019-09-15T09:57:09Z</time>
      </trkpt>
      <trkpt lat="47.29191" lon="-2.39469">
        <ele>54</ele>
        <time>2019-09-15T09:57:10Z</time>
      </trkpt>
      <trkpt lat="47.29185" lon="-2.39469">
        <ele>53</ele>
        <time>2019-09-15T09:57:11Z</time>
      </trkpt>
      <trkpt lat="47.29178" lon="-2.39469">
        <ele>53</ele>
        <time>2019-09-15T09:57:12Z</time>
      </trkpt>
      <trkpt lat="47.29171" lon="-2.39469">
        <ele>54</ele>
        <time>2019-09-15T09:57:13Z</time>
      </trkpt>
      <trkpt lat="47.29167" lon="-2.39467">
        <ele>54</ele>
        <time>2019-09-15T09:57:14Z</time>
      </trkpt>
      <trkpt lat="47.29153" lon="-2.39464">
        <ele>54</ele>
        <time>2019-09-15T09:57:17Z</time>
      </trkpt>
      <trkpt lat="47.29146" lon="-2.39465">
        <ele>53</ele>
        <time>2019-09-15T09:57:19Z</time>
      </trkpt>
      <trkpt lat="47.29142" lon="-2.39464">
        <ele>53</ele>
        <time>2019-09-15T09:57:23Z</time>
      </trkpt>
      <trkpt lat="47.29138" lon="-2.39454">
        <ele>53</ele>
        <time>2019-09-15T09:57:26Z</time>
      </trkpt>
      <trkpt lat="47.29137" lon="-2.39443">
        <ele>52</ele>
        <time>2019-09-15T09:57:28Z</time>
      </trkpt>
      <trkpt lat="47.29136" lon="-2.39436">
        <ele>52</ele>
        <time>2019-09-15T09:57:29Z</time>
      </trkpt>
      <trkpt lat="47.29136" lon="-2.39421">
        <ele>52</ele>
        <time>2019-09-15T09:57:31Z</time>
      </trkpt>
      <trkpt lat="47.29135" lon="-2.39413">
        <ele>52</ele>
        <time>2019-09-15T09:57:32Z</time>
      </trkpt>
      <trkpt lat="47.29135" lon="-2.39405">
        <ele>52</ele>
        <time>2019-09-15T09:57:33Z</time>
      </trkpt>
      <trkpt lat="47.29135" lon="-2.39396">
        <ele>52</ele>
        <time>2019-09-15T09:57:34Z</time>
      </trkpt>
      <trkpt lat="47.29136" lon="-2.39389">
        <ele>51</ele>
        <time>2019-09-15T09:57:35Z</time>
      </trkpt>
      <trkpt lat="47.29135" lon="-2.39381">
        <ele>52</ele>
        <time>2019-09-15T09:57:36Z</time>
      </trkpt>
      <trkpt lat="47.29132" lon="-2.39376">
        <ele>52</ele>
        <time>2019-09-15T09:57:37Z</time>
      </trkpt>
      <trkpt lat="47.29128" lon="-2.39372">
        <ele>52</ele>
        <time>2019-09-15T09:57:38Z</time>
      </trkpt>
      <trkpt lat="47.29118" lon="-2.39373">
        <ele>52</ele>
        <time>2019-09-15T09:57:40Z</time>
      </trkpt>
      <trkpt lat="47.29114" lon="-2.39375">
        <ele>52</ele>
        <time>2019-09-15T09:57:41Z</time>
      </trkpt>
      <trkpt lat="47.29109" lon="-2.39377">
        <ele>52</ele>
        <time>2019-09-15T09:57:42Z</time>
      </trkpt>
      <trkpt lat="47.29105" lon="-2.39379">
        <ele>52</ele>
        <time>2019-09-15T09:57:43Z</time>
      </trkpt>
      <trkpt lat="47.29092" lon="-2.39375">
        <ele>53</ele>
        <time>2019-09-15T09:57:46Z</time>
      </trkpt>
      <trkpt lat="47.29088" lon="-2.3937">
        <ele>53</ele>
        <time>2019-09-15T09:57:47Z</time>
      </trkpt>
      <trkpt lat="47.29083" lon="-2.39366">
        <ele>53</ele>
        <time>2019-09-15T09:57:48Z</time>
      </trkpt>
      <trkpt lat="47.29066" lon="-2.39356">
        <ele>52</ele>
        <time>2019-09-15T09:57:51Z</time>
      </trkpt>
      <trkpt lat="47.29059" lon="-2.39353">
        <ele>52</ele>
        <time>2019-09-15T09:57:52Z</time>
      </trkpt>
      <trkpt lat="47.29052" lon="-2.3935">
        <ele>51</ele>
        <time>2019-09-15T09:57:53Z</time>
      </trkpt>
      <trkpt lat="47.29046" lon="-2.39346">
        <ele>51</ele>
        <time>2019-09-15T09:57:54Z</time>
      </trkpt>
      <trkpt lat="47.29039" lon="-2.39342">
        <ele>51</ele>
        <time>2019-09-15T09:57:55Z</time>
      </trkpt>
      <trkpt lat="47.2901" lon="-2.3933">
        <ele>50</ele>
        <time>2019-09-15T09:57:59Z</time>
      </trkpt>
      <trkpt lat="47.29003" lon="-2.39327">
        <ele>50</ele>
        <time>2019-09-15T09:58:00Z</time>
      </trkpt>
      <trkpt lat="47.28989" lon="-2.39321">
        <ele>51</ele>
        <time>2019-09-15T09:58:02Z</time>
      </trkpt>
      <trkpt lat="47.28983" lon="-2.3932">
        <ele>51</ele>
        <time>2019-09-15T09:58:03Z</time>
      </trkpt>
      <trkpt lat="47.2897" lon="-2.39319">
        <ele>51</ele>
        <time>2019-09-15T09:58:05Z</time>
      </trkpt>
      <trkpt lat="47.28965" lon="-2.3932">
        <ele>51</ele>
        <time>2019-09-15T09:58:06Z</time>
      </trkpt>
      <trkpt lat="47.28959" lon="-2.3932">
        <ele>51</ele>
        <time>2019-09-15T09:58:07Z</time>
      </trkpt>
      <trkpt lat="47.28949" lon="-2.39318">
        <ele>51</ele>
        <time>2019-09-15T09:58:09Z</time>
      </trkpt>
      <trkpt lat="47.28946" lon="-2.39312">
        <ele>51</ele>
        <time>2019-09-15T09:58:10Z</time>
      </trkpt>
      <trkpt lat="47.28944" lon="-2.39305">
        <ele>52</ele>
        <time>2019-09-15T09:58:11Z</time>
      </trkpt>
      <trkpt lat="47.28942" lon="-2.39298">
        <ele>52</ele>
        <time>2019-09-15T09:58:12Z</time>
      </trkpt>
      <trkpt lat="47.2894" lon="-2.3929">
        <ele>52</ele>
        <time>2019-09-15T09:58:13Z</time>
      </trkpt>
      <trkpt lat="47.28939" lon="-2.39282">
        <ele>52</ele>
        <time>2019-09-15T09:58:14Z</time>
      </trkpt>
      <trkpt lat="47.28937" lon="-2.39274">
        <ele>52</ele>
        <time>2019-09-15T09:58:15Z</time>
      </trkpt>
      <trkpt lat="47.28935" lon="-2.39251">
        <ele>52</ele>
        <time>2019-09-15T09:58:18Z</time>
      </trkpt>
      <trkpt lat="47.28935" lon="-2.39243">
        <ele>52</ele>
        <time>2019-09-15T09:58:19Z</time>
      </trkpt>
      <trkpt lat="47.28935" lon="-2.39235">
        <ele>53</ele>
        <time>2019-09-15T09:58:20Z</time>
      </trkpt>
      <trkpt lat="47.28935" lon="-2.39226">
        <ele>53</ele>
        <time>2019-09-15T09:58:21Z</time>
      </trkpt>
      <trkpt lat="47.28935" lon="-2.39218">
        <ele>53</ele>
        <time>2019-09-15T09:58:22Z</time>
      </trkpt>
      <trkpt lat="47.28934" lon="-2.3921">
        <ele>53</ele>
        <time>2019-09-15T09:58:23Z</time>
      </trkpt>
      <trkpt lat="47.28933" lon="-2.39201">
        <ele>53</ele>
        <time>2019-09-15T09:58:24Z</time>
      </trkpt>
      <trkpt lat="47.28933" lon="-2.39193">
        <ele>54</ele>
        <time>2019-09-15T09:58:25Z</time>
      </trkpt>
      <trkpt lat="47.28934" lon="-2.39159">
        <ele>53</ele>
        <time>2019-09-15T09:58:29Z</time>
      </trkpt>
      <trkpt lat="47.28937" lon="-2.39142">
        <ele>53</ele>
        <time>2019-09-15T09:58:31Z</time>
      </trkpt>
      <trkpt lat="47.28938" lon="-2.39134">
        <ele>53</ele>
        <time>2019-09-15T09:58:32Z</time>
      </trkpt>
      <trkpt lat="47.28938" lon="-2.39125">
        <ele>53</ele>
        <time>2019-09-15T09:58:33Z</time>
      </trkpt>
      <trkpt lat="47.28939" lon="-2.39116">
        <ele>53</ele>
        <time>2019-09-15T09:58:34Z</time>
      </trkpt>
      <trkpt lat="47.28941" lon="-2.39107">
        <ele>53</ele>
        <time>2019-09-15T09:58:35Z</time>
      </trkpt>
      <trkpt lat="47.28942" lon="-2.39098">
        <ele>53</ele>
        <time>2019-09-15T09:58:36Z</time>
      </trkpt>
      <trkpt lat="47.28943" lon="-2.39089">
        <ele>53</ele>
        <time>2019-09-15T09:58:37Z</time>
      </trkpt>
      <trkpt lat="47.28945" lon="-2.39072">
        <ele>53</ele>
        <time>2019-09-15T09:58:39Z</time>
      </trkpt>
      <trkpt lat="47.28947" lon="-2.39056">
        <ele>54</ele>
        <time>2019-09-15T09:58:41Z</time>
      </trkpt>
      <trkpt lat="47.28948" lon="-2.39047">
        <ele>54</ele>
        <time>2019-09-15T09:58:42Z</time>
      </trkpt>
      <trkpt lat="47.28949" lon="-2.39038">
        <ele>54</ele>
        <time>2019-09-15T09:58:43Z</time>
      </trkpt>
      <trkpt lat="47.28951" lon="-2.39021">
        <ele>54</ele>
        <time>2019-09-15T09:58:45Z</time>
      </trkpt>
      <trkpt lat="47.28951" lon="-2.39012">
        <ele>54</ele>
        <time>2019-09-15T09:58:46Z</time>
      </trkpt>
      <trkpt lat="47.28951" lon="-2.39003">
        <ele>54</ele>
        <time>2019-09-15T09:58:47Z</time>
      </trkpt>
      <trkpt lat="47.28952" lon="-2.38995">
        <ele>54</ele>
        <time>2019-09-15T09:58:48Z</time>
      </trkpt>
      <trkpt lat="47.28953" lon="-2.38985">
        <ele>55</ele>
        <time>2019-09-15T09:58:49Z</time>
      </trkpt>
      <trkpt lat="47.28955" lon="-2.38949">
        <ele>55</ele>
        <time>2019-09-15T09:58:53Z</time>
      </trkpt>
      <trkpt lat="47.28956" lon="-2.38941">
        <ele>54</ele>
        <time>2019-09-15T09:58:54Z</time>
      </trkpt>
      <trkpt lat="47.28956" lon="-2.38932">
        <ele>54</ele>
        <time>2019-09-15T09:58:55Z</time>
      </trkpt>
      <trkpt lat="47.28956" lon="-2.38923">
        <ele>53</ele>
        <time>2019-09-15T09:58:56Z</time>
      </trkpt>
      <trkpt lat="47.28956" lon="-2.38914">
        <ele>53</ele>
        <time>2019-09-15T09:58:57Z</time>
      </trkpt>
      <trkpt lat="47.28958" lon="-2.38896">
        <ele>54</ele>
        <time>2019-09-15T09:58:59Z</time>
      </trkpt>
      <trkpt lat="47.28958" lon="-2.38886">
        <ele>54</ele>
        <time>2019-09-15T09:59:00Z</time>
      </trkpt>
      <trkpt lat="47.28959" lon="-2.38877">
        <ele>54</ele>
        <time>2019-09-15T09:59:01Z</time>
      </trkpt>
      <trkpt lat="47.28959" lon="-2.38868">
        <ele>54</ele>
        <time>2019-09-15T09:59:02Z</time>
      </trkpt>
      <trkpt lat="47.28959" lon="-2.38859">
        <ele>54</ele>
        <time>2019-09-15T09:59:03Z</time>
      </trkpt>
      <trkpt lat="47.2896" lon="-2.3885">
        <ele>54</ele>
        <time>2019-09-15T09:59:04Z</time>
      </trkpt>
      <trkpt lat="47.28961" lon="-2.38841">
        <ele>54</ele>
        <time>2019-09-15T09:59:05Z</time>
      </trkpt>
      <trkpt lat="47.28961" lon="-2.38832">
        <ele>54</ele>
        <time>2019-09-15T09:59:06Z</time>
      </trkpt>
      <trkpt lat="47.28961" lon="-2.38823">
        <ele>55</ele>
        <time>2019-09-15T09:59:07Z</time>
      </trkpt>
      <trkpt lat="47.28961" lon="-2.38814">
        <ele>55</ele>
        <time>2019-09-15T09:59:08Z</time>
      </trkpt>
      <trkpt lat="47.28961" lon="-2.38805">
        <ele>55</ele>
        <time>2019-09-15T09:59:09Z</time>
      </trkpt>
      <trkpt lat="47.2896" lon="-2.38796">
        <ele>55</ele>
        <time>2019-09-15T09:59:10Z</time>
      </trkpt>
      <trkpt lat="47.2896" lon="-2.38787">
        <ele>55</ele>
        <time>2019-09-15T09:59:11Z</time>
      </trkpt>
      <trkpt lat="47.2896" lon="-2.38759">
        <ele>56</ele>
        <time>2019-09-15T09:59:14Z</time>
      </trkpt>
      <trkpt lat="47.2896" lon="-2.3875">
        <ele>56</ele>
        <time>2019-09-15T09:59:15Z</time>
      </trkpt>
      <trkpt lat="47.2896" lon="-2.3874">
        <ele>56</ele>
        <time>2019-09-15T09:59:16Z</time>
      </trkpt>
      <trkpt lat="47.2896" lon="-2.38721">
        <ele>56</ele>
        <time>2019-09-15T09:59:18Z</time>
      </trkpt>
      <trkpt lat="47.2896" lon="-2.38711">
        <ele>56</ele>
        <time>2019-09-15T09:59:19Z</time>
      </trkpt>
      <trkpt lat="47.28959" lon="-2.38702">
        <ele>56</ele>
        <time>2019-09-15T09:59:20Z</time>
      </trkpt>
      <trkpt lat="47.28958" lon="-2.38692">
        <ele>56</ele>
        <time>2019-09-15T09:59:21Z</time>
      </trkpt>
      <trkpt lat="47.28958" lon="-2.38682">
        <ele>56</ele>
        <time>2019-09-15T09:59:22Z</time>
      </trkpt>
      <trkpt lat="47.28958" lon="-2.38672">
        <ele>55</ele>
        <time>2019-09-15T09:59:23Z</time>
      </trkpt>
      <trkpt lat="47.28959" lon="-2.38663">
        <ele>56</ele>
        <time>2019-09-15T09:59:24Z</time>
      </trkpt>
      <trkpt lat="47.28958" lon="-2.38654">
        <ele>56</ele>
        <time>2019-09-15T09:59:25Z</time>
      </trkpt>
      <trkpt lat="47.28958" lon="-2.38644">
        <ele>56</ele>
        <time>2019-09-15T09:59:26Z</time>
      </trkpt>
      <trkpt lat="47.28959" lon="-2.38635">
        <ele>56</ele>
        <time>2019-09-15T09:59:27Z</time>
      </trkpt>
      <trkpt lat="47.28959" lon="-2.38615">
        <ele>56</ele>
        <time>2019-09-15T09:59:29Z</time>
      </trkpt>
      <trkpt lat="47.28959" lon="-2.38605">
        <ele>56</ele>
        <time>2019-09-15T09:59:30Z</time>
      </trkpt>
      <trkpt lat="47.28958" lon="-2.38596">
        <ele>56</ele>
        <time>2019-09-15T09:59:31Z</time>
      </trkpt>
      <trkpt lat="47.28957" lon="-2.38576">
        <ele>56</ele>
        <time>2019-09-15T09:59:33Z</time>
      </trkpt>
      <trkpt lat="47.28956" lon="-2.38565">
        <ele>56</ele>
        <time>2019-09-15T09:59:34Z</time>
      </trkpt>
      <trkpt lat="47.28955" lon="-2.38556">
        <ele>56</ele>
        <time>2019-09-15T09:59:35Z</time>
      </trkpt>
      <trkpt lat="47.28954" lon="-2.38547">
        <ele>56</ele>
        <time>2019-09-15T09:59:36Z</time>
      </trkpt>
      <trkpt lat="47.28953" lon="-2.38537">
        <ele>56</ele>
        <time>2019-09-15T09:59:37Z</time>
      </trkpt>
      <trkpt lat="47.28949" lon="-2.38509">
        <ele>55</ele>
        <time>2019-09-15T09:59:40Z</time>
      </trkpt>
      <trkpt lat="47.28948" lon="-2.38499">
        <ele>55</ele>
        <time>2019-09-15T09:59:41Z</time>
      </trkpt>
      <trkpt lat="47.28946" lon="-2.38481">
        <ele>55</ele>
        <time>2019-09-15T09:59:43Z</time>
      </trkpt>
      <trkpt lat="47.28945" lon="-2.38472">
        <ele>55</ele>
        <time>2019-09-15T09:59:44Z</time>
      </trkpt>
      <trkpt lat="47.28945" lon="-2.38463">
        <ele>55</ele>
        <time>2019-09-15T09:59:45Z</time>
      </trkpt>
      <trkpt lat="47.28944" lon="-2.38454">
        <ele>55</ele>
        <time>2019-09-15T09:59:46Z</time>
      </trkpt>
      <trkpt lat="47.28943" lon="-2.38446">
        <ele>55</ele>
        <time>2019-09-15T09:59:47Z</time>
      </trkpt>
      <trkpt lat="47.28942" lon="-2.38437">
        <ele>55</ele>
        <time>2019-09-15T09:59:48Z</time>
      </trkpt>
      <trkpt lat="47.28941" lon="-2.38429">
        <ele>55</ele>
        <time>2019-09-15T09:59:49Z</time>
      </trkpt>
      <trkpt lat="47.2894" lon="-2.3842">
        <ele>55</ele>
        <time>2019-09-15T09:59:50Z</time>
      </trkpt>
      <trkpt lat="47.28939" lon="-2.38402">
        <ele>54</ele>
        <time>2019-09-15T09:59:52Z</time>
      </trkpt>
      <trkpt lat="47.28937" lon="-2.38384">
        <ele>54</ele>
        <time>2019-09-15T09:59:54Z</time>
      </trkpt>
      <trkpt lat="47.28937" lon="-2.38375">
        <ele>55</ele>
        <time>2019-09-15T09:59:55Z</time>
      </trkpt>
      <trkpt lat="47.28937" lon="-2.38366">
        <ele>55</ele>
        <time>2019-09-15T09:59:56Z</time>
      </trkpt>
      <trkpt lat="47.28936" lon="-2.38357">
        <ele>55</ele>
        <time>2019-09-15T09:59:57Z</time>
      </trkpt>
      <trkpt lat="47.28935" lon="-2.38348">
        <ele>55</ele>
        <time>2019-09-15T09:59:58Z</time>
      </trkpt>
      <trkpt lat="47.28934" lon="-2.38338">
        <ele>55</ele>
        <time>2019-09-15T09:59:59Z</time>
      </trkpt>
      <trkpt lat="47.28933" lon="-2.3832">
        <ele>54</ele>
        <time>2019-09-15T10:00:00Z</time>
      </trkpt>
      <trkpt lat="47.28934" lon="-2.38302">
        <ele>55</ele>
        <time>2019-09-15T10:00:03Z</time>
      </trkpt>
      <trkpt lat="47.28935" lon="-2.38292">
        <ele>55</ele>
        <time>2019-09-15T10:00:04Z</time>
      </trkpt>
      <trkpt lat="47.28935" lon="-2.38283">
        <ele>55</ele>
        <time>2019-09-15T10:00:05Z</time>
      </trkpt>
      <trkpt lat="47.28936" lon="-2.38274">
        <ele>55</ele>
        <time>2019-09-15T10:00:06Z</time>
      </trkpt>
      <trkpt lat="47.28937" lon="-2.38266">
        <ele>55</ele>
        <time>2019-09-15T10:00:07Z</time>
      </trkpt>
      <trkpt lat="47.28938" lon="-2.38257">
        <ele>55</ele>
        <time>2019-09-15T10:00:08Z</time>
      </trkpt>
      <trkpt lat="47.28938" lon="-2.38248">
        <ele>55</ele>
        <time>2019-09-15T10:00:09Z</time>
      </trkpt>
      <trkpt lat="47.28925" lon="-2.38224">
        <ele>55</ele>
        <time>2019-09-15T10:00:13Z</time>
      </trkpt>
      <trkpt lat="47.2892" lon="-2.3822">
        <ele>55</ele>
        <time>2019-09-15T10:00:14Z</time>
      </trkpt>
      <trkpt lat="47.28916" lon="-2.38216">
        <ele>55</ele>
        <time>2019-09-15T10:00:15Z</time>
      </trkpt>
      <trkpt lat="47.28911" lon="-2.38212">
        <ele>56</ele>
        <time>2019-09-15T10:00:16Z</time>
      </trkpt>
      <trkpt lat="47.28907" lon="-2.38208">
        <ele>56</ele>
        <time>2019-09-15T10:00:17Z</time>
      </trkpt>
      <trkpt lat="47.28903" lon="-2.38202">
        <ele>57</ele>
        <time>2019-09-15T10:00:18Z</time>
      </trkpt>
      <trkpt lat="47.28902" lon="-2.38195">
        <ele>57</ele>
        <time>2019-09-15T10:00:19Z</time>
      </trkpt>
      <trkpt lat="47.28901" lon="-2.38187">
        <ele>56</ele>
        <time>2019-09-15T10:00:20Z</time>
      </trkpt>
      <trkpt lat="47.28901" lon="-2.38179">
        <ele>56</ele>
        <time>2019-09-15T10:00:21Z</time>
      </trkpt>
      <trkpt lat="47.28902" lon="-2.38171">
        <ele>56</ele>
        <time>2019-09-15T10:00:22Z</time>
      </trkpt>
      <trkpt lat="47.28902" lon="-2.38162">
        <ele>55</ele>
        <time>2019-09-15T10:00:23Z</time>
      </trkpt>
      <trkpt lat="47.28902" lon="-2.38154">
        <ele>54</ele>
        <time>2019-09-15T10:00:24Z</time>
      </trkpt>
      <trkpt lat="47.28902" lon="-2.38146">
        <ele>53</ele>
        <time>2019-09-15T10:00:25Z</time>
      </trkpt>
      <trkpt lat="47.28903" lon="-2.38138">
        <ele>54</ele>
        <time>2019-09-15T10:00:26Z</time>
      </trkpt>
      <trkpt lat="47.28904" lon="-2.38129">
        <ele>53</ele>
        <time>2019-09-15T10:00:27Z</time>
      </trkpt>
      <trkpt lat="47.28905" lon="-2.38121">
        <ele>53</ele>
        <time>2019-09-15T10:00:28Z</time>
      </trkpt>
      <trkpt lat="47.28906" lon="-2.38113">
        <ele>53</ele>
        <time>2019-09-15T10:00:29Z</time>
      </trkpt>
      <trkpt lat="47.28906" lon="-2.38105">
        <ele>53</ele>
        <time>2019-09-15T10:00:30Z</time>
      </trkpt>
      <trkpt lat="47.28906" lon="-2.38089">
        <ele>53</ele>
        <time>2019-09-15T10:00:32Z</time>
      </trkpt>
      <trkpt lat="47.28907" lon="-2.38073">
        <ele>53</ele>
        <time>2019-09-15T10:00:34Z</time>
      </trkpt>
      <trkpt lat="47.28908" lon="-2.38065">
        <ele>53</ele>
        <time>2019-09-15T10:00:35Z</time>
      </trkpt>
      <trkpt lat="47.28908" lon="-2.38056">
        <ele>53</ele>
        <time>2019-09-15T10:00:36Z</time>
      </trkpt>
      <trkpt lat="47.28909" lon="-2.38048">
        <ele>53</ele>
        <time>2019-09-15T10:00:37Z</time>
      </trkpt>
      <trkpt lat="47.28909" lon="-2.3804">
        <ele>53</ele>
        <time>2019-09-15T10:00:38Z</time>
      </trkpt>
      <trkpt lat="47.28909" lon="-2.38032">
        <ele>54</ele>
        <time>2019-09-15T10:00:39Z</time>
      </trkpt>
      <trkpt lat="47.28909" lon="-2.38023">
        <ele>54</ele>
        <time>2019-09-15T10:00:40Z</time>
      </trkpt>
      <trkpt lat="47.2891" lon="-2.38014">
        <ele>54</ele>
        <time>2019-09-15T10:00:41Z</time>
      </trkpt>
      <trkpt lat="47.28913" lon="-2.37989">
        <ele>54</ele>
        <time>2019-09-15T10:00:44Z</time>
      </trkpt>
      <trkpt lat="47.28914" lon="-2.3798">
        <ele>54</ele>
        <time>2019-09-15T10:00:45Z</time>
      </trkpt>
      <trkpt lat="47.28915" lon="-2.37972">
        <ele>54</ele>
        <time>2019-09-15T10:00:46Z</time>
      </trkpt>
      <trkpt lat="47.28915" lon="-2.37964">
        <ele>55</ele>
        <time>2019-09-15T10:00:47Z</time>
      </trkpt>
      <trkpt lat="47.28916" lon="-2.37947">
        <ele>55</ele>
        <time>2019-09-15T10:00:49Z</time>
      </trkpt>
      <trkpt lat="47.28917" lon="-2.37938">
        <ele>55</ele>
        <time>2019-09-15T10:00:50Z</time>
      </trkpt>
      <trkpt lat="47.28918" lon="-2.3793">
        <ele>55</ele>
        <time>2019-09-15T10:00:51Z</time>
      </trkpt>
      <trkpt lat="47.28919" lon="-2.37905">
        <ele>55</ele>
        <time>2019-09-15T10:00:54Z</time>
      </trkpt>
      <trkpt lat="47.28919" lon="-2.37897">
        <ele>55</ele>
        <time>2019-09-15T10:00:55Z</time>
      </trkpt>
      <trkpt lat="47.2892" lon="-2.37888">
        <ele>55</ele>
        <time>2019-09-15T10:00:56Z</time>
      </trkpt>
      <trkpt lat="47.28921" lon="-2.3788">
        <ele>55</ele>
        <time>2019-09-15T10:00:57Z</time>
      </trkpt>
      <trkpt lat="47.28921" lon="-2.37873">
        <ele>55</ele>
        <time>2019-09-15T10:00:58Z</time>
      </trkpt>
      <trkpt lat="47.28921" lon="-2.37865">
        <ele>55</ele>
        <time>2019-09-15T10:00:59Z</time>
      </trkpt>
      <trkpt lat="47.28922" lon="-2.3785">
        <ele>55</ele>
        <time>2019-09-15T10:01:01Z</time>
      </trkpt>
      <trkpt lat="47.28922" lon="-2.37843">
        <ele>56</ele>
        <time>2019-09-15T10:01:02Z</time>
      </trkpt>
      <trkpt lat="47.28923" lon="-2.37836">
        <ele>56</ele>
        <time>2019-09-15T10:01:03Z</time>
      </trkpt>
      <trkpt lat="47.28925" lon="-2.37822">
        <ele>55</ele>
        <time>2019-09-15T10:01:05Z</time>
      </trkpt>
      <trkpt lat="47.28925" lon="-2.37815">
        <ele>56</ele>
        <time>2019-09-15T10:01:06Z</time>
      </trkpt>
      <trkpt lat="47.28925" lon="-2.37808">
        <ele>56</ele>
        <time>2019-09-15T10:01:07Z</time>
      </trkpt>
      <trkpt lat="47.28926" lon="-2.378">
        <ele>57</ele>
        <time>2019-09-15T10:01:08Z</time>
      </trkpt>
      <trkpt lat="47.28927" lon="-2.37779">
        <ele>56</ele>
        <time>2019-09-15T10:01:11Z</time>
      </trkpt>
      <trkpt lat="47.28928" lon="-2.37771">
        <ele>56</ele>
        <time>2019-09-15T10:01:12Z</time>
      </trkpt>
      <trkpt lat="47.28929" lon="-2.37763">
        <ele>56</ele>
        <time>2019-09-15T10:01:13Z</time>
      </trkpt>
      <trkpt lat="47.2893" lon="-2.37756">
        <ele>56</ele>
        <time>2019-09-15T10:01:14Z</time>
      </trkpt>
      <trkpt lat="47.28932" lon="-2.37749">
        <ele>56</ele>
        <time>2019-09-15T10:01:15Z</time>
      </trkpt>
      <trkpt lat="47.28932" lon="-2.37741">
        <ele>55</ele>
        <time>2019-09-15T10:01:16Z</time>
      </trkpt>
      <trkpt lat="47.28932" lon="-2.37734">
        <ele>55</ele>
        <time>2019-09-15T10:01:17Z</time>
      </trkpt>
      <trkpt lat="47.28932" lon="-2.37727">
        <ele>55</ele>
        <time>2019-09-15T10:01:18Z</time>
      </trkpt>
      <trkpt lat="47.28934" lon="-2.37712">
        <ele>55</ele>
        <time>2019-09-15T10:01:20Z</time>
      </trkpt>
      <trkpt lat="47.28935" lon="-2.37681">
        <ele>55</ele>
        <time>2019-09-15T10:01:25Z</time>
      </trkpt>
      <trkpt lat="47.28935" lon="-2.37675">
        <ele>55</ele>
        <time>2019-09-15T10:01:26Z</time>
      </trkpt>
      <trkpt lat="47.28932" lon="-2.37653">
        <ele>55</ele>
        <time>2019-09-15T10:01:30Z</time>
      </trkpt>
      <trkpt lat="47.28928" lon="-2.3765">
        <ele>55</ele>
        <time>2019-09-15T10:01:31Z</time>
      </trkpt>
      <trkpt lat="47.28913" lon="-2.37649">
        <ele>56</ele>
        <time>2019-09-15T10:01:34Z</time>
      </trkpt>
      <trkpt lat="47.28908" lon="-2.3765">
        <ele>56</ele>
        <time>2019-09-15T10:01:35Z</time>
      </trkpt>
      <trkpt lat="47.28903" lon="-2.37651">
        <ele>56</ele>
        <time>2019-09-15T10:01:36Z</time>
      </trkpt>
      <trkpt lat="47.28899" lon="-2.37652">
        <ele>56</ele>
        <time>2019-09-15T10:01:37Z</time>
      </trkpt>
      <trkpt lat="47.28894" lon="-2.37653">
        <ele>56</ele>
        <time>2019-09-15T10:01:38Z</time>
      </trkpt>
      <trkpt lat="47.2889" lon="-2.37653">
        <ele>56</ele>
        <time>2019-09-15T10:01:39Z</time>
      </trkpt>
      <trkpt lat="47.28886" lon="-2.37654">
        <ele>56</ele>
        <time>2019-09-15T10:01:40Z</time>
      </trkpt>
      <trkpt lat="47.28883" lon="-2.37655">
        <ele>57</ele>
        <time>2019-09-15T10:01:41Z</time>
      </trkpt>
      <trkpt lat="47.28875" lon="-2.37656">
        <ele>57</ele>
        <time>2019-09-15T10:01:43Z</time>
      </trkpt>
      <trkpt lat="47.28868" lon="-2.37654">
        <ele>57</ele>
        <time>2019-09-15T10:01:45Z</time>
      </trkpt>
      <trkpt lat="47.28863" lon="-2.37648">
        <ele>57</ele>
        <time>2019-09-15T10:01:47Z</time>
      </trkpt>
      <trkpt lat="47.2886" lon="-2.37642">
        <ele>57</ele>
        <time>2019-09-15T10:01:49Z</time>
      </trkpt>
      <trkpt lat="47.2886" lon="-2.37642">
        <ele>7</ele>
        <time>2019-09-15T10:01:55Z</time>
      </trkpt>
      <trkpt lat="47.2886" lon="-2.37642">
        <ele>7</ele>
        <time>2019-09-15T10:02:25Z</time>
      </trkpt>
      <trkpt lat="47.28837" lon="-2.37653">
        <ele>57</ele>
        <time>2019-09-15T10:02:25Z</time>
      </trkpt>
      <trkpt lat="47.28813" lon="-2.37696">
        <ele>56</ele>
        <time>2019-09-15T10:02:31Z</time>
      </trkpt>
      <trkpt lat="47.28806" lon="-2.37699">
        <ele>52</ele>
        <time>2019-09-15T10:02:32Z</time>
      </trkpt>
      <trkpt lat="47.288" lon="-2.37701">
        <ele>51</ele>
        <time>2019-09-15T10:02:33Z</time>
      </trkpt>
      <trkpt lat="47.28795" lon="-2.37704">
        <ele>53</ele>
        <time>2019-09-15T10:02:34Z</time>
      </trkpt>
      <trkpt lat="47.28784" lon="-2.37709">
        <ele>56</ele>
        <time>2019-09-15T10:02:36Z</time>
      </trkpt>
      <trkpt lat="47.28779" lon="-2.37712">
        <ele>57</ele>
        <time>2019-09-15T10:02:37Z</time>
      </trkpt>
      <trkpt lat="47.28773" lon="-2.37715">
        <ele>58</ele>
        <time>2019-09-15T10:02:38Z</time>
      </trkpt>
      <trkpt lat="47.28765" lon="-2.37722">
        <ele>60</ele>
        <time>2019-09-15T10:02:40Z</time>
      </trkpt>
      <trkpt lat="47.2876" lon="-2.37726">
        <ele>60</ele>
        <time>2019-09-15T10:02:41Z</time>
      </trkpt>
      <trkpt lat="47.28754" lon="-2.37736">
        <ele>60</ele>
        <time>2019-09-15T10:02:43Z</time>
      </trkpt>
      <trkpt lat="47.28751" lon="-2.37741">
        <ele>60</ele>
        <time>2019-09-15T10:02:44Z</time>
      </trkpt>
      <trkpt lat="47.28746" lon="-2.37746">
        <ele>60</ele>
        <time>2019-09-15T10:02:45Z</time>
      </trkpt>
      <trkpt lat="47.28741" lon="-2.37752">
        <ele>60</ele>
        <time>2019-09-15T10:02:46Z</time>
      </trkpt>
      <trkpt lat="47.28737" lon="-2.37759">
        <ele>60</ele>
        <time>2019-09-15T10:02:47Z</time>
      </trkpt>
      <trkpt lat="47.28732" lon="-2.37766">
        <ele>59</ele>
        <time>2019-09-15T10:02:48Z</time>
      </trkpt>
      <trkpt lat="47.28727" lon="-2.37773">
        <ele>58</ele>
        <time>2019-09-15T10:02:49Z</time>
      </trkpt>
      <trkpt lat="47.28717" lon="-2.37792">
        <ele>58</ele>
        <time>2019-09-15T10:02:52Z</time>
      </trkpt>
      <trkpt lat="47.28709" lon="-2.37805">
        <ele>57</ele>
        <time>2019-09-15T10:02:54Z</time>
      </trkpt>
      <trkpt lat="47.28705" lon="-2.37811">
        <ele>56</ele>
        <time>2019-09-15T10:02:55Z</time>
      </trkpt>
      <trkpt lat="47.28701" lon="-2.37817">
        <ele>56</ele>
        <time>2019-09-15T10:02:56Z</time>
      </trkpt>
      <trkpt lat="47.28693" lon="-2.37827">
        <ele>56</ele>
        <time>2019-09-15T10:02:57Z</time>
      </trkpt>
      <trkpt lat="47.28689" lon="-2.37832">
        <ele>56</ele>
        <time>2019-09-15T10:02:59Z</time>
      </trkpt>
      <trkpt lat="47.28684" lon="-2.37843">
        <ele>56</ele>
        <time>2019-09-15T10:03:01Z</time>
      </trkpt>
      <trkpt lat="47.2868" lon="-2.37848">
        <ele>56</ele>
        <time>2019-09-15T10:03:02Z</time>
      </trkpt>
      <trkpt lat="47.28676" lon="-2.37854">
        <ele>56</ele>
        <time>2019-09-15T10:03:03Z</time>
      </trkpt>
      <trkpt lat="47.28672" lon="-2.37859">
        <ele>56</ele>
        <time>2019-09-15T10:03:04Z</time>
      </trkpt>
      <trkpt lat="47.28669" lon="-2.37865">
        <ele>56</ele>
        <time>2019-09-15T10:03:05Z</time>
      </trkpt>
      <trkpt lat="47.28665" lon="-2.37871">
        <ele>56</ele>
        <time>2019-09-15T10:03:06Z</time>
      </trkpt>
      <trkpt lat="47.28661" lon="-2.37877">
        <ele>56</ele>
        <time>2019-09-15T10:03:07Z</time>
      </trkpt>
      <trkpt lat="47.28658" lon="-2.37883">
        <ele>56</ele>
        <time>2019-09-15T10:03:08Z</time>
      </trkpt>
      <trkpt lat="47.28654" lon="-2.37889">
        <ele>56</ele>
        <time>2019-09-15T10:03:09Z</time>
      </trkpt>
      <trkpt lat="47.2865" lon="-2.37896">
        <ele>56</ele>
        <time>2019-09-15T10:03:10Z</time>
      </trkpt>
      <trkpt lat="47.28646" lon="-2.37902">
        <ele>56</ele>
        <time>2019-09-15T10:03:11Z</time>
      </trkpt>
      <trkpt lat="47.28633" lon="-2.37923">
        <ele>57</ele>
        <time>2019-09-15T10:03:14Z</time>
      </trkpt>
      <trkpt lat="47.28629" lon="-2.3793">
        <ele>57</ele>
        <time>2019-09-15T10:03:15Z</time>
      </trkpt>
      <trkpt lat="47.28625" lon="-2.37937">
        <ele>58</ele>
        <time>2019-09-15T10:03:16Z</time>
      </trkpt>
      <trkpt lat="47.28617" lon="-2.37949">
        <ele>59</ele>
        <time>2019-09-15T10:03:18Z</time>
      </trkpt>
      <trkpt lat="47.28613" lon="-2.37955">
        <ele>59</ele>
        <time>2019-09-15T10:03:19Z</time>
      </trkpt>
      <trkpt lat="47.28603" lon="-2.37967">
        <ele>58</ele>
        <time>2019-09-15T10:03:21Z</time>
      </trkpt>
      <trkpt lat="47.28598" lon="-2.37974">
        <ele>58</ele>
        <time>2019-09-15T10:03:22Z</time>
      </trkpt>
      <trkpt lat="47.28593" lon="-2.37981">
        <ele>58</ele>
        <time>2019-09-15T10:03:23Z</time>
      </trkpt>
      <trkpt lat="47.28588" lon="-2.37986">
        <ele>58</ele>
        <time>2019-09-15T10:03:24Z</time>
      </trkpt>
      <trkpt lat="47.28579" lon="-2.37998">
        <ele>58</ele>
        <time>2019-09-15T10:03:26Z</time>
      </trkpt>
      <trkpt lat="47.28574" lon="-2.38003">
        <ele>58</ele>
        <time>2019-09-15T10:03:27Z</time>
      </trkpt>
      <trkpt lat="47.28569" lon="-2.38008">
        <ele>58</ele>
        <time>2019-09-15T10:03:28Z</time>
      </trkpt>
      <trkpt lat="47.28563" lon="-2.38014">
        <ele>58</ele>
        <time>2019-09-15T10:03:29Z</time>
      </trkpt>
      <trkpt lat="47.28558" lon="-2.3802">
        <ele>58</ele>
        <time>2019-09-15T10:03:30Z</time>
      </trkpt>
      <trkpt lat="47.28553" lon="-2.38027">
        <ele>58</ele>
        <time>2019-09-15T10:03:31Z</time>
      </trkpt>
      <trkpt lat="47.28549" lon="-2.38032">
        <ele>58</ele>
        <time>2019-09-15T10:03:32Z</time>
      </trkpt>
      <trkpt lat="47.28543" lon="-2.38037">
        <ele>58</ele>
        <time>2019-09-15T10:03:33Z</time>
      </trkpt>
      <trkpt lat="47.28539" lon="-2.38041">
        <ele>58</ele>
        <time>2019-09-15T10:03:34Z</time>
      </trkpt>
      <trkpt lat="47.28535" lon="-2.38045">
        <ele>57</ele>
        <time>2019-09-15T10:03:35Z</time>
      </trkpt>
      <trkpt lat="47.28532" lon="-2.38051">
        <ele>57</ele>
        <time>2019-09-15T10:03:37Z</time>
      </trkpt>
      <trkpt lat="47.28528" lon="-2.38056">
        <ele>58</ele>
        <time>2019-09-15T10:03:40Z</time>
      </trkpt>
      <trkpt lat="47.28523" lon="-2.3806">
        <ele>58</ele>
        <time>2019-09-15T10:03:42Z</time>
      </trkpt>
      <trkpt lat="47.2852" lon="-2.38063">
        <ele>58</ele>
        <time>2019-09-15T10:03:43Z</time>
      </trkpt>
      <trkpt lat="47.28513" lon="-2.38069">
        <ele>57</ele>
        <time>2019-09-15T10:03:45Z</time>
      </trkpt>
      <trkpt lat="47.28509" lon="-2.38073">
        <ele>57</ele>
        <time>2019-09-15T10:03:46Z</time>
      </trkpt>
      <trkpt lat="47.28506" lon="-2.38077">
        <ele>57</ele>
        <time>2019-09-15T10:03:47Z</time>
      </trkpt>
      <trkpt lat="47.28502" lon="-2.38081">
        <ele>58</ele>
        <time>2019-09-15T10:03:48Z</time>
      </trkpt>
      <trkpt lat="47.28491" lon="-2.38086">
        <ele>58</ele>
        <time>2019-09-15T10:03:50Z</time>
      </trkpt>
      <trkpt lat="47.28486" lon="-2.3809">
        <ele>58</ele>
        <time>2019-09-15T10:03:51Z</time>
      </trkpt>
      <trkpt lat="47.2848" lon="-2.38093">
        <ele>58</ele>
        <time>2019-09-15T10:03:52Z</time>
      </trkpt>
      <trkpt lat="47.28475" lon="-2.38096">
        <ele>58</ele>
        <time>2019-09-15T10:03:53Z</time>
      </trkpt>
      <trkpt lat="47.28469" lon="-2.38099">
        <ele>58</ele>
        <time>2019-09-15T10:03:54Z</time>
      </trkpt>
      <trkpt lat="47.28464" lon="-2.38102">
        <ele>58</ele>
        <time>2019-09-15T10:03:55Z</time>
      </trkpt>
      <trkpt lat="47.28459" lon="-2.38104">
        <ele>58</ele>
        <time>2019-09-15T10:03:56Z</time>
      </trkpt>
      <trkpt lat="47.28449" lon="-2.38108">
        <ele>59</ele>
        <time>2019-09-15T10:03:58Z</time>
      </trkpt>
      <trkpt lat="47.28444" lon="-2.3811">
        <ele>59</ele>
        <time>2019-09-15T10:03:59Z</time>
      </trkpt>
      <trkpt lat="47.28438" lon="-2.38112">
        <ele>59</ele>
        <time>2019-09-15T10:04:00Z</time>
      </trkpt>
      <trkpt lat="47.28421" lon="-2.38115">
        <ele>60</ele>
        <time>2019-09-15T10:04:02Z</time>
      </trkpt>
      <trkpt lat="47.28414" lon="-2.38115">
        <ele>60</ele>
        <time>2019-09-15T10:04:03Z</time>
      </trkpt>
      <trkpt lat="47.28409" lon="-2.38115">
        <ele>60</ele>
        <time>2019-09-15T10:04:04Z</time>
      </trkpt>
      <trkpt lat="47.28403" lon="-2.38114">
        <ele>59</ele>
        <time>2019-09-15T10:04:05Z</time>
      </trkpt>
      <trkpt lat="47.28397" lon="-2.38112">
        <ele>59</ele>
        <time>2019-09-15T10:04:06Z</time>
      </trkpt>
      <trkpt lat="47.28392" lon="-2.38111">
        <ele>59</ele>
        <time>2019-09-15T10:04:07Z</time>
      </trkpt>
      <trkpt lat="47.28386" lon="-2.38109">
        <ele>59</ele>
        <time>2019-09-15T10:04:08Z</time>
      </trkpt>
      <trkpt lat="47.28375" lon="-2.38103">
        <ele>59</ele>
        <time>2019-09-15T10:04:10Z</time>
      </trkpt>
      <trkpt lat="47.2837" lon="-2.381">
        <ele>59</ele>
        <time>2019-09-15T10:04:12Z</time>
      </trkpt>
      <trkpt lat="47.28365" lon="-2.38095">
        <ele>58</ele>
        <time>2019-09-15T10:04:13Z</time>
      </trkpt>
      <trkpt lat="47.2836" lon="-2.38089">
        <ele>59</ele>
        <time>2019-09-15T10:04:14Z</time>
      </trkpt>
      <trkpt lat="47.28355" lon="-2.38083">
        <ele>59</ele>
        <time>2019-09-15T10:04:15Z</time>
      </trkpt>
      <trkpt lat="47.2835" lon="-2.38078">
        <ele>58</ele>
        <time>2019-09-15T10:04:16Z</time>
      </trkpt>
      <trkpt lat="47.28345" lon="-2.38074">
        <ele>58</ele>
        <time>2019-09-15T10:04:17Z</time>
      </trkpt>
      <trkpt lat="47.2834" lon="-2.38069">
        <ele>58</ele>
        <time>2019-09-15T10:04:18Z</time>
      </trkpt>
      <trkpt lat="47.28331" lon="-2.3806">
        <ele>58</ele>
        <time>2019-09-15T10:04:20Z</time>
      </trkpt>
      <trkpt lat="47.28326" lon="-2.38056">
        <ele>58</ele>
        <time>2019-09-15T10:04:21Z</time>
      </trkpt>
      <trkpt lat="47.28321" lon="-2.38051">
        <ele>58</ele>
        <time>2019-09-15T10:04:22Z</time>
      </trkpt>
      <trkpt lat="47.28316" lon="-2.38046">
        <ele>58</ele>
        <time>2019-09-15T10:04:23Z</time>
      </trkpt>
      <trkpt lat="47.28311" lon="-2.38042">
        <ele>59</ele>
        <time>2019-09-15T10:04:24Z</time>
      </trkpt>
      <trkpt lat="47.28306" lon="-2.38037">
        <ele>58</ele>
        <time>2019-09-15T10:04:25Z</time>
      </trkpt>
      <trkpt lat="47.28296" lon="-2.38029">
        <ele>59</ele>
        <time>2019-09-15T10:04:27Z</time>
      </trkpt>
      <trkpt lat="47.28291" lon="-2.38026">
        <ele>59</ele>
        <time>2019-09-15T10:04:28Z</time>
      </trkpt>
      <trkpt lat="47.28285" lon="-2.38022">
        <ele>59</ele>
        <time>2019-09-15T10:04:29Z</time>
      </trkpt>
      <trkpt lat="47.2828" lon="-2.3802">
        <ele>59</ele>
        <time>2019-09-15T10:04:30Z</time>
      </trkpt>
      <trkpt lat="47.28267" lon="-2.38013">
        <ele>60</ele>
        <time>2019-09-15T10:04:33Z</time>
      </trkpt>
      <trkpt lat="47.28261" lon="-2.38012">
        <ele>60</ele>
        <time>2019-09-15T10:04:34Z</time>
      </trkpt>
      <trkpt lat="47.28254" lon="-2.38013">
        <ele>60</ele>
        <time>2019-09-15T10:04:35Z</time>
      </trkpt>
      <trkpt lat="47.28247" lon="-2.38014">
        <ele>59</ele>
        <time>2019-09-15T10:04:36Z</time>
      </trkpt>
      <trkpt lat="47.28241" lon="-2.38016">
        <ele>59</ele>
        <time>2019-09-15T10:04:37Z</time>
      </trkpt>
      <trkpt lat="47.28236" lon="-2.38018">
        <ele>59</ele>
        <time>2019-09-15T10:04:38Z</time>
      </trkpt>
      <trkpt lat="47.2823" lon="-2.38019">
        <ele>60</ele>
        <time>2019-09-15T10:04:39Z</time>
      </trkpt>
      <trkpt lat="47.28224" lon="-2.38021">
        <ele>59</ele>
        <time>2019-09-15T10:04:40Z</time>
      </trkpt>
      <trkpt lat="47.28219" lon="-2.38022">
        <ele>59</ele>
        <time>2019-09-15T10:04:41Z</time>
      </trkpt>
      <trkpt lat="47.28214" lon="-2.38023">
        <ele>59</ele>
        <time>2019-09-15T10:04:42Z</time>
      </trkpt>
      <trkpt lat="47.28197" lon="-2.38023">
        <ele>59</ele>
        <time>2019-09-15T10:04:45Z</time>
      </trkpt>
      <trkpt lat="47.28191" lon="-2.38025">
        <ele>58</ele>
        <time>2019-09-15T10:04:46Z</time>
      </trkpt>
      <trkpt lat="47.28186" lon="-2.38029">
        <ele>58</ele>
        <time>2019-09-15T10:04:47Z</time>
      </trkpt>
      <trkpt lat="47.28175" lon="-2.38033">
        <ele>58</ele>
        <time>2019-09-15T10:04:49Z</time>
      </trkpt>
      <trkpt lat="47.2817" lon="-2.38034">
        <ele>58</ele>
        <time>2019-09-15T10:04:50Z</time>
      </trkpt>
      <trkpt lat="47.28164" lon="-2.38037">
        <ele>58</ele>
        <time>2019-09-15T10:04:51Z</time>
      </trkpt>
      <trkpt lat="47.28153" lon="-2.38043">
        <ele>59</ele>
        <time>2019-09-15T10:04:53Z</time>
      </trkpt>
      <trkpt lat="47.28147" lon="-2.38047">
        <ele>59</ele>
        <time>2019-09-15T10:04:54Z</time>
      </trkpt>
      <trkpt lat="47.28141" lon="-2.38049">
        <ele>58</ele>
        <time>2019-09-15T10:04:55Z</time>
      </trkpt>
      <trkpt lat="47.28135" lon="-2.38052">
        <ele>57</ele>
        <time>2019-09-15T10:04:56Z</time>
      </trkpt>
      <trkpt lat="47.28129" lon="-2.38055">
        <ele>57</ele>
        <time>2019-09-15T10:04:57Z</time>
      </trkpt>
      <trkpt lat="47.28123" lon="-2.38057">
        <ele>57</ele>
        <time>2019-09-15T10:04:58Z</time>
      </trkpt>
      <trkpt lat="47.28118" lon="-2.38061">
        <ele>57</ele>
        <time>2019-09-15T10:04:59Z</time>
      </trkpt>
      <trkpt lat="47.28112" lon="-2.38063">
        <ele>57</ele>
        <time>2019-09-15T10:05:00Z</time>
      </trkpt>
      <trkpt lat="47.28107" lon="-2.38064">
        <ele>57</ele>
        <time>2019-09-15T10:05:01Z</time>
      </trkpt>
      <trkpt lat="47.28102" lon="-2.38067">
        <ele>57</ele>
        <time>2019-09-15T10:05:02Z</time>
      </trkpt>
      <trkpt lat="47.28097" lon="-2.38069">
        <ele>57</ele>
        <time>2019-09-15T10:05:03Z</time>
      </trkpt>
      <trkpt lat="47.28092" lon="-2.38072">
        <ele>56</ele>
        <time>2019-09-15T10:05:04Z</time>
      </trkpt>
      <trkpt lat="47.28087" lon="-2.38074">
        <ele>56</ele>
        <time>2019-09-15T10:05:05Z</time>
      </trkpt>
      <trkpt lat="47.28082" lon="-2.38076">
        <ele>56</ele>
        <time>2019-09-15T10:05:06Z</time>
      </trkpt>
      <trkpt lat="47.28073" lon="-2.3808">
        <ele>56</ele>
        <time>2019-09-15T10:05:08Z</time>
      </trkpt>
      <trkpt lat="47.28068" lon="-2.38082">
        <ele>56</ele>
        <time>2019-09-15T10:05:09Z</time>
      </trkpt>
      <trkpt lat="47.28065" lon="-2.38084">
        <ele>56</ele>
        <time>2019-09-15T10:05:10Z</time>
      </trkpt>
      <trkpt lat="47.28057" lon="-2.38087">
        <ele>56</ele>
        <time>2019-09-15T10:05:12Z</time>
      </trkpt>
      <trkpt lat="47.28053" lon="-2.38089">
        <ele>56</ele>
        <time>2019-09-15T10:05:13Z</time>
      </trkpt>
      <trkpt lat="47.28048" lon="-2.3809">
        <ele>57</ele>
        <time>2019-09-15T10:05:15Z</time>
      </trkpt>
      <trkpt lat="47.2804" lon="-2.38093">
        <ele>57</ele>
        <time>2019-09-15T10:05:20Z</time>
      </trkpt>
      <trkpt lat="47.2804" lon="-2.38093">
        <ele>7</ele>
        <time>2019-09-15T10:05:25Z</time>
      </trkpt>
      <trkpt lat="47.2804" lon="-2.38093">
        <ele>7</ele>
        <time>2019-09-15T10:05:42Z</time>
      </trkpt>
      <trkpt lat="47.28025" lon="-2.38094">
        <ele>58</ele>
        <time>2019-09-15T10:05:42Z</time>
      </trkpt>
      <trkpt lat="47.28013" lon="-2.3807">
        <ele>64</ele>
        <time>2019-09-15T10:05:48Z</time>
      </trkpt>
      <trkpt lat="47.2801" lon="-2.38062">
        <ele>59</ele>
        <time>2019-09-15T10:05:49Z</time>
      </trkpt>
      <trkpt lat="47.2801" lon="-2.38049">
        <ele>58</ele>
        <time>2019-09-15T10:05:51Z</time>
      </trkpt>
      <trkpt lat="47.28009" lon="-2.38042">
        <ele>59</ele>
        <time>2019-09-15T10:05:52Z</time>
      </trkpt>
      <trkpt lat="47.28008" lon="-2.38035">
        <ele>59</ele>
        <time>2019-09-15T10:05:53Z</time>
      </trkpt>
      <trkpt lat="47.28007" lon="-2.38028">
        <ele>60</ele>
        <time>2019-09-15T10:05:54Z</time>
      </trkpt>
      <trkpt lat="47.28005" lon="-2.38021">
        <ele>60</ele>
        <time>2019-09-15T10:05:55Z</time>
      </trkpt>
      <trkpt lat="47.28004" lon="-2.38014">
        <ele>60</ele>
        <time>2019-09-15T10:05:56Z</time>
      </trkpt>
      <trkpt lat="47.28003" lon="-2.38007">
        <ele>59</ele>
        <time>2019-09-15T10:05:57Z</time>
      </trkpt>
      <trkpt lat="47.28001" lon="-2.38">
        <ele>59</ele>
        <time>2019-09-15T10:05:58Z</time>
      </trkpt>
      <trkpt lat="47.28" lon="-2.37993">
        <ele>59</ele>
        <time>2019-09-15T10:05:59Z</time>
      </trkpt>
      <trkpt lat="47.27998" lon="-2.37986">
        <ele>60</ele>
        <time>2019-09-15T10:06:00Z</time>
      </trkpt>
      <trkpt lat="47.27997" lon="-2.3798">
        <ele>59</ele>
        <time>2019-09-15T10:06:01Z</time>
      </trkpt>
      <trkpt lat="47.27995" lon="-2.37972">
        <ele>59</ele>
        <time>2019-09-15T10:06:02Z</time>
      </trkpt>
      <trkpt lat="47.27994" lon="-2.37966">
        <ele>59</ele>
        <time>2019-09-15T10:06:03Z</time>
      </trkpt>
      <trkpt lat="47.27992" lon="-2.37959">
        <ele>59</ele>
        <time>2019-09-15T10:06:04Z</time>
      </trkpt>
      <trkpt lat="47.27991" lon="-2.37952">
        <ele>60</ele>
        <time>2019-09-15T10:06:05Z</time>
      </trkpt>
      <trkpt lat="47.27989" lon="-2.37945">
        <ele>60</ele>
        <time>2019-09-15T10:06:06Z</time>
      </trkpt>
      <trkpt lat="47.27988" lon="-2.37937">
        <ele>60</ele>
        <time>2019-09-15T10:06:07Z</time>
      </trkpt>
      <trkpt lat="47.27987" lon="-2.3793">
        <ele>61</ele>
        <time>2019-09-15T10:06:08Z</time>
      </trkpt>
      <trkpt lat="47.27986" lon="-2.37923">
        <ele>61</ele>
        <time>2019-09-15T10:06:09Z</time>
      </trkpt>
      <trkpt lat="47.27984" lon="-2.37915">
        <ele>61</ele>
        <time>2019-09-15T10:06:10Z</time>
      </trkpt>
      <trkpt lat="47.27983" lon="-2.37907">
        <ele>61</ele>
        <time>2019-09-15T10:06:11Z</time>
      </trkpt>
      <trkpt lat="47.27982" lon="-2.379">
        <ele>61</ele>
        <time>2019-09-15T10:06:12Z</time>
      </trkpt>
      <trkpt lat="47.27981" lon="-2.37892">
        <ele>61</ele>
        <time>2019-09-15T10:06:13Z</time>
      </trkpt>
      <trkpt lat="47.2798" lon="-2.37885">
        <ele>61</ele>
        <time>2019-09-15T10:06:14Z</time>
      </trkpt>
      <trkpt lat="47.27978" lon="-2.37878">
        <ele>61</ele>
        <time>2019-09-15T10:06:15Z</time>
      </trkpt>
      <trkpt lat="47.27977" lon="-2.37871">
        <ele>60</ele>
        <time>2019-09-15T10:06:16Z</time>
      </trkpt>
      <trkpt lat="47.27974" lon="-2.3785">
        <ele>60</ele>
        <time>2019-09-15T10:06:19Z</time>
      </trkpt>
      <trkpt lat="47.27974" lon="-2.37843">
        <ele>60</ele>
        <time>2019-09-15T10:06:20Z</time>
      </trkpt>
      <trkpt lat="47.27973" lon="-2.37836">
        <ele>59</ele>
        <time>2019-09-15T10:06:21Z</time>
      </trkpt>
      <trkpt lat="47.27969" lon="-2.37823">
        <ele>58</ele>
        <time>2019-09-15T10:06:23Z</time>
      </trkpt>
      <trkpt lat="47.27966" lon="-2.37802">
        <ele>57</ele>
        <time>2019-09-15T10:06:26Z</time>
      </trkpt>
      <trkpt lat="47.27965" lon="-2.37795">
        <ele>57</ele>
        <time>2019-09-15T10:06:27Z</time>
      </trkpt>
      <trkpt lat="47.27965" lon="-2.37788">
        <ele>57</ele>
        <time>2019-09-15T10:06:28Z</time>
      </trkpt>
      <trkpt lat="47.27963" lon="-2.37781">
        <ele>57</ele>
        <time>2019-09-15T10:06:29Z</time>
      </trkpt>
      <trkpt lat="47.27961" lon="-2.37774">
        <ele>57</ele>
        <time>2019-09-15T10:06:30Z</time>
      </trkpt>
      <trkpt lat="47.27959" lon="-2.37767">
        <ele>57</ele>
        <time>2019-09-15T10:06:31Z</time>
      </trkpt>
      <trkpt lat="47.27957" lon="-2.37759">
        <ele>57</ele>
        <time>2019-09-15T10:06:32Z</time>
      </trkpt>
      <trkpt lat="47.2795" lon="-2.37736">
        <ele>56</ele>
        <time>2019-09-15T10:06:35Z</time>
      </trkpt>
      <trkpt lat="47.27949" lon="-2.37728">
        <ele>55</ele>
        <time>2019-09-15T10:06:36Z</time>
      </trkpt>
      <trkpt lat="47.27947" lon="-2.37719">
        <ele>55</ele>
        <time>2019-09-15T10:06:37Z</time>
      </trkpt>
      <trkpt lat="47.27945" lon="-2.3771">
        <ele>55</ele>
        <time>2019-09-15T10:06:38Z</time>
      </trkpt>
      <trkpt lat="47.27943" lon="-2.37702">
        <ele>55</ele>
        <time>2019-09-15T10:06:39Z</time>
      </trkpt>
      <trkpt lat="47.2794" lon="-2.37693">
        <ele>55</ele>
        <time>2019-09-15T10:06:40Z</time>
      </trkpt>
      <trkpt lat="47.27938" lon="-2.37684">
        <ele>55</ele>
        <time>2019-09-15T10:06:41Z</time>
      </trkpt>
      <trkpt lat="47.27937" lon="-2.37675">
        <ele>55</ele>
        <time>2019-09-15T10:06:42Z</time>
      </trkpt>
      <trkpt lat="47.27934" lon="-2.37665">
        <ele>55</ele>
        <time>2019-09-15T10:06:43Z</time>
      </trkpt>
      <trkpt lat="47.27932" lon="-2.37657">
        <ele>54</ele>
        <time>2019-09-15T10:06:44Z</time>
      </trkpt>
      <trkpt lat="47.2793" lon="-2.37647">
        <ele>54</ele>
        <time>2019-09-15T10:06:45Z</time>
      </trkpt>
      <trkpt lat="47.27928" lon="-2.37639">
        <ele>54</ele>
        <time>2019-09-15T10:06:46Z</time>
      </trkpt>
      <trkpt lat="47.27927" lon="-2.3763">
        <ele>55</ele>
        <time>2019-09-15T10:06:47Z</time>
      </trkpt>
      <trkpt lat="47.27924" lon="-2.37621">
        <ele>55</ele>
        <time>2019-09-15T10:06:48Z</time>
      </trkpt>
      <trkpt lat="47.27922" lon="-2.37613">
        <ele>55</ele>
        <time>2019-09-15T10:06:49Z</time>
      </trkpt>
      <trkpt lat="47.2792" lon="-2.37604">
        <ele>55</ele>
        <time>2019-09-15T10:06:50Z</time>
      </trkpt>
      <trkpt lat="47.27918" lon="-2.37595">
        <ele>55</ele>
        <time>2019-09-15T10:06:51Z</time>
      </trkpt>
      <trkpt lat="47.27915" lon="-2.37586">
        <ele>55</ele>
        <time>2019-09-15T10:06:52Z</time>
      </trkpt>
      <trkpt lat="47.27913" lon="-2.37577">
        <ele>54</ele>
        <time>2019-09-15T10:06:53Z</time>
      </trkpt>
      <trkpt lat="47.27912" lon="-2.37568">
        <ele>54</ele>
        <time>2019-09-15T10:06:54Z</time>
      </trkpt>
      <trkpt lat="47.2791" lon="-2.3756">
        <ele>55</ele>
        <time>2019-09-15T10:06:55Z</time>
      </trkpt>
      <trkpt lat="47.27907" lon="-2.37542">
        <ele>55</ele>
        <time>2019-09-15T10:06:57Z</time>
      </trkpt>
      <trkpt lat="47.27904" lon="-2.37534">
        <ele>55</ele>
        <time>2019-09-15T10:06:58Z</time>
      </trkpt>
      <trkpt lat="47.27902" lon="-2.37525">
        <ele>55</ele>
        <time>2019-09-15T10:06:59Z</time>
      </trkpt>
      <trkpt lat="47.279" lon="-2.37516">
        <ele>55</ele>
        <time>2019-09-15T10:07:00Z</time>
      </trkpt>
      <trkpt lat="47.27898" lon="-2.37507">
        <ele>55</ele>
        <time>2019-09-15T10:07:01Z</time>
      </trkpt>
      <trkpt lat="47.27896" lon="-2.37498">
        <ele>54</ele>
        <time>2019-09-15T10:07:02Z</time>
      </trkpt>
      <trkpt lat="47.27894" lon="-2.37489">
        <ele>54</ele>
        <time>2019-09-15T10:07:03Z</time>
      </trkpt>
      <trkpt lat="47.27891" lon="-2.3748">
        <ele>54</ele>
        <time>2019-09-15T10:07:04Z</time>
      </trkpt>
      <trkpt lat="47.2789" lon="-2.37472">
        <ele>55</ele>
        <time>2019-09-15T10:07:05Z</time>
      </trkpt>
      <trkpt lat="47.27887" lon="-2.37463">
        <ele>55</ele>
        <time>2019-09-15T10:07:06Z</time>
      </trkpt>
      <trkpt lat="47.27883" lon="-2.37445">
        <ele>55</ele>
        <time>2019-09-15T10:07:08Z</time>
      </trkpt>
      <trkpt lat="47.27881" lon="-2.37437">
        <ele>55</ele>
        <time>2019-09-15T10:07:09Z</time>
      </trkpt>
      <trkpt lat="47.27879" lon="-2.37428">
        <ele>55</ele>
        <time>2019-09-15T10:07:10Z</time>
      </trkpt>
      <trkpt lat="47.27877" lon="-2.3742">
        <ele>56</ele>
        <time>2019-09-15T10:07:11Z</time>
      </trkpt>
      <trkpt lat="47.27875" lon="-2.37412">
        <ele>55</ele>
        <time>2019-09-15T10:07:12Z</time>
      </trkpt>
      <trkpt lat="47.27873" lon="-2.37403">
        <ele>55</ele>
        <time>2019-09-15T10:07:13Z</time>
      </trkpt>
      <trkpt lat="47.27871" lon="-2.37395">
        <ele>55</ele>
        <time>2019-09-15T10:07:14Z</time>
      </trkpt>
      <trkpt lat="47.27869" lon="-2.37387">
        <ele>55</ele>
        <time>2019-09-15T10:07:15Z</time>
      </trkpt>
      <trkpt lat="47.27866" lon="-2.37378">
        <ele>55</ele>
        <time>2019-09-15T10:07:16Z</time>
      </trkpt>
      <trkpt lat="47.27864" lon="-2.3737">
        <ele>55</ele>
        <time>2019-09-15T10:07:17Z</time>
      </trkpt>
      <trkpt lat="47.27862" lon="-2.37362">
        <ele>55</ele>
        <time>2019-09-15T10:07:18Z</time>
      </trkpt>
      <trkpt lat="47.2786" lon="-2.37353">
        <ele>55</ele>
        <time>2019-09-15T10:07:19Z</time>
      </trkpt>
      <trkpt lat="47.27857" lon="-2.37344">
        <ele>55</ele>
        <time>2019-09-15T10:07:20Z</time>
      </trkpt>
      <trkpt lat="47.27855" lon="-2.37336">
        <ele>55</ele>
        <time>2019-09-15T10:07:21Z</time>
      </trkpt>
      <trkpt lat="47.27853" lon="-2.37327">
        <ele>56</ele>
        <time>2019-09-15T10:07:22Z</time>
      </trkpt>
      <trkpt lat="47.27851" lon="-2.37319">
        <ele>56</ele>
        <time>2019-09-15T10:07:23Z</time>
      </trkpt>
      <trkpt lat="47.27849" lon="-2.37311">
        <ele>56</ele>
        <time>2019-09-15T10:07:24Z</time>
      </trkpt>
      <trkpt lat="47.27847" lon="-2.37302">
        <ele>56</ele>
        <time>2019-09-15T10:07:25Z</time>
      </trkpt>
      <trkpt lat="47.27844" lon="-2.37294">
        <ele>56</ele>
        <time>2019-09-15T10:07:26Z</time>
      </trkpt>
      <trkpt lat="47.27842" lon="-2.37285">
        <ele>56</ele>
        <time>2019-09-15T10:07:27Z</time>
      </trkpt>
      <trkpt lat="47.27839" lon="-2.37276">
        <ele>56</ele>
        <time>2019-09-15T10:07:28Z</time>
      </trkpt>
      <trkpt lat="47.27837" lon="-2.37268">
        <ele>55</ele>
        <time>2019-09-15T10:07:29Z</time>
      </trkpt>
      <trkpt lat="47.27834" lon="-2.3726">
        <ele>55</ele>
        <time>2019-09-15T10:07:30Z</time>
      </trkpt>
      <trkpt lat="47.27832" lon="-2.37252">
        <ele>54</ele>
        <time>2019-09-15T10:07:31Z</time>
      </trkpt>
      <trkpt lat="47.2783" lon="-2.37244">
        <ele>55</ele>
        <time>2019-09-15T10:07:32Z</time>
      </trkpt>
      <trkpt lat="47.27829" lon="-2.37237">
        <ele>55</ele>
        <time>2019-09-15T10:07:33Z</time>
      </trkpt>
      <trkpt lat="47.27827" lon="-2.37229">
        <ele>55</ele>
        <time>2019-09-15T10:07:34Z</time>
      </trkpt>
      <trkpt lat="47.27826" lon="-2.37221">
        <ele>55</ele>
        <time>2019-09-15T10:07:35Z</time>
      </trkpt>
      <trkpt lat="47.27824" lon="-2.37214">
        <ele>55</ele>
        <time>2019-09-15T10:07:36Z</time>
      </trkpt>
      <trkpt lat="47.27819" lon="-2.372">
        <ele>55</ele>
        <time>2019-09-15T10:07:38Z</time>
      </trkpt>
      <trkpt lat="47.27816" lon="-2.37194">
        <ele>55</ele>
        <time>2019-09-15T10:07:39Z</time>
      </trkpt>
      <trkpt lat="47.27815" lon="-2.37181">
        <ele>55</ele>
        <time>2019-09-15T10:07:41Z</time>
      </trkpt>
      <trkpt lat="47.27815" lon="-2.37177">
        <ele>55</ele>
        <time>2019-09-15T10:07:42Z</time>
      </trkpt>
      <trkpt lat="47.27812" lon="-2.37169">
        <ele>55</ele>
        <time>2019-09-15T10:07:45Z</time>
      </trkpt>
      <trkpt lat="47.27811" lon="-2.37165">
        <ele>55</ele>
        <time>2019-09-15T10:07:46Z</time>
      </trkpt>
      <trkpt lat="47.27809" lon="-2.37159">
        <ele>55</ele>
        <time>2019-09-15T10:07:47Z</time>
      </trkpt>
      <trkpt lat="47.27807" lon="-2.37153">
        <ele>55</ele>
        <time>2019-09-15T10:07:48Z</time>
      </trkpt>
      <trkpt lat="47.27805" lon="-2.37146">
        <ele>55</ele>
        <time>2019-09-15T10:07:49Z</time>
      </trkpt>
      <trkpt lat="47.27803" lon="-2.37138">
        <ele>55</ele>
        <time>2019-09-15T10:07:50Z</time>
      </trkpt>
      <trkpt lat="47.27801" lon="-2.37131">
        <ele>56</ele>
        <time>2019-09-15T10:07:51Z</time>
      </trkpt>
      <trkpt lat="47.27799" lon="-2.37124">
        <ele>56</ele>
        <time>2019-09-15T10:07:52Z</time>
      </trkpt>
      <trkpt lat="47.27797" lon="-2.37116">
        <ele>56</ele>
        <time>2019-09-15T10:07:53Z</time>
      </trkpt>
      <trkpt lat="47.27795" lon="-2.37109">
        <ele>56</ele>
        <time>2019-09-15T10:07:54Z</time>
      </trkpt>
      <trkpt lat="47.27793" lon="-2.37101">
        <ele>56</ele>
        <time>2019-09-15T10:07:55Z</time>
      </trkpt>
      <trkpt lat="47.27791" lon="-2.37093">
        <ele>56</ele>
        <time>2019-09-15T10:07:56Z</time>
      </trkpt>
      <trkpt lat="47.27789" lon="-2.37085">
        <ele>56</ele>
        <time>2019-09-15T10:07:57Z</time>
      </trkpt>
      <trkpt lat="47.27787" lon="-2.37078">
        <ele>56</ele>
        <time>2019-09-15T10:07:58Z</time>
      </trkpt>
      <trkpt lat="47.27784" lon="-2.3707">
        <ele>55</ele>
        <time>2019-09-15T10:07:59Z</time>
      </trkpt>
      <trkpt lat="47.27782" lon="-2.37062">
        <ele>55</ele>
        <time>2019-09-15T10:08:00Z</time>
      </trkpt>
      <trkpt lat="47.2778" lon="-2.37054">
        <ele>55</ele>
        <time>2019-09-15T10:08:01Z</time>
      </trkpt>
      <trkpt lat="47.27779" lon="-2.37046">
        <ele>56</ele>
        <time>2019-09-15T10:08:02Z</time>
      </trkpt>
      <trkpt lat="47.27777" lon="-2.37037">
        <ele>55</ele>
        <time>2019-09-15T10:08:03Z</time>
      </trkpt>
      <trkpt lat="47.27775" lon="-2.37029">
        <ele>55</ele>
        <time>2019-09-15T10:08:04Z</time>
      </trkpt>
      <trkpt lat="47.27772" lon="-2.37021">
        <ele>55</ele>
        <time>2019-09-15T10:08:05Z</time>
      </trkpt>
      <trkpt lat="47.2777" lon="-2.37012">
        <ele>55</ele>
        <time>2019-09-15T10:08:06Z</time>
      </trkpt>
      <trkpt lat="47.27768" lon="-2.37003">
        <ele>55</ele>
        <time>2019-09-15T10:08:07Z</time>
      </trkpt>
      <trkpt lat="47.27765" lon="-2.36995">
        <ele>55</ele>
        <time>2019-09-15T10:08:08Z</time>
      </trkpt>
      <trkpt lat="47.27762" lon="-2.36986">
        <ele>56</ele>
        <time>2019-09-15T10:08:09Z</time>
      </trkpt>
      <trkpt lat="47.27759" lon="-2.36977">
        <ele>56</ele>
        <time>2019-09-15T10:08:10Z</time>
      </trkpt>
      <trkpt lat="47.27757" lon="-2.36968">
        <ele>56</ele>
        <time>2019-09-15T10:08:11Z</time>
      </trkpt>
      <trkpt lat="47.27755" lon="-2.36959">
        <ele>56</ele>
        <time>2019-09-15T10:08:12Z</time>
      </trkpt>
      <trkpt lat="47.27752" lon="-2.3695">
        <ele>56</ele>
        <time>2019-09-15T10:08:13Z</time>
      </trkpt>
      <trkpt lat="47.27744" lon="-2.36923">
        <ele>56</ele>
        <time>2019-09-15T10:08:16Z</time>
      </trkpt>
      <trkpt lat="47.27741" lon="-2.36914">
        <ele>56</ele>
        <time>2019-09-15T10:08:17Z</time>
      </trkpt>
      <trkpt lat="47.27739" lon="-2.36906">
        <ele>56</ele>
        <time>2019-09-15T10:08:18Z</time>
      </trkpt>
      <trkpt lat="47.27736" lon="-2.36898">
        <ele>56</ele>
        <time>2019-09-15T10:08:19Z</time>
      </trkpt>
      <trkpt lat="47.27733" lon="-2.3689">
        <ele>56</ele>
        <time>2019-09-15T10:08:20Z</time>
      </trkpt>
      <trkpt lat="47.27731" lon="-2.36881">
        <ele>56</ele>
        <time>2019-09-15T10:08:21Z</time>
      </trkpt>
      <trkpt lat="47.27729" lon="-2.36872">
        <ele>56</ele>
        <time>2019-09-15T10:08:22Z</time>
      </trkpt>
      <trkpt lat="47.27724" lon="-2.36856">
        <ele>56</ele>
        <time>2019-09-15T10:08:24Z</time>
      </trkpt>
      <trkpt lat="47.27722" lon="-2.36847">
        <ele>56</ele>
        <time>2019-09-15T10:08:25Z</time>
      </trkpt>
      <trkpt lat="47.27719" lon="-2.36839">
        <ele>56</ele>
        <time>2019-09-15T10:08:26Z</time>
      </trkpt>
      <trkpt lat="47.27717" lon="-2.3683">
        <ele>56</ele>
        <time>2019-09-15T10:08:27Z</time>
      </trkpt>
      <trkpt lat="47.27715" lon="-2.36823">
        <ele>56</ele>
        <time>2019-09-15T10:08:28Z</time>
      </trkpt>
      <trkpt lat="47.27712" lon="-2.36815">
        <ele>55</ele>
        <time>2019-09-15T10:08:29Z</time>
      </trkpt>
      <trkpt lat="47.2771" lon="-2.36807">
        <ele>55</ele>
        <time>2019-09-15T10:08:30Z</time>
      </trkpt>
      <trkpt lat="47.27708" lon="-2.36799">
        <ele>55</ele>
        <time>2019-09-15T10:08:31Z</time>
      </trkpt>
      <trkpt lat="47.27705" lon="-2.36791">
        <ele>55</ele>
        <time>2019-09-15T10:08:32Z</time>
      </trkpt>
      <trkpt lat="47.27703" lon="-2.36784">
        <ele>55</ele>
        <time>2019-09-15T10:08:33Z</time>
      </trkpt>
      <trkpt lat="47.277" lon="-2.36776">
        <ele>55</ele>
        <time>2019-09-15T10:08:34Z</time>
      </trkpt>
      <trkpt lat="47.27697" lon="-2.36768">
        <ele>54</ele>
        <time>2019-09-15T10:08:35Z</time>
      </trkpt>
      <trkpt lat="47.2769" lon="-2.36745">
        <ele>55</ele>
        <time>2019-09-15T10:08:38Z</time>
      </trkpt>
      <trkpt lat="47.27687" lon="-2.36736">
        <ele>55</ele>
        <time>2019-09-15T10:08:39Z</time>
      </trkpt>
      <trkpt lat="47.27684" lon="-2.36729">
        <ele>55</ele>
        <time>2019-09-15T10:08:40Z</time>
      </trkpt>
      <trkpt lat="47.27681" lon="-2.36721">
        <ele>55</ele>
        <time>2019-09-15T10:08:41Z</time>
      </trkpt>
      <trkpt lat="47.27679" lon="-2.36713">
        <ele>55</ele>
        <time>2019-09-15T10:08:42Z</time>
      </trkpt>
      <trkpt lat="47.27676" lon="-2.36705">
        <ele>55</ele>
        <time>2019-09-15T10:08:43Z</time>
      </trkpt>
      <trkpt lat="47.2767" lon="-2.3669">
        <ele>55</ele>
        <time>2019-09-15T10:08:45Z</time>
      </trkpt>
      <trkpt lat="47.27668" lon="-2.36682">
        <ele>56</ele>
        <time>2019-09-15T10:08:46Z</time>
      </trkpt>
      <trkpt lat="47.27665" lon="-2.36674">
        <ele>56</ele>
        <time>2019-09-15T10:08:47Z</time>
      </trkpt>
      <trkpt lat="47.27662" lon="-2.36666">
        <ele>55</ele>
        <time>2019-09-15T10:08:48Z</time>
      </trkpt>
      <trkpt lat="47.27659" lon="-2.36658">
        <ele>55</ele>
        <time>2019-09-15T10:08:49Z</time>
      </trkpt>
      <trkpt lat="47.27653" lon="-2.36642">
        <ele>55</ele>
        <time>2019-09-15T10:08:51Z</time>
      </trkpt>
      <trkpt lat="47.2765" lon="-2.36634">
        <ele>55</ele>
        <time>2019-09-15T10:08:52Z</time>
      </trkpt>
      <trkpt lat="47.27648" lon="-2.36625">
        <ele>56</ele>
        <time>2019-09-15T10:08:53Z</time>
      </trkpt>
      <trkpt lat="47.27645" lon="-2.36617">
        <ele>56</ele>
        <time>2019-09-15T10:08:54Z</time>
      </trkpt>
      <trkpt lat="47.27636" lon="-2.36592">
        <ele>56</ele>
        <time>2019-09-15T10:08:57Z</time>
      </trkpt>
      <trkpt lat="47.27633" lon="-2.36584">
        <ele>56</ele>
        <time>2019-09-15T10:08:58Z</time>
      </trkpt>
      <trkpt lat="47.27624" lon="-2.36558">
        <ele>56</ele>
        <time>2019-09-15T10:09:01Z</time>
      </trkpt>
      <trkpt lat="47.27618" lon="-2.3654">
        <ele>56</ele>
        <time>2019-09-15T10:09:03Z</time>
      </trkpt>
      <trkpt lat="47.27615" lon="-2.36532">
        <ele>56</ele>
        <time>2019-09-15T10:09:04Z</time>
      </trkpt>
      <trkpt lat="47.27612" lon="-2.36522">
        <ele>56</ele>
        <time>2019-09-15T10:09:05Z</time>
      </trkpt>
      <trkpt lat="47.27609" lon="-2.36514">
        <ele>56</ele>
        <time>2019-09-15T10:09:06Z</time>
      </trkpt>
      <trkpt lat="47.27606" lon="-2.36505">
        <ele>56</ele>
        <time>2019-09-15T10:09:07Z</time>
      </trkpt>
      <trkpt lat="47.27602" lon="-2.36497">
        <ele>56</ele>
        <time>2019-09-15T10:09:08Z</time>
      </trkpt>
      <trkpt lat="47.27598" lon="-2.36489">
        <ele>56</ele>
        <time>2019-09-15T10:09:09Z</time>
      </trkpt>
      <trkpt lat="47.27595" lon="-2.3648">
        <ele>56</ele>
        <time>2019-09-15T10:09:10Z</time>
      </trkpt>
      <trkpt lat="47.27591" lon="-2.36471">
        <ele>56</ele>
        <time>2019-09-15T10:09:11Z</time>
      </trkpt>
      <trkpt lat="47.27589" lon="-2.36463">
        <ele>56</ele>
        <time>2019-09-15T10:09:12Z</time>
      </trkpt>
      <trkpt lat="47.27586" lon="-2.36454">
        <ele>56</ele>
        <time>2019-09-15T10:09:13Z</time>
      </trkpt>
      <trkpt lat="47.27583" lon="-2.36446">
        <ele>56</ele>
        <time>2019-09-15T10:09:14Z</time>
      </trkpt>
      <trkpt lat="47.27579" lon="-2.36437">
        <ele>57</ele>
        <time>2019-09-15T10:09:15Z</time>
      </trkpt>
      <trkpt lat="47.27576" lon="-2.36429">
        <ele>57</ele>
        <time>2019-09-15T10:09:16Z</time>
      </trkpt>
      <trkpt lat="47.27572" lon="-2.3642">
        <ele>57</ele>
        <time>2019-09-15T10:09:17Z</time>
      </trkpt>
      <trkpt lat="47.27569" lon="-2.36411">
        <ele>57</ele>
        <time>2019-09-15T10:09:18Z</time>
      </trkpt>
      <trkpt lat="47.27566" lon="-2.36402">
        <ele>57</ele>
        <time>2019-09-15T10:09:19Z</time>
      </trkpt>
      <trkpt lat="47.27563" lon="-2.36393">
        <ele>56</ele>
        <time>2019-09-15T10:09:20Z</time>
      </trkpt>
      <trkpt lat="47.27561" lon="-2.36384">
        <ele>57</ele>
        <time>2019-09-15T10:09:21Z</time>
      </trkpt>
      <trkpt lat="47.27557" lon="-2.36376">
        <ele>56</ele>
        <time>2019-09-15T10:09:22Z</time>
      </trkpt>
      <trkpt lat="47.27553" lon="-2.36367">
        <ele>56</ele>
        <time>2019-09-15T10:09:23Z</time>
      </trkpt>
      <trkpt lat="47.2755" lon="-2.36358">
        <ele>56</ele>
        <time>2019-09-15T10:09:24Z</time>
      </trkpt>
      <trkpt lat="47.27547" lon="-2.3635">
        <ele>56</ele>
        <time>2019-09-15T10:09:25Z</time>
      </trkpt>
      <trkpt lat="47.27544" lon="-2.36341">
        <ele>56</ele>
        <time>2019-09-15T10:09:26Z</time>
      </trkpt>
      <trkpt lat="47.27541" lon="-2.36332">
        <ele>56</ele>
        <time>2019-09-15T10:09:27Z</time>
      </trkpt>
      <trkpt lat="47.27537" lon="-2.36324">
        <ele>56</ele>
        <time>2019-09-15T10:09:28Z</time>
      </trkpt>
      <trkpt lat="47.27534" lon="-2.36315">
        <ele>56</ele>
        <time>2019-09-15T10:09:29Z</time>
      </trkpt>
      <trkpt lat="47.27531" lon="-2.36306">
        <ele>56</ele>
        <time>2019-09-15T10:09:30Z</time>
      </trkpt>
      <trkpt lat="47.27528" lon="-2.36298">
        <ele>56</ele>
        <time>2019-09-15T10:09:31Z</time>
      </trkpt>
      <trkpt lat="47.27525" lon="-2.36289">
        <ele>55</ele>
        <time>2019-09-15T10:09:32Z</time>
      </trkpt>
      <trkpt lat="47.27521" lon="-2.36281">
        <ele>55</ele>
        <time>2019-09-15T10:09:33Z</time>
      </trkpt>
      <trkpt lat="47.27518" lon="-2.36272">
        <ele>56</ele>
        <time>2019-09-15T10:09:34Z</time>
      </trkpt>
      <trkpt lat="47.27514" lon="-2.36264">
        <ele>55</ele>
        <time>2019-09-15T10:09:35Z</time>
      </trkpt>
      <trkpt lat="47.27511" lon="-2.36255">
        <ele>55</ele>
        <time>2019-09-15T10:09:36Z</time>
      </trkpt>
      <trkpt lat="47.27508" lon="-2.36247">
        <ele>55</ele>
        <time>2019-09-15T10:09:37Z</time>
      </trkpt>
      <trkpt lat="47.27505" lon="-2.36238">
        <ele>56</ele>
        <time>2019-09-15T10:09:38Z</time>
      </trkpt>
      <trkpt lat="47.27502" lon="-2.3623">
        <ele>56</ele>
        <time>2019-09-15T10:09:39Z</time>
      </trkpt>
      <trkpt lat="47.27499" lon="-2.36221">
        <ele>55</ele>
        <time>2019-09-15T10:09:40Z</time>
      </trkpt>
      <trkpt lat="47.27496" lon="-2.36213">
        <ele>56</ele>
        <time>2019-09-15T10:09:41Z</time>
      </trkpt>
      <trkpt lat="47.27493" lon="-2.36205">
        <ele>56</ele>
        <time>2019-09-15T10:09:42Z</time>
      </trkpt>
      <trkpt lat="47.27489" lon="-2.36196">
        <ele>56</ele>
        <time>2019-09-15T10:09:43Z</time>
      </trkpt>
      <trkpt lat="47.27486" lon="-2.36188">
        <ele>56</ele>
        <time>2019-09-15T10:09:44Z</time>
      </trkpt>
      <trkpt lat="47.27483" lon="-2.36179">
        <ele>57</ele>
        <time>2019-09-15T10:09:45Z</time>
      </trkpt>
      <trkpt lat="47.2748" lon="-2.36171">
        <ele>57</ele>
        <time>2019-09-15T10:09:46Z</time>
      </trkpt>
      <trkpt lat="47.2747" lon="-2.36148">
        <ele>56</ele>
        <time>2019-09-15T10:09:49Z</time>
      </trkpt>
      <trkpt lat="47.27468" lon="-2.3614">
        <ele>57</ele>
        <time>2019-09-15T10:09:50Z</time>
      </trkpt>
      <trkpt lat="47.27465" lon="-2.36132">
        <ele>56</ele>
        <time>2019-09-15T10:09:51Z</time>
      </trkpt>
      <trkpt lat="47.27463" lon="-2.36125">
        <ele>56</ele>
        <time>2019-09-15T10:09:52Z</time>
      </trkpt>
      <trkpt lat="47.27458" lon="-2.36111">
        <ele>57</ele>
        <time>2019-09-15T10:09:54Z</time>
      </trkpt>
      <trkpt lat="47.27451" lon="-2.36097">
        <ele>57</ele>
        <time>2019-09-15T10:09:56Z</time>
      </trkpt>
      <trkpt lat="47.27448" lon="-2.3609">
        <ele>56</ele>
        <time>2019-09-15T10:09:57Z</time>
      </trkpt>
      <trkpt lat="47.27445" lon="-2.36081">
        <ele>57</ele>
        <time>2019-09-15T10:09:58Z</time>
      </trkpt>
      <trkpt lat="47.27442" lon="-2.36072">
        <ele>56</ele>
        <time>2019-09-15T10:09:59Z</time>
      </trkpt>
      <trkpt lat="47.27439" lon="-2.36063">
        <ele>56</ele>
        <time>2019-09-15T10:10:00Z</time>
      </trkpt>
      <trkpt lat="47.27436" lon="-2.36055">
        <ele>56</ele>
        <time>2019-09-15T10:10:01Z</time>
      </trkpt>
      <trkpt lat="47.27421" lon="-2.36021">
        <ele>56</ele>
        <time>2019-09-15T10:10:05Z</time>
      </trkpt>
      <trkpt lat="47.27417" lon="-2.36012">
        <ele>56</ele>
        <time>2019-09-15T10:10:06Z</time>
      </trkpt>
      <trkpt lat="47.27414" lon="-2.36003">
        <ele>56</ele>
        <time>2019-09-15T10:10:07Z</time>
      </trkpt>
      <trkpt lat="47.27409" lon="-2.35994">
        <ele>56</ele>
        <time>2019-09-15T10:10:08Z</time>
      </trkpt>
      <trkpt lat="47.27401" lon="-2.35976">
        <ele>56</ele>
        <time>2019-09-15T10:10:10Z</time>
      </trkpt>
      <trkpt lat="47.27397" lon="-2.35966">
        <ele>56</ele>
        <time>2019-09-15T10:10:11Z</time>
      </trkpt>
      <trkpt lat="47.27393" lon="-2.35956">
        <ele>56</ele>
        <time>2019-09-15T10:10:12Z</time>
      </trkpt>
      <trkpt lat="47.2739" lon="-2.35947">
        <ele>56</ele>
        <time>2019-09-15T10:10:13Z</time>
      </trkpt>
      <trkpt lat="47.27386" lon="-2.35938">
        <ele>56</ele>
        <time>2019-09-15T10:10:14Z</time>
      </trkpt>
      <trkpt lat="47.27383" lon="-2.35929">
        <ele>56</ele>
        <time>2019-09-15T10:10:15Z</time>
      </trkpt>
      <trkpt lat="47.27379" lon="-2.3592">
        <ele>56</ele>
        <time>2019-09-15T10:10:16Z</time>
      </trkpt>
      <trkpt lat="47.27376" lon="-2.35912">
        <ele>56</ele>
        <time>2019-09-15T10:10:17Z</time>
      </trkpt>
      <trkpt lat="47.27372" lon="-2.35904">
        <ele>56</ele>
        <time>2019-09-15T10:10:18Z</time>
      </trkpt>
      <trkpt lat="47.27369" lon="-2.35895">
        <ele>56</ele>
        <time>2019-09-15T10:10:19Z</time>
      </trkpt>
      <trkpt lat="47.27366" lon="-2.35887">
        <ele>56</ele>
        <time>2019-09-15T10:10:20Z</time>
      </trkpt>
      <trkpt lat="47.27363" lon="-2.3588">
        <ele>56</ele>
        <time>2019-09-15T10:10:21Z</time>
      </trkpt>
      <trkpt lat="47.27357" lon="-2.35864">
        <ele>56</ele>
        <time>2019-09-15T10:10:23Z</time>
      </trkpt>
      <trkpt lat="47.27354" lon="-2.35856">
        <ele>56</ele>
        <time>2019-09-15T10:10:24Z</time>
      </trkpt>
      <trkpt lat="47.2735" lon="-2.35847">
        <ele>55</ele>
        <time>2019-09-15T10:10:25Z</time>
      </trkpt>
      <trkpt lat="47.27347" lon="-2.3584">
        <ele>56</ele>
        <time>2019-09-15T10:10:26Z</time>
      </trkpt>
      <trkpt lat="47.27343" lon="-2.35831">
        <ele>55</ele>
        <time>2019-09-15T10:10:27Z</time>
      </trkpt>
      <trkpt lat="47.2734" lon="-2.35823">
        <ele>55</ele>
        <time>2019-09-15T10:10:28Z</time>
      </trkpt>
      <trkpt lat="47.27337" lon="-2.35814">
        <ele>55</ele>
        <time>2019-09-15T10:10:29Z</time>
      </trkpt>
      <trkpt lat="47.27331" lon="-2.35799">
        <ele>54</ele>
        <time>2019-09-15T10:10:31Z</time>
      </trkpt>
      <trkpt lat="47.27328" lon="-2.35792">
        <ele>54</ele>
        <time>2019-09-15T10:10:32Z</time>
      </trkpt>
      <trkpt lat="47.27326" lon="-2.35784">
        <ele>54</ele>
        <time>2019-09-15T10:10:33Z</time>
      </trkpt>
      <trkpt lat="47.27322" lon="-2.35768">
        <ele>54</ele>
        <time>2019-09-15T10:10:35Z</time>
      </trkpt>
      <trkpt lat="47.27319" lon="-2.35761">
        <ele>54</ele>
        <time>2019-09-15T10:10:36Z</time>
      </trkpt>
      <trkpt lat="47.27315" lon="-2.35754">
        <ele>54</ele>
        <time>2019-09-15T10:10:37Z</time>
      </trkpt>
      <trkpt lat="47.27312" lon="-2.35746">
        <ele>54</ele>
        <time>2019-09-15T10:10:38Z</time>
      </trkpt>
      <trkpt lat="47.27308" lon="-2.35738">
        <ele>53</ele>
        <time>2019-09-15T10:10:39Z</time>
      </trkpt>
      <trkpt lat="47.27304" lon="-2.3573">
        <ele>53</ele>
        <time>2019-09-15T10:10:40Z</time>
      </trkpt>
      <trkpt lat="47.27302" lon="-2.3572">
        <ele>54</ele>
        <time>2019-09-15T10:10:41Z</time>
      </trkpt>
      <trkpt lat="47.27299" lon="-2.35711">
        <ele>54</ele>
        <time>2019-09-15T10:10:42Z</time>
      </trkpt>
      <trkpt lat="47.27291" lon="-2.35695">
        <ele>54</ele>
        <time>2019-09-15T10:10:44Z</time>
      </trkpt>
      <trkpt lat="47.27286" lon="-2.35687">
        <ele>54</ele>
        <time>2019-09-15T10:10:45Z</time>
      </trkpt>
      <trkpt lat="47.27282" lon="-2.3568">
        <ele>54</ele>
        <time>2019-09-15T10:10:46Z</time>
      </trkpt>
      <trkpt lat="47.27279" lon="-2.35671">
        <ele>55</ele>
        <time>2019-09-15T10:10:47Z</time>
      </trkpt>
      <trkpt lat="47.27275" lon="-2.35664">
        <ele>55</ele>
        <time>2019-09-15T10:10:48Z</time>
      </trkpt>
      <trkpt lat="47.27272" lon="-2.35657">
        <ele>55</ele>
        <time>2019-09-15T10:10:49Z</time>
      </trkpt>
      <trkpt lat="47.27269" lon="-2.35649">
        <ele>55</ele>
        <time>2019-09-15T10:10:50Z</time>
      </trkpt>
      <trkpt lat="47.27265" lon="-2.35641">
        <ele>55</ele>
        <time>2019-09-15T10:10:51Z</time>
      </trkpt>
      <trkpt lat="47.27261" lon="-2.35634">
        <ele>55</ele>
        <time>2019-09-15T10:10:52Z</time>
      </trkpt>
      <trkpt lat="47.27257" lon="-2.35626">
        <ele>55</ele>
        <time>2019-09-15T10:10:53Z</time>
      </trkpt>
      <trkpt lat="47.27254" lon="-2.35619">
        <ele>54</ele>
        <time>2019-09-15T10:10:54Z</time>
      </trkpt>
      <trkpt lat="47.2725" lon="-2.35611">
        <ele>55</ele>
        <time>2019-09-15T10:10:55Z</time>
      </trkpt>
      <trkpt lat="47.27247" lon="-2.35603">
        <ele>54</ele>
        <time>2019-09-15T10:10:56Z</time>
      </trkpt>
      <trkpt lat="47.27243" lon="-2.35595">
        <ele>54</ele>
        <time>2019-09-15T10:10:57Z</time>
      </trkpt>
      <trkpt lat="47.2724" lon="-2.35587">
        <ele>54</ele>
        <time>2019-09-15T10:10:58Z</time>
      </trkpt>
      <trkpt lat="47.27236" lon="-2.35579">
        <ele>54</ele>
        <time>2019-09-15T10:10:59Z</time>
      </trkpt>
      <trkpt lat="47.27233" lon="-2.35572">
        <ele>54</ele>
        <time>2019-09-15T10:11:00Z</time>
      </trkpt>
      <trkpt lat="47.27229" lon="-2.35564">
        <ele>54</ele>
        <time>2019-09-15T10:11:01Z</time>
      </trkpt>
      <trkpt lat="47.27226" lon="-2.35556">
        <ele>54</ele>
        <time>2019-09-15T10:11:02Z</time>
      </trkpt>
      <trkpt lat="47.27219" lon="-2.3554">
        <ele>54</ele>
        <time>2019-09-15T10:11:04Z</time>
      </trkpt>
      <trkpt lat="47.27215" lon="-2.35533">
        <ele>54</ele>
        <time>2019-09-15T10:11:05Z</time>
      </trkpt>
      <trkpt lat="47.27212" lon="-2.35526">
        <ele>54</ele>
        <time>2019-09-15T10:11:06Z</time>
      </trkpt>
      <trkpt lat="47.27208" lon="-2.35518">
        <ele>54</ele>
        <time>2019-09-15T10:11:07Z</time>
      </trkpt>
      <trkpt lat="47.27202" lon="-2.35503">
        <ele>55</ele>
        <time>2019-09-15T10:11:09Z</time>
      </trkpt>
      <trkpt lat="47.27198" lon="-2.35496">
        <ele>55</ele>
        <time>2019-09-15T10:11:10Z</time>
      </trkpt>
      <trkpt lat="47.27194" lon="-2.35488">
        <ele>55</ele>
        <time>2019-09-15T10:11:11Z</time>
      </trkpt>
      <trkpt lat="47.2719" lon="-2.35481">
        <ele>55</ele>
        <time>2019-09-15T10:11:12Z</time>
      </trkpt>
      <trkpt lat="47.27186" lon="-2.35473">
        <ele>55</ele>
        <time>2019-09-15T10:11:13Z</time>
      </trkpt>
      <trkpt lat="47.27183" lon="-2.35465">
        <ele>55</ele>
        <time>2019-09-15T10:11:14Z</time>
      </trkpt>
      <trkpt lat="47.27179" lon="-2.35458">
        <ele>55</ele>
        <time>2019-09-15T10:11:15Z</time>
      </trkpt>
      <trkpt lat="47.27175" lon="-2.35451">
        <ele>55</ele>
        <time>2019-09-15T10:11:16Z</time>
      </trkpt>
      <trkpt lat="47.27171" lon="-2.35444">
        <ele>56</ele>
        <time>2019-09-15T10:11:17Z</time>
      </trkpt>
      <trkpt lat="47.27167" lon="-2.35437">
        <ele>55</ele>
        <time>2019-09-15T10:11:18Z</time>
      </trkpt>
      <trkpt lat="47.27163" lon="-2.35429">
        <ele>55</ele>
        <time>2019-09-15T10:11:19Z</time>
      </trkpt>
      <trkpt lat="47.2716" lon="-2.35422">
        <ele>55</ele>
        <time>2019-09-15T10:11:20Z</time>
      </trkpt>
      <trkpt lat="47.27156" lon="-2.35414">
        <ele>55</ele>
        <time>2019-09-15T10:11:21Z</time>
      </trkpt>
      <trkpt lat="47.27152" lon="-2.35406">
        <ele>55</ele>
        <time>2019-09-15T10:11:22Z</time>
      </trkpt>
      <trkpt lat="47.27148" lon="-2.35399">
        <ele>55</ele>
        <time>2019-09-15T10:11:23Z</time>
      </trkpt>
      <trkpt lat="47.27143" lon="-2.35392">
        <ele>55</ele>
        <time>2019-09-15T10:11:24Z</time>
      </trkpt>
      <trkpt lat="47.27139" lon="-2.35383">
        <ele>55</ele>
        <time>2019-09-15T10:11:25Z</time>
      </trkpt>
      <trkpt lat="47.27135" lon="-2.35376">
        <ele>55</ele>
        <time>2019-09-15T10:11:26Z</time>
      </trkpt>
      <trkpt lat="47.2713" lon="-2.35368">
        <ele>55</ele>
        <time>2019-09-15T10:11:27Z</time>
      </trkpt>
      <trkpt lat="47.27126" lon="-2.3536">
        <ele>55</ele>
        <time>2019-09-15T10:11:28Z</time>
      </trkpt>
      <trkpt lat="47.27121" lon="-2.35352">
        <ele>55</ele>
        <time>2019-09-15T10:11:29Z</time>
      </trkpt>
      <trkpt lat="47.27117" lon="-2.35344">
        <ele>55</ele>
        <time>2019-09-15T10:11:30Z</time>
      </trkpt>
      <trkpt lat="47.27112" lon="-2.35336">
        <ele>55</ele>
        <time>2019-09-15T10:11:31Z</time>
      </trkpt>
      <trkpt lat="47.27103" lon="-2.35321">
        <ele>55</ele>
        <time>2019-09-15T10:11:33Z</time>
      </trkpt>
      <trkpt lat="47.27093" lon="-2.35305">
        <ele>55</ele>
        <time>2019-09-15T10:11:35Z</time>
      </trkpt>
      <trkpt lat="47.27088" lon="-2.35298">
        <ele>54</ele>
        <time>2019-09-15T10:11:36Z</time>
      </trkpt>
      <trkpt lat="47.27083" lon="-2.35291">
        <ele>54</ele>
        <time>2019-09-15T10:11:37Z</time>
      </trkpt>
      <trkpt lat="47.27078" lon="-2.35283">
        <ele>55</ele>
        <time>2019-09-15T10:11:38Z</time>
      </trkpt>
      <trkpt lat="47.27074" lon="-2.35276">
        <ele>55</ele>
        <time>2019-09-15T10:11:39Z</time>
      </trkpt>
      <trkpt lat="47.27069" lon="-2.35268">
        <ele>55</ele>
        <time>2019-09-15T10:11:40Z</time>
      </trkpt>
      <trkpt lat="47.27064" lon="-2.35261">
        <ele>55</ele>
        <time>2019-09-15T10:11:41Z</time>
      </trkpt>
      <trkpt lat="47.27055" lon="-2.35246">
        <ele>55</ele>
        <time>2019-09-15T10:11:43Z</time>
      </trkpt>
      <trkpt lat="47.27041" lon="-2.35224">
        <ele>55</ele>
        <time>2019-09-15T10:11:46Z</time>
      </trkpt>
      <trkpt lat="47.27037" lon="-2.35218">
        <ele>55</ele>
        <time>2019-09-15T10:11:47Z</time>
      </trkpt>
      <trkpt lat="47.27033" lon="-2.35211">
        <ele>55</ele>
        <time>2019-09-15T10:11:48Z</time>
      </trkpt>
      <trkpt lat="47.27029" lon="-2.35205">
        <ele>54</ele>
        <time>2019-09-15T10:11:49Z</time>
      </trkpt>
      <trkpt lat="47.27025" lon="-2.35199">
        <ele>55</ele>
        <time>2019-09-15T10:11:50Z</time>
      </trkpt>
      <trkpt lat="47.2702" lon="-2.35192">
        <ele>55</ele>
        <time>2019-09-15T10:11:51Z</time>
      </trkpt>
      <trkpt lat="47.27016" lon="-2.35186">
        <ele>55</ele>
        <time>2019-09-15T10:11:52Z</time>
      </trkpt>
      <trkpt lat="47.27011" lon="-2.35179">
        <ele>55</ele>
        <time>2019-09-15T10:11:53Z</time>
      </trkpt>
      <trkpt lat="47.27007" lon="-2.35173">
        <ele>55</ele>
        <time>2019-09-15T10:11:54Z</time>
      </trkpt>
      <trkpt lat="47.27002" lon="-2.35166">
        <ele>55</ele>
        <time>2019-09-15T10:11:55Z</time>
      </trkpt>
      <trkpt lat="47.26998" lon="-2.35159">
        <ele>55</ele>
        <time>2019-09-15T10:11:56Z</time>
      </trkpt>
      <trkpt lat="47.26989" lon="-2.35145">
        <ele>55</ele>
        <time>2019-09-15T10:11:58Z</time>
      </trkpt>
      <trkpt lat="47.26979" lon="-2.3513">
        <ele>55</ele>
        <time>2019-09-15T10:12:00Z</time>
      </trkpt>
      <trkpt lat="47.26974" lon="-2.35122">
        <ele>55</ele>
        <time>2019-09-15T10:12:01Z</time>
      </trkpt>
      <trkpt lat="47.26969" lon="-2.35115">
        <ele>55</ele>
        <time>2019-09-15T10:12:02Z</time>
      </trkpt>
      <trkpt lat="47.26958" lon="-2.351">
        <ele>54</ele>
        <time>2019-09-15T10:12:04Z</time>
      </trkpt>
      <trkpt lat="47.26949" lon="-2.35084">
        <ele>55</ele>
        <time>2019-09-15T10:12:06Z</time>
      </trkpt>
      <trkpt lat="47.26944" lon="-2.35077">
        <ele>55</ele>
        <time>2019-09-15T10:12:07Z</time>
      </trkpt>
      <trkpt lat="47.26939" lon="-2.3507">
        <ele>55</ele>
        <time>2019-09-15T10:12:08Z</time>
      </trkpt>
      <trkpt lat="47.26934" lon="-2.35063">
        <ele>55</ele>
        <time>2019-09-15T10:12:09Z</time>
      </trkpt>
      <trkpt lat="47.26929" lon="-2.35055">
        <ele>55</ele>
        <time>2019-09-15T10:12:10Z</time>
      </trkpt>
      <trkpt lat="47.26922" lon="-2.35044">
        <ele>55</ele>
        <time>2019-09-15T10:12:12Z</time>
      </trkpt>
      <trkpt lat="47.26919" lon="-2.3504">
        <ele>55</ele>
        <time>2019-09-15T10:12:14Z</time>
      </trkpt>
      <trkpt lat="47.26914" lon="-2.35032">
        <ele>55</ele>
        <time>2019-09-15T10:12:17Z</time>
      </trkpt>
      <trkpt lat="47.26909" lon="-2.35025">
        <ele>55</ele>
        <time>2019-09-15T10:12:19Z</time>
      </trkpt>
      <trkpt lat="47.26904" lon="-2.35015">
        <ele>55</ele>
        <time>2019-09-15T10:12:21Z</time>
      </trkpt>
      <trkpt lat="47.269" lon="-2.35011">
        <ele>55</ele>
        <time>2019-09-15T10:12:22Z</time>
      </trkpt>
      <trkpt lat="47.26897" lon="-2.35005">
        <ele>55</ele>
        <time>2019-09-15T10:12:23Z</time>
      </trkpt>
      <trkpt lat="47.26893" lon="-2.34999">
        <ele>55</ele>
        <time>2019-09-15T10:12:24Z</time>
      </trkpt>
      <trkpt lat="47.26888" lon="-2.34993">
        <ele>55</ele>
        <time>2019-09-15T10:12:25Z</time>
      </trkpt>
      <trkpt lat="47.26884" lon="-2.34986">
        <ele>55</ele>
        <time>2019-09-15T10:12:26Z</time>
      </trkpt>
      <trkpt lat="47.2688" lon="-2.34981">
        <ele>55</ele>
        <time>2019-09-15T10:12:27Z</time>
      </trkpt>
      <trkpt lat="47.26875" lon="-2.34974">
        <ele>55</ele>
        <time>2019-09-15T10:12:28Z</time>
      </trkpt>
      <trkpt lat="47.26871" lon="-2.34967">
        <ele>55</ele>
        <time>2019-09-15T10:12:29Z</time>
      </trkpt>
      <trkpt lat="47.26867" lon="-2.3496">
        <ele>55</ele>
        <time>2019-09-15T10:12:30Z</time>
      </trkpt>
      <trkpt lat="47.26854" lon="-2.34939">
        <ele>55</ele>
        <time>2019-09-15T10:12:33Z</time>
      </trkpt>
      <trkpt lat="47.2685" lon="-2.34932">
        <ele>55</ele>
        <time>2019-09-15T10:12:34Z</time>
      </trkpt>
      <trkpt lat="47.26831" lon="-2.34904">
        <ele>55</ele>
        <time>2019-09-15T10:12:38Z</time>
      </trkpt>
      <trkpt lat="47.26826" lon="-2.34898">
        <ele>56</ele>
        <time>2019-09-15T10:12:39Z</time>
      </trkpt>
      <trkpt lat="47.26817" lon="-2.34885">
        <ele>56</ele>
        <time>2019-09-15T10:12:41Z</time>
      </trkpt>
      <trkpt lat="47.26799" lon="-2.34858">
        <ele>56</ele>
        <time>2019-09-15T10:12:45Z</time>
      </trkpt>
      <trkpt lat="47.26794" lon="-2.34851">
        <ele>56</ele>
        <time>2019-09-15T10:12:46Z</time>
      </trkpt>
      <trkpt lat="47.2679" lon="-2.34845">
        <ele>55</ele>
        <time>2019-09-15T10:12:47Z</time>
      </trkpt>
      <trkpt lat="47.26787" lon="-2.34841">
        <ele>55</ele>
        <time>2019-09-15T10:12:48Z</time>
      </trkpt>
      <trkpt lat="47.2678" lon="-2.34834">
        <ele>55</ele>
        <time>2019-09-15T10:12:50Z</time>
      </trkpt>
      <trkpt lat="47.26777" lon="-2.3483">
        <ele>55</ele>
        <time>2019-09-15T10:12:51Z</time>
      </trkpt>
      <trkpt lat="47.26774" lon="-2.34826">
        <ele>55</ele>
        <time>2019-09-15T10:12:52Z</time>
      </trkpt>
      <trkpt lat="47.26768" lon="-2.34818">
        <ele>56</ele>
        <time>2019-09-15T10:12:54Z</time>
      </trkpt>
      <trkpt lat="47.26764" lon="-2.34813">
        <ele>56</ele>
        <time>2019-09-15T10:12:55Z</time>
      </trkpt>
      <trkpt lat="47.2676" lon="-2.34808">
        <ele>56</ele>
        <time>2019-09-15T10:12:56Z</time>
      </trkpt>
      <trkpt lat="47.26757" lon="-2.34802">
        <ele>56</ele>
        <time>2019-09-15T10:12:57Z</time>
      </trkpt>
      <trkpt lat="47.26753" lon="-2.34796">
        <ele>56</ele>
        <time>2019-09-15T10:12:58Z</time>
      </trkpt>
      <trkpt lat="47.26748" lon="-2.34791">
        <ele>56</ele>
        <time>2019-09-15T10:12:59Z</time>
      </trkpt>
      <trkpt lat="47.26739" lon="-2.3478">
        <ele>56</ele>
        <time>2019-09-15T10:13:01Z</time>
      </trkpt>
      <trkpt lat="47.26734" lon="-2.34774">
        <ele>56</ele>
        <time>2019-09-15T10:13:02Z</time>
      </trkpt>
      <trkpt lat="47.2673" lon="-2.34768">
        <ele>56</ele>
        <time>2019-09-15T10:13:03Z</time>
      </trkpt>
      <trkpt lat="47.26725" lon="-2.34762">
        <ele>56</ele>
        <time>2019-09-15T10:13:04Z</time>
      </trkpt>
      <trkpt lat="47.26721" lon="-2.34757">
        <ele>55</ele>
        <time>2019-09-15T10:13:05Z</time>
      </trkpt>
      <trkpt lat="47.26706" lon="-2.34738">
        <ele>56</ele>
        <time>2019-09-15T10:13:08Z</time>
      </trkpt>
      <trkpt lat="47.26701" lon="-2.34732">
        <ele>55</ele>
        <time>2019-09-15T10:13:09Z</time>
      </trkpt>
      <trkpt lat="47.26696" lon="-2.34726">
        <ele>55</ele>
        <time>2019-09-15T10:13:10Z</time>
      </trkpt>
      <trkpt lat="47.26687" lon="-2.34714">
        <ele>56</ele>
        <time>2019-09-15T10:13:12Z</time>
      </trkpt>
      <trkpt lat="47.26682" lon="-2.34708">
        <ele>55</ele>
        <time>2019-09-15T10:13:13Z</time>
      </trkpt>
      <trkpt lat="47.26677" lon="-2.34701">
        <ele>55</ele>
        <time>2019-09-15T10:13:14Z</time>
      </trkpt>
      <trkpt lat="47.26672" lon="-2.34696">
        <ele>55</ele>
        <time>2019-09-15T10:13:15Z</time>
      </trkpt>
      <trkpt lat="47.26668" lon="-2.3469">
        <ele>56</ele>
        <time>2019-09-15T10:13:16Z</time>
      </trkpt>
      <trkpt lat="47.26663" lon="-2.34684">
        <ele>56</ele>
        <time>2019-09-15T10:13:17Z</time>
      </trkpt>
      <trkpt lat="47.26653" lon="-2.34672">
        <ele>56</ele>
        <time>2019-09-15T10:13:19Z</time>
      </trkpt>
      <trkpt lat="47.26639" lon="-2.34655">
        <ele>56</ele>
        <time>2019-09-15T10:13:22Z</time>
      </trkpt>
      <trkpt lat="47.26635" lon="-2.3465">
        <ele>56</ele>
        <time>2019-09-15T10:13:23Z</time>
      </trkpt>
      <trkpt lat="47.2663" lon="-2.34644">
        <ele>55</ele>
        <time>2019-09-15T10:13:24Z</time>
      </trkpt>
      <trkpt lat="47.26621" lon="-2.34633">
        <ele>55</ele>
        <time>2019-09-15T10:13:26Z</time>
      </trkpt>
      <trkpt lat="47.26613" lon="-2.34623">
        <ele>56</ele>
        <time>2019-09-15T10:13:28Z</time>
      </trkpt>
      <trkpt lat="47.26608" lon="-2.34619">
        <ele>56</ele>
        <time>2019-09-15T10:13:29Z</time>
      </trkpt>
      <trkpt lat="47.26605" lon="-2.34614">
        <ele>56</ele>
        <time>2019-09-15T10:13:30Z</time>
      </trkpt>
      <trkpt lat="47.26597" lon="-2.34603">
        <ele>56</ele>
        <time>2019-09-15T10:13:32Z</time>
      </trkpt>
      <trkpt lat="47.26592" lon="-2.34598">
        <ele>56</ele>
        <time>2019-09-15T10:13:33Z</time>
      </trkpt>
      <trkpt lat="47.26587" lon="-2.34593">
        <ele>56</ele>
        <time>2019-09-15T10:13:34Z</time>
      </trkpt>
      <trkpt lat="47.26582" lon="-2.34587">
        <ele>56</ele>
        <time>2019-09-15T10:13:35Z</time>
      </trkpt>
      <trkpt lat="47.26572" lon="-2.34575">
        <ele>57</ele>
        <time>2019-09-15T10:13:37Z</time>
      </trkpt>
      <trkpt lat="47.26567" lon="-2.3457">
        <ele>57</ele>
        <time>2019-09-15T10:13:38Z</time>
      </trkpt>
      <trkpt lat="47.26562" lon="-2.34565">
        <ele>57</ele>
        <time>2019-09-15T10:13:39Z</time>
      </trkpt>
      <trkpt lat="47.26557" lon="-2.34559">
        <ele>57</ele>
        <time>2019-09-15T10:13:40Z</time>
      </trkpt>
      <trkpt lat="47.26552" lon="-2.34554">
        <ele>56</ele>
        <time>2019-09-15T10:13:41Z</time>
      </trkpt>
      <trkpt lat="47.26542" lon="-2.34543">
        <ele>56</ele>
        <time>2019-09-15T10:13:43Z</time>
      </trkpt>
      <trkpt lat="47.26538" lon="-2.34538">
        <ele>57</ele>
        <time>2019-09-15T10:13:44Z</time>
      </trkpt>
      <trkpt lat="47.26532" lon="-2.34534">
        <ele>56</ele>
        <time>2019-09-15T10:13:45Z</time>
      </trkpt>
      <trkpt lat="47.26527" lon="-2.34529">
        <ele>56</ele>
        <time>2019-09-15T10:13:46Z</time>
      </trkpt>
      <trkpt lat="47.26522" lon="-2.34526">
        <ele>56</ele>
        <time>2019-09-15T10:13:47Z</time>
      </trkpt>
      <trkpt lat="47.26516" lon="-2.34523">
        <ele>56</ele>
        <time>2019-09-15T10:13:48Z</time>
      </trkpt>
      <trkpt lat="47.26511" lon="-2.34519">
        <ele>57</ele>
        <time>2019-09-15T10:13:49Z</time>
      </trkpt>
      <trkpt lat="47.26485" lon="-2.34501">
        <ele>56</ele>
        <time>2019-09-15T10:13:53Z</time>
      </trkpt>
      <trkpt lat="47.26466" lon="-2.34487">
        <ele>56</ele>
        <time>2019-09-15T10:13:56Z</time>
      </trkpt>
      <trkpt lat="47.26459" lon="-2.34482">
        <ele>56</ele>
        <time>2019-09-15T10:13:57Z</time>
      </trkpt>
      <trkpt lat="47.26453" lon="-2.34478">
        <ele>56</ele>
        <time>2019-09-15T10:13:58Z</time>
      </trkpt>
      <trkpt lat="47.26447" lon="-2.34473">
        <ele>56</ele>
        <time>2019-09-15T10:13:59Z</time>
      </trkpt>
      <trkpt lat="47.2644" lon="-2.34468">
        <ele>55</ele>
        <time>2019-09-15T10:14:00Z</time>
      </trkpt>
      <trkpt lat="47.26434" lon="-2.34464">
        <ele>55</ele>
        <time>2019-09-15T10:14:01Z</time>
      </trkpt>
      <trkpt lat="47.26428" lon="-2.34459">
        <ele>55</ele>
        <time>2019-09-15T10:14:02Z</time>
      </trkpt>
      <trkpt lat="47.26422" lon="-2.34454">
        <ele>55</ele>
        <time>2019-09-15T10:14:03Z</time>
      </trkpt>
      <trkpt lat="47.26415" lon="-2.34449">
        <ele>54</ele>
        <time>2019-09-15T10:14:04Z</time>
      </trkpt>
      <trkpt lat="47.26409" lon="-2.34444">
        <ele>54</ele>
        <time>2019-09-15T10:14:05Z</time>
      </trkpt>
      <trkpt lat="47.26404" lon="-2.34439">
        <ele>54</ele>
        <time>2019-09-15T10:14:06Z</time>
      </trkpt>
      <trkpt lat="47.26397" lon="-2.34434">
        <ele>54</ele>
        <time>2019-09-15T10:14:07Z</time>
      </trkpt>
      <trkpt lat="47.2638" lon="-2.34419">
        <ele>54</ele>
        <time>2019-09-15T10:14:10Z</time>
      </trkpt>
      <trkpt lat="47.26374" lon="-2.34414">
        <ele>54</ele>
        <time>2019-09-15T10:14:11Z</time>
      </trkpt>
      <trkpt lat="47.26368" lon="-2.34409">
        <ele>54</ele>
        <time>2019-09-15T10:14:12Z</time>
      </trkpt>
      <trkpt lat="47.26362" lon="-2.34405">
        <ele>55</ele>
        <time>2019-09-15T10:14:13Z</time>
      </trkpt>
      <trkpt lat="47.26357" lon="-2.34399">
        <ele>55</ele>
        <time>2019-09-15T10:14:14Z</time>
      </trkpt>
      <trkpt lat="47.26352" lon="-2.34394">
        <ele>55</ele>
        <time>2019-09-15T10:14:15Z</time>
      </trkpt>
      <trkpt lat="47.26346" lon="-2.3439">
        <ele>55</ele>
        <time>2019-09-15T10:14:16Z</time>
      </trkpt>
      <trkpt lat="47.26341" lon="-2.34386">
        <ele>55</ele>
        <time>2019-09-15T10:14:17Z</time>
      </trkpt>
      <trkpt lat="47.26335" lon="-2.34383">
        <ele>55</ele>
        <time>2019-09-15T10:14:18Z</time>
      </trkpt>
      <trkpt lat="47.26329" lon="-2.34382">
        <ele>55</ele>
        <time>2019-09-15T10:14:19Z</time>
      </trkpt>
      <trkpt lat="47.26324" lon="-2.34378">
        <ele>55</ele>
        <time>2019-09-15T10:14:20Z</time>
      </trkpt>
      <trkpt lat="47.2632" lon="-2.34371">
        <ele>56</ele>
        <time>2019-09-15T10:14:21Z</time>
      </trkpt>
      <trkpt lat="47.26317" lon="-2.34364">
        <ele>55</ele>
        <time>2019-09-15T10:14:22Z</time>
      </trkpt>
      <trkpt lat="47.26312" lon="-2.34357">
        <ele>55</ele>
        <time>2019-09-15T10:14:23Z</time>
      </trkpt>
      <trkpt lat="47.26306" lon="-2.34351">
        <ele>55</ele>
        <time>2019-09-15T10:14:24Z</time>
      </trkpt>
      <trkpt lat="47.263" lon="-2.34345">
        <ele>55</ele>
        <time>2019-09-15T10:14:25Z</time>
      </trkpt>
      <trkpt lat="47.26294" lon="-2.3434">
        <ele>55</ele>
        <time>2019-09-15T10:14:26Z</time>
      </trkpt>
      <trkpt lat="47.26288" lon="-2.34334">
        <ele>55</ele>
        <time>2019-09-15T10:14:27Z</time>
      </trkpt>
      <trkpt lat="47.26282" lon="-2.34328">
        <ele>55</ele>
        <time>2019-09-15T10:14:28Z</time>
      </trkpt>
      <trkpt lat="47.26276" lon="-2.34322">
        <ele>55</ele>
        <time>2019-09-15T10:14:29Z</time>
      </trkpt>
      <trkpt lat="47.2627" lon="-2.34316">
        <ele>55</ele>
        <time>2019-09-15T10:14:30Z</time>
      </trkpt>
      <trkpt lat="47.26252" lon="-2.34297">
        <ele>55</ele>
        <time>2019-09-15T10:14:33Z</time>
      </trkpt>
      <trkpt lat="47.26246" lon="-2.34291">
        <ele>55</ele>
        <time>2019-09-15T10:14:34Z</time>
      </trkpt>
      <trkpt lat="47.2624" lon="-2.34286">
        <ele>55</ele>
        <time>2019-09-15T10:14:35Z</time>
      </trkpt>
      <trkpt lat="47.26234" lon="-2.3428">
        <ele>55</ele>
        <time>2019-09-15T10:14:36Z</time>
      </trkpt>
      <trkpt lat="47.26229" lon="-2.34274">
        <ele>55</ele>
        <time>2019-09-15T10:14:37Z</time>
      </trkpt>
      <trkpt lat="47.26223" lon="-2.34267">
        <ele>55</ele>
        <time>2019-09-15T10:14:38Z</time>
      </trkpt>
      <trkpt lat="47.26218" lon="-2.34262">
        <ele>55</ele>
        <time>2019-09-15T10:14:39Z</time>
      </trkpt>
      <trkpt lat="47.26212" lon="-2.34256">
        <ele>55</ele>
        <time>2019-09-15T10:14:40Z</time>
      </trkpt>
      <trkpt lat="47.26207" lon="-2.34249">
        <ele>55</ele>
        <time>2019-09-15T10:14:41Z</time>
      </trkpt>
      <trkpt lat="47.26202" lon="-2.34243">
        <ele>55</ele>
        <time>2019-09-15T10:14:42Z</time>
      </trkpt>
      <trkpt lat="47.26196" lon="-2.34238">
        <ele>55</ele>
        <time>2019-09-15T10:14:43Z</time>
      </trkpt>
      <trkpt lat="47.26191" lon="-2.34232">
        <ele>55</ele>
        <time>2019-09-15T10:14:44Z</time>
      </trkpt>
      <trkpt lat="47.26185" lon="-2.34226">
        <ele>55</ele>
        <time>2019-09-15T10:14:45Z</time>
      </trkpt>
      <trkpt lat="47.2618" lon="-2.34221">
        <ele>55</ele>
        <time>2019-09-15T10:14:46Z</time>
      </trkpt>
      <trkpt lat="47.26174" lon="-2.34215">
        <ele>55</ele>
        <time>2019-09-15T10:14:47Z</time>
      </trkpt>
      <trkpt lat="47.26168" lon="-2.3421">
        <ele>55</ele>
        <time>2019-09-15T10:14:48Z</time>
      </trkpt>
      <trkpt lat="47.26163" lon="-2.34205">
        <ele>54</ele>
        <time>2019-09-15T10:14:49Z</time>
      </trkpt>
      <trkpt lat="47.26158" lon="-2.34199">
        <ele>54</ele>
        <time>2019-09-15T10:14:50Z</time>
      </trkpt>
      <trkpt lat="47.26153" lon="-2.34194">
        <ele>54</ele>
        <time>2019-09-15T10:14:51Z</time>
      </trkpt>
      <trkpt lat="47.26147" lon="-2.3419">
        <ele>53</ele>
        <time>2019-09-15T10:14:52Z</time>
      </trkpt>
      <trkpt lat="47.26141" lon="-2.34189">
        <ele>53</ele>
        <time>2019-09-15T10:14:53Z</time>
      </trkpt>
      <trkpt lat="47.26136" lon="-2.34187">
        <ele>54</ele>
        <time>2019-09-15T10:14:54Z</time>
      </trkpt>
      <trkpt lat="47.26131" lon="-2.34182">
        <ele>54</ele>
        <time>2019-09-15T10:14:55Z</time>
      </trkpt>
      <trkpt lat="47.26127" lon="-2.34176">
        <ele>53</ele>
        <time>2019-09-15T10:14:56Z</time>
      </trkpt>
      <trkpt lat="47.26122" lon="-2.34171">
        <ele>53</ele>
        <time>2019-09-15T10:14:57Z</time>
      </trkpt>
      <trkpt lat="47.26117" lon="-2.34167">
        <ele>53</ele>
        <time>2019-09-15T10:14:58Z</time>
      </trkpt>
      <trkpt lat="47.26111" lon="-2.34163">
        <ele>53</ele>
        <time>2019-09-15T10:14:59Z</time>
      </trkpt>
      <trkpt lat="47.26105" lon="-2.3416">
        <ele>54</ele>
        <time>2019-09-15T10:15:00Z</time>
      </trkpt>
      <trkpt lat="47.26099" lon="-2.34157">
        <ele>54</ele>
        <time>2019-09-15T10:15:01Z</time>
      </trkpt>
      <trkpt lat="47.26093" lon="-2.34154">
        <ele>55</ele>
        <time>2019-09-15T10:15:02Z</time>
      </trkpt>
      <trkpt lat="47.26076" lon="-2.34145">
        <ele>56</ele>
        <time>2019-09-15T10:15:05Z</time>
      </trkpt>
      <trkpt lat="47.26069" lon="-2.34142">
        <ele>56</ele>
        <time>2019-09-15T10:15:06Z</time>
      </trkpt>
      <trkpt lat="47.26057" lon="-2.34136">
        <ele>56</ele>
        <time>2019-09-15T10:15:08Z</time>
      </trkpt>
      <trkpt lat="47.26051" lon="-2.34133">
        <ele>56</ele>
        <time>2019-09-15T10:15:09Z</time>
      </trkpt>
      <trkpt lat="47.26045" lon="-2.34129">
        <ele>56</ele>
        <time>2019-09-15T10:15:10Z</time>
      </trkpt>
      <trkpt lat="47.26039" lon="-2.34126">
        <ele>56</ele>
        <time>2019-09-15T10:15:11Z</time>
      </trkpt>
      <trkpt lat="47.26033" lon="-2.34123">
        <ele>56</ele>
        <time>2019-09-15T10:15:12Z</time>
      </trkpt>
      <trkpt lat="47.26028" lon="-2.3412">
        <ele>56</ele>
        <time>2019-09-15T10:15:13Z</time>
      </trkpt>
      <trkpt lat="47.26021" lon="-2.34118">
        <ele>56</ele>
        <time>2019-09-15T10:15:14Z</time>
      </trkpt>
      <trkpt lat="47.26015" lon="-2.34115">
        <ele>56</ele>
        <time>2019-09-15T10:15:15Z</time>
      </trkpt>
      <trkpt lat="47.26009" lon="-2.34113">
        <ele>56</ele>
        <time>2019-09-15T10:15:16Z</time>
      </trkpt>
      <trkpt lat="47.26003" lon="-2.34109">
        <ele>56</ele>
        <time>2019-09-15T10:15:17Z</time>
      </trkpt>
      <trkpt lat="47.25996" lon="-2.34106">
        <ele>56</ele>
        <time>2019-09-15T10:15:18Z</time>
      </trkpt>
      <trkpt lat="47.25991" lon="-2.34103">
        <ele>56</ele>
        <time>2019-09-15T10:15:19Z</time>
      </trkpt>
      <trkpt lat="47.25985" lon="-2.341">
        <ele>56</ele>
        <time>2019-09-15T10:15:20Z</time>
      </trkpt>
      <trkpt lat="47.2598" lon="-2.34097">
        <ele>56</ele>
        <time>2019-09-15T10:15:21Z</time>
      </trkpt>
      <trkpt lat="47.25969" lon="-2.34092">
        <ele>56</ele>
        <time>2019-09-15T10:15:23Z</time>
      </trkpt>
      <trkpt lat="47.25964" lon="-2.3409">
        <ele>56</ele>
        <time>2019-09-15T10:15:24Z</time>
      </trkpt>
      <trkpt lat="47.25958" lon="-2.34088">
        <ele>56</ele>
        <time>2019-09-15T10:15:25Z</time>
      </trkpt>
      <trkpt lat="47.25953" lon="-2.34086">
        <ele>55</ele>
        <time>2019-09-15T10:15:26Z</time>
      </trkpt>
      <trkpt lat="47.25948" lon="-2.34084">
        <ele>55</ele>
        <time>2019-09-15T10:15:27Z</time>
      </trkpt>
      <trkpt lat="47.25943" lon="-2.34083">
        <ele>55</ele>
        <time>2019-09-15T10:15:28Z</time>
      </trkpt>
      <trkpt lat="47.25939" lon="-2.34082">
        <ele>54</ele>
        <time>2019-09-15T10:15:29Z</time>
      </trkpt>
      <trkpt lat="47.25934" lon="-2.3408">
        <ele>54</ele>
        <time>2019-09-15T10:15:30Z</time>
      </trkpt>
      <trkpt lat="47.2593" lon="-2.34079">
        <ele>54</ele>
        <time>2019-09-15T10:15:31Z</time>
      </trkpt>
      <trkpt lat="47.25915" lon="-2.34083">
        <ele>54</ele>
        <time>2019-09-15T10:15:34Z</time>
      </trkpt>
      <trkpt lat="47.2591" lon="-2.34087">
        <ele>53</ele>
        <time>2019-09-15T10:15:35Z</time>
      </trkpt>
      <trkpt lat="47.25906" lon="-2.34092">
        <ele>53</ele>
        <time>2019-09-15T10:15:36Z</time>
      </trkpt>
      <trkpt lat="47.25902" lon="-2.34098">
        <ele>53</ele>
        <time>2019-09-15T10:15:37Z</time>
      </trkpt>
      <trkpt lat="47.25898" lon="-2.34104">
        <ele>53</ele>
        <time>2019-09-15T10:15:38Z</time>
      </trkpt>
      <trkpt lat="47.25894" lon="-2.34111">
        <ele>53</ele>
        <time>2019-09-15T10:15:39Z</time>
      </trkpt>
      <trkpt lat="47.25891" lon="-2.34118">
        <ele>53</ele>
        <time>2019-09-15T10:15:40Z</time>
      </trkpt>
      <trkpt lat="47.25888" lon="-2.34126">
        <ele>53</ele>
        <time>2019-09-15T10:15:41Z</time>
      </trkpt>
      <trkpt lat="47.25886" lon="-2.34134">
        <ele>53</ele>
        <time>2019-09-15T10:15:42Z</time>
      </trkpt>
      <trkpt lat="47.25884" lon="-2.34141">
        <ele>53</ele>
        <time>2019-09-15T10:15:43Z</time>
      </trkpt>
      <trkpt lat="47.25882" lon="-2.34148">
        <ele>53</ele>
        <time>2019-09-15T10:15:44Z</time>
      </trkpt>
      <trkpt lat="47.25875" lon="-2.34165">
        <ele>52</ele>
        <time>2019-09-15T10:15:47Z</time>
      </trkpt>
      <trkpt lat="47.25868" lon="-2.34168">
        <ele>52</ele>
        <time>2019-09-15T10:15:51Z</time>
      </trkpt>
      <trkpt lat="47.25864" lon="-2.34165">
        <ele>52</ele>
        <time>2019-09-15T10:15:54Z</time>
      </trkpt>
      <trkpt lat="47.25857" lon="-2.34162">
        <ele>52</ele>
        <time>2019-09-15T10:15:57Z</time>
      </trkpt>
      <trkpt lat="47.25852" lon="-2.34162">
        <ele>52</ele>
        <time>2019-09-15T10:15:59Z</time>
      </trkpt>
      <trkpt lat="47.25847" lon="-2.3416">
        <ele>53</ele>
        <time>2019-09-15T10:16:01Z</time>
      </trkpt>
      <trkpt lat="47.25844" lon="-2.34159">
        <ele>53</ele>
        <time>2019-09-15T10:16:02Z</time>
      </trkpt>
      <trkpt lat="47.25839" lon="-2.34157">
        <ele>53</ele>
        <time>2019-09-15T10:16:04Z</time>
      </trkpt>
      <trkpt lat="47.25833" lon="-2.34164">
        <ele>54</ele>
        <time>2019-09-15T10:16:07Z</time>
      </trkpt>
      <trkpt lat="47.25827" lon="-2.34176">
        <ele>54</ele>
        <time>2019-09-15T10:16:10Z</time>
      </trkpt>
      <trkpt lat="47.25817" lon="-2.34176">
        <ele>55</ele>
        <time>2019-09-15T10:16:12Z</time>
      </trkpt>
      <trkpt lat="47.25814" lon="-2.34175">
        <ele>55</ele>
        <time>2019-09-15T10:16:13Z</time>
      </trkpt>
      <trkpt lat="47.25805" lon="-2.34174">
        <ele>55</ele>
        <time>2019-09-15T10:16:15Z</time>
      </trkpt>
      <trkpt lat="47.258" lon="-2.34172">
        <ele>55</ele>
        <time>2019-09-15T10:16:16Z</time>
      </trkpt>
      <trkpt lat="47.25791" lon="-2.34171">
        <ele>55</ele>
        <time>2019-09-15T10:16:18Z</time>
      </trkpt>
      <trkpt lat="47.25786" lon="-2.34172">
        <ele>55</ele>
        <time>2019-09-15T10:16:19Z</time>
      </trkpt>
      <trkpt lat="47.25781" lon="-2.34173">
        <ele>55</ele>
        <time>2019-09-15T10:16:20Z</time>
      </trkpt>
      <trkpt lat="47.25763" lon="-2.34175">
        <ele>55</ele>
        <time>2019-09-15T10:16:23Z</time>
      </trkpt>
      <trkpt lat="47.25758" lon="-2.34177">
        <ele>54</ele>
        <time>2019-09-15T10:16:24Z</time>
      </trkpt>
      <trkpt lat="47.25752" lon="-2.34178">
        <ele>54</ele>
        <time>2019-09-15T10:16:25Z</time>
      </trkpt>
      <trkpt lat="47.25745" lon="-2.34179">
        <ele>54</ele>
        <time>2019-09-15T10:16:26Z</time>
      </trkpt>
      <trkpt lat="47.25739" lon="-2.34181">
        <ele>55</ele>
        <time>2019-09-15T10:16:27Z</time>
      </trkpt>
      <trkpt lat="47.25733" lon="-2.34183">
        <ele>54</ele>
        <time>2019-09-15T10:16:28Z</time>
      </trkpt>
      <trkpt lat="47.25716" lon="-2.34187">
        <ele>53</ele>
        <time>2019-09-15T10:16:31Z</time>
      </trkpt>
      <trkpt lat="47.25711" lon="-2.34188">
        <ele>53</ele>
        <time>2019-09-15T10:16:32Z</time>
      </trkpt>
      <trkpt lat="47.25706" lon="-2.34189">
        <ele>53</ele>
        <time>2019-09-15T10:16:33Z</time>
      </trkpt>
      <trkpt lat="47.257" lon="-2.3419">
        <ele>53</ele>
        <time>2019-09-15T10:16:34Z</time>
      </trkpt>
      <trkpt lat="47.25689" lon="-2.34192">
        <ele>53</ele>
        <time>2019-09-15T10:16:36Z</time>
      </trkpt>
      <trkpt lat="47.25684" lon="-2.34193">
        <ele>53</ele>
        <time>2019-09-15T10:16:37Z</time>
      </trkpt>
      <trkpt lat="47.25679" lon="-2.34192">
        <ele>53</ele>
        <time>2019-09-15T10:16:38Z</time>
      </trkpt>
      <trkpt lat="47.25674" lon="-2.34189">
        <ele>53</ele>
        <time>2019-09-15T10:16:39Z</time>
      </trkpt>
      <trkpt lat="47.2567" lon="-2.34185">
        <ele>53</ele>
        <time>2019-09-15T10:16:40Z</time>
      </trkpt>
      <trkpt lat="47.25666" lon="-2.34178">
        <ele>53</ele>
        <time>2019-09-15T10:16:41Z</time>
      </trkpt>
      <trkpt lat="47.25663" lon="-2.34172">
        <ele>53</ele>
        <time>2019-09-15T10:16:42Z</time>
      </trkpt>
      <trkpt lat="47.2566" lon="-2.34165">
        <ele>54</ele>
        <time>2019-09-15T10:16:43Z</time>
      </trkpt>
      <trkpt lat="47.25656" lon="-2.34158">
        <ele>54</ele>
        <time>2019-09-15T10:16:44Z</time>
      </trkpt>
      <trkpt lat="47.25652" lon="-2.34151">
        <ele>54</ele>
        <time>2019-09-15T10:16:45Z</time>
      </trkpt>
      <trkpt lat="47.25648" lon="-2.34144">
        <ele>54</ele>
        <time>2019-09-15T10:16:46Z</time>
      </trkpt>
      <trkpt lat="47.25646" lon="-2.34137">
        <ele>54</ele>
        <time>2019-09-15T10:16:47Z</time>
      </trkpt>
      <trkpt lat="47.25643" lon="-2.34129">
        <ele>54</ele>
        <time>2019-09-15T10:16:48Z</time>
      </trkpt>
      <trkpt lat="47.25641" lon="-2.34121">
        <ele>54</ele>
        <time>2019-09-15T10:16:49Z</time>
      </trkpt>
      <trkpt lat="47.2564" lon="-2.34112">
        <ele>55</ele>
        <time>2019-09-15T10:16:50Z</time>
      </trkpt>
      <trkpt lat="47.25639" lon="-2.34103">
        <ele>55</ele>
        <time>2019-09-15T10:16:51Z</time>
      </trkpt>
      <trkpt lat="47.25639" lon="-2.34094">
        <ele>56</ele>
        <time>2019-09-15T10:16:52Z</time>
      </trkpt>
      <trkpt lat="47.25639" lon="-2.34085">
        <ele>56</ele>
        <time>2019-09-15T10:16:53Z</time>
      </trkpt>
      <trkpt lat="47.2564" lon="-2.34076">
        <ele>56</ele>
        <time>2019-09-15T10:16:54Z</time>
      </trkpt>
      <trkpt lat="47.25641" lon="-2.34068">
        <ele>56</ele>
        <time>2019-09-15T10:16:55Z</time>
      </trkpt>
      <trkpt lat="47.25643" lon="-2.3406">
        <ele>57</ele>
        <time>2019-09-15T10:16:56Z</time>
      </trkpt>
      <trkpt lat="47.25644" lon="-2.34052">
        <ele>57</ele>
        <time>2019-09-15T10:16:57Z</time>
      </trkpt>
      <trkpt lat="47.25647" lon="-2.34036">
        <ele>57</ele>
        <time>2019-09-15T10:16:59Z</time>
      </trkpt>
      <trkpt lat="47.25648" lon="-2.34028">
        <ele>57</ele>
        <time>2019-09-15T10:17:00Z</time>
      </trkpt>
      <trkpt lat="47.2565" lon="-2.34021">
        <ele>57</ele>
        <time>2019-09-15T10:17:01Z</time>
      </trkpt>
      <trkpt lat="47.25654" lon="-2.34008">
        <ele>57</ele>
        <time>2019-09-15T10:17:03Z</time>
      </trkpt>
      <trkpt lat="47.25655" lon="-2.34001">
        <ele>57</ele>
        <time>2019-09-15T10:17:04Z</time>
      </trkpt>
      <trkpt lat="47.25657" lon="-2.33994">
        <ele>57</ele>
        <time>2019-09-15T10:17:05Z</time>
      </trkpt>
      <trkpt lat="47.25661" lon="-2.33965">
        <ele>58</ele>
        <time>2019-09-15T10:17:09Z</time>
      </trkpt>
      <trkpt lat="47.25662" lon="-2.33957">
        <ele>58</ele>
        <time>2019-09-15T10:17:10Z</time>
      </trkpt>
      <trkpt lat="47.2566" lon="-2.33943">
        <ele>58</ele>
        <time>2019-09-15T10:17:12Z</time>
      </trkpt>
      <trkpt lat="47.2566" lon="-2.33937">
        <ele>57</ele>
        <time>2019-09-15T10:17:13Z</time>
      </trkpt>
      <trkpt lat="47.25659" lon="-2.33929">
        <ele>57</ele>
        <time>2019-09-15T10:17:14Z</time>
      </trkpt>
      <trkpt lat="47.25658" lon="-2.33922">
        <ele>57</ele>
        <time>2019-09-15T10:17:15Z</time>
      </trkpt>
      <trkpt lat="47.25656" lon="-2.33915">
        <ele>57</ele>
        <time>2019-09-15T10:17:16Z</time>
      </trkpt>
      <trkpt lat="47.25654" lon="-2.33908">
        <ele>57</ele>
        <time>2019-09-15T10:17:17Z</time>
      </trkpt>
      <trkpt lat="47.25653" lon="-2.33901">
        <ele>57</ele>
        <time>2019-09-15T10:17:18Z</time>
      </trkpt>
      <trkpt lat="47.25651" lon="-2.33893">
        <ele>57</ele>
        <time>2019-09-15T10:17:19Z</time>
      </trkpt>
      <trkpt lat="47.2565" lon="-2.33886">
        <ele>57</ele>
        <time>2019-09-15T10:17:20Z</time>
      </trkpt>
      <trkpt lat="47.25648" lon="-2.33879">
        <ele>57</ele>
        <time>2019-09-15T10:17:21Z</time>
      </trkpt>
      <trkpt lat="47.25647" lon="-2.33872">
        <ele>57</ele>
        <time>2019-09-15T10:17:22Z</time>
      </trkpt>
      <trkpt lat="47.25645" lon="-2.33864">
        <ele>57</ele>
        <time>2019-09-15T10:17:23Z</time>
      </trkpt>
      <trkpt lat="47.25644" lon="-2.33856">
        <ele>57</ele>
        <time>2019-09-15T10:17:24Z</time>
      </trkpt>
      <trkpt lat="47.25642" lon="-2.33849">
        <ele>57</ele>
        <time>2019-09-15T10:17:25Z</time>
      </trkpt>
      <trkpt lat="47.25641" lon="-2.33841">
        <ele>58</ele>
        <time>2019-09-15T10:17:26Z</time>
      </trkpt>
      <trkpt lat="47.25641" lon="-2.33833">
        <ele>58</ele>
        <time>2019-09-15T10:17:27Z</time>
      </trkpt>
      <trkpt lat="47.25639" lon="-2.33816">
        <ele>58</ele>
        <time>2019-09-15T10:17:29Z</time>
      </trkpt>
      <trkpt lat="47.25638" lon="-2.33808">
        <ele>58</ele>
        <time>2019-09-15T10:17:30Z</time>
      </trkpt>
      <trkpt lat="47.25633" lon="-2.33793">
        <ele>58</ele>
        <time>2019-09-15T10:17:32Z</time>
      </trkpt>
      <trkpt lat="47.25626" lon="-2.33772">
        <ele>58</ele>
        <time>2019-09-15T10:17:35Z</time>
      </trkpt>
      <trkpt lat="47.25623" lon="-2.33766">
        <ele>58</ele>
        <time>2019-09-15T10:17:36Z</time>
      </trkpt>
      <trkpt lat="47.25612" lon="-2.3376">
        <ele>58</ele>
        <time>2019-09-15T10:17:38Z</time>
      </trkpt>
      <trkpt lat="47.25606" lon="-2.33758">
        <ele>58</ele>
        <time>2019-09-15T10:17:39Z</time>
      </trkpt>
      <trkpt lat="47.25599" lon="-2.33756">
        <ele>58</ele>
        <time>2019-09-15T10:17:40Z</time>
      </trkpt>
      <trkpt lat="47.25592" lon="-2.33755">
        <ele>58</ele>
        <time>2019-09-15T10:17:41Z</time>
      </trkpt>
      <trkpt lat="47.25585" lon="-2.33755">
        <ele>58</ele>
        <time>2019-09-15T10:17:42Z</time>
      </trkpt>
      <trkpt lat="47.25579" lon="-2.33755">
        <ele>58</ele>
        <time>2019-09-15T10:17:43Z</time>
      </trkpt>
      <trkpt lat="47.25573" lon="-2.33755">
        <ele>58</ele>
        <time>2019-09-15T10:17:44Z</time>
      </trkpt>
      <trkpt lat="47.25567" lon="-2.33756">
        <ele>59</ele>
        <time>2019-09-15T10:17:45Z</time>
      </trkpt>
      <trkpt lat="47.25561" lon="-2.33756">
        <ele>58</ele>
        <time>2019-09-15T10:17:46Z</time>
      </trkpt>
      <trkpt lat="47.25555" lon="-2.33757">
        <ele>58</ele>
        <time>2019-09-15T10:17:47Z</time>
      </trkpt>
      <trkpt lat="47.25537" lon="-2.33761">
        <ele>57</ele>
        <time>2019-09-15T10:17:50Z</time>
      </trkpt>
      <trkpt lat="47.25531" lon="-2.3376">
        <ele>57</ele>
        <time>2019-09-15T10:17:51Z</time>
      </trkpt>
      <trkpt lat="47.25524" lon="-2.3376">
        <ele>56</ele>
        <time>2019-09-15T10:17:52Z</time>
      </trkpt>
      <trkpt lat="47.25518" lon="-2.33759">
        <ele>55</ele>
        <time>2019-09-15T10:17:53Z</time>
      </trkpt>
      <trkpt lat="47.25511" lon="-2.33759">
        <ele>55</ele>
        <time>2019-09-15T10:17:54Z</time>
      </trkpt>
      <trkpt lat="47.25504" lon="-2.33758">
        <ele>54</ele>
        <time>2019-09-15T10:17:55Z</time>
      </trkpt>
      <trkpt lat="47.25497" lon="-2.33758">
        <ele>54</ele>
        <time>2019-09-15T10:17:56Z</time>
      </trkpt>
      <trkpt lat="47.25476" lon="-2.33754">
        <ele>54</ele>
        <time>2019-09-15T10:17:59Z</time>
      </trkpt>
      <trkpt lat="47.2547" lon="-2.33752">
        <ele>54</ele>
        <time>2019-09-15T10:18:00Z</time>
      </trkpt>
      <trkpt lat="47.25458" lon="-2.33744">
        <ele>54</ele>
        <time>2019-09-15T10:18:02Z</time>
      </trkpt>
      <trkpt lat="47.25452" lon="-2.33721">
        <ele>55</ele>
        <time>2019-09-15T10:18:05Z</time>
      </trkpt>
      <trkpt lat="47.25451" lon="-2.33713">
        <ele>55</ele>
        <time>2019-09-15T10:18:06Z</time>
      </trkpt>
      <trkpt lat="47.2545" lon="-2.33704">
        <ele>55</ele>
        <time>2019-09-15T10:18:07Z</time>
      </trkpt>
      <trkpt lat="47.25449" lon="-2.33696">
        <ele>55</ele>
        <time>2019-09-15T10:18:08Z</time>
      </trkpt>
      <trkpt lat="47.25448" lon="-2.33688">
        <ele>54</ele>
        <time>2019-09-15T10:18:09Z</time>
      </trkpt>
      <trkpt lat="47.25447" lon="-2.33681">
        <ele>54</ele>
        <time>2019-09-15T10:18:10Z</time>
      </trkpt>
      <trkpt lat="47.25445" lon="-2.33659">
        <ele>55</ele>
        <time>2019-09-15T10:18:12Z</time>
      </trkpt>
      <trkpt lat="47.25443" lon="-2.33652">
        <ele>55</ele>
        <time>2019-09-15T10:18:13Z</time>
      </trkpt>
      <trkpt lat="47.25441" lon="-2.33638">
        <ele>54</ele>
        <time>2019-09-15T10:18:15Z</time>
      </trkpt>
      <trkpt lat="47.25442" lon="-2.3363">
        <ele>55</ele>
        <time>2019-09-15T10:18:16Z</time>
      </trkpt>
      <trkpt lat="47.25442" lon="-2.33624">
        <ele>55</ele>
        <time>2019-09-15T10:18:17Z</time>
      </trkpt>
      <trkpt lat="47.25443" lon="-2.33612">
        <ele>55</ele>
        <time>2019-09-15T10:18:19Z</time>
      </trkpt>
      <trkpt lat="47.25443" lon="-2.33606">
        <ele>55</ele>
        <time>2019-09-15T10:18:20Z</time>
      </trkpt>
      <trkpt lat="47.25442" lon="-2.33595">
        <ele>55</ele>
        <time>2019-09-15T10:18:23Z</time>
      </trkpt>
      <trkpt lat="47.25445" lon="-2.33589">
        <ele>55</ele>
        <time>2019-09-15T10:18:25Z</time>
      </trkpt>
      <trkpt lat="47.25451" lon="-2.33585">
        <ele>54</ele>
        <time>2019-09-15T10:18:27Z</time>
      </trkpt>
      <trkpt lat="47.25456" lon="-2.3358">
        <ele>55</ele>
        <time>2019-09-15T10:18:29Z</time>
      </trkpt>
      <trkpt lat="47.25455" lon="-2.33569">
        <ele>55</ele>
        <time>2019-09-15T10:18:31Z</time>
      </trkpt>
      <trkpt lat="47.25455" lon="-2.33565">
        <ele>55</ele>
        <time>2019-09-15T10:18:32Z</time>
      </trkpt>
      <trkpt lat="47.25454" lon="-2.3355">
        <ele>56</ele>
        <time>2019-09-15T10:18:35Z</time>
      </trkpt>
      <trkpt lat="47.25453" lon="-2.33544">
        <ele>57</ele>
        <time>2019-09-15T10:18:36Z</time>
      </trkpt>
      <trkpt lat="47.25453" lon="-2.33537">
        <ele>57</ele>
        <time>2019-09-15T10:18:37Z</time>
      </trkpt>
      <trkpt lat="47.25448" lon="-2.3352">
        <ele>57</ele>
        <time>2019-09-15T10:18:40Z</time>
      </trkpt>
      <trkpt lat="47.25447" lon="-2.33514">
        <ele>57</ele>
        <time>2019-09-15T10:18:41Z</time>
      </trkpt>
      <trkpt lat="47.25445" lon="-2.33506">
        <ele>58</ele>
        <time>2019-09-15T10:18:42Z</time>
      </trkpt>
      <trkpt lat="47.25443" lon="-2.33498">
        <ele>58</ele>
        <time>2019-09-15T10:18:43Z</time>
      </trkpt>
      <trkpt lat="47.25442" lon="-2.3349">
        <ele>58</ele>
        <time>2019-09-15T10:18:44Z</time>
      </trkpt>
      <trkpt lat="47.25439" lon="-2.33483">
        <ele>58</ele>
        <time>2019-09-15T10:18:45Z</time>
      </trkpt>
      <trkpt lat="47.25438" lon="-2.33476">
        <ele>57</ele>
        <time>2019-09-15T10:18:46Z</time>
      </trkpt>
      <trkpt lat="47.25435" lon="-2.33468">
        <ele>58</ele>
        <time>2019-09-15T10:18:47Z</time>
      </trkpt>
      <trkpt lat="47.25433" lon="-2.33461">
        <ele>58</ele>
        <time>2019-09-15T10:18:48Z</time>
      </trkpt>
      <trkpt lat="47.25432" lon="-2.33454">
        <ele>58</ele>
        <time>2019-09-15T10:18:49Z</time>
      </trkpt>
      <trkpt lat="47.25431" lon="-2.33446">
        <ele>57</ele>
        <time>2019-09-15T10:18:50Z</time>
      </trkpt>
      <trkpt lat="47.25431" lon="-2.33439">
        <ele>57</ele>
        <time>2019-09-15T10:18:51Z</time>
      </trkpt>
      <trkpt lat="47.25431" lon="-2.33431">
        <ele>58</ele>
        <time>2019-09-15T10:18:52Z</time>
      </trkpt>
      <trkpt lat="47.25431" lon="-2.33397">
        <ele>57</ele>
        <time>2019-09-15T10:18:56Z</time>
      </trkpt>
      <trkpt lat="47.25431" lon="-2.33388">
        <ele>57</ele>
        <time>2019-09-15T10:18:57Z</time>
      </trkpt>
      <trkpt lat="47.25431" lon="-2.3338">
        <ele>57</ele>
        <time>2019-09-15T10:18:58Z</time>
      </trkpt>
      <trkpt lat="47.25431" lon="-2.33372">
        <ele>57</ele>
        <time>2019-09-15T10:18:59Z</time>
      </trkpt>
      <trkpt lat="47.25431" lon="-2.33364">
        <ele>57</ele>
        <time>2019-09-15T10:19:00Z</time>
      </trkpt>
      <trkpt lat="47.25431" lon="-2.33357">
        <ele>57</ele>
        <time>2019-09-15T10:19:01Z</time>
      </trkpt>
      <trkpt lat="47.25433" lon="-2.33349">
        <ele>57</ele>
        <time>2019-09-15T10:19:02Z</time>
      </trkpt>
      <trkpt lat="47.25435" lon="-2.33342">
        <ele>57</ele>
        <time>2019-09-15T10:19:03Z</time>
      </trkpt>
      <trkpt lat="47.25441" lon="-2.33322">
        <ele>57</ele>
        <time>2019-09-15T10:19:06Z</time>
      </trkpt>
      <trkpt lat="47.25444" lon="-2.33315">
        <ele>57</ele>
        <time>2019-09-15T10:19:07Z</time>
      </trkpt>
      <trkpt lat="47.25446" lon="-2.33308">
        <ele>58</ele>
        <time>2019-09-15T10:19:08Z</time>
      </trkpt>
      <trkpt lat="47.25446" lon="-2.33281">
        <ele>58</ele>
        <time>2019-09-15T10:19:12Z</time>
      </trkpt>
      <trkpt lat="47.25444" lon="-2.33275">
        <ele>58</ele>
        <time>2019-09-15T10:19:13Z</time>
      </trkpt>
      <trkpt lat="47.25441" lon="-2.33268">
        <ele>58</ele>
        <time>2019-09-15T10:19:14Z</time>
      </trkpt>
      <trkpt lat="47.25433" lon="-2.33247">
        <ele>57</ele>
        <time>2019-09-15T10:19:17Z</time>
      </trkpt>
      <trkpt lat="47.25431" lon="-2.3324">
        <ele>57</ele>
        <time>2019-09-15T10:19:18Z</time>
      </trkpt>
      <trkpt lat="47.25428" lon="-2.33234">
        <ele>57</ele>
        <time>2019-09-15T10:19:19Z</time>
      </trkpt>
      <trkpt lat="47.25424" lon="-2.33227">
        <ele>57</ele>
        <time>2019-09-15T10:19:20Z</time>
      </trkpt>
      <trkpt lat="47.25421" lon="-2.33221">
        <ele>56</ele>
        <time>2019-09-15T10:19:21Z</time>
      </trkpt>
      <trkpt lat="47.25418" lon="-2.33214">
        <ele>56</ele>
        <time>2019-09-15T10:19:22Z</time>
      </trkpt>
      <trkpt lat="47.25413" lon="-2.33202">
        <ele>56</ele>
        <time>2019-09-15T10:19:24Z</time>
      </trkpt>
      <trkpt lat="47.2541" lon="-2.33195">
        <ele>56</ele>
        <time>2019-09-15T10:19:25Z</time>
      </trkpt>
      <trkpt lat="47.25406" lon="-2.33188">
        <ele>56</ele>
        <time>2019-09-15T10:19:26Z</time>
      </trkpt>
      <trkpt lat="47.25404" lon="-2.33182">
        <ele>56</ele>
        <time>2019-09-15T10:19:27Z</time>
      </trkpt>
      <trkpt lat="47.25399" lon="-2.33169">
        <ele>56</ele>
        <time>2019-09-15T10:19:29Z</time>
      </trkpt>
      <trkpt lat="47.25397" lon="-2.33163">
        <ele>56</ele>
        <time>2019-09-15T10:19:30Z</time>
      </trkpt>
      <trkpt lat="47.25393" lon="-2.33155">
        <ele>56</ele>
        <time>2019-09-15T10:19:32Z</time>
      </trkpt>
      <trkpt lat="47.25391" lon="-2.33151">
        <ele>56</ele>
        <time>2019-09-15T10:19:34Z</time>
      </trkpt>
      <trkpt lat="47.25389" lon="-2.33147">
        <ele>57</ele>
        <time>2019-09-15T10:19:36Z</time>
      </trkpt>
      <trkpt lat="47.25387" lon="-2.33142">
        <ele>57</ele>
        <time>2019-09-15T10:19:38Z</time>
      </trkpt>
      <trkpt lat="47.25383" lon="-2.33137">
        <ele>57</ele>
        <time>2019-09-15T10:19:40Z</time>
      </trkpt>
      <trkpt lat="47.2538" lon="-2.3313">
        <ele>57</ele>
        <time>2019-09-15T10:19:42Z</time>
      </trkpt>
      <trkpt lat="47.25378" lon="-2.33128">
        <ele>57</ele>
        <time>2019-09-15T10:19:43Z</time>
      </trkpt>
      <trkpt lat="47.25376" lon="-2.33125">
        <ele>57</ele>
        <time>2019-09-15T10:19:44Z</time>
      </trkpt>
      <trkpt lat="47.25376" lon="-2.33125">
        <ele>8</ele>
        <time>2019-09-15T10:19:49Z</time>
      </trkpt>
      <trkpt lat="47.25376" lon="-2.33125">
        <ele>8</ele>
        <time>2019-09-15T10:28:29Z</time>
      </trkpt>
      <trkpt lat="47.2536" lon="-2.3307">
        <ele>58</ele>
        <time>2019-09-15T10:28:35Z</time>
      </trkpt>
      <trkpt lat="47.25356" lon="-2.33066">
        <ele>55</ele>
        <time>2019-09-15T10:28:36Z</time>
      </trkpt>
      <trkpt lat="47.25353" lon="-2.33057">
        <ele>55</ele>
        <time>2019-09-15T10:28:38Z</time>
      </trkpt>
      <trkpt lat="47.25349" lon="-2.33046">
        <ele>56</ele>
        <time>2019-09-15T10:28:40Z</time>
      </trkpt>
      <trkpt lat="47.25348" lon="-2.33041">
        <ele>57</ele>
        <time>2019-09-15T10:28:41Z</time>
      </trkpt>
      <trkpt lat="47.25343" lon="-2.33026">
        <ele>59</ele>
        <time>2019-09-15T10:28:44Z</time>
      </trkpt>
      <trkpt lat="47.2534" lon="-2.33021">
        <ele>59</ele>
        <time>2019-09-15T10:28:45Z</time>
      </trkpt>
      <trkpt lat="47.25338" lon="-2.33015">
        <ele>60</ele>
        <time>2019-09-15T10:28:46Z</time>
      </trkpt>
      <trkpt lat="47.25336" lon="-2.33009">
        <ele>60</ele>
        <time>2019-09-15T10:28:47Z</time>
      </trkpt>
      <trkpt lat="47.25333" lon="-2.33004">
        <ele>60</ele>
        <time>2019-09-15T10:28:48Z</time>
      </trkpt>
      <trkpt lat="47.2533" lon="-2.32999">
        <ele>59</ele>
        <time>2019-09-15T10:28:49Z</time>
      </trkpt>
      <trkpt lat="47.25324" lon="-2.32984">
        <ele>58</ele>
        <time>2019-09-15T10:28:52Z</time>
      </trkpt>
      <trkpt lat="47.25322" lon="-2.32979">
        <ele>59</ele>
        <time>2019-09-15T10:28:53Z</time>
      </trkpt>
      <trkpt lat="47.2532" lon="-2.32974">
        <ele>59</ele>
        <time>2019-09-15T10:28:54Z</time>
      </trkpt>
      <trkpt lat="47.25315" lon="-2.32964">
        <ele>58</ele>
        <time>2019-09-15T10:28:56Z</time>
      </trkpt>
      <trkpt lat="47.25312" lon="-2.32959">
        <ele>57</ele>
        <time>2019-09-15T10:28:57Z</time>
      </trkpt>
      <trkpt lat="47.2531" lon="-2.32953">
        <ele>56</ele>
        <time>2019-09-15T10:28:58Z</time>
      </trkpt>
      <trkpt lat="47.25307" lon="-2.32941">
        <ele>56</ele>
        <time>2019-09-15T10:29:00Z</time>
      </trkpt>
      <trkpt lat="47.25308" lon="-2.3293">
        <ele>57</ele>
        <time>2019-09-15T10:29:02Z</time>
      </trkpt>
      <trkpt lat="47.25313" lon="-2.32919">
        <ele>57</ele>
        <time>2019-09-15T10:29:04Z</time>
      </trkpt>
      <trkpt lat="47.25317" lon="-2.32915">
        <ele>57</ele>
        <time>2019-09-15T10:29:05Z</time>
      </trkpt>
      <trkpt lat="47.25321" lon="-2.32912">
        <ele>56</ele>
        <time>2019-09-15T10:29:06Z</time>
      </trkpt>
      <trkpt lat="47.25324" lon="-2.32909">
        <ele>56</ele>
        <time>2019-09-15T10:29:07Z</time>
      </trkpt>
      <trkpt lat="47.25327" lon="-2.32905">
        <ele>56</ele>
        <time>2019-09-15T10:29:08Z</time>
      </trkpt>
      <trkpt lat="47.25331" lon="-2.32901">
        <ele>56</ele>
        <time>2019-09-15T10:29:09Z</time>
      </trkpt>
      <trkpt lat="47.25341" lon="-2.32891">
        <ele>57</ele>
        <time>2019-09-15T10:29:12Z</time>
      </trkpt>
      <trkpt lat="47.25345" lon="-2.32887">
        <ele>57</ele>
        <time>2019-09-15T10:29:13Z</time>
      </trkpt>
      <trkpt lat="47.25348" lon="-2.32884">
        <ele>57</ele>
        <time>2019-09-15T10:29:14Z</time>
      </trkpt>
      <trkpt lat="47.25356" lon="-2.32876">
        <ele>57</ele>
        <time>2019-09-15T10:29:16Z</time>
      </trkpt>
      <trkpt lat="47.25359" lon="-2.32872">
        <ele>57</ele>
        <time>2019-09-15T10:29:17Z</time>
      </trkpt>
      <trkpt lat="47.25367" lon="-2.32864">
        <ele>57</ele>
        <time>2019-09-15T10:29:19Z</time>
      </trkpt>
      <trkpt lat="47.25371" lon="-2.32861">
        <ele>57</ele>
        <time>2019-09-15T10:29:20Z</time>
      </trkpt>
      <trkpt lat="47.25378" lon="-2.32852">
        <ele>57</ele>
        <time>2019-09-15T10:29:22Z</time>
      </trkpt>
      <trkpt lat="47.25382" lon="-2.32848">
        <ele>57</ele>
        <time>2019-09-15T10:29:23Z</time>
      </trkpt>
      <trkpt lat="47.25386" lon="-2.32844">
        <ele>57</ele>
        <time>2019-09-15T10:29:24Z</time>
      </trkpt>
      <trkpt lat="47.25389" lon="-2.3284">
        <ele>58</ele>
        <time>2019-09-15T10:29:25Z</time>
      </trkpt>
      <trkpt lat="47.25393" lon="-2.32836">
        <ele>58</ele>
        <time>2019-09-15T10:29:26Z</time>
      </trkpt>
      <trkpt lat="47.254" lon="-2.32828">
        <ele>58</ele>
        <time>2019-09-15T10:29:28Z</time>
      </trkpt>
      <trkpt lat="47.25403" lon="-2.32823">
        <ele>58</ele>
        <time>2019-09-15T10:29:29Z</time>
      </trkpt>
      <trkpt lat="47.25407" lon="-2.32819">
        <ele>58</ele>
        <time>2019-09-15T10:29:30Z</time>
      </trkpt>
      <trkpt lat="47.2541" lon="-2.32814">
        <ele>58</ele>
        <time>2019-09-15T10:29:31Z</time>
      </trkpt>
      <trkpt lat="47.25418" lon="-2.32802">
        <ele>58</ele>
        <time>2019-09-15T10:29:34Z</time>
      </trkpt>
      <trkpt lat="47.25425" lon="-2.32789">
        <ele>58</ele>
        <time>2019-09-15T10:29:37Z</time>
      </trkpt>
      <trkpt lat="47.25429" lon="-2.32774">
        <ele>59</ele>
        <time>2019-09-15T10:29:40Z</time>
      </trkpt>
      <trkpt lat="47.25434" lon="-2.32768">
        <ele>60</ele>
        <time>2019-09-15T10:29:42Z</time>
      </trkpt>
      <trkpt lat="47.25441" lon="-2.3276">
        <ele>60</ele>
        <time>2019-09-15T10:29:44Z</time>
      </trkpt>
      <trkpt lat="47.25447" lon="-2.32753">
        <ele>60</ele>
        <time>2019-09-15T10:29:46Z</time>
      </trkpt>
      <trkpt lat="47.25456" lon="-2.32739">
        <ele>59</ele>
        <time>2019-09-15T10:29:49Z</time>
      </trkpt>
      <trkpt lat="47.25459" lon="-2.32735">
        <ele>60</ele>
        <time>2019-09-15T10:29:50Z</time>
      </trkpt>
      <trkpt lat="47.25465" lon="-2.32727">
        <ele>59</ele>
        <time>2019-09-15T10:29:52Z</time>
      </trkpt>
      <trkpt lat="47.25468" lon="-2.32723">
        <ele>60</ele>
        <time>2019-09-15T10:29:53Z</time>
      </trkpt>
      <trkpt lat="47.2547" lon="-2.32719">
        <ele>60</ele>
        <time>2019-09-15T10:29:54Z</time>
      </trkpt>
      <trkpt lat="47.25473" lon="-2.32715">
        <ele>60</ele>
        <time>2019-09-15T10:29:55Z</time>
      </trkpt>
      <trkpt lat="47.2548" lon="-2.32707">
        <ele>60</ele>
        <time>2019-09-15T10:29:57Z</time>
      </trkpt>
      <trkpt lat="47.25486" lon="-2.32692">
        <ele>60</ele>
        <time>2019-09-15T10:30:00Z</time>
      </trkpt>
      <trkpt lat="47.25487" lon="-2.32681">
        <ele>60</ele>
        <time>2019-09-15T10:30:02Z</time>
      </trkpt>
      <trkpt lat="47.25488" lon="-2.32675">
        <ele>60</ele>
        <time>2019-09-15T10:30:03Z</time>
      </trkpt>
      <trkpt lat="47.25487" lon="-2.32664">
        <ele>60</ele>
        <time>2019-09-15T10:30:05Z</time>
      </trkpt>
      <trkpt lat="47.25485" lon="-2.32651">
        <ele>60</ele>
        <time>2019-09-15T10:30:07Z</time>
      </trkpt>
      <trkpt lat="47.25484" lon="-2.32646">
        <ele>60</ele>
        <time>2019-09-15T10:30:08Z</time>
      </trkpt>
      <trkpt lat="47.25482" lon="-2.32639">
        <ele>60</ele>
        <time>2019-09-15T10:30:09Z</time>
      </trkpt>
      <trkpt lat="47.25481" lon="-2.32632">
        <ele>60</ele>
        <time>2019-09-15T10:30:10Z</time>
      </trkpt>
      <trkpt lat="47.2548" lon="-2.32626">
        <ele>60</ele>
        <time>2019-09-15T10:30:11Z</time>
      </trkpt>
      <trkpt lat="47.25479" lon="-2.3262">
        <ele>60</ele>
        <time>2019-09-15T10:30:12Z</time>
      </trkpt>
      <trkpt lat="47.25478" lon="-2.32615">
        <ele>61</ele>
        <time>2019-09-15T10:30:13Z</time>
      </trkpt>
      <trkpt lat="47.25477" lon="-2.32604">
        <ele>61</ele>
        <time>2019-09-15T10:30:15Z</time>
      </trkpt>
      <trkpt lat="47.25476" lon="-2.32593">
        <ele>61</ele>
        <time>2019-09-15T10:30:17Z</time>
      </trkpt>
      <trkpt lat="47.25477" lon="-2.32582">
        <ele>61</ele>
        <time>2019-09-15T10:30:19Z</time>
      </trkpt>
      <trkpt lat="47.2548" lon="-2.32573">
        <ele>61</ele>
        <time>2019-09-15T10:30:21Z</time>
      </trkpt>
      <trkpt lat="47.25485" lon="-2.32565">
        <ele>61</ele>
        <time>2019-09-15T10:30:23Z</time>
      </trkpt>
      <trkpt lat="47.25488" lon="-2.32561">
        <ele>60</ele>
        <time>2019-09-15T10:30:24Z</time>
      </trkpt>
      <trkpt lat="47.25491" lon="-2.32556">
        <ele>60</ele>
        <time>2019-09-15T10:30:25Z</time>
      </trkpt>
      <trkpt lat="47.25497" lon="-2.32549">
        <ele>59</ele>
        <time>2019-09-15T10:30:27Z</time>
      </trkpt>
      <trkpt lat="47.255" lon="-2.32546">
        <ele>59</ele>
        <time>2019-09-15T10:30:28Z</time>
      </trkpt>
      <trkpt lat="47.25503" lon="-2.32542">
        <ele>59</ele>
        <time>2019-09-15T10:30:29Z</time>
      </trkpt>
      <trkpt lat="47.25506" lon="-2.32539">
        <ele>59</ele>
        <time>2019-09-15T10:30:30Z</time>
      </trkpt>
      <trkpt lat="47.2551" lon="-2.32535">
        <ele>59</ele>
        <time>2019-09-15T10:30:31Z</time>
      </trkpt>
      <trkpt lat="47.25517" lon="-2.32528">
        <ele>59</ele>
        <time>2019-09-15T10:30:33Z</time>
      </trkpt>
      <trkpt lat="47.25523" lon="-2.32521">
        <ele>59</ele>
        <time>2019-09-15T10:30:35Z</time>
      </trkpt>
      <trkpt lat="47.25527" lon="-2.32518">
        <ele>59</ele>
        <time>2019-09-15T10:30:36Z</time>
      </trkpt>
      <trkpt lat="47.25531" lon="-2.32514">
        <ele>59</ele>
        <time>2019-09-15T10:30:37Z</time>
      </trkpt>
      <trkpt lat="47.25536" lon="-2.32511">
        <ele>59</ele>
        <time>2019-09-15T10:30:38Z</time>
      </trkpt>
      <trkpt lat="47.2554" lon="-2.32507">
        <ele>59</ele>
        <time>2019-09-15T10:30:39Z</time>
      </trkpt>
      <trkpt lat="47.25545" lon="-2.32502">
        <ele>59</ele>
        <time>2019-09-15T10:30:40Z</time>
      </trkpt>
      <trkpt lat="47.2555" lon="-2.32499">
        <ele>59</ele>
        <time>2019-09-15T10:30:41Z</time>
      </trkpt>
      <trkpt lat="47.25555" lon="-2.32494">
        <ele>59</ele>
        <time>2019-09-15T10:30:42Z</time>
      </trkpt>
      <trkpt lat="47.2556" lon="-2.3249">
        <ele>59</ele>
        <time>2019-09-15T10:30:43Z</time>
      </trkpt>
      <trkpt lat="47.25565" lon="-2.32486">
        <ele>59</ele>
        <time>2019-09-15T10:30:44Z</time>
      </trkpt>
      <trkpt lat="47.2557" lon="-2.32481">
        <ele>59</ele>
        <time>2019-09-15T10:30:45Z</time>
      </trkpt>
      <trkpt lat="47.25575" lon="-2.32475">
        <ele>59</ele>
        <time>2019-09-15T10:30:46Z</time>
      </trkpt>
      <trkpt lat="47.2558" lon="-2.3247">
        <ele>59</ele>
        <time>2019-09-15T10:30:47Z</time>
      </trkpt>
      <trkpt lat="47.2559" lon="-2.32459">
        <ele>58</ele>
        <time>2019-09-15T10:30:49Z</time>
      </trkpt>
      <trkpt lat="47.25596" lon="-2.32453">
        <ele>57</ele>
        <time>2019-09-15T10:30:50Z</time>
      </trkpt>
      <trkpt lat="47.25601" lon="-2.32447">
        <ele>57</ele>
        <time>2019-09-15T10:30:51Z</time>
      </trkpt>
      <trkpt lat="47.25606" lon="-2.32441">
        <ele>57</ele>
        <time>2019-09-15T10:30:52Z</time>
      </trkpt>
      <trkpt lat="47.25611" lon="-2.32436">
        <ele>56</ele>
        <time>2019-09-15T10:30:53Z</time>
      </trkpt>
      <trkpt lat="47.25616" lon="-2.32431">
        <ele>56</ele>
        <time>2019-09-15T10:30:54Z</time>
      </trkpt>
      <trkpt lat="47.25622" lon="-2.32426">
        <ele>56</ele>
        <time>2019-09-15T10:30:55Z</time>
      </trkpt>
      <trkpt lat="47.25627" lon="-2.32421">
        <ele>56</ele>
        <time>2019-09-15T10:30:56Z</time>
      </trkpt>
      <trkpt lat="47.25632" lon="-2.32415">
        <ele>56</ele>
        <time>2019-09-15T10:30:57Z</time>
      </trkpt>
      <trkpt lat="47.25637" lon="-2.3241">
        <ele>56</ele>
        <time>2019-09-15T10:30:58Z</time>
      </trkpt>
      <trkpt lat="47.25642" lon="-2.32407">
        <ele>56</ele>
        <time>2019-09-15T10:30:59Z</time>
      </trkpt>
      <trkpt lat="47.25647" lon="-2.32405">
        <ele>56</ele>
        <time>2019-09-15T10:31:00Z</time>
      </trkpt>
      <trkpt lat="47.25652" lon="-2.32404">
        <ele>55</ele>
        <time>2019-09-15T10:31:01Z</time>
      </trkpt>
      <trkpt lat="47.25657" lon="-2.32404">
        <ele>55</ele>
        <time>2019-09-15T10:31:02Z</time>
      </trkpt>
      <trkpt lat="47.25661" lon="-2.32405">
        <ele>54</ele>
        <time>2019-09-15T10:31:03Z</time>
      </trkpt>
      <trkpt lat="47.25666" lon="-2.32408">
        <ele>54</ele>
        <time>2019-09-15T10:31:04Z</time>
      </trkpt>
      <trkpt lat="47.2567" lon="-2.32412">
        <ele>54</ele>
        <time>2019-09-15T10:31:05Z</time>
      </trkpt>
      <trkpt lat="47.25674" lon="-2.32415">
        <ele>54</ele>
        <time>2019-09-15T10:31:06Z</time>
      </trkpt>
      <trkpt lat="47.25679" lon="-2.32417">
        <ele>53</ele>
        <time>2019-09-15T10:31:07Z</time>
      </trkpt>
      <trkpt lat="47.25685" lon="-2.32418">
        <ele>53</ele>
        <time>2019-09-15T10:31:08Z</time>
      </trkpt>
      <trkpt lat="47.2569" lon="-2.32419">
        <ele>53</ele>
        <time>2019-09-15T10:31:09Z</time>
      </trkpt>
      <trkpt lat="47.25695" lon="-2.32419">
        <ele>53</ele>
        <time>2019-09-15T10:31:10Z</time>
      </trkpt>
      <trkpt lat="47.25701" lon="-2.32419">
        <ele>53</ele>
        <time>2019-09-15T10:31:11Z</time>
      </trkpt>
      <trkpt lat="47.25706" lon="-2.3242">
        <ele>53</ele>
        <time>2019-09-15T10:31:12Z</time>
      </trkpt>
      <trkpt lat="47.25711" lon="-2.32421">
        <ele>53</ele>
        <time>2019-09-15T10:31:13Z</time>
      </trkpt>
      <trkpt lat="47.25717" lon="-2.32421">
        <ele>53</ele>
        <time>2019-09-15T10:31:14Z</time>
      </trkpt>
      <trkpt lat="47.25723" lon="-2.32422">
        <ele>53</ele>
        <time>2019-09-15T10:31:15Z</time>
      </trkpt>
      <trkpt lat="47.25728" lon="-2.32422">
        <ele>53</ele>
        <time>2019-09-15T10:31:16Z</time>
      </trkpt>
      <trkpt lat="47.25733" lon="-2.32422">
        <ele>53</ele>
        <time>2019-09-15T10:31:17Z</time>
      </trkpt>
      <trkpt lat="47.25743" lon="-2.32423">
        <ele>53</ele>
        <time>2019-09-15T10:31:19Z</time>
      </trkpt>
      <trkpt lat="47.25752" lon="-2.32422">
        <ele>52</ele>
        <time>2019-09-15T10:31:21Z</time>
      </trkpt>
      <trkpt lat="47.25758" lon="-2.32422">
        <ele>52</ele>
        <time>2019-09-15T10:31:22Z</time>
      </trkpt>
      <trkpt lat="47.2577" lon="-2.32419">
        <ele>53</ele>
        <time>2019-09-15T10:31:25Z</time>
      </trkpt>
      <trkpt lat="47.25775" lon="-2.32418">
        <ele>53</ele>
        <time>2019-09-15T10:31:26Z</time>
      </trkpt>
      <trkpt lat="47.25778" lon="-2.32418">
        <ele>52</ele>
        <time>2019-09-15T10:31:27Z</time>
      </trkpt>
      <trkpt lat="47.25789" lon="-2.32427">
        <ele>52</ele>
        <time>2019-09-15T10:31:30Z</time>
      </trkpt>
      <trkpt lat="47.25791" lon="-2.32432">
        <ele>52</ele>
        <time>2019-09-15T10:31:31Z</time>
      </trkpt>
      <trkpt lat="47.25794" lon="-2.32437">
        <ele>53</ele>
        <time>2019-09-15T10:31:32Z</time>
      </trkpt>
      <trkpt lat="47.25797" lon="-2.32443">
        <ele>52</ele>
        <time>2019-09-15T10:31:33Z</time>
      </trkpt>
      <trkpt lat="47.25801" lon="-2.32447">
        <ele>52</ele>
        <time>2019-09-15T10:31:34Z</time>
      </trkpt>
      <trkpt lat="47.25806" lon="-2.32452">
        <ele>52</ele>
        <time>2019-09-15T10:31:35Z</time>
      </trkpt>
      <trkpt lat="47.25812" lon="-2.32454">
        <ele>52</ele>
        <time>2019-09-15T10:31:36Z</time>
      </trkpt>
      <trkpt lat="47.25816" lon="-2.32457">
        <ele>52</ele>
        <time>2019-09-15T10:31:37Z</time>
      </trkpt>
      <trkpt lat="47.25832" lon="-2.32466">
        <ele>52</ele>
        <time>2019-09-15T10:31:40Z</time>
      </trkpt>
      <trkpt lat="47.25837" lon="-2.32469">
        <ele>52</ele>
        <time>2019-09-15T10:31:41Z</time>
      </trkpt>
      <trkpt lat="47.25842" lon="-2.3247">
        <ele>52</ele>
        <time>2019-09-15T10:31:42Z</time>
      </trkpt>
      <trkpt lat="47.25847" lon="-2.32471">
        <ele>52</ele>
        <time>2019-09-15T10:31:43Z</time>
      </trkpt>
      <trkpt lat="47.25852" lon="-2.32472">
        <ele>52</ele>
        <time>2019-09-15T10:31:44Z</time>
      </trkpt>
      <trkpt lat="47.25857" lon="-2.32472">
        <ele>52</ele>
        <time>2019-09-15T10:31:45Z</time>
      </trkpt>
      <trkpt lat="47.25861" lon="-2.32472">
        <ele>52</ele>
        <time>2019-09-15T10:31:46Z</time>
      </trkpt>
      <trkpt lat="47.25871" lon="-2.32471">
        <ele>52</ele>
        <time>2019-09-15T10:31:48Z</time>
      </trkpt>
      <trkpt lat="47.25884" lon="-2.32469">
        <ele>53</ele>
        <time>2019-09-15T10:31:51Z</time>
      </trkpt>
      <trkpt lat="47.25889" lon="-2.32468">
        <ele>53</ele>
        <time>2019-09-15T10:31:52Z</time>
      </trkpt>
      <trkpt lat="47.25893" lon="-2.32466">
        <ele>53</ele>
        <time>2019-09-15T10:31:53Z</time>
      </trkpt>
      <trkpt lat="47.25901" lon="-2.32458">
        <ele>54</ele>
        <time>2019-09-15T10:31:55Z</time>
      </trkpt>
      <trkpt lat="47.2591" lon="-2.32448">
        <ele>54</ele>
        <time>2019-09-15T10:31:57Z</time>
      </trkpt>
      <trkpt lat="47.25913" lon="-2.32444">
        <ele>53</ele>
        <time>2019-09-15T10:31:58Z</time>
      </trkpt>
      <trkpt lat="47.25917" lon="-2.32439">
        <ele>53</ele>
        <time>2019-09-15T10:31:59Z</time>
      </trkpt>
      <trkpt lat="47.25924" lon="-2.32429">
        <ele>53</ele>
        <time>2019-09-15T10:32:01Z</time>
      </trkpt>
      <trkpt lat="47.25936" lon="-2.32415">
        <ele>53</ele>
        <time>2019-09-15T10:32:04Z</time>
      </trkpt>
      <trkpt lat="47.25939" lon="-2.3241">
        <ele>53</ele>
        <time>2019-09-15T10:32:05Z</time>
      </trkpt>
      <trkpt lat="47.25942" lon="-2.32406">
        <ele>53</ele>
        <time>2019-09-15T10:32:06Z</time>
      </trkpt>
      <trkpt lat="47.25946" lon="-2.32401">
        <ele>53</ele>
        <time>2019-09-15T10:32:07Z</time>
      </trkpt>
      <trkpt lat="47.25954" lon="-2.32393">
        <ele>53</ele>
        <time>2019-09-15T10:32:09Z</time>
      </trkpt>
      <trkpt lat="47.25959" lon="-2.32389">
        <ele>53</ele>
        <time>2019-09-15T10:32:10Z</time>
      </trkpt>
      <trkpt lat="47.25969" lon="-2.32373">
        <ele>52</ele>
        <time>2019-09-15T10:32:13Z</time>
      </trkpt>
      <trkpt lat="47.25973" lon="-2.32368">
        <ele>52</ele>
        <time>2019-09-15T10:32:14Z</time>
      </trkpt>
      <trkpt lat="47.25977" lon="-2.32363">
        <ele>52</ele>
        <time>2019-09-15T10:32:15Z</time>
      </trkpt>
      <trkpt lat="47.25981" lon="-2.32358">
        <ele>52</ele>
        <time>2019-09-15T10:32:16Z</time>
      </trkpt>
      <trkpt lat="47.25984" lon="-2.32353">
        <ele>52</ele>
        <time>2019-09-15T10:32:17Z</time>
      </trkpt>
      <trkpt lat="47.25988" lon="-2.32348">
        <ele>52</ele>
        <time>2019-09-15T10:32:18Z</time>
      </trkpt>
      <trkpt lat="47.25992" lon="-2.32343">
        <ele>52</ele>
        <time>2019-09-15T10:32:19Z</time>
      </trkpt>
      <trkpt lat="47.25995" lon="-2.32338">
        <ele>52</ele>
        <time>2019-09-15T10:32:20Z</time>
      </trkpt>
      <trkpt lat="47.26" lon="-2.32333">
        <ele>51</ele>
        <time>2019-09-15T10:32:21Z</time>
      </trkpt>
      <trkpt lat="47.26003" lon="-2.32329">
        <ele>51</ele>
        <time>2019-09-15T10:32:22Z</time>
      </trkpt>
      <trkpt lat="47.2601" lon="-2.32321">
        <ele>51</ele>
        <time>2019-09-15T10:32:24Z</time>
      </trkpt>
      <trkpt lat="47.26014" lon="-2.32317">
        <ele>51</ele>
        <time>2019-09-15T10:32:25Z</time>
      </trkpt>
      <trkpt lat="47.26017" lon="-2.32313">
        <ele>51</ele>
        <time>2019-09-15T10:32:26Z</time>
      </trkpt>
      <trkpt lat="47.2602" lon="-2.32309">
        <ele>51</ele>
        <time>2019-09-15T10:32:27Z</time>
      </trkpt>
      <trkpt lat="47.26023" lon="-2.32304">
        <ele>51</ele>
        <time>2019-09-15T10:32:28Z</time>
      </trkpt>
      <trkpt lat="47.26027" lon="-2.323">
        <ele>51</ele>
        <time>2019-09-15T10:32:29Z</time>
      </trkpt>
      <trkpt lat="47.2603" lon="-2.32295">
        <ele>51</ele>
        <time>2019-09-15T10:32:30Z</time>
      </trkpt>
      <trkpt lat="47.26034" lon="-2.32291">
        <ele>51</ele>
        <time>2019-09-15T10:32:31Z</time>
      </trkpt>
      <trkpt lat="47.26037" lon="-2.32286">
        <ele>51</ele>
        <time>2019-09-15T10:32:32Z</time>
      </trkpt>
      <trkpt lat="47.26041" lon="-2.32282">
        <ele>51</ele>
        <time>2019-09-15T10:32:33Z</time>
      </trkpt>
      <trkpt lat="47.26044" lon="-2.32278">
        <ele>52</ele>
        <time>2019-09-15T10:32:34Z</time>
      </trkpt>
      <trkpt lat="47.26048" lon="-2.32274">
        <ele>52</ele>
        <time>2019-09-15T10:32:35Z</time>
      </trkpt>
      <trkpt lat="47.26052" lon="-2.32269">
        <ele>52</ele>
        <time>2019-09-15T10:32:36Z</time>
      </trkpt>
      <trkpt lat="47.26056" lon="-2.32265">
        <ele>53</ele>
        <time>2019-09-15T10:32:37Z</time>
      </trkpt>
      <trkpt lat="47.26059" lon="-2.3226">
        <ele>53</ele>
        <time>2019-09-15T10:32:38Z</time>
      </trkpt>
      <trkpt lat="47.26072" lon="-2.3225">
        <ele>53</ele>
        <time>2019-09-15T10:32:41Z</time>
      </trkpt>
      <trkpt lat="47.26076" lon="-2.32247">
        <ele>53</ele>
        <time>2019-09-15T10:32:42Z</time>
      </trkpt>
      <trkpt lat="47.26083" lon="-2.32238">
        <ele>53</ele>
        <time>2019-09-15T10:32:44Z</time>
      </trkpt>
      <trkpt lat="47.26086" lon="-2.32233">
        <ele>53</ele>
        <time>2019-09-15T10:32:45Z</time>
      </trkpt>
      <trkpt lat="47.26089" lon="-2.32228">
        <ele>53</ele>
        <time>2019-09-15T10:32:46Z</time>
      </trkpt>
      <trkpt lat="47.26092" lon="-2.32223">
        <ele>52</ele>
        <time>2019-09-15T10:32:47Z</time>
      </trkpt>
      <trkpt lat="47.26095" lon="-2.32218">
        <ele>53</ele>
        <time>2019-09-15T10:32:48Z</time>
      </trkpt>
      <trkpt lat="47.26098" lon="-2.32213">
        <ele>53</ele>
        <time>2019-09-15T10:32:49Z</time>
      </trkpt>
      <trkpt lat="47.26101" lon="-2.32207">
        <ele>53</ele>
        <time>2019-09-15T10:32:50Z</time>
      </trkpt>
      <trkpt lat="47.26112" lon="-2.32184">
        <ele>52</ele>
        <time>2019-09-15T10:32:54Z</time>
      </trkpt>
      <trkpt lat="47.26114" lon="-2.32178">
        <ele>53</ele>
        <time>2019-09-15T10:32:55Z</time>
      </trkpt>
      <trkpt lat="47.26116" lon="-2.32172">
        <ele>53</ele>
        <time>2019-09-15T10:32:56Z</time>
      </trkpt>
      <trkpt lat="47.26124" lon="-2.3215">
        <ele>53</ele>
        <time>2019-09-15T10:33:00Z</time>
      </trkpt>
      <trkpt lat="47.26127" lon="-2.32145">
        <ele>53</ele>
        <time>2019-09-15T10:33:01Z</time>
      </trkpt>
      <trkpt lat="47.26129" lon="-2.32139">
        <ele>53</ele>
        <time>2019-09-15T10:33:02Z</time>
      </trkpt>
      <trkpt lat="47.26132" lon="-2.32128">
        <ele>53</ele>
        <time>2019-09-15T10:33:03Z</time>
      </trkpt>
      <trkpt lat="47.26134" lon="-2.32122">
        <ele>54</ele>
        <time>2019-09-15T10:33:04Z</time>
      </trkpt>
      <trkpt lat="47.26136" lon="-2.32115">
        <ele>53</ele>
        <time>2019-09-15T10:33:05Z</time>
      </trkpt>
      <trkpt lat="47.26138" lon="-2.32109">
        <ele>53</ele>
        <time>2019-09-15T10:33:06Z</time>
      </trkpt>
      <trkpt lat="47.2614" lon="-2.32103">
        <ele>53</ele>
        <time>2019-09-15T10:33:07Z</time>
      </trkpt>
      <trkpt lat="47.26144" lon="-2.32093">
        <ele>54</ele>
        <time>2019-09-15T10:33:10Z</time>
      </trkpt>
      <trkpt lat="47.26146" lon="-2.32087">
        <ele>54</ele>
        <time>2019-09-15T10:33:11Z</time>
      </trkpt>
      <trkpt lat="47.26148" lon="-2.32081">
        <ele>54</ele>
        <time>2019-09-15T10:33:12Z</time>
      </trkpt>
      <trkpt lat="47.2615" lon="-2.32075">
        <ele>54</ele>
        <time>2019-09-15T10:33:13Z</time>
      </trkpt>
      <trkpt lat="47.26152" lon="-2.32068">
        <ele>54</ele>
        <time>2019-09-15T10:33:14Z</time>
      </trkpt>
      <trkpt lat="47.26154" lon="-2.32062">
        <ele>55</ele>
        <time>2019-09-15T10:33:15Z</time>
      </trkpt>
      <trkpt lat="47.26158" lon="-2.32052">
        <ele>55</ele>
        <time>2019-09-15T10:33:17Z</time>
      </trkpt>
      <trkpt lat="47.26161" lon="-2.32043">
        <ele>55</ele>
        <time>2019-09-15T10:33:19Z</time>
      </trkpt>
      <trkpt lat="47.26166" lon="-2.32035">
        <ele>55</ele>
        <time>2019-09-15T10:33:21Z</time>
      </trkpt>
      <trkpt lat="47.26168" lon="-2.32031">
        <ele>55</ele>
        <time>2019-09-15T10:33:22Z</time>
      </trkpt>
      <trkpt lat="47.2617" lon="-2.32028">
        <ele>55</ele>
        <time>2019-09-15T10:33:23Z</time>
      </trkpt>
      <trkpt lat="47.26176" lon="-2.32025">
        <ele>54</ele>
        <time>2019-09-15T10:33:25Z</time>
      </trkpt>
      <trkpt lat="47.26183" lon="-2.32025">
        <ele>54</ele>
        <time>2019-09-15T10:33:26Z</time>
      </trkpt>
      <trkpt lat="47.2619" lon="-2.32027">
        <ele>54</ele>
        <time>2019-09-15T10:33:30Z</time>
      </trkpt>
      <trkpt lat="47.26196" lon="-2.32027">
        <ele>54</ele>
        <time>2019-09-15T10:33:33Z</time>
      </trkpt>
      <trkpt lat="47.26199" lon="-2.32021">
        <ele>55</ele>
        <time>2019-09-15T10:33:36Z</time>
      </trkpt>
      <trkpt lat="47.26204" lon="-2.32016">
        <ele>56</ele>
        <time>2019-09-15T10:33:39Z</time>
      </trkpt>
      <trkpt lat="47.2621" lon="-2.32013">
        <ele>56</ele>
        <time>2019-09-15T10:33:42Z</time>
      </trkpt>
      <trkpt lat="47.26215" lon="-2.32008">
        <ele>56</ele>
        <time>2019-09-15T10:33:44Z</time>
      </trkpt>
      <trkpt lat="47.26224" lon="-2.31996">
        <ele>57</ele>
        <time>2019-09-15T10:33:48Z</time>
      </trkpt>
      <trkpt lat="47.26227" lon="-2.31992">
        <ele>57</ele>
        <time>2019-09-15T10:33:49Z</time>
      </trkpt>
      <trkpt lat="47.26229" lon="-2.31988">
        <ele>58</ele>
        <time>2019-09-15T10:33:50Z</time>
      </trkpt>
      <trkpt lat="47.26232" lon="-2.31985">
        <ele>58</ele>
        <time>2019-09-15T10:33:51Z</time>
      </trkpt>
      <trkpt lat="47.26241" lon="-2.31973">
        <ele>60</ele>
        <time>2019-09-15T10:33:54Z</time>
      </trkpt>
      <trkpt lat="47.26247" lon="-2.31965">
        <ele>61</ele>
        <time>2019-09-15T10:33:56Z</time>
      </trkpt>
      <trkpt lat="47.26253" lon="-2.31959">
        <ele>61</ele>
        <time>2019-09-15T10:33:58Z</time>
      </trkpt>
      <trkpt lat="47.2626" lon="-2.31951">
        <ele>62</ele>
        <time>2019-09-15T10:34:01Z</time>
      </trkpt>
      <trkpt lat="47.26264" lon="-2.31941">
        <ele>62</ele>
        <time>2019-09-15T10:34:03Z</time>
      </trkpt>
      <trkpt lat="47.26267" lon="-2.31937">
        <ele>62</ele>
        <time>2019-09-15T10:34:04Z</time>
      </trkpt>
      <trkpt lat="47.26269" lon="-2.31933">
        <ele>63</ele>
        <time>2019-09-15T10:34:05Z</time>
      </trkpt>
      <trkpt lat="47.26279" lon="-2.31923">
        <ele>63</ele>
        <time>2019-09-15T10:34:08Z</time>
      </trkpt>
      <trkpt lat="47.26284" lon="-2.31915">
        <ele>64</ele>
        <time>2019-09-15T10:34:10Z</time>
      </trkpt>
      <trkpt lat="47.26288" lon="-2.31912">
        <ele>64</ele>
        <time>2019-09-15T10:34:11Z</time>
      </trkpt>
      <trkpt lat="47.26293" lon="-2.31906">
        <ele>64</ele>
        <time>2019-09-15T10:34:13Z</time>
      </trkpt>
      <trkpt lat="47.26296" lon="-2.31896">
        <ele>63</ele>
        <time>2019-09-15T10:34:15Z</time>
      </trkpt>
      <trkpt lat="47.26297" lon="-2.3189">
        <ele>63</ele>
        <time>2019-09-15T10:34:16Z</time>
      </trkpt>
      <trkpt lat="47.26299" lon="-2.31878">
        <ele>63</ele>
        <time>2019-09-15T10:34:18Z</time>
      </trkpt>
      <trkpt lat="47.26299" lon="-2.31867">
        <ele>63</ele>
        <time>2019-09-15T10:34:20Z</time>
      </trkpt>
      <trkpt lat="47.263" lon="-2.31856">
        <ele>64</ele>
        <time>2019-09-15T10:34:22Z</time>
      </trkpt>
      <trkpt lat="47.26301" lon="-2.3185">
        <ele>64</ele>
        <time>2019-09-15T10:34:23Z</time>
      </trkpt>
      <trkpt lat="47.26302" lon="-2.31835">
        <ele>64</ele>
        <time>2019-09-15T10:34:26Z</time>
      </trkpt>
      <trkpt lat="47.26303" lon="-2.3183">
        <ele>64</ele>
        <time>2019-09-15T10:34:27Z</time>
      </trkpt>
      <trkpt lat="47.26303" lon="-2.31826">
        <ele>64</ele>
        <time>2019-09-15T10:34:28Z</time>
      </trkpt>
      <trkpt lat="47.26303" lon="-2.31816">
        <ele>64</ele>
        <time>2019-09-15T10:34:30Z</time>
      </trkpt>
      <trkpt lat="47.26302" lon="-2.31801">
        <ele>66</ele>
        <time>2019-09-15T10:34:33Z</time>
      </trkpt>
      <trkpt lat="47.26301" lon="-2.31789">
        <ele>66</ele>
        <time>2019-09-15T10:34:35Z</time>
      </trkpt>
      <trkpt lat="47.263" lon="-2.31784">
        <ele>66</ele>
        <time>2019-09-15T10:34:36Z</time>
      </trkpt>
      <trkpt lat="47.26299" lon="-2.31779">
        <ele>66</ele>
        <time>2019-09-15T10:34:37Z</time>
      </trkpt>
      <trkpt lat="47.26298" lon="-2.31768">
        <ele>67</ele>
        <time>2019-09-15T10:34:39Z</time>
      </trkpt>
      <trkpt lat="47.26297" lon="-2.31763">
        <ele>67</ele>
        <time>2019-09-15T10:34:40Z</time>
      </trkpt>
      <trkpt lat="47.26301" lon="-2.31753">
        <ele>69</ele>
        <time>2019-09-15T10:34:42Z</time>
      </trkpt>
      <trkpt lat="47.26304" lon="-2.31746">
        <ele>68</ele>
        <time>2019-09-15T10:34:43Z</time>
      </trkpt>
      <trkpt lat="47.26308" lon="-2.31741">
        <ele>68</ele>
        <time>2019-09-15T10:34:44Z</time>
      </trkpt>
      <trkpt lat="47.26313" lon="-2.31736">
        <ele>68</ele>
        <time>2019-09-15T10:34:45Z</time>
      </trkpt>
      <trkpt lat="47.26317" lon="-2.31731">
        <ele>68</ele>
        <time>2019-09-15T10:34:46Z</time>
      </trkpt>
      <trkpt lat="47.26324" lon="-2.31726">
        <ele>67</ele>
        <time>2019-09-15T10:34:48Z</time>
      </trkpt>
      <trkpt lat="47.26328" lon="-2.31719">
        <ele>67</ele>
        <time>2019-09-15T10:34:50Z</time>
      </trkpt>
      <trkpt lat="47.26332" lon="-2.31708">
        <ele>66</ele>
        <time>2019-09-15T10:34:52Z</time>
      </trkpt>
      <trkpt lat="47.26337" lon="-2.31702">
        <ele>65</ele>
        <time>2019-09-15T10:34:54Z</time>
      </trkpt>
      <trkpt lat="47.26339" lon="-2.317">
        <ele>65</ele>
        <time>2019-09-15T10:34:55Z</time>
      </trkpt>
      <trkpt lat="47.26342" lon="-2.31697">
        <ele>64</ele>
        <time>2019-09-15T10:34:56Z</time>
      </trkpt>
      <trkpt lat="47.26348" lon="-2.31691">
        <ele>64</ele>
        <time>2019-09-15T10:34:59Z</time>
      </trkpt>
      <trkpt lat="47.26351" lon="-2.31688">
        <ele>64</ele>
        <time>2019-09-15T10:35:00Z</time>
      </trkpt>
      <trkpt lat="47.26355" lon="-2.31684">
        <ele>62</ele>
        <time>2019-09-15T10:35:02Z</time>
      </trkpt>
      <trkpt lat="47.2636" lon="-2.3168">
        <ele>61</ele>
        <time>2019-09-15T10:35:04Z</time>
      </trkpt>
      <trkpt lat="47.26362" lon="-2.31679">
        <ele>61</ele>
        <time>2019-09-15T10:35:05Z</time>
      </trkpt>
      <trkpt lat="47.26365" lon="-2.31677">
        <ele>61</ele>
        <time>2019-09-15T10:35:06Z</time>
      </trkpt>
      <trkpt lat="47.2637" lon="-2.31674">
        <ele>60</ele>
        <time>2019-09-15T10:35:08Z</time>
      </trkpt>
      <trkpt lat="47.26374" lon="-2.31672">
        <ele>60</ele>
        <time>2019-09-15T10:35:09Z</time>
      </trkpt>
      <trkpt lat="47.26377" lon="-2.3167">
        <ele>60</ele>
        <time>2019-09-15T10:35:10Z</time>
      </trkpt>
      <trkpt lat="47.26387" lon="-2.31666">
        <ele>60</ele>
        <time>2019-09-15T10:35:13Z</time>
      </trkpt>
      <trkpt lat="47.26391" lon="-2.31664">
        <ele>60</ele>
        <time>2019-09-15T10:35:14Z</time>
      </trkpt>
      <trkpt lat="47.26397" lon="-2.31661">
        <ele>60</ele>
        <time>2019-09-15T10:35:16Z</time>
      </trkpt>
      <trkpt lat="47.26399" lon="-2.31659">
        <ele>60</ele>
        <time>2019-09-15T10:35:17Z</time>
      </trkpt>
      <trkpt lat="47.26404" lon="-2.31654">
        <ele>60</ele>
        <time>2019-09-15T10:35:19Z</time>
      </trkpt>
      <trkpt lat="47.26406" lon="-2.31646">
        <ele>58</ele>
        <time>2019-09-15T10:35:21Z</time>
      </trkpt>
      <trkpt lat="47.26407" lon="-2.31634">
        <ele>59</ele>
        <time>2019-09-15T10:35:24Z</time>
      </trkpt>
      <trkpt lat="47.26407" lon="-2.3163">
        <ele>59</ele>
        <time>2019-09-15T10:35:25Z</time>
      </trkpt>
      <trkpt lat="47.26407" lon="-2.31626">
        <ele>59</ele>
        <time>2019-09-15T10:35:26Z</time>
      </trkpt>
      <trkpt lat="47.26409" lon="-2.31614">
        <ele>59</ele>
        <time>2019-09-15T10:35:29Z</time>
      </trkpt>
      <trkpt lat="47.26409" lon="-2.31609">
        <ele>60</ele>
        <time>2019-09-15T10:35:30Z</time>
      </trkpt>
      <trkpt lat="47.26409" lon="-2.31604">
        <ele>60</ele>
        <time>2019-09-15T10:35:31Z</time>
      </trkpt>
      <trkpt lat="47.26409" lon="-2.316">
        <ele>60</ele>
        <time>2019-09-15T10:35:32Z</time>
      </trkpt>
      <trkpt lat="47.2641" lon="-2.31592">
        <ele>60</ele>
        <time>2019-09-15T10:35:34Z</time>
      </trkpt>
      <trkpt lat="47.2641" lon="-2.31588">
        <ele>60</ele>
        <time>2019-09-15T10:35:35Z</time>
      </trkpt>
      <trkpt lat="47.2641" lon="-2.31583">
        <ele>60</ele>
        <time>2019-09-15T10:35:36Z</time>
      </trkpt>
      <trkpt lat="47.2641" lon="-2.31575">
        <ele>61</ele>
        <time>2019-09-15T10:35:38Z</time>
      </trkpt>
      <trkpt lat="47.26413" lon="-2.31565">
        <ele>61</ele>
        <time>2019-09-15T10:35:41Z</time>
      </trkpt>
      <trkpt lat="47.26417" lon="-2.31562">
        <ele>60</ele>
        <time>2019-09-15T10:35:45Z</time>
      </trkpt>
      <trkpt lat="47.26417" lon="-2.31562">
        <ele>60</ele>
        <time>2019-09-15T10:35:52Z</time>
      </trkpt>
      <trkpt lat="47.26417" lon="-2.31562">
        <ele>10</ele>
        <time>2019-09-15T10:35:52Z</time>
      </trkpt>
      <trkpt lat="47.26417" lon="-2.31562">
        <ele>10</ele>
        <time>2019-09-15T10:36:02Z</time>
      </trkpt>
      <trkpt lat="47.26423" lon="-2.31553">
        <ele>60</ele>
        <time>2019-09-15T10:36:02Z</time>
      </trkpt>
      <trkpt lat="47.26423" lon="-2.31553">
        <ele>10.5</ele>
        <time>2019-09-15T10:38:43Z</time>
      </trkpt>
      <trkpt lat="47.26423" lon="-2.31553">
        <ele>10.5</ele>
        <time>2019-09-15T10:38:45Z</time>
      </trkpt>
    </trkseg>
  </trk>
</gpx>